<?xml version="1.0" encoding="UTF-8" standalone="no" ?>
<gpx xmlns="http://www.topografix.com/GPX/1/1" xmlns:xsi="http://www.w3.org/2001/XMLSchema-instance" xsi:schemaLocation="http://www.topografix.com/GPX/1/1 http://www.topografix.com/GPX/1/1/gpx.xsd" version="1.1" creator="VisuGPX - https://www.visugpx.com">
  <metadata>
    <name>Chatillon - levaré</name>
    <desc><![CDATA[Le grand chemin montois]]></desc>
  </metadata>
  <trk>
    <name><![CDATA[Chatillon - levaré_1]]></name>
    <trkseg>
      <trkpt lat="48.3387" lon="-0.74488">
        <ele>235.9</ele>
        <time>2020-06-27T09:36:09Z</time>
      </trkpt>
      <trkpt lat="48.33874" lon="-0.74495">
        <ele>231.9</ele>
        <time>2020-06-27T09:36:15Z</time>
      </trkpt>
      <trkpt lat="48.33877" lon="-0.74498">
        <ele>229.9</ele>
        <time>2020-06-27T09:36:20Z</time>
      </trkpt>
      <trkpt lat="48.33885" lon="-0.74507">
        <ele>225.9</ele>
        <time>2020-06-27T09:36:26Z</time>
      </trkpt>
      <trkpt lat="48.33889" lon="-0.74517">
        <ele>225.9</ele>
        <time>2020-06-27T09:36:31Z</time>
      </trkpt>
      <trkpt lat="48.3389" lon="-0.74525">
        <ele>225.9</ele>
        <time>2020-06-27T09:36:37Z</time>
      </trkpt>
      <trkpt lat="48.33892" lon="-0.74533">
        <ele>223.9</ele>
        <time>2020-06-27T09:36:43Z</time>
      </trkpt>
      <trkpt lat="48.33893" lon="-0.7454">
        <ele>221.9</ele>
        <time>2020-06-27T09:36:49Z</time>
      </trkpt>
      <trkpt lat="48.33893" lon="-0.74549">
        <ele>219.9</ele>
        <time>2020-06-27T09:36:54Z</time>
      </trkpt>
      <trkpt lat="48.33896" lon="-0.74556">
        <ele>218.9</ele>
        <time>2020-06-27T09:36:59Z</time>
      </trkpt>
      <trkpt lat="48.33898" lon="-0.74564">
        <ele>215.9</ele>
        <time>2020-06-27T09:37:05Z</time>
      </trkpt>
      <trkpt lat="48.339" lon="-0.74571">
        <ele>216.9</ele>
        <time>2020-06-27T09:37:10Z</time>
      </trkpt>
      <trkpt lat="48.33902" lon="-0.74582">
        <ele>216.9</ele>
        <time>2020-06-27T09:37:16Z</time>
      </trkpt>
      <trkpt lat="48.33906" lon="-0.74593">
        <ele>216.9</ele>
        <time>2020-06-27T09:37:22Z</time>
      </trkpt>
      <trkpt lat="48.33908" lon="-0.74602">
        <ele>217.9</ele>
        <time>2020-06-27T09:37:27Z</time>
      </trkpt>
      <trkpt lat="48.33909" lon="-0.74608">
        <ele>216.9</ele>
        <time>2020-06-27T09:37:32Z</time>
      </trkpt>
      <trkpt lat="48.3391" lon="-0.74618">
        <ele>216.9</ele>
        <time>2020-06-27T09:37:38Z</time>
      </trkpt>
      <trkpt lat="48.33911" lon="-0.74626">
        <ele>216.9</ele>
        <time>2020-06-27T09:37:43Z</time>
      </trkpt>
      <trkpt lat="48.33915" lon="-0.74634">
        <ele>216.9</ele>
        <time>2020-06-27T09:37:49Z</time>
      </trkpt>
      <trkpt lat="48.33922" lon="-0.74643">
        <ele>217.9</ele>
        <time>2020-06-27T09:37:55Z</time>
      </trkpt>
      <trkpt lat="48.33922" lon="-0.74652">
        <ele>215.9</ele>
        <time>2020-06-27T09:38:01Z</time>
      </trkpt>
      <trkpt lat="48.33926" lon="-0.74658">
        <ele>214.9</ele>
        <time>2020-06-27T09:38:06Z</time>
      </trkpt>
      <trkpt lat="48.33931" lon="-0.74665">
        <ele>215.9</ele>
        <time>2020-06-27T09:38:12Z</time>
      </trkpt>
      <trkpt lat="48.33932" lon="-0.74673">
        <ele>215.9</ele>
        <time>2020-06-27T09:38:18Z</time>
      </trkpt>
      <trkpt lat="48.33935" lon="-0.7468">
        <ele>214.9</ele>
        <time>2020-06-27T09:38:24Z</time>
      </trkpt>
      <trkpt lat="48.33939" lon="-0.74687">
        <ele>214.9</ele>
        <time>2020-06-27T09:38:29Z</time>
      </trkpt>
      <trkpt lat="48.33941" lon="-0.74693">
        <ele>212.9</ele>
        <time>2020-06-27T09:38:34Z</time>
      </trkpt>
      <trkpt lat="48.33947" lon="-0.74701">
        <ele>212.9</ele>
        <time>2020-06-27T09:38:40Z</time>
      </trkpt>
      <trkpt lat="48.3395" lon="-0.74708">
        <ele>212.9</ele>
        <time>2020-06-27T09:38:46Z</time>
      </trkpt>
      <trkpt lat="48.33954" lon="-0.74717">
        <ele>213.9</ele>
        <time>2020-06-27T09:38:52Z</time>
      </trkpt>
      <trkpt lat="48.33959" lon="-0.74724">
        <ele>214.9</ele>
        <time>2020-06-27T09:38:57Z</time>
      </trkpt>
      <trkpt lat="48.33965" lon="-0.74732">
        <ele>215.9</ele>
        <time>2020-06-27T09:39:03Z</time>
      </trkpt>
      <trkpt lat="48.33966" lon="-0.74738">
        <ele>214.9</ele>
        <time>2020-06-27T09:39:08Z</time>
      </trkpt>
      <trkpt lat="48.3397" lon="-0.74746">
        <ele>215.9</ele>
        <time>2020-06-27T09:39:14Z</time>
      </trkpt>
      <trkpt lat="48.33971" lon="-0.74753">
        <ele>214.9</ele>
        <time>2020-06-27T09:39:19Z</time>
      </trkpt>
      <trkpt lat="48.33974" lon="-0.74761">
        <ele>214.9</ele>
        <time>2020-06-27T09:39:25Z</time>
      </trkpt>
      <trkpt lat="48.3398" lon="-0.7477">
        <ele>215.9</ele>
        <time>2020-06-27T09:39:31Z</time>
      </trkpt>
      <trkpt lat="48.33984" lon="-0.74777">
        <ele>215.9</ele>
        <time>2020-06-27T09:39:37Z</time>
      </trkpt>
      <trkpt lat="48.33988" lon="-0.74784">
        <ele>216.9</ele>
        <time>2020-06-27T09:39:42Z</time>
      </trkpt>
      <trkpt lat="48.33988" lon="-0.74789">
        <ele>212.9</ele>
        <time>2020-06-27T09:39:47Z</time>
      </trkpt>
      <trkpt lat="48.3399" lon="-0.74796">
        <ele>211.9</ele>
        <time>2020-06-27T09:39:53Z</time>
      </trkpt>
      <trkpt lat="48.33994" lon="-0.74803">
        <ele>212.9</ele>
        <time>2020-06-27T09:39:58Z</time>
      </trkpt>
      <trkpt lat="48.33997" lon="-0.74809">
        <ele>212.9</ele>
        <time>2020-06-27T09:40:03Z</time>
      </trkpt>
      <trkpt lat="48.34001" lon="-0.74816">
        <ele>212.9</ele>
        <time>2020-06-27T09:40:08Z</time>
      </trkpt>
      <trkpt lat="48.34004" lon="-0.74824">
        <ele>210.9</ele>
        <time>2020-06-27T09:40:14Z</time>
      </trkpt>
      <trkpt lat="48.34007" lon="-0.74831">
        <ele>210.9</ele>
        <time>2020-06-27T09:40:20Z</time>
      </trkpt>
      <trkpt lat="48.34013" lon="-0.74839">
        <ele>211.9</ele>
        <time>2020-06-27T09:40:26Z</time>
      </trkpt>
      <trkpt lat="48.34017" lon="-0.74847">
        <ele>211.9</ele>
        <time>2020-06-27T09:40:31Z</time>
      </trkpt>
      <trkpt lat="48.34023" lon="-0.74854">
        <ele>212.9</ele>
        <time>2020-06-27T09:40:37Z</time>
      </trkpt>
      <trkpt lat="48.34027" lon="-0.74862">
        <ele>212.9</ele>
        <time>2020-06-27T09:40:43Z</time>
      </trkpt>
      <trkpt lat="48.34031" lon="-0.74869">
        <ele>212.9</ele>
        <time>2020-06-27T09:40:48Z</time>
      </trkpt>
      <trkpt lat="48.34036" lon="-0.74877">
        <ele>212.9</ele>
        <time>2020-06-27T09:40:54Z</time>
      </trkpt>
      <trkpt lat="48.3404" lon="-0.74884">
        <ele>211.9</ele>
        <time>2020-06-27T09:41:00Z</time>
      </trkpt>
      <trkpt lat="48.34044" lon="-0.74891">
        <ele>213.9</ele>
        <time>2020-06-27T09:41:05Z</time>
      </trkpt>
      <trkpt lat="48.34048" lon="-0.74897">
        <ele>213.9</ele>
        <time>2020-06-27T09:41:10Z</time>
      </trkpt>
      <trkpt lat="48.34053" lon="-0.74905">
        <ele>213.9</ele>
        <time>2020-06-27T09:41:16Z</time>
      </trkpt>
      <trkpt lat="48.34053" lon="-0.74911">
        <ele>209.9</ele>
        <time>2020-06-27T09:41:21Z</time>
      </trkpt>
      <trkpt lat="48.34055" lon="-0.74919">
        <ele>208.9</ele>
        <time>2020-06-27T09:41:27Z</time>
      </trkpt>
      <trkpt lat="48.34059" lon="-0.74926">
        <ele>208.9</ele>
        <time>2020-06-27T09:41:33Z</time>
      </trkpt>
      <trkpt lat="48.34062" lon="-0.74934">
        <ele>206.9</ele>
        <time>2020-06-27T09:41:39Z</time>
      </trkpt>
      <trkpt lat="48.34067" lon="-0.7494">
        <ele>206.9</ele>
        <time>2020-06-27T09:41:44Z</time>
      </trkpt>
      <trkpt lat="48.34072" lon="-0.74947">
        <ele>206.9</ele>
        <time>2020-06-27T09:41:50Z</time>
      </trkpt>
      <trkpt lat="48.34077" lon="-0.74953">
        <ele>206.9</ele>
        <time>2020-06-27T09:41:55Z</time>
      </trkpt>
      <trkpt lat="48.34081" lon="-0.74959">
        <ele>206.9</ele>
        <time>2020-06-27T09:42:01Z</time>
      </trkpt>
      <trkpt lat="48.34084" lon="-0.74964">
        <ele>206.9</ele>
        <time>2020-06-27T09:42:06Z</time>
      </trkpt>
      <trkpt lat="48.34088" lon="-0.74971">
        <ele>204.9</ele>
        <time>2020-06-27T09:42:12Z</time>
      </trkpt>
      <trkpt lat="48.34094" lon="-0.74977">
        <ele>205.9</ele>
        <time>2020-06-27T09:42:18Z</time>
      </trkpt>
      <trkpt lat="48.34099" lon="-0.74981">
        <ele>205.9</ele>
        <time>2020-06-27T09:42:23Z</time>
      </trkpt>
      <trkpt lat="48.34103" lon="-0.74986">
        <ele>205.9</ele>
        <time>2020-06-27T09:42:28Z</time>
      </trkpt>
      <trkpt lat="48.34109" lon="-0.74992">
        <ele>206.9</ele>
        <time>2020-06-27T09:42:34Z</time>
      </trkpt>
      <trkpt lat="48.34115" lon="-0.74997">
        <ele>206.9</ele>
        <time>2020-06-27T09:42:40Z</time>
      </trkpt>
      <trkpt lat="48.3412" lon="-0.75003">
        <ele>207.71</ele>
        <time>2020-06-27T09:42:45Z</time>
      </trkpt>
      <trkpt lat="48.34125" lon="-0.75007">
        <ele>207.71</ele>
        <time>2020-06-27T09:42:50Z</time>
      </trkpt>
      <trkpt lat="48.34131" lon="-0.75012">
        <ele>207.71</ele>
        <time>2020-06-27T09:42:56Z</time>
      </trkpt>
      <trkpt lat="48.34134" lon="-0.75017">
        <ele>206.71</ele>
        <time>2020-06-27T09:43:01Z</time>
      </trkpt>
      <trkpt lat="48.3414" lon="-0.75022">
        <ele>206.71</ele>
        <time>2020-06-27T09:43:07Z</time>
      </trkpt>
      <trkpt lat="48.34146" lon="-0.75028">
        <ele>206.71</ele>
        <time>2020-06-27T09:43:13Z</time>
      </trkpt>
      <trkpt lat="48.3415" lon="-0.75032">
        <ele>206.71</ele>
        <time>2020-06-27T09:43:18Z</time>
      </trkpt>
      <trkpt lat="48.34156" lon="-0.75037">
        <ele>206.71</ele>
        <time>2020-06-27T09:43:24Z</time>
      </trkpt>
      <trkpt lat="48.3416" lon="-0.75041">
        <ele>206.71</ele>
        <time>2020-06-27T09:43:29Z</time>
      </trkpt>
      <trkpt lat="48.34167" lon="-0.75046">
        <ele>206.71</ele>
        <time>2020-06-27T09:43:35Z</time>
      </trkpt>
      <trkpt lat="48.34172" lon="-0.75051">
        <ele>206.71</ele>
        <time>2020-06-27T09:43:41Z</time>
      </trkpt>
      <trkpt lat="48.34174" lon="-0.75057">
        <ele>205.71</ele>
        <time>2020-06-27T09:43:47Z</time>
      </trkpt>
      <trkpt lat="48.34178" lon="-0.75063">
        <ele>204.71</ele>
        <time>2020-06-27T09:43:53Z</time>
      </trkpt>
      <trkpt lat="48.34183" lon="-0.75068">
        <ele>204.71</ele>
        <time>2020-06-27T09:43:59Z</time>
      </trkpt>
      <trkpt lat="48.34187" lon="-0.75073">
        <ele>204.71</ele>
        <time>2020-06-27T09:44:04Z</time>
      </trkpt>
      <trkpt lat="48.34192" lon="-0.75078">
        <ele>203.71</ele>
        <time>2020-06-27T09:44:10Z</time>
      </trkpt>
      <trkpt lat="48.34197" lon="-0.75083">
        <ele>204.71</ele>
        <time>2020-06-27T09:44:15Z</time>
      </trkpt>
      <trkpt lat="48.34202" lon="-0.75089">
        <ele>202.71</ele>
        <time>2020-06-27T09:44:21Z</time>
      </trkpt>
      <trkpt lat="48.34206" lon="-0.75093">
        <ele>202.71</ele>
        <time>2020-06-27T09:44:26Z</time>
      </trkpt>
      <trkpt lat="48.3421" lon="-0.75097">
        <ele>200.71</ele>
        <time>2020-06-27T09:44:31Z</time>
      </trkpt>
      <trkpt lat="48.34214" lon="-0.75101">
        <ele>200.71</ele>
        <time>2020-06-27T09:44:37Z</time>
      </trkpt>
      <trkpt lat="48.3422" lon="-0.75106">
        <ele>200.71</ele>
        <time>2020-06-27T09:44:43Z</time>
      </trkpt>
      <trkpt lat="48.34224" lon="-0.7511">
        <ele>199.71</ele>
        <time>2020-06-27T09:44:48Z</time>
      </trkpt>
      <trkpt lat="48.34229" lon="-0.75115">
        <ele>199.71</ele>
        <time>2020-06-27T09:44:53Z</time>
      </trkpt>
      <trkpt lat="48.34234" lon="-0.75119">
        <ele>198.71</ele>
        <time>2020-06-27T09:44:59Z</time>
      </trkpt>
      <trkpt lat="48.34238" lon="-0.75123">
        <ele>199.71</ele>
        <time>2020-06-27T09:45:04Z</time>
      </trkpt>
      <trkpt lat="48.34244" lon="-0.75129">
        <ele>199.71</ele>
        <time>2020-06-27T09:45:10Z</time>
      </trkpt>
      <trkpt lat="48.34248" lon="-0.75133">
        <ele>198.71</ele>
        <time>2020-06-27T09:45:15Z</time>
      </trkpt>
      <trkpt lat="48.34248" lon="-0.75135">
        <ele>197.71</ele>
        <time>2020-06-27T09:45:21Z</time>
      </trkpt>
      <trkpt lat="48.34251" lon="-0.75141">
        <ele>196.71</ele>
        <time>2020-06-27T09:45:27Z</time>
      </trkpt>
      <trkpt lat="48.34254" lon="-0.75146">
        <ele>196.71</ele>
        <time>2020-06-27T09:45:32Z</time>
      </trkpt>
      <trkpt lat="48.34258" lon="-0.75153">
        <ele>196.71</ele>
        <time>2020-06-27T09:45:38Z</time>
      </trkpt>
      <trkpt lat="48.34262" lon="-0.75158">
        <ele>196.71</ele>
        <time>2020-06-27T09:45:43Z</time>
      </trkpt>
      <trkpt lat="48.34267" lon="-0.75165">
        <ele>196.71</ele>
        <time>2020-06-27T09:45:49Z</time>
      </trkpt>
      <trkpt lat="48.34271" lon="-0.7517">
        <ele>196.71</ele>
        <time>2020-06-27T09:45:54Z</time>
      </trkpt>
      <trkpt lat="48.34274" lon="-0.75175">
        <ele>196.71</ele>
        <time>2020-06-27T09:45:59Z</time>
      </trkpt>
      <trkpt lat="48.34279" lon="-0.7518">
        <ele>195.71</ele>
        <time>2020-06-27T09:46:05Z</time>
      </trkpt>
      <trkpt lat="48.34283" lon="-0.75186">
        <ele>196.71</ele>
        <time>2020-06-27T09:46:10Z</time>
      </trkpt>
      <trkpt lat="48.34287" lon="-0.75192">
        <ele>196.71</ele>
        <time>2020-06-27T09:46:16Z</time>
      </trkpt>
      <trkpt lat="48.34292" lon="-0.75196">
        <ele>195.71</ele>
        <time>2020-06-27T09:46:21Z</time>
      </trkpt>
      <trkpt lat="48.34296" lon="-0.75203">
        <ele>194.71</ele>
        <time>2020-06-27T09:46:27Z</time>
      </trkpt>
      <trkpt lat="48.343" lon="-0.75209">
        <ele>194.71</ele>
        <time>2020-06-27T09:46:32Z</time>
      </trkpt>
      <trkpt lat="48.34305" lon="-0.75216">
        <ele>193.71</ele>
        <time>2020-06-27T09:46:38Z</time>
      </trkpt>
      <trkpt lat="48.34308" lon="-0.75221">
        <ele>193.71</ele>
        <time>2020-06-27T09:46:43Z</time>
      </trkpt>
      <trkpt lat="48.34313" lon="-0.75226">
        <ele>192.71</ele>
        <time>2020-06-27T09:46:49Z</time>
      </trkpt>
      <trkpt lat="48.34316" lon="-0.75231">
        <ele>191.71</ele>
        <time>2020-06-27T09:46:54Z</time>
      </trkpt>
      <trkpt lat="48.34321" lon="-0.75236">
        <ele>191.71</ele>
        <time>2020-06-27T09:46:59Z</time>
      </trkpt>
      <trkpt lat="48.34326" lon="-0.75242">
        <ele>191.71</ele>
        <time>2020-06-27T09:47:05Z</time>
      </trkpt>
      <trkpt lat="48.34329" lon="-0.75247">
        <ele>190.71</ele>
        <time>2020-06-27T09:47:10Z</time>
      </trkpt>
      <trkpt lat="48.34333" lon="-0.75253">
        <ele>190.71</ele>
        <time>2020-06-27T09:47:15Z</time>
      </trkpt>
      <trkpt lat="48.3434" lon="-0.75259">
        <ele>191.71</ele>
        <time>2020-06-27T09:47:21Z</time>
      </trkpt>
      <trkpt lat="48.34344" lon="-0.75264">
        <ele>190.71</ele>
        <time>2020-06-27T09:47:26Z</time>
      </trkpt>
      <trkpt lat="48.34348" lon="-0.7527">
        <ele>189.71</ele>
        <time>2020-06-27T09:47:31Z</time>
      </trkpt>
      <trkpt lat="48.34352" lon="-0.75274">
        <ele>188.71</ele>
        <time>2020-06-27T09:47:36Z</time>
      </trkpt>
      <trkpt lat="48.34355" lon="-0.7528">
        <ele>187.71</ele>
        <time>2020-06-27T09:47:42Z</time>
      </trkpt>
      <trkpt lat="48.34359" lon="-0.75285">
        <ele>186.71</ele>
        <time>2020-06-27T09:47:47Z</time>
      </trkpt>
      <trkpt lat="48.34364" lon="-0.75293">
        <ele>186.71</ele>
        <time>2020-06-27T09:47:53Z</time>
      </trkpt>
      <trkpt lat="48.34369" lon="-0.75299">
        <ele>184.71</ele>
        <time>2020-06-27T09:47:59Z</time>
      </trkpt>
      <trkpt lat="48.34373" lon="-0.75306">
        <ele>183.71</ele>
        <time>2020-06-27T09:48:05Z</time>
      </trkpt>
      <trkpt lat="48.34377" lon="-0.75312">
        <ele>181.71</ele>
        <time>2020-06-27T09:48:11Z</time>
      </trkpt>
      <trkpt lat="48.3438" lon="-0.75319">
        <ele>180.71</ele>
        <time>2020-06-27T09:48:16Z</time>
      </trkpt>
      <trkpt lat="48.34386" lon="-0.75326">
        <ele>181.71</ele>
        <time>2020-06-27T09:48:22Z</time>
      </trkpt>
      <trkpt lat="48.34389" lon="-0.75331">
        <ele>179.71</ele>
        <time>2020-06-27T09:48:28Z</time>
      </trkpt>
      <trkpt lat="48.34392" lon="-0.75337">
        <ele>176.71</ele>
        <time>2020-06-27T09:48:34Z</time>
      </trkpt>
      <trkpt lat="48.34396" lon="-0.75342">
        <ele>176.71</ele>
        <time>2020-06-27T09:48:39Z</time>
      </trkpt>
      <trkpt lat="48.34399" lon="-0.75347">
        <ele>174.71</ele>
        <time>2020-06-27T09:48:45Z</time>
      </trkpt>
      <trkpt lat="48.34407" lon="-0.75351">
        <ele>174.71</ele>
        <time>2020-06-27T09:48:51Z</time>
      </trkpt>
      <trkpt lat="48.34415" lon="-0.75357">
        <ele>176.71</ele>
        <time>2020-06-27T09:48:57Z</time>
      </trkpt>
      <trkpt lat="48.34422" lon="-0.75363">
        <ele>180.71</ele>
        <time>2020-06-27T09:49:03Z</time>
      </trkpt>
      <trkpt lat="48.34425" lon="-0.75367">
        <ele>177.71</ele>
        <time>2020-06-27T09:49:08Z</time>
      </trkpt>
      <trkpt lat="48.3443" lon="-0.75371">
        <ele>177.71</ele>
        <time>2020-06-27T09:49:13Z</time>
      </trkpt>
      <trkpt lat="48.34435" lon="-0.75376">
        <ele>177.71</ele>
        <time>2020-06-27T09:49:18Z</time>
      </trkpt>
      <trkpt lat="48.34441" lon="-0.75381">
        <ele>177.71</ele>
        <time>2020-06-27T09:49:24Z</time>
      </trkpt>
      <trkpt lat="48.34444" lon="-0.75385">
        <ele>177.71</ele>
        <time>2020-06-27T09:49:29Z</time>
      </trkpt>
      <trkpt lat="48.3445" lon="-0.75391">
        <ele>176.71</ele>
        <time>2020-06-27T09:49:35Z</time>
      </trkpt>
      <trkpt lat="48.34455" lon="-0.75396">
        <ele>176.71</ele>
        <time>2020-06-27T09:49:41Z</time>
      </trkpt>
      <trkpt lat="48.34459" lon="-0.75401">
        <ele>176.71</ele>
        <time>2020-06-27T09:49:46Z</time>
      </trkpt>
      <trkpt lat="48.34464" lon="-0.75406">
        <ele>176.71</ele>
        <time>2020-06-27T09:49:51Z</time>
      </trkpt>
      <trkpt lat="48.34471" lon="-0.75411">
        <ele>178.71</ele>
        <time>2020-06-27T09:49:57Z</time>
      </trkpt>
      <trkpt lat="48.34479" lon="-0.75417">
        <ele>179.71</ele>
        <time>2020-06-27T09:50:03Z</time>
      </trkpt>
      <trkpt lat="48.34483" lon="-0.75422">
        <ele>178.71</ele>
        <time>2020-06-27T09:50:09Z</time>
      </trkpt>
      <trkpt lat="48.34491" lon="-0.75428">
        <ele>179.71</ele>
        <time>2020-06-27T09:50:15Z</time>
      </trkpt>
      <trkpt lat="48.34497" lon="-0.75434">
        <ele>179.71</ele>
        <time>2020-06-27T09:50:21Z</time>
      </trkpt>
      <trkpt lat="48.34501" lon="-0.75439">
        <ele>179.71</ele>
        <time>2020-06-27T09:50:26Z</time>
      </trkpt>
      <trkpt lat="48.34507" lon="-0.75443">
        <ele>180.71</ele>
        <time>2020-06-27T09:50:31Z</time>
      </trkpt>
      <trkpt lat="48.34512" lon="-0.75448">
        <ele>180.71</ele>
        <time>2020-06-27T09:50:37Z</time>
      </trkpt>
      <trkpt lat="48.34517" lon="-0.75452">
        <ele>180.71</ele>
        <time>2020-06-27T09:50:42Z</time>
      </trkpt>
      <trkpt lat="48.34523" lon="-0.75458">
        <ele>181.71</ele>
        <time>2020-06-27T09:50:48Z</time>
      </trkpt>
      <trkpt lat="48.34529" lon="-0.75463">
        <ele>181.71</ele>
        <time>2020-06-27T09:50:53Z</time>
      </trkpt>
      <trkpt lat="48.34534" lon="-0.75468">
        <ele>182.71</ele>
        <time>2020-06-27T09:50:59Z</time>
      </trkpt>
      <trkpt lat="48.34541" lon="-0.75473">
        <ele>183.71</ele>
        <time>2020-06-27T09:51:05Z</time>
      </trkpt>
      <trkpt lat="48.34545" lon="-0.75478">
        <ele>184.71</ele>
        <time>2020-06-27T09:51:10Z</time>
      </trkpt>
      <trkpt lat="48.34548" lon="-0.75482">
        <ele>182.71</ele>
        <time>2020-06-27T09:51:16Z</time>
      </trkpt>
      <trkpt lat="48.34553" lon="-0.75487">
        <ele>182.71</ele>
        <time>2020-06-27T09:51:21Z</time>
      </trkpt>
      <trkpt lat="48.34557" lon="-0.75491">
        <ele>182.71</ele>
        <time>2020-06-27T09:51:26Z</time>
      </trkpt>
      <trkpt lat="48.34565" lon="-0.75498">
        <ele>182.71</ele>
        <time>2020-06-27T09:51:32Z</time>
      </trkpt>
      <trkpt lat="48.34569" lon="-0.75503">
        <ele>181.71</ele>
        <time>2020-06-27T09:51:37Z</time>
      </trkpt>
      <trkpt lat="48.34573" lon="-0.75508">
        <ele>181.71</ele>
        <time>2020-06-27T09:51:42Z</time>
      </trkpt>
      <trkpt lat="48.34578" lon="-0.75514">
        <ele>180.71</ele>
        <time>2020-06-27T09:51:48Z</time>
      </trkpt>
      <trkpt lat="48.34583" lon="-0.7552">
        <ele>181.71</ele>
        <time>2020-06-27T09:51:53Z</time>
      </trkpt>
      <trkpt lat="48.34588" lon="-0.75527">
        <ele>182.71</ele>
        <time>2020-06-27T09:51:59Z</time>
      </trkpt>
      <trkpt lat="48.34593" lon="-0.75534">
        <ele>182.71</ele>
        <time>2020-06-27T09:52:05Z</time>
      </trkpt>
      <trkpt lat="48.34597" lon="-0.75541">
        <ele>181.71</ele>
        <time>2020-06-27T09:52:11Z</time>
      </trkpt>
      <trkpt lat="48.34601" lon="-0.75549">
        <ele>181.71</ele>
        <time>2020-06-27T09:52:17Z</time>
      </trkpt>
      <trkpt lat="48.34604" lon="-0.75557">
        <ele>180.71</ele>
        <time>2020-06-27T09:52:23Z</time>
      </trkpt>
      <trkpt lat="48.34607" lon="-0.75563">
        <ele>180.71</ele>
        <time>2020-06-27T09:52:28Z</time>
      </trkpt>
      <trkpt lat="48.34606" lon="-0.75571">
        <ele>179.71</ele>
        <time>2020-06-27T09:52:34Z</time>
      </trkpt>
      <trkpt lat="48.34608" lon="-0.75578">
        <ele>179.71</ele>
        <time>2020-06-27T09:52:39Z</time>
      </trkpt>
      <trkpt lat="48.34613" lon="-0.75584">
        <ele>180.71</ele>
        <time>2020-06-27T09:52:45Z</time>
      </trkpt>
      <trkpt lat="48.34616" lon="-0.75591">
        <ele>179.71</ele>
        <time>2020-06-27T09:52:51Z</time>
      </trkpt>
      <trkpt lat="48.34619" lon="-0.75597">
        <ele>179.71</ele>
        <time>2020-06-27T09:52:56Z</time>
      </trkpt>
      <trkpt lat="48.34623" lon="-0.75603">
        <ele>178.71</ele>
        <time>2020-06-27T09:53:01Z</time>
      </trkpt>
      <trkpt lat="48.34626" lon="-0.7561">
        <ele>178.71</ele>
        <time>2020-06-27T09:53:06Z</time>
      </trkpt>
      <trkpt lat="48.3463" lon="-0.75619">
        <ele>178.71</ele>
        <time>2020-06-27T09:53:12Z</time>
      </trkpt>
      <trkpt lat="48.34634" lon="-0.75625">
        <ele>178.71</ele>
        <time>2020-06-27T09:53:17Z</time>
      </trkpt>
      <trkpt lat="48.34637" lon="-0.75633">
        <ele>179.71</ele>
        <time>2020-06-27T09:53:23Z</time>
      </trkpt>
      <trkpt lat="48.34642" lon="-0.75642">
        <ele>178.71</ele>
        <time>2020-06-27T09:53:29Z</time>
      </trkpt>
      <trkpt lat="48.34644" lon="-0.7565">
        <ele>179.71</ele>
        <time>2020-06-27T09:53:34Z</time>
      </trkpt>
      <trkpt lat="48.34648" lon="-0.75659">
        <ele>179.71</ele>
        <time>2020-06-27T09:53:40Z</time>
      </trkpt>
      <trkpt lat="48.3465" lon="-0.75667">
        <ele>179.71</ele>
        <time>2020-06-27T09:53:45Z</time>
      </trkpt>
      <trkpt lat="48.34653" lon="-0.75675">
        <ele>179.71</ele>
        <time>2020-06-27T09:53:50Z</time>
      </trkpt>
      <trkpt lat="48.34656" lon="-0.75683">
        <ele>179.71</ele>
        <time>2020-06-27T09:53:55Z</time>
      </trkpt>
      <trkpt lat="48.34658" lon="-0.75691">
        <ele>179.71</ele>
        <time>2020-06-27T09:54:00Z</time>
      </trkpt>
      <trkpt lat="48.3466" lon="-0.75701">
        <ele>178.71</ele>
        <time>2020-06-27T09:54:06Z</time>
      </trkpt>
      <trkpt lat="48.34662" lon="-0.75712">
        <ele>178.71</ele>
        <time>2020-06-27T09:54:12Z</time>
      </trkpt>
      <trkpt lat="48.34663" lon="-0.75722">
        <ele>178.71</ele>
        <time>2020-06-27T09:54:18Z</time>
      </trkpt>
      <trkpt lat="48.34664" lon="-0.75731">
        <ele>178.71</ele>
        <time>2020-06-27T09:54:23Z</time>
      </trkpt>
      <trkpt lat="48.34665" lon="-0.75739">
        <ele>180.71</ele>
        <time>2020-06-27T09:54:28Z</time>
      </trkpt>
      <trkpt lat="48.34664" lon="-0.7575">
        <ele>179.71</ele>
        <time>2020-06-27T09:54:34Z</time>
      </trkpt>
      <trkpt lat="48.34665" lon="-0.75759">
        <ele>179.71</ele>
        <time>2020-06-27T09:54:39Z</time>
      </trkpt>
      <trkpt lat="48.34665" lon="-0.75768">
        <ele>180.71</ele>
        <time>2020-06-27T09:54:44Z</time>
      </trkpt>
      <trkpt lat="48.34667" lon="-0.75776">
        <ele>180.71</ele>
        <time>2020-06-27T09:54:49Z</time>
      </trkpt>
      <trkpt lat="48.34667" lon="-0.75784">
        <ele>180.71</ele>
        <time>2020-06-27T09:54:55Z</time>
      </trkpt>
      <trkpt lat="48.34666" lon="-0.75786">
        <ele>180.71</ele>
        <time>2020-06-27T09:55:00Z</time>
      </trkpt>
      <trkpt lat="48.34665" lon="-0.75788">
        <ele>181.71</ele>
        <time>2020-06-27T09:55:06Z</time>
      </trkpt>
      <trkpt lat="48.34665" lon="-0.75791">
        <ele>181.71</ele>
        <time>2020-06-27T09:55:12Z</time>
      </trkpt>
      <trkpt lat="48.34665" lon="-0.75797">
        <ele>180.71</ele>
        <time>2020-06-27T09:55:17Z</time>
      </trkpt>
      <trkpt lat="48.34667" lon="-0.75804">
        <ele>178.71</ele>
        <time>2020-06-27T09:55:22Z</time>
      </trkpt>
      <trkpt lat="48.34668" lon="-0.75815">
        <ele>178.71</ele>
        <time>2020-06-27T09:55:28Z</time>
      </trkpt>
      <trkpt lat="48.34668" lon="-0.75823">
        <ele>179.71</ele>
        <time>2020-06-27T09:55:33Z</time>
      </trkpt>
      <trkpt lat="48.34669" lon="-0.75834">
        <ele>180.71</ele>
        <time>2020-06-27T09:55:39Z</time>
      </trkpt>
      <trkpt lat="48.3467" lon="-0.75843">
        <ele>181.71</ele>
        <time>2020-06-27T09:55:45Z</time>
      </trkpt>
      <trkpt lat="48.34672" lon="-0.7585">
        <ele>180.71</ele>
        <time>2020-06-27T09:55:50Z</time>
      </trkpt>
      <trkpt lat="48.34674" lon="-0.75858">
        <ele>179.71</ele>
        <time>2020-06-27T09:55:56Z</time>
      </trkpt>
      <trkpt lat="48.34677" lon="-0.75867">
        <ele>180.71</ele>
        <time>2020-06-27T09:56:02Z</time>
      </trkpt>
      <trkpt lat="48.3468" lon="-0.75874">
        <ele>181.71</ele>
        <time>2020-06-27T09:56:07Z</time>
      </trkpt>
      <trkpt lat="48.34683" lon="-0.75883">
        <ele>181.71</ele>
        <time>2020-06-27T09:56:13Z</time>
      </trkpt>
      <trkpt lat="48.34686" lon="-0.75891">
        <ele>181.71</ele>
        <time>2020-06-27T09:56:19Z</time>
      </trkpt>
      <trkpt lat="48.3469" lon="-0.75899">
        <ele>182.71</ele>
        <time>2020-06-27T09:56:25Z</time>
      </trkpt>
      <trkpt lat="48.34694" lon="-0.75907">
        <ele>182.71</ele>
        <time>2020-06-27T09:56:31Z</time>
      </trkpt>
      <trkpt lat="48.34696" lon="-0.75915">
        <ele>182.71</ele>
        <time>2020-06-27T09:56:36Z</time>
      </trkpt>
      <trkpt lat="48.34699" lon="-0.75922">
        <ele>182.71</ele>
        <time>2020-06-27T09:56:41Z</time>
      </trkpt>
      <trkpt lat="48.34702" lon="-0.7593">
        <ele>182.71</ele>
        <time>2020-06-27T09:56:47Z</time>
      </trkpt>
      <trkpt lat="48.34705" lon="-0.75939">
        <ele>182.71</ele>
        <time>2020-06-27T09:56:53Z</time>
      </trkpt>
      <trkpt lat="48.34708" lon="-0.75948">
        <ele>183.71</ele>
        <time>2020-06-27T09:56:59Z</time>
      </trkpt>
      <trkpt lat="48.3471" lon="-0.75957">
        <ele>183.71</ele>
        <time>2020-06-27T09:57:04Z</time>
      </trkpt>
      <trkpt lat="48.34713" lon="-0.75966">
        <ele>183.71</ele>
        <time>2020-06-27T09:57:10Z</time>
      </trkpt>
      <trkpt lat="48.34716" lon="-0.75975">
        <ele>184.71</ele>
        <time>2020-06-27T09:57:16Z</time>
      </trkpt>
      <trkpt lat="48.34718" lon="-0.75984">
        <ele>184.71</ele>
        <time>2020-06-27T09:57:22Z</time>
      </trkpt>
      <trkpt lat="48.3472" lon="-0.75993">
        <ele>185.71</ele>
        <time>2020-06-27T09:57:27Z</time>
      </trkpt>
      <trkpt lat="48.34723" lon="-0.76002">
        <ele>185.71</ele>
        <time>2020-06-27T09:57:33Z</time>
      </trkpt>
      <trkpt lat="48.34726" lon="-0.76012">
        <ele>186.71</ele>
        <time>2020-06-27T09:57:39Z</time>
      </trkpt>
      <trkpt lat="48.3473" lon="-0.76021">
        <ele>186.71</ele>
        <time>2020-06-27T09:57:45Z</time>
      </trkpt>
      <trkpt lat="48.34733" lon="-0.7603">
        <ele>186.71</ele>
        <time>2020-06-27T09:57:51Z</time>
      </trkpt>
      <trkpt lat="48.34735" lon="-0.76039">
        <ele>187.71</ele>
        <time>2020-06-27T09:57:57Z</time>
      </trkpt>
      <trkpt lat="48.34738" lon="-0.76047">
        <ele>187.71</ele>
        <time>2020-06-27T09:58:03Z</time>
      </trkpt>
      <trkpt lat="48.3474" lon="-0.76054">
        <ele>187.71</ele>
        <time>2020-06-27T09:58:08Z</time>
      </trkpt>
      <trkpt lat="48.34743" lon="-0.76063">
        <ele>187.71</ele>
        <time>2020-06-27T09:58:14Z</time>
      </trkpt>
      <trkpt lat="48.34745" lon="-0.76072">
        <ele>188.71</ele>
        <time>2020-06-27T09:58:20Z</time>
      </trkpt>
      <trkpt lat="48.34748" lon="-0.76081">
        <ele>188.71</ele>
        <time>2020-06-27T09:58:26Z</time>
      </trkpt>
      <trkpt lat="48.3475" lon="-0.7609">
        <ele>188.71</ele>
        <time>2020-06-27T09:58:32Z</time>
      </trkpt>
      <trkpt lat="48.34753" lon="-0.76096">
        <ele>188.71</ele>
        <time>2020-06-27T09:58:37Z</time>
      </trkpt>
      <trkpt lat="48.34754" lon="-0.76096">
        <ele>188.71</ele>
        <time>2020-06-27T09:58:42Z</time>
      </trkpt>
      <trkpt lat="48.34754" lon="-0.76102">
        <ele>188.71</ele>
        <time>2020-06-27T09:58:48Z</time>
      </trkpt>
      <trkpt lat="48.34756" lon="-0.76113">
        <ele>189.71</ele>
        <time>2020-06-27T09:58:54Z</time>
      </trkpt>
      <trkpt lat="48.34758" lon="-0.76123">
        <ele>189.71</ele>
        <time>2020-06-27T09:59:00Z</time>
      </trkpt>
      <trkpt lat="48.3476" lon="-0.76132">
        <ele>189.71</ele>
        <time>2020-06-27T09:59:06Z</time>
      </trkpt>
      <trkpt lat="48.34762" lon="-0.76141">
        <ele>189.71</ele>
        <time>2020-06-27T09:59:11Z</time>
      </trkpt>
      <trkpt lat="48.34764" lon="-0.76151">
        <ele>190.71</ele>
        <time>2020-06-27T09:59:17Z</time>
      </trkpt>
      <trkpt lat="48.34766" lon="-0.7616">
        <ele>189.71</ele>
        <time>2020-06-27T09:59:23Z</time>
      </trkpt>
      <trkpt lat="48.34769" lon="-0.7617">
        <ele>190.71</ele>
        <time>2020-06-27T09:59:29Z</time>
      </trkpt>
      <trkpt lat="48.34771" lon="-0.7618">
        <ele>190.71</ele>
        <time>2020-06-27T09:59:35Z</time>
      </trkpt>
      <trkpt lat="48.34773" lon="-0.76188">
        <ele>191.71</ele>
        <time>2020-06-27T09:59:40Z</time>
      </trkpt>
      <trkpt lat="48.34775" lon="-0.76198">
        <ele>191.71</ele>
        <time>2020-06-27T09:59:46Z</time>
      </trkpt>
      <trkpt lat="48.34777" lon="-0.76207">
        <ele>192.71</ele>
        <time>2020-06-27T09:59:51Z</time>
      </trkpt>
      <trkpt lat="48.34779" lon="-0.76216">
        <ele>191.71</ele>
        <time>2020-06-27T09:59:57Z</time>
      </trkpt>
      <trkpt lat="48.3478" lon="-0.76224">
        <ele>191.71</ele>
        <time>2020-06-27T10:00:02Z</time>
      </trkpt>
      <trkpt lat="48.34782" lon="-0.76233">
        <ele>191.71</ele>
        <time>2020-06-27T10:00:08Z</time>
      </trkpt>
      <trkpt lat="48.34784" lon="-0.7624">
        <ele>192.71</ele>
        <time>2020-06-27T10:00:13Z</time>
      </trkpt>
      <trkpt lat="48.34785" lon="-0.76249">
        <ele>192.71</ele>
        <time>2020-06-27T10:00:19Z</time>
      </trkpt>
      <trkpt lat="48.34787" lon="-0.76258">
        <ele>192.71</ele>
        <time>2020-06-27T10:00:25Z</time>
      </trkpt>
      <trkpt lat="48.34789" lon="-0.76267">
        <ele>192.71</ele>
        <time>2020-06-27T10:00:31Z</time>
      </trkpt>
      <trkpt lat="48.34791" lon="-0.76275">
        <ele>192.71</ele>
        <time>2020-06-27T10:00:36Z</time>
      </trkpt>
      <trkpt lat="48.34793" lon="-0.76284">
        <ele>193.71</ele>
        <time>2020-06-27T10:00:42Z</time>
      </trkpt>
      <trkpt lat="48.34793" lon="-0.76292">
        <ele>193.71</ele>
        <time>2020-06-27T10:00:47Z</time>
      </trkpt>
      <trkpt lat="48.34795" lon="-0.76301">
        <ele>193.71</ele>
        <time>2020-06-27T10:00:53Z</time>
      </trkpt>
      <trkpt lat="48.34796" lon="-0.76311">
        <ele>194.71</ele>
        <time>2020-06-27T10:00:59Z</time>
      </trkpt>
      <trkpt lat="48.34797" lon="-0.76319">
        <ele>194.71</ele>
        <time>2020-06-27T10:01:04Z</time>
      </trkpt>
      <trkpt lat="48.34798" lon="-0.76328">
        <ele>194.71</ele>
        <time>2020-06-27T10:01:10Z</time>
      </trkpt>
      <trkpt lat="48.348" lon="-0.76338">
        <ele>195.71</ele>
        <time>2020-06-27T10:01:16Z</time>
      </trkpt>
      <trkpt lat="48.34802" lon="-0.76347">
        <ele>197.71</ele>
        <time>2020-06-27T10:01:22Z</time>
      </trkpt>
      <trkpt lat="48.34802" lon="-0.76355">
        <ele>196.71</ele>
        <time>2020-06-27T10:01:27Z</time>
      </trkpt>
      <trkpt lat="48.34805" lon="-0.76362">
        <ele>197.71</ele>
        <time>2020-06-27T10:01:32Z</time>
      </trkpt>
      <trkpt lat="48.34806" lon="-0.7637">
        <ele>197.71</ele>
        <time>2020-06-27T10:01:37Z</time>
      </trkpt>
      <trkpt lat="48.34808" lon="-0.7638">
        <ele>197.71</ele>
        <time>2020-06-27T10:01:43Z</time>
      </trkpt>
      <trkpt lat="48.34809" lon="-0.76389">
        <ele>197.71</ele>
        <time>2020-06-27T10:01:49Z</time>
      </trkpt>
      <trkpt lat="48.3481" lon="-0.76396">
        <ele>199.71</ele>
        <time>2020-06-27T10:01:54Z</time>
      </trkpt>
      <trkpt lat="48.34812" lon="-0.76404">
        <ele>200.71</ele>
        <time>2020-06-27T10:01:59Z</time>
      </trkpt>
      <trkpt lat="48.34812" lon="-0.76412">
        <ele>201.71</ele>
        <time>2020-06-27T10:02:05Z</time>
      </trkpt>
      <trkpt lat="48.34814" lon="-0.76419">
        <ele>201.71</ele>
        <time>2020-06-27T10:02:11Z</time>
      </trkpt>
      <trkpt lat="48.34816" lon="-0.76426">
        <ele>199.71</ele>
        <time>2020-06-27T10:02:17Z</time>
      </trkpt>
      <trkpt lat="48.34818" lon="-0.76433">
        <ele>198.71</ele>
        <time>2020-06-27T10:02:22Z</time>
      </trkpt>
      <trkpt lat="48.3482" lon="-0.76444">
        <ele>200.71</ele>
        <time>2020-06-27T10:02:28Z</time>
      </trkpt>
      <trkpt lat="48.34821" lon="-0.7645">
        <ele>199.71</ele>
        <time>2020-06-27T10:02:34Z</time>
      </trkpt>
      <trkpt lat="48.34823" lon="-0.76457">
        <ele>199.71</ele>
        <time>2020-06-27T10:02:39Z</time>
      </trkpt>
      <trkpt lat="48.34825" lon="-0.76466">
        <ele>198.71</ele>
        <time>2020-06-27T10:02:45Z</time>
      </trkpt>
      <trkpt lat="48.34826" lon="-0.76475">
        <ele>200.71</ele>
        <time>2020-06-27T10:02:50Z</time>
      </trkpt>
      <trkpt lat="48.34828" lon="-0.76485">
        <ele>201.71</ele>
        <time>2020-06-27T10:02:56Z</time>
      </trkpt>
      <trkpt lat="48.3483" lon="-0.76494">
        <ele>200.71</ele>
        <time>2020-06-27T10:03:02Z</time>
      </trkpt>
      <trkpt lat="48.34831" lon="-0.76502">
        <ele>200.71</ele>
        <time>2020-06-27T10:03:07Z</time>
      </trkpt>
      <trkpt lat="48.34833" lon="-0.76509">
        <ele>200.71</ele>
        <time>2020-06-27T10:03:12Z</time>
      </trkpt>
      <trkpt lat="48.34835" lon="-0.76517">
        <ele>199.71</ele>
        <time>2020-06-27T10:03:18Z</time>
      </trkpt>
      <trkpt lat="48.34837" lon="-0.76526">
        <ele>199.71</ele>
        <time>2020-06-27T10:03:24Z</time>
      </trkpt>
      <trkpt lat="48.34841" lon="-0.76535">
        <ele>198.71</ele>
        <time>2020-06-27T10:03:30Z</time>
      </trkpt>
      <trkpt lat="48.34842" lon="-0.76543">
        <ele>199.71</ele>
        <time>2020-06-27T10:03:35Z</time>
      </trkpt>
      <trkpt lat="48.34843" lon="-0.76551">
        <ele>201.71</ele>
        <time>2020-06-27T10:03:40Z</time>
      </trkpt>
      <trkpt lat="48.34844" lon="-0.76559">
        <ele>201.71</ele>
        <time>2020-06-27T10:03:46Z</time>
      </trkpt>
      <trkpt lat="48.34846" lon="-0.76567">
        <ele>202.71</ele>
        <time>2020-06-27T10:03:51Z</time>
      </trkpt>
      <trkpt lat="48.34848" lon="-0.76576">
        <ele>203.71</ele>
        <time>2020-06-27T10:03:57Z</time>
      </trkpt>
      <trkpt lat="48.3485" lon="-0.76583">
        <ele>202.71</ele>
        <time>2020-06-27T10:04:02Z</time>
      </trkpt>
      <trkpt lat="48.34852" lon="-0.76593">
        <ele>204.71</ele>
        <time>2020-06-27T10:04:08Z</time>
      </trkpt>
      <trkpt lat="48.34853" lon="-0.76605">
        <ele>206.71</ele>
        <time>2020-06-27T10:04:14Z</time>
      </trkpt>
      <trkpt lat="48.34854" lon="-0.76616">
        <ele>208.71</ele>
        <time>2020-06-27T10:04:20Z</time>
      </trkpt>
      <trkpt lat="48.34856" lon="-0.76627">
        <ele>209.71</ele>
        <time>2020-06-27T10:04:26Z</time>
      </trkpt>
      <trkpt lat="48.34857" lon="-0.76634">
        <ele>208.71</ele>
        <time>2020-06-27T10:04:31Z</time>
      </trkpt>
      <trkpt lat="48.34859" lon="-0.76643">
        <ele>208.71</ele>
        <time>2020-06-27T10:04:37Z</time>
      </trkpt>
      <trkpt lat="48.34859" lon="-0.7665">
        <ele>209.71</ele>
        <time>2020-06-27T10:04:42Z</time>
      </trkpt>
      <trkpt lat="48.34859" lon="-0.76659">
        <ele>210.71</ele>
        <time>2020-06-27T10:04:47Z</time>
      </trkpt>
      <trkpt lat="48.34861" lon="-0.76667">
        <ele>209.71</ele>
        <time>2020-06-27T10:04:53Z</time>
      </trkpt>
      <trkpt lat="48.34862" lon="-0.76677">
        <ele>209.71</ele>
        <time>2020-06-27T10:04:59Z</time>
      </trkpt>
      <trkpt lat="48.34865" lon="-0.76685">
        <ele>209.71</ele>
        <time>2020-06-27T10:05:04Z</time>
      </trkpt>
      <trkpt lat="48.34866" lon="-0.76694">
        <ele>208.71</ele>
        <time>2020-06-27T10:05:10Z</time>
      </trkpt>
      <trkpt lat="48.34868" lon="-0.76701">
        <ele>207.71</ele>
        <time>2020-06-27T10:05:15Z</time>
      </trkpt>
      <trkpt lat="48.34869" lon="-0.76711">
        <ele>208.71</ele>
        <time>2020-06-27T10:05:21Z</time>
      </trkpt>
      <trkpt lat="48.34871" lon="-0.76721">
        <ele>210.71</ele>
        <time>2020-06-27T10:05:26Z</time>
      </trkpt>
      <trkpt lat="48.34871" lon="-0.76731">
        <ele>210.71</ele>
        <time>2020-06-27T10:05:32Z</time>
      </trkpt>
      <trkpt lat="48.34873" lon="-0.7674">
        <ele>212.71</ele>
        <time>2020-06-27T10:05:37Z</time>
      </trkpt>
      <trkpt lat="48.34874" lon="-0.7675">
        <ele>213.71</ele>
        <time>2020-06-27T10:05:43Z</time>
      </trkpt>
      <trkpt lat="48.34876" lon="-0.76759">
        <ele>214.71</ele>
        <time>2020-06-27T10:05:49Z</time>
      </trkpt>
      <trkpt lat="48.34878" lon="-0.76768">
        <ele>214.71</ele>
        <time>2020-06-27T10:05:55Z</time>
      </trkpt>
      <trkpt lat="48.3488" lon="-0.76775">
        <ele>214.71</ele>
        <time>2020-06-27T10:06:00Z</time>
      </trkpt>
      <trkpt lat="48.34882" lon="-0.76785">
        <ele>215.71</ele>
        <time>2020-06-27T10:06:06Z</time>
      </trkpt>
      <trkpt lat="48.34885" lon="-0.76794">
        <ele>215.71</ele>
        <time>2020-06-27T10:06:12Z</time>
      </trkpt>
      <trkpt lat="48.34888" lon="-0.76801">
        <ele>214.71</ele>
        <time>2020-06-27T10:06:18Z</time>
      </trkpt>
      <trkpt lat="48.34892" lon="-0.76806">
        <ele>214.71</ele>
        <time>2020-06-27T10:06:23Z</time>
      </trkpt>
      <trkpt lat="48.34896" lon="-0.76811">
        <ele>213.71</ele>
        <time>2020-06-27T10:06:28Z</time>
      </trkpt>
      <trkpt lat="48.34901" lon="-0.76812">
        <ele>212.71</ele>
        <time>2020-06-27T10:06:34Z</time>
      </trkpt>
      <trkpt lat="48.34902" lon="-0.76808">
        <ele>208.71</ele>
        <time>2020-06-27T10:06:39Z</time>
      </trkpt>
      <trkpt lat="48.34904" lon="-0.76801">
        <ele>207.71</ele>
        <time>2020-06-27T10:06:44Z</time>
      </trkpt>
      <trkpt lat="48.34905" lon="-0.7679">
        <ele>207.71</ele>
        <time>2020-06-27T10:06:50Z</time>
      </trkpt>
      <trkpt lat="48.34906" lon="-0.76784">
        <ele>204.71</ele>
        <time>2020-06-27T10:06:55Z</time>
      </trkpt>
      <trkpt lat="48.34906" lon="-0.76779">
        <ele>202.71</ele>
        <time>2020-06-27T10:07:01Z</time>
      </trkpt>
      <trkpt lat="48.34908" lon="-0.76772">
        <ele>200.71</ele>
        <time>2020-06-27T10:07:07Z</time>
      </trkpt>
      <trkpt lat="48.3491" lon="-0.76765">
        <ele>198.71</ele>
        <time>2020-06-27T10:07:13Z</time>
      </trkpt>
      <trkpt lat="48.34912" lon="-0.76758">
        <ele>199.71</ele>
        <time>2020-06-27T10:07:18Z</time>
      </trkpt>
      <trkpt lat="48.34912" lon="-0.76747">
        <ele>199.71</ele>
        <time>2020-06-27T10:07:23Z</time>
      </trkpt>
      <trkpt lat="48.34917" lon="-0.76738">
        <ele>201.71</ele>
        <time>2020-06-27T10:07:29Z</time>
      </trkpt>
      <trkpt lat="48.3492" lon="-0.76732">
        <ele>199.71</ele>
        <time>2020-06-27T10:07:35Z</time>
      </trkpt>
      <trkpt lat="48.34923" lon="-0.76724">
        <ele>198.71</ele>
        <time>2020-06-27T10:07:41Z</time>
      </trkpt>
      <trkpt lat="48.34927" lon="-0.76717">
        <ele>199.71</ele>
        <time>2020-06-27T10:07:46Z</time>
      </trkpt>
      <trkpt lat="48.34932" lon="-0.76707">
        <ele>202.71</ele>
        <time>2020-06-27T10:07:52Z</time>
      </trkpt>
      <trkpt lat="48.34935" lon="-0.76699">
        <ele>202.71</ele>
        <time>2020-06-27T10:07:58Z</time>
      </trkpt>
      <trkpt lat="48.34936" lon="-0.76693">
        <ele>201.71</ele>
        <time>2020-06-27T10:08:03Z</time>
      </trkpt>
      <trkpt lat="48.34939" lon="-0.76685">
        <ele>199.71</ele>
        <time>2020-06-27T10:08:09Z</time>
      </trkpt>
      <trkpt lat="48.34945" lon="-0.76674">
        <ele>204.71</ele>
        <time>2020-06-27T10:08:15Z</time>
      </trkpt>
      <trkpt lat="48.3495" lon="-0.76664">
        <ele>210.71</ele>
        <time>2020-06-27T10:08:20Z</time>
      </trkpt>
      <trkpt lat="48.34954" lon="-0.76657">
        <ele>211.71</ele>
        <time>2020-06-27T10:08:25Z</time>
      </trkpt>
      <trkpt lat="48.34957" lon="-0.7665">
        <ele>213.71</ele>
        <time>2020-06-27T10:08:30Z</time>
      </trkpt>
      <trkpt lat="48.3496" lon="-0.76642">
        <ele>213.71</ele>
        <time>2020-06-27T10:08:35Z</time>
      </trkpt>
      <trkpt lat="48.34964" lon="-0.76634">
        <ele>213.71</ele>
        <time>2020-06-27T10:08:41Z</time>
      </trkpt>
      <trkpt lat="48.34968" lon="-0.76625">
        <ele>213.71</ele>
        <time>2020-06-27T10:08:47Z</time>
      </trkpt>
      <trkpt lat="48.34971" lon="-0.76618">
        <ele>213.71</ele>
        <time>2020-06-27T10:08:52Z</time>
      </trkpt>
      <trkpt lat="48.34974" lon="-0.76611">
        <ele>213.71</ele>
        <time>2020-06-27T10:08:57Z</time>
      </trkpt>
      <trkpt lat="48.34977" lon="-0.76604">
        <ele>213.71</ele>
        <time>2020-06-27T10:09:03Z</time>
      </trkpt>
      <trkpt lat="48.3498" lon="-0.76595">
        <ele>213.71</ele>
        <time>2020-06-27T10:09:09Z</time>
      </trkpt>
      <trkpt lat="48.34983" lon="-0.76586">
        <ele>213.71</ele>
        <time>2020-06-27T10:09:15Z</time>
      </trkpt>
      <trkpt lat="48.34985" lon="-0.76579">
        <ele>212.71</ele>
        <time>2020-06-27T10:09:20Z</time>
      </trkpt>
      <trkpt lat="48.34989" lon="-0.76571">
        <ele>212.71</ele>
        <time>2020-06-27T10:09:26Z</time>
      </trkpt>
      <trkpt lat="48.34991" lon="-0.76564">
        <ele>213.71</ele>
        <time>2020-06-27T10:09:31Z</time>
      </trkpt>
      <trkpt lat="48.34994" lon="-0.76556">
        <ele>212.71</ele>
        <time>2020-06-27T10:09:37Z</time>
      </trkpt>
      <trkpt lat="48.34997" lon="-0.76548">
        <ele>213.71</ele>
        <time>2020-06-27T10:09:43Z</time>
      </trkpt>
      <trkpt lat="48.35" lon="-0.76541">
        <ele>213.71</ele>
        <time>2020-06-27T10:09:48Z</time>
      </trkpt>
      <trkpt lat="48.35002" lon="-0.76534">
        <ele>214.71</ele>
        <time>2020-06-27T10:09:53Z</time>
      </trkpt>
      <trkpt lat="48.35005" lon="-0.76524">
        <ele>214.71</ele>
        <time>2020-06-27T10:09:59Z</time>
      </trkpt>
      <trkpt lat="48.35009" lon="-0.7652">
        <ele>213.71</ele>
        <time>2020-06-27T10:10:04Z</time>
      </trkpt>
      <trkpt lat="48.35012" lon="-0.76514">
        <ele>212.71</ele>
        <time>2020-06-27T10:10:09Z</time>
      </trkpt>
      <trkpt lat="48.35016" lon="-0.76507">
        <ele>212.71</ele>
        <time>2020-06-27T10:10:15Z</time>
      </trkpt>
      <trkpt lat="48.35021" lon="-0.76499">
        <ele>212.71</ele>
        <time>2020-06-27T10:10:21Z</time>
      </trkpt>
      <trkpt lat="48.35026" lon="-0.76493">
        <ele>211.71</ele>
        <time>2020-06-27T10:10:27Z</time>
      </trkpt>
      <trkpt lat="48.3503" lon="-0.76488">
        <ele>211.71</ele>
        <time>2020-06-27T10:10:32Z</time>
      </trkpt>
      <trkpt lat="48.35035" lon="-0.76482">
        <ele>211.71</ele>
        <time>2020-06-27T10:10:37Z</time>
      </trkpt>
      <trkpt lat="48.3504" lon="-0.76476">
        <ele>210.71</ele>
        <time>2020-06-27T10:10:43Z</time>
      </trkpt>
      <trkpt lat="48.35045" lon="-0.76471">
        <ele>210.71</ele>
        <time>2020-06-27T10:10:48Z</time>
      </trkpt>
      <trkpt lat="48.3505" lon="-0.76466">
        <ele>210.71</ele>
        <time>2020-06-27T10:10:53Z</time>
      </trkpt>
      <trkpt lat="48.35056" lon="-0.7646">
        <ele>210.71</ele>
        <time>2020-06-27T10:10:59Z</time>
      </trkpt>
      <trkpt lat="48.3506" lon="-0.76456">
        <ele>209.71</ele>
        <time>2020-06-27T10:11:04Z</time>
      </trkpt>
      <trkpt lat="48.35066" lon="-0.7645">
        <ele>209.71</ele>
        <time>2020-06-27T10:11:10Z</time>
      </trkpt>
      <trkpt lat="48.35072" lon="-0.76444">
        <ele>209.71</ele>
        <time>2020-06-27T10:11:16Z</time>
      </trkpt>
      <trkpt lat="48.35076" lon="-0.7644">
        <ele>210.71</ele>
        <time>2020-06-27T10:11:21Z</time>
      </trkpt>
      <trkpt lat="48.3508" lon="-0.76436">
        <ele>210.71</ele>
        <time>2020-06-27T10:11:26Z</time>
      </trkpt>
      <trkpt lat="48.35084" lon="-0.76429">
        <ele>210.71</ele>
        <time>2020-06-27T10:11:32Z</time>
      </trkpt>
      <trkpt lat="48.35088" lon="-0.76423">
        <ele>209.71</ele>
        <time>2020-06-27T10:11:38Z</time>
      </trkpt>
      <trkpt lat="48.3509" lon="-0.76419">
        <ele>208.71</ele>
        <time>2020-06-27T10:11:43Z</time>
      </trkpt>
      <trkpt lat="48.35095" lon="-0.76415">
        <ele>209.71</ele>
        <time>2020-06-27T10:11:49Z</time>
      </trkpt>
      <trkpt lat="48.35101" lon="-0.76412">
        <ele>208.71</ele>
        <time>2020-06-27T10:11:55Z</time>
      </trkpt>
      <trkpt lat="48.35107" lon="-0.76406">
        <ele>209.71</ele>
        <time>2020-06-27T10:12:00Z</time>
      </trkpt>
      <trkpt lat="48.35114" lon="-0.764">
        <ele>209.71</ele>
        <time>2020-06-27T10:12:06Z</time>
      </trkpt>
      <trkpt lat="48.35121" lon="-0.76394">
        <ele>208.71</ele>
        <time>2020-06-27T10:12:12Z</time>
      </trkpt>
      <trkpt lat="48.35129" lon="-0.7639">
        <ele>210.71</ele>
        <time>2020-06-27T10:12:18Z</time>
      </trkpt>
      <trkpt lat="48.35134" lon="-0.76388">
        <ele>210.71</ele>
        <time>2020-06-27T10:12:23Z</time>
      </trkpt>
      <trkpt lat="48.35139" lon="-0.76385">
        <ele>211.71</ele>
        <time>2020-06-27T10:12:29Z</time>
      </trkpt>
      <trkpt lat="48.35148" lon="-0.7638">
        <ele>211.71</ele>
        <time>2020-06-27T10:12:34Z</time>
      </trkpt>
      <trkpt lat="48.35154" lon="-0.76376">
        <ele>212.71</ele>
        <time>2020-06-27T10:12:39Z</time>
      </trkpt>
      <trkpt lat="48.35161" lon="-0.76374">
        <ele>213.71</ele>
        <time>2020-06-27T10:12:45Z</time>
      </trkpt>
      <trkpt lat="48.35165" lon="-0.7637">
        <ele>213.71</ele>
        <time>2020-06-27T10:12:50Z</time>
      </trkpt>
      <trkpt lat="48.35171" lon="-0.76368">
        <ele>213.71</ele>
        <time>2020-06-27T10:12:55Z</time>
      </trkpt>
      <trkpt lat="48.35176" lon="-0.76364">
        <ele>212.71</ele>
        <time>2020-06-27T10:13:01Z</time>
      </trkpt>
      <trkpt lat="48.35183" lon="-0.7636">
        <ele>211.71</ele>
        <time>2020-06-27T10:13:07Z</time>
      </trkpt>
      <trkpt lat="48.35189" lon="-0.76357">
        <ele>211.71</ele>
        <time>2020-06-27T10:13:13Z</time>
      </trkpt>
      <trkpt lat="48.35194" lon="-0.76354">
        <ele>211.71</ele>
        <time>2020-06-27T10:13:18Z</time>
      </trkpt>
      <trkpt lat="48.352" lon="-0.76349">
        <ele>210.71</ele>
        <time>2020-06-27T10:13:24Z</time>
      </trkpt>
      <trkpt lat="48.35205" lon="-0.76345">
        <ele>210.71</ele>
        <time>2020-06-27T10:13:29Z</time>
      </trkpt>
      <trkpt lat="48.35209" lon="-0.7634">
        <ele>209.71</ele>
        <time>2020-06-27T10:13:34Z</time>
      </trkpt>
      <trkpt lat="48.35213" lon="-0.76335">
        <ele>208.71</ele>
        <time>2020-06-27T10:13:40Z</time>
      </trkpt>
      <trkpt lat="48.35219" lon="-0.7633">
        <ele>209.71</ele>
        <time>2020-06-27T10:13:46Z</time>
      </trkpt>
      <trkpt lat="48.35225" lon="-0.76325">
        <ele>210.71</ele>
        <time>2020-06-27T10:13:52Z</time>
      </trkpt>
      <trkpt lat="48.35231" lon="-0.76319">
        <ele>211.71</ele>
        <time>2020-06-27T10:13:58Z</time>
      </trkpt>
      <trkpt lat="48.35236" lon="-0.76314">
        <ele>211.71</ele>
        <time>2020-06-27T10:14:03Z</time>
      </trkpt>
      <trkpt lat="48.3524" lon="-0.76309">
        <ele>211.71</ele>
        <time>2020-06-27T10:14:08Z</time>
      </trkpt>
      <trkpt lat="48.35242" lon="-0.76304">
        <ele>208.71</ele>
        <time>2020-06-27T10:14:13Z</time>
      </trkpt>
      <trkpt lat="48.35244" lon="-0.763">
        <ele>204.71</ele>
        <time>2020-06-27T10:14:18Z</time>
      </trkpt>
      <trkpt lat="48.35249" lon="-0.76295">
        <ele>202.71</ele>
        <time>2020-06-27T10:14:24Z</time>
      </trkpt>
      <trkpt lat="48.35253" lon="-0.76288">
        <ele>202.71</ele>
        <time>2020-06-27T10:14:30Z</time>
      </trkpt>
      <trkpt lat="48.35257" lon="-0.76283">
        <ele>203.71</ele>
        <time>2020-06-27T10:14:35Z</time>
      </trkpt>
      <trkpt lat="48.35262" lon="-0.76278">
        <ele>202.71</ele>
        <time>2020-06-27T10:14:41Z</time>
      </trkpt>
      <trkpt lat="48.35267" lon="-0.76274">
        <ele>201.71</ele>
        <time>2020-06-27T10:14:47Z</time>
      </trkpt>
      <trkpt lat="48.35272" lon="-0.76268">
        <ele>200.71</ele>
        <time>2020-06-27T10:14:52Z</time>
      </trkpt>
      <trkpt lat="48.35276" lon="-0.76263">
        <ele>200.71</ele>
        <time>2020-06-27T10:14:57Z</time>
      </trkpt>
      <trkpt lat="48.35281" lon="-0.76257">
        <ele>200.71</ele>
        <time>2020-06-27T10:15:03Z</time>
      </trkpt>
      <trkpt lat="48.35287" lon="-0.76252">
        <ele>199.71</ele>
        <time>2020-06-27T10:15:09Z</time>
      </trkpt>
      <trkpt lat="48.35291" lon="-0.76246">
        <ele>199.71</ele>
        <time>2020-06-27T10:15:14Z</time>
      </trkpt>
      <trkpt lat="48.35296" lon="-0.76239">
        <ele>200.71</ele>
        <time>2020-06-27T10:15:20Z</time>
      </trkpt>
      <trkpt lat="48.35301" lon="-0.76234">
        <ele>198.71</ele>
        <time>2020-06-27T10:15:25Z</time>
      </trkpt>
      <trkpt lat="48.35305" lon="-0.7623">
        <ele>198.71</ele>
        <time>2020-06-27T10:15:30Z</time>
      </trkpt>
      <trkpt lat="48.35309" lon="-0.76222">
        <ele>198.71</ele>
        <time>2020-06-27T10:15:36Z</time>
      </trkpt>
      <trkpt lat="48.35312" lon="-0.76214">
        <ele>197.71</ele>
        <time>2020-06-27T10:15:42Z</time>
      </trkpt>
      <trkpt lat="48.35315" lon="-0.76205">
        <ele>197.71</ele>
        <time>2020-06-27T10:15:48Z</time>
      </trkpt>
      <trkpt lat="48.35317" lon="-0.76195">
        <ele>196.71</ele>
        <time>2020-06-27T10:15:54Z</time>
      </trkpt>
      <trkpt lat="48.35319" lon="-0.76186">
        <ele>196.71</ele>
        <time>2020-06-27T10:15:59Z</time>
      </trkpt>
      <trkpt lat="48.3532" lon="-0.76177">
        <ele>196.71</ele>
        <time>2020-06-27T10:16:05Z</time>
      </trkpt>
      <trkpt lat="48.35321" lon="-0.76169">
        <ele>195.71</ele>
        <time>2020-06-27T10:16:10Z</time>
      </trkpt>
      <trkpt lat="48.35323" lon="-0.76159">
        <ele>196.71</ele>
        <time>2020-06-27T10:16:16Z</time>
      </trkpt>
      <trkpt lat="48.35325" lon="-0.7615">
        <ele>195.71</ele>
        <time>2020-06-27T10:16:22Z</time>
      </trkpt>
      <trkpt lat="48.35327" lon="-0.76142">
        <ele>194.71</ele>
        <time>2020-06-27T10:16:28Z</time>
      </trkpt>
      <trkpt lat="48.35329" lon="-0.76134">
        <ele>194.71</ele>
        <time>2020-06-27T10:16:33Z</time>
      </trkpt>
      <trkpt lat="48.35331" lon="-0.76125">
        <ele>194.71</ele>
        <time>2020-06-27T10:16:39Z</time>
      </trkpt>
      <trkpt lat="48.35332" lon="-0.76115">
        <ele>193.71</ele>
        <time>2020-06-27T10:16:45Z</time>
      </trkpt>
      <trkpt lat="48.35334" lon="-0.76105">
        <ele>193.71</ele>
        <time>2020-06-27T10:16:51Z</time>
      </trkpt>
      <trkpt lat="48.35336" lon="-0.76096">
        <ele>192.71</ele>
        <time>2020-06-27T10:16:57Z</time>
      </trkpt>
      <trkpt lat="48.35338" lon="-0.76089">
        <ele>191.71</ele>
        <time>2020-06-27T10:17:02Z</time>
      </trkpt>
      <trkpt lat="48.35344" lon="-0.76083">
        <ele>190.71</ele>
        <time>2020-06-27T10:17:08Z</time>
      </trkpt>
      <trkpt lat="48.35351" lon="-0.76083">
        <ele>190.71</ele>
        <time>2020-06-27T10:17:14Z</time>
      </trkpt>
      <trkpt lat="48.35357" lon="-0.76085">
        <ele>190.71</ele>
        <time>2020-06-27T10:17:20Z</time>
      </trkpt>
      <trkpt lat="48.35362" lon="-0.76094">
        <ele>190.71</ele>
        <time>2020-06-27T10:17:26Z</time>
      </trkpt>
      <trkpt lat="48.35366" lon="-0.76102">
        <ele>191.71</ele>
        <time>2020-06-27T10:17:32Z</time>
      </trkpt>
      <trkpt lat="48.35371" lon="-0.76108">
        <ele>191.71</ele>
        <time>2020-06-27T10:17:37Z</time>
      </trkpt>
      <trkpt lat="48.35374" lon="-0.76115">
        <ele>192.71</ele>
        <time>2020-06-27T10:17:42Z</time>
      </trkpt>
      <trkpt lat="48.35377" lon="-0.76122">
        <ele>191.71</ele>
        <time>2020-06-27T10:17:47Z</time>
      </trkpt>
      <trkpt lat="48.35376" lon="-0.76127">
        <ele>191.71</ele>
        <time>2020-06-27T10:17:53Z</time>
      </trkpt>
      <trkpt lat="48.35376" lon="-0.76134">
        <ele>191.71</ele>
        <time>2020-06-27T10:17:58Z</time>
      </trkpt>
      <trkpt lat="48.3538" lon="-0.76142">
        <ele>190.71</ele>
        <time>2020-06-27T10:18:03Z</time>
      </trkpt>
      <trkpt lat="48.35384" lon="-0.76149">
        <ele>191.71</ele>
        <time>2020-06-27T10:18:08Z</time>
      </trkpt>
      <trkpt lat="48.35389" lon="-0.76156">
        <ele>191.71</ele>
        <time>2020-06-27T10:18:14Z</time>
      </trkpt>
      <trkpt lat="48.35393" lon="-0.76165">
        <ele>191.71</ele>
        <time>2020-06-27T10:18:20Z</time>
      </trkpt>
      <trkpt lat="48.35396" lon="-0.76172">
        <ele>192.71</ele>
        <time>2020-06-27T10:18:25Z</time>
      </trkpt>
      <trkpt lat="48.35401" lon="-0.76181">
        <ele>192.71</ele>
        <time>2020-06-27T10:18:31Z</time>
      </trkpt>
      <trkpt lat="48.35404" lon="-0.76187">
        <ele>192.71</ele>
        <time>2020-06-27T10:18:36Z</time>
      </trkpt>
      <trkpt lat="48.35407" lon="-0.76194">
        <ele>192.71</ele>
        <time>2020-06-27T10:18:41Z</time>
      </trkpt>
      <trkpt lat="48.35412" lon="-0.76202">
        <ele>192.71</ele>
        <time>2020-06-27T10:18:46Z</time>
      </trkpt>
      <trkpt lat="48.35417" lon="-0.76211">
        <ele>192.71</ele>
        <time>2020-06-27T10:18:52Z</time>
      </trkpt>
      <trkpt lat="48.35421" lon="-0.76218">
        <ele>192.71</ele>
        <time>2020-06-27T10:18:57Z</time>
      </trkpt>
      <trkpt lat="48.35425" lon="-0.76226">
        <ele>192.71</ele>
        <time>2020-06-27T10:19:03Z</time>
      </trkpt>
      <trkpt lat="48.3543" lon="-0.76235">
        <ele>192.71</ele>
        <time>2020-06-27T10:19:09Z</time>
      </trkpt>
      <trkpt lat="48.35433" lon="-0.76242">
        <ele>192.71</ele>
        <time>2020-06-27T10:19:14Z</time>
      </trkpt>
      <trkpt lat="48.35438" lon="-0.7625">
        <ele>192.71</ele>
        <time>2020-06-27T10:19:20Z</time>
      </trkpt>
      <trkpt lat="48.35442" lon="-0.76257">
        <ele>191.71</ele>
        <time>2020-06-27T10:19:26Z</time>
      </trkpt>
      <trkpt lat="48.35447" lon="-0.76265">
        <ele>191.71</ele>
        <time>2020-06-27T10:19:32Z</time>
      </trkpt>
      <trkpt lat="48.35451" lon="-0.76272">
        <ele>190.71</ele>
        <time>2020-06-27T10:19:38Z</time>
      </trkpt>
      <trkpt lat="48.35455" lon="-0.76279">
        <ele>190.71</ele>
        <time>2020-06-27T10:19:43Z</time>
      </trkpt>
      <trkpt lat="48.35457" lon="-0.76286">
        <ele>190.71</ele>
        <time>2020-06-27T10:19:49Z</time>
      </trkpt>
      <trkpt lat="48.35463" lon="-0.76293">
        <ele>190.71</ele>
        <time>2020-06-27T10:19:55Z</time>
      </trkpt>
      <trkpt lat="48.35467" lon="-0.76301">
        <ele>190.71</ele>
        <time>2020-06-27T10:20:01Z</time>
      </trkpt>
      <trkpt lat="48.35471" lon="-0.76308">
        <ele>189.71</ele>
        <time>2020-06-27T10:20:06Z</time>
      </trkpt>
      <trkpt lat="48.35475" lon="-0.76315">
        <ele>189.71</ele>
        <time>2020-06-27T10:20:11Z</time>
      </trkpt>
      <trkpt lat="48.35479" lon="-0.76322">
        <ele>189.71</ele>
        <time>2020-06-27T10:20:16Z</time>
      </trkpt>
      <trkpt lat="48.35483" lon="-0.76329">
        <ele>189.71</ele>
        <time>2020-06-27T10:20:21Z</time>
      </trkpt>
      <trkpt lat="48.35487" lon="-0.76337">
        <ele>188.71</ele>
        <time>2020-06-27T10:20:27Z</time>
      </trkpt>
      <trkpt lat="48.35492" lon="-0.76345">
        <ele>187.71</ele>
        <time>2020-06-27T10:20:33Z</time>
      </trkpt>
      <trkpt lat="48.35497" lon="-0.76353">
        <ele>188.71</ele>
        <time>2020-06-27T10:20:39Z</time>
      </trkpt>
      <trkpt lat="48.35501" lon="-0.7636">
        <ele>188.71</ele>
        <time>2020-06-27T10:20:44Z</time>
      </trkpt>
      <trkpt lat="48.35505" lon="-0.76368">
        <ele>187.71</ele>
        <time>2020-06-27T10:20:50Z</time>
      </trkpt>
      <trkpt lat="48.3551" lon="-0.76376">
        <ele>188.71</ele>
        <time>2020-06-27T10:20:56Z</time>
      </trkpt>
      <trkpt lat="48.35514" lon="-0.76384">
        <ele>187.71</ele>
        <time>2020-06-27T10:21:02Z</time>
      </trkpt>
      <trkpt lat="48.35518" lon="-0.76391">
        <ele>187.71</ele>
        <time>2020-06-27T10:21:07Z</time>
      </trkpt>
      <trkpt lat="48.35522" lon="-0.76398">
        <ele>186.71</ele>
        <time>2020-06-27T10:21:12Z</time>
      </trkpt>
      <trkpt lat="48.35526" lon="-0.76405">
        <ele>185.71</ele>
        <time>2020-06-27T10:21:17Z</time>
      </trkpt>
      <trkpt lat="48.3553" lon="-0.76413">
        <ele>184.71</ele>
        <time>2020-06-27T10:21:23Z</time>
      </trkpt>
      <trkpt lat="48.35534" lon="-0.76422">
        <ele>185.71</ele>
        <time>2020-06-27T10:21:29Z</time>
      </trkpt>
      <trkpt lat="48.35539" lon="-0.7643">
        <ele>185.71</ele>
        <time>2020-06-27T10:21:35Z</time>
      </trkpt>
      <trkpt lat="48.35542" lon="-0.76438">
        <ele>185.71</ele>
        <time>2020-06-27T10:21:40Z</time>
      </trkpt>
      <trkpt lat="48.35543" lon="-0.7644">
        <ele>185.71</ele>
        <time>2020-06-27T10:21:46Z</time>
      </trkpt>
      <trkpt lat="48.35546" lon="-0.76444">
        <ele>185.71</ele>
        <time>2020-06-27T10:21:52Z</time>
      </trkpt>
      <trkpt lat="48.35549" lon="-0.76452">
        <ele>185.71</ele>
        <time>2020-06-27T10:21:58Z</time>
      </trkpt>
      <trkpt lat="48.35551" lon="-0.76459">
        <ele>183.71</ele>
        <time>2020-06-27T10:22:04Z</time>
      </trkpt>
      <trkpt lat="48.35555" lon="-0.76466">
        <ele>184.71</ele>
        <time>2020-06-27T10:22:09Z</time>
      </trkpt>
      <trkpt lat="48.35557" lon="-0.76476">
        <ele>183.71</ele>
        <time>2020-06-27T10:22:15Z</time>
      </trkpt>
      <trkpt lat="48.35562" lon="-0.76484">
        <ele>182.71</ele>
        <time>2020-06-27T10:22:21Z</time>
      </trkpt>
      <trkpt lat="48.35565" lon="-0.76491">
        <ele>182.71</ele>
        <time>2020-06-27T10:22:26Z</time>
      </trkpt>
      <trkpt lat="48.35569" lon="-0.76501">
        <ele>182.71</ele>
        <time>2020-06-27T10:22:32Z</time>
      </trkpt>
      <trkpt lat="48.35572" lon="-0.76511">
        <ele>181.71</ele>
        <time>2020-06-27T10:22:38Z</time>
      </trkpt>
      <trkpt lat="48.35575" lon="-0.76518">
        <ele>181.71</ele>
        <time>2020-06-27T10:22:43Z</time>
      </trkpt>
      <trkpt lat="48.35579" lon="-0.76528">
        <ele>180.71</ele>
        <time>2020-06-27T10:22:49Z</time>
      </trkpt>
      <trkpt lat="48.35582" lon="-0.76536">
        <ele>180.71</ele>
        <time>2020-06-27T10:22:54Z</time>
      </trkpt>
      <trkpt lat="48.35585" lon="-0.76545">
        <ele>180.71</ele>
        <time>2020-06-27T10:23:00Z</time>
      </trkpt>
      <trkpt lat="48.35589" lon="-0.76553">
        <ele>179.71</ele>
        <time>2020-06-27T10:23:06Z</time>
      </trkpt>
      <trkpt lat="48.35593" lon="-0.76561">
        <ele>179.71</ele>
        <time>2020-06-27T10:23:12Z</time>
      </trkpt>
      <trkpt lat="48.35597" lon="-0.76568">
        <ele>178.71</ele>
        <time>2020-06-27T10:23:17Z</time>
      </trkpt>
      <trkpt lat="48.35602" lon="-0.76573">
        <ele>179.71</ele>
        <time>2020-06-27T10:23:22Z</time>
      </trkpt>
      <trkpt lat="48.35608" lon="-0.7658">
        <ele>179.71</ele>
        <time>2020-06-27T10:23:28Z</time>
      </trkpt>
      <trkpt lat="48.35613" lon="-0.76585">
        <ele>179.71</ele>
        <time>2020-06-27T10:23:33Z</time>
      </trkpt>
      <trkpt lat="48.35618" lon="-0.7659">
        <ele>178.71</ele>
        <time>2020-06-27T10:23:38Z</time>
      </trkpt>
      <trkpt lat="48.35624" lon="-0.76595">
        <ele>178.71</ele>
        <time>2020-06-27T10:23:44Z</time>
      </trkpt>
      <trkpt lat="48.3563" lon="-0.766">
        <ele>178.71</ele>
        <time>2020-06-27T10:23:50Z</time>
      </trkpt>
      <trkpt lat="48.35635" lon="-0.76605">
        <ele>178.71</ele>
        <time>2020-06-27T10:23:55Z</time>
      </trkpt>
      <trkpt lat="48.3564" lon="-0.7661">
        <ele>177.71</ele>
        <time>2020-06-27T10:24:00Z</time>
      </trkpt>
      <trkpt lat="48.35641" lon="-0.76613">
        <ele>177.71</ele>
        <time>2020-06-27T10:24:05Z</time>
      </trkpt>
      <trkpt lat="48.35644" lon="-0.76613">
        <ele>178.71</ele>
        <time>2020-06-27T10:24:11Z</time>
      </trkpt>
      <trkpt lat="48.35649" lon="-0.76618">
        <ele>178.71</ele>
        <time>2020-06-27T10:24:16Z</time>
      </trkpt>
      <trkpt lat="48.35655" lon="-0.76624">
        <ele>178.71</ele>
        <time>2020-06-27T10:24:21Z</time>
      </trkpt>
      <trkpt lat="48.3566" lon="-0.76628">
        <ele>178.71</ele>
        <time>2020-06-27T10:24:26Z</time>
      </trkpt>
      <trkpt lat="48.35666" lon="-0.76635">
        <ele>178.71</ele>
        <time>2020-06-27T10:24:32Z</time>
      </trkpt>
      <trkpt lat="48.35671" lon="-0.7664">
        <ele>178.71</ele>
        <time>2020-06-27T10:24:37Z</time>
      </trkpt>
      <trkpt lat="48.35676" lon="-0.76644">
        <ele>178.71</ele>
        <time>2020-06-27T10:24:42Z</time>
      </trkpt>
      <trkpt lat="48.35682" lon="-0.7665">
        <ele>178.71</ele>
        <time>2020-06-27T10:24:48Z</time>
      </trkpt>
      <trkpt lat="48.35688" lon="-0.76656">
        <ele>178.71</ele>
        <time>2020-06-27T10:24:54Z</time>
      </trkpt>
      <trkpt lat="48.35692" lon="-0.76661">
        <ele>179.71</ele>
        <time>2020-06-27T10:24:59Z</time>
      </trkpt>
      <trkpt lat="48.35698" lon="-0.76666">
        <ele>179.71</ele>
        <time>2020-06-27T10:25:05Z</time>
      </trkpt>
      <trkpt lat="48.35703" lon="-0.76671">
        <ele>179.71</ele>
        <time>2020-06-27T10:25:11Z</time>
      </trkpt>
      <trkpt lat="48.35708" lon="-0.76675">
        <ele>180.71</ele>
        <time>2020-06-27T10:25:16Z</time>
      </trkpt>
      <trkpt lat="48.35713" lon="-0.7668">
        <ele>181.71</ele>
        <time>2020-06-27T10:25:21Z</time>
      </trkpt>
      <trkpt lat="48.35719" lon="-0.76686">
        <ele>181.71</ele>
        <time>2020-06-27T10:25:27Z</time>
      </trkpt>
      <trkpt lat="48.35725" lon="-0.76691">
        <ele>181.71</ele>
        <time>2020-06-27T10:25:33Z</time>
      </trkpt>
      <trkpt lat="48.35731" lon="-0.76697">
        <ele>182.71</ele>
        <time>2020-06-27T10:25:39Z</time>
      </trkpt>
      <trkpt lat="48.35736" lon="-0.76701">
        <ele>183.71</ele>
        <time>2020-06-27T10:25:44Z</time>
      </trkpt>
      <trkpt lat="48.35741" lon="-0.76706">
        <ele>183.71</ele>
        <time>2020-06-27T10:25:49Z</time>
      </trkpt>
      <trkpt lat="48.35746" lon="-0.76711">
        <ele>184.71</ele>
        <time>2020-06-27T10:25:55Z</time>
      </trkpt>
      <trkpt lat="48.3575" lon="-0.76716">
        <ele>184.71</ele>
        <time>2020-06-27T10:26:00Z</time>
      </trkpt>
      <trkpt lat="48.35755" lon="-0.76719">
        <ele>184.71</ele>
        <time>2020-06-27T10:26:06Z</time>
      </trkpt>
      <trkpt lat="48.35761" lon="-0.76725">
        <ele>184.71</ele>
        <time>2020-06-27T10:26:12Z</time>
      </trkpt>
      <trkpt lat="48.35767" lon="-0.7673">
        <ele>184.71</ele>
        <time>2020-06-27T10:26:17Z</time>
      </trkpt>
      <trkpt lat="48.35771" lon="-0.76735">
        <ele>183.71</ele>
        <time>2020-06-27T10:26:23Z</time>
      </trkpt>
      <trkpt lat="48.35771" lon="-0.76735">
        <ele>183.71</ele>
        <time>2020-06-27T10:26:28Z</time>
      </trkpt>
      <trkpt lat="48.35777" lon="-0.7674">
        <ele>184.71</ele>
        <time>2020-06-27T10:26:34Z</time>
      </trkpt>
      <trkpt lat="48.35782" lon="-0.76744">
        <ele>185.71</ele>
        <time>2020-06-27T10:26:39Z</time>
      </trkpt>
      <trkpt lat="48.35787" lon="-0.76749">
        <ele>185.71</ele>
        <time>2020-06-27T10:26:44Z</time>
      </trkpt>
      <trkpt lat="48.35793" lon="-0.76748">
        <ele>185.71</ele>
        <time>2020-06-27T10:26:50Z</time>
      </trkpt>
      <trkpt lat="48.35799" lon="-0.76749">
        <ele>186.71</ele>
        <time>2020-06-27T10:26:55Z</time>
      </trkpt>
      <trkpt lat="48.35806" lon="-0.76753">
        <ele>187.71</ele>
        <time>2020-06-27T10:27:01Z</time>
      </trkpt>
      <trkpt lat="48.35811" lon="-0.76755">
        <ele>187.71</ele>
        <time>2020-06-27T10:27:06Z</time>
      </trkpt>
      <trkpt lat="48.35818" lon="-0.76757">
        <ele>188.71</ele>
        <time>2020-06-27T10:27:12Z</time>
      </trkpt>
      <trkpt lat="48.35823" lon="-0.76754">
        <ele>188.71</ele>
        <time>2020-06-27T10:27:17Z</time>
      </trkpt>
      <trkpt lat="48.35827" lon="-0.76749">
        <ele>186.71</ele>
        <time>2020-06-27T10:27:23Z</time>
      </trkpt>
      <trkpt lat="48.35833" lon="-0.76746">
        <ele>185.71</ele>
        <time>2020-06-27T10:27:29Z</time>
      </trkpt>
      <trkpt lat="48.35838" lon="-0.76741">
        <ele>184.71</ele>
        <time>2020-06-27T10:27:34Z</time>
      </trkpt>
      <trkpt lat="48.35843" lon="-0.76738">
        <ele>183.71</ele>
        <time>2020-06-27T10:27:39Z</time>
      </trkpt>
      <trkpt lat="48.35848" lon="-0.76734">
        <ele>181.71</ele>
        <time>2020-06-27T10:27:44Z</time>
      </trkpt>
      <trkpt lat="48.35853" lon="-0.76727">
        <ele>182.71</ele>
        <time>2020-06-27T10:27:50Z</time>
      </trkpt>
      <trkpt lat="48.35856" lon="-0.76723">
        <ele>182.71</ele>
        <time>2020-06-27T10:27:55Z</time>
      </trkpt>
      <trkpt lat="48.35859" lon="-0.76719">
        <ele>180.71</ele>
        <time>2020-06-27T10:28:01Z</time>
      </trkpt>
      <trkpt lat="48.35859" lon="-0.76718">
        <ele>181.71</ele>
        <time>2020-06-27T10:28:06Z</time>
      </trkpt>
      <trkpt lat="48.35859" lon="-0.76718">
        <ele>181.71</ele>
        <time>2020-06-27T10:28:11Z</time>
      </trkpt>
      <trkpt lat="48.35859" lon="-0.76718">
        <ele>181.71</ele>
        <time>2020-06-27T10:28:17Z</time>
      </trkpt>
      <trkpt lat="48.35859" lon="-0.76718">
        <ele>181.71</ele>
        <time>2020-06-27T10:28:22Z</time>
      </trkpt>
      <trkpt lat="48.35859" lon="-0.76718">
        <ele>181.71</ele>
        <time>2020-06-27T10:28:28Z</time>
      </trkpt>
      <trkpt lat="48.35859" lon="-0.76718">
        <ele>181.71</ele>
        <time>2020-06-27T10:28:33Z</time>
      </trkpt>
      <trkpt lat="48.35862" lon="-0.76714">
        <ele>184.71</ele>
        <time>2020-06-27T10:28:38Z</time>
      </trkpt>
      <trkpt lat="48.35871" lon="-0.76706">
        <ele>189.71</ele>
        <time>2020-06-27T10:28:44Z</time>
      </trkpt>
      <trkpt lat="48.35876" lon="-0.76701">
        <ele>189.71</ele>
        <time>2020-06-27T10:28:49Z</time>
      </trkpt>
      <trkpt lat="48.35878" lon="-0.76698">
        <ele>189.71</ele>
        <time>2020-06-27T10:28:54Z</time>
      </trkpt>
      <trkpt lat="48.35885" lon="-0.76694">
        <ele>187.71</ele>
        <time>2020-06-27T10:29:00Z</time>
      </trkpt>
      <trkpt lat="48.35891" lon="-0.76688">
        <ele>187.71</ele>
        <time>2020-06-27T10:29:06Z</time>
      </trkpt>
      <trkpt lat="48.35895" lon="-0.76685">
        <ele>187.71</ele>
        <time>2020-06-27T10:29:11Z</time>
      </trkpt>
      <trkpt lat="48.35903" lon="-0.76677">
        <ele>188.71</ele>
        <time>2020-06-27T10:29:17Z</time>
      </trkpt>
      <trkpt lat="48.35909" lon="-0.76673">
        <ele>188.71</ele>
        <time>2020-06-27T10:29:23Z</time>
      </trkpt>
      <trkpt lat="48.35915" lon="-0.76666">
        <ele>188.71</ele>
        <time>2020-06-27T10:29:29Z</time>
      </trkpt>
      <trkpt lat="48.35922" lon="-0.7666">
        <ele>188.71</ele>
        <time>2020-06-27T10:29:35Z</time>
      </trkpt>
      <trkpt lat="48.35928" lon="-0.76654">
        <ele>189.71</ele>
        <time>2020-06-27T10:29:41Z</time>
      </trkpt>
      <trkpt lat="48.35934" lon="-0.76652">
        <ele>190.71</ele>
        <time>2020-06-27T10:29:46Z</time>
      </trkpt>
      <trkpt lat="48.3594" lon="-0.76649">
        <ele>190.71</ele>
        <time>2020-06-27T10:29:51Z</time>
      </trkpt>
      <trkpt lat="48.35948" lon="-0.76644">
        <ele>191.71</ele>
        <time>2020-06-27T10:29:57Z</time>
      </trkpt>
      <trkpt lat="48.35955" lon="-0.76642">
        <ele>192.71</ele>
        <time>2020-06-27T10:30:02Z</time>
      </trkpt>
      <trkpt lat="48.35962" lon="-0.76642">
        <ele>192.71</ele>
        <time>2020-06-27T10:30:08Z</time>
      </trkpt>
      <trkpt lat="48.35969" lon="-0.76644">
        <ele>192.71</ele>
        <time>2020-06-27T10:30:14Z</time>
      </trkpt>
      <trkpt lat="48.35977" lon="-0.76646">
        <ele>193.71</ele>
        <time>2020-06-27T10:30:20Z</time>
      </trkpt>
      <trkpt lat="48.35984" lon="-0.76649">
        <ele>193.71</ele>
        <time>2020-06-27T10:30:26Z</time>
      </trkpt>
      <trkpt lat="48.3599" lon="-0.76651">
        <ele>193.71</ele>
        <time>2020-06-27T10:30:31Z</time>
      </trkpt>
      <trkpt lat="48.35996" lon="-0.76655">
        <ele>194.71</ele>
        <time>2020-06-27T10:30:37Z</time>
      </trkpt>
      <trkpt lat="48.36002" lon="-0.76658">
        <ele>193.71</ele>
        <time>2020-06-27T10:30:42Z</time>
      </trkpt>
      <trkpt lat="48.36008" lon="-0.76661">
        <ele>194.71</ele>
        <time>2020-06-27T10:30:47Z</time>
      </trkpt>
      <trkpt lat="48.36014" lon="-0.76665">
        <ele>194.71</ele>
        <time>2020-06-27T10:30:53Z</time>
      </trkpt>
      <trkpt lat="48.36022" lon="-0.76669">
        <ele>194.71</ele>
        <time>2020-06-27T10:30:59Z</time>
      </trkpt>
      <trkpt lat="48.36028" lon="-0.76671">
        <ele>195.71</ele>
        <time>2020-06-27T10:31:04Z</time>
      </trkpt>
      <trkpt lat="48.36035" lon="-0.76675">
        <ele>196.71</ele>
        <time>2020-06-27T10:31:10Z</time>
      </trkpt>
      <trkpt lat="48.36042" lon="-0.7668">
        <ele>197.71</ele>
        <time>2020-06-27T10:31:16Z</time>
      </trkpt>
      <trkpt lat="48.36048" lon="-0.76684">
        <ele>196.71</ele>
        <time>2020-06-27T10:31:21Z</time>
      </trkpt>
      <trkpt lat="48.36054" lon="-0.76689">
        <ele>197.71</ele>
        <time>2020-06-27T10:31:27Z</time>
      </trkpt>
      <trkpt lat="48.36061" lon="-0.76694">
        <ele>197.71</ele>
        <time>2020-06-27T10:31:32Z</time>
      </trkpt>
      <trkpt lat="48.36067" lon="-0.76697">
        <ele>197.71</ele>
        <time>2020-06-27T10:31:37Z</time>
      </trkpt>
      <trkpt lat="48.36073" lon="-0.76705">
        <ele>196.71</ele>
        <time>2020-06-27T10:31:43Z</time>
      </trkpt>
      <trkpt lat="48.36079" lon="-0.76711">
        <ele>196.71</ele>
        <time>2020-06-27T10:31:48Z</time>
      </trkpt>
      <trkpt lat="48.36086" lon="-0.76717">
        <ele>196.71</ele>
        <time>2020-06-27T10:31:54Z</time>
      </trkpt>
      <trkpt lat="48.36091" lon="-0.76724">
        <ele>195.71</ele>
        <time>2020-06-27T10:32:00Z</time>
      </trkpt>
      <trkpt lat="48.36096" lon="-0.76732">
        <ele>196.71</ele>
        <time>2020-06-27T10:32:06Z</time>
      </trkpt>
      <trkpt lat="48.361" lon="-0.76737">
        <ele>196.71</ele>
        <time>2020-06-27T10:32:11Z</time>
      </trkpt>
      <trkpt lat="48.36105" lon="-0.76744">
        <ele>196.71</ele>
        <time>2020-06-27T10:32:17Z</time>
      </trkpt>
      <trkpt lat="48.3611" lon="-0.7675">
        <ele>195.71</ele>
        <time>2020-06-27T10:32:22Z</time>
      </trkpt>
      <trkpt lat="48.36113" lon="-0.76756">
        <ele>194.71</ele>
        <time>2020-06-27T10:32:27Z</time>
      </trkpt>
      <trkpt lat="48.36118" lon="-0.76762">
        <ele>194.71</ele>
        <time>2020-06-27T10:32:33Z</time>
      </trkpt>
      <trkpt lat="48.36122" lon="-0.76769">
        <ele>193.71</ele>
        <time>2020-06-27T10:32:38Z</time>
      </trkpt>
      <trkpt lat="48.36128" lon="-0.76775">
        <ele>193.71</ele>
        <time>2020-06-27T10:32:44Z</time>
      </trkpt>
      <trkpt lat="48.36132" lon="-0.76781">
        <ele>194.71</ele>
        <time>2020-06-27T10:32:49Z</time>
      </trkpt>
      <trkpt lat="48.36138" lon="-0.76788">
        <ele>193.71</ele>
        <time>2020-06-27T10:32:55Z</time>
      </trkpt>
      <trkpt lat="48.36142" lon="-0.76792">
        <ele>193.71</ele>
        <time>2020-06-27T10:33:00Z</time>
      </trkpt>
      <trkpt lat="48.36147" lon="-0.76798">
        <ele>193.71</ele>
        <time>2020-06-27T10:33:05Z</time>
      </trkpt>
      <trkpt lat="48.36152" lon="-0.76804">
        <ele>192.71</ele>
        <time>2020-06-27T10:33:11Z</time>
      </trkpt>
      <trkpt lat="48.36156" lon="-0.76809">
        <ele>191.71</ele>
        <time>2020-06-27T10:33:16Z</time>
      </trkpt>
      <trkpt lat="48.36161" lon="-0.76816">
        <ele>190.71</ele>
        <time>2020-06-27T10:33:22Z</time>
      </trkpt>
      <trkpt lat="48.36164" lon="-0.76823">
        <ele>189.71</ele>
        <time>2020-06-27T10:33:27Z</time>
      </trkpt>
      <trkpt lat="48.36168" lon="-0.7683">
        <ele>189.71</ele>
        <time>2020-06-27T10:33:33Z</time>
      </trkpt>
      <trkpt lat="48.3617" lon="-0.76839">
        <ele>189.71</ele>
        <time>2020-06-27T10:33:39Z</time>
      </trkpt>
      <trkpt lat="48.36172" lon="-0.76845">
        <ele>189.71</ele>
        <time>2020-06-27T10:33:44Z</time>
      </trkpt>
      <trkpt lat="48.36174" lon="-0.76852">
        <ele>190.71</ele>
        <time>2020-06-27T10:33:50Z</time>
      </trkpt>
      <trkpt lat="48.36176" lon="-0.76862">
        <ele>188.71</ele>
        <time>2020-06-27T10:33:55Z</time>
      </trkpt>
      <trkpt lat="48.36178" lon="-0.76871">
        <ele>186.71</ele>
        <time>2020-06-27T10:34:01Z</time>
      </trkpt>
      <trkpt lat="48.36179" lon="-0.76883">
        <ele>186.71</ele>
        <time>2020-06-27T10:34:07Z</time>
      </trkpt>
      <trkpt lat="48.3618" lon="-0.76892">
        <ele>185.71</ele>
        <time>2020-06-27T10:34:13Z</time>
      </trkpt>
      <trkpt lat="48.3618" lon="-0.76902">
        <ele>185.71</ele>
        <time>2020-06-27T10:34:19Z</time>
      </trkpt>
      <trkpt lat="48.36181" lon="-0.7691">
        <ele>186.71</ele>
        <time>2020-06-27T10:34:24Z</time>
      </trkpt>
      <trkpt lat="48.36182" lon="-0.76919">
        <ele>185.71</ele>
        <time>2020-06-27T10:34:30Z</time>
      </trkpt>
      <trkpt lat="48.36184" lon="-0.76928">
        <ele>184.71</ele>
        <time>2020-06-27T10:34:36Z</time>
      </trkpt>
      <trkpt lat="48.36185" lon="-0.76935">
        <ele>184.71</ele>
        <time>2020-06-27T10:34:41Z</time>
      </trkpt>
      <trkpt lat="48.36186" lon="-0.76944">
        <ele>185.71</ele>
        <time>2020-06-27T10:34:47Z</time>
      </trkpt>
      <trkpt lat="48.36186" lon="-0.76952">
        <ele>185.71</ele>
        <time>2020-06-27T10:34:52Z</time>
      </trkpt>
      <trkpt lat="48.36187" lon="-0.76963">
        <ele>184.71</ele>
        <time>2020-06-27T10:34:58Z</time>
      </trkpt>
      <trkpt lat="48.36188" lon="-0.76974">
        <ele>184.71</ele>
        <time>2020-06-27T10:35:04Z</time>
      </trkpt>
      <trkpt lat="48.36189" lon="-0.76983">
        <ele>183.71</ele>
        <time>2020-06-27T10:35:10Z</time>
      </trkpt>
      <trkpt lat="48.36189" lon="-0.76995">
        <ele>183.71</ele>
        <time>2020-06-27T10:35:16Z</time>
      </trkpt>
      <trkpt lat="48.3619" lon="-0.77004">
        <ele>183.71</ele>
        <time>2020-06-27T10:35:21Z</time>
      </trkpt>
      <trkpt lat="48.3619" lon="-0.77013">
        <ele>184.71</ele>
        <time>2020-06-27T10:35:27Z</time>
      </trkpt>
      <trkpt lat="48.36191" lon="-0.77022">
        <ele>182.71</ele>
        <time>2020-06-27T10:35:33Z</time>
      </trkpt>
      <trkpt lat="48.36192" lon="-0.77033">
        <ele>184.71</ele>
        <time>2020-06-27T10:35:39Z</time>
      </trkpt>
      <trkpt lat="48.36193" lon="-0.77043">
        <ele>184.71</ele>
        <time>2020-06-27T10:35:45Z</time>
      </trkpt>
      <trkpt lat="48.36193" lon="-0.77051">
        <ele>183.71</ele>
        <time>2020-06-27T10:35:50Z</time>
      </trkpt>
      <trkpt lat="48.36195" lon="-0.77059">
        <ele>181.71</ele>
        <time>2020-06-27T10:35:56Z</time>
      </trkpt>
      <trkpt lat="48.36194" lon="-0.77067">
        <ele>180.71</ele>
        <time>2020-06-27T10:36:01Z</time>
      </trkpt>
      <trkpt lat="48.36196" lon="-0.77073">
        <ele>180.71</ele>
        <time>2020-06-27T10:36:07Z</time>
      </trkpt>
      <trkpt lat="48.36199" lon="-0.77079">
        <ele>179.71</ele>
        <time>2020-06-27T10:36:12Z</time>
      </trkpt>
      <trkpt lat="48.36203" lon="-0.77086">
        <ele>179.71</ele>
        <time>2020-06-27T10:36:18Z</time>
      </trkpt>
      <trkpt lat="48.36206" lon="-0.77091">
        <ele>178.71</ele>
        <time>2020-06-27T10:36:23Z</time>
      </trkpt>
      <trkpt lat="48.36211" lon="-0.77098">
        <ele>177.71</ele>
        <time>2020-06-27T10:36:29Z</time>
      </trkpt>
      <trkpt lat="48.36215" lon="-0.77105">
        <ele>177.71</ele>
        <time>2020-06-27T10:36:34Z</time>
      </trkpt>
      <trkpt lat="48.36222" lon="-0.77106">
        <ele>177.71</ele>
        <time>2020-06-27T10:36:40Z</time>
      </trkpt>
      <trkpt lat="48.36226" lon="-0.77103">
        <ele>177.71</ele>
        <time>2020-06-27T10:36:45Z</time>
      </trkpt>
      <trkpt lat="48.36231" lon="-0.77099">
        <ele>177.71</ele>
        <time>2020-06-27T10:36:51Z</time>
      </trkpt>
      <trkpt lat="48.36235" lon="-0.77093">
        <ele>175.71</ele>
        <time>2020-06-27T10:36:57Z</time>
      </trkpt>
      <trkpt lat="48.36239" lon="-0.77086">
        <ele>176.71</ele>
        <time>2020-06-27T10:37:02Z</time>
      </trkpt>
      <trkpt lat="48.36244" lon="-0.77079">
        <ele>175.71</ele>
        <time>2020-06-27T10:37:08Z</time>
      </trkpt>
      <trkpt lat="48.36248" lon="-0.77073">
        <ele>174.71</ele>
        <time>2020-06-27T10:37:13Z</time>
      </trkpt>
      <trkpt lat="48.36253" lon="-0.77066">
        <ele>173.71</ele>
        <time>2020-06-27T10:37:19Z</time>
      </trkpt>
      <trkpt lat="48.36258" lon="-0.77059">
        <ele>172.71</ele>
        <time>2020-06-27T10:37:25Z</time>
      </trkpt>
      <trkpt lat="48.36262" lon="-0.77054">
        <ele>171.71</ele>
        <time>2020-06-27T10:37:30Z</time>
      </trkpt>
      <trkpt lat="48.36266" lon="-0.77047">
        <ele>171.71</ele>
        <time>2020-06-27T10:37:36Z</time>
      </trkpt>
      <trkpt lat="48.3627" lon="-0.7704">
        <ele>171.71</ele>
        <time>2020-06-27T10:37:41Z</time>
      </trkpt>
      <trkpt lat="48.36274" lon="-0.77033">
        <ele>171.71</ele>
        <time>2020-06-27T10:37:46Z</time>
      </trkpt>
      <trkpt lat="48.36279" lon="-0.77026">
        <ele>171.71</ele>
        <time>2020-06-27T10:37:52Z</time>
      </trkpt>
      <trkpt lat="48.36283" lon="-0.77019">
        <ele>171.71</ele>
        <time>2020-06-27T10:37:57Z</time>
      </trkpt>
      <trkpt lat="48.36287" lon="-0.77011">
        <ele>171.71</ele>
        <time>2020-06-27T10:38:03Z</time>
      </trkpt>
      <trkpt lat="48.36292" lon="-0.77004">
        <ele>171.71</ele>
        <time>2020-06-27T10:38:09Z</time>
      </trkpt>
      <trkpt lat="48.36297" lon="-0.76996">
        <ele>172.71</ele>
        <time>2020-06-27T10:38:15Z</time>
      </trkpt>
      <trkpt lat="48.36301" lon="-0.7699">
        <ele>172.71</ele>
        <time>2020-06-27T10:38:20Z</time>
      </trkpt>
      <trkpt lat="48.36305" lon="-0.76983">
        <ele>172.71</ele>
        <time>2020-06-27T10:38:26Z</time>
      </trkpt>
      <trkpt lat="48.36311" lon="-0.76977">
        <ele>171.71</ele>
        <time>2020-06-27T10:38:32Z</time>
      </trkpt>
      <trkpt lat="48.36316" lon="-0.7697">
        <ele>171.71</ele>
        <time>2020-06-27T10:38:38Z</time>
      </trkpt>
      <trkpt lat="48.36322" lon="-0.76966">
        <ele>171.71</ele>
        <time>2020-06-27T10:38:44Z</time>
      </trkpt>
      <trkpt lat="48.36328" lon="-0.76963">
        <ele>172.71</ele>
        <time>2020-06-27T10:38:49Z</time>
      </trkpt>
      <trkpt lat="48.36335" lon="-0.7696">
        <ele>172.71</ele>
        <time>2020-06-27T10:38:55Z</time>
      </trkpt>
      <trkpt lat="48.36341" lon="-0.76956">
        <ele>172.71</ele>
        <time>2020-06-27T10:39:00Z</time>
      </trkpt>
      <trkpt lat="48.36346" lon="-0.76953">
        <ele>173.71</ele>
        <time>2020-06-27T10:39:05Z</time>
      </trkpt>
      <trkpt lat="48.36353" lon="-0.76948">
        <ele>174.71</ele>
        <time>2020-06-27T10:39:11Z</time>
      </trkpt>
      <trkpt lat="48.3636" lon="-0.76942">
        <ele>175.71</ele>
        <time>2020-06-27T10:39:17Z</time>
      </trkpt>
      <trkpt lat="48.36365" lon="-0.76938">
        <ele>175.71</ele>
        <time>2020-06-27T10:39:22Z</time>
      </trkpt>
      <trkpt lat="48.36371" lon="-0.76933">
        <ele>174.71</ele>
        <time>2020-06-27T10:39:28Z</time>
      </trkpt>
      <trkpt lat="48.36378" lon="-0.76929">
        <ele>175.71</ele>
        <time>2020-06-27T10:39:34Z</time>
      </trkpt>
      <trkpt lat="48.36383" lon="-0.76925">
        <ele>176.71</ele>
        <time>2020-06-27T10:39:39Z</time>
      </trkpt>
      <trkpt lat="48.36387" lon="-0.76923">
        <ele>176.71</ele>
        <time>2020-06-27T10:39:44Z</time>
      </trkpt>
      <trkpt lat="48.36392" lon="-0.7692">
        <ele>176.71</ele>
        <time>2020-06-27T10:39:50Z</time>
      </trkpt>
      <trkpt lat="48.36398" lon="-0.76915">
        <ele>177.71</ele>
        <time>2020-06-27T10:39:56Z</time>
      </trkpt>
      <trkpt lat="48.36403" lon="-0.76911">
        <ele>176.71</ele>
        <time>2020-06-27T10:40:02Z</time>
      </trkpt>
      <trkpt lat="48.36408" lon="-0.76908">
        <ele>175.71</ele>
        <time>2020-06-27T10:40:08Z</time>
      </trkpt>
      <trkpt lat="48.36413" lon="-0.76906">
        <ele>174.71</ele>
        <time>2020-06-27T10:40:13Z</time>
      </trkpt>
      <trkpt lat="48.36418" lon="-0.76902">
        <ele>174.71</ele>
        <time>2020-06-27T10:40:18Z</time>
      </trkpt>
      <trkpt lat="48.36424" lon="-0.76897">
        <ele>174.71</ele>
        <time>2020-06-27T10:40:24Z</time>
      </trkpt>
      <trkpt lat="48.36428" lon="-0.76893">
        <ele>173.71</ele>
        <time>2020-06-27T10:40:29Z</time>
      </trkpt>
      <trkpt lat="48.36433" lon="-0.76889">
        <ele>173.71</ele>
        <time>2020-06-27T10:40:34Z</time>
      </trkpt>
      <trkpt lat="48.36438" lon="-0.76884">
        <ele>173.71</ele>
        <time>2020-06-27T10:40:40Z</time>
      </trkpt>
      <trkpt lat="48.36443" lon="-0.76879">
        <ele>173.71</ele>
        <time>2020-06-27T10:40:46Z</time>
      </trkpt>
      <trkpt lat="48.36447" lon="-0.76874">
        <ele>173.71</ele>
        <time>2020-06-27T10:40:51Z</time>
      </trkpt>
      <trkpt lat="48.36451" lon="-0.76867">
        <ele>173.71</ele>
        <time>2020-06-27T10:40:56Z</time>
      </trkpt>
      <trkpt lat="48.36454" lon="-0.76859">
        <ele>173.71</ele>
        <time>2020-06-27T10:41:02Z</time>
      </trkpt>
      <trkpt lat="48.36456" lon="-0.76849">
        <ele>174.71</ele>
        <time>2020-06-27T10:41:08Z</time>
      </trkpt>
      <trkpt lat="48.36458" lon="-0.7684">
        <ele>173.71</ele>
        <time>2020-06-27T10:41:14Z</time>
      </trkpt>
      <trkpt lat="48.36459" lon="-0.7683">
        <ele>174.71</ele>
        <time>2020-06-27T10:41:20Z</time>
      </trkpt>
      <trkpt lat="48.36458" lon="-0.7682">
        <ele>175.71</ele>
        <time>2020-06-27T10:41:25Z</time>
      </trkpt>
      <trkpt lat="48.36457" lon="-0.7681">
        <ele>175.71</ele>
        <time>2020-06-27T10:41:31Z</time>
      </trkpt>
      <trkpt lat="48.36456" lon="-0.768">
        <ele>176.71</ele>
        <time>2020-06-27T10:41:37Z</time>
      </trkpt>
      <trkpt lat="48.36454" lon="-0.76791">
        <ele>177.71</ele>
        <time>2020-06-27T10:41:42Z</time>
      </trkpt>
      <trkpt lat="48.36452" lon="-0.76782">
        <ele>177.71</ele>
        <time>2020-06-27T10:41:48Z</time>
      </trkpt>
      <trkpt lat="48.3645" lon="-0.76773">
        <ele>177.71</ele>
        <time>2020-06-27T10:41:53Z</time>
      </trkpt>
      <trkpt lat="48.36448" lon="-0.76763">
        <ele>177.71</ele>
        <time>2020-06-27T10:41:59Z</time>
      </trkpt>
      <trkpt lat="48.36446" lon="-0.76754">
        <ele>177.71</ele>
        <time>2020-06-27T10:42:04Z</time>
      </trkpt>
      <trkpt lat="48.36446" lon="-0.76746">
        <ele>177.71</ele>
        <time>2020-06-27T10:42:09Z</time>
      </trkpt>
      <trkpt lat="48.3645" lon="-0.76738">
        <ele>177.71</ele>
        <time>2020-06-27T10:42:15Z</time>
      </trkpt>
      <trkpt lat="48.36455" lon="-0.76734">
        <ele>176.71</ele>
        <time>2020-06-27T10:42:21Z</time>
      </trkpt>
      <trkpt lat="48.36461" lon="-0.76733">
        <ele>176.71</ele>
        <time>2020-06-27T10:42:26Z</time>
      </trkpt>
      <trkpt lat="48.36468" lon="-0.76731">
        <ele>175.71</ele>
        <time>2020-06-27T10:42:32Z</time>
      </trkpt>
      <trkpt lat="48.36474" lon="-0.76728">
        <ele>174.71</ele>
        <time>2020-06-27T10:42:38Z</time>
      </trkpt>
      <trkpt lat="48.3648" lon="-0.76726">
        <ele>174.71</ele>
        <time>2020-06-27T10:42:43Z</time>
      </trkpt>
      <trkpt lat="48.36487" lon="-0.76723">
        <ele>174.71</ele>
        <time>2020-06-27T10:42:49Z</time>
      </trkpt>
      <trkpt lat="48.36494" lon="-0.7672">
        <ele>174.71</ele>
        <time>2020-06-27T10:42:55Z</time>
      </trkpt>
      <trkpt lat="48.365" lon="-0.76718">
        <ele>174.71</ele>
        <time>2020-06-27T10:43:01Z</time>
      </trkpt>
      <trkpt lat="48.36507" lon="-0.76716">
        <ele>173.71</ele>
        <time>2020-06-27T10:43:07Z</time>
      </trkpt>
      <trkpt lat="48.36514" lon="-0.76712">
        <ele>174.71</ele>
        <time>2020-06-27T10:43:13Z</time>
      </trkpt>
      <trkpt lat="48.36521" lon="-0.76709">
        <ele>175.71</ele>
        <time>2020-06-27T10:43:19Z</time>
      </trkpt>
      <trkpt lat="48.36526" lon="-0.76705">
        <ele>174.71</ele>
        <time>2020-06-27T10:43:24Z</time>
      </trkpt>
      <trkpt lat="48.36532" lon="-0.76703">
        <ele>174.71</ele>
        <time>2020-06-27T10:43:29Z</time>
      </trkpt>
      <trkpt lat="48.36535" lon="-0.76702">
        <ele>174.71</ele>
        <time>2020-06-27T10:43:35Z</time>
      </trkpt>
      <trkpt lat="48.36539" lon="-0.76699">
        <ele>174.71</ele>
        <time>2020-06-27T10:43:40Z</time>
      </trkpt>
      <trkpt lat="48.36545" lon="-0.76696">
        <ele>174.71</ele>
        <time>2020-06-27T10:43:46Z</time>
      </trkpt>
      <trkpt lat="48.36551" lon="-0.76692">
        <ele>174.71</ele>
        <time>2020-06-27T10:43:52Z</time>
      </trkpt>
      <trkpt lat="48.36558" lon="-0.7669">
        <ele>174.71</ele>
        <time>2020-06-27T10:43:58Z</time>
      </trkpt>
      <trkpt lat="48.36563" lon="-0.76687">
        <ele>174.71</ele>
        <time>2020-06-27T10:44:03Z</time>
      </trkpt>
      <trkpt lat="48.36568" lon="-0.76685">
        <ele>174.71</ele>
        <time>2020-06-27T10:44:08Z</time>
      </trkpt>
      <trkpt lat="48.36573" lon="-0.76684">
        <ele>174.71</ele>
        <time>2020-06-27T10:44:13Z</time>
      </trkpt>
      <trkpt lat="48.36579" lon="-0.76681">
        <ele>172.71</ele>
        <time>2020-06-27T10:44:19Z</time>
      </trkpt>
      <trkpt lat="48.36586" lon="-0.76677">
        <ele>173.71</ele>
        <time>2020-06-27T10:44:25Z</time>
      </trkpt>
      <trkpt lat="48.36593" lon="-0.76673">
        <ele>172.71</ele>
        <time>2020-06-27T10:44:31Z</time>
      </trkpt>
      <trkpt lat="48.366" lon="-0.7667">
        <ele>173.71</ele>
        <time>2020-06-27T10:44:37Z</time>
      </trkpt>
      <trkpt lat="48.36606" lon="-0.76667">
        <ele>172.71</ele>
        <time>2020-06-27T10:44:43Z</time>
      </trkpt>
      <trkpt lat="48.36612" lon="-0.76665">
        <ele>171.71</ele>
        <time>2020-06-27T10:44:49Z</time>
      </trkpt>
      <trkpt lat="48.36617" lon="-0.76663">
        <ele>171.71</ele>
        <time>2020-06-27T10:44:54Z</time>
      </trkpt>
      <trkpt lat="48.36623" lon="-0.7666">
        <ele>170.71</ele>
        <time>2020-06-27T10:45:00Z</time>
      </trkpt>
      <trkpt lat="48.3663" lon="-0.76657">
        <ele>169.71</ele>
        <time>2020-06-27T10:45:06Z</time>
      </trkpt>
      <trkpt lat="48.36636" lon="-0.76654">
        <ele>169.71</ele>
        <time>2020-06-27T10:45:12Z</time>
      </trkpt>
      <trkpt lat="48.3664" lon="-0.76652">
        <ele>168.71</ele>
        <time>2020-06-27T10:45:17Z</time>
      </trkpt>
      <trkpt lat="48.36646" lon="-0.7665">
        <ele>167.71</ele>
        <time>2020-06-27T10:45:23Z</time>
      </trkpt>
      <trkpt lat="48.36652" lon="-0.76646">
        <ele>166.71</ele>
        <time>2020-06-27T10:45:29Z</time>
      </trkpt>
      <trkpt lat="48.36657" lon="-0.76644">
        <ele>167.71</ele>
        <time>2020-06-27T10:45:34Z</time>
      </trkpt>
      <trkpt lat="48.36664" lon="-0.76641">
        <ele>166.71</ele>
        <time>2020-06-27T10:45:40Z</time>
      </trkpt>
      <trkpt lat="48.3667" lon="-0.76637">
        <ele>166.71</ele>
        <time>2020-06-27T10:45:46Z</time>
      </trkpt>
      <trkpt lat="48.36676" lon="-0.76634">
        <ele>165.71</ele>
        <time>2020-06-27T10:45:51Z</time>
      </trkpt>
      <trkpt lat="48.36682" lon="-0.76631">
        <ele>164.71</ele>
        <time>2020-06-27T10:45:57Z</time>
      </trkpt>
      <trkpt lat="48.36685" lon="-0.76629">
        <ele>166.71</ele>
        <time>2020-06-27T10:46:03Z</time>
      </trkpt>
      <trkpt lat="48.36689" lon="-0.76628">
        <ele>166.71</ele>
        <time>2020-06-27T10:46:09Z</time>
      </trkpt>
      <trkpt lat="48.36693" lon="-0.76626">
        <ele>166.71</ele>
        <time>2020-06-27T10:46:14Z</time>
      </trkpt>
      <trkpt lat="48.36698" lon="-0.76623">
        <ele>166.71</ele>
        <time>2020-06-27T10:46:19Z</time>
      </trkpt>
      <trkpt lat="48.36704" lon="-0.76619">
        <ele>165.71</ele>
        <time>2020-06-27T10:46:25Z</time>
      </trkpt>
      <trkpt lat="48.36711" lon="-0.76618">
        <ele>166.71</ele>
        <time>2020-06-27T10:46:31Z</time>
      </trkpt>
      <trkpt lat="48.36716" lon="-0.76616">
        <ele>165.71</ele>
        <time>2020-06-27T10:46:36Z</time>
      </trkpt>
      <trkpt lat="48.36723" lon="-0.76613">
        <ele>165.71</ele>
        <time>2020-06-27T10:46:42Z</time>
      </trkpt>
      <trkpt lat="48.36728" lon="-0.7661">
        <ele>165.71</ele>
        <time>2020-06-27T10:46:47Z</time>
      </trkpt>
      <trkpt lat="48.36735" lon="-0.76606">
        <ele>166.71</ele>
        <time>2020-06-27T10:46:53Z</time>
      </trkpt>
      <trkpt lat="48.36741" lon="-0.76603">
        <ele>165.71</ele>
        <time>2020-06-27T10:46:59Z</time>
      </trkpt>
      <trkpt lat="48.36746" lon="-0.76602">
        <ele>164.71</ele>
        <time>2020-06-27T10:47:04Z</time>
      </trkpt>
      <trkpt lat="48.36752" lon="-0.76599">
        <ele>164.71</ele>
        <time>2020-06-27T10:47:10Z</time>
      </trkpt>
      <trkpt lat="48.36758" lon="-0.76596">
        <ele>164.71</ele>
        <time>2020-06-27T10:47:16Z</time>
      </trkpt>
      <trkpt lat="48.36762" lon="-0.76594">
        <ele>165.71</ele>
        <time>2020-06-27T10:47:21Z</time>
      </trkpt>
      <trkpt lat="48.36767" lon="-0.76592">
        <ele>165.71</ele>
        <time>2020-06-27T10:47:26Z</time>
      </trkpt>
      <trkpt lat="48.36774" lon="-0.7659">
        <ele>165.71</ele>
        <time>2020-06-27T10:47:32Z</time>
      </trkpt>
      <trkpt lat="48.3678" lon="-0.76588">
        <ele>165.71</ele>
        <time>2020-06-27T10:47:38Z</time>
      </trkpt>
      <trkpt lat="48.36786" lon="-0.76586">
        <ele>164.71</ele>
        <time>2020-06-27T10:47:43Z</time>
      </trkpt>
      <trkpt lat="48.36791" lon="-0.76582">
        <ele>164.71</ele>
        <time>2020-06-27T10:47:49Z</time>
      </trkpt>
      <trkpt lat="48.36796" lon="-0.7658">
        <ele>164.71</ele>
        <time>2020-06-27T10:47:54Z</time>
      </trkpt>
      <trkpt lat="48.36801" lon="-0.76578">
        <ele>164.71</ele>
        <time>2020-06-27T10:47:59Z</time>
      </trkpt>
      <trkpt lat="48.36806" lon="-0.76575">
        <ele>163.71</ele>
        <time>2020-06-27T10:48:05Z</time>
      </trkpt>
      <trkpt lat="48.36812" lon="-0.76574">
        <ele>163.71</ele>
        <time>2020-06-27T10:48:10Z</time>
      </trkpt>
      <trkpt lat="48.36817" lon="-0.76571">
        <ele>163.71</ele>
        <time>2020-06-27T10:48:15Z</time>
      </trkpt>
      <trkpt lat="48.36823" lon="-0.76568">
        <ele>163.71</ele>
        <time>2020-06-27T10:48:21Z</time>
      </trkpt>
      <trkpt lat="48.36829" lon="-0.76565">
        <ele>162.71</ele>
        <time>2020-06-27T10:48:27Z</time>
      </trkpt>
      <trkpt lat="48.36834" lon="-0.76563">
        <ele>162.71</ele>
        <time>2020-06-27T10:48:32Z</time>
      </trkpt>
      <trkpt lat="48.3684" lon="-0.76561">
        <ele>162.71</ele>
        <time>2020-06-27T10:48:37Z</time>
      </trkpt>
      <trkpt lat="48.36846" lon="-0.76558">
        <ele>162.71</ele>
        <time>2020-06-27T10:48:43Z</time>
      </trkpt>
      <trkpt lat="48.36851" lon="-0.76556">
        <ele>162.71</ele>
        <time>2020-06-27T10:48:48Z</time>
      </trkpt>
      <trkpt lat="48.36858" lon="-0.76553">
        <ele>161.71</ele>
        <time>2020-06-27T10:48:54Z</time>
      </trkpt>
      <trkpt lat="48.36863" lon="-0.76551">
        <ele>161.71</ele>
        <time>2020-06-27T10:48:59Z</time>
      </trkpt>
      <trkpt lat="48.36868" lon="-0.76548">
        <ele>160.71</ele>
        <time>2020-06-27T10:49:04Z</time>
      </trkpt>
      <trkpt lat="48.36873" lon="-0.76546">
        <ele>159.71</ele>
        <time>2020-06-27T10:49:09Z</time>
      </trkpt>
      <trkpt lat="48.36879" lon="-0.76542">
        <ele>159.71</ele>
        <time>2020-06-27T10:49:15Z</time>
      </trkpt>
      <trkpt lat="48.36885" lon="-0.76539">
        <ele>159.71</ele>
        <time>2020-06-27T10:49:21Z</time>
      </trkpt>
      <trkpt lat="48.36891" lon="-0.76536">
        <ele>158.71</ele>
        <time>2020-06-27T10:49:27Z</time>
      </trkpt>
      <trkpt lat="48.36897" lon="-0.76534">
        <ele>159.71</ele>
        <time>2020-06-27T10:49:32Z</time>
      </trkpt>
      <trkpt lat="48.36903" lon="-0.76531">
        <ele>158.71</ele>
        <time>2020-06-27T10:49:38Z</time>
      </trkpt>
      <trkpt lat="48.36909" lon="-0.76529">
        <ele>158.71</ele>
        <time>2020-06-27T10:49:44Z</time>
      </trkpt>
      <trkpt lat="48.36914" lon="-0.76526">
        <ele>158.71</ele>
        <time>2020-06-27T10:49:49Z</time>
      </trkpt>
      <trkpt lat="48.3692" lon="-0.76524">
        <ele>157.71</ele>
        <time>2020-06-27T10:49:55Z</time>
      </trkpt>
      <trkpt lat="48.36926" lon="-0.76521">
        <ele>157.71</ele>
        <time>2020-06-27T10:50:01Z</time>
      </trkpt>
      <trkpt lat="48.36932" lon="-0.76518">
        <ele>157.71</ele>
        <time>2020-06-27T10:50:07Z</time>
      </trkpt>
      <trkpt lat="48.36938" lon="-0.76515">
        <ele>156.71</ele>
        <time>2020-06-27T10:50:13Z</time>
      </trkpt>
      <trkpt lat="48.36943" lon="-0.76512">
        <ele>155.71</ele>
        <time>2020-06-27T10:50:18Z</time>
      </trkpt>
      <trkpt lat="48.3695" lon="-0.76511">
        <ele>155.71</ele>
        <time>2020-06-27T10:50:24Z</time>
      </trkpt>
      <trkpt lat="48.36955" lon="-0.76508">
        <ele>154.71</ele>
        <time>2020-06-27T10:50:29Z</time>
      </trkpt>
      <trkpt lat="48.36958" lon="-0.76506">
        <ele>154.71</ele>
        <time>2020-06-27T10:50:35Z</time>
      </trkpt>
      <trkpt lat="48.36958" lon="-0.76507">
        <ele>155.71</ele>
        <time>2020-06-27T10:50:40Z</time>
      </trkpt>
      <trkpt lat="48.36958" lon="-0.76507">
        <ele>155.71</ele>
        <time>2020-06-27T10:50:46Z</time>
      </trkpt>
      <trkpt lat="48.36958" lon="-0.76507">
        <ele>155.71</ele>
        <time>2020-06-27T10:50:51Z</time>
      </trkpt>
      <trkpt lat="48.36961" lon="-0.76506">
        <ele>155.71</ele>
        <time>2020-06-27T10:50:57Z</time>
      </trkpt>
      <trkpt lat="48.36966" lon="-0.76502">
        <ele>155.71</ele>
        <time>2020-06-27T10:51:03Z</time>
      </trkpt>
      <trkpt lat="48.36972" lon="-0.76499">
        <ele>155.71</ele>
        <time>2020-06-27T10:51:08Z</time>
      </trkpt>
      <trkpt lat="48.36978" lon="-0.76496">
        <ele>155.71</ele>
        <time>2020-06-27T10:51:14Z</time>
      </trkpt>
      <trkpt lat="48.36985" lon="-0.76492">
        <ele>155.71</ele>
        <time>2020-06-27T10:51:20Z</time>
      </trkpt>
      <trkpt lat="48.3699" lon="-0.76489">
        <ele>155.71</ele>
        <time>2020-06-27T10:51:25Z</time>
      </trkpt>
      <trkpt lat="48.36997" lon="-0.76487">
        <ele>154.71</ele>
        <time>2020-06-27T10:51:31Z</time>
      </trkpt>
      <trkpt lat="48.37003" lon="-0.76484">
        <ele>154.71</ele>
        <time>2020-06-27T10:51:37Z</time>
      </trkpt>
      <trkpt lat="48.3701" lon="-0.76481">
        <ele>154.71</ele>
        <time>2020-06-27T10:51:43Z</time>
      </trkpt>
      <trkpt lat="48.37015" lon="-0.76478">
        <ele>154.71</ele>
        <time>2020-06-27T10:51:48Z</time>
      </trkpt>
      <trkpt lat="48.37022" lon="-0.76476">
        <ele>154.71</ele>
        <time>2020-06-27T10:51:54Z</time>
      </trkpt>
      <trkpt lat="48.37028" lon="-0.76472">
        <ele>154.71</ele>
        <time>2020-06-27T10:52:00Z</time>
      </trkpt>
      <trkpt lat="48.37034" lon="-0.76469">
        <ele>154.71</ele>
        <time>2020-06-27T10:52:06Z</time>
      </trkpt>
      <trkpt lat="48.37039" lon="-0.76467">
        <ele>153.71</ele>
        <time>2020-06-27T10:52:11Z</time>
      </trkpt>
      <trkpt lat="48.37044" lon="-0.76464">
        <ele>153.71</ele>
        <time>2020-06-27T10:52:16Z</time>
      </trkpt>
      <trkpt lat="48.37051" lon="-0.76461">
        <ele>153.71</ele>
        <time>2020-06-27T10:52:22Z</time>
      </trkpt>
      <trkpt lat="48.37056" lon="-0.76459">
        <ele>153.71</ele>
        <time>2020-06-27T10:52:27Z</time>
      </trkpt>
      <trkpt lat="48.37061" lon="-0.7646">
        <ele>152.71</ele>
        <time>2020-06-27T10:52:32Z</time>
      </trkpt>
      <trkpt lat="48.37067" lon="-0.76463">
        <ele>153.71</ele>
        <time>2020-06-27T10:52:38Z</time>
      </trkpt>
      <trkpt lat="48.37072" lon="-0.7647">
        <ele>153.71</ele>
        <time>2020-06-27T10:52:44Z</time>
      </trkpt>
      <trkpt lat="48.37076" lon="-0.76477">
        <ele>153.71</ele>
        <time>2020-06-27T10:52:49Z</time>
      </trkpt>
      <trkpt lat="48.3708" lon="-0.76485">
        <ele>153.71</ele>
        <time>2020-06-27T10:52:55Z</time>
      </trkpt>
      <trkpt lat="48.37084" lon="-0.76492">
        <ele>153.71</ele>
        <time>2020-06-27T10:53:00Z</time>
      </trkpt>
      <trkpt lat="48.37088" lon="-0.76499">
        <ele>153.71</ele>
        <time>2020-06-27T10:53:06Z</time>
      </trkpt>
      <trkpt lat="48.37091" lon="-0.76506">
        <ele>153.71</ele>
        <time>2020-06-27T10:53:11Z</time>
      </trkpt>
      <trkpt lat="48.37095" lon="-0.76512">
        <ele>153.71</ele>
        <time>2020-06-27T10:53:16Z</time>
      </trkpt>
      <trkpt lat="48.371" lon="-0.76519">
        <ele>152.71</ele>
        <time>2020-06-27T10:53:22Z</time>
      </trkpt>
      <trkpt lat="48.37104" lon="-0.76524">
        <ele>152.71</ele>
        <time>2020-06-27T10:53:27Z</time>
      </trkpt>
      <trkpt lat="48.37109" lon="-0.76531">
        <ele>152.71</ele>
        <time>2020-06-27T10:53:33Z</time>
      </trkpt>
      <trkpt lat="48.37113" lon="-0.76537">
        <ele>151.71</ele>
        <time>2020-06-27T10:53:38Z</time>
      </trkpt>
      <trkpt lat="48.37117" lon="-0.76543">
        <ele>151.71</ele>
        <time>2020-06-27T10:53:44Z</time>
      </trkpt>
      <trkpt lat="48.37121" lon="-0.76549">
        <ele>150.71</ele>
        <time>2020-06-27T10:53:49Z</time>
      </trkpt>
      <trkpt lat="48.37124" lon="-0.76554">
        <ele>150.71</ele>
        <time>2020-06-27T10:53:54Z</time>
      </trkpt>
      <trkpt lat="48.3713" lon="-0.76561">
        <ele>150.71</ele>
        <time>2020-06-27T10:54:00Z</time>
      </trkpt>
      <trkpt lat="48.37134" lon="-0.76566">
        <ele>149.71</ele>
        <time>2020-06-27T10:54:05Z</time>
      </trkpt>
      <trkpt lat="48.37139" lon="-0.76572">
        <ele>148.71</ele>
        <time>2020-06-27T10:54:11Z</time>
      </trkpt>
      <trkpt lat="48.37146" lon="-0.76578">
        <ele>149.71</ele>
        <time>2020-06-27T10:54:17Z</time>
      </trkpt>
      <trkpt lat="48.37151" lon="-0.76583">
        <ele>148.71</ele>
        <time>2020-06-27T10:54:22Z</time>
      </trkpt>
      <trkpt lat="48.37157" lon="-0.76587">
        <ele>148.71</ele>
        <time>2020-06-27T10:54:28Z</time>
      </trkpt>
      <trkpt lat="48.37162" lon="-0.76592">
        <ele>147.71</ele>
        <time>2020-06-27T10:54:33Z</time>
      </trkpt>
      <trkpt lat="48.37167" lon="-0.76596">
        <ele>148.71</ele>
        <time>2020-06-27T10:54:38Z</time>
      </trkpt>
      <trkpt lat="48.37172" lon="-0.76602">
        <ele>147.71</ele>
        <time>2020-06-27T10:54:44Z</time>
      </trkpt>
      <trkpt lat="48.37176" lon="-0.76606">
        <ele>147.71</ele>
        <time>2020-06-27T10:54:49Z</time>
      </trkpt>
      <trkpt lat="48.37181" lon="-0.76613">
        <ele>146.71</ele>
        <time>2020-06-27T10:54:55Z</time>
      </trkpt>
      <trkpt lat="48.37186" lon="-0.76619">
        <ele>146.71</ele>
        <time>2020-06-27T10:55:01Z</time>
      </trkpt>
      <trkpt lat="48.37191" lon="-0.76625">
        <ele>146.71</ele>
        <time>2020-06-27T10:55:06Z</time>
      </trkpt>
      <trkpt lat="48.37195" lon="-0.76633">
        <ele>145.71</ele>
        <time>2020-06-27T10:55:12Z</time>
      </trkpt>
      <trkpt lat="48.37199" lon="-0.76639">
        <ele>145.71</ele>
        <time>2020-06-27T10:55:17Z</time>
      </trkpt>
      <trkpt lat="48.37204" lon="-0.76646">
        <ele>144.71</ele>
        <time>2020-06-27T10:55:23Z</time>
      </trkpt>
      <trkpt lat="48.37208" lon="-0.76655">
        <ele>143.71</ele>
        <time>2020-06-27T10:55:29Z</time>
      </trkpt>
      <trkpt lat="48.3721" lon="-0.76661">
        <ele>142.71</ele>
        <time>2020-06-27T10:55:34Z</time>
      </trkpt>
      <trkpt lat="48.37213" lon="-0.76669">
        <ele>142.71</ele>
        <time>2020-06-27T10:55:40Z</time>
      </trkpt>
      <trkpt lat="48.37215" lon="-0.76679">
        <ele>141.71</ele>
        <time>2020-06-27T10:55:46Z</time>
      </trkpt>
      <trkpt lat="48.37216" lon="-0.76687">
        <ele>142.71</ele>
        <time>2020-06-27T10:55:51Z</time>
      </trkpt>
      <trkpt lat="48.37218" lon="-0.76697">
        <ele>142.71</ele>
        <time>2020-06-27T10:55:57Z</time>
      </trkpt>
      <trkpt lat="48.37218" lon="-0.76705">
        <ele>141.71</ele>
        <time>2020-06-27T10:56:03Z</time>
      </trkpt>
      <trkpt lat="48.37219" lon="-0.76713">
        <ele>142.71</ele>
        <time>2020-06-27T10:56:08Z</time>
      </trkpt>
      <trkpt lat="48.37217" lon="-0.76722">
        <ele>143.71</ele>
        <time>2020-06-27T10:56:14Z</time>
      </trkpt>
      <trkpt lat="48.37217" lon="-0.76729">
        <ele>144.71</ele>
        <time>2020-06-27T10:56:19Z</time>
      </trkpt>
      <trkpt lat="48.37216" lon="-0.76738">
        <ele>146.71</ele>
        <time>2020-06-27T10:56:25Z</time>
      </trkpt>
      <trkpt lat="48.37214" lon="-0.76747">
        <ele>146.71</ele>
        <time>2020-06-27T10:56:31Z</time>
      </trkpt>
      <trkpt lat="48.37214" lon="-0.76754">
        <ele>145.71</ele>
        <time>2020-06-27T10:56:36Z</time>
      </trkpt>
      <trkpt lat="48.37215" lon="-0.76761">
        <ele>145.71</ele>
        <time>2020-06-27T10:56:42Z</time>
      </trkpt>
      <trkpt lat="48.37218" lon="-0.76766">
        <ele>145.71</ele>
        <time>2020-06-27T10:56:47Z</time>
      </trkpt>
      <trkpt lat="48.37223" lon="-0.76771">
        <ele>146.71</ele>
        <time>2020-06-27T10:56:53Z</time>
      </trkpt>
      <trkpt lat="48.37228" lon="-0.76772">
        <ele>147.71</ele>
        <time>2020-06-27T10:56:58Z</time>
      </trkpt>
      <trkpt lat="48.37234" lon="-0.76773">
        <ele>147.71</ele>
        <time>2020-06-27T10:57:04Z</time>
      </trkpt>
      <trkpt lat="48.37239" lon="-0.76773">
        <ele>147.71</ele>
        <time>2020-06-27T10:57:09Z</time>
      </trkpt>
      <trkpt lat="48.37244" lon="-0.76772">
        <ele>147.71</ele>
        <time>2020-06-27T10:57:14Z</time>
      </trkpt>
      <trkpt lat="48.37251" lon="-0.76772">
        <ele>147.71</ele>
        <time>2020-06-27T10:57:20Z</time>
      </trkpt>
      <trkpt lat="48.37257" lon="-0.76772">
        <ele>148.71</ele>
        <time>2020-06-27T10:57:26Z</time>
      </trkpt>
      <trkpt lat="48.37263" lon="-0.76771">
        <ele>148.71</ele>
        <time>2020-06-27T10:57:31Z</time>
      </trkpt>
      <trkpt lat="48.37268" lon="-0.7677">
        <ele>148.71</ele>
        <time>2020-06-27T10:57:36Z</time>
      </trkpt>
      <trkpt lat="48.37276" lon="-0.7677">
        <ele>148.71</ele>
        <time>2020-06-27T10:57:42Z</time>
      </trkpt>
      <trkpt lat="48.37283" lon="-0.76769">
        <ele>148.71</ele>
        <time>2020-06-27T10:57:48Z</time>
      </trkpt>
      <trkpt lat="48.3729" lon="-0.76769">
        <ele>148.71</ele>
        <time>2020-06-27T10:57:54Z</time>
      </trkpt>
      <trkpt lat="48.37297" lon="-0.76768">
        <ele>148.71</ele>
        <time>2020-06-27T10:58:00Z</time>
      </trkpt>
      <trkpt lat="48.37303" lon="-0.76767">
        <ele>148.71</ele>
        <time>2020-06-27T10:58:05Z</time>
      </trkpt>
      <trkpt lat="48.37308" lon="-0.76768">
        <ele>147.71</ele>
        <time>2020-06-27T10:58:10Z</time>
      </trkpt>
      <trkpt lat="48.37314" lon="-0.76767">
        <ele>147.71</ele>
        <time>2020-06-27T10:58:16Z</time>
      </trkpt>
      <trkpt lat="48.37321" lon="-0.76766">
        <ele>146.71</ele>
        <time>2020-06-27T10:58:22Z</time>
      </trkpt>
      <trkpt lat="48.37328" lon="-0.76766">
        <ele>146.71</ele>
        <time>2020-06-27T10:58:28Z</time>
      </trkpt>
      <trkpt lat="48.37335" lon="-0.76765">
        <ele>146.71</ele>
        <time>2020-06-27T10:58:34Z</time>
      </trkpt>
      <trkpt lat="48.3734" lon="-0.76765">
        <ele>145.71</ele>
        <time>2020-06-27T10:58:39Z</time>
      </trkpt>
      <trkpt lat="48.37345" lon="-0.76765">
        <ele>145.71</ele>
        <time>2020-06-27T10:58:44Z</time>
      </trkpt>
      <trkpt lat="48.37347" lon="-0.76766">
        <ele>145.71</ele>
        <time>2020-06-27T10:58:50Z</time>
      </trkpt>
      <trkpt lat="48.37347" lon="-0.76764">
        <ele>145.71</ele>
        <time>2020-06-27T10:58:56Z</time>
      </trkpt>
      <trkpt lat="48.37352" lon="-0.76762">
        <ele>145.71</ele>
        <time>2020-06-27T10:59:01Z</time>
      </trkpt>
      <trkpt lat="48.37357" lon="-0.7676">
        <ele>144.71</ele>
        <time>2020-06-27T10:59:07Z</time>
      </trkpt>
      <trkpt lat="48.37363" lon="-0.76758">
        <ele>143.71</ele>
        <time>2020-06-27T10:59:13Z</time>
      </trkpt>
      <trkpt lat="48.37369" lon="-0.76756">
        <ele>143.71</ele>
        <time>2020-06-27T10:59:19Z</time>
      </trkpt>
      <trkpt lat="48.37374" lon="-0.76754">
        <ele>143.71</ele>
        <time>2020-06-27T10:59:25Z</time>
      </trkpt>
      <trkpt lat="48.3738" lon="-0.76751">
        <ele>141.71</ele>
        <time>2020-06-27T10:59:31Z</time>
      </trkpt>
      <trkpt lat="48.37387" lon="-0.76749">
        <ele>140.71</ele>
        <time>2020-06-27T10:59:37Z</time>
      </trkpt>
      <trkpt lat="48.37393" lon="-0.76747">
        <ele>141.71</ele>
        <time>2020-06-27T10:59:43Z</time>
      </trkpt>
      <trkpt lat="48.37399" lon="-0.76745">
        <ele>140.71</ele>
        <time>2020-06-27T10:59:49Z</time>
      </trkpt>
      <trkpt lat="48.37405" lon="-0.76741">
        <ele>140.71</ele>
        <time>2020-06-27T10:59:55Z</time>
      </trkpt>
      <trkpt lat="48.3741" lon="-0.7674">
        <ele>139.71</ele>
        <time>2020-06-27T11:00:00Z</time>
      </trkpt>
      <trkpt lat="48.37417" lon="-0.76738">
        <ele>139.71</ele>
        <time>2020-06-27T11:00:06Z</time>
      </trkpt>
      <trkpt lat="48.37422" lon="-0.76736">
        <ele>139.71</ele>
        <time>2020-06-27T11:00:11Z</time>
      </trkpt>
      <trkpt lat="48.37428" lon="-0.76735">
        <ele>138.71</ele>
        <time>2020-06-27T11:00:17Z</time>
      </trkpt>
      <trkpt lat="48.37433" lon="-0.76733">
        <ele>137.71</ele>
        <time>2020-06-27T11:00:22Z</time>
      </trkpt>
      <trkpt lat="48.37438" lon="-0.76731">
        <ele>137.71</ele>
        <time>2020-06-27T11:00:28Z</time>
      </trkpt>
      <trkpt lat="48.37443" lon="-0.76729">
        <ele>137.71</ele>
        <time>2020-06-27T11:00:33Z</time>
      </trkpt>
      <trkpt lat="48.37449" lon="-0.7673">
        <ele>136.71</ele>
        <time>2020-06-27T11:00:39Z</time>
      </trkpt>
      <trkpt lat="48.37454" lon="-0.76728">
        <ele>136.71</ele>
        <time>2020-06-27T11:00:44Z</time>
      </trkpt>
      <trkpt lat="48.37459" lon="-0.76727">
        <ele>136.71</ele>
        <time>2020-06-27T11:00:49Z</time>
      </trkpt>
      <trkpt lat="48.37464" lon="-0.76726">
        <ele>136.71</ele>
        <time>2020-06-27T11:00:55Z</time>
      </trkpt>
      <trkpt lat="48.37472" lon="-0.76726">
        <ele>135.71</ele>
        <time>2020-06-27T11:01:01Z</time>
      </trkpt>
      <trkpt lat="48.37477" lon="-0.76724">
        <ele>135.71</ele>
        <time>2020-06-27T11:01:06Z</time>
      </trkpt>
      <trkpt lat="48.37482" lon="-0.76725">
        <ele>132.71</ele>
        <time>2020-06-27T11:01:11Z</time>
      </trkpt>
      <trkpt lat="48.37487" lon="-0.76725">
        <ele>133.71</ele>
        <time>2020-06-27T11:01:16Z</time>
      </trkpt>
      <trkpt lat="48.37489" lon="-0.76725">
        <ele>135.71</ele>
        <time>2020-06-27T11:01:22Z</time>
      </trkpt>
      <trkpt lat="48.37491" lon="-0.76721">
        <ele>138.71</ele>
        <time>2020-06-27T11:01:28Z</time>
      </trkpt>
      <trkpt lat="48.37496" lon="-0.7672">
        <ele>136.71</ele>
        <time>2020-06-27T11:01:33Z</time>
      </trkpt>
      <trkpt lat="48.37499" lon="-0.76719">
        <ele>137.71</ele>
        <time>2020-06-27T11:01:39Z</time>
      </trkpt>
      <trkpt lat="48.3751" lon="-0.7672">
        <ele>129.71</ele>
        <time>2020-06-27T11:01:45Z</time>
      </trkpt>
      <trkpt lat="48.37518" lon="-0.76721">
        <ele>129.71</ele>
        <time>2020-06-27T11:01:50Z</time>
      </trkpt>
      <trkpt lat="48.37528" lon="-0.76723">
        <ele>131.71</ele>
        <time>2020-06-27T11:01:56Z</time>
      </trkpt>
      <trkpt lat="48.37536" lon="-0.76725">
        <ele>133.71</ele>
        <time>2020-06-27T11:02:02Z</time>
      </trkpt>
      <trkpt lat="48.37543" lon="-0.76728">
        <ele>134.71</ele>
        <time>2020-06-27T11:02:07Z</time>
      </trkpt>
      <trkpt lat="48.37549" lon="-0.76732">
        <ele>134.71</ele>
        <time>2020-06-27T11:02:13Z</time>
      </trkpt>
      <trkpt lat="48.37553" lon="-0.76736">
        <ele>134.71</ele>
        <time>2020-06-27T11:02:18Z</time>
      </trkpt>
      <trkpt lat="48.3756" lon="-0.76741">
        <ele>135.71</ele>
        <time>2020-06-27T11:02:24Z</time>
      </trkpt>
      <trkpt lat="48.37564" lon="-0.76746">
        <ele>136.71</ele>
        <time>2020-06-27T11:02:29Z</time>
      </trkpt>
      <trkpt lat="48.3757" lon="-0.76752">
        <ele>138.71</ele>
        <time>2020-06-27T11:02:34Z</time>
      </trkpt>
      <trkpt lat="48.37576" lon="-0.76756">
        <ele>139.71</ele>
        <time>2020-06-27T11:02:40Z</time>
      </trkpt>
      <trkpt lat="48.3758" lon="-0.76762">
        <ele>139.71</ele>
        <time>2020-06-27T11:02:46Z</time>
      </trkpt>
      <trkpt lat="48.37586" lon="-0.76767">
        <ele>139.71</ele>
        <time>2020-06-27T11:02:51Z</time>
      </trkpt>
      <trkpt lat="48.37591" lon="-0.76772">
        <ele>139.71</ele>
        <time>2020-06-27T11:02:57Z</time>
      </trkpt>
      <trkpt lat="48.37596" lon="-0.76777">
        <ele>139.71</ele>
        <time>2020-06-27T11:03:02Z</time>
      </trkpt>
      <trkpt lat="48.37602" lon="-0.76783">
        <ele>139.71</ele>
        <time>2020-06-27T11:03:08Z</time>
      </trkpt>
      <trkpt lat="48.37607" lon="-0.76789">
        <ele>140.71</ele>
        <time>2020-06-27T11:03:14Z</time>
      </trkpt>
      <trkpt lat="48.37611" lon="-0.76795">
        <ele>141.71</ele>
        <time>2020-06-27T11:03:20Z</time>
      </trkpt>
      <trkpt lat="48.37616" lon="-0.76801">
        <ele>141.71</ele>
        <time>2020-06-27T11:03:26Z</time>
      </trkpt>
      <trkpt lat="48.37622" lon="-0.76806">
        <ele>142.71</ele>
        <time>2020-06-27T11:03:32Z</time>
      </trkpt>
      <trkpt lat="48.37627" lon="-0.76812">
        <ele>142.71</ele>
        <time>2020-06-27T11:03:38Z</time>
      </trkpt>
      <trkpt lat="48.37631" lon="-0.76818">
        <ele>142.71</ele>
        <time>2020-06-27T11:03:44Z</time>
      </trkpt>
      <trkpt lat="48.37637" lon="-0.76825">
        <ele>142.71</ele>
        <time>2020-06-27T11:03:50Z</time>
      </trkpt>
      <trkpt lat="48.37642" lon="-0.76833">
        <ele>142.71</ele>
        <time>2020-06-27T11:03:56Z</time>
      </trkpt>
      <trkpt lat="48.37646" lon="-0.76838">
        <ele>142.71</ele>
        <time>2020-06-27T11:04:01Z</time>
      </trkpt>
      <trkpt lat="48.37651" lon="-0.76845">
        <ele>143.71</ele>
        <time>2020-06-27T11:04:07Z</time>
      </trkpt>
      <trkpt lat="48.37655" lon="-0.76853">
        <ele>141.71</ele>
        <time>2020-06-27T11:04:13Z</time>
      </trkpt>
      <trkpt lat="48.37657" lon="-0.76861">
        <ele>139.71</ele>
        <time>2020-06-27T11:04:19Z</time>
      </trkpt>
      <trkpt lat="48.37658" lon="-0.76868">
        <ele>138.71</ele>
        <time>2020-06-27T11:04:24Z</time>
      </trkpt>
      <trkpt lat="48.37659" lon="-0.76875">
        <ele>137.71</ele>
        <time>2020-06-27T11:04:29Z</time>
      </trkpt>
      <trkpt lat="48.3766" lon="-0.76885">
        <ele>138.71</ele>
        <time>2020-06-27T11:04:34Z</time>
      </trkpt>
      <trkpt lat="48.37661" lon="-0.76897">
        <ele>138.71</ele>
        <time>2020-06-27T11:04:40Z</time>
      </trkpt>
      <trkpt lat="48.37662" lon="-0.76906">
        <ele>137.71</ele>
        <time>2020-06-27T11:04:46Z</time>
      </trkpt>
      <trkpt lat="48.37663" lon="-0.76915">
        <ele>136.71</ele>
        <time>2020-06-27T11:04:51Z</time>
      </trkpt>
      <trkpt lat="48.37662" lon="-0.76926">
        <ele>139.71</ele>
        <time>2020-06-27T11:04:57Z</time>
      </trkpt>
      <trkpt lat="48.37662" lon="-0.76935">
        <ele>141.71</ele>
        <time>2020-06-27T11:05:02Z</time>
      </trkpt>
      <trkpt lat="48.37663" lon="-0.76946">
        <ele>142.71</ele>
        <time>2020-06-27T11:05:08Z</time>
      </trkpt>
      <trkpt lat="48.37666" lon="-0.76954">
        <ele>143.71</ele>
        <time>2020-06-27T11:05:14Z</time>
      </trkpt>
      <trkpt lat="48.37672" lon="-0.76962">
        <ele>145.71</ele>
        <time>2020-06-27T11:05:20Z</time>
      </trkpt>
      <trkpt lat="48.37677" lon="-0.76968">
        <ele>147.71</ele>
        <time>2020-06-27T11:05:26Z</time>
      </trkpt>
      <trkpt lat="48.37681" lon="-0.76972">
        <ele>146.71</ele>
        <time>2020-06-27T11:05:31Z</time>
      </trkpt>
      <trkpt lat="48.37687" lon="-0.76978">
        <ele>146.71</ele>
        <time>2020-06-27T11:05:37Z</time>
      </trkpt>
      <trkpt lat="48.37693" lon="-0.76982">
        <ele>149.71</ele>
        <time>2020-06-27T11:05:43Z</time>
      </trkpt>
      <trkpt lat="48.377" lon="-0.76987">
        <ele>149.71</ele>
        <time>2020-06-27T11:05:49Z</time>
      </trkpt>
      <trkpt lat="48.37707" lon="-0.76992">
        <ele>150.71</ele>
        <time>2020-06-27T11:05:55Z</time>
      </trkpt>
      <trkpt lat="48.37712" lon="-0.76995">
        <ele>152.71</ele>
        <time>2020-06-27T11:06:00Z</time>
      </trkpt>
      <trkpt lat="48.37718" lon="-0.77">
        <ele>153.71</ele>
        <time>2020-06-27T11:06:06Z</time>
      </trkpt>
      <trkpt lat="48.37722" lon="-0.77004">
        <ele>154.71</ele>
        <time>2020-06-27T11:06:12Z</time>
      </trkpt>
      <trkpt lat="48.37728" lon="-0.77009">
        <ele>154.71</ele>
        <time>2020-06-27T11:06:18Z</time>
      </trkpt>
      <trkpt lat="48.37734" lon="-0.77014">
        <ele>154.71</ele>
        <time>2020-06-27T11:06:24Z</time>
      </trkpt>
      <trkpt lat="48.37738" lon="-0.77019">
        <ele>155.71</ele>
        <time>2020-06-27T11:06:29Z</time>
      </trkpt>
      <trkpt lat="48.37743" lon="-0.77022">
        <ele>155.71</ele>
        <time>2020-06-27T11:06:34Z</time>
      </trkpt>
      <trkpt lat="48.37749" lon="-0.77027">
        <ele>156.71</ele>
        <time>2020-06-27T11:06:40Z</time>
      </trkpt>
      <trkpt lat="48.37753" lon="-0.77031">
        <ele>157.71</ele>
        <time>2020-06-27T11:06:45Z</time>
      </trkpt>
      <trkpt lat="48.37758" lon="-0.77035">
        <ele>157.71</ele>
        <time>2020-06-27T11:06:51Z</time>
      </trkpt>
      <trkpt lat="48.37764" lon="-0.77038">
        <ele>157.71</ele>
        <time>2020-06-27T11:06:57Z</time>
      </trkpt>
      <trkpt lat="48.37768" lon="-0.77042">
        <ele>157.71</ele>
        <time>2020-06-27T11:07:02Z</time>
      </trkpt>
      <trkpt lat="48.37773" lon="-0.77045">
        <ele>158.71</ele>
        <time>2020-06-27T11:07:08Z</time>
      </trkpt>
      <trkpt lat="48.37779" lon="-0.77049">
        <ele>158.71</ele>
        <time>2020-06-27T11:07:14Z</time>
      </trkpt>
      <trkpt lat="48.37784" lon="-0.77053">
        <ele>160.71</ele>
        <time>2020-06-27T11:07:19Z</time>
      </trkpt>
      <trkpt lat="48.3779" lon="-0.77056">
        <ele>160.71</ele>
        <time>2020-06-27T11:07:24Z</time>
      </trkpt>
      <trkpt lat="48.37796" lon="-0.77063">
        <ele>163.71</ele>
        <time>2020-06-27T11:07:30Z</time>
      </trkpt>
      <trkpt lat="48.378" lon="-0.77067">
        <ele>162.71</ele>
        <time>2020-06-27T11:07:35Z</time>
      </trkpt>
      <trkpt lat="48.37806" lon="-0.77073">
        <ele>163.71</ele>
        <time>2020-06-27T11:07:41Z</time>
      </trkpt>
      <trkpt lat="48.37811" lon="-0.77079">
        <ele>163.71</ele>
        <time>2020-06-27T11:07:47Z</time>
      </trkpt>
      <trkpt lat="48.37817" lon="-0.77085">
        <ele>164.71</ele>
        <time>2020-06-27T11:07:53Z</time>
      </trkpt>
      <trkpt lat="48.37821" lon="-0.77091">
        <ele>164.71</ele>
        <time>2020-06-27T11:07:58Z</time>
      </trkpt>
      <trkpt lat="48.37827" lon="-0.77098">
        <ele>164.71</ele>
        <time>2020-06-27T11:08:04Z</time>
      </trkpt>
      <trkpt lat="48.37831" lon="-0.77103">
        <ele>164.71</ele>
        <time>2020-06-27T11:08:09Z</time>
      </trkpt>
      <trkpt lat="48.37837" lon="-0.7711">
        <ele>165.71</ele>
        <time>2020-06-27T11:08:15Z</time>
      </trkpt>
      <trkpt lat="48.37841" lon="-0.77115">
        <ele>165.71</ele>
        <time>2020-06-27T11:08:21Z</time>
      </trkpt>
      <trkpt lat="48.37846" lon="-0.7712">
        <ele>165.71</ele>
        <time>2020-06-27T11:08:26Z</time>
      </trkpt>
      <trkpt lat="48.37851" lon="-0.77127">
        <ele>165.71</ele>
        <time>2020-06-27T11:08:32Z</time>
      </trkpt>
      <trkpt lat="48.37854" lon="-0.77133">
        <ele>165.71</ele>
        <time>2020-06-27T11:08:37Z</time>
      </trkpt>
      <trkpt lat="48.3786" lon="-0.7714">
        <ele>166.71</ele>
        <time>2020-06-27T11:08:43Z</time>
      </trkpt>
      <trkpt lat="48.37864" lon="-0.77146">
        <ele>167.71</ele>
        <time>2020-06-27T11:08:48Z</time>
      </trkpt>
      <trkpt lat="48.37869" lon="-0.77153">
        <ele>166.71</ele>
        <time>2020-06-27T11:08:54Z</time>
      </trkpt>
      <trkpt lat="48.37872" lon="-0.77159">
        <ele>167.71</ele>
        <time>2020-06-27T11:08:59Z</time>
      </trkpt>
      <trkpt lat="48.37877" lon="-0.77167">
        <ele>167.71</ele>
        <time>2020-06-27T11:09:05Z</time>
      </trkpt>
      <trkpt lat="48.37881" lon="-0.77173">
        <ele>167.71</ele>
        <time>2020-06-27T11:09:11Z</time>
      </trkpt>
      <trkpt lat="48.37886" lon="-0.77178">
        <ele>167.71</ele>
        <time>2020-06-27T11:09:17Z</time>
      </trkpt>
      <trkpt lat="48.37891" lon="-0.77177">
        <ele>167.71</ele>
        <time>2020-06-27T11:09:23Z</time>
      </trkpt>
      <trkpt lat="48.37895" lon="-0.77171">
        <ele>166.71</ele>
        <time>2020-06-27T11:09:29Z</time>
      </trkpt>
      <trkpt lat="48.379" lon="-0.77165">
        <ele>166.71</ele>
        <time>2020-06-27T11:09:35Z</time>
      </trkpt>
      <trkpt lat="48.37904" lon="-0.77157">
        <ele>165.71</ele>
        <time>2020-06-27T11:09:41Z</time>
      </trkpt>
      <trkpt lat="48.37907" lon="-0.77151">
        <ele>165.71</ele>
        <time>2020-06-27T11:09:46Z</time>
      </trkpt>
      <trkpt lat="48.3791" lon="-0.77144">
        <ele>164.71</ele>
        <time>2020-06-27T11:09:52Z</time>
      </trkpt>
      <trkpt lat="48.37914" lon="-0.77139">
        <ele>164.71</ele>
        <time>2020-06-27T11:09:57Z</time>
      </trkpt>
      <trkpt lat="48.37917" lon="-0.77132">
        <ele>163.71</ele>
        <time>2020-06-27T11:10:02Z</time>
      </trkpt>
      <trkpt lat="48.37921" lon="-0.77125">
        <ele>163.71</ele>
        <time>2020-06-27T11:10:08Z</time>
      </trkpt>
      <trkpt lat="48.37925" lon="-0.7712">
        <ele>162.71</ele>
        <time>2020-06-27T11:10:13Z</time>
      </trkpt>
      <trkpt lat="48.37929" lon="-0.77113">
        <ele>161.71</ele>
        <time>2020-06-27T11:10:19Z</time>
      </trkpt>
      <trkpt lat="48.37933" lon="-0.77107">
        <ele>161.71</ele>
        <time>2020-06-27T11:10:24Z</time>
      </trkpt>
      <trkpt lat="48.37937" lon="-0.77101">
        <ele>160.71</ele>
        <time>2020-06-27T11:10:30Z</time>
      </trkpt>
      <trkpt lat="48.37942" lon="-0.77094">
        <ele>159.71</ele>
        <time>2020-06-27T11:10:36Z</time>
      </trkpt>
      <trkpt lat="48.37945" lon="-0.77089">
        <ele>159.71</ele>
        <time>2020-06-27T11:10:42Z</time>
      </trkpt>
      <trkpt lat="48.37947" lon="-0.77082">
        <ele>157.71</ele>
        <time>2020-06-27T11:10:47Z</time>
      </trkpt>
      <trkpt lat="48.37947" lon="-0.77077">
        <ele>156.71</ele>
        <time>2020-06-27T11:10:52Z</time>
      </trkpt>
      <trkpt lat="48.37945" lon="-0.77071">
        <ele>159.71</ele>
        <time>2020-06-27T11:10:58Z</time>
      </trkpt>
      <trkpt lat="48.37941" lon="-0.77062">
        <ele>157.71</ele>
        <time>2020-06-27T11:11:04Z</time>
      </trkpt>
      <trkpt lat="48.37938" lon="-0.77054">
        <ele>156.71</ele>
        <time>2020-06-27T11:11:10Z</time>
      </trkpt>
      <trkpt lat="48.37936" lon="-0.77048">
        <ele>155.71</ele>
        <time>2020-06-27T11:11:15Z</time>
      </trkpt>
      <trkpt lat="48.37934" lon="-0.77039">
        <ele>154.71</ele>
        <time>2020-06-27T11:11:21Z</time>
      </trkpt>
      <trkpt lat="48.37932" lon="-0.77034">
        <ele>153.71</ele>
        <time>2020-06-27T11:11:26Z</time>
      </trkpt>
      <trkpt lat="48.3793" lon="-0.77029">
        <ele>152.71</ele>
        <time>2020-06-27T11:11:32Z</time>
      </trkpt>
      <trkpt lat="48.37929" lon="-0.77019">
        <ele>151.71</ele>
        <time>2020-06-27T11:11:37Z</time>
      </trkpt>
      <trkpt lat="48.37929" lon="-0.77015">
        <ele>149.71</ele>
        <time>2020-06-27T11:11:42Z</time>
      </trkpt>
      <trkpt lat="48.37928" lon="-0.77008">
        <ele>148.71</ele>
        <time>2020-06-27T11:11:47Z</time>
      </trkpt>
      <trkpt lat="48.37927" lon="-0.77004">
        <ele>150.71</ele>
        <time>2020-06-27T11:11:52Z</time>
      </trkpt>
      <trkpt lat="48.37924" lon="-0.76989">
        <ele>151.71</ele>
        <time>2020-06-27T11:11:58Z</time>
      </trkpt>
      <trkpt lat="48.37921" lon="-0.76975">
        <ele>150.71</ele>
        <time>2020-06-27T11:12:04Z</time>
      </trkpt>
      <trkpt lat="48.37921" lon="-0.76963">
        <ele>149.71</ele>
        <time>2020-06-27T11:12:10Z</time>
      </trkpt>
      <trkpt lat="48.37919" lon="-0.76952">
        <ele>148.71</ele>
        <time>2020-06-27T11:12:16Z</time>
      </trkpt>
      <trkpt lat="48.37917" lon="-0.76941">
        <ele>150.71</ele>
        <time>2020-06-27T11:12:21Z</time>
      </trkpt>
      <trkpt lat="48.37919" lon="-0.76934">
        <ele>152.71</ele>
        <time>2020-06-27T11:12:27Z</time>
      </trkpt>
      <trkpt lat="48.37922" lon="-0.76928">
        <ele>150.71</ele>
        <time>2020-06-27T11:12:32Z</time>
      </trkpt>
      <trkpt lat="48.37924" lon="-0.76921">
        <ele>148.71</ele>
        <time>2020-06-27T11:12:38Z</time>
      </trkpt>
      <trkpt lat="48.37926" lon="-0.76916">
        <ele>148.71</ele>
        <time>2020-06-27T11:12:43Z</time>
      </trkpt>
      <trkpt lat="48.37929" lon="-0.76907">
        <ele>148.71</ele>
        <time>2020-06-27T11:12:49Z</time>
      </trkpt>
      <trkpt lat="48.3793" lon="-0.76901">
        <ele>145.71</ele>
        <time>2020-06-27T11:12:54Z</time>
      </trkpt>
      <trkpt lat="48.37929" lon="-0.76892">
        <ele>144.71</ele>
        <time>2020-06-27T11:13:00Z</time>
      </trkpt>
      <trkpt lat="48.37928" lon="-0.76889">
        <ele>144.71</ele>
        <time>2020-06-27T11:13:05Z</time>
      </trkpt>
      <trkpt lat="48.37928" lon="-0.76882">
        <ele>145.71</ele>
        <time>2020-06-27T11:13:11Z</time>
      </trkpt>
      <trkpt lat="48.37929" lon="-0.76881">
        <ele>145.71</ele>
        <time>2020-06-27T11:13:16Z</time>
      </trkpt>
      <trkpt lat="48.37934" lon="-0.76882">
        <ele>142.71</ele>
        <time>2020-06-27T11:13:22Z</time>
      </trkpt>
      <trkpt lat="48.37938" lon="-0.76887">
        <ele>143.71</ele>
        <time>2020-06-27T11:13:28Z</time>
      </trkpt>
      <trkpt lat="48.37941" lon="-0.76892">
        <ele>142.71</ele>
        <time>2020-06-27T11:13:33Z</time>
      </trkpt>
      <trkpt lat="48.37944" lon="-0.76898">
        <ele>139.71</ele>
        <time>2020-06-27T11:13:39Z</time>
      </trkpt>
      <trkpt lat="48.37945" lon="-0.76905">
        <ele>137.71</ele>
        <time>2020-06-27T11:13:45Z</time>
      </trkpt>
      <trkpt lat="48.37946" lon="-0.76912">
        <ele>131.71</ele>
        <time>2020-06-27T11:13:50Z</time>
      </trkpt>
      <trkpt lat="48.37951" lon="-0.76922">
        <ele>132.71</ele>
        <time>2020-06-27T11:13:56Z</time>
      </trkpt>
      <trkpt lat="48.37951" lon="-0.76926">
        <ele>128.71</ele>
        <time>2020-06-27T11:14:02Z</time>
      </trkpt>
      <trkpt lat="48.37953" lon="-0.76934">
        <ele>128.71</ele>
        <time>2020-06-27T11:14:07Z</time>
      </trkpt>
      <trkpt lat="48.37954" lon="-0.7694">
        <ele>129.71</ele>
        <time>2020-06-27T11:14:13Z</time>
      </trkpt>
      <trkpt lat="48.37954" lon="-0.76944">
        <ele>129.71</ele>
        <time>2020-06-27T11:14:18Z</time>
      </trkpt>
      <trkpt lat="48.37955" lon="-0.76946">
        <ele>131.71</ele>
        <time>2020-06-27T11:14:24Z</time>
      </trkpt>
      <trkpt lat="48.37955" lon="-0.76946">
        <ele>130.71</ele>
        <time>2020-06-27T11:14:29Z</time>
      </trkpt>
      <trkpt lat="48.37955" lon="-0.76946">
        <ele>130.71</ele>
        <time>2020-06-27T11:14:34Z</time>
      </trkpt>
      <trkpt lat="48.37955" lon="-0.76946">
        <ele>137.71</ele>
        <time>2020-06-27T11:14:40Z</time>
      </trkpt>
      <trkpt lat="48.37955" lon="-0.76946">
        <ele>132.71</ele>
        <time>2020-06-27T11:14:46Z</time>
      </trkpt>
      <trkpt lat="48.37955" lon="-0.76946">
        <ele>131.71</ele>
        <time>2020-06-27T11:14:51Z</time>
      </trkpt>
      <trkpt lat="48.37955" lon="-0.76946">
        <ele>131.71</ele>
        <time>2020-06-27T11:14:57Z</time>
      </trkpt>
      <trkpt lat="48.37955" lon="-0.76946">
        <ele>131.71</ele>
        <time>2020-06-27T11:15:02Z</time>
      </trkpt>
      <trkpt lat="48.37955" lon="-0.76946">
        <ele>131.71</ele>
        <time>2020-06-27T11:15:08Z</time>
      </trkpt>
      <trkpt lat="48.37955" lon="-0.76946">
        <ele>131.71</ele>
        <time>2020-06-27T11:15:13Z</time>
      </trkpt>
      <trkpt lat="48.37955" lon="-0.76946">
        <ele>131.71</ele>
        <time>2020-06-27T11:15:18Z</time>
      </trkpt>
      <trkpt lat="48.37955" lon="-0.76946">
        <ele>131.71</ele>
        <time>2020-06-27T11:15:24Z</time>
      </trkpt>
      <trkpt lat="48.37955" lon="-0.76946">
        <ele>131.71</ele>
        <time>2020-06-27T11:15:29Z</time>
      </trkpt>
      <trkpt lat="48.37956" lon="-0.76947">
        <ele>131.71</ele>
        <time>2020-06-27T11:15:35Z</time>
      </trkpt>
      <trkpt lat="48.37956" lon="-0.76947">
        <ele>131.71</ele>
        <time>2020-06-27T11:15:41Z</time>
      </trkpt>
      <trkpt lat="48.37956" lon="-0.76947">
        <ele>131.71</ele>
        <time>2020-06-27T11:15:47Z</time>
      </trkpt>
      <trkpt lat="48.37956" lon="-0.76947">
        <ele>132.71</ele>
        <time>2020-06-27T11:15:53Z</time>
      </trkpt>
      <trkpt lat="48.37956" lon="-0.76947">
        <ele>132.71</ele>
        <time>2020-06-27T11:15:58Z</time>
      </trkpt>
      <trkpt lat="48.37957" lon="-0.76948">
        <ele>132.71</ele>
        <time>2020-06-27T11:16:03Z</time>
      </trkpt>
      <trkpt lat="48.3796" lon="-0.76947">
        <ele>132.71</ele>
        <time>2020-06-27T11:16:09Z</time>
      </trkpt>
      <trkpt lat="48.3796" lon="-0.76948">
        <ele>132.71</ele>
        <time>2020-06-27T11:16:15Z</time>
      </trkpt>
      <trkpt lat="48.37961" lon="-0.76948">
        <ele>133.71</ele>
        <time>2020-06-27T11:16:20Z</time>
      </trkpt>
      <trkpt lat="48.37961" lon="-0.76948">
        <ele>133.71</ele>
        <time>2020-06-27T11:16:26Z</time>
      </trkpt>
      <trkpt lat="48.37961" lon="-0.76948">
        <ele>133.71</ele>
        <time>2020-06-27T11:16:31Z</time>
      </trkpt>
      <trkpt lat="48.37961" lon="-0.76948">
        <ele>133.71</ele>
        <time>2020-06-27T11:16:36Z</time>
      </trkpt>
      <trkpt lat="48.37961" lon="-0.76948">
        <ele>133.71</ele>
        <time>2020-06-27T11:16:42Z</time>
      </trkpt>
      <trkpt lat="48.37963" lon="-0.76944">
        <ele>134.71</ele>
        <time>2020-06-27T11:16:48Z</time>
      </trkpt>
      <trkpt lat="48.37966" lon="-0.7694">
        <ele>135.71</ele>
        <time>2020-06-27T11:16:53Z</time>
      </trkpt>
      <trkpt lat="48.37967" lon="-0.76937">
        <ele>136.71</ele>
        <time>2020-06-27T11:16:59Z</time>
      </trkpt>
      <trkpt lat="48.37968" lon="-0.76937">
        <ele>136.71</ele>
        <time>2020-06-27T11:17:04Z</time>
      </trkpt>
      <trkpt lat="48.37968" lon="-0.76937">
        <ele>137.71</ele>
        <time>2020-06-27T11:17:09Z</time>
      </trkpt>
      <trkpt lat="48.37968" lon="-0.76937">
        <ele>137.71</ele>
        <time>2020-06-27T11:17:15Z</time>
      </trkpt>
      <trkpt lat="48.37968" lon="-0.76937">
        <ele>137.71</ele>
        <time>2020-06-27T11:17:21Z</time>
      </trkpt>
      <trkpt lat="48.37968" lon="-0.76937">
        <ele>137.71</ele>
        <time>2020-06-27T11:17:27Z</time>
      </trkpt>
      <trkpt lat="48.37968" lon="-0.76937">
        <ele>137.71</ele>
        <time>2020-06-27T11:17:32Z</time>
      </trkpt>
      <trkpt lat="48.37968" lon="-0.76937">
        <ele>137.71</ele>
        <time>2020-06-27T11:17:37Z</time>
      </trkpt>
      <trkpt lat="48.37967" lon="-0.76934">
        <ele>136.71</ele>
        <time>2020-06-27T11:17:43Z</time>
      </trkpt>
      <trkpt lat="48.37962" lon="-0.7693">
        <ele>135.71</ele>
        <time>2020-06-27T11:17:49Z</time>
      </trkpt>
      <trkpt lat="48.37963" lon="-0.76927">
        <ele>134.71</ele>
        <time>2020-06-27T11:17:54Z</time>
      </trkpt>
      <trkpt lat="48.37963" lon="-0.76921">
        <ele>135.71</ele>
        <time>2020-06-27T11:18:00Z</time>
      </trkpt>
      <trkpt lat="48.37964" lon="-0.76919">
        <ele>134.71</ele>
        <time>2020-06-27T11:18:05Z</time>
      </trkpt>
      <trkpt lat="48.37965" lon="-0.76918">
        <ele>135.71</ele>
        <time>2020-06-27T11:18:10Z</time>
      </trkpt>
      <trkpt lat="48.37964" lon="-0.76918">
        <ele>135.71</ele>
        <time>2020-06-27T11:18:16Z</time>
      </trkpt>
      <trkpt lat="48.37964" lon="-0.76917">
        <ele>135.71</ele>
        <time>2020-06-27T11:18:21Z</time>
      </trkpt>
      <trkpt lat="48.37962" lon="-0.76898">
        <ele>127.71</ele>
        <time>2020-06-27T11:18:27Z</time>
      </trkpt>
      <trkpt lat="48.3796" lon="-0.76888">
        <ele>124.71</ele>
        <time>2020-06-27T11:18:32Z</time>
      </trkpt>
      <trkpt lat="48.37959" lon="-0.76876">
        <ele>123.71</ele>
        <time>2020-06-27T11:18:38Z</time>
      </trkpt>
      <trkpt lat="48.37959" lon="-0.7687">
        <ele>127.71</ele>
        <time>2020-06-27T11:18:44Z</time>
      </trkpt>
      <trkpt lat="48.37959" lon="-0.76868">
        <ele>128.71</ele>
        <time>2020-06-27T11:18:50Z</time>
      </trkpt>
      <trkpt lat="48.37959" lon="-0.76867">
        <ele>129.71</ele>
        <time>2020-06-27T11:18:55Z</time>
      </trkpt>
      <trkpt lat="48.37959" lon="-0.76867">
        <ele>129.71</ele>
        <time>2020-06-27T11:19:01Z</time>
      </trkpt>
      <trkpt lat="48.37959" lon="-0.76866">
        <ele>129.71</ele>
        <time>2020-06-27T11:19:07Z</time>
      </trkpt>
      <trkpt lat="48.37959" lon="-0.76866">
        <ele>129.71</ele>
        <time>2020-06-27T11:19:13Z</time>
      </trkpt>
      <trkpt lat="48.37959" lon="-0.76866">
        <ele>130.71</ele>
        <time>2020-06-27T11:19:18Z</time>
      </trkpt>
      <trkpt lat="48.37959" lon="-0.76866">
        <ele>130.71</ele>
        <time>2020-06-27T11:19:24Z</time>
      </trkpt>
      <trkpt lat="48.37959" lon="-0.76866">
        <ele>130.71</ele>
        <time>2020-06-27T11:19:29Z</time>
      </trkpt>
      <trkpt lat="48.37959" lon="-0.76866">
        <ele>130.71</ele>
        <time>2020-06-27T11:19:34Z</time>
      </trkpt>
      <trkpt lat="48.37959" lon="-0.76866">
        <ele>130.71</ele>
        <time>2020-06-27T11:19:40Z</time>
      </trkpt>
      <trkpt lat="48.37959" lon="-0.76866">
        <ele>130.71</ele>
        <time>2020-06-27T11:19:45Z</time>
      </trkpt>
      <trkpt lat="48.37959" lon="-0.76866">
        <ele>130.71</ele>
        <time>2020-06-27T11:19:51Z</time>
      </trkpt>
      <trkpt lat="48.37959" lon="-0.76866">
        <ele>130.71</ele>
        <time>2020-06-27T11:19:56Z</time>
      </trkpt>
      <trkpt lat="48.37959" lon="-0.76866">
        <ele>130.71</ele>
        <time>2020-06-27T11:20:02Z</time>
      </trkpt>
      <trkpt lat="48.37959" lon="-0.76866">
        <ele>130.71</ele>
        <time>2020-06-27T11:20:07Z</time>
      </trkpt>
      <trkpt lat="48.37959" lon="-0.76866">
        <ele>130.71</ele>
        <time>2020-06-27T11:20:12Z</time>
      </trkpt>
      <trkpt lat="48.37959" lon="-0.76866">
        <ele>130.71</ele>
        <time>2020-06-27T11:20:18Z</time>
      </trkpt>
      <trkpt lat="48.37959" lon="-0.76866">
        <ele>130.71</ele>
        <time>2020-06-27T11:20:24Z</time>
      </trkpt>
      <trkpt lat="48.37959" lon="-0.76866">
        <ele>130.71</ele>
        <time>2020-06-27T11:20:29Z</time>
      </trkpt>
      <trkpt lat="48.37959" lon="-0.76866">
        <ele>130.71</ele>
        <time>2020-06-27T11:20:34Z</time>
      </trkpt>
      <trkpt lat="48.37959" lon="-0.76866">
        <ele>130.71</ele>
        <time>2020-06-27T11:20:39Z</time>
      </trkpt>
      <trkpt lat="48.37959" lon="-0.76866">
        <ele>130.71</ele>
        <time>2020-06-27T11:20:45Z</time>
      </trkpt>
      <trkpt lat="48.37959" lon="-0.76866">
        <ele>130.71</ele>
        <time>2020-06-27T11:20:50Z</time>
      </trkpt>
      <trkpt lat="48.37959" lon="-0.76866">
        <ele>130.71</ele>
        <time>2020-06-27T11:20:55Z</time>
      </trkpt>
      <trkpt lat="48.37959" lon="-0.76866">
        <ele>130.71</ele>
        <time>2020-06-27T11:21:01Z</time>
      </trkpt>
      <trkpt lat="48.37959" lon="-0.76865">
        <ele>130.71</ele>
        <time>2020-06-27T11:21:07Z</time>
      </trkpt>
      <trkpt lat="48.37959" lon="-0.76865">
        <ele>130.71</ele>
        <time>2020-06-27T11:21:13Z</time>
      </trkpt>
      <trkpt lat="48.37959" lon="-0.76865">
        <ele>130.71</ele>
        <time>2020-06-27T11:21:19Z</time>
      </trkpt>
      <trkpt lat="48.37959" lon="-0.76865">
        <ele>130.71</ele>
        <time>2020-06-27T11:21:25Z</time>
      </trkpt>
      <trkpt lat="48.37959" lon="-0.76865">
        <ele>130.71</ele>
        <time>2020-06-27T11:21:31Z</time>
      </trkpt>
      <trkpt lat="48.37959" lon="-0.76865">
        <ele>130.71</ele>
        <time>2020-06-27T11:21:37Z</time>
      </trkpt>
      <trkpt lat="48.37959" lon="-0.76865">
        <ele>130.71</ele>
        <time>2020-06-27T11:21:42Z</time>
      </trkpt>
      <trkpt lat="48.37959" lon="-0.76865">
        <ele>130.71</ele>
        <time>2020-06-27T11:21:48Z</time>
      </trkpt>
      <trkpt lat="48.37959" lon="-0.76865">
        <ele>130.71</ele>
        <time>2020-06-27T11:21:53Z</time>
      </trkpt>
      <trkpt lat="48.37959" lon="-0.76865">
        <ele>130.71</ele>
        <time>2020-06-27T11:21:59Z</time>
      </trkpt>
      <trkpt lat="48.37959" lon="-0.76865">
        <ele>130.71</ele>
        <time>2020-06-27T11:22:05Z</time>
      </trkpt>
      <trkpt lat="48.37959" lon="-0.76865">
        <ele>130.71</ele>
        <time>2020-06-27T11:22:10Z</time>
      </trkpt>
      <trkpt lat="48.37959" lon="-0.76865">
        <ele>130.71</ele>
        <time>2020-06-27T11:22:16Z</time>
      </trkpt>
      <trkpt lat="48.37959" lon="-0.76865">
        <ele>130.71</ele>
        <time>2020-06-27T11:22:21Z</time>
      </trkpt>
      <trkpt lat="48.37959" lon="-0.76865">
        <ele>130.71</ele>
        <time>2020-06-27T11:22:27Z</time>
      </trkpt>
      <trkpt lat="48.37959" lon="-0.76865">
        <ele>130.71</ele>
        <time>2020-06-27T11:22:33Z</time>
      </trkpt>
      <trkpt lat="48.37959" lon="-0.76865">
        <ele>130.71</ele>
        <time>2020-06-27T11:22:38Z</time>
      </trkpt>
      <trkpt lat="48.37959" lon="-0.76865">
        <ele>130.71</ele>
        <time>2020-06-27T11:22:44Z</time>
      </trkpt>
      <trkpt lat="48.37959" lon="-0.76865">
        <ele>130.71</ele>
        <time>2020-06-27T11:22:49Z</time>
      </trkpt>
      <trkpt lat="48.37959" lon="-0.76865">
        <ele>130.71</ele>
        <time>2020-06-27T11:22:55Z</time>
      </trkpt>
      <trkpt lat="48.37959" lon="-0.76865">
        <ele>130.71</ele>
        <time>2020-06-27T11:23:00Z</time>
      </trkpt>
      <trkpt lat="48.37959" lon="-0.76865">
        <ele>130.71</ele>
        <time>2020-06-27T11:23:05Z</time>
      </trkpt>
      <trkpt lat="48.37959" lon="-0.76865">
        <ele>130.71</ele>
        <time>2020-06-27T11:23:11Z</time>
      </trkpt>
      <trkpt lat="48.37959" lon="-0.76865">
        <ele>130.71</ele>
        <time>2020-06-27T11:23:16Z</time>
      </trkpt>
      <trkpt lat="48.37959" lon="-0.76865">
        <ele>130.71</ele>
        <time>2020-06-27T11:23:22Z</time>
      </trkpt>
      <trkpt lat="48.37959" lon="-0.76865">
        <ele>130.71</ele>
        <time>2020-06-27T11:23:27Z</time>
      </trkpt>
      <trkpt lat="48.37959" lon="-0.76865">
        <ele>130.71</ele>
        <time>2020-06-27T11:23:33Z</time>
      </trkpt>
      <trkpt lat="48.37959" lon="-0.76865">
        <ele>130.71</ele>
        <time>2020-06-27T11:23:38Z</time>
      </trkpt>
      <trkpt lat="48.37959" lon="-0.76865">
        <ele>130.71</ele>
        <time>2020-06-27T11:23:44Z</time>
      </trkpt>
      <trkpt lat="48.37959" lon="-0.76865">
        <ele>130.71</ele>
        <time>2020-06-27T11:23:50Z</time>
      </trkpt>
      <trkpt lat="48.37959" lon="-0.76865">
        <ele>130.71</ele>
        <time>2020-06-27T11:23:55Z</time>
      </trkpt>
      <trkpt lat="48.37959" lon="-0.76865">
        <ele>130.71</ele>
        <time>2020-06-27T11:24:01Z</time>
      </trkpt>
      <trkpt lat="48.37959" lon="-0.76865">
        <ele>130.71</ele>
        <time>2020-06-27T11:24:06Z</time>
      </trkpt>
      <trkpt lat="48.37959" lon="-0.76865">
        <ele>130.71</ele>
        <time>2020-06-27T11:24:11Z</time>
      </trkpt>
      <trkpt lat="48.37959" lon="-0.76865">
        <ele>130.71</ele>
        <time>2020-06-27T11:24:17Z</time>
      </trkpt>
      <trkpt lat="48.37959" lon="-0.76865">
        <ele>130.71</ele>
        <time>2020-06-27T11:24:23Z</time>
      </trkpt>
      <trkpt lat="48.37959" lon="-0.76865">
        <ele>130.71</ele>
        <time>2020-06-27T11:24:29Z</time>
      </trkpt>
      <trkpt lat="48.37959" lon="-0.76865">
        <ele>130.71</ele>
        <time>2020-06-27T11:24:34Z</time>
      </trkpt>
      <trkpt lat="48.37959" lon="-0.76865">
        <ele>130.71</ele>
        <time>2020-06-27T11:24:40Z</time>
      </trkpt>
      <trkpt lat="48.37959" lon="-0.76865">
        <ele>130.71</ele>
        <time>2020-06-27T11:24:46Z</time>
      </trkpt>
      <trkpt lat="48.37959" lon="-0.76865">
        <ele>130.71</ele>
        <time>2020-06-27T11:24:51Z</time>
      </trkpt>
      <trkpt lat="48.37959" lon="-0.76865">
        <ele>130.71</ele>
        <time>2020-06-27T11:24:57Z</time>
      </trkpt>
      <trkpt lat="48.37959" lon="-0.76865">
        <ele>130.71</ele>
        <time>2020-06-27T11:25:02Z</time>
      </trkpt>
      <trkpt lat="48.37959" lon="-0.76865">
        <ele>130.71</ele>
        <time>2020-06-27T11:25:08Z</time>
      </trkpt>
      <trkpt lat="48.37959" lon="-0.76865">
        <ele>130.71</ele>
        <time>2020-06-27T11:25:14Z</time>
      </trkpt>
      <trkpt lat="48.37959" lon="-0.76865">
        <ele>130.71</ele>
        <time>2020-06-27T11:25:19Z</time>
      </trkpt>
      <trkpt lat="48.37959" lon="-0.76865">
        <ele>130.71</ele>
        <time>2020-06-27T11:25:25Z</time>
      </trkpt>
      <trkpt lat="48.37959" lon="-0.76865">
        <ele>130.71</ele>
        <time>2020-06-27T11:25:31Z</time>
      </trkpt>
      <trkpt lat="48.37959" lon="-0.76865">
        <ele>130.71</ele>
        <time>2020-06-27T11:25:37Z</time>
      </trkpt>
      <trkpt lat="48.37959" lon="-0.76865">
        <ele>130.71</ele>
        <time>2020-06-27T11:25:42Z</time>
      </trkpt>
      <trkpt lat="48.37959" lon="-0.76865">
        <ele>130.71</ele>
        <time>2020-06-27T11:25:47Z</time>
      </trkpt>
      <trkpt lat="48.37959" lon="-0.76865">
        <ele>130.71</ele>
        <time>2020-06-27T11:25:53Z</time>
      </trkpt>
      <trkpt lat="48.37959" lon="-0.76865">
        <ele>130.71</ele>
        <time>2020-06-27T11:25:59Z</time>
      </trkpt>
      <trkpt lat="48.37959" lon="-0.76865">
        <ele>130.71</ele>
        <time>2020-06-27T11:26:05Z</time>
      </trkpt>
      <trkpt lat="48.37959" lon="-0.76865">
        <ele>130.71</ele>
        <time>2020-06-27T11:26:11Z</time>
      </trkpt>
      <trkpt lat="48.37959" lon="-0.76865">
        <ele>130.71</ele>
        <time>2020-06-27T11:26:17Z</time>
      </trkpt>
      <trkpt lat="48.37959" lon="-0.76865">
        <ele>130.71</ele>
        <time>2020-06-27T11:26:22Z</time>
      </trkpt>
      <trkpt lat="48.37959" lon="-0.76865">
        <ele>130.71</ele>
        <time>2020-06-27T11:26:28Z</time>
      </trkpt>
      <trkpt lat="48.37959" lon="-0.76865">
        <ele>130.71</ele>
        <time>2020-06-27T11:26:33Z</time>
      </trkpt>
      <trkpt lat="48.37959" lon="-0.76865">
        <ele>130.71</ele>
        <time>2020-06-27T11:26:39Z</time>
      </trkpt>
      <trkpt lat="48.37959" lon="-0.76865">
        <ele>130.71</ele>
        <time>2020-06-27T11:26:45Z</time>
      </trkpt>
      <trkpt lat="48.37959" lon="-0.76865">
        <ele>130.71</ele>
        <time>2020-06-27T11:26:51Z</time>
      </trkpt>
      <trkpt lat="48.37959" lon="-0.76865">
        <ele>130.71</ele>
        <time>2020-06-27T11:26:57Z</time>
      </trkpt>
      <trkpt lat="48.37959" lon="-0.76865">
        <ele>130.71</ele>
        <time>2020-06-27T11:27:02Z</time>
      </trkpt>
      <trkpt lat="48.37959" lon="-0.76865">
        <ele>130.71</ele>
        <time>2020-06-27T11:27:07Z</time>
      </trkpt>
      <trkpt lat="48.37959" lon="-0.76865">
        <ele>130.71</ele>
        <time>2020-06-27T11:27:12Z</time>
      </trkpt>
      <trkpt lat="48.37959" lon="-0.76865">
        <ele>130.71</ele>
        <time>2020-06-27T11:27:17Z</time>
      </trkpt>
      <trkpt lat="48.37959" lon="-0.76865">
        <ele>130.71</ele>
        <time>2020-06-27T11:27:23Z</time>
      </trkpt>
      <trkpt lat="48.37959" lon="-0.76865">
        <ele>130.71</ele>
        <time>2020-06-27T11:27:28Z</time>
      </trkpt>
      <trkpt lat="48.37959" lon="-0.76865">
        <ele>130.71</ele>
        <time>2020-06-27T11:27:33Z</time>
      </trkpt>
      <trkpt lat="48.37959" lon="-0.76865">
        <ele>130.71</ele>
        <time>2020-06-27T11:27:38Z</time>
      </trkpt>
      <trkpt lat="48.37959" lon="-0.76865">
        <ele>130.71</ele>
        <time>2020-06-27T11:27:44Z</time>
      </trkpt>
      <trkpt lat="48.37959" lon="-0.76865">
        <ele>130.71</ele>
        <time>2020-06-27T11:27:50Z</time>
      </trkpt>
      <trkpt lat="48.37959" lon="-0.76865">
        <ele>130.71</ele>
        <time>2020-06-27T11:27:56Z</time>
      </trkpt>
      <trkpt lat="48.37959" lon="-0.76865">
        <ele>130.71</ele>
        <time>2020-06-27T11:28:01Z</time>
      </trkpt>
      <trkpt lat="48.37959" lon="-0.76865">
        <ele>130.71</ele>
        <time>2020-06-27T11:28:06Z</time>
      </trkpt>
      <trkpt lat="48.37959" lon="-0.76865">
        <ele>130.71</ele>
        <time>2020-06-27T11:28:11Z</time>
      </trkpt>
      <trkpt lat="48.37959" lon="-0.76865">
        <ele>130.71</ele>
        <time>2020-06-27T11:28:17Z</time>
      </trkpt>
      <trkpt lat="48.37959" lon="-0.76865">
        <ele>131.71</ele>
        <time>2020-06-27T11:28:22Z</time>
      </trkpt>
      <trkpt lat="48.37959" lon="-0.76865">
        <ele>131.71</ele>
        <time>2020-06-27T11:28:27Z</time>
      </trkpt>
      <trkpt lat="48.37959" lon="-0.76865">
        <ele>131.71</ele>
        <time>2020-06-27T11:28:32Z</time>
      </trkpt>
      <trkpt lat="48.37959" lon="-0.76865">
        <ele>131.71</ele>
        <time>2020-06-27T11:28:38Z</time>
      </trkpt>
      <trkpt lat="48.37959" lon="-0.76865">
        <ele>131.71</ele>
        <time>2020-06-27T11:28:44Z</time>
      </trkpt>
      <trkpt lat="48.37959" lon="-0.76865">
        <ele>131.71</ele>
        <time>2020-06-27T11:28:50Z</time>
      </trkpt>
      <trkpt lat="48.37959" lon="-0.76865">
        <ele>131.71</ele>
        <time>2020-06-27T11:28:55Z</time>
      </trkpt>
      <trkpt lat="48.37959" lon="-0.76865">
        <ele>131.71</ele>
        <time>2020-06-27T11:29:01Z</time>
      </trkpt>
      <trkpt lat="48.37959" lon="-0.76865">
        <ele>131.71</ele>
        <time>2020-06-27T11:29:07Z</time>
      </trkpt>
      <trkpt lat="48.37959" lon="-0.76865">
        <ele>131.71</ele>
        <time>2020-06-27T11:29:12Z</time>
      </trkpt>
      <trkpt lat="48.37959" lon="-0.76865">
        <ele>131.71</ele>
        <time>2020-06-27T11:29:40Z</time>
      </trkpt>
      <trkpt lat="48.37959" lon="-0.76865">
        <ele>130.71</ele>
        <time>2020-06-27T11:29:45Z</time>
      </trkpt>
      <trkpt lat="48.37959" lon="-0.76865">
        <ele>131.71</ele>
        <time>2020-06-27T11:29:51Z</time>
      </trkpt>
      <trkpt lat="48.37959" lon="-0.76865">
        <ele>131.71</ele>
        <time>2020-06-27T11:29:57Z</time>
      </trkpt>
      <trkpt lat="48.37959" lon="-0.76865">
        <ele>131.71</ele>
        <time>2020-06-27T11:30:05Z</time>
      </trkpt>
      <trkpt lat="48.37959" lon="-0.76865">
        <ele>131.71</ele>
        <time>2020-06-27T11:30:11Z</time>
      </trkpt>
      <trkpt lat="48.37959" lon="-0.76865">
        <ele>130.71</ele>
        <time>2020-06-27T11:30:17Z</time>
      </trkpt>
      <trkpt lat="48.37959" lon="-0.76865">
        <ele>130.71</ele>
        <time>2020-06-27T11:30:23Z</time>
      </trkpt>
      <trkpt lat="48.37959" lon="-0.76865">
        <ele>131.71</ele>
        <time>2020-06-27T11:30:28Z</time>
      </trkpt>
      <trkpt lat="48.37956" lon="-0.76863">
        <ele>128.71</ele>
        <time>2020-06-27T11:30:34Z</time>
      </trkpt>
      <trkpt lat="48.37957" lon="-0.76863">
        <ele>126.71</ele>
        <time>2020-06-27T11:30:39Z</time>
      </trkpt>
      <trkpt lat="48.37958" lon="-0.76861">
        <ele>124.71</ele>
        <time>2020-06-27T11:30:45Z</time>
      </trkpt>
      <trkpt lat="48.37959" lon="-0.76861">
        <ele>125.71</ele>
        <time>2020-06-27T11:30:50Z</time>
      </trkpt>
      <trkpt lat="48.37959" lon="-0.76861">
        <ele>125.71</ele>
        <time>2020-06-27T11:30:56Z</time>
      </trkpt>
      <trkpt lat="48.37959" lon="-0.76861">
        <ele>125.71</ele>
        <time>2020-06-27T11:31:01Z</time>
      </trkpt>
      <trkpt lat="48.3796" lon="-0.76861">
        <ele>126.71</ele>
        <time>2020-06-27T11:31:06Z</time>
      </trkpt>
      <trkpt lat="48.3796" lon="-0.76861">
        <ele>126.71</ele>
        <time>2020-06-27T11:31:11Z</time>
      </trkpt>
      <trkpt lat="48.37961" lon="-0.76861">
        <ele>127.71</ele>
        <time>2020-06-27T11:31:17Z</time>
      </trkpt>
      <trkpt lat="48.37961" lon="-0.76861">
        <ele>127.71</ele>
        <time>2020-06-27T11:31:23Z</time>
      </trkpt>
      <trkpt lat="48.37961" lon="-0.76861">
        <ele>127.71</ele>
        <time>2020-06-27T11:31:28Z</time>
      </trkpt>
      <trkpt lat="48.37961" lon="-0.76861">
        <ele>127.71</ele>
        <time>2020-06-27T11:31:33Z</time>
      </trkpt>
      <trkpt lat="48.37961" lon="-0.76861">
        <ele>127.71</ele>
        <time>2020-06-27T11:31:38Z</time>
      </trkpt>
      <trkpt lat="48.37961" lon="-0.76861">
        <ele>127.71</ele>
        <time>2020-06-27T11:31:44Z</time>
      </trkpt>
      <trkpt lat="48.37961" lon="-0.76861">
        <ele>127.71</ele>
        <time>2020-06-27T11:31:49Z</time>
      </trkpt>
      <trkpt lat="48.37961" lon="-0.76861">
        <ele>127.71</ele>
        <time>2020-06-27T11:31:55Z</time>
      </trkpt>
      <trkpt lat="48.37961" lon="-0.76861">
        <ele>127.71</ele>
        <time>2020-06-27T11:32:00Z</time>
      </trkpt>
      <trkpt lat="48.37961" lon="-0.76861">
        <ele>127.71</ele>
        <time>2020-06-27T11:32:06Z</time>
      </trkpt>
      <trkpt lat="48.37961" lon="-0.76861">
        <ele>127.71</ele>
        <time>2020-06-27T11:32:12Z</time>
      </trkpt>
      <trkpt lat="48.37961" lon="-0.76861">
        <ele>127.71</ele>
        <time>2020-06-27T11:32:18Z</time>
      </trkpt>
      <trkpt lat="48.37961" lon="-0.76861">
        <ele>127.71</ele>
        <time>2020-06-27T11:32:24Z</time>
      </trkpt>
      <trkpt lat="48.37961" lon="-0.76861">
        <ele>127.71</ele>
        <time>2020-06-27T11:32:30Z</time>
      </trkpt>
      <trkpt lat="48.37961" lon="-0.76861">
        <ele>127.71</ele>
        <time>2020-06-27T11:32:36Z</time>
      </trkpt>
      <trkpt lat="48.37961" lon="-0.76861">
        <ele>127.71</ele>
        <time>2020-06-27T11:32:42Z</time>
      </trkpt>
      <trkpt lat="48.37961" lon="-0.76861">
        <ele>127.71</ele>
        <time>2020-06-27T11:32:47Z</time>
      </trkpt>
      <trkpt lat="48.37961" lon="-0.76861">
        <ele>127.71</ele>
        <time>2020-06-27T11:32:53Z</time>
      </trkpt>
      <trkpt lat="48.37961" lon="-0.76861">
        <ele>127.71</ele>
        <time>2020-06-27T11:32:58Z</time>
      </trkpt>
      <trkpt lat="48.37961" lon="-0.76861">
        <ele>127.71</ele>
        <time>2020-06-27T11:33:04Z</time>
      </trkpt>
      <trkpt lat="48.37961" lon="-0.76861">
        <ele>127.71</ele>
        <time>2020-06-27T11:33:10Z</time>
      </trkpt>
      <trkpt lat="48.37961" lon="-0.76861">
        <ele>127.71</ele>
        <time>2020-06-27T11:33:16Z</time>
      </trkpt>
      <trkpt lat="48.37962" lon="-0.7686">
        <ele>128.71</ele>
        <time>2020-06-27T11:33:21Z</time>
      </trkpt>
      <trkpt lat="48.37962" lon="-0.76857">
        <ele>132.71</ele>
        <time>2020-06-27T11:33:26Z</time>
      </trkpt>
      <trkpt lat="48.37962" lon="-0.76857">
        <ele>132.71</ele>
        <time>2020-06-27T11:33:31Z</time>
      </trkpt>
      <trkpt lat="48.37963" lon="-0.76856">
        <ele>133.71</ele>
        <time>2020-06-27T11:33:37Z</time>
      </trkpt>
      <trkpt lat="48.37962" lon="-0.76857">
        <ele>131.71</ele>
        <time>2020-06-27T11:33:42Z</time>
      </trkpt>
      <trkpt lat="48.37962" lon="-0.76858">
        <ele>131.71</ele>
        <time>2020-06-27T11:33:48Z</time>
      </trkpt>
      <trkpt lat="48.37962" lon="-0.76858">
        <ele>131.71</ele>
        <time>2020-06-27T11:33:53Z</time>
      </trkpt>
      <trkpt lat="48.37962" lon="-0.76858">
        <ele>131.71</ele>
        <time>2020-06-27T11:33:59Z</time>
      </trkpt>
      <trkpt lat="48.37962" lon="-0.76858">
        <ele>131.71</ele>
        <time>2020-06-27T11:34:04Z</time>
      </trkpt>
      <trkpt lat="48.37962" lon="-0.76858">
        <ele>131.71</ele>
        <time>2020-06-27T11:34:10Z</time>
      </trkpt>
      <trkpt lat="48.37962" lon="-0.76858">
        <ele>131.71</ele>
        <time>2020-06-27T11:34:15Z</time>
      </trkpt>
      <trkpt lat="48.37962" lon="-0.76858">
        <ele>131.71</ele>
        <time>2020-06-27T11:34:21Z</time>
      </trkpt>
      <trkpt lat="48.37962" lon="-0.76858">
        <ele>131.71</ele>
        <time>2020-06-27T11:34:27Z</time>
      </trkpt>
      <trkpt lat="48.37962" lon="-0.76858">
        <ele>131.71</ele>
        <time>2020-06-27T11:34:33Z</time>
      </trkpt>
      <trkpt lat="48.37962" lon="-0.76857">
        <ele>131.71</ele>
        <time>2020-06-27T11:34:39Z</time>
      </trkpt>
      <trkpt lat="48.37962" lon="-0.76857">
        <ele>131.71</ele>
        <time>2020-06-27T11:34:44Z</time>
      </trkpt>
      <trkpt lat="48.37962" lon="-0.76857">
        <ele>131.71</ele>
        <time>2020-06-27T11:34:50Z</time>
      </trkpt>
      <trkpt lat="48.37962" lon="-0.76857">
        <ele>131.71</ele>
        <time>2020-06-27T11:34:55Z</time>
      </trkpt>
      <trkpt lat="48.37962" lon="-0.76857">
        <ele>131.71</ele>
        <time>2020-06-27T11:35:00Z</time>
      </trkpt>
      <trkpt lat="48.37962" lon="-0.76857">
        <ele>131.71</ele>
        <time>2020-06-27T11:35:06Z</time>
      </trkpt>
      <trkpt lat="48.37962" lon="-0.76857">
        <ele>131.71</ele>
        <time>2020-06-27T11:35:11Z</time>
      </trkpt>
      <trkpt lat="48.37962" lon="-0.76857">
        <ele>132.71</ele>
        <time>2020-06-27T11:35:16Z</time>
      </trkpt>
      <trkpt lat="48.37962" lon="-0.76857">
        <ele>132.71</ele>
        <time>2020-06-27T11:35:22Z</time>
      </trkpt>
      <trkpt lat="48.37962" lon="-0.76857">
        <ele>132.71</ele>
        <time>2020-06-27T11:35:28Z</time>
      </trkpt>
      <trkpt lat="48.37962" lon="-0.76857">
        <ele>132.71</ele>
        <time>2020-06-27T11:35:33Z</time>
      </trkpt>
      <trkpt lat="48.37962" lon="-0.76857">
        <ele>132.71</ele>
        <time>2020-06-27T11:35:38Z</time>
      </trkpt>
      <trkpt lat="48.37962" lon="-0.76857">
        <ele>132.71</ele>
        <time>2020-06-27T11:35:44Z</time>
      </trkpt>
      <trkpt lat="48.37962" lon="-0.76857">
        <ele>132.71</ele>
        <time>2020-06-27T11:35:50Z</time>
      </trkpt>
      <trkpt lat="48.37962" lon="-0.76857">
        <ele>132.71</ele>
        <time>2020-06-27T11:35:56Z</time>
      </trkpt>
      <trkpt lat="48.37962" lon="-0.76857">
        <ele>132.71</ele>
        <time>2020-06-27T11:36:01Z</time>
      </trkpt>
      <trkpt lat="48.37962" lon="-0.76857">
        <ele>132.71</ele>
        <time>2020-06-27T11:36:07Z</time>
      </trkpt>
      <trkpt lat="48.37962" lon="-0.76857">
        <ele>132.71</ele>
        <time>2020-06-27T11:36:12Z</time>
      </trkpt>
      <trkpt lat="48.37962" lon="-0.76857">
        <ele>132.71</ele>
        <time>2020-06-27T11:36:18Z</time>
      </trkpt>
      <trkpt lat="48.37962" lon="-0.76857">
        <ele>132.71</ele>
        <time>2020-06-27T11:36:23Z</time>
      </trkpt>
      <trkpt lat="48.37962" lon="-0.76857">
        <ele>132.71</ele>
        <time>2020-06-27T11:36:29Z</time>
      </trkpt>
      <trkpt lat="48.37962" lon="-0.76857">
        <ele>132.71</ele>
        <time>2020-06-27T11:36:35Z</time>
      </trkpt>
      <trkpt lat="48.37962" lon="-0.76857">
        <ele>132.71</ele>
        <time>2020-06-27T11:36:40Z</time>
      </trkpt>
      <trkpt lat="48.37962" lon="-0.76857">
        <ele>132.71</ele>
        <time>2020-06-27T11:36:46Z</time>
      </trkpt>
      <trkpt lat="48.37962" lon="-0.76856">
        <ele>132.71</ele>
        <time>2020-06-27T11:36:52Z</time>
      </trkpt>
      <trkpt lat="48.37962" lon="-0.76856">
        <ele>132.71</ele>
        <time>2020-06-27T11:36:57Z</time>
      </trkpt>
      <trkpt lat="48.37962" lon="-0.76856">
        <ele>132.71</ele>
        <time>2020-06-27T11:37:03Z</time>
      </trkpt>
      <trkpt lat="48.37962" lon="-0.76856">
        <ele>132.71</ele>
        <time>2020-06-27T11:37:08Z</time>
      </trkpt>
      <trkpt lat="48.37962" lon="-0.76856">
        <ele>132.71</ele>
        <time>2020-06-27T11:37:14Z</time>
      </trkpt>
      <trkpt lat="48.37962" lon="-0.76856">
        <ele>132.71</ele>
        <time>2020-06-27T11:37:20Z</time>
      </trkpt>
      <trkpt lat="48.37962" lon="-0.76856">
        <ele>132.71</ele>
        <time>2020-06-27T11:37:25Z</time>
      </trkpt>
      <trkpt lat="48.37962" lon="-0.76856">
        <ele>132.71</ele>
        <time>2020-06-27T11:37:31Z</time>
      </trkpt>
      <trkpt lat="48.37962" lon="-0.76856">
        <ele>132.71</ele>
        <time>2020-06-27T11:37:36Z</time>
      </trkpt>
      <trkpt lat="48.37962" lon="-0.76856">
        <ele>132.71</ele>
        <time>2020-06-27T11:37:42Z</time>
      </trkpt>
      <trkpt lat="48.37962" lon="-0.76856">
        <ele>132.71</ele>
        <time>2020-06-27T11:37:48Z</time>
      </trkpt>
      <trkpt lat="48.37962" lon="-0.76856">
        <ele>132.71</ele>
        <time>2020-06-27T11:37:53Z</time>
      </trkpt>
      <trkpt lat="48.37962" lon="-0.76856">
        <ele>132.71</ele>
        <time>2020-06-27T11:37:59Z</time>
      </trkpt>
      <trkpt lat="48.37962" lon="-0.76856">
        <ele>132.71</ele>
        <time>2020-06-27T11:38:04Z</time>
      </trkpt>
      <trkpt lat="48.37962" lon="-0.76856">
        <ele>133.71</ele>
        <time>2020-06-27T11:38:10Z</time>
      </trkpt>
      <trkpt lat="48.37963" lon="-0.76856">
        <ele>133.71</ele>
        <time>2020-06-27T11:38:16Z</time>
      </trkpt>
      <trkpt lat="48.37963" lon="-0.76856">
        <ele>133.71</ele>
        <time>2020-06-27T11:38:21Z</time>
      </trkpt>
      <trkpt lat="48.37963" lon="-0.76856">
        <ele>133.71</ele>
        <time>2020-06-27T11:38:26Z</time>
      </trkpt>
      <trkpt lat="48.37963" lon="-0.76856">
        <ele>133.71</ele>
        <time>2020-06-27T11:38:32Z</time>
      </trkpt>
      <trkpt lat="48.37963" lon="-0.76856">
        <ele>133.71</ele>
        <time>2020-06-27T11:38:38Z</time>
      </trkpt>
      <trkpt lat="48.37963" lon="-0.76856">
        <ele>133.71</ele>
        <time>2020-06-27T11:38:44Z</time>
      </trkpt>
      <trkpt lat="48.37963" lon="-0.76856">
        <ele>133.71</ele>
        <time>2020-06-27T11:38:50Z</time>
      </trkpt>
      <trkpt lat="48.37963" lon="-0.76856">
        <ele>133.71</ele>
        <time>2020-06-27T11:38:56Z</time>
      </trkpt>
      <trkpt lat="48.37963" lon="-0.76856">
        <ele>133.71</ele>
        <time>2020-06-27T11:39:01Z</time>
      </trkpt>
      <trkpt lat="48.37963" lon="-0.76856">
        <ele>133.71</ele>
        <time>2020-06-27T11:39:06Z</time>
      </trkpt>
      <trkpt lat="48.37963" lon="-0.76856">
        <ele>133.71</ele>
        <time>2020-06-27T11:39:12Z</time>
      </trkpt>
      <trkpt lat="48.37963" lon="-0.76856">
        <ele>133.71</ele>
        <time>2020-06-27T11:39:17Z</time>
      </trkpt>
      <trkpt lat="48.37963" lon="-0.76856">
        <ele>133.71</ele>
        <time>2020-06-27T11:39:22Z</time>
      </trkpt>
      <trkpt lat="48.37963" lon="-0.76855">
        <ele>133.71</ele>
        <time>2020-06-27T11:39:27Z</time>
      </trkpt>
      <trkpt lat="48.37963" lon="-0.76855">
        <ele>133.71</ele>
        <time>2020-06-27T11:39:32Z</time>
      </trkpt>
      <trkpt lat="48.37963" lon="-0.76855">
        <ele>133.71</ele>
        <time>2020-06-27T11:39:37Z</time>
      </trkpt>
      <trkpt lat="48.37963" lon="-0.76855">
        <ele>133.71</ele>
        <time>2020-06-27T11:39:43Z</time>
      </trkpt>
      <trkpt lat="48.37963" lon="-0.76855">
        <ele>133.71</ele>
        <time>2020-06-27T11:39:49Z</time>
      </trkpt>
      <trkpt lat="48.37963" lon="-0.76855">
        <ele>133.71</ele>
        <time>2020-06-27T11:39:55Z</time>
      </trkpt>
      <trkpt lat="48.37963" lon="-0.76855">
        <ele>133.71</ele>
        <time>2020-06-27T11:40:01Z</time>
      </trkpt>
      <trkpt lat="48.37963" lon="-0.76855">
        <ele>133.71</ele>
        <time>2020-06-27T11:40:06Z</time>
      </trkpt>
      <trkpt lat="48.37963" lon="-0.76855">
        <ele>133.71</ele>
        <time>2020-06-27T11:40:12Z</time>
      </trkpt>
      <trkpt lat="48.37963" lon="-0.76855">
        <ele>133.71</ele>
        <time>2020-06-27T11:40:17Z</time>
      </trkpt>
      <trkpt lat="48.37963" lon="-0.76855">
        <ele>133.71</ele>
        <time>2020-06-27T11:40:23Z</time>
      </trkpt>
      <trkpt lat="48.37963" lon="-0.76855">
        <ele>133.71</ele>
        <time>2020-06-27T11:40:29Z</time>
      </trkpt>
      <trkpt lat="48.37963" lon="-0.76855">
        <ele>133.71</ele>
        <time>2020-06-27T11:40:34Z</time>
      </trkpt>
      <trkpt lat="48.37963" lon="-0.76855">
        <ele>133.71</ele>
        <time>2020-06-27T11:40:40Z</time>
      </trkpt>
      <trkpt lat="48.37963" lon="-0.76855">
        <ele>133.71</ele>
        <time>2020-06-27T11:40:45Z</time>
      </trkpt>
      <trkpt lat="48.37963" lon="-0.76855">
        <ele>133.71</ele>
        <time>2020-06-27T11:40:51Z</time>
      </trkpt>
      <trkpt lat="48.37963" lon="-0.76855">
        <ele>133.71</ele>
        <time>2020-06-27T11:40:57Z</time>
      </trkpt>
      <trkpt lat="48.37963" lon="-0.76855">
        <ele>133.71</ele>
        <time>2020-06-27T11:41:02Z</time>
      </trkpt>
      <trkpt lat="48.37963" lon="-0.76855">
        <ele>133.71</ele>
        <time>2020-06-27T11:41:07Z</time>
      </trkpt>
      <trkpt lat="48.37963" lon="-0.76855">
        <ele>134.71</ele>
        <time>2020-06-27T11:41:13Z</time>
      </trkpt>
      <trkpt lat="48.37963" lon="-0.76855">
        <ele>134.71</ele>
        <time>2020-06-27T11:41:18Z</time>
      </trkpt>
      <trkpt lat="48.37963" lon="-0.76855">
        <ele>134.71</ele>
        <time>2020-06-27T11:41:24Z</time>
      </trkpt>
      <trkpt lat="48.37963" lon="-0.76855">
        <ele>134.71</ele>
        <time>2020-06-27T11:41:29Z</time>
      </trkpt>
      <trkpt lat="48.37963" lon="-0.76855">
        <ele>134.71</ele>
        <time>2020-06-27T11:41:35Z</time>
      </trkpt>
      <trkpt lat="48.37963" lon="-0.76855">
        <ele>134.71</ele>
        <time>2020-06-27T11:41:41Z</time>
      </trkpt>
      <trkpt lat="48.37963" lon="-0.76855">
        <ele>134.71</ele>
        <time>2020-06-27T11:41:47Z</time>
      </trkpt>
      <trkpt lat="48.37963" lon="-0.76855">
        <ele>134.71</ele>
        <time>2020-06-27T11:41:52Z</time>
      </trkpt>
      <trkpt lat="48.37963" lon="-0.76855">
        <ele>134.71</ele>
        <time>2020-06-27T11:41:57Z</time>
      </trkpt>
      <trkpt lat="48.37963" lon="-0.76855">
        <ele>134.71</ele>
        <time>2020-06-27T11:42:03Z</time>
      </trkpt>
      <trkpt lat="48.37963" lon="-0.76855">
        <ele>134.71</ele>
        <time>2020-06-27T11:42:08Z</time>
      </trkpt>
      <trkpt lat="48.37963" lon="-0.76855">
        <ele>134.71</ele>
        <time>2020-06-27T11:42:14Z</time>
      </trkpt>
      <trkpt lat="48.37963" lon="-0.76855">
        <ele>134.71</ele>
        <time>2020-06-27T11:42:19Z</time>
      </trkpt>
      <trkpt lat="48.37963" lon="-0.76855">
        <ele>134.71</ele>
        <time>2020-06-27T11:42:25Z</time>
      </trkpt>
      <trkpt lat="48.37963" lon="-0.76855">
        <ele>134.71</ele>
        <time>2020-06-27T11:42:30Z</time>
      </trkpt>
      <trkpt lat="48.37963" lon="-0.76855">
        <ele>134.71</ele>
        <time>2020-06-27T11:42:35Z</time>
      </trkpt>
      <trkpt lat="48.37963" lon="-0.76855">
        <ele>134.71</ele>
        <time>2020-06-27T11:42:41Z</time>
      </trkpt>
      <trkpt lat="48.37963" lon="-0.76855">
        <ele>134.71</ele>
        <time>2020-06-27T11:42:47Z</time>
      </trkpt>
      <trkpt lat="48.37963" lon="-0.76855">
        <ele>134.71</ele>
        <time>2020-06-27T11:42:52Z</time>
      </trkpt>
      <trkpt lat="48.37963" lon="-0.76855">
        <ele>134.71</ele>
        <time>2020-06-27T11:42:58Z</time>
      </trkpt>
      <trkpt lat="48.37963" lon="-0.76855">
        <ele>134.71</ele>
        <time>2020-06-27T11:43:04Z</time>
      </trkpt>
      <trkpt lat="48.37963" lon="-0.76855">
        <ele>134.71</ele>
        <time>2020-06-27T11:43:09Z</time>
      </trkpt>
      <trkpt lat="48.37963" lon="-0.76855">
        <ele>134.71</ele>
        <time>2020-06-27T11:43:15Z</time>
      </trkpt>
      <trkpt lat="48.37963" lon="-0.76855">
        <ele>134.71</ele>
        <time>2020-06-27T11:43:20Z</time>
      </trkpt>
      <trkpt lat="48.37963" lon="-0.76855">
        <ele>134.71</ele>
        <time>2020-06-27T11:43:25Z</time>
      </trkpt>
      <trkpt lat="48.37963" lon="-0.76853">
        <ele>136.71</ele>
        <time>2020-06-27T11:43:30Z</time>
      </trkpt>
      <trkpt lat="48.37967" lon="-0.76859">
        <ele>129.71</ele>
        <time>2020-06-27T11:43:36Z</time>
      </trkpt>
      <trkpt lat="48.37968" lon="-0.7686">
        <ele>130.71</ele>
        <time>2020-06-27T11:43:41Z</time>
      </trkpt>
      <trkpt lat="48.37969" lon="-0.76859">
        <ele>131.71</ele>
        <time>2020-06-27T11:43:46Z</time>
      </trkpt>
      <trkpt lat="48.37969" lon="-0.7686">
        <ele>131.71</ele>
        <time>2020-06-27T11:43:51Z</time>
      </trkpt>
      <trkpt lat="48.3797" lon="-0.76858">
        <ele>130.71</ele>
        <time>2020-06-27T11:43:57Z</time>
      </trkpt>
      <trkpt lat="48.3797" lon="-0.76863">
        <ele>128.71</ele>
        <time>2020-06-27T11:44:03Z</time>
      </trkpt>
      <trkpt lat="48.37968" lon="-0.76869">
        <ele>129.71</ele>
        <time>2020-06-27T11:44:09Z</time>
      </trkpt>
      <trkpt lat="48.37969" lon="-0.76876">
        <ele>131.71</ele>
        <time>2020-06-27T11:44:14Z</time>
      </trkpt>
      <trkpt lat="48.37966" lon="-0.76885">
        <ele>134.71</ele>
        <time>2020-06-27T11:44:19Z</time>
      </trkpt>
      <trkpt lat="48.3797" lon="-0.76894">
        <ele>134.71</ele>
        <time>2020-06-27T11:44:25Z</time>
      </trkpt>
      <trkpt lat="48.37969" lon="-0.76901">
        <ele>135.71</ele>
        <time>2020-06-27T11:44:31Z</time>
      </trkpt>
      <trkpt lat="48.37973" lon="-0.76909">
        <ele>139.71</ele>
        <time>2020-06-27T11:44:36Z</time>
      </trkpt>
      <trkpt lat="48.37971" lon="-0.76913">
        <ele>136.71</ele>
        <time>2020-06-27T11:44:42Z</time>
      </trkpt>
      <trkpt lat="48.37976" lon="-0.76917">
        <ele>132.71</ele>
        <time>2020-06-27T11:44:47Z</time>
      </trkpt>
      <trkpt lat="48.37974" lon="-0.76923">
        <ele>137.71</ele>
        <time>2020-06-27T11:44:53Z</time>
      </trkpt>
      <trkpt lat="48.37976" lon="-0.76924">
        <ele>136.71</ele>
        <time>2020-06-27T11:44:59Z</time>
      </trkpt>
      <trkpt lat="48.37974" lon="-0.7693">
        <ele>134.71</ele>
        <time>2020-06-27T11:45:05Z</time>
      </trkpt>
      <trkpt lat="48.37973" lon="-0.76936">
        <ele>136.71</ele>
        <time>2020-06-27T11:45:11Z</time>
      </trkpt>
      <trkpt lat="48.37968" lon="-0.7694">
        <ele>138.71</ele>
        <time>2020-06-27T11:45:16Z</time>
      </trkpt>
      <trkpt lat="48.37965" lon="-0.76941">
        <ele>138.71</ele>
        <time>2020-06-27T11:45:22Z</time>
      </trkpt>
      <trkpt lat="48.3796" lon="-0.76943">
        <ele>137.71</ele>
        <time>2020-06-27T11:45:28Z</time>
      </trkpt>
      <trkpt lat="48.37961" lon="-0.76945">
        <ele>137.71</ele>
        <time>2020-06-27T11:45:34Z</time>
      </trkpt>
      <trkpt lat="48.37961" lon="-0.76946">
        <ele>137.71</ele>
        <time>2020-06-27T11:45:40Z</time>
      </trkpt>
      <trkpt lat="48.37963" lon="-0.76951">
        <ele>141.71</ele>
        <time>2020-06-27T11:45:45Z</time>
      </trkpt>
      <trkpt lat="48.37964" lon="-0.76955">
        <ele>140.71</ele>
        <time>2020-06-27T11:45:50Z</time>
      </trkpt>
      <trkpt lat="48.37964" lon="-0.76962">
        <ele>141.71</ele>
        <time>2020-06-27T11:45:56Z</time>
      </trkpt>
      <trkpt lat="48.37963" lon="-0.76964">
        <ele>139.71</ele>
        <time>2020-06-27T11:46:01Z</time>
      </trkpt>
      <trkpt lat="48.37965" lon="-0.76969">
        <ele>139.71</ele>
        <time>2020-06-27T11:46:07Z</time>
      </trkpt>
      <trkpt lat="48.37965" lon="-0.76974">
        <ele>138.71</ele>
        <time>2020-06-27T11:46:13Z</time>
      </trkpt>
      <trkpt lat="48.37968" lon="-0.76978">
        <ele>136.71</ele>
        <time>2020-06-27T11:46:19Z</time>
      </trkpt>
      <trkpt lat="48.37973" lon="-0.76987">
        <ele>141.71</ele>
        <time>2020-06-27T11:46:25Z</time>
      </trkpt>
      <trkpt lat="48.37979" lon="-0.76997">
        <ele>142.71</ele>
        <time>2020-06-27T11:46:31Z</time>
      </trkpt>
      <trkpt lat="48.37982" lon="-0.77004">
        <ele>143.71</ele>
        <time>2020-06-27T11:46:36Z</time>
      </trkpt>
      <trkpt lat="48.3799" lon="-0.7701">
        <ele>147.71</ele>
        <time>2020-06-27T11:46:42Z</time>
      </trkpt>
      <trkpt lat="48.37991" lon="-0.77015">
        <ele>144.71</ele>
        <time>2020-06-27T11:46:48Z</time>
      </trkpt>
      <trkpt lat="48.37996" lon="-0.7702">
        <ele>145.71</ele>
        <time>2020-06-27T11:46:53Z</time>
      </trkpt>
      <trkpt lat="48.38" lon="-0.77025">
        <ele>142.71</ele>
        <time>2020-06-27T11:46:59Z</time>
      </trkpt>
      <trkpt lat="48.38002" lon="-0.7703">
        <ele>142.71</ele>
        <time>2020-06-27T11:47:04Z</time>
      </trkpt>
      <trkpt lat="48.38006" lon="-0.77034">
        <ele>138.71</ele>
        <time>2020-06-27T11:47:10Z</time>
      </trkpt>
      <trkpt lat="48.3801" lon="-0.77038">
        <ele>136.71</ele>
        <time>2020-06-27T11:47:16Z</time>
      </trkpt>
      <trkpt lat="48.38016" lon="-0.77043">
        <ele>135.71</ele>
        <time>2020-06-27T11:47:22Z</time>
      </trkpt>
      <trkpt lat="48.38019" lon="-0.77048">
        <ele>134.71</ele>
        <time>2020-06-27T11:47:27Z</time>
      </trkpt>
      <trkpt lat="48.38022" lon="-0.77054">
        <ele>132.71</ele>
        <time>2020-06-27T11:47:33Z</time>
      </trkpt>
      <trkpt lat="48.38026" lon="-0.77059">
        <ele>133.71</ele>
        <time>2020-06-27T11:47:38Z</time>
      </trkpt>
      <trkpt lat="48.38027" lon="-0.77066">
        <ele>132.71</ele>
        <time>2020-06-27T11:47:43Z</time>
      </trkpt>
      <trkpt lat="48.38028" lon="-0.77068">
        <ele>133.71</ele>
        <time>2020-06-27T11:47:48Z</time>
      </trkpt>
      <trkpt lat="48.38033" lon="-0.77069">
        <ele>135.71</ele>
        <time>2020-06-27T11:47:54Z</time>
      </trkpt>
      <trkpt lat="48.38038" lon="-0.7707">
        <ele>134.71</ele>
        <time>2020-06-27T11:47:59Z</time>
      </trkpt>
      <trkpt lat="48.38043" lon="-0.77072">
        <ele>134.71</ele>
        <time>2020-06-27T11:48:05Z</time>
      </trkpt>
      <trkpt lat="48.38047" lon="-0.77076">
        <ele>131.71</ele>
        <time>2020-06-27T11:48:11Z</time>
      </trkpt>
      <trkpt lat="48.38053" lon="-0.77077">
        <ele>131.71</ele>
        <time>2020-06-27T11:48:16Z</time>
      </trkpt>
      <trkpt lat="48.38059" lon="-0.77082">
        <ele>133.71</ele>
        <time>2020-06-27T11:48:22Z</time>
      </trkpt>
      <trkpt lat="48.38062" lon="-0.77083">
        <ele>133.71</ele>
        <time>2020-06-27T11:48:28Z</time>
      </trkpt>
      <trkpt lat="48.38068" lon="-0.77085">
        <ele>132.71</ele>
        <time>2020-06-27T11:48:34Z</time>
      </trkpt>
      <trkpt lat="48.38074" lon="-0.77088">
        <ele>132.71</ele>
        <time>2020-06-27T11:48:40Z</time>
      </trkpt>
      <trkpt lat="48.38078" lon="-0.77089">
        <ele>133.71</ele>
        <time>2020-06-27T11:48:45Z</time>
      </trkpt>
      <trkpt lat="48.38084" lon="-0.77094">
        <ele>133.71</ele>
        <time>2020-06-27T11:48:50Z</time>
      </trkpt>
      <trkpt lat="48.38087" lon="-0.77097">
        <ele>135.71</ele>
        <time>2020-06-27T11:48:55Z</time>
      </trkpt>
      <trkpt lat="48.38089" lon="-0.77096">
        <ele>134.71</ele>
        <time>2020-06-27T11:49:00Z</time>
      </trkpt>
      <trkpt lat="48.3809" lon="-0.77096">
        <ele>134.71</ele>
        <time>2020-06-27T11:49:05Z</time>
      </trkpt>
      <trkpt lat="48.38093" lon="-0.77096">
        <ele>134.71</ele>
        <time>2020-06-27T11:49:11Z</time>
      </trkpt>
      <trkpt lat="48.38099" lon="-0.77098">
        <ele>133.71</ele>
        <time>2020-06-27T11:49:16Z</time>
      </trkpt>
      <trkpt lat="48.38105" lon="-0.77099">
        <ele>134.71</ele>
        <time>2020-06-27T11:49:21Z</time>
      </trkpt>
      <trkpt lat="48.38109" lon="-0.771">
        <ele>132.71</ele>
        <time>2020-06-27T11:49:26Z</time>
      </trkpt>
      <trkpt lat="48.38115" lon="-0.77105">
        <ele>132.71</ele>
        <time>2020-06-27T11:49:32Z</time>
      </trkpt>
      <trkpt lat="48.38118" lon="-0.77106">
        <ele>133.71</ele>
        <time>2020-06-27T11:49:38Z</time>
      </trkpt>
      <trkpt lat="48.3812" lon="-0.77107">
        <ele>134.71</ele>
        <time>2020-06-27T11:49:44Z</time>
      </trkpt>
      <trkpt lat="48.38122" lon="-0.77107">
        <ele>136.71</ele>
        <time>2020-06-27T11:49:49Z</time>
      </trkpt>
      <trkpt lat="48.38122" lon="-0.77107">
        <ele>136.71</ele>
        <time>2020-06-27T11:49:55Z</time>
      </trkpt>
      <trkpt lat="48.38122" lon="-0.77107">
        <ele>136.71</ele>
        <time>2020-06-27T11:50:01Z</time>
      </trkpt>
      <trkpt lat="48.38122" lon="-0.77107">
        <ele>136.71</ele>
        <time>2020-06-27T11:50:06Z</time>
      </trkpt>
      <trkpt lat="48.38122" lon="-0.77107">
        <ele>136.71</ele>
        <time>2020-06-27T11:50:12Z</time>
      </trkpt>
      <trkpt lat="48.38122" lon="-0.77107">
        <ele>136.71</ele>
        <time>2020-06-27T11:50:17Z</time>
      </trkpt>
      <trkpt lat="48.38122" lon="-0.77107">
        <ele>136.71</ele>
        <time>2020-06-27T11:50:22Z</time>
      </trkpt>
      <trkpt lat="48.38122" lon="-0.77107">
        <ele>136.71</ele>
        <time>2020-06-27T11:50:28Z</time>
      </trkpt>
      <trkpt lat="48.38122" lon="-0.77107">
        <ele>136.71</ele>
        <time>2020-06-27T11:50:33Z</time>
      </trkpt>
      <trkpt lat="48.38122" lon="-0.77107">
        <ele>136.71</ele>
        <time>2020-06-27T11:50:39Z</time>
      </trkpt>
      <trkpt lat="48.38122" lon="-0.77107">
        <ele>136.71</ele>
        <time>2020-06-27T11:50:45Z</time>
      </trkpt>
      <trkpt lat="48.38121" lon="-0.77106">
        <ele>134.71</ele>
        <time>2020-06-27T11:50:51Z</time>
      </trkpt>
      <trkpt lat="48.3812" lon="-0.77105">
        <ele>133.71</ele>
        <time>2020-06-27T11:50:56Z</time>
      </trkpt>
      <trkpt lat="48.38117" lon="-0.77109">
        <ele>132.71</ele>
        <time>2020-06-27T11:51:02Z</time>
      </trkpt>
      <trkpt lat="48.38119" lon="-0.77117">
        <ele>130.71</ele>
        <time>2020-06-27T11:51:07Z</time>
      </trkpt>
      <trkpt lat="48.38118" lon="-0.77123">
        <ele>129.71</ele>
        <time>2020-06-27T11:51:13Z</time>
      </trkpt>
      <trkpt lat="48.3812" lon="-0.77132">
        <ele>130.71</ele>
        <time>2020-06-27T11:51:18Z</time>
      </trkpt>
      <trkpt lat="48.38121" lon="-0.77141">
        <ele>130.71</ele>
        <time>2020-06-27T11:51:24Z</time>
      </trkpt>
      <trkpt lat="48.38123" lon="-0.77149">
        <ele>131.71</ele>
        <time>2020-06-27T11:51:29Z</time>
      </trkpt>
      <trkpt lat="48.38126" lon="-0.77159">
        <ele>133.71</ele>
        <time>2020-06-27T11:51:35Z</time>
      </trkpt>
      <trkpt lat="48.38124" lon="-0.77167">
        <ele>130.71</ele>
        <time>2020-06-27T11:51:40Z</time>
      </trkpt>
      <trkpt lat="48.38124" lon="-0.77177">
        <ele>134.71</ele>
        <time>2020-06-27T11:51:46Z</time>
      </trkpt>
      <trkpt lat="48.38125" lon="-0.77183">
        <ele>132.71</ele>
        <time>2020-06-27T11:51:51Z</time>
      </trkpt>
      <trkpt lat="48.38123" lon="-0.77191">
        <ele>132.71</ele>
        <time>2020-06-27T11:51:57Z</time>
      </trkpt>
      <trkpt lat="48.38124" lon="-0.77201">
        <ele>134.71</ele>
        <time>2020-06-27T11:52:03Z</time>
      </trkpt>
      <trkpt lat="48.38124" lon="-0.77212">
        <ele>139.71</ele>
        <time>2020-06-27T11:52:08Z</time>
      </trkpt>
      <trkpt lat="48.38125" lon="-0.77219">
        <ele>144.71</ele>
        <time>2020-06-27T11:52:14Z</time>
      </trkpt>
      <trkpt lat="48.38123" lon="-0.77224">
        <ele>142.71</ele>
        <time>2020-06-27T11:52:19Z</time>
      </trkpt>
      <trkpt lat="48.38125" lon="-0.77227">
        <ele>141.71</ele>
        <time>2020-06-27T11:52:25Z</time>
      </trkpt>
      <trkpt lat="48.38127" lon="-0.77232">
        <ele>141.71</ele>
        <time>2020-06-27T11:52:31Z</time>
      </trkpt>
      <trkpt lat="48.38129" lon="-0.77233">
        <ele>140.71</ele>
        <time>2020-06-27T11:52:37Z</time>
      </trkpt>
      <trkpt lat="48.38134" lon="-0.77236">
        <ele>138.71</ele>
        <time>2020-06-27T11:52:43Z</time>
      </trkpt>
      <trkpt lat="48.38139" lon="-0.77237">
        <ele>138.71</ele>
        <time>2020-06-27T11:52:48Z</time>
      </trkpt>
      <trkpt lat="48.38145" lon="-0.77238">
        <ele>142.71</ele>
        <time>2020-06-27T11:52:54Z</time>
      </trkpt>
      <trkpt lat="48.38149" lon="-0.77239">
        <ele>142.71</ele>
        <time>2020-06-27T11:52:59Z</time>
      </trkpt>
      <trkpt lat="48.38154" lon="-0.77238">
        <ele>139.71</ele>
        <time>2020-06-27T11:53:04Z</time>
      </trkpt>
      <trkpt lat="48.38155" lon="-0.77238">
        <ele>138.71</ele>
        <time>2020-06-27T11:53:09Z</time>
      </trkpt>
      <trkpt lat="48.38163" lon="-0.77238">
        <ele>140.71</ele>
        <time>2020-06-27T11:53:15Z</time>
      </trkpt>
      <trkpt lat="48.38171" lon="-0.77236">
        <ele>142.71</ele>
        <time>2020-06-27T11:53:20Z</time>
      </trkpt>
      <trkpt lat="48.38177" lon="-0.77234">
        <ele>143.71</ele>
        <time>2020-06-27T11:53:26Z</time>
      </trkpt>
      <trkpt lat="48.38184" lon="-0.77233">
        <ele>145.71</ele>
        <time>2020-06-27T11:53:32Z</time>
      </trkpt>
      <trkpt lat="48.3819" lon="-0.7723">
        <ele>145.71</ele>
        <time>2020-06-27T11:53:38Z</time>
      </trkpt>
      <trkpt lat="48.38194" lon="-0.77228">
        <ele>145.71</ele>
        <time>2020-06-27T11:53:43Z</time>
      </trkpt>
      <trkpt lat="48.38198" lon="-0.7723">
        <ele>145.71</ele>
        <time>2020-06-27T11:53:50Z</time>
      </trkpt>
      <trkpt lat="48.38202" lon="-0.7723">
        <ele>145.71</ele>
        <time>2020-06-27T11:53:55Z</time>
      </trkpt>
      <trkpt lat="48.38208" lon="-0.77229">
        <ele>146.71</ele>
        <time>2020-06-27T11:54:00Z</time>
      </trkpt>
      <trkpt lat="48.38214" lon="-0.77228">
        <ele>145.71</ele>
        <time>2020-06-27T11:54:06Z</time>
      </trkpt>
      <trkpt lat="48.38218" lon="-0.77225">
        <ele>144.71</ele>
        <time>2020-06-27T11:54:11Z</time>
      </trkpt>
      <trkpt lat="48.38221" lon="-0.77221">
        <ele>142.71</ele>
        <time>2020-06-27T11:54:17Z</time>
      </trkpt>
      <trkpt lat="48.38225" lon="-0.77219">
        <ele>141.71</ele>
        <time>2020-06-27T11:54:23Z</time>
      </trkpt>
      <trkpt lat="48.38228" lon="-0.77217">
        <ele>138.71</ele>
        <time>2020-06-27T11:54:28Z</time>
      </trkpt>
      <trkpt lat="48.38231" lon="-0.77215">
        <ele>139.71</ele>
        <time>2020-06-27T11:54:33Z</time>
      </trkpt>
      <trkpt lat="48.38233" lon="-0.77214">
        <ele>140.71</ele>
        <time>2020-06-27T11:54:38Z</time>
      </trkpt>
      <trkpt lat="48.38237" lon="-0.77214">
        <ele>140.71</ele>
        <time>2020-06-27T11:54:44Z</time>
      </trkpt>
      <trkpt lat="48.38241" lon="-0.77215">
        <ele>139.71</ele>
        <time>2020-06-27T11:54:49Z</time>
      </trkpt>
      <trkpt lat="48.38244" lon="-0.77216">
        <ele>137.71</ele>
        <time>2020-06-27T11:54:54Z</time>
      </trkpt>
      <trkpt lat="48.3825" lon="-0.77216">
        <ele>135.71</ele>
        <time>2020-06-27T11:55:00Z</time>
      </trkpt>
      <trkpt lat="48.38251" lon="-0.77219">
        <ele>133.71</ele>
        <time>2020-06-27T11:55:05Z</time>
      </trkpt>
      <trkpt lat="48.38254" lon="-0.77228">
        <ele>135.71</ele>
        <time>2020-06-27T11:55:10Z</time>
      </trkpt>
      <trkpt lat="48.38254" lon="-0.77233">
        <ele>134.71</ele>
        <time>2020-06-27T11:55:16Z</time>
      </trkpt>
      <trkpt lat="48.38255" lon="-0.77235">
        <ele>135.71</ele>
        <time>2020-06-27T11:55:22Z</time>
      </trkpt>
      <trkpt lat="48.38257" lon="-0.77236">
        <ele>134.71</ele>
        <time>2020-06-27T11:55:27Z</time>
      </trkpt>
      <trkpt lat="48.38259" lon="-0.77238">
        <ele>132.71</ele>
        <time>2020-06-27T11:55:33Z</time>
      </trkpt>
      <trkpt lat="48.3826" lon="-0.77244">
        <ele>131.71</ele>
        <time>2020-06-27T11:55:39Z</time>
      </trkpt>
      <trkpt lat="48.38262" lon="-0.77246">
        <ele>133.71</ele>
        <time>2020-06-27T11:55:45Z</time>
      </trkpt>
      <trkpt lat="48.38267" lon="-0.77253">
        <ele>136.71</ele>
        <time>2020-06-27T11:55:51Z</time>
      </trkpt>
      <trkpt lat="48.38269" lon="-0.77258">
        <ele>137.71</ele>
        <time>2020-06-27T11:55:56Z</time>
      </trkpt>
      <trkpt lat="48.38271" lon="-0.77259">
        <ele>136.71</ele>
        <time>2020-06-27T11:56:01Z</time>
      </trkpt>
      <trkpt lat="48.38273" lon="-0.7726">
        <ele>135.71</ele>
        <time>2020-06-27T11:56:07Z</time>
      </trkpt>
      <trkpt lat="48.38275" lon="-0.77264">
        <ele>135.71</ele>
        <time>2020-06-27T11:56:13Z</time>
      </trkpt>
      <trkpt lat="48.3828" lon="-0.77269">
        <ele>136.71</ele>
        <time>2020-06-27T11:56:19Z</time>
      </trkpt>
      <trkpt lat="48.38284" lon="-0.77272">
        <ele>138.71</ele>
        <time>2020-06-27T11:56:25Z</time>
      </trkpt>
      <trkpt lat="48.38288" lon="-0.77273">
        <ele>139.71</ele>
        <time>2020-06-27T11:56:30Z</time>
      </trkpt>
      <trkpt lat="48.38293" lon="-0.77272">
        <ele>143.71</ele>
        <time>2020-06-27T11:56:36Z</time>
      </trkpt>
      <trkpt lat="48.38299" lon="-0.77272">
        <ele>145.71</ele>
        <time>2020-06-27T11:56:41Z</time>
      </trkpt>
      <trkpt lat="48.38304" lon="-0.7727">
        <ele>143.71</ele>
        <time>2020-06-27T11:56:47Z</time>
      </trkpt>
      <trkpt lat="48.38308" lon="-0.77264">
        <ele>141.71</ele>
        <time>2020-06-27T11:56:53Z</time>
      </trkpt>
      <trkpt lat="48.38312" lon="-0.77263">
        <ele>139.71</ele>
        <time>2020-06-27T11:56:59Z</time>
      </trkpt>
      <trkpt lat="48.38315" lon="-0.77263">
        <ele>139.71</ele>
        <time>2020-06-27T11:57:05Z</time>
      </trkpt>
      <trkpt lat="48.38315" lon="-0.77262">
        <ele>139.71</ele>
        <time>2020-06-27T11:57:11Z</time>
      </trkpt>
      <trkpt lat="48.38322" lon="-0.7726">
        <ele>138.71</ele>
        <time>2020-06-27T11:57:16Z</time>
      </trkpt>
      <trkpt lat="48.38327" lon="-0.77258">
        <ele>135.71</ele>
        <time>2020-06-27T11:57:22Z</time>
      </trkpt>
      <trkpt lat="48.38332" lon="-0.7726">
        <ele>136.71</ele>
        <time>2020-06-27T11:57:27Z</time>
      </trkpt>
      <trkpt lat="48.38336" lon="-0.77262">
        <ele>137.71</ele>
        <time>2020-06-27T11:57:32Z</time>
      </trkpt>
      <trkpt lat="48.38341" lon="-0.77263">
        <ele>136.71</ele>
        <time>2020-06-27T11:57:38Z</time>
      </trkpt>
      <trkpt lat="48.38348" lon="-0.77266">
        <ele>136.71</ele>
        <time>2020-06-27T11:57:44Z</time>
      </trkpt>
      <trkpt lat="48.38354" lon="-0.77268">
        <ele>135.71</ele>
        <time>2020-06-27T11:57:50Z</time>
      </trkpt>
      <trkpt lat="48.3836" lon="-0.77272">
        <ele>136.71</ele>
        <time>2020-06-27T11:57:55Z</time>
      </trkpt>
      <trkpt lat="48.38365" lon="-0.77274">
        <ele>137.71</ele>
        <time>2020-06-27T11:58:00Z</time>
      </trkpt>
      <trkpt lat="48.38371" lon="-0.77276">
        <ele>136.71</ele>
        <time>2020-06-27T11:58:06Z</time>
      </trkpt>
      <trkpt lat="48.38374" lon="-0.7728">
        <ele>137.71</ele>
        <time>2020-06-27T11:58:11Z</time>
      </trkpt>
      <trkpt lat="48.38376" lon="-0.77284">
        <ele>136.71</ele>
        <time>2020-06-27T11:58:17Z</time>
      </trkpt>
      <trkpt lat="48.3838" lon="-0.77286">
        <ele>138.71</ele>
        <time>2020-06-27T11:58:22Z</time>
      </trkpt>
      <trkpt lat="48.38384" lon="-0.77289">
        <ele>137.71</ele>
        <time>2020-06-27T11:58:28Z</time>
      </trkpt>
      <trkpt lat="48.3839" lon="-0.77291">
        <ele>137.71</ele>
        <time>2020-06-27T11:58:34Z</time>
      </trkpt>
      <trkpt lat="48.38394" lon="-0.77296">
        <ele>136.71</ele>
        <time>2020-06-27T11:58:40Z</time>
      </trkpt>
      <trkpt lat="48.38399" lon="-0.77302">
        <ele>138.71</ele>
        <time>2020-06-27T11:58:46Z</time>
      </trkpt>
      <trkpt lat="48.38403" lon="-0.77305">
        <ele>137.71</ele>
        <time>2020-06-27T11:58:51Z</time>
      </trkpt>
      <trkpt lat="48.38409" lon="-0.77308">
        <ele>137.71</ele>
        <time>2020-06-27T11:58:57Z</time>
      </trkpt>
      <trkpt lat="48.38414" lon="-0.7731">
        <ele>136.71</ele>
        <time>2020-06-27T11:59:02Z</time>
      </trkpt>
      <trkpt lat="48.38417" lon="-0.77315">
        <ele>135.71</ele>
        <time>2020-06-27T11:59:08Z</time>
      </trkpt>
      <trkpt lat="48.38422" lon="-0.77316">
        <ele>136.71</ele>
        <time>2020-06-27T11:59:13Z</time>
      </trkpt>
      <trkpt lat="48.38426" lon="-0.77318">
        <ele>137.71</ele>
        <time>2020-06-27T11:59:19Z</time>
      </trkpt>
      <trkpt lat="48.3843" lon="-0.77321">
        <ele>136.71</ele>
        <time>2020-06-27T11:59:25Z</time>
      </trkpt>
      <trkpt lat="48.38431" lon="-0.77322">
        <ele>136.71</ele>
        <time>2020-06-27T11:59:31Z</time>
      </trkpt>
      <trkpt lat="48.38435" lon="-0.77325">
        <ele>136.71</ele>
        <time>2020-06-27T11:59:37Z</time>
      </trkpt>
      <trkpt lat="48.38439" lon="-0.77327">
        <ele>136.71</ele>
        <time>2020-06-27T11:59:43Z</time>
      </trkpt>
      <trkpt lat="48.38445" lon="-0.7733">
        <ele>138.71</ele>
        <time>2020-06-27T11:59:49Z</time>
      </trkpt>
      <trkpt lat="48.38451" lon="-0.77334">
        <ele>138.71</ele>
        <time>2020-06-27T11:59:55Z</time>
      </trkpt>
      <trkpt lat="48.38455" lon="-0.77336">
        <ele>137.71</ele>
        <time>2020-06-27T12:00:00Z</time>
      </trkpt>
      <trkpt lat="48.38461" lon="-0.77341">
        <ele>137.71</ele>
        <time>2020-06-27T12:00:06Z</time>
      </trkpt>
      <trkpt lat="48.38465" lon="-0.77346">
        <ele>137.71</ele>
        <time>2020-06-27T12:00:11Z</time>
      </trkpt>
      <trkpt lat="48.38469" lon="-0.77352">
        <ele>138.71</ele>
        <time>2020-06-27T12:00:17Z</time>
      </trkpt>
      <trkpt lat="48.3847" lon="-0.77357">
        <ele>137.71</ele>
        <time>2020-06-27T12:00:22Z</time>
      </trkpt>
      <trkpt lat="48.38473" lon="-0.77363">
        <ele>137.71</ele>
        <time>2020-06-27T12:00:27Z</time>
      </trkpt>
      <trkpt lat="48.38477" lon="-0.77365">
        <ele>138.71</ele>
        <time>2020-06-27T12:00:33Z</time>
      </trkpt>
      <trkpt lat="48.38479" lon="-0.77369">
        <ele>136.71</ele>
        <time>2020-06-27T12:00:39Z</time>
      </trkpt>
      <trkpt lat="48.3848" lon="-0.77375">
        <ele>135.71</ele>
        <time>2020-06-27T12:00:45Z</time>
      </trkpt>
      <trkpt lat="48.38482" lon="-0.77379">
        <ele>137.71</ele>
        <time>2020-06-27T12:00:50Z</time>
      </trkpt>
      <trkpt lat="48.38485" lon="-0.77383">
        <ele>136.71</ele>
        <time>2020-06-27T12:00:56Z</time>
      </trkpt>
      <trkpt lat="48.38489" lon="-0.77388">
        <ele>137.71</ele>
        <time>2020-06-27T12:01:01Z</time>
      </trkpt>
      <trkpt lat="48.38493" lon="-0.77394">
        <ele>137.71</ele>
        <time>2020-06-27T12:01:06Z</time>
      </trkpt>
      <trkpt lat="48.38496" lon="-0.77401">
        <ele>136.71</ele>
        <time>2020-06-27T12:01:12Z</time>
      </trkpt>
      <trkpt lat="48.38499" lon="-0.77405">
        <ele>134.71</ele>
        <time>2020-06-27T12:01:17Z</time>
      </trkpt>
      <trkpt lat="48.38502" lon="-0.7741">
        <ele>133.71</ele>
        <time>2020-06-27T12:01:23Z</time>
      </trkpt>
      <trkpt lat="48.38506" lon="-0.77417">
        <ele>132.71</ele>
        <time>2020-06-27T12:01:29Z</time>
      </trkpt>
      <trkpt lat="48.38508" lon="-0.77422">
        <ele>131.71</ele>
        <time>2020-06-27T12:01:34Z</time>
      </trkpt>
      <trkpt lat="48.3851" lon="-0.7743">
        <ele>132.71</ele>
        <time>2020-06-27T12:01:40Z</time>
      </trkpt>
      <trkpt lat="48.38515" lon="-0.77437">
        <ele>133.71</ele>
        <time>2020-06-27T12:01:46Z</time>
      </trkpt>
      <trkpt lat="48.38518" lon="-0.77443">
        <ele>134.71</ele>
        <time>2020-06-27T12:01:51Z</time>
      </trkpt>
      <trkpt lat="48.38522" lon="-0.77447">
        <ele>133.71</ele>
        <time>2020-06-27T12:01:56Z</time>
      </trkpt>
      <trkpt lat="48.38527" lon="-0.77452">
        <ele>133.71</ele>
        <time>2020-06-27T12:02:02Z</time>
      </trkpt>
      <trkpt lat="48.38531" lon="-0.77455">
        <ele>132.71</ele>
        <time>2020-06-27T12:02:07Z</time>
      </trkpt>
      <trkpt lat="48.38532" lon="-0.77454">
        <ele>133.71</ele>
        <time>2020-06-27T12:02:12Z</time>
      </trkpt>
      <trkpt lat="48.38532" lon="-0.77453">
        <ele>132.71</ele>
        <time>2020-06-27T12:02:18Z</time>
      </trkpt>
      <trkpt lat="48.38532" lon="-0.77453">
        <ele>132.71</ele>
        <time>2020-06-27T12:02:23Z</time>
      </trkpt>
      <trkpt lat="48.38532" lon="-0.77453">
        <ele>132.71</ele>
        <time>2020-06-27T12:02:29Z</time>
      </trkpt>
      <trkpt lat="48.38532" lon="-0.77453">
        <ele>132.71</ele>
        <time>2020-06-27T12:02:35Z</time>
      </trkpt>
      <trkpt lat="48.38532" lon="-0.77453">
        <ele>132.71</ele>
        <time>2020-06-27T12:02:41Z</time>
      </trkpt>
      <trkpt lat="48.38532" lon="-0.77453">
        <ele>132.71</ele>
        <time>2020-06-27T12:02:47Z</time>
      </trkpt>
      <trkpt lat="48.38532" lon="-0.77453">
        <ele>132.71</ele>
        <time>2020-06-27T12:02:52Z</time>
      </trkpt>
      <trkpt lat="48.38532" lon="-0.77453">
        <ele>132.71</ele>
        <time>2020-06-27T12:02:57Z</time>
      </trkpt>
      <trkpt lat="48.38532" lon="-0.77453">
        <ele>132.71</ele>
        <time>2020-06-27T12:03:02Z</time>
      </trkpt>
      <trkpt lat="48.38532" lon="-0.77454">
        <ele>131.71</ele>
        <time>2020-06-27T12:03:08Z</time>
      </trkpt>
      <trkpt lat="48.38534" lon="-0.77459">
        <ele>132.71</ele>
        <time>2020-06-27T12:03:13Z</time>
      </trkpt>
      <trkpt lat="48.38536" lon="-0.77464">
        <ele>131.71</ele>
        <time>2020-06-27T12:03:18Z</time>
      </trkpt>
      <trkpt lat="48.38542" lon="-0.77468">
        <ele>132.71</ele>
        <time>2020-06-27T12:03:24Z</time>
      </trkpt>
      <trkpt lat="48.38547" lon="-0.7747">
        <ele>132.71</ele>
        <time>2020-06-27T12:03:29Z</time>
      </trkpt>
      <trkpt lat="48.38551" lon="-0.77477">
        <ele>131.71</ele>
        <time>2020-06-27T12:03:35Z</time>
      </trkpt>
      <trkpt lat="48.38556" lon="-0.77482">
        <ele>132.71</ele>
        <time>2020-06-27T12:03:41Z</time>
      </trkpt>
      <trkpt lat="48.3856" lon="-0.77484">
        <ele>132.71</ele>
        <time>2020-06-27T12:03:46Z</time>
      </trkpt>
      <trkpt lat="48.38563" lon="-0.77487">
        <ele>132.71</ele>
        <time>2020-06-27T12:03:52Z</time>
      </trkpt>
      <trkpt lat="48.38564" lon="-0.7749">
        <ele>134.71</ele>
        <time>2020-06-27T12:03:58Z</time>
      </trkpt>
      <trkpt lat="48.38563" lon="-0.77492">
        <ele>135.71</ele>
        <time>2020-06-27T12:04:03Z</time>
      </trkpt>
      <trkpt lat="48.38564" lon="-0.77493">
        <ele>136.71</ele>
        <time>2020-06-27T12:04:08Z</time>
      </trkpt>
      <trkpt lat="48.38565" lon="-0.77494">
        <ele>134.71</ele>
        <time>2020-06-27T12:04:14Z</time>
      </trkpt>
      <trkpt lat="48.38568" lon="-0.77502">
        <ele>134.71</ele>
        <time>2020-06-27T12:04:20Z</time>
      </trkpt>
      <trkpt lat="48.38572" lon="-0.77504">
        <ele>133.71</ele>
        <time>2020-06-27T12:04:26Z</time>
      </trkpt>
      <trkpt lat="48.38574" lon="-0.77508">
        <ele>132.71</ele>
        <time>2020-06-27T12:04:31Z</time>
      </trkpt>
      <trkpt lat="48.38575" lon="-0.77512">
        <ele>130.71</ele>
        <time>2020-06-27T12:04:37Z</time>
      </trkpt>
      <trkpt lat="48.38578" lon="-0.77517">
        <ele>131.71</ele>
        <time>2020-06-27T12:04:42Z</time>
      </trkpt>
      <trkpt lat="48.38581" lon="-0.77521">
        <ele>131.71</ele>
        <time>2020-06-27T12:04:47Z</time>
      </trkpt>
      <trkpt lat="48.38584" lon="-0.77527">
        <ele>132.71</ele>
        <time>2020-06-27T12:04:52Z</time>
      </trkpt>
      <trkpt lat="48.38584" lon="-0.77535">
        <ele>131.71</ele>
        <time>2020-06-27T12:04:58Z</time>
      </trkpt>
      <trkpt lat="48.38586" lon="-0.77543">
        <ele>133.71</ele>
        <time>2020-06-27T12:05:03Z</time>
      </trkpt>
      <trkpt lat="48.38587" lon="-0.77547">
        <ele>133.71</ele>
        <time>2020-06-27T12:05:09Z</time>
      </trkpt>
      <trkpt lat="48.38588" lon="-0.77553">
        <ele>134.71</ele>
        <time>2020-06-27T12:05:15Z</time>
      </trkpt>
      <trkpt lat="48.38591" lon="-0.77557">
        <ele>134.71</ele>
        <time>2020-06-27T12:05:21Z</time>
      </trkpt>
      <trkpt lat="48.38593" lon="-0.77565">
        <ele>134.71</ele>
        <time>2020-06-27T12:05:27Z</time>
      </trkpt>
      <trkpt lat="48.38595" lon="-0.77568">
        <ele>135.71</ele>
        <time>2020-06-27T12:05:32Z</time>
      </trkpt>
      <trkpt lat="48.38595" lon="-0.77568">
        <ele>135.71</ele>
        <time>2020-06-27T12:05:38Z</time>
      </trkpt>
      <trkpt lat="48.38595" lon="-0.77568">
        <ele>136.71</ele>
        <time>2020-06-27T12:05:44Z</time>
      </trkpt>
      <trkpt lat="48.38595" lon="-0.77568">
        <ele>136.71</ele>
        <time>2020-06-27T12:05:49Z</time>
      </trkpt>
      <trkpt lat="48.38595" lon="-0.77568">
        <ele>136.71</ele>
        <time>2020-06-27T12:05:55Z</time>
      </trkpt>
      <trkpt lat="48.38595" lon="-0.77568">
        <ele>136.71</ele>
        <time>2020-06-27T12:06:01Z</time>
      </trkpt>
      <trkpt lat="48.38595" lon="-0.77568">
        <ele>135.71</ele>
        <time>2020-06-27T12:06:06Z</time>
      </trkpt>
      <trkpt lat="48.38595" lon="-0.7757">
        <ele>135.71</ele>
        <time>2020-06-27T12:06:12Z</time>
      </trkpt>
      <trkpt lat="48.38595" lon="-0.77571">
        <ele>135.71</ele>
        <time>2020-06-27T12:06:17Z</time>
      </trkpt>
      <trkpt lat="48.38595" lon="-0.77571">
        <ele>135.71</ele>
        <time>2020-06-27T12:06:23Z</time>
      </trkpt>
      <trkpt lat="48.38596" lon="-0.77571">
        <ele>135.71</ele>
        <time>2020-06-27T12:06:28Z</time>
      </trkpt>
      <trkpt lat="48.38596" lon="-0.77571">
        <ele>135.71</ele>
        <time>2020-06-27T12:06:34Z</time>
      </trkpt>
      <trkpt lat="48.38596" lon="-0.77571">
        <ele>135.71</ele>
        <time>2020-06-27T12:06:39Z</time>
      </trkpt>
      <trkpt lat="48.38596" lon="-0.77571">
        <ele>135.71</ele>
        <time>2020-06-27T12:06:45Z</time>
      </trkpt>
      <trkpt lat="48.38596" lon="-0.77571">
        <ele>135.71</ele>
        <time>2020-06-27T12:06:50Z</time>
      </trkpt>
      <trkpt lat="48.38596" lon="-0.7757">
        <ele>134.71</ele>
        <time>2020-06-27T12:06:56Z</time>
      </trkpt>
      <trkpt lat="48.38593" lon="-0.7757">
        <ele>129.71</ele>
        <time>2020-06-27T12:07:01Z</time>
      </trkpt>
      <trkpt lat="48.38593" lon="-0.7757">
        <ele>129.71</ele>
        <time>2020-06-27T12:07:06Z</time>
      </trkpt>
      <trkpt lat="48.38593" lon="-0.7757">
        <ele>129.71</ele>
        <time>2020-06-27T12:07:11Z</time>
      </trkpt>
      <trkpt lat="48.38595" lon="-0.77569">
        <ele>128.71</ele>
        <time>2020-06-27T12:07:17Z</time>
      </trkpt>
      <trkpt lat="48.38596" lon="-0.77569">
        <ele>131.71</ele>
        <time>2020-06-27T12:07:23Z</time>
      </trkpt>
      <trkpt lat="48.38597" lon="-0.77576">
        <ele>131.71</ele>
        <time>2020-06-27T12:07:29Z</time>
      </trkpt>
      <trkpt lat="48.386" lon="-0.77581">
        <ele>132.71</ele>
        <time>2020-06-27T12:07:35Z</time>
      </trkpt>
      <trkpt lat="48.38602" lon="-0.77584">
        <ele>132.71</ele>
        <time>2020-06-27T12:07:40Z</time>
      </trkpt>
      <trkpt lat="48.38604" lon="-0.77587">
        <ele>132.71</ele>
        <time>2020-06-27T12:07:46Z</time>
      </trkpt>
      <trkpt lat="48.3861" lon="-0.77593">
        <ele>134.71</ele>
        <time>2020-06-27T12:07:52Z</time>
      </trkpt>
      <trkpt lat="48.38614" lon="-0.77598">
        <ele>134.71</ele>
        <time>2020-06-27T12:07:58Z</time>
      </trkpt>
      <trkpt lat="48.38615" lon="-0.77603">
        <ele>134.71</ele>
        <time>2020-06-27T12:08:03Z</time>
      </trkpt>
      <trkpt lat="48.38622" lon="-0.77605">
        <ele>135.71</ele>
        <time>2020-06-27T12:08:08Z</time>
      </trkpt>
      <trkpt lat="48.38626" lon="-0.7761">
        <ele>136.71</ele>
        <time>2020-06-27T12:08:13Z</time>
      </trkpt>
      <trkpt lat="48.3863" lon="-0.77614">
        <ele>138.71</ele>
        <time>2020-06-27T12:08:19Z</time>
      </trkpt>
      <trkpt lat="48.38636" lon="-0.77617">
        <ele>140.71</ele>
        <time>2020-06-27T12:08:24Z</time>
      </trkpt>
      <trkpt lat="48.38642" lon="-0.77624">
        <ele>140.71</ele>
        <time>2020-06-27T12:08:30Z</time>
      </trkpt>
      <trkpt lat="48.38645" lon="-0.7763">
        <ele>139.71</ele>
        <time>2020-06-27T12:08:35Z</time>
      </trkpt>
      <trkpt lat="48.38648" lon="-0.77637">
        <ele>139.71</ele>
        <time>2020-06-27T12:08:41Z</time>
      </trkpt>
      <trkpt lat="48.3865" lon="-0.77643">
        <ele>137.71</ele>
        <time>2020-06-27T12:08:46Z</time>
      </trkpt>
      <trkpt lat="48.38655" lon="-0.77649">
        <ele>136.71</ele>
        <time>2020-06-27T12:08:52Z</time>
      </trkpt>
      <trkpt lat="48.38659" lon="-0.77656">
        <ele>137.71</ele>
        <time>2020-06-27T12:08:58Z</time>
      </trkpt>
      <trkpt lat="48.38661" lon="-0.77661">
        <ele>135.71</ele>
        <time>2020-06-27T12:09:04Z</time>
      </trkpt>
      <trkpt lat="48.38664" lon="-0.77669">
        <ele>136.71</ele>
        <time>2020-06-27T12:09:10Z</time>
      </trkpt>
      <trkpt lat="48.38667" lon="-0.77677">
        <ele>136.71</ele>
        <time>2020-06-27T12:09:16Z</time>
      </trkpt>
      <trkpt lat="48.38669" lon="-0.77686">
        <ele>137.71</ele>
        <time>2020-06-27T12:09:21Z</time>
      </trkpt>
      <trkpt lat="48.38672" lon="-0.77692">
        <ele>139.71</ele>
        <time>2020-06-27T12:09:26Z</time>
      </trkpt>
      <trkpt lat="48.38673" lon="-0.77698">
        <ele>140.71</ele>
        <time>2020-06-27T12:09:32Z</time>
      </trkpt>
      <trkpt lat="48.38674" lon="-0.77703">
        <ele>140.71</ele>
        <time>2020-06-27T12:09:37Z</time>
      </trkpt>
      <trkpt lat="48.38671" lon="-0.7771">
        <ele>138.71</ele>
        <time>2020-06-27T12:09:42Z</time>
      </trkpt>
      <trkpt lat="48.38672" lon="-0.77715">
        <ele>139.71</ele>
        <time>2020-06-27T12:09:47Z</time>
      </trkpt>
      <trkpt lat="48.38672" lon="-0.77724">
        <ele>140.71</ele>
        <time>2020-06-27T12:09:53Z</time>
      </trkpt>
      <trkpt lat="48.38668" lon="-0.77734">
        <ele>137.71</ele>
        <time>2020-06-27T12:09:58Z</time>
      </trkpt>
      <trkpt lat="48.38669" lon="-0.77742">
        <ele>135.71</ele>
        <time>2020-06-27T12:10:04Z</time>
      </trkpt>
      <trkpt lat="48.38669" lon="-0.77751">
        <ele>135.71</ele>
        <time>2020-06-27T12:10:09Z</time>
      </trkpt>
      <trkpt lat="48.3867" lon="-0.77757">
        <ele>133.71</ele>
        <time>2020-06-27T12:10:15Z</time>
      </trkpt>
      <trkpt lat="48.38671" lon="-0.77765">
        <ele>136.71</ele>
        <time>2020-06-27T12:10:20Z</time>
      </trkpt>
      <trkpt lat="48.38676" lon="-0.77771">
        <ele>139.71</ele>
        <time>2020-06-27T12:10:25Z</time>
      </trkpt>
      <trkpt lat="48.38674" lon="-0.77777">
        <ele>136.71</ele>
        <time>2020-06-27T12:10:31Z</time>
      </trkpt>
      <trkpt lat="48.38675" lon="-0.77778">
        <ele>137.71</ele>
        <time>2020-06-27T12:10:37Z</time>
      </trkpt>
      <trkpt lat="48.38675" lon="-0.77779">
        <ele>138.71</ele>
        <time>2020-06-27T12:10:42Z</time>
      </trkpt>
      <trkpt lat="48.38675" lon="-0.77779">
        <ele>138.71</ele>
        <time>2020-06-27T12:10:48Z</time>
      </trkpt>
      <trkpt lat="48.38675" lon="-0.77779">
        <ele>138.71</ele>
        <time>2020-06-27T12:10:53Z</time>
      </trkpt>
      <trkpt lat="48.38675" lon="-0.77779">
        <ele>138.71</ele>
        <time>2020-06-27T12:10:59Z</time>
      </trkpt>
      <trkpt lat="48.38675" lon="-0.77779">
        <ele>138.71</ele>
        <time>2020-06-27T12:11:05Z</time>
      </trkpt>
      <trkpt lat="48.38675" lon="-0.77779">
        <ele>138.71</ele>
        <time>2020-06-27T12:11:10Z</time>
      </trkpt>
      <trkpt lat="48.38676" lon="-0.77779">
        <ele>138.71</ele>
        <time>2020-06-27T12:11:15Z</time>
      </trkpt>
      <trkpt lat="48.38676" lon="-0.77778">
        <ele>138.71</ele>
        <time>2020-06-27T12:11:21Z</time>
      </trkpt>
      <trkpt lat="48.38676" lon="-0.77778">
        <ele>138.71</ele>
        <time>2020-06-27T12:11:26Z</time>
      </trkpt>
      <trkpt lat="48.38676" lon="-0.77779">
        <ele>138.71</ele>
        <time>2020-06-27T12:11:32Z</time>
      </trkpt>
      <trkpt lat="48.38675" lon="-0.7778">
        <ele>138.71</ele>
        <time>2020-06-27T12:11:38Z</time>
      </trkpt>
      <trkpt lat="48.38676" lon="-0.77784">
        <ele>138.71</ele>
        <time>2020-06-27T12:11:44Z</time>
      </trkpt>
      <trkpt lat="48.38679" lon="-0.77786">
        <ele>137.71</ele>
        <time>2020-06-27T12:11:50Z</time>
      </trkpt>
      <trkpt lat="48.38683" lon="-0.77786">
        <ele>138.71</ele>
        <time>2020-06-27T12:11:55Z</time>
      </trkpt>
      <trkpt lat="48.38684" lon="-0.77787">
        <ele>136.71</ele>
        <time>2020-06-27T12:12:00Z</time>
      </trkpt>
      <trkpt lat="48.38688" lon="-0.77787">
        <ele>136.71</ele>
        <time>2020-06-27T12:12:06Z</time>
      </trkpt>
      <trkpt lat="48.38697" lon="-0.77786">
        <ele>139.71</ele>
        <time>2020-06-27T12:12:12Z</time>
      </trkpt>
      <trkpt lat="48.38699" lon="-0.77791">
        <ele>139.71</ele>
        <time>2020-06-27T12:12:18Z</time>
      </trkpt>
      <trkpt lat="48.38699" lon="-0.77797">
        <ele>137.71</ele>
        <time>2020-06-27T12:12:24Z</time>
      </trkpt>
      <trkpt lat="48.38698" lon="-0.77799">
        <ele>138.71</ele>
        <time>2020-06-27T12:12:30Z</time>
      </trkpt>
      <trkpt lat="48.38699" lon="-0.778">
        <ele>138.71</ele>
        <time>2020-06-27T12:12:35Z</time>
      </trkpt>
      <trkpt lat="48.38699" lon="-0.778">
        <ele>138.71</ele>
        <time>2020-06-27T12:12:41Z</time>
      </trkpt>
      <trkpt lat="48.38698" lon="-0.778">
        <ele>137.71</ele>
        <time>2020-06-27T12:12:47Z</time>
      </trkpt>
      <trkpt lat="48.38698" lon="-0.778">
        <ele>137.71</ele>
        <time>2020-06-27T12:12:53Z</time>
      </trkpt>
      <trkpt lat="48.38698" lon="-0.778">
        <ele>137.71</ele>
        <time>2020-06-27T12:12:58Z</time>
      </trkpt>
      <trkpt lat="48.38698" lon="-0.778">
        <ele>137.71</ele>
        <time>2020-06-27T12:13:03Z</time>
      </trkpt>
      <trkpt lat="48.38706" lon="-0.77797">
        <ele>135.71</ele>
        <time>2020-06-27T12:13:09Z</time>
      </trkpt>
      <trkpt lat="48.38708" lon="-0.77799">
        <ele>134.71</ele>
        <time>2020-06-27T12:13:14Z</time>
      </trkpt>
      <trkpt lat="48.38712" lon="-0.77804">
        <ele>134.71</ele>
        <time>2020-06-27T12:13:20Z</time>
      </trkpt>
      <trkpt lat="48.38712" lon="-0.77811">
        <ele>136.71</ele>
        <time>2020-06-27T12:13:26Z</time>
      </trkpt>
      <trkpt lat="48.38713" lon="-0.77818">
        <ele>137.71</ele>
        <time>2020-06-27T12:13:32Z</time>
      </trkpt>
      <trkpt lat="48.38717" lon="-0.77824">
        <ele>137.71</ele>
        <time>2020-06-27T12:13:37Z</time>
      </trkpt>
      <trkpt lat="48.3872" lon="-0.77831">
        <ele>139.71</ele>
        <time>2020-06-27T12:13:42Z</time>
      </trkpt>
      <trkpt lat="48.38726" lon="-0.77837">
        <ele>140.71</ele>
        <time>2020-06-27T12:13:47Z</time>
      </trkpt>
      <trkpt lat="48.38727" lon="-0.77844">
        <ele>141.71</ele>
        <time>2020-06-27T12:13:53Z</time>
      </trkpt>
      <trkpt lat="48.38727" lon="-0.77845">
        <ele>141.71</ele>
        <time>2020-06-27T12:13:59Z</time>
      </trkpt>
      <trkpt lat="48.38726" lon="-0.77845">
        <ele>141.71</ele>
        <time>2020-06-27T12:14:04Z</time>
      </trkpt>
      <trkpt lat="48.38726" lon="-0.77845">
        <ele>141.71</ele>
        <time>2020-06-27T12:14:10Z</time>
      </trkpt>
      <trkpt lat="48.38726" lon="-0.77845">
        <ele>141.71</ele>
        <time>2020-06-27T12:14:16Z</time>
      </trkpt>
      <trkpt lat="48.38726" lon="-0.77845">
        <ele>140.71</ele>
        <time>2020-06-27T12:14:21Z</time>
      </trkpt>
      <trkpt lat="48.38727" lon="-0.77849">
        <ele>142.71</ele>
        <time>2020-06-27T12:14:27Z</time>
      </trkpt>
      <trkpt lat="48.38728" lon="-0.77848">
        <ele>142.71</ele>
        <time>2020-06-27T12:14:33Z</time>
      </trkpt>
      <trkpt lat="48.38732" lon="-0.77848">
        <ele>142.71</ele>
        <time>2020-06-27T12:14:39Z</time>
      </trkpt>
      <trkpt lat="48.38733" lon="-0.77849">
        <ele>143.71</ele>
        <time>2020-06-27T12:14:44Z</time>
      </trkpt>
      <trkpt lat="48.38737" lon="-0.77849">
        <ele>144.71</ele>
        <time>2020-06-27T12:14:49Z</time>
      </trkpt>
      <trkpt lat="48.38744" lon="-0.77848">
        <ele>144.71</ele>
        <time>2020-06-27T12:14:55Z</time>
      </trkpt>
      <trkpt lat="48.3875" lon="-0.77847">
        <ele>145.71</ele>
        <time>2020-06-27T12:15:00Z</time>
      </trkpt>
      <trkpt lat="48.3876" lon="-0.77846">
        <ele>148.71</ele>
        <time>2020-06-27T12:15:06Z</time>
      </trkpt>
      <trkpt lat="48.38765" lon="-0.7785">
        <ele>148.71</ele>
        <time>2020-06-27T12:15:12Z</time>
      </trkpt>
      <trkpt lat="48.38767" lon="-0.77856">
        <ele>147.71</ele>
        <time>2020-06-27T12:15:17Z</time>
      </trkpt>
      <trkpt lat="48.3877" lon="-0.77864">
        <ele>148.71</ele>
        <time>2020-06-27T12:15:23Z</time>
      </trkpt>
      <trkpt lat="48.38771" lon="-0.77872">
        <ele>148.71</ele>
        <time>2020-06-27T12:15:28Z</time>
      </trkpt>
      <trkpt lat="48.38771" lon="-0.77881">
        <ele>148.71</ele>
        <time>2020-06-27T12:15:34Z</time>
      </trkpt>
      <trkpt lat="48.3877" lon="-0.77887">
        <ele>147.71</ele>
        <time>2020-06-27T12:15:39Z</time>
      </trkpt>
      <trkpt lat="48.38769" lon="-0.77894">
        <ele>149.71</ele>
        <time>2020-06-27T12:15:44Z</time>
      </trkpt>
      <trkpt lat="48.38766" lon="-0.779">
        <ele>150.71</ele>
        <time>2020-06-27T12:15:50Z</time>
      </trkpt>
      <trkpt lat="48.38764" lon="-0.77903">
        <ele>150.71</ele>
        <time>2020-06-27T12:15:55Z</time>
      </trkpt>
      <trkpt lat="48.38765" lon="-0.77913">
        <ele>150.71</ele>
        <time>2020-06-27T12:16:02Z</time>
      </trkpt>
      <trkpt lat="48.38763" lon="-0.77926">
        <ele>150.71</ele>
        <time>2020-06-27T12:16:07Z</time>
      </trkpt>
      <trkpt lat="48.38763" lon="-0.77934">
        <ele>151.71</ele>
        <time>2020-06-27T12:16:12Z</time>
      </trkpt>
      <trkpt lat="48.38765" lon="-0.77942">
        <ele>152.71</ele>
        <time>2020-06-27T12:16:17Z</time>
      </trkpt>
      <trkpt lat="48.3877" lon="-0.77951">
        <ele>152.71</ele>
        <time>2020-06-27T12:16:23Z</time>
      </trkpt>
      <trkpt lat="48.38773" lon="-0.77959">
        <ele>153.71</ele>
        <time>2020-06-27T12:16:29Z</time>
      </trkpt>
      <trkpt lat="48.38777" lon="-0.77967">
        <ele>153.71</ele>
        <time>2020-06-27T12:16:35Z</time>
      </trkpt>
      <trkpt lat="48.3878" lon="-0.77978">
        <ele>154.71</ele>
        <time>2020-06-27T12:16:41Z</time>
      </trkpt>
      <trkpt lat="48.38782" lon="-0.77985">
        <ele>154.71</ele>
        <time>2020-06-27T12:16:46Z</time>
      </trkpt>
      <trkpt lat="48.38786" lon="-0.77993">
        <ele>154.71</ele>
        <time>2020-06-27T12:16:51Z</time>
      </trkpt>
      <trkpt lat="48.38789" lon="-0.78002">
        <ele>154.71</ele>
        <time>2020-06-27T12:16:57Z</time>
      </trkpt>
      <trkpt lat="48.3879" lon="-0.7801">
        <ele>154.71</ele>
        <time>2020-06-27T12:17:02Z</time>
      </trkpt>
      <trkpt lat="48.38795" lon="-0.7802">
        <ele>156.71</ele>
        <time>2020-06-27T12:17:08Z</time>
      </trkpt>
      <trkpt lat="48.38798" lon="-0.78028">
        <ele>157.71</ele>
        <time>2020-06-27T12:17:13Z</time>
      </trkpt>
      <trkpt lat="48.38801" lon="-0.78035">
        <ele>156.71</ele>
        <time>2020-06-27T12:17:19Z</time>
      </trkpt>
      <trkpt lat="48.38803" lon="-0.78043">
        <ele>157.71</ele>
        <time>2020-06-27T12:17:24Z</time>
      </trkpt>
      <trkpt lat="48.38806" lon="-0.78049">
        <ele>158.71</ele>
        <time>2020-06-27T12:17:29Z</time>
      </trkpt>
      <trkpt lat="48.38812" lon="-0.78056">
        <ele>158.71</ele>
        <time>2020-06-27T12:17:35Z</time>
      </trkpt>
      <trkpt lat="48.38815" lon="-0.78062">
        <ele>159.71</ele>
        <time>2020-06-27T12:17:40Z</time>
      </trkpt>
      <trkpt lat="48.38819" lon="-0.78068">
        <ele>159.71</ele>
        <time>2020-06-27T12:17:45Z</time>
      </trkpt>
      <trkpt lat="48.38823" lon="-0.78076">
        <ele>160.71</ele>
        <time>2020-06-27T12:17:51Z</time>
      </trkpt>
      <trkpt lat="48.38827" lon="-0.78081">
        <ele>161.71</ele>
        <time>2020-06-27T12:17:56Z</time>
      </trkpt>
      <trkpt lat="48.38832" lon="-0.78087">
        <ele>162.71</ele>
        <time>2020-06-27T12:18:04Z</time>
      </trkpt>
      <trkpt lat="48.38838" lon="-0.78097">
        <ele>162.71</ele>
        <time>2020-06-27T12:18:10Z</time>
      </trkpt>
      <trkpt lat="48.38842" lon="-0.78102">
        <ele>162.71</ele>
        <time>2020-06-27T12:18:16Z</time>
      </trkpt>
      <trkpt lat="48.38845" lon="-0.78106">
        <ele>162.71</ele>
        <time>2020-06-27T12:18:21Z</time>
      </trkpt>
      <trkpt lat="48.38847" lon="-0.7811">
        <ele>161.71</ele>
        <time>2020-06-27T12:18:27Z</time>
      </trkpt>
      <trkpt lat="48.38848" lon="-0.7811">
        <ele>161.71</ele>
        <time>2020-06-27T12:18:33Z</time>
      </trkpt>
      <trkpt lat="48.38848" lon="-0.7811">
        <ele>160.71</ele>
        <time>2020-06-27T12:18:38Z</time>
      </trkpt>
      <trkpt lat="48.38848" lon="-0.7811">
        <ele>160.71</ele>
        <time>2020-06-27T12:18:43Z</time>
      </trkpt>
      <trkpt lat="48.38848" lon="-0.7811">
        <ele>160.71</ele>
        <time>2020-06-27T12:18:48Z</time>
      </trkpt>
      <trkpt lat="48.38848" lon="-0.78112">
        <ele>161.71</ele>
        <time>2020-06-27T12:18:54Z</time>
      </trkpt>
      <trkpt lat="48.38852" lon="-0.78115">
        <ele>161.71</ele>
        <time>2020-06-27T12:18:59Z</time>
      </trkpt>
      <trkpt lat="48.38856" lon="-0.78119">
        <ele>161.71</ele>
        <time>2020-06-27T12:19:05Z</time>
      </trkpt>
      <trkpt lat="48.38863" lon="-0.78124">
        <ele>159.71</ele>
        <time>2020-06-27T12:19:11Z</time>
      </trkpt>
      <trkpt lat="48.38868" lon="-0.78129">
        <ele>158.71</ele>
        <time>2020-06-27T12:19:17Z</time>
      </trkpt>
      <trkpt lat="48.38874" lon="-0.78133">
        <ele>158.71</ele>
        <time>2020-06-27T12:19:23Z</time>
      </trkpt>
      <trkpt lat="48.38879" lon="-0.78137">
        <ele>158.71</ele>
        <time>2020-06-27T12:19:28Z</time>
      </trkpt>
      <trkpt lat="48.38885" lon="-0.78142">
        <ele>158.71</ele>
        <time>2020-06-27T12:19:34Z</time>
      </trkpt>
      <trkpt lat="48.38892" lon="-0.78146">
        <ele>158.71</ele>
        <time>2020-06-27T12:19:40Z</time>
      </trkpt>
      <trkpt lat="48.38897" lon="-0.78149">
        <ele>159.71</ele>
        <time>2020-06-27T12:19:45Z</time>
      </trkpt>
      <trkpt lat="48.38904" lon="-0.78153">
        <ele>160.71</ele>
        <time>2020-06-27T12:19:51Z</time>
      </trkpt>
      <trkpt lat="48.38909" lon="-0.78157">
        <ele>160.71</ele>
        <time>2020-06-27T12:19:57Z</time>
      </trkpt>
      <trkpt lat="48.38914" lon="-0.78159">
        <ele>159.71</ele>
        <time>2020-06-27T12:20:02Z</time>
      </trkpt>
      <trkpt lat="48.3892" lon="-0.78162">
        <ele>159.71</ele>
        <time>2020-06-27T12:20:07Z</time>
      </trkpt>
      <trkpt lat="48.38926" lon="-0.78164">
        <ele>160.71</ele>
        <time>2020-06-27T12:20:12Z</time>
      </trkpt>
      <trkpt lat="48.38932" lon="-0.78166">
        <ele>160.71</ele>
        <time>2020-06-27T12:20:18Z</time>
      </trkpt>
      <trkpt lat="48.38938" lon="-0.78168">
        <ele>160.71</ele>
        <time>2020-06-27T12:20:24Z</time>
      </trkpt>
      <trkpt lat="48.38945" lon="-0.78171">
        <ele>159.71</ele>
        <time>2020-06-27T12:20:30Z</time>
      </trkpt>
      <trkpt lat="48.38951" lon="-0.78172">
        <ele>160.71</ele>
        <time>2020-06-27T12:20:35Z</time>
      </trkpt>
      <trkpt lat="48.38959" lon="-0.78174">
        <ele>161.71</ele>
        <time>2020-06-27T12:20:41Z</time>
      </trkpt>
      <trkpt lat="48.38966" lon="-0.78176">
        <ele>162.71</ele>
        <time>2020-06-27T12:20:46Z</time>
      </trkpt>
      <trkpt lat="48.3897" lon="-0.78178">
        <ele>162.71</ele>
        <time>2020-06-27T12:20:51Z</time>
      </trkpt>
      <trkpt lat="48.38976" lon="-0.78178">
        <ele>163.71</ele>
        <time>2020-06-27T12:20:57Z</time>
      </trkpt>
      <trkpt lat="48.38981" lon="-0.78179">
        <ele>162.71</ele>
        <time>2020-06-27T12:21:02Z</time>
      </trkpt>
      <trkpt lat="48.38988" lon="-0.78182">
        <ele>163.71</ele>
        <time>2020-06-27T12:21:08Z</time>
      </trkpt>
      <trkpt lat="48.38994" lon="-0.78183">
        <ele>162.71</ele>
        <time>2020-06-27T12:21:14Z</time>
      </trkpt>
      <trkpt lat="48.39001" lon="-0.78186">
        <ele>163.71</ele>
        <time>2020-06-27T12:21:20Z</time>
      </trkpt>
      <trkpt lat="48.39007" lon="-0.7819">
        <ele>164.71</ele>
        <time>2020-06-27T12:21:26Z</time>
      </trkpt>
      <trkpt lat="48.39013" lon="-0.78194">
        <ele>165.71</ele>
        <time>2020-06-27T12:21:32Z</time>
      </trkpt>
      <trkpt lat="48.39018" lon="-0.78197">
        <ele>164.71</ele>
        <time>2020-06-27T12:21:37Z</time>
      </trkpt>
      <trkpt lat="48.39023" lon="-0.78202">
        <ele>163.71</ele>
        <time>2020-06-27T12:21:43Z</time>
      </trkpt>
      <trkpt lat="48.39029" lon="-0.78207">
        <ele>164.71</ele>
        <time>2020-06-27T12:21:49Z</time>
      </trkpt>
      <trkpt lat="48.39034" lon="-0.78211">
        <ele>165.71</ele>
        <time>2020-06-27T12:21:54Z</time>
      </trkpt>
      <trkpt lat="48.39038" lon="-0.78215">
        <ele>164.71</ele>
        <time>2020-06-27T12:21:59Z</time>
      </trkpt>
      <trkpt lat="48.39044" lon="-0.78221">
        <ele>165.71</ele>
        <time>2020-06-27T12:22:05Z</time>
      </trkpt>
      <trkpt lat="48.39048" lon="-0.78224">
        <ele>166.71</ele>
        <time>2020-06-27T12:22:10Z</time>
      </trkpt>
      <trkpt lat="48.39054" lon="-0.7823">
        <ele>166.71</ele>
        <time>2020-06-27T12:22:16Z</time>
      </trkpt>
      <trkpt lat="48.39059" lon="-0.78236">
        <ele>165.71</ele>
        <time>2020-06-27T12:22:22Z</time>
      </trkpt>
      <trkpt lat="48.39064" lon="-0.78242">
        <ele>165.71</ele>
        <time>2020-06-27T12:22:27Z</time>
      </trkpt>
      <trkpt lat="48.39067" lon="-0.78246">
        <ele>166.71</ele>
        <time>2020-06-27T12:22:32Z</time>
      </trkpt>
      <trkpt lat="48.39071" lon="-0.78251">
        <ele>166.71</ele>
        <time>2020-06-27T12:22:37Z</time>
      </trkpt>
      <trkpt lat="48.39074" lon="-0.78256">
        <ele>166.71</ele>
        <time>2020-06-27T12:22:42Z</time>
      </trkpt>
      <trkpt lat="48.3908" lon="-0.78261">
        <ele>168.71</ele>
        <time>2020-06-27T12:22:47Z</time>
      </trkpt>
      <trkpt lat="48.39084" lon="-0.78268">
        <ele>169.71</ele>
        <time>2020-06-27T12:22:53Z</time>
      </trkpt>
      <trkpt lat="48.39088" lon="-0.78275">
        <ele>168.71</ele>
        <time>2020-06-27T12:22:59Z</time>
      </trkpt>
      <trkpt lat="48.39092" lon="-0.78281">
        <ele>168.71</ele>
        <time>2020-06-27T12:23:04Z</time>
      </trkpt>
      <trkpt lat="48.39094" lon="-0.78285">
        <ele>168.71</ele>
        <time>2020-06-27T12:23:09Z</time>
      </trkpt>
      <trkpt lat="48.39095" lon="-0.78285">
        <ele>168.71</ele>
        <time>2020-06-27T12:23:15Z</time>
      </trkpt>
      <trkpt lat="48.39099" lon="-0.78286">
        <ele>169.71</ele>
        <time>2020-06-27T12:23:20Z</time>
      </trkpt>
      <trkpt lat="48.39103" lon="-0.78291">
        <ele>168.71</ele>
        <time>2020-06-27T12:23:25Z</time>
      </trkpt>
      <trkpt lat="48.3911" lon="-0.78295">
        <ele>168.71</ele>
        <time>2020-06-27T12:23:31Z</time>
      </trkpt>
      <trkpt lat="48.39114" lon="-0.78297">
        <ele>167.71</ele>
        <time>2020-06-27T12:23:36Z</time>
      </trkpt>
      <trkpt lat="48.3912" lon="-0.78298">
        <ele>167.71</ele>
        <time>2020-06-27T12:23:42Z</time>
      </trkpt>
      <trkpt lat="48.39127" lon="-0.78296">
        <ele>169.71</ele>
        <time>2020-06-27T12:23:48Z</time>
      </trkpt>
      <trkpt lat="48.39135" lon="-0.78295">
        <ele>169.71</ele>
        <time>2020-06-27T12:23:54Z</time>
      </trkpt>
      <trkpt lat="48.39138" lon="-0.78295">
        <ele>170.71</ele>
        <time>2020-06-27T12:23:59Z</time>
      </trkpt>
      <trkpt lat="48.39144" lon="-0.78294">
        <ele>169.71</ele>
        <time>2020-06-27T12:24:05Z</time>
      </trkpt>
      <trkpt lat="48.39149" lon="-0.78292">
        <ele>170.71</ele>
        <time>2020-06-27T12:24:10Z</time>
      </trkpt>
      <trkpt lat="48.39154" lon="-0.78291">
        <ele>170.71</ele>
        <time>2020-06-27T12:24:15Z</time>
      </trkpt>
      <trkpt lat="48.3916" lon="-0.78291">
        <ele>169.71</ele>
        <time>2020-06-27T12:24:21Z</time>
      </trkpt>
      <trkpt lat="48.39166" lon="-0.78288">
        <ele>169.71</ele>
        <time>2020-06-27T12:24:26Z</time>
      </trkpt>
      <trkpt lat="48.39172" lon="-0.78287">
        <ele>169.71</ele>
        <time>2020-06-27T12:24:32Z</time>
      </trkpt>
      <trkpt lat="48.39178" lon="-0.78286">
        <ele>169.71</ele>
        <time>2020-06-27T12:24:37Z</time>
      </trkpt>
      <trkpt lat="48.39185" lon="-0.78284">
        <ele>170.71</ele>
        <time>2020-06-27T12:24:43Z</time>
      </trkpt>
      <trkpt lat="48.39191" lon="-0.78284">
        <ele>171.71</ele>
        <time>2020-06-27T12:24:48Z</time>
      </trkpt>
      <trkpt lat="48.39197" lon="-0.78281">
        <ele>171.71</ele>
        <time>2020-06-27T12:24:54Z</time>
      </trkpt>
      <trkpt lat="48.39203" lon="-0.7828">
        <ele>170.71</ele>
        <time>2020-06-27T12:24:59Z</time>
      </trkpt>
      <trkpt lat="48.39208" lon="-0.78278">
        <ele>169.71</ele>
        <time>2020-06-27T12:25:05Z</time>
      </trkpt>
      <trkpt lat="48.39214" lon="-0.78277">
        <ele>169.71</ele>
        <time>2020-06-27T12:25:10Z</time>
      </trkpt>
      <trkpt lat="48.39221" lon="-0.78275">
        <ele>169.71</ele>
        <time>2020-06-27T12:25:16Z</time>
      </trkpt>
      <trkpt lat="48.39226" lon="-0.78273">
        <ele>170.71</ele>
        <time>2020-06-27T12:25:21Z</time>
      </trkpt>
      <trkpt lat="48.39231" lon="-0.78272">
        <ele>169.71</ele>
        <time>2020-06-27T12:25:27Z</time>
      </trkpt>
      <trkpt lat="48.39234" lon="-0.78271">
        <ele>169.71</ele>
        <time>2020-06-27T12:25:33Z</time>
      </trkpt>
      <trkpt lat="48.3924" lon="-0.78269">
        <ele>169.71</ele>
        <time>2020-06-27T12:25:39Z</time>
      </trkpt>
      <trkpt lat="48.39244" lon="-0.78265">
        <ele>170.71</ele>
        <time>2020-06-27T12:25:44Z</time>
      </trkpt>
      <trkpt lat="48.3925" lon="-0.78261">
        <ele>169.71</ele>
        <time>2020-06-27T12:25:50Z</time>
      </trkpt>
      <trkpt lat="48.39257" lon="-0.78258">
        <ele>169.71</ele>
        <time>2020-06-27T12:25:56Z</time>
      </trkpt>
      <trkpt lat="48.39261" lon="-0.78258">
        <ele>169.71</ele>
        <time>2020-06-27T12:26:01Z</time>
      </trkpt>
      <trkpt lat="48.39266" lon="-0.78258">
        <ele>168.71</ele>
        <time>2020-06-27T12:26:07Z</time>
      </trkpt>
      <trkpt lat="48.39269" lon="-0.78257">
        <ele>167.71</ele>
        <time>2020-06-27T12:26:13Z</time>
      </trkpt>
      <trkpt lat="48.3927" lon="-0.78255">
        <ele>167.71</ele>
        <time>2020-06-27T12:26:19Z</time>
      </trkpt>
      <trkpt lat="48.39274" lon="-0.78252">
        <ele>167.71</ele>
        <time>2020-06-27T12:26:25Z</time>
      </trkpt>
      <trkpt lat="48.3928" lon="-0.78248">
        <ele>164.71</ele>
        <time>2020-06-27T12:26:30Z</time>
      </trkpt>
      <trkpt lat="48.39286" lon="-0.78246">
        <ele>164.71</ele>
        <time>2020-06-27T12:26:36Z</time>
      </trkpt>
      <trkpt lat="48.39292" lon="-0.78243">
        <ele>164.71</ele>
        <time>2020-06-27T12:26:42Z</time>
      </trkpt>
      <trkpt lat="48.39297" lon="-0.78241">
        <ele>167.71</ele>
        <time>2020-06-27T12:26:47Z</time>
      </trkpt>
      <trkpt lat="48.393" lon="-0.78239">
        <ele>168.71</ele>
        <time>2020-06-27T12:26:53Z</time>
      </trkpt>
      <trkpt lat="48.39305" lon="-0.78244">
        <ele>168.71</ele>
        <time>2020-06-27T12:26:59Z</time>
      </trkpt>
      <trkpt lat="48.39311" lon="-0.7825">
        <ele>169.71</ele>
        <time>2020-06-27T12:27:05Z</time>
      </trkpt>
      <trkpt lat="48.39316" lon="-0.78256">
        <ele>170.71</ele>
        <time>2020-06-27T12:27:10Z</time>
      </trkpt>
      <trkpt lat="48.39319" lon="-0.78261">
        <ele>170.71</ele>
        <time>2020-06-27T12:27:15Z</time>
      </trkpt>
      <trkpt lat="48.39324" lon="-0.78266">
        <ele>170.71</ele>
        <time>2020-06-27T12:27:20Z</time>
      </trkpt>
      <trkpt lat="48.39327" lon="-0.78273">
        <ele>171.71</ele>
        <time>2020-06-27T12:27:25Z</time>
      </trkpt>
      <trkpt lat="48.39332" lon="-0.78282">
        <ele>171.71</ele>
        <time>2020-06-27T12:27:31Z</time>
      </trkpt>
      <trkpt lat="48.39333" lon="-0.78287">
        <ele>171.71</ele>
        <time>2020-06-27T12:27:37Z</time>
      </trkpt>
      <trkpt lat="48.39334" lon="-0.78295">
        <ele>171.71</ele>
        <time>2020-06-27T12:27:42Z</time>
      </trkpt>
      <trkpt lat="48.39335" lon="-0.78303">
        <ele>169.71</ele>
        <time>2020-06-27T12:27:48Z</time>
      </trkpt>
      <trkpt lat="48.39335" lon="-0.78312">
        <ele>170.71</ele>
        <time>2020-06-27T12:27:53Z</time>
      </trkpt>
      <trkpt lat="48.39336" lon="-0.7832">
        <ele>169.71</ele>
        <time>2020-06-27T12:27:59Z</time>
      </trkpt>
      <trkpt lat="48.39337" lon="-0.78331">
        <ele>169.71</ele>
        <time>2020-06-27T12:28:05Z</time>
      </trkpt>
      <trkpt lat="48.39339" lon="-0.78338">
        <ele>168.71</ele>
        <time>2020-06-27T12:28:11Z</time>
      </trkpt>
      <trkpt lat="48.39339" lon="-0.78347">
        <ele>168.71</ele>
        <time>2020-06-27T12:28:17Z</time>
      </trkpt>
      <trkpt lat="48.39338" lon="-0.78354">
        <ele>166.71</ele>
        <time>2020-06-27T12:28:22Z</time>
      </trkpt>
      <trkpt lat="48.39341" lon="-0.78363">
        <ele>168.71</ele>
        <time>2020-06-27T12:28:28Z</time>
      </trkpt>
      <trkpt lat="48.3934" lon="-0.78372">
        <ele>166.71</ele>
        <time>2020-06-27T12:28:34Z</time>
      </trkpt>
      <trkpt lat="48.39343" lon="-0.78379">
        <ele>166.71</ele>
        <time>2020-06-27T12:28:39Z</time>
      </trkpt>
      <trkpt lat="48.39345" lon="-0.78385">
        <ele>165.71</ele>
        <time>2020-06-27T12:28:44Z</time>
      </trkpt>
      <trkpt lat="48.39349" lon="-0.7839">
        <ele>165.71</ele>
        <time>2020-06-27T12:28:49Z</time>
      </trkpt>
      <trkpt lat="48.39353" lon="-0.78396">
        <ele>164.71</ele>
        <time>2020-06-27T12:28:55Z</time>
      </trkpt>
      <trkpt lat="48.39357" lon="-0.78401">
        <ele>165.71</ele>
        <time>2020-06-27T12:29:00Z</time>
      </trkpt>
      <trkpt lat="48.39361" lon="-0.78408">
        <ele>165.71</ele>
        <time>2020-06-27T12:29:06Z</time>
      </trkpt>
      <trkpt lat="48.39365" lon="-0.78415">
        <ele>166.71</ele>
        <time>2020-06-27T12:29:12Z</time>
      </trkpt>
      <trkpt lat="48.39367" lon="-0.78422">
        <ele>166.71</ele>
        <time>2020-06-27T12:29:17Z</time>
      </trkpt>
      <trkpt lat="48.39372" lon="-0.78428">
        <ele>167.71</ele>
        <time>2020-06-27T12:29:22Z</time>
      </trkpt>
      <trkpt lat="48.39375" lon="-0.78436">
        <ele>168.71</ele>
        <time>2020-06-27T12:29:28Z</time>
      </trkpt>
      <trkpt lat="48.39377" lon="-0.78441">
        <ele>169.71</ele>
        <time>2020-06-27T12:29:33Z</time>
      </trkpt>
      <trkpt lat="48.39383" lon="-0.78443">
        <ele>168.71</ele>
        <time>2020-06-27T12:29:39Z</time>
      </trkpt>
      <trkpt lat="48.39388" lon="-0.78438">
        <ele>169.71</ele>
        <time>2020-06-27T12:29:45Z</time>
      </trkpt>
      <trkpt lat="48.39392" lon="-0.78435">
        <ele>169.71</ele>
        <time>2020-06-27T12:29:50Z</time>
      </trkpt>
      <trkpt lat="48.39397" lon="-0.78432">
        <ele>170.71</ele>
        <time>2020-06-27T12:29:55Z</time>
      </trkpt>
      <trkpt lat="48.39403" lon="-0.78428">
        <ele>170.71</ele>
        <time>2020-06-27T12:30:01Z</time>
      </trkpt>
      <trkpt lat="48.39408" lon="-0.78431">
        <ele>170.71</ele>
        <time>2020-06-27T12:30:06Z</time>
      </trkpt>
      <trkpt lat="48.3941" lon="-0.78439">
        <ele>169.71</ele>
        <time>2020-06-27T12:30:12Z</time>
      </trkpt>
      <trkpt lat="48.39411" lon="-0.78446">
        <ele>169.71</ele>
        <time>2020-06-27T12:30:17Z</time>
      </trkpt>
      <trkpt lat="48.39414" lon="-0.78455">
        <ele>170.71</ele>
        <time>2020-06-27T12:30:23Z</time>
      </trkpt>
      <trkpt lat="48.39416" lon="-0.78462">
        <ele>169.71</ele>
        <time>2020-06-27T12:30:29Z</time>
      </trkpt>
      <trkpt lat="48.39419" lon="-0.78472">
        <ele>169.71</ele>
        <time>2020-06-27T12:30:35Z</time>
      </trkpt>
      <trkpt lat="48.39424" lon="-0.78478">
        <ele>169.71</ele>
        <time>2020-06-27T12:30:40Z</time>
      </trkpt>
      <trkpt lat="48.39427" lon="-0.78486">
        <ele>170.71</ele>
        <time>2020-06-27T12:30:46Z</time>
      </trkpt>
      <trkpt lat="48.39428" lon="-0.78494">
        <ele>170.71</ele>
        <time>2020-06-27T12:30:51Z</time>
      </trkpt>
      <trkpt lat="48.3943" lon="-0.78501">
        <ele>171.71</ele>
        <time>2020-06-27T12:30:56Z</time>
      </trkpt>
      <trkpt lat="48.39433" lon="-0.7851">
        <ele>169.71</ele>
        <time>2020-06-27T12:31:02Z</time>
      </trkpt>
      <trkpt lat="48.39435" lon="-0.78518">
        <ele>169.71</ele>
        <time>2020-06-27T12:31:08Z</time>
      </trkpt>
      <trkpt lat="48.39438" lon="-0.78529">
        <ele>169.71</ele>
        <time>2020-06-27T12:31:14Z</time>
      </trkpt>
      <trkpt lat="48.3944" lon="-0.78536">
        <ele>169.71</ele>
        <time>2020-06-27T12:31:19Z</time>
      </trkpt>
      <trkpt lat="48.39444" lon="-0.78545">
        <ele>169.71</ele>
        <time>2020-06-27T12:31:25Z</time>
      </trkpt>
      <trkpt lat="48.39442" lon="-0.78552">
        <ele>166.71</ele>
        <time>2020-06-27T12:31:30Z</time>
      </trkpt>
      <trkpt lat="48.39446" lon="-0.7856">
        <ele>166.71</ele>
        <time>2020-06-27T12:31:36Z</time>
      </trkpt>
      <trkpt lat="48.39449" lon="-0.78569">
        <ele>166.71</ele>
        <time>2020-06-27T12:31:42Z</time>
      </trkpt>
      <trkpt lat="48.39449" lon="-0.78575">
        <ele>165.71</ele>
        <time>2020-06-27T12:31:47Z</time>
      </trkpt>
      <trkpt lat="48.39444" lon="-0.7858">
        <ele>165.71</ele>
        <time>2020-06-27T12:31:53Z</time>
      </trkpt>
      <trkpt lat="48.39438" lon="-0.78583">
        <ele>165.71</ele>
        <time>2020-06-27T12:31:58Z</time>
      </trkpt>
      <trkpt lat="48.39432" lon="-0.78582">
        <ele>166.71</ele>
        <time>2020-06-27T12:32:04Z</time>
      </trkpt>
      <trkpt lat="48.39424" lon="-0.78581">
        <ele>166.71</ele>
        <time>2020-06-27T12:32:10Z</time>
      </trkpt>
      <trkpt lat="48.39416" lon="-0.78579">
        <ele>166.71</ele>
        <time>2020-06-27T12:32:16Z</time>
      </trkpt>
      <trkpt lat="48.39411" lon="-0.78576">
        <ele>167.71</ele>
        <time>2020-06-27T12:32:22Z</time>
      </trkpt>
      <trkpt lat="48.39405" lon="-0.78575">
        <ele>167.71</ele>
        <time>2020-06-27T12:32:27Z</time>
      </trkpt>
      <trkpt lat="48.39399" lon="-0.78572">
        <ele>164.71</ele>
        <time>2020-06-27T12:32:33Z</time>
      </trkpt>
      <trkpt lat="48.39394" lon="-0.78571">
        <ele>165.71</ele>
        <time>2020-06-27T12:32:38Z</time>
      </trkpt>
      <trkpt lat="48.39388" lon="-0.78572">
        <ele>166.71</ele>
        <time>2020-06-27T12:32:44Z</time>
      </trkpt>
      <trkpt lat="48.39383" lon="-0.78574">
        <ele>166.71</ele>
        <time>2020-06-27T12:32:49Z</time>
      </trkpt>
      <trkpt lat="48.39378" lon="-0.78576">
        <ele>166.71</ele>
        <time>2020-06-27T12:32:54Z</time>
      </trkpt>
      <trkpt lat="48.39372" lon="-0.78578">
        <ele>164.71</ele>
        <time>2020-06-27T12:33:00Z</time>
      </trkpt>
      <trkpt lat="48.39365" lon="-0.78581">
        <ele>164.71</ele>
        <time>2020-06-27T12:33:06Z</time>
      </trkpt>
      <trkpt lat="48.3936" lon="-0.78584">
        <ele>163.71</ele>
        <time>2020-06-27T12:33:11Z</time>
      </trkpt>
      <trkpt lat="48.39354" lon="-0.78588">
        <ele>161.71</ele>
        <time>2020-06-27T12:33:17Z</time>
      </trkpt>
      <trkpt lat="48.39349" lon="-0.7859">
        <ele>161.71</ele>
        <time>2020-06-27T12:33:23Z</time>
      </trkpt>
      <trkpt lat="48.39342" lon="-0.78592">
        <ele>160.71</ele>
        <time>2020-06-27T12:33:29Z</time>
      </trkpt>
      <trkpt lat="48.39338" lon="-0.78596">
        <ele>160.71</ele>
        <time>2020-06-27T12:33:34Z</time>
      </trkpt>
      <trkpt lat="48.39331" lon="-0.78598">
        <ele>160.71</ele>
        <time>2020-06-27T12:33:40Z</time>
      </trkpt>
      <trkpt lat="48.39327" lon="-0.78601">
        <ele>160.71</ele>
        <time>2020-06-27T12:33:45Z</time>
      </trkpt>
      <trkpt lat="48.39321" lon="-0.78605">
        <ele>161.71</ele>
        <time>2020-06-27T12:33:51Z</time>
      </trkpt>
      <trkpt lat="48.39314" lon="-0.7861">
        <ele>161.71</ele>
        <time>2020-06-27T12:33:57Z</time>
      </trkpt>
      <trkpt lat="48.39309" lon="-0.78612">
        <ele>159.71</ele>
        <time>2020-06-27T12:34:02Z</time>
      </trkpt>
      <trkpt lat="48.39305" lon="-0.78615">
        <ele>159.71</ele>
        <time>2020-06-27T12:34:07Z</time>
      </trkpt>
      <trkpt lat="48.39299" lon="-0.78616">
        <ele>159.71</ele>
        <time>2020-06-27T12:34:13Z</time>
      </trkpt>
      <trkpt lat="48.39293" lon="-0.7862">
        <ele>158.71</ele>
        <time>2020-06-27T12:34:19Z</time>
      </trkpt>
      <trkpt lat="48.39288" lon="-0.78624">
        <ele>157.71</ele>
        <time>2020-06-27T12:34:24Z</time>
      </trkpt>
      <trkpt lat="48.39282" lon="-0.78629">
        <ele>156.71</ele>
        <time>2020-06-27T12:34:30Z</time>
      </trkpt>
      <trkpt lat="48.39277" lon="-0.78635">
        <ele>156.71</ele>
        <time>2020-06-27T12:34:36Z</time>
      </trkpt>
      <trkpt lat="48.39273" lon="-0.7864">
        <ele>156.71</ele>
        <time>2020-06-27T12:34:42Z</time>
      </trkpt>
      <trkpt lat="48.39269" lon="-0.78645">
        <ele>157.71</ele>
        <time>2020-06-27T12:34:48Z</time>
      </trkpt>
      <trkpt lat="48.39265" lon="-0.78651">
        <ele>156.71</ele>
        <time>2020-06-27T12:34:53Z</time>
      </trkpt>
      <trkpt lat="48.39263" lon="-0.7866">
        <ele>156.71</ele>
        <time>2020-06-27T12:34:59Z</time>
      </trkpt>
      <trkpt lat="48.39264" lon="-0.7867">
        <ele>156.71</ele>
        <time>2020-06-27T12:35:05Z</time>
      </trkpt>
      <trkpt lat="48.39263" lon="-0.78675">
        <ele>154.71</ele>
        <time>2020-06-27T12:35:11Z</time>
      </trkpt>
      <trkpt lat="48.39266" lon="-0.78684">
        <ele>154.71</ele>
        <time>2020-06-27T12:35:16Z</time>
      </trkpt>
      <trkpt lat="48.39268" lon="-0.78689">
        <ele>153.71</ele>
        <time>2020-06-27T12:35:21Z</time>
      </trkpt>
      <trkpt lat="48.39275" lon="-0.78695">
        <ele>153.71</ele>
        <time>2020-06-27T12:35:27Z</time>
      </trkpt>
      <trkpt lat="48.39278" lon="-0.78696">
        <ele>154.71</ele>
        <time>2020-06-27T12:35:33Z</time>
      </trkpt>
      <trkpt lat="48.39279" lon="-0.78698">
        <ele>153.71</ele>
        <time>2020-06-27T12:35:39Z</time>
      </trkpt>
      <trkpt lat="48.39281" lon="-0.78701">
        <ele>153.71</ele>
        <time>2020-06-27T12:35:44Z</time>
      </trkpt>
      <trkpt lat="48.39283" lon="-0.78706">
        <ele>152.71</ele>
        <time>2020-06-27T12:35:50Z</time>
      </trkpt>
      <trkpt lat="48.39286" lon="-0.78712">
        <ele>151.71</ele>
        <time>2020-06-27T12:35:56Z</time>
      </trkpt>
      <trkpt lat="48.39289" lon="-0.78719">
        <ele>150.71</ele>
        <time>2020-06-27T12:36:02Z</time>
      </trkpt>
      <trkpt lat="48.39291" lon="-0.78725">
        <ele>149.71</ele>
        <time>2020-06-27T12:36:08Z</time>
      </trkpt>
      <trkpt lat="48.39292" lon="-0.78731">
        <ele>148.71</ele>
        <time>2020-06-27T12:36:13Z</time>
      </trkpt>
      <trkpt lat="48.39298" lon="-0.78737">
        <ele>149.71</ele>
        <time>2020-06-27T12:36:18Z</time>
      </trkpt>
      <trkpt lat="48.39301" lon="-0.78744">
        <ele>150.71</ele>
        <time>2020-06-27T12:36:23Z</time>
      </trkpt>
      <trkpt lat="48.39303" lon="-0.78752">
        <ele>148.71</ele>
        <time>2020-06-27T12:36:29Z</time>
      </trkpt>
      <trkpt lat="48.39307" lon="-0.78758">
        <ele>147.71</ele>
        <time>2020-06-27T12:36:35Z</time>
      </trkpt>
      <trkpt lat="48.3931" lon="-0.78765">
        <ele>148.71</ele>
        <time>2020-06-27T12:36:40Z</time>
      </trkpt>
      <trkpt lat="48.39315" lon="-0.78773">
        <ele>150.71</ele>
        <time>2020-06-27T12:36:46Z</time>
      </trkpt>
      <trkpt lat="48.39318" lon="-0.78776">
        <ele>149.71</ele>
        <time>2020-06-27T12:36:51Z</time>
      </trkpt>
      <trkpt lat="48.39323" lon="-0.78785">
        <ele>150.71</ele>
        <time>2020-06-27T12:36:56Z</time>
      </trkpt>
      <trkpt lat="48.39326" lon="-0.78791">
        <ele>148.71</ele>
        <time>2020-06-27T12:37:02Z</time>
      </trkpt>
      <trkpt lat="48.3933" lon="-0.78802">
        <ele>148.71</ele>
        <time>2020-06-27T12:37:08Z</time>
      </trkpt>
      <trkpt lat="48.39336" lon="-0.78807">
        <ele>148.71</ele>
        <time>2020-06-27T12:37:14Z</time>
      </trkpt>
      <trkpt lat="48.39342" lon="-0.78809">
        <ele>146.71</ele>
        <time>2020-06-27T12:37:20Z</time>
      </trkpt>
      <trkpt lat="48.39347" lon="-0.78815">
        <ele>146.71</ele>
        <time>2020-06-27T12:37:26Z</time>
      </trkpt>
      <trkpt lat="48.39352" lon="-0.78818">
        <ele>144.71</ele>
        <time>2020-06-27T12:37:31Z</time>
      </trkpt>
      <trkpt lat="48.39357" lon="-0.78825">
        <ele>145.71</ele>
        <time>2020-06-27T12:37:37Z</time>
      </trkpt>
      <trkpt lat="48.39362" lon="-0.78829">
        <ele>144.71</ele>
        <time>2020-06-27T12:37:43Z</time>
      </trkpt>
      <trkpt lat="48.39368" lon="-0.78833">
        <ele>144.71</ele>
        <time>2020-06-27T12:37:48Z</time>
      </trkpt>
      <trkpt lat="48.39373" lon="-0.78836">
        <ele>144.71</ele>
        <time>2020-06-27T12:37:54Z</time>
      </trkpt>
      <trkpt lat="48.39377" lon="-0.78843">
        <ele>144.71</ele>
        <time>2020-06-27T12:37:59Z</time>
      </trkpt>
      <trkpt lat="48.39381" lon="-0.7885">
        <ele>144.71</ele>
        <time>2020-06-27T12:38:04Z</time>
      </trkpt>
      <trkpt lat="48.39385" lon="-0.78854">
        <ele>145.71</ele>
        <time>2020-06-27T12:38:10Z</time>
      </trkpt>
      <trkpt lat="48.39391" lon="-0.78861">
        <ele>144.71</ele>
        <time>2020-06-27T12:38:16Z</time>
      </trkpt>
      <trkpt lat="48.39397" lon="-0.78863">
        <ele>144.71</ele>
        <time>2020-06-27T12:38:22Z</time>
      </trkpt>
      <trkpt lat="48.39402" lon="-0.78866">
        <ele>143.71</ele>
        <time>2020-06-27T12:38:27Z</time>
      </trkpt>
      <trkpt lat="48.39409" lon="-0.78872">
        <ele>145.71</ele>
        <time>2020-06-27T12:38:33Z</time>
      </trkpt>
      <trkpt lat="48.39414" lon="-0.78877">
        <ele>145.71</ele>
        <time>2020-06-27T12:38:38Z</time>
      </trkpt>
      <trkpt lat="48.39419" lon="-0.78883">
        <ele>144.71</ele>
        <time>2020-06-27T12:38:44Z</time>
      </trkpt>
      <trkpt lat="48.39422" lon="-0.78888">
        <ele>143.71</ele>
        <time>2020-06-27T12:38:49Z</time>
      </trkpt>
      <trkpt lat="48.39428" lon="-0.78893">
        <ele>144.71</ele>
        <time>2020-06-27T12:38:55Z</time>
      </trkpt>
      <trkpt lat="48.39434" lon="-0.78898">
        <ele>144.71</ele>
        <time>2020-06-27T12:39:00Z</time>
      </trkpt>
      <trkpt lat="48.39439" lon="-0.78903">
        <ele>144.71</ele>
        <time>2020-06-27T12:39:06Z</time>
      </trkpt>
      <trkpt lat="48.39443" lon="-0.78907">
        <ele>143.71</ele>
        <time>2020-06-27T12:39:11Z</time>
      </trkpt>
      <trkpt lat="48.39449" lon="-0.78914">
        <ele>143.71</ele>
        <time>2020-06-27T12:39:17Z</time>
      </trkpt>
      <trkpt lat="48.39454" lon="-0.78919">
        <ele>143.71</ele>
        <time>2020-06-27T12:39:23Z</time>
      </trkpt>
      <trkpt lat="48.39458" lon="-0.78926">
        <ele>143.71</ele>
        <time>2020-06-27T12:39:29Z</time>
      </trkpt>
      <trkpt lat="48.39463" lon="-0.78931">
        <ele>143.71</ele>
        <time>2020-06-27T12:39:34Z</time>
      </trkpt>
      <trkpt lat="48.39467" lon="-0.78936">
        <ele>144.71</ele>
        <time>2020-06-27T12:39:39Z</time>
      </trkpt>
      <trkpt lat="48.39472" lon="-0.78942">
        <ele>145.71</ele>
        <time>2020-06-27T12:39:45Z</time>
      </trkpt>
      <trkpt lat="48.39478" lon="-0.78947">
        <ele>145.71</ele>
        <time>2020-06-27T12:39:51Z</time>
      </trkpt>
      <trkpt lat="48.39484" lon="-0.78953">
        <ele>146.71</ele>
        <time>2020-06-27T12:39:57Z</time>
      </trkpt>
      <trkpt lat="48.39489" lon="-0.78955">
        <ele>146.71</ele>
        <time>2020-06-27T12:40:02Z</time>
      </trkpt>
      <trkpt lat="48.39495" lon="-0.78957">
        <ele>147.71</ele>
        <time>2020-06-27T12:40:07Z</time>
      </trkpt>
      <trkpt lat="48.395" lon="-0.78957">
        <ele>148.71</ele>
        <time>2020-06-27T12:40:12Z</time>
      </trkpt>
      <trkpt lat="48.39505" lon="-0.78955">
        <ele>148.71</ele>
        <time>2020-06-27T12:40:18Z</time>
      </trkpt>
      <trkpt lat="48.3951" lon="-0.78953">
        <ele>145.71</ele>
        <time>2020-06-27T12:40:24Z</time>
      </trkpt>
      <trkpt lat="48.39511" lon="-0.78952">
        <ele>147.71</ele>
        <time>2020-06-27T12:40:30Z</time>
      </trkpt>
      <trkpt lat="48.39515" lon="-0.78953">
        <ele>147.71</ele>
        <time>2020-06-27T12:40:35Z</time>
      </trkpt>
      <trkpt lat="48.39518" lon="-0.78957">
        <ele>145.71</ele>
        <time>2020-06-27T12:40:41Z</time>
      </trkpt>
      <trkpt lat="48.3952" lon="-0.78958">
        <ele>143.71</ele>
        <time>2020-06-27T12:40:46Z</time>
      </trkpt>
      <trkpt lat="48.39525" lon="-0.7896">
        <ele>139.71</ele>
        <time>2020-06-27T12:40:52Z</time>
      </trkpt>
      <trkpt lat="48.39533" lon="-0.78962">
        <ele>140.71</ele>
        <time>2020-06-27T12:40:57Z</time>
      </trkpt>
      <trkpt lat="48.39539" lon="-0.78966">
        <ele>143.71</ele>
        <time>2020-06-27T12:41:03Z</time>
      </trkpt>
      <trkpt lat="48.39548" lon="-0.78971">
        <ele>146.71</ele>
        <time>2020-06-27T12:41:09Z</time>
      </trkpt>
      <trkpt lat="48.39557" lon="-0.78972">
        <ele>146.71</ele>
        <time>2020-06-27T12:41:15Z</time>
      </trkpt>
      <trkpt lat="48.39568" lon="-0.78971">
        <ele>149.71</ele>
        <time>2020-06-27T12:41:21Z</time>
      </trkpt>
      <trkpt lat="48.39574" lon="-0.78971">
        <ele>149.71</ele>
        <time>2020-06-27T12:41:27Z</time>
      </trkpt>
      <trkpt lat="48.39581" lon="-0.78971">
        <ele>149.71</ele>
        <time>2020-06-27T12:41:33Z</time>
      </trkpt>
      <trkpt lat="48.39587" lon="-0.7897">
        <ele>149.71</ele>
        <time>2020-06-27T12:41:39Z</time>
      </trkpt>
      <trkpt lat="48.39594" lon="-0.78969">
        <ele>148.71</ele>
        <time>2020-06-27T12:41:45Z</time>
      </trkpt>
      <trkpt lat="48.39598" lon="-0.78969">
        <ele>149.71</ele>
        <time>2020-06-27T12:41:51Z</time>
      </trkpt>
      <trkpt lat="48.39606" lon="-0.78968">
        <ele>151.71</ele>
        <time>2020-06-27T12:41:57Z</time>
      </trkpt>
      <trkpt lat="48.39613" lon="-0.78968">
        <ele>151.71</ele>
        <time>2020-06-27T12:42:03Z</time>
      </trkpt>
      <trkpt lat="48.39621" lon="-0.78965">
        <ele>154.71</ele>
        <time>2020-06-27T12:42:09Z</time>
      </trkpt>
      <trkpt lat="48.39627" lon="-0.78962">
        <ele>154.71</ele>
        <time>2020-06-27T12:42:15Z</time>
      </trkpt>
      <trkpt lat="48.39632" lon="-0.78957">
        <ele>155.71</ele>
        <time>2020-06-27T12:42:21Z</time>
      </trkpt>
      <trkpt lat="48.39636" lon="-0.78954">
        <ele>155.71</ele>
        <time>2020-06-27T12:42:27Z</time>
      </trkpt>
      <trkpt lat="48.39642" lon="-0.78951">
        <ele>154.71</ele>
        <time>2020-06-27T12:42:33Z</time>
      </trkpt>
      <trkpt lat="48.39647" lon="-0.7895">
        <ele>154.71</ele>
        <time>2020-06-27T12:42:39Z</time>
      </trkpt>
      <trkpt lat="48.39648" lon="-0.7895">
        <ele>154.71</ele>
        <time>2020-06-27T12:42:44Z</time>
      </trkpt>
      <trkpt lat="48.39654" lon="-0.78948">
        <ele>154.71</ele>
        <time>2020-06-27T12:42:49Z</time>
      </trkpt>
      <trkpt lat="48.39657" lon="-0.78946">
        <ele>154.71</ele>
        <time>2020-06-27T12:42:55Z</time>
      </trkpt>
      <trkpt lat="48.39661" lon="-0.78944">
        <ele>153.71</ele>
        <time>2020-06-27T12:43:00Z</time>
      </trkpt>
      <trkpt lat="48.39672" lon="-0.78937">
        <ele>152.71</ele>
        <time>2020-06-27T12:43:06Z</time>
      </trkpt>
      <trkpt lat="48.39679" lon="-0.78932">
        <ele>155.71</ele>
        <time>2020-06-27T12:43:11Z</time>
      </trkpt>
      <trkpt lat="48.39684" lon="-0.78926">
        <ele>156.71</ele>
        <time>2020-06-27T12:43:17Z</time>
      </trkpt>
      <trkpt lat="48.3969" lon="-0.78925">
        <ele>157.71</ele>
        <time>2020-06-27T12:43:23Z</time>
      </trkpt>
      <trkpt lat="48.39695" lon="-0.78929">
        <ele>157.71</ele>
        <time>2020-06-27T12:43:28Z</time>
      </trkpt>
      <trkpt lat="48.39698" lon="-0.78933">
        <ele>158.71</ele>
        <time>2020-06-27T12:43:34Z</time>
      </trkpt>
      <trkpt lat="48.39699" lon="-0.78932">
        <ele>158.71</ele>
        <time>2020-06-27T12:43:39Z</time>
      </trkpt>
      <trkpt lat="48.39704" lon="-0.78936">
        <ele>159.71</ele>
        <time>2020-06-27T12:43:45Z</time>
      </trkpt>
      <trkpt lat="48.3971" lon="-0.78942">
        <ele>158.71</ele>
        <time>2020-06-27T12:43:51Z</time>
      </trkpt>
      <trkpt lat="48.39714" lon="-0.7895">
        <ele>160.71</ele>
        <time>2020-06-27T12:43:57Z</time>
      </trkpt>
      <trkpt lat="48.39718" lon="-0.78957">
        <ele>160.71</ele>
        <time>2020-06-27T12:44:03Z</time>
      </trkpt>
      <trkpt lat="48.3972" lon="-0.78963">
        <ele>161.71</ele>
        <time>2020-06-27T12:44:08Z</time>
      </trkpt>
      <trkpt lat="48.39724" lon="-0.78971">
        <ele>160.71</ele>
        <time>2020-06-27T12:44:14Z</time>
      </trkpt>
      <trkpt lat="48.39727" lon="-0.78978">
        <ele>160.71</ele>
        <time>2020-06-27T12:44:19Z</time>
      </trkpt>
      <trkpt lat="48.39731" lon="-0.78982">
        <ele>160.71</ele>
        <time>2020-06-27T12:44:24Z</time>
      </trkpt>
      <trkpt lat="48.39738" lon="-0.78981">
        <ele>160.71</ele>
        <time>2020-06-27T12:44:30Z</time>
      </trkpt>
      <trkpt lat="48.39745" lon="-0.78978">
        <ele>160.71</ele>
        <time>2020-06-27T12:44:36Z</time>
      </trkpt>
      <trkpt lat="48.39751" lon="-0.78976">
        <ele>160.71</ele>
        <time>2020-06-27T12:44:42Z</time>
      </trkpt>
      <trkpt lat="48.39755" lon="-0.78974">
        <ele>159.71</ele>
        <time>2020-06-27T12:44:47Z</time>
      </trkpt>
      <trkpt lat="48.3976" lon="-0.78974">
        <ele>160.71</ele>
        <time>2020-06-27T12:44:53Z</time>
      </trkpt>
      <trkpt lat="48.39764" lon="-0.78973">
        <ele>158.71</ele>
        <time>2020-06-27T12:44:58Z</time>
      </trkpt>
      <trkpt lat="48.39771" lon="-0.78972">
        <ele>160.71</ele>
        <time>2020-06-27T12:45:03Z</time>
      </trkpt>
      <trkpt lat="48.39777" lon="-0.78972">
        <ele>160.71</ele>
        <time>2020-06-27T12:45:09Z</time>
      </trkpt>
      <trkpt lat="48.39783" lon="-0.7897">
        <ele>161.71</ele>
        <time>2020-06-27T12:45:14Z</time>
      </trkpt>
      <trkpt lat="48.39788" lon="-0.78972">
        <ele>162.71</ele>
        <time>2020-06-27T12:45:19Z</time>
      </trkpt>
      <trkpt lat="48.39795" lon="-0.78976">
        <ele>163.71</ele>
        <time>2020-06-27T12:45:25Z</time>
      </trkpt>
      <trkpt lat="48.39801" lon="-0.78978">
        <ele>163.71</ele>
        <time>2020-06-27T12:45:31Z</time>
      </trkpt>
      <trkpt lat="48.39808" lon="-0.78979">
        <ele>164.71</ele>
        <time>2020-06-27T12:45:37Z</time>
      </trkpt>
      <trkpt lat="48.39814" lon="-0.78978">
        <ele>165.71</ele>
        <time>2020-06-27T12:45:42Z</time>
      </trkpt>
      <trkpt lat="48.39821" lon="-0.78977">
        <ele>166.71</ele>
        <time>2020-06-27T12:45:48Z</time>
      </trkpt>
      <trkpt lat="48.39828" lon="-0.78976">
        <ele>166.71</ele>
        <time>2020-06-27T12:45:54Z</time>
      </trkpt>
      <trkpt lat="48.39834" lon="-0.78976">
        <ele>165.71</ele>
        <time>2020-06-27T12:46:00Z</time>
      </trkpt>
      <trkpt lat="48.3984" lon="-0.78975">
        <ele>164.71</ele>
        <time>2020-06-27T12:46:06Z</time>
      </trkpt>
      <trkpt lat="48.39845" lon="-0.78974">
        <ele>164.71</ele>
        <time>2020-06-27T12:46:12Z</time>
      </trkpt>
      <trkpt lat="48.39846" lon="-0.78973">
        <ele>164.71</ele>
        <time>2020-06-27T12:46:17Z</time>
      </trkpt>
      <trkpt lat="48.39846" lon="-0.78973">
        <ele>163.71</ele>
        <time>2020-06-27T12:46:23Z</time>
      </trkpt>
      <trkpt lat="48.39846" lon="-0.78973">
        <ele>163.71</ele>
        <time>2020-06-27T12:46:29Z</time>
      </trkpt>
      <trkpt lat="48.39846" lon="-0.78973">
        <ele>163.71</ele>
        <time>2020-06-27T12:46:35Z</time>
      </trkpt>
      <trkpt lat="48.39846" lon="-0.78973">
        <ele>163.71</ele>
        <time>2020-06-27T12:46:41Z</time>
      </trkpt>
      <trkpt lat="48.39849" lon="-0.78972">
        <ele>162.71</ele>
        <time>2020-06-27T12:46:46Z</time>
      </trkpt>
      <trkpt lat="48.39854" lon="-0.78972">
        <ele>161.71</ele>
        <time>2020-06-27T12:46:51Z</time>
      </trkpt>
      <trkpt lat="48.39859" lon="-0.78974">
        <ele>163.71</ele>
        <time>2020-06-27T12:46:57Z</time>
      </trkpt>
      <trkpt lat="48.39862" lon="-0.78978">
        <ele>163.71</ele>
        <time>2020-06-27T12:47:02Z</time>
      </trkpt>
      <trkpt lat="48.39865" lon="-0.78984">
        <ele>163.71</ele>
        <time>2020-06-27T12:47:08Z</time>
      </trkpt>
      <trkpt lat="48.39868" lon="-0.78994">
        <ele>164.71</ele>
        <time>2020-06-27T12:47:14Z</time>
      </trkpt>
      <trkpt lat="48.39872" lon="-0.79002">
        <ele>164.71</ele>
        <time>2020-06-27T12:47:19Z</time>
      </trkpt>
      <trkpt lat="48.39876" lon="-0.79007">
        <ele>164.71</ele>
        <time>2020-06-27T12:47:25Z</time>
      </trkpt>
      <trkpt lat="48.39878" lon="-0.7901">
        <ele>165.71</ele>
        <time>2020-06-27T12:47:30Z</time>
      </trkpt>
      <trkpt lat="48.39882" lon="-0.79013">
        <ele>166.71</ele>
        <time>2020-06-27T12:47:35Z</time>
      </trkpt>
      <trkpt lat="48.39886" lon="-0.79013">
        <ele>164.71</ele>
        <time>2020-06-27T12:47:41Z</time>
      </trkpt>
      <trkpt lat="48.39886" lon="-0.79011">
        <ele>163.71</ele>
        <time>2020-06-27T12:47:47Z</time>
      </trkpt>
      <trkpt lat="48.39885" lon="-0.79012">
        <ele>163.71</ele>
        <time>2020-06-27T12:47:52Z</time>
      </trkpt>
      <trkpt lat="48.39887" lon="-0.7901">
        <ele>163.71</ele>
        <time>2020-06-27T12:47:58Z</time>
      </trkpt>
      <trkpt lat="48.39889" lon="-0.79003">
        <ele>160.71</ele>
        <time>2020-06-27T12:48:04Z</time>
      </trkpt>
      <trkpt lat="48.39891" lon="-0.78997">
        <ele>160.71</ele>
        <time>2020-06-27T12:48:10Z</time>
      </trkpt>
      <trkpt lat="48.39892" lon="-0.78988">
        <ele>159.71</ele>
        <time>2020-06-27T12:48:15Z</time>
      </trkpt>
      <trkpt lat="48.39891" lon="-0.78981">
        <ele>159.71</ele>
        <time>2020-06-27T12:48:21Z</time>
      </trkpt>
      <trkpt lat="48.3989" lon="-0.78979">
        <ele>159.71</ele>
        <time>2020-06-27T12:48:26Z</time>
      </trkpt>
      <trkpt lat="48.39891" lon="-0.78978">
        <ele>159.71</ele>
        <time>2020-06-27T12:48:32Z</time>
      </trkpt>
      <trkpt lat="48.39891" lon="-0.78978">
        <ele>159.71</ele>
        <time>2020-06-27T12:48:38Z</time>
      </trkpt>
      <trkpt lat="48.39891" lon="-0.78978">
        <ele>159.71</ele>
        <time>2020-06-27T12:48:43Z</time>
      </trkpt>
      <trkpt lat="48.39891" lon="-0.78978">
        <ele>159.71</ele>
        <time>2020-06-27T12:48:48Z</time>
      </trkpt>
      <trkpt lat="48.3989" lon="-0.78978">
        <ele>159.71</ele>
        <time>2020-06-27T12:48:54Z</time>
      </trkpt>
      <trkpt lat="48.3989" lon="-0.78978">
        <ele>159.71</ele>
        <time>2020-06-27T12:48:59Z</time>
      </trkpt>
      <trkpt lat="48.3989" lon="-0.78978">
        <ele>159.71</ele>
        <time>2020-06-27T12:49:05Z</time>
      </trkpt>
      <trkpt lat="48.3989" lon="-0.78978">
        <ele>159.71</ele>
        <time>2020-06-27T12:49:11Z</time>
      </trkpt>
      <trkpt lat="48.3989" lon="-0.78978">
        <ele>159.71</ele>
        <time>2020-06-27T12:49:17Z</time>
      </trkpt>
      <trkpt lat="48.3989" lon="-0.78978">
        <ele>159.71</ele>
        <time>2020-06-27T12:49:22Z</time>
      </trkpt>
      <trkpt lat="48.3989" lon="-0.78978">
        <ele>159.71</ele>
        <time>2020-06-27T12:49:28Z</time>
      </trkpt>
      <trkpt lat="48.3989" lon="-0.78978">
        <ele>159.71</ele>
        <time>2020-06-27T12:49:33Z</time>
      </trkpt>
      <trkpt lat="48.3989" lon="-0.78978">
        <ele>159.71</ele>
        <time>2020-06-27T12:49:39Z</time>
      </trkpt>
      <trkpt lat="48.3989" lon="-0.78978">
        <ele>159.71</ele>
        <time>2020-06-27T12:49:44Z</time>
      </trkpt>
      <trkpt lat="48.3989" lon="-0.78978">
        <ele>159.71</ele>
        <time>2020-06-27T12:49:49Z</time>
      </trkpt>
      <trkpt lat="48.3989" lon="-0.78978">
        <ele>159.71</ele>
        <time>2020-06-27T12:49:55Z</time>
      </trkpt>
      <trkpt lat="48.3989" lon="-0.78978">
        <ele>159.71</ele>
        <time>2020-06-27T12:50:00Z</time>
      </trkpt>
      <trkpt lat="48.39895" lon="-0.78982">
        <ele>160.71</ele>
        <time>2020-06-27T12:50:05Z</time>
      </trkpt>
      <trkpt lat="48.39899" lon="-0.78988">
        <ele>162.71</ele>
        <time>2020-06-27T12:50:11Z</time>
      </trkpt>
      <trkpt lat="48.39903" lon="-0.78992">
        <ele>164.71</ele>
        <time>2020-06-27T12:50:16Z</time>
      </trkpt>
      <trkpt lat="48.39905" lon="-0.78993">
        <ele>164.71</ele>
        <time>2020-06-27T12:50:21Z</time>
      </trkpt>
      <trkpt lat="48.39905" lon="-0.78993">
        <ele>165.71</ele>
        <time>2020-06-27T12:50:26Z</time>
      </trkpt>
      <trkpt lat="48.39905" lon="-0.78993">
        <ele>165.71</ele>
        <time>2020-06-27T12:50:31Z</time>
      </trkpt>
      <trkpt lat="48.39905" lon="-0.78993">
        <ele>165.71</ele>
        <time>2020-06-27T12:50:37Z</time>
      </trkpt>
      <trkpt lat="48.39905" lon="-0.78993">
        <ele>165.71</ele>
        <time>2020-06-27T12:50:42Z</time>
      </trkpt>
      <trkpt lat="48.39905" lon="-0.78993">
        <ele>165.71</ele>
        <time>2020-06-27T12:50:48Z</time>
      </trkpt>
      <trkpt lat="48.39905" lon="-0.78993">
        <ele>165.71</ele>
        <time>2020-06-27T12:50:54Z</time>
      </trkpt>
      <trkpt lat="48.39905" lon="-0.78993">
        <ele>165.71</ele>
        <time>2020-06-27T12:51:00Z</time>
      </trkpt>
      <trkpt lat="48.39905" lon="-0.78993">
        <ele>165.71</ele>
        <time>2020-06-27T12:51:05Z</time>
      </trkpt>
      <trkpt lat="48.39905" lon="-0.78993">
        <ele>165.71</ele>
        <time>2020-06-27T12:51:11Z</time>
      </trkpt>
      <trkpt lat="48.39905" lon="-0.78993">
        <ele>165.71</ele>
        <time>2020-06-27T12:51:17Z</time>
      </trkpt>
      <trkpt lat="48.39905" lon="-0.78993">
        <ele>165.71</ele>
        <time>2020-06-27T12:51:22Z</time>
      </trkpt>
      <trkpt lat="48.39905" lon="-0.78993">
        <ele>165.71</ele>
        <time>2020-06-27T12:51:27Z</time>
      </trkpt>
      <trkpt lat="48.39905" lon="-0.78993">
        <ele>165.71</ele>
        <time>2020-06-27T12:51:33Z</time>
      </trkpt>
      <trkpt lat="48.39905" lon="-0.78993">
        <ele>165.71</ele>
        <time>2020-06-27T12:51:38Z</time>
      </trkpt>
      <trkpt lat="48.39905" lon="-0.78993">
        <ele>165.71</ele>
        <time>2020-06-27T12:51:43Z</time>
      </trkpt>
      <trkpt lat="48.39905" lon="-0.78993">
        <ele>165.71</ele>
        <time>2020-06-27T12:51:48Z</time>
      </trkpt>
      <trkpt lat="48.39905" lon="-0.78993">
        <ele>165.71</ele>
        <time>2020-06-27T12:51:54Z</time>
      </trkpt>
      <trkpt lat="48.39905" lon="-0.78993">
        <ele>165.71</ele>
        <time>2020-06-27T12:51:59Z</time>
      </trkpt>
      <trkpt lat="48.39905" lon="-0.78993">
        <ele>165.71</ele>
        <time>2020-06-27T12:52:05Z</time>
      </trkpt>
      <trkpt lat="48.39905" lon="-0.78993">
        <ele>165.71</ele>
        <time>2020-06-27T12:52:11Z</time>
      </trkpt>
      <trkpt lat="48.39905" lon="-0.78993">
        <ele>165.71</ele>
        <time>2020-06-27T12:52:16Z</time>
      </trkpt>
      <trkpt lat="48.39905" lon="-0.78993">
        <ele>165.71</ele>
        <time>2020-06-27T12:52:22Z</time>
      </trkpt>
      <trkpt lat="48.39905" lon="-0.78993">
        <ele>165.71</ele>
        <time>2020-06-27T12:52:28Z</time>
      </trkpt>
      <trkpt lat="48.39905" lon="-0.78993">
        <ele>165.71</ele>
        <time>2020-06-27T12:52:34Z</time>
      </trkpt>
      <trkpt lat="48.39905" lon="-0.78993">
        <ele>165.71</ele>
        <time>2020-06-27T12:52:39Z</time>
      </trkpt>
      <trkpt lat="48.39905" lon="-0.78993">
        <ele>165.71</ele>
        <time>2020-06-27T12:52:44Z</time>
      </trkpt>
      <trkpt lat="48.39905" lon="-0.78993">
        <ele>165.71</ele>
        <time>2020-06-27T12:52:50Z</time>
      </trkpt>
      <trkpt lat="48.39905" lon="-0.78993">
        <ele>165.71</ele>
        <time>2020-06-27T12:52:56Z</time>
      </trkpt>
      <trkpt lat="48.39905" lon="-0.78993">
        <ele>165.71</ele>
        <time>2020-06-27T12:53:01Z</time>
      </trkpt>
      <trkpt lat="48.39905" lon="-0.78993">
        <ele>165.71</ele>
        <time>2020-06-27T12:53:07Z</time>
      </trkpt>
      <trkpt lat="48.39905" lon="-0.78993">
        <ele>165.71</ele>
        <time>2020-06-27T12:53:12Z</time>
      </trkpt>
      <trkpt lat="48.39905" lon="-0.78993">
        <ele>165.71</ele>
        <time>2020-06-27T12:53:17Z</time>
      </trkpt>
      <trkpt lat="48.39905" lon="-0.78993">
        <ele>165.71</ele>
        <time>2020-06-27T12:53:23Z</time>
      </trkpt>
      <trkpt lat="48.39905" lon="-0.78993">
        <ele>165.71</ele>
        <time>2020-06-27T12:53:28Z</time>
      </trkpt>
      <trkpt lat="48.39905" lon="-0.78993">
        <ele>165.71</ele>
        <time>2020-06-27T12:53:34Z</time>
      </trkpt>
      <trkpt lat="48.39905" lon="-0.78993">
        <ele>165.71</ele>
        <time>2020-06-27T12:53:40Z</time>
      </trkpt>
      <trkpt lat="48.39905" lon="-0.78993">
        <ele>165.71</ele>
        <time>2020-06-27T12:53:46Z</time>
      </trkpt>
      <trkpt lat="48.39905" lon="-0.78993">
        <ele>165.71</ele>
        <time>2020-06-27T12:53:51Z</time>
      </trkpt>
      <trkpt lat="48.39905" lon="-0.78993">
        <ele>165.71</ele>
        <time>2020-06-27T12:53:57Z</time>
      </trkpt>
      <trkpt lat="48.39905" lon="-0.78993">
        <ele>165.71</ele>
        <time>2020-06-27T12:54:02Z</time>
      </trkpt>
      <trkpt lat="48.39905" lon="-0.78993">
        <ele>165.71</ele>
        <time>2020-06-27T12:54:08Z</time>
      </trkpt>
      <trkpt lat="48.39905" lon="-0.78993">
        <ele>165.71</ele>
        <time>2020-06-27T12:54:14Z</time>
      </trkpt>
      <trkpt lat="48.39905" lon="-0.78993">
        <ele>165.71</ele>
        <time>2020-06-27T12:54:20Z</time>
      </trkpt>
      <trkpt lat="48.39905" lon="-0.78993">
        <ele>165.71</ele>
        <time>2020-06-27T12:54:25Z</time>
      </trkpt>
      <trkpt lat="48.39905" lon="-0.78993">
        <ele>165.71</ele>
        <time>2020-06-27T12:54:31Z</time>
      </trkpt>
      <trkpt lat="48.39905" lon="-0.78993">
        <ele>165.71</ele>
        <time>2020-06-27T12:54:37Z</time>
      </trkpt>
      <trkpt lat="48.39905" lon="-0.78993">
        <ele>165.71</ele>
        <time>2020-06-27T12:54:43Z</time>
      </trkpt>
      <trkpt lat="48.39905" lon="-0.78993">
        <ele>165.71</ele>
        <time>2020-06-27T12:54:48Z</time>
      </trkpt>
      <trkpt lat="48.39905" lon="-0.78993">
        <ele>165.71</ele>
        <time>2020-06-27T12:54:54Z</time>
      </trkpt>
      <trkpt lat="48.39905" lon="-0.78993">
        <ele>165.71</ele>
        <time>2020-06-27T12:55:00Z</time>
      </trkpt>
      <trkpt lat="48.39905" lon="-0.78993">
        <ele>165.71</ele>
        <time>2020-06-27T12:55:05Z</time>
      </trkpt>
      <trkpt lat="48.39905" lon="-0.78993">
        <ele>165.71</ele>
        <time>2020-06-27T12:55:11Z</time>
      </trkpt>
      <trkpt lat="48.39905" lon="-0.78993">
        <ele>165.71</ele>
        <time>2020-06-27T12:55:17Z</time>
      </trkpt>
      <trkpt lat="48.39905" lon="-0.78993">
        <ele>165.71</ele>
        <time>2020-06-27T12:55:23Z</time>
      </trkpt>
      <trkpt lat="48.39905" lon="-0.78993">
        <ele>165.71</ele>
        <time>2020-06-27T12:55:28Z</time>
      </trkpt>
      <trkpt lat="48.39905" lon="-0.78993">
        <ele>165.71</ele>
        <time>2020-06-27T12:55:33Z</time>
      </trkpt>
      <trkpt lat="48.39905" lon="-0.78993">
        <ele>165.71</ele>
        <time>2020-06-27T12:55:39Z</time>
      </trkpt>
      <trkpt lat="48.39905" lon="-0.78993">
        <ele>165.71</ele>
        <time>2020-06-27T12:55:45Z</time>
      </trkpt>
      <trkpt lat="48.39905" lon="-0.78993">
        <ele>165.71</ele>
        <time>2020-06-27T12:55:51Z</time>
      </trkpt>
      <trkpt lat="48.39905" lon="-0.78993">
        <ele>165.71</ele>
        <time>2020-06-27T12:55:57Z</time>
      </trkpt>
      <trkpt lat="48.39905" lon="-0.78993">
        <ele>165.71</ele>
        <time>2020-06-27T12:56:03Z</time>
      </trkpt>
      <trkpt lat="48.39905" lon="-0.78993">
        <ele>165.71</ele>
        <time>2020-06-27T12:56:09Z</time>
      </trkpt>
      <trkpt lat="48.39905" lon="-0.78993">
        <ele>165.71</ele>
        <time>2020-06-27T12:56:14Z</time>
      </trkpt>
      <trkpt lat="48.39905" lon="-0.78993">
        <ele>165.71</ele>
        <time>2020-06-27T12:56:20Z</time>
      </trkpt>
      <trkpt lat="48.39905" lon="-0.78993">
        <ele>165.71</ele>
        <time>2020-06-27T12:56:25Z</time>
      </trkpt>
      <trkpt lat="48.39905" lon="-0.78993">
        <ele>165.71</ele>
        <time>2020-06-27T12:56:30Z</time>
      </trkpt>
      <trkpt lat="48.39905" lon="-0.78993">
        <ele>165.71</ele>
        <time>2020-06-27T12:56:35Z</time>
      </trkpt>
      <trkpt lat="48.39905" lon="-0.78993">
        <ele>165.71</ele>
        <time>2020-06-27T12:56:41Z</time>
      </trkpt>
      <trkpt lat="48.39905" lon="-0.78993">
        <ele>165.71</ele>
        <time>2020-06-27T12:56:47Z</time>
      </trkpt>
      <trkpt lat="48.39905" lon="-0.78993">
        <ele>165.71</ele>
        <time>2020-06-27T12:56:52Z</time>
      </trkpt>
      <trkpt lat="48.39905" lon="-0.78993">
        <ele>165.71</ele>
        <time>2020-06-27T12:56:57Z</time>
      </trkpt>
      <trkpt lat="48.39905" lon="-0.78993">
        <ele>165.71</ele>
        <time>2020-06-27T12:57:03Z</time>
      </trkpt>
      <trkpt lat="48.39905" lon="-0.78993">
        <ele>165.71</ele>
        <time>2020-06-27T12:57:08Z</time>
      </trkpt>
      <trkpt lat="48.39905" lon="-0.78993">
        <ele>165.71</ele>
        <time>2020-06-27T12:57:14Z</time>
      </trkpt>
      <trkpt lat="48.39905" lon="-0.78993">
        <ele>165.71</ele>
        <time>2020-06-27T12:57:19Z</time>
      </trkpt>
      <trkpt lat="48.39905" lon="-0.78993">
        <ele>165.71</ele>
        <time>2020-06-27T12:57:25Z</time>
      </trkpt>
      <trkpt lat="48.39905" lon="-0.78993">
        <ele>165.71</ele>
        <time>2020-06-27T12:57:30Z</time>
      </trkpt>
      <trkpt lat="48.39905" lon="-0.78993">
        <ele>165.71</ele>
        <time>2020-06-27T12:57:35Z</time>
      </trkpt>
      <trkpt lat="48.39905" lon="-0.78993">
        <ele>165.71</ele>
        <time>2020-06-27T12:57:40Z</time>
      </trkpt>
      <trkpt lat="48.39905" lon="-0.78993">
        <ele>165.71</ele>
        <time>2020-06-27T12:57:46Z</time>
      </trkpt>
      <trkpt lat="48.39905" lon="-0.78993">
        <ele>165.71</ele>
        <time>2020-06-27T12:57:52Z</time>
      </trkpt>
      <trkpt lat="48.39905" lon="-0.78993">
        <ele>165.71</ele>
        <time>2020-06-27T12:57:57Z</time>
      </trkpt>
      <trkpt lat="48.39905" lon="-0.78993">
        <ele>165.71</ele>
        <time>2020-06-27T12:58:02Z</time>
      </trkpt>
      <trkpt lat="48.39905" lon="-0.78993">
        <ele>165.71</ele>
        <time>2020-06-27T12:58:07Z</time>
      </trkpt>
      <trkpt lat="48.39905" lon="-0.78993">
        <ele>165.71</ele>
        <time>2020-06-27T12:58:12Z</time>
      </trkpt>
      <trkpt lat="48.39905" lon="-0.78993">
        <ele>165.71</ele>
        <time>2020-06-27T12:58:18Z</time>
      </trkpt>
      <trkpt lat="48.39905" lon="-0.78993">
        <ele>165.71</ele>
        <time>2020-06-27T12:58:24Z</time>
      </trkpt>
      <trkpt lat="48.39905" lon="-0.78993">
        <ele>165.71</ele>
        <time>2020-06-27T12:58:29Z</time>
      </trkpt>
      <trkpt lat="48.39905" lon="-0.78993">
        <ele>165.71</ele>
        <time>2020-06-27T12:58:35Z</time>
      </trkpt>
      <trkpt lat="48.39905" lon="-0.78993">
        <ele>165.71</ele>
        <time>2020-06-27T12:58:41Z</time>
      </trkpt>
      <trkpt lat="48.39905" lon="-0.78993">
        <ele>165.71</ele>
        <time>2020-06-27T12:58:46Z</time>
      </trkpt>
      <trkpt lat="48.39905" lon="-0.78993">
        <ele>165.71</ele>
        <time>2020-06-27T12:58:52Z</time>
      </trkpt>
      <trkpt lat="48.39905" lon="-0.78993">
        <ele>165.71</ele>
        <time>2020-06-27T12:58:58Z</time>
      </trkpt>
      <trkpt lat="48.39905" lon="-0.78993">
        <ele>165.71</ele>
        <time>2020-06-27T12:59:04Z</time>
      </trkpt>
      <trkpt lat="48.39905" lon="-0.78993">
        <ele>165.71</ele>
        <time>2020-06-27T12:59:09Z</time>
      </trkpt>
      <trkpt lat="48.39905" lon="-0.78993">
        <ele>165.71</ele>
        <time>2020-06-27T12:59:15Z</time>
      </trkpt>
      <trkpt lat="48.39905" lon="-0.78993">
        <ele>165.71</ele>
        <time>2020-06-27T12:59:20Z</time>
      </trkpt>
      <trkpt lat="48.39905" lon="-0.78993">
        <ele>165.71</ele>
        <time>2020-06-27T12:59:26Z</time>
      </trkpt>
      <trkpt lat="48.39905" lon="-0.78993">
        <ele>165.71</ele>
        <time>2020-06-27T12:59:31Z</time>
      </trkpt>
      <trkpt lat="48.39905" lon="-0.78993">
        <ele>165.71</ele>
        <time>2020-06-27T12:59:37Z</time>
      </trkpt>
      <trkpt lat="48.39905" lon="-0.78993">
        <ele>165.71</ele>
        <time>2020-06-27T12:59:42Z</time>
      </trkpt>
      <trkpt lat="48.39905" lon="-0.78993">
        <ele>165.71</ele>
        <time>2020-06-27T12:59:48Z</time>
      </trkpt>
      <trkpt lat="48.39905" lon="-0.78993">
        <ele>165.71</ele>
        <time>2020-06-27T12:59:53Z</time>
      </trkpt>
      <trkpt lat="48.39905" lon="-0.78993">
        <ele>165.71</ele>
        <time>2020-06-27T12:59:59Z</time>
      </trkpt>
      <trkpt lat="48.39905" lon="-0.78993">
        <ele>165.71</ele>
        <time>2020-06-27T13:00:04Z</time>
      </trkpt>
      <trkpt lat="48.39905" lon="-0.78993">
        <ele>165.71</ele>
        <time>2020-06-27T13:00:10Z</time>
      </trkpt>
      <trkpt lat="48.39905" lon="-0.78993">
        <ele>165.71</ele>
        <time>2020-06-27T13:00:15Z</time>
      </trkpt>
      <trkpt lat="48.39905" lon="-0.78993">
        <ele>165.71</ele>
        <time>2020-06-27T13:00:20Z</time>
      </trkpt>
      <trkpt lat="48.39905" lon="-0.78993">
        <ele>165.71</ele>
        <time>2020-06-27T13:00:26Z</time>
      </trkpt>
      <trkpt lat="48.39905" lon="-0.78993">
        <ele>165.71</ele>
        <time>2020-06-27T13:00:32Z</time>
      </trkpt>
      <trkpt lat="48.39905" lon="-0.78993">
        <ele>165.71</ele>
        <time>2020-06-27T13:00:38Z</time>
      </trkpt>
      <trkpt lat="48.39905" lon="-0.78993">
        <ele>165.71</ele>
        <time>2020-06-27T13:00:43Z</time>
      </trkpt>
      <trkpt lat="48.39905" lon="-0.78993">
        <ele>165.71</ele>
        <time>2020-06-27T13:00:48Z</time>
      </trkpt>
      <trkpt lat="48.39905" lon="-0.78993">
        <ele>165.71</ele>
        <time>2020-06-27T13:00:54Z</time>
      </trkpt>
      <trkpt lat="48.39905" lon="-0.78993">
        <ele>165.71</ele>
        <time>2020-06-27T13:01:00Z</time>
      </trkpt>
      <trkpt lat="48.39905" lon="-0.78993">
        <ele>165.71</ele>
        <time>2020-06-27T13:01:05Z</time>
      </trkpt>
      <trkpt lat="48.39905" lon="-0.78993">
        <ele>165.71</ele>
        <time>2020-06-27T13:01:11Z</time>
      </trkpt>
      <trkpt lat="48.39905" lon="-0.78993">
        <ele>165.71</ele>
        <time>2020-06-27T13:01:17Z</time>
      </trkpt>
      <trkpt lat="48.39905" lon="-0.78993">
        <ele>165.71</ele>
        <time>2020-06-27T13:01:22Z</time>
      </trkpt>
      <trkpt lat="48.39905" lon="-0.78993">
        <ele>165.71</ele>
        <time>2020-06-27T13:01:28Z</time>
      </trkpt>
      <trkpt lat="48.39905" lon="-0.78993">
        <ele>165.71</ele>
        <time>2020-06-27T13:01:34Z</time>
      </trkpt>
      <trkpt lat="48.39905" lon="-0.78993">
        <ele>165.71</ele>
        <time>2020-06-27T13:01:39Z</time>
      </trkpt>
      <trkpt lat="48.39905" lon="-0.78993">
        <ele>165.71</ele>
        <time>2020-06-27T13:01:45Z</time>
      </trkpt>
      <trkpt lat="48.39905" lon="-0.78993">
        <ele>165.71</ele>
        <time>2020-06-27T13:01:50Z</time>
      </trkpt>
      <trkpt lat="48.39905" lon="-0.78993">
        <ele>165.71</ele>
        <time>2020-06-27T13:01:56Z</time>
      </trkpt>
      <trkpt lat="48.39905" lon="-0.78993">
        <ele>165.71</ele>
        <time>2020-06-27T13:02:01Z</time>
      </trkpt>
      <trkpt lat="48.39905" lon="-0.78993">
        <ele>165.71</ele>
        <time>2020-06-27T13:02:06Z</time>
      </trkpt>
      <trkpt lat="48.39905" lon="-0.78993">
        <ele>165.71</ele>
        <time>2020-06-27T13:02:12Z</time>
      </trkpt>
      <trkpt lat="48.39905" lon="-0.78993">
        <ele>165.71</ele>
        <time>2020-06-27T13:02:17Z</time>
      </trkpt>
      <trkpt lat="48.39905" lon="-0.78993">
        <ele>165.71</ele>
        <time>2020-06-27T13:02:22Z</time>
      </trkpt>
      <trkpt lat="48.39905" lon="-0.78993">
        <ele>165.71</ele>
        <time>2020-06-27T13:02:28Z</time>
      </trkpt>
      <trkpt lat="48.39905" lon="-0.78993">
        <ele>165.71</ele>
        <time>2020-06-27T13:02:33Z</time>
      </trkpt>
      <trkpt lat="48.39905" lon="-0.78993">
        <ele>165.71</ele>
        <time>2020-06-27T13:02:39Z</time>
      </trkpt>
      <trkpt lat="48.39905" lon="-0.78993">
        <ele>165.71</ele>
        <time>2020-06-27T13:02:45Z</time>
      </trkpt>
      <trkpt lat="48.39905" lon="-0.78993">
        <ele>165.71</ele>
        <time>2020-06-27T13:02:50Z</time>
      </trkpt>
      <trkpt lat="48.39905" lon="-0.78993">
        <ele>165.71</ele>
        <time>2020-06-27T13:02:55Z</time>
      </trkpt>
      <trkpt lat="48.39905" lon="-0.78993">
        <ele>165.71</ele>
        <time>2020-06-27T13:03:01Z</time>
      </trkpt>
      <trkpt lat="48.39905" lon="-0.78993">
        <ele>165.71</ele>
        <time>2020-06-27T13:03:06Z</time>
      </trkpt>
      <trkpt lat="48.39905" lon="-0.78993">
        <ele>165.71</ele>
        <time>2020-06-27T13:03:12Z</time>
      </trkpt>
      <trkpt lat="48.39905" lon="-0.78993">
        <ele>165.71</ele>
        <time>2020-06-27T13:03:18Z</time>
      </trkpt>
      <trkpt lat="48.39905" lon="-0.78993">
        <ele>165.71</ele>
        <time>2020-06-27T13:03:23Z</time>
      </trkpt>
      <trkpt lat="48.39905" lon="-0.78993">
        <ele>165.71</ele>
        <time>2020-06-27T13:03:29Z</time>
      </trkpt>
      <trkpt lat="48.39905" lon="-0.78993">
        <ele>165.71</ele>
        <time>2020-06-27T13:03:35Z</time>
      </trkpt>
      <trkpt lat="48.39905" lon="-0.78993">
        <ele>165.71</ele>
        <time>2020-06-27T13:03:41Z</time>
      </trkpt>
      <trkpt lat="48.39905" lon="-0.78993">
        <ele>165.71</ele>
        <time>2020-06-27T13:03:46Z</time>
      </trkpt>
      <trkpt lat="48.39905" lon="-0.78993">
        <ele>165.71</ele>
        <time>2020-06-27T13:03:52Z</time>
      </trkpt>
      <trkpt lat="48.39905" lon="-0.78993">
        <ele>165.71</ele>
        <time>2020-06-27T13:03:58Z</time>
      </trkpt>
      <trkpt lat="48.39905" lon="-0.78993">
        <ele>165.71</ele>
        <time>2020-06-27T13:04:04Z</time>
      </trkpt>
      <trkpt lat="48.39905" lon="-0.78993">
        <ele>165.71</ele>
        <time>2020-06-27T13:04:10Z</time>
      </trkpt>
      <trkpt lat="48.39905" lon="-0.78993">
        <ele>165.71</ele>
        <time>2020-06-27T13:04:15Z</time>
      </trkpt>
      <trkpt lat="48.39906" lon="-0.78997">
        <ele>165.71</ele>
        <time>2020-06-27T13:04:21Z</time>
      </trkpt>
      <trkpt lat="48.39902" lon="-0.78994">
        <ele>165.71</ele>
        <time>2020-06-27T13:04:26Z</time>
      </trkpt>
      <trkpt lat="48.39898" lon="-0.78988">
        <ele>164.71</ele>
        <time>2020-06-27T13:04:32Z</time>
      </trkpt>
      <trkpt lat="48.39893" lon="-0.78982">
        <ele>164.71</ele>
        <time>2020-06-27T13:04:38Z</time>
      </trkpt>
      <trkpt lat="48.39892" lon="-0.7898">
        <ele>164.71</ele>
        <time>2020-06-27T13:04:44Z</time>
      </trkpt>
      <trkpt lat="48.39892" lon="-0.7898">
        <ele>164.71</ele>
        <time>2020-06-27T13:04:50Z</time>
      </trkpt>
      <trkpt lat="48.39892" lon="-0.7898">
        <ele>164.71</ele>
        <time>2020-06-27T13:04:55Z</time>
      </trkpt>
      <trkpt lat="48.39892" lon="-0.7898">
        <ele>164.71</ele>
        <time>2020-06-27T13:05:01Z</time>
      </trkpt>
      <trkpt lat="48.39892" lon="-0.7898">
        <ele>164.71</ele>
        <time>2020-06-27T13:05:06Z</time>
      </trkpt>
      <trkpt lat="48.39892" lon="-0.7898">
        <ele>164.71</ele>
        <time>2020-06-27T13:05:12Z</time>
      </trkpt>
      <trkpt lat="48.39892" lon="-0.7898">
        <ele>164.71</ele>
        <time>2020-06-27T13:05:17Z</time>
      </trkpt>
      <trkpt lat="48.39892" lon="-0.7898">
        <ele>164.71</ele>
        <time>2020-06-27T13:05:22Z</time>
      </trkpt>
      <trkpt lat="48.39892" lon="-0.7898">
        <ele>164.71</ele>
        <time>2020-06-27T13:05:27Z</time>
      </trkpt>
      <trkpt lat="48.39892" lon="-0.7898">
        <ele>164.71</ele>
        <time>2020-06-27T13:05:32Z</time>
      </trkpt>
      <trkpt lat="48.39892" lon="-0.7898">
        <ele>164.71</ele>
        <time>2020-06-27T13:05:37Z</time>
      </trkpt>
      <trkpt lat="48.39892" lon="-0.7898">
        <ele>164.71</ele>
        <time>2020-06-27T13:05:43Z</time>
      </trkpt>
      <trkpt lat="48.39891" lon="-0.78979">
        <ele>165.71</ele>
        <time>2020-06-27T13:05:48Z</time>
      </trkpt>
      <trkpt lat="48.39895" lon="-0.78983">
        <ele>166.71</ele>
        <time>2020-06-27T13:05:54Z</time>
      </trkpt>
      <trkpt lat="48.39895" lon="-0.78993">
        <ele>165.71</ele>
        <time>2020-06-27T13:05:59Z</time>
      </trkpt>
      <trkpt lat="48.39893" lon="-0.79002">
        <ele>166.71</ele>
        <time>2020-06-27T13:06:04Z</time>
      </trkpt>
      <trkpt lat="48.39894" lon="-0.79011">
        <ele>166.71</ele>
        <time>2020-06-27T13:06:10Z</time>
      </trkpt>
      <trkpt lat="48.39896" lon="-0.7902">
        <ele>166.71</ele>
        <time>2020-06-27T13:06:16Z</time>
      </trkpt>
      <trkpt lat="48.39898" lon="-0.79023">
        <ele>166.71</ele>
        <time>2020-06-27T13:06:22Z</time>
      </trkpt>
      <trkpt lat="48.39903" lon="-0.79023">
        <ele>166.71</ele>
        <time>2020-06-27T13:06:27Z</time>
      </trkpt>
      <trkpt lat="48.39904" lon="-0.7902">
        <ele>166.71</ele>
        <time>2020-06-27T13:06:33Z</time>
      </trkpt>
      <trkpt lat="48.39905" lon="-0.79018">
        <ele>166.71</ele>
        <time>2020-06-27T13:06:39Z</time>
      </trkpt>
      <trkpt lat="48.39907" lon="-0.79017">
        <ele>166.71</ele>
        <time>2020-06-27T13:06:44Z</time>
      </trkpt>
      <trkpt lat="48.3991" lon="-0.79018">
        <ele>166.71</ele>
        <time>2020-06-27T13:06:50Z</time>
      </trkpt>
      <trkpt lat="48.39913" lon="-0.79021">
        <ele>166.71</ele>
        <time>2020-06-27T13:06:56Z</time>
      </trkpt>
      <trkpt lat="48.39915" lon="-0.79027">
        <ele>166.71</ele>
        <time>2020-06-27T13:07:02Z</time>
      </trkpt>
      <trkpt lat="48.39919" lon="-0.79029">
        <ele>165.71</ele>
        <time>2020-06-27T13:07:08Z</time>
      </trkpt>
      <trkpt lat="48.39922" lon="-0.79033">
        <ele>166.71</ele>
        <time>2020-06-27T13:07:13Z</time>
      </trkpt>
      <trkpt lat="48.39926" lon="-0.79035">
        <ele>166.71</ele>
        <time>2020-06-27T13:07:19Z</time>
      </trkpt>
      <trkpt lat="48.3993" lon="-0.79039">
        <ele>168.71</ele>
        <time>2020-06-27T13:07:24Z</time>
      </trkpt>
      <trkpt lat="48.39933" lon="-0.79045">
        <ele>169.71</ele>
        <time>2020-06-27T13:07:30Z</time>
      </trkpt>
      <trkpt lat="48.39937" lon="-0.79051">
        <ele>170.71</ele>
        <time>2020-06-27T13:07:35Z</time>
      </trkpt>
      <trkpt lat="48.39939" lon="-0.79053">
        <ele>169.71</ele>
        <time>2020-06-27T13:07:40Z</time>
      </trkpt>
      <trkpt lat="48.39945" lon="-0.79061">
        <ele>166.71</ele>
        <time>2020-06-27T13:07:46Z</time>
      </trkpt>
      <trkpt lat="48.3995" lon="-0.79065">
        <ele>167.71</ele>
        <time>2020-06-27T13:07:51Z</time>
      </trkpt>
      <trkpt lat="48.39955" lon="-0.79073">
        <ele>166.71</ele>
        <time>2020-06-27T13:07:57Z</time>
      </trkpt>
      <trkpt lat="48.39959" lon="-0.79078">
        <ele>167.71</ele>
        <time>2020-06-27T13:08:02Z</time>
      </trkpt>
      <trkpt lat="48.39963" lon="-0.79083">
        <ele>169.71</ele>
        <time>2020-06-27T13:08:07Z</time>
      </trkpt>
      <trkpt lat="48.39968" lon="-0.79089">
        <ele>170.71</ele>
        <time>2020-06-27T13:08:13Z</time>
      </trkpt>
      <trkpt lat="48.39972" lon="-0.79097">
        <ele>170.71</ele>
        <time>2020-06-27T13:08:19Z</time>
      </trkpt>
      <trkpt lat="48.39978" lon="-0.79102">
        <ele>170.71</ele>
        <time>2020-06-27T13:08:25Z</time>
      </trkpt>
      <trkpt lat="48.39983" lon="-0.79109">
        <ele>170.71</ele>
        <time>2020-06-27T13:08:31Z</time>
      </trkpt>
      <trkpt lat="48.39988" lon="-0.79116">
        <ele>170.71</ele>
        <time>2020-06-27T13:08:37Z</time>
      </trkpt>
      <trkpt lat="48.39992" lon="-0.79121">
        <ele>170.71</ele>
        <time>2020-06-27T13:08:42Z</time>
      </trkpt>
      <trkpt lat="48.39997" lon="-0.79128">
        <ele>170.71</ele>
        <time>2020-06-27T13:08:48Z</time>
      </trkpt>
      <trkpt lat="48.4" lon="-0.79136">
        <ele>169.71</ele>
        <time>2020-06-27T13:08:54Z</time>
      </trkpt>
      <trkpt lat="48.40007" lon="-0.79139">
        <ele>170.71</ele>
        <time>2020-06-27T13:08:59Z</time>
      </trkpt>
      <trkpt lat="48.40012" lon="-0.79146">
        <ele>169.71</ele>
        <time>2020-06-27T13:09:05Z</time>
      </trkpt>
      <trkpt lat="48.40013" lon="-0.79152">
        <ele>170.71</ele>
        <time>2020-06-27T13:09:10Z</time>
      </trkpt>
      <trkpt lat="48.40019" lon="-0.79157">
        <ele>170.71</ele>
        <time>2020-06-27T13:09:16Z</time>
      </trkpt>
      <trkpt lat="48.40025" lon="-0.79161">
        <ele>171.71</ele>
        <time>2020-06-27T13:09:21Z</time>
      </trkpt>
      <trkpt lat="48.4003" lon="-0.79165">
        <ele>172.71</ele>
        <time>2020-06-27T13:09:27Z</time>
      </trkpt>
      <trkpt lat="48.40033" lon="-0.79167">
        <ele>171.71</ele>
        <time>2020-06-27T13:09:32Z</time>
      </trkpt>
      <trkpt lat="48.40039" lon="-0.79172">
        <ele>173.71</ele>
        <time>2020-06-27T13:09:37Z</time>
      </trkpt>
      <trkpt lat="48.40044" lon="-0.79176">
        <ele>171.71</ele>
        <time>2020-06-27T13:09:42Z</time>
      </trkpt>
      <trkpt lat="48.40048" lon="-0.79179">
        <ele>170.71</ele>
        <time>2020-06-27T13:09:47Z</time>
      </trkpt>
      <trkpt lat="48.40053" lon="-0.79183">
        <ele>170.71</ele>
        <time>2020-06-27T13:09:53Z</time>
      </trkpt>
      <trkpt lat="48.40055" lon="-0.79184">
        <ele>169.71</ele>
        <time>2020-06-27T13:09:58Z</time>
      </trkpt>
      <trkpt lat="48.40065" lon="-0.79186">
        <ele>169.71</ele>
        <time>2020-06-27T13:10:04Z</time>
      </trkpt>
      <trkpt lat="48.40068" lon="-0.79189">
        <ele>165.71</ele>
        <time>2020-06-27T13:10:09Z</time>
      </trkpt>
      <trkpt lat="48.40071" lon="-0.79193">
        <ele>163.71</ele>
        <time>2020-06-27T13:10:14Z</time>
      </trkpt>
      <trkpt lat="48.40077" lon="-0.79198">
        <ele>162.71</ele>
        <time>2020-06-27T13:10:19Z</time>
      </trkpt>
      <trkpt lat="48.40088" lon="-0.79203">
        <ele>165.71</ele>
        <time>2020-06-27T13:10:25Z</time>
      </trkpt>
      <trkpt lat="48.40093" lon="-0.79207">
        <ele>165.71</ele>
        <time>2020-06-27T13:10:30Z</time>
      </trkpt>
      <trkpt lat="48.40096" lon="-0.79212">
        <ele>164.71</ele>
        <time>2020-06-27T13:10:35Z</time>
      </trkpt>
      <trkpt lat="48.40103" lon="-0.79217">
        <ele>164.71</ele>
        <time>2020-06-27T13:10:41Z</time>
      </trkpt>
      <trkpt lat="48.40109" lon="-0.79221">
        <ele>165.71</ele>
        <time>2020-06-27T13:10:47Z</time>
      </trkpt>
      <trkpt lat="48.40115" lon="-0.79227">
        <ele>164.71</ele>
        <time>2020-06-27T13:10:53Z</time>
      </trkpt>
      <trkpt lat="48.4012" lon="-0.79231">
        <ele>164.71</ele>
        <time>2020-06-27T13:10:58Z</time>
      </trkpt>
      <trkpt lat="48.40124" lon="-0.79236">
        <ele>163.71</ele>
        <time>2020-06-27T13:11:04Z</time>
      </trkpt>
      <trkpt lat="48.40128" lon="-0.79239">
        <ele>163.71</ele>
        <time>2020-06-27T13:11:09Z</time>
      </trkpt>
      <trkpt lat="48.40132" lon="-0.79245">
        <ele>162.71</ele>
        <time>2020-06-27T13:11:14Z</time>
      </trkpt>
      <trkpt lat="48.40138" lon="-0.79254">
        <ele>163.71</ele>
        <time>2020-06-27T13:11:20Z</time>
      </trkpt>
      <trkpt lat="48.40141" lon="-0.7926">
        <ele>162.71</ele>
        <time>2020-06-27T13:11:25Z</time>
      </trkpt>
      <trkpt lat="48.40147" lon="-0.79269">
        <ele>162.71</ele>
        <time>2020-06-27T13:11:31Z</time>
      </trkpt>
      <trkpt lat="48.4015" lon="-0.79274">
        <ele>161.71</ele>
        <time>2020-06-27T13:11:36Z</time>
      </trkpt>
      <trkpt lat="48.40155" lon="-0.79282">
        <ele>160.71</ele>
        <time>2020-06-27T13:11:42Z</time>
      </trkpt>
      <trkpt lat="48.40159" lon="-0.7929">
        <ele>160.71</ele>
        <time>2020-06-27T13:11:48Z</time>
      </trkpt>
      <trkpt lat="48.40163" lon="-0.79296">
        <ele>161.71</ele>
        <time>2020-06-27T13:11:53Z</time>
      </trkpt>
      <trkpt lat="48.40166" lon="-0.79303">
        <ele>160.71</ele>
        <time>2020-06-27T13:11:59Z</time>
      </trkpt>
      <trkpt lat="48.4017" lon="-0.7931">
        <ele>158.71</ele>
        <time>2020-06-27T13:12:04Z</time>
      </trkpt>
      <trkpt lat="48.40174" lon="-0.79315">
        <ele>158.71</ele>
        <time>2020-06-27T13:12:09Z</time>
      </trkpt>
      <trkpt lat="48.40178" lon="-0.79322">
        <ele>160.71</ele>
        <time>2020-06-27T13:12:15Z</time>
      </trkpt>
      <trkpt lat="48.40182" lon="-0.79325">
        <ele>159.71</ele>
        <time>2020-06-27T13:12:20Z</time>
      </trkpt>
      <trkpt lat="48.40188" lon="-0.79321">
        <ele>160.71</ele>
        <time>2020-06-27T13:12:25Z</time>
      </trkpt>
      <trkpt lat="48.40192" lon="-0.79315">
        <ele>161.71</ele>
        <time>2020-06-27T13:12:30Z</time>
      </trkpt>
      <trkpt lat="48.40196" lon="-0.79311">
        <ele>161.71</ele>
        <time>2020-06-27T13:12:35Z</time>
      </trkpt>
      <trkpt lat="48.402" lon="-0.79304">
        <ele>162.71</ele>
        <time>2020-06-27T13:12:41Z</time>
      </trkpt>
      <trkpt lat="48.40206" lon="-0.79299">
        <ele>162.71</ele>
        <time>2020-06-27T13:12:47Z</time>
      </trkpt>
      <trkpt lat="48.40212" lon="-0.79303">
        <ele>161.71</ele>
        <time>2020-06-27T13:12:53Z</time>
      </trkpt>
      <trkpt lat="48.40217" lon="-0.7931">
        <ele>161.71</ele>
        <time>2020-06-27T13:12:59Z</time>
      </trkpt>
      <trkpt lat="48.4022" lon="-0.79318">
        <ele>160.71</ele>
        <time>2020-06-27T13:13:05Z</time>
      </trkpt>
      <trkpt lat="48.40223" lon="-0.79323">
        <ele>160.71</ele>
        <time>2020-06-27T13:13:10Z</time>
      </trkpt>
      <trkpt lat="48.40226" lon="-0.79331">
        <ele>160.71</ele>
        <time>2020-06-27T13:13:16Z</time>
      </trkpt>
      <trkpt lat="48.40227" lon="-0.79338">
        <ele>160.71</ele>
        <time>2020-06-27T13:13:21Z</time>
      </trkpt>
      <trkpt lat="48.40229" lon="-0.79345">
        <ele>159.71</ele>
        <time>2020-06-27T13:13:27Z</time>
      </trkpt>
      <trkpt lat="48.40231" lon="-0.79351">
        <ele>159.71</ele>
        <time>2020-06-27T13:13:33Z</time>
      </trkpt>
      <trkpt lat="48.40231" lon="-0.79353">
        <ele>159.71</ele>
        <time>2020-06-27T13:13:39Z</time>
      </trkpt>
      <trkpt lat="48.40233" lon="-0.7936">
        <ele>158.71</ele>
        <time>2020-06-27T13:13:45Z</time>
      </trkpt>
      <trkpt lat="48.40234" lon="-0.79368">
        <ele>158.71</ele>
        <time>2020-06-27T13:13:50Z</time>
      </trkpt>
      <trkpt lat="48.40236" lon="-0.79377">
        <ele>158.71</ele>
        <time>2020-06-27T13:13:56Z</time>
      </trkpt>
      <trkpt lat="48.40236" lon="-0.79384">
        <ele>157.71</ele>
        <time>2020-06-27T13:14:01Z</time>
      </trkpt>
      <trkpt lat="48.40238" lon="-0.79393">
        <ele>156.71</ele>
        <time>2020-06-27T13:14:07Z</time>
      </trkpt>
      <trkpt lat="48.40238" lon="-0.79403">
        <ele>157.71</ele>
        <time>2020-06-27T13:14:13Z</time>
      </trkpt>
      <trkpt lat="48.40238" lon="-0.79411">
        <ele>157.71</ele>
        <time>2020-06-27T13:14:18Z</time>
      </trkpt>
      <trkpt lat="48.40238" lon="-0.79419">
        <ele>156.71</ele>
        <time>2020-06-27T13:14:23Z</time>
      </trkpt>
      <trkpt lat="48.40239" lon="-0.79428">
        <ele>155.71</ele>
        <time>2020-06-27T13:14:29Z</time>
      </trkpt>
      <trkpt lat="48.40241" lon="-0.79433">
        <ele>154.71</ele>
        <time>2020-06-27T13:14:34Z</time>
      </trkpt>
      <trkpt lat="48.40243" lon="-0.79442">
        <ele>153.71</ele>
        <time>2020-06-27T13:14:40Z</time>
      </trkpt>
      <trkpt lat="48.40244" lon="-0.79453">
        <ele>153.71</ele>
        <time>2020-06-27T13:14:46Z</time>
      </trkpt>
      <trkpt lat="48.40247" lon="-0.79464">
        <ele>153.71</ele>
        <time>2020-06-27T13:14:52Z</time>
      </trkpt>
      <trkpt lat="48.4025" lon="-0.79475">
        <ele>155.71</ele>
        <time>2020-06-27T13:14:58Z</time>
      </trkpt>
      <trkpt lat="48.40253" lon="-0.79484">
        <ele>155.71</ele>
        <time>2020-06-27T13:15:04Z</time>
      </trkpt>
      <trkpt lat="48.40255" lon="-0.79495">
        <ele>157.71</ele>
        <time>2020-06-27T13:15:10Z</time>
      </trkpt>
      <trkpt lat="48.40258" lon="-0.79504">
        <ele>158.71</ele>
        <time>2020-06-27T13:15:16Z</time>
      </trkpt>
      <trkpt lat="48.40261" lon="-0.79512">
        <ele>158.71</ele>
        <time>2020-06-27T13:15:21Z</time>
      </trkpt>
      <trkpt lat="48.40264" lon="-0.79521">
        <ele>158.71</ele>
        <time>2020-06-27T13:15:27Z</time>
      </trkpt>
      <trkpt lat="48.40268" lon="-0.7953">
        <ele>158.71</ele>
        <time>2020-06-27T13:15:33Z</time>
      </trkpt>
      <trkpt lat="48.40271" lon="-0.79536">
        <ele>157.71</ele>
        <time>2020-06-27T13:15:38Z</time>
      </trkpt>
      <trkpt lat="48.40273" lon="-0.79544">
        <ele>157.71</ele>
        <time>2020-06-27T13:15:44Z</time>
      </trkpt>
      <trkpt lat="48.40277" lon="-0.79554">
        <ele>158.71</ele>
        <time>2020-06-27T13:15:50Z</time>
      </trkpt>
      <trkpt lat="48.40281" lon="-0.79562">
        <ele>158.71</ele>
        <time>2020-06-27T13:15:56Z</time>
      </trkpt>
      <trkpt lat="48.40285" lon="-0.79571">
        <ele>159.71</ele>
        <time>2020-06-27T13:16:02Z</time>
      </trkpt>
      <trkpt lat="48.40289" lon="-0.79579">
        <ele>159.71</ele>
        <time>2020-06-27T13:16:08Z</time>
      </trkpt>
      <trkpt lat="48.40293" lon="-0.79587">
        <ele>159.71</ele>
        <time>2020-06-27T13:16:14Z</time>
      </trkpt>
      <trkpt lat="48.40296" lon="-0.79595">
        <ele>159.71</ele>
        <time>2020-06-27T13:16:20Z</time>
      </trkpt>
      <trkpt lat="48.40298" lon="-0.79603">
        <ele>159.71</ele>
        <time>2020-06-27T13:16:26Z</time>
      </trkpt>
      <trkpt lat="48.40301" lon="-0.7961">
        <ele>159.71</ele>
        <time>2020-06-27T13:16:31Z</time>
      </trkpt>
      <trkpt lat="48.40305" lon="-0.79619">
        <ele>160.71</ele>
        <time>2020-06-27T13:16:37Z</time>
      </trkpt>
      <trkpt lat="48.40308" lon="-0.79625">
        <ele>159.71</ele>
        <time>2020-06-27T13:16:42Z</time>
      </trkpt>
      <trkpt lat="48.40312" lon="-0.79635">
        <ele>160.71</ele>
        <time>2020-06-27T13:16:48Z</time>
      </trkpt>
      <trkpt lat="48.40315" lon="-0.79643">
        <ele>160.71</ele>
        <time>2020-06-27T13:16:54Z</time>
      </trkpt>
      <trkpt lat="48.40319" lon="-0.79652">
        <ele>160.71</ele>
        <time>2020-06-27T13:17:00Z</time>
      </trkpt>
      <trkpt lat="48.40322" lon="-0.79659">
        <ele>161.71</ele>
        <time>2020-06-27T13:17:05Z</time>
      </trkpt>
      <trkpt lat="48.40325" lon="-0.79667">
        <ele>160.71</ele>
        <time>2020-06-27T13:17:11Z</time>
      </trkpt>
      <trkpt lat="48.40329" lon="-0.79675">
        <ele>161.71</ele>
        <time>2020-06-27T13:17:17Z</time>
      </trkpt>
      <trkpt lat="48.40333" lon="-0.79684">
        <ele>161.71</ele>
        <time>2020-06-27T13:17:23Z</time>
      </trkpt>
      <trkpt lat="48.40336" lon="-0.79693">
        <ele>161.71</ele>
        <time>2020-06-27T13:17:29Z</time>
      </trkpt>
      <trkpt lat="48.4034" lon="-0.797">
        <ele>161.71</ele>
        <time>2020-06-27T13:17:34Z</time>
      </trkpt>
      <trkpt lat="48.40342" lon="-0.79707">
        <ele>162.71</ele>
        <time>2020-06-27T13:17:40Z</time>
      </trkpt>
      <trkpt lat="48.40344" lon="-0.79715">
        <ele>162.71</ele>
        <time>2020-06-27T13:17:46Z</time>
      </trkpt>
      <trkpt lat="48.40346" lon="-0.79723">
        <ele>162.71</ele>
        <time>2020-06-27T13:17:51Z</time>
      </trkpt>
      <trkpt lat="48.40348" lon="-0.79731">
        <ele>162.71</ele>
        <time>2020-06-27T13:17:56Z</time>
      </trkpt>
      <trkpt lat="48.4035" lon="-0.7974">
        <ele>162.71</ele>
        <time>2020-06-27T13:18:02Z</time>
      </trkpt>
      <trkpt lat="48.40352" lon="-0.7975">
        <ele>162.71</ele>
        <time>2020-06-27T13:18:08Z</time>
      </trkpt>
      <trkpt lat="48.40354" lon="-0.79759">
        <ele>162.71</ele>
        <time>2020-06-27T13:18:13Z</time>
      </trkpt>
      <trkpt lat="48.40354" lon="-0.79769">
        <ele>162.71</ele>
        <time>2020-06-27T13:18:19Z</time>
      </trkpt>
      <trkpt lat="48.40355" lon="-0.79779">
        <ele>162.71</ele>
        <time>2020-06-27T13:18:25Z</time>
      </trkpt>
      <trkpt lat="48.40357" lon="-0.79787">
        <ele>162.71</ele>
        <time>2020-06-27T13:18:30Z</time>
      </trkpt>
      <trkpt lat="48.40358" lon="-0.79796">
        <ele>162.71</ele>
        <time>2020-06-27T13:18:36Z</time>
      </trkpt>
      <trkpt lat="48.40358" lon="-0.79803">
        <ele>162.71</ele>
        <time>2020-06-27T13:18:41Z</time>
      </trkpt>
      <trkpt lat="48.40356" lon="-0.79811">
        <ele>162.71</ele>
        <time>2020-06-27T13:18:46Z</time>
      </trkpt>
      <trkpt lat="48.40354" lon="-0.79819">
        <ele>162.71</ele>
        <time>2020-06-27T13:18:54Z</time>
      </trkpt>
      <trkpt lat="48.40352" lon="-0.79831">
        <ele>163.71</ele>
        <time>2020-06-27T13:19:00Z</time>
      </trkpt>
      <trkpt lat="48.40351" lon="-0.79833">
        <ele>164.71</ele>
        <time>2020-06-27T13:19:06Z</time>
      </trkpt>
      <trkpt lat="48.4035" lon="-0.79839">
        <ele>164.71</ele>
        <time>2020-06-27T13:19:11Z</time>
      </trkpt>
      <trkpt lat="48.40347" lon="-0.79847">
        <ele>164.71</ele>
        <time>2020-06-27T13:19:17Z</time>
      </trkpt>
      <trkpt lat="48.40346" lon="-0.79856">
        <ele>164.71</ele>
        <time>2020-06-27T13:19:23Z</time>
      </trkpt>
      <trkpt lat="48.40342" lon="-0.79864">
        <ele>163.71</ele>
        <time>2020-06-27T13:19:29Z</time>
      </trkpt>
      <trkpt lat="48.40341" lon="-0.79871">
        <ele>163.71</ele>
        <time>2020-06-27T13:19:34Z</time>
      </trkpt>
      <trkpt lat="48.4034" lon="-0.79879">
        <ele>163.71</ele>
        <time>2020-06-27T13:19:40Z</time>
      </trkpt>
      <trkpt lat="48.4034" lon="-0.79889">
        <ele>164.71</ele>
        <time>2020-06-27T13:19:46Z</time>
      </trkpt>
      <trkpt lat="48.40339" lon="-0.79895">
        <ele>163.71</ele>
        <time>2020-06-27T13:19:51Z</time>
      </trkpt>
      <trkpt lat="48.40337" lon="-0.79904">
        <ele>163.71</ele>
        <time>2020-06-27T13:19:56Z</time>
      </trkpt>
      <trkpt lat="48.40335" lon="-0.79915">
        <ele>161.71</ele>
        <time>2020-06-27T13:20:02Z</time>
      </trkpt>
      <trkpt lat="48.40332" lon="-0.79922">
        <ele>161.71</ele>
        <time>2020-06-27T13:20:07Z</time>
      </trkpt>
      <trkpt lat="48.40329" lon="-0.79932">
        <ele>161.71</ele>
        <time>2020-06-27T13:20:13Z</time>
      </trkpt>
      <trkpt lat="48.40326" lon="-0.79941">
        <ele>162.71</ele>
        <time>2020-06-27T13:20:18Z</time>
      </trkpt>
      <trkpt lat="48.40324" lon="-0.79949">
        <ele>162.71</ele>
        <time>2020-06-27T13:20:23Z</time>
      </trkpt>
      <trkpt lat="48.40321" lon="-0.79958">
        <ele>163.71</ele>
        <time>2020-06-27T13:20:28Z</time>
      </trkpt>
      <trkpt lat="48.40319" lon="-0.79966">
        <ele>163.71</ele>
        <time>2020-06-27T13:20:34Z</time>
      </trkpt>
      <trkpt lat="48.40317" lon="-0.79975">
        <ele>163.71</ele>
        <time>2020-06-27T13:20:39Z</time>
      </trkpt>
      <trkpt lat="48.40316" lon="-0.79984">
        <ele>164.71</ele>
        <time>2020-06-27T13:20:44Z</time>
      </trkpt>
      <trkpt lat="48.40313" lon="-0.79995">
        <ele>164.71</ele>
        <time>2020-06-27T13:20:50Z</time>
      </trkpt>
      <trkpt lat="48.40312" lon="-0.80002">
        <ele>163.71</ele>
        <time>2020-06-27T13:20:55Z</time>
      </trkpt>
      <trkpt lat="48.4031" lon="-0.80013">
        <ele>164.71</ele>
        <time>2020-06-27T13:21:01Z</time>
      </trkpt>
      <trkpt lat="48.40309" lon="-0.80021">
        <ele>164.71</ele>
        <time>2020-06-27T13:21:06Z</time>
      </trkpt>
      <trkpt lat="48.40308" lon="-0.80032">
        <ele>164.71</ele>
        <time>2020-06-27T13:21:12Z</time>
      </trkpt>
      <trkpt lat="48.40305" lon="-0.80039">
        <ele>163.71</ele>
        <time>2020-06-27T13:21:17Z</time>
      </trkpt>
      <trkpt lat="48.40303" lon="-0.80048">
        <ele>162.71</ele>
        <time>2020-06-27T13:21:23Z</time>
      </trkpt>
      <trkpt lat="48.40303" lon="-0.80056">
        <ele>162.71</ele>
        <time>2020-06-27T13:21:28Z</time>
      </trkpt>
      <trkpt lat="48.40302" lon="-0.80068">
        <ele>162.71</ele>
        <time>2020-06-27T13:21:34Z</time>
      </trkpt>
      <trkpt lat="48.40299" lon="-0.80076">
        <ele>161.71</ele>
        <time>2020-06-27T13:21:40Z</time>
      </trkpt>
      <trkpt lat="48.40297" lon="-0.80083">
        <ele>161.71</ele>
        <time>2020-06-27T13:21:45Z</time>
      </trkpt>
      <trkpt lat="48.40296" lon="-0.80091">
        <ele>159.71</ele>
        <time>2020-06-27T13:21:51Z</time>
      </trkpt>
      <trkpt lat="48.40296" lon="-0.80099">
        <ele>158.71</ele>
        <time>2020-06-27T13:21:56Z</time>
      </trkpt>
      <trkpt lat="48.40294" lon="-0.80107">
        <ele>158.71</ele>
        <time>2020-06-27T13:22:02Z</time>
      </trkpt>
      <trkpt lat="48.40294" lon="-0.80115">
        <ele>159.71</ele>
        <time>2020-06-27T13:22:07Z</time>
      </trkpt>
      <trkpt lat="48.40294" lon="-0.80114">
        <ele>159.71</ele>
        <time>2020-06-27T13:22:13Z</time>
      </trkpt>
      <trkpt lat="48.40294" lon="-0.80117">
        <ele>160.71</ele>
        <time>2020-06-27T13:22:19Z</time>
      </trkpt>
      <trkpt lat="48.40292" lon="-0.80127">
        <ele>161.71</ele>
        <time>2020-06-27T13:22:25Z</time>
      </trkpt>
      <trkpt lat="48.40293" lon="-0.80139">
        <ele>164.71</ele>
        <time>2020-06-27T13:22:30Z</time>
      </trkpt>
      <trkpt lat="48.40291" lon="-0.80148">
        <ele>164.71</ele>
        <time>2020-06-27T13:22:36Z</time>
      </trkpt>
      <trkpt lat="48.40287" lon="-0.80156">
        <ele>164.71</ele>
        <time>2020-06-27T13:22:42Z</time>
      </trkpt>
      <trkpt lat="48.40286" lon="-0.80163">
        <ele>164.71</ele>
        <time>2020-06-27T13:22:47Z</time>
      </trkpt>
      <trkpt lat="48.40283" lon="-0.8017">
        <ele>163.71</ele>
        <time>2020-06-27T13:22:52Z</time>
      </trkpt>
      <trkpt lat="48.4028" lon="-0.80178">
        <ele>163.71</ele>
        <time>2020-06-27T13:22:58Z</time>
      </trkpt>
      <trkpt lat="48.40279" lon="-0.80189">
        <ele>164.71</ele>
        <time>2020-06-27T13:23:04Z</time>
      </trkpt>
      <trkpt lat="48.40277" lon="-0.80197">
        <ele>163.71</ele>
        <time>2020-06-27T13:23:09Z</time>
      </trkpt>
      <trkpt lat="48.40276" lon="-0.80206">
        <ele>163.71</ele>
        <time>2020-06-27T13:23:14Z</time>
      </trkpt>
      <trkpt lat="48.40274" lon="-0.80215">
        <ele>163.71</ele>
        <time>2020-06-27T13:23:19Z</time>
      </trkpt>
      <trkpt lat="48.40273" lon="-0.80223">
        <ele>163.71</ele>
        <time>2020-06-27T13:23:24Z</time>
      </trkpt>
      <trkpt lat="48.40274" lon="-0.80231">
        <ele>163.71</ele>
        <time>2020-06-27T13:23:30Z</time>
      </trkpt>
      <trkpt lat="48.40276" lon="-0.8024">
        <ele>163.71</ele>
        <time>2020-06-27T13:23:35Z</time>
      </trkpt>
      <trkpt lat="48.40278" lon="-0.80249">
        <ele>163.71</ele>
        <time>2020-06-27T13:23:41Z</time>
      </trkpt>
      <trkpt lat="48.40279" lon="-0.80256">
        <ele>163.71</ele>
        <time>2020-06-27T13:23:46Z</time>
      </trkpt>
      <trkpt lat="48.4028" lon="-0.80265">
        <ele>163.71</ele>
        <time>2020-06-27T13:23:52Z</time>
      </trkpt>
      <trkpt lat="48.40281" lon="-0.80274">
        <ele>162.71</ele>
        <time>2020-06-27T13:23:58Z</time>
      </trkpt>
      <trkpt lat="48.40281" lon="-0.80282">
        <ele>162.71</ele>
        <time>2020-06-27T13:24:03Z</time>
      </trkpt>
      <trkpt lat="48.40282" lon="-0.80291">
        <ele>160.71</ele>
        <time>2020-06-27T13:24:09Z</time>
      </trkpt>
      <trkpt lat="48.40282" lon="-0.80299">
        <ele>161.71</ele>
        <time>2020-06-27T13:24:14Z</time>
      </trkpt>
      <trkpt lat="48.40284" lon="-0.80308">
        <ele>161.71</ele>
        <time>2020-06-27T13:24:19Z</time>
      </trkpt>
      <trkpt lat="48.40285" lon="-0.80317">
        <ele>161.71</ele>
        <time>2020-06-27T13:24:25Z</time>
      </trkpt>
      <trkpt lat="48.40286" lon="-0.80326">
        <ele>161.71</ele>
        <time>2020-06-27T13:24:30Z</time>
      </trkpt>
      <trkpt lat="48.40288" lon="-0.80334">
        <ele>161.71</ele>
        <time>2020-06-27T13:24:36Z</time>
      </trkpt>
      <trkpt lat="48.40289" lon="-0.80344">
        <ele>162.71</ele>
        <time>2020-06-27T13:24:42Z</time>
      </trkpt>
      <trkpt lat="48.4029" lon="-0.80354">
        <ele>162.71</ele>
        <time>2020-06-27T13:24:48Z</time>
      </trkpt>
      <trkpt lat="48.40291" lon="-0.80363">
        <ele>162.71</ele>
        <time>2020-06-27T13:24:53Z</time>
      </trkpt>
      <trkpt lat="48.40292" lon="-0.80372">
        <ele>163.71</ele>
        <time>2020-06-27T13:24:59Z</time>
      </trkpt>
      <trkpt lat="48.40294" lon="-0.80381">
        <ele>162.71</ele>
        <time>2020-06-27T13:25:04Z</time>
      </trkpt>
      <trkpt lat="48.40296" lon="-0.80388">
        <ele>162.71</ele>
        <time>2020-06-27T13:25:10Z</time>
      </trkpt>
      <trkpt lat="48.40302" lon="-0.80394">
        <ele>161.71</ele>
        <time>2020-06-27T13:25:16Z</time>
      </trkpt>
      <trkpt lat="48.40306" lon="-0.80397">
        <ele>160.71</ele>
        <time>2020-06-27T13:25:21Z</time>
      </trkpt>
      <trkpt lat="48.40311" lon="-0.80399">
        <ele>159.71</ele>
        <time>2020-06-27T13:25:26Z</time>
      </trkpt>
      <trkpt lat="48.40316" lon="-0.80402">
        <ele>158.71</ele>
        <time>2020-06-27T13:25:31Z</time>
      </trkpt>
      <trkpt lat="48.40322" lon="-0.80405">
        <ele>156.71</ele>
        <time>2020-06-27T13:25:37Z</time>
      </trkpt>
      <trkpt lat="48.40328" lon="-0.80408">
        <ele>156.71</ele>
        <time>2020-06-27T13:25:43Z</time>
      </trkpt>
      <trkpt lat="48.40334" lon="-0.80411">
        <ele>155.71</ele>
        <time>2020-06-27T13:25:48Z</time>
      </trkpt>
      <trkpt lat="48.40342" lon="-0.80413">
        <ele>154.71</ele>
        <time>2020-06-27T13:25:54Z</time>
      </trkpt>
      <trkpt lat="48.40348" lon="-0.80416">
        <ele>154.71</ele>
        <time>2020-06-27T13:26:00Z</time>
      </trkpt>
      <trkpt lat="48.40353" lon="-0.80418">
        <ele>153.71</ele>
        <time>2020-06-27T13:26:05Z</time>
      </trkpt>
      <trkpt lat="48.40357" lon="-0.80422">
        <ele>153.71</ele>
        <time>2020-06-27T13:26:10Z</time>
      </trkpt>
      <trkpt lat="48.40364" lon="-0.80425">
        <ele>155.71</ele>
        <time>2020-06-27T13:26:16Z</time>
      </trkpt>
      <trkpt lat="48.4037" lon="-0.80428">
        <ele>155.71</ele>
        <time>2020-06-27T13:26:22Z</time>
      </trkpt>
      <trkpt lat="48.40375" lon="-0.80432">
        <ele>154.71</ele>
        <time>2020-06-27T13:26:27Z</time>
      </trkpt>
      <trkpt lat="48.4038" lon="-0.80434">
        <ele>154.71</ele>
        <time>2020-06-27T13:26:32Z</time>
      </trkpt>
      <trkpt lat="48.40386" lon="-0.80438">
        <ele>154.71</ele>
        <time>2020-06-27T13:26:38Z</time>
      </trkpt>
      <trkpt lat="48.40392" lon="-0.80441">
        <ele>153.71</ele>
        <time>2020-06-27T13:26:44Z</time>
      </trkpt>
      <trkpt lat="48.40397" lon="-0.80444">
        <ele>153.71</ele>
        <time>2020-06-27T13:26:49Z</time>
      </trkpt>
      <trkpt lat="48.40402" lon="-0.80447">
        <ele>152.71</ele>
        <time>2020-06-27T13:26:54Z</time>
      </trkpt>
      <trkpt lat="48.40407" lon="-0.80451">
        <ele>153.71</ele>
        <time>2020-06-27T13:26:59Z</time>
      </trkpt>
      <trkpt lat="48.40408" lon="-0.80456">
        <ele>152.71</ele>
        <time>2020-06-27T13:27:05Z</time>
      </trkpt>
      <trkpt lat="48.40407" lon="-0.80462">
        <ele>150.71</ele>
        <time>2020-06-27T13:27:11Z</time>
      </trkpt>
      <trkpt lat="48.40404" lon="-0.80472">
        <ele>149.71</ele>
        <time>2020-06-27T13:27:17Z</time>
      </trkpt>
      <trkpt lat="48.40402" lon="-0.80482">
        <ele>150.71</ele>
        <time>2020-06-27T13:27:23Z</time>
      </trkpt>
      <trkpt lat="48.40401" lon="-0.80488">
        <ele>149.71</ele>
        <time>2020-06-27T13:27:28Z</time>
      </trkpt>
      <trkpt lat="48.40399" lon="-0.80499">
        <ele>152.71</ele>
        <time>2020-06-27T13:27:34Z</time>
      </trkpt>
      <trkpt lat="48.40399" lon="-0.8051">
        <ele>151.71</ele>
        <time>2020-06-27T13:27:40Z</time>
      </trkpt>
      <trkpt lat="48.40398" lon="-0.80515">
        <ele>151.71</ele>
        <time>2020-06-27T13:27:45Z</time>
      </trkpt>
      <trkpt lat="48.40398" lon="-0.80525">
        <ele>151.71</ele>
        <time>2020-06-27T13:27:51Z</time>
      </trkpt>
      <trkpt lat="48.40397" lon="-0.80535">
        <ele>151.71</ele>
        <time>2020-06-27T13:27:56Z</time>
      </trkpt>
      <trkpt lat="48.40396" lon="-0.80543">
        <ele>152.71</ele>
        <time>2020-06-27T13:28:01Z</time>
      </trkpt>
      <trkpt lat="48.40395" lon="-0.80552">
        <ele>151.71</ele>
        <time>2020-06-27T13:28:07Z</time>
      </trkpt>
      <trkpt lat="48.40394" lon="-0.80562">
        <ele>150.71</ele>
        <time>2020-06-27T13:28:13Z</time>
      </trkpt>
      <trkpt lat="48.40393" lon="-0.80572">
        <ele>151.71</ele>
        <time>2020-06-27T13:28:19Z</time>
      </trkpt>
      <trkpt lat="48.40392" lon="-0.80579">
        <ele>151.71</ele>
        <time>2020-06-27T13:28:24Z</time>
      </trkpt>
      <trkpt lat="48.40392" lon="-0.80583">
        <ele>150.71</ele>
        <time>2020-06-27T13:28:30Z</time>
      </trkpt>
      <trkpt lat="48.40392" lon="-0.80584">
        <ele>150.71</ele>
        <time>2020-06-27T13:28:35Z</time>
      </trkpt>
      <trkpt lat="48.4039" lon="-0.80594">
        <ele>149.71</ele>
        <time>2020-06-27T13:28:41Z</time>
      </trkpt>
      <trkpt lat="48.40391" lon="-0.80601">
        <ele>149.71</ele>
        <time>2020-06-27T13:28:46Z</time>
      </trkpt>
      <trkpt lat="48.40389" lon="-0.80612">
        <ele>149.71</ele>
        <time>2020-06-27T13:28:52Z</time>
      </trkpt>
      <trkpt lat="48.40388" lon="-0.80622">
        <ele>149.71</ele>
        <time>2020-06-27T13:28:58Z</time>
      </trkpt>
      <trkpt lat="48.40387" lon="-0.80633">
        <ele>149.71</ele>
        <time>2020-06-27T13:29:04Z</time>
      </trkpt>
      <trkpt lat="48.40386" lon="-0.80637">
        <ele>148.71</ele>
        <time>2020-06-27T13:29:10Z</time>
      </trkpt>
      <trkpt lat="48.40383" lon="-0.80646">
        <ele>147.71</ele>
        <time>2020-06-27T13:29:16Z</time>
      </trkpt>
      <trkpt lat="48.40384" lon="-0.80657">
        <ele>146.71</ele>
        <time>2020-06-27T13:29:22Z</time>
      </trkpt>
      <trkpt lat="48.40385" lon="-0.80668">
        <ele>146.71</ele>
        <time>2020-06-27T13:29:28Z</time>
      </trkpt>
      <trkpt lat="48.40383" lon="-0.80676">
        <ele>147.71</ele>
        <time>2020-06-27T13:29:33Z</time>
      </trkpt>
      <trkpt lat="48.40382" lon="-0.80683">
        <ele>147.71</ele>
        <time>2020-06-27T13:29:39Z</time>
      </trkpt>
      <trkpt lat="48.40381" lon="-0.80691">
        <ele>148.71</ele>
        <time>2020-06-27T13:29:44Z</time>
      </trkpt>
      <trkpt lat="48.4038" lon="-0.80705">
        <ele>150.71</ele>
        <time>2020-06-27T13:29:50Z</time>
      </trkpt>
      <trkpt lat="48.4038" lon="-0.80715">
        <ele>150.71</ele>
        <time>2020-06-27T13:29:56Z</time>
      </trkpt>
      <trkpt lat="48.40378" lon="-0.80723">
        <ele>150.71</ele>
        <time>2020-06-27T13:30:01Z</time>
      </trkpt>
      <trkpt lat="48.40378" lon="-0.80732">
        <ele>150.71</ele>
        <time>2020-06-27T13:30:07Z</time>
      </trkpt>
      <trkpt lat="48.40376" lon="-0.80741">
        <ele>150.71</ele>
        <time>2020-06-27T13:30:13Z</time>
      </trkpt>
      <trkpt lat="48.40376" lon="-0.80749">
        <ele>149.71</ele>
        <time>2020-06-27T13:30:18Z</time>
      </trkpt>
      <trkpt lat="48.40375" lon="-0.80758">
        <ele>149.71</ele>
        <time>2020-06-27T13:30:24Z</time>
      </trkpt>
      <trkpt lat="48.40372" lon="-0.80765">
        <ele>149.71</ele>
        <time>2020-06-27T13:30:29Z</time>
      </trkpt>
      <trkpt lat="48.40369" lon="-0.80767">
        <ele>149.71</ele>
        <time>2020-06-27T13:30:34Z</time>
      </trkpt>
      <trkpt lat="48.40364" lon="-0.80774">
        <ele>149.71</ele>
        <time>2020-06-27T13:30:40Z</time>
      </trkpt>
      <trkpt lat="48.40361" lon="-0.80781">
        <ele>149.71</ele>
        <time>2020-06-27T13:30:45Z</time>
      </trkpt>
      <trkpt lat="48.40359" lon="-0.80791">
        <ele>149.71</ele>
        <time>2020-06-27T13:30:51Z</time>
      </trkpt>
      <trkpt lat="48.40359" lon="-0.80799">
        <ele>150.71</ele>
        <time>2020-06-27T13:30:56Z</time>
      </trkpt>
      <trkpt lat="48.40357" lon="-0.8081">
        <ele>150.71</ele>
        <time>2020-06-27T13:31:02Z</time>
      </trkpt>
      <trkpt lat="48.40357" lon="-0.80822">
        <ele>151.71</ele>
        <time>2020-06-27T13:31:08Z</time>
      </trkpt>
      <trkpt lat="48.40356" lon="-0.8083">
        <ele>152.71</ele>
        <time>2020-06-27T13:31:13Z</time>
      </trkpt>
      <trkpt lat="48.40355" lon="-0.80836">
        <ele>153.71</ele>
        <time>2020-06-27T13:31:18Z</time>
      </trkpt>
      <trkpt lat="48.40361" lon="-0.80844">
        <ele>151.71</ele>
        <time>2020-06-27T13:31:24Z</time>
      </trkpt>
      <trkpt lat="48.40366" lon="-0.80849">
        <ele>150.71</ele>
        <time>2020-06-27T13:31:30Z</time>
      </trkpt>
      <trkpt lat="48.40373" lon="-0.80855">
        <ele>150.71</ele>
        <time>2020-06-27T13:31:36Z</time>
      </trkpt>
      <trkpt lat="48.40379" lon="-0.80859">
        <ele>149.71</ele>
        <time>2020-06-27T13:31:41Z</time>
      </trkpt>
      <trkpt lat="48.40384" lon="-0.80863">
        <ele>150.71</ele>
        <time>2020-06-27T13:31:46Z</time>
      </trkpt>
      <trkpt lat="48.4039" lon="-0.80867">
        <ele>151.71</ele>
        <time>2020-06-27T13:31:52Z</time>
      </trkpt>
      <trkpt lat="48.40395" lon="-0.80872">
        <ele>150.71</ele>
        <time>2020-06-27T13:31:58Z</time>
      </trkpt>
      <trkpt lat="48.404" lon="-0.80876">
        <ele>150.71</ele>
        <time>2020-06-27T13:32:03Z</time>
      </trkpt>
      <trkpt lat="48.40406" lon="-0.80882">
        <ele>150.71</ele>
        <time>2020-06-27T13:32:09Z</time>
      </trkpt>
      <trkpt lat="48.40412" lon="-0.80888">
        <ele>150.71</ele>
        <time>2020-06-27T13:32:15Z</time>
      </trkpt>
      <trkpt lat="48.40417" lon="-0.80891">
        <ele>150.71</ele>
        <time>2020-06-27T13:32:20Z</time>
      </trkpt>
      <trkpt lat="48.40422" lon="-0.80896">
        <ele>151.71</ele>
        <time>2020-06-27T13:32:26Z</time>
      </trkpt>
      <trkpt lat="48.40427" lon="-0.80901">
        <ele>152.71</ele>
        <time>2020-06-27T13:32:31Z</time>
      </trkpt>
      <trkpt lat="48.40433" lon="-0.80906">
        <ele>153.71</ele>
        <time>2020-06-27T13:32:37Z</time>
      </trkpt>
      <trkpt lat="48.40438" lon="-0.80913">
        <ele>153.71</ele>
        <time>2020-06-27T13:32:43Z</time>
      </trkpt>
      <trkpt lat="48.40443" lon="-0.80921">
        <ele>152.71</ele>
        <time>2020-06-27T13:32:49Z</time>
      </trkpt>
      <trkpt lat="48.40446" lon="-0.80927">
        <ele>149.71</ele>
        <time>2020-06-27T13:32:55Z</time>
      </trkpt>
      <trkpt lat="48.40451" lon="-0.80931">
        <ele>148.71</ele>
        <time>2020-06-27T13:33:01Z</time>
      </trkpt>
      <trkpt lat="48.40454" lon="-0.80933">
        <ele>148.71</ele>
        <time>2020-06-27T13:33:06Z</time>
      </trkpt>
      <trkpt lat="48.4046" lon="-0.80936">
        <ele>147.71</ele>
        <time>2020-06-27T13:33:12Z</time>
      </trkpt>
      <trkpt lat="48.40466" lon="-0.80938">
        <ele>147.71</ele>
        <time>2020-06-27T13:33:17Z</time>
      </trkpt>
      <trkpt lat="48.40469" lon="-0.80943">
        <ele>146.71</ele>
        <time>2020-06-27T13:33:22Z</time>
      </trkpt>
      <trkpt lat="48.40473" lon="-0.80952">
        <ele>146.71</ele>
        <time>2020-06-27T13:33:28Z</time>
      </trkpt>
      <trkpt lat="48.40475" lon="-0.80958">
        <ele>145.71</ele>
        <time>2020-06-27T13:33:33Z</time>
      </trkpt>
      <trkpt lat="48.40477" lon="-0.80965">
        <ele>145.71</ele>
        <time>2020-06-27T13:33:38Z</time>
      </trkpt>
      <trkpt lat="48.40482" lon="-0.8097">
        <ele>145.71</ele>
        <time>2020-06-27T13:33:43Z</time>
      </trkpt>
      <trkpt lat="48.40489" lon="-0.80972">
        <ele>147.71</ele>
        <time>2020-06-27T13:33:49Z</time>
      </trkpt>
      <trkpt lat="48.40494" lon="-0.80972">
        <ele>147.71</ele>
        <time>2020-06-27T13:33:54Z</time>
      </trkpt>
      <trkpt lat="48.40501" lon="-0.80969">
        <ele>147.71</ele>
        <time>2020-06-27T13:34:00Z</time>
      </trkpt>
      <trkpt lat="48.40507" lon="-0.80969">
        <ele>147.71</ele>
        <time>2020-06-27T13:34:05Z</time>
      </trkpt>
      <trkpt lat="48.40515" lon="-0.80969">
        <ele>149.71</ele>
        <time>2020-06-27T13:34:11Z</time>
      </trkpt>
      <trkpt lat="48.40518" lon="-0.80975">
        <ele>148.71</ele>
        <time>2020-06-27T13:34:16Z</time>
      </trkpt>
      <trkpt lat="48.40518" lon="-0.80985">
        <ele>147.71</ele>
        <time>2020-06-27T13:34:22Z</time>
      </trkpt>
      <trkpt lat="48.40519" lon="-0.80995">
        <ele>147.71</ele>
        <time>2020-06-27T13:34:28Z</time>
      </trkpt>
      <trkpt lat="48.40522" lon="-0.81004">
        <ele>147.71</ele>
        <time>2020-06-27T13:34:34Z</time>
      </trkpt>
      <trkpt lat="48.40527" lon="-0.81011">
        <ele>146.71</ele>
        <time>2020-06-27T13:34:40Z</time>
      </trkpt>
      <trkpt lat="48.40534" lon="-0.81016">
        <ele>146.71</ele>
        <time>2020-06-27T13:34:46Z</time>
      </trkpt>
      <trkpt lat="48.40539" lon="-0.81018">
        <ele>143.71</ele>
        <time>2020-06-27T13:34:52Z</time>
      </trkpt>
      <trkpt lat="48.40544" lon="-0.81023">
        <ele>144.71</ele>
        <time>2020-06-27T13:34:57Z</time>
      </trkpt>
      <trkpt lat="48.40548" lon="-0.81027">
        <ele>144.71</ele>
        <time>2020-06-27T13:35:02Z</time>
      </trkpt>
      <trkpt lat="48.40555" lon="-0.81032">
        <ele>146.71</ele>
        <time>2020-06-27T13:35:08Z</time>
      </trkpt>
      <trkpt lat="48.4056" lon="-0.81037">
        <ele>147.71</ele>
        <time>2020-06-27T13:35:13Z</time>
      </trkpt>
      <trkpt lat="48.40567" lon="-0.81045">
        <ele>151.71</ele>
        <time>2020-06-27T13:35:19Z</time>
      </trkpt>
      <trkpt lat="48.40573" lon="-0.81049">
        <ele>153.71</ele>
        <time>2020-06-27T13:35:24Z</time>
      </trkpt>
      <trkpt lat="48.40576" lon="-0.81053">
        <ele>153.71</ele>
        <time>2020-06-27T13:35:29Z</time>
      </trkpt>
      <trkpt lat="48.4058" lon="-0.81056">
        <ele>153.71</ele>
        <time>2020-06-27T13:35:35Z</time>
      </trkpt>
      <trkpt lat="48.40583" lon="-0.81057">
        <ele>152.71</ele>
        <time>2020-06-27T13:35:41Z</time>
      </trkpt>
      <trkpt lat="48.40587" lon="-0.8106">
        <ele>151.71</ele>
        <time>2020-06-27T13:35:47Z</time>
      </trkpt>
      <trkpt lat="48.40593" lon="-0.81065">
        <ele>150.71</ele>
        <time>2020-06-27T13:35:53Z</time>
      </trkpt>
      <trkpt lat="48.40598" lon="-0.81068">
        <ele>150.71</ele>
        <time>2020-06-27T13:35:58Z</time>
      </trkpt>
      <trkpt lat="48.40603" lon="-0.8107">
        <ele>151.71</ele>
        <time>2020-06-27T13:36:04Z</time>
      </trkpt>
      <trkpt lat="48.40608" lon="-0.81071">
        <ele>152.71</ele>
        <time>2020-06-27T13:36:10Z</time>
      </trkpt>
      <trkpt lat="48.40613" lon="-0.81068">
        <ele>152.71</ele>
        <time>2020-06-27T13:36:16Z</time>
      </trkpt>
      <trkpt lat="48.40618" lon="-0.81063">
        <ele>153.71</ele>
        <time>2020-06-27T13:36:22Z</time>
      </trkpt>
      <trkpt lat="48.40625" lon="-0.81061">
        <ele>152.71</ele>
        <time>2020-06-27T13:36:28Z</time>
      </trkpt>
      <trkpt lat="48.4063" lon="-0.81059">
        <ele>152.71</ele>
        <time>2020-06-27T13:36:33Z</time>
      </trkpt>
      <trkpt lat="48.40635" lon="-0.81054">
        <ele>152.71</ele>
        <time>2020-06-27T13:36:39Z</time>
      </trkpt>
      <trkpt lat="48.40639" lon="-0.81047">
        <ele>151.71</ele>
        <time>2020-06-27T13:36:45Z</time>
      </trkpt>
      <trkpt lat="48.40643" lon="-0.81041">
        <ele>151.71</ele>
        <time>2020-06-27T13:36:50Z</time>
      </trkpt>
      <trkpt lat="48.40645" lon="-0.81035">
        <ele>151.71</ele>
        <time>2020-06-27T13:36:55Z</time>
      </trkpt>
      <trkpt lat="48.40648" lon="-0.81029">
        <ele>151.71</ele>
        <time>2020-06-27T13:37:00Z</time>
      </trkpt>
      <trkpt lat="48.40651" lon="-0.81023">
        <ele>150.71</ele>
        <time>2020-06-27T13:37:06Z</time>
      </trkpt>
      <trkpt lat="48.40654" lon="-0.81016">
        <ele>149.71</ele>
        <time>2020-06-27T13:37:11Z</time>
      </trkpt>
      <trkpt lat="48.40658" lon="-0.81011">
        <ele>149.71</ele>
        <time>2020-06-27T13:37:17Z</time>
      </trkpt>
      <trkpt lat="48.40663" lon="-0.81009">
        <ele>148.71</ele>
        <time>2020-06-27T13:37:23Z</time>
      </trkpt>
      <trkpt lat="48.40668" lon="-0.81014">
        <ele>147.71</ele>
        <time>2020-06-27T13:37:28Z</time>
      </trkpt>
      <trkpt lat="48.40673" lon="-0.81018">
        <ele>148.71</ele>
        <time>2020-06-27T13:37:34Z</time>
      </trkpt>
      <trkpt lat="48.40678" lon="-0.81022">
        <ele>148.71</ele>
        <time>2020-06-27T13:37:40Z</time>
      </trkpt>
      <trkpt lat="48.40682" lon="-0.81025">
        <ele>148.71</ele>
        <time>2020-06-27T13:37:45Z</time>
      </trkpt>
      <trkpt lat="48.40687" lon="-0.81028">
        <ele>147.71</ele>
        <time>2020-06-27T13:37:50Z</time>
      </trkpt>
      <trkpt lat="48.40692" lon="-0.81029">
        <ele>146.71</ele>
        <time>2020-06-27T13:37:56Z</time>
      </trkpt>
      <trkpt lat="48.40696" lon="-0.81029">
        <ele>145.71</ele>
        <time>2020-06-27T13:38:01Z</time>
      </trkpt>
      <trkpt lat="48.40702" lon="-0.8103">
        <ele>145.71</ele>
        <time>2020-06-27T13:38:07Z</time>
      </trkpt>
      <trkpt lat="48.40708" lon="-0.81031">
        <ele>146.71</ele>
        <time>2020-06-27T13:38:12Z</time>
      </trkpt>
      <trkpt lat="48.40713" lon="-0.81033">
        <ele>147.71</ele>
        <time>2020-06-27T13:38:17Z</time>
      </trkpt>
      <trkpt lat="48.4072" lon="-0.81036">
        <ele>148.71</ele>
        <time>2020-06-27T13:38:23Z</time>
      </trkpt>
      <trkpt lat="48.40725" lon="-0.8104">
        <ele>148.71</ele>
        <time>2020-06-27T13:38:29Z</time>
      </trkpt>
      <trkpt lat="48.40732" lon="-0.81046">
        <ele>148.71</ele>
        <time>2020-06-27T13:38:35Z</time>
      </trkpt>
      <trkpt lat="48.40737" lon="-0.81048">
        <ele>148.71</ele>
        <time>2020-06-27T13:38:40Z</time>
      </trkpt>
      <trkpt lat="48.40744" lon="-0.81049">
        <ele>149.71</ele>
        <time>2020-06-27T13:38:46Z</time>
      </trkpt>
      <trkpt lat="48.40748" lon="-0.8105">
        <ele>149.71</ele>
        <time>2020-06-27T13:38:52Z</time>
      </trkpt>
      <trkpt lat="48.40756" lon="-0.81047">
        <ele>150.71</ele>
        <time>2020-06-27T13:38:58Z</time>
      </trkpt>
      <trkpt lat="48.4076" lon="-0.81043">
        <ele>150.71</ele>
        <time>2020-06-27T13:39:03Z</time>
      </trkpt>
      <trkpt lat="48.40765" lon="-0.81039">
        <ele>150.71</ele>
        <time>2020-06-27T13:39:09Z</time>
      </trkpt>
      <trkpt lat="48.40771" lon="-0.81043">
        <ele>151.71</ele>
        <time>2020-06-27T13:39:15Z</time>
      </trkpt>
      <trkpt lat="48.40775" lon="-0.81048">
        <ele>151.71</ele>
        <time>2020-06-27T13:39:20Z</time>
      </trkpt>
      <trkpt lat="48.40778" lon="-0.81055">
        <ele>151.71</ele>
        <time>2020-06-27T13:39:25Z</time>
      </trkpt>
      <trkpt lat="48.40782" lon="-0.81062">
        <ele>152.71</ele>
        <time>2020-06-27T13:39:31Z</time>
      </trkpt>
      <trkpt lat="48.40789" lon="-0.81064">
        <ele>151.71</ele>
        <time>2020-06-27T13:39:37Z</time>
      </trkpt>
      <trkpt lat="48.40794" lon="-0.81069">
        <ele>150.71</ele>
        <time>2020-06-27T13:39:43Z</time>
      </trkpt>
      <trkpt lat="48.40797" lon="-0.81074">
        <ele>149.71</ele>
        <time>2020-06-27T13:39:48Z</time>
      </trkpt>
      <trkpt lat="48.40799" lon="-0.81082">
        <ele>149.71</ele>
        <time>2020-06-27T13:39:54Z</time>
      </trkpt>
      <trkpt lat="48.40804" lon="-0.81092">
        <ele>151.71</ele>
        <time>2020-06-27T13:40:00Z</time>
      </trkpt>
      <trkpt lat="48.40805" lon="-0.811">
        <ele>151.71</ele>
        <time>2020-06-27T13:40:05Z</time>
      </trkpt>
      <trkpt lat="48.40806" lon="-0.81109">
        <ele>150.71</ele>
        <time>2020-06-27T13:40:11Z</time>
      </trkpt>
      <trkpt lat="48.4081" lon="-0.81116">
        <ele>152.71</ele>
        <time>2020-06-27T13:40:16Z</time>
      </trkpt>
      <trkpt lat="48.40814" lon="-0.81122">
        <ele>153.71</ele>
        <time>2020-06-27T13:40:21Z</time>
      </trkpt>
      <trkpt lat="48.40814" lon="-0.81124">
        <ele>152.71</ele>
        <time>2020-06-27T13:40:27Z</time>
      </trkpt>
      <trkpt lat="48.40813" lon="-0.8113">
        <ele>153.71</ele>
        <time>2020-06-27T13:40:33Z</time>
      </trkpt>
      <trkpt lat="48.40813" lon="-0.81139">
        <ele>153.71</ele>
        <time>2020-06-27T13:40:39Z</time>
      </trkpt>
      <trkpt lat="48.40813" lon="-0.8114">
        <ele>154.71</ele>
        <time>2020-06-27T13:40:44Z</time>
      </trkpt>
      <trkpt lat="48.40812" lon="-0.8114">
        <ele>153.71</ele>
        <time>2020-06-27T13:40:49Z</time>
      </trkpt>
      <trkpt lat="48.40812" lon="-0.81141">
        <ele>152.71</ele>
        <time>2020-06-27T13:40:55Z</time>
      </trkpt>
      <trkpt lat="48.40812" lon="-0.81151">
        <ele>152.71</ele>
        <time>2020-06-27T13:41:01Z</time>
      </trkpt>
      <trkpt lat="48.40813" lon="-0.8116">
        <ele>152.71</ele>
        <time>2020-06-27T13:41:06Z</time>
      </trkpt>
      <trkpt lat="48.40813" lon="-0.81164">
        <ele>153.71</ele>
        <time>2020-06-27T13:41:11Z</time>
      </trkpt>
      <trkpt lat="48.40813" lon="-0.81167">
        <ele>153.71</ele>
        <time>2020-06-27T13:41:16Z</time>
      </trkpt>
      <trkpt lat="48.40814" lon="-0.81176">
        <ele>154.71</ele>
        <time>2020-06-27T13:41:22Z</time>
      </trkpt>
      <trkpt lat="48.40815" lon="-0.81186">
        <ele>154.71</ele>
        <time>2020-06-27T13:41:28Z</time>
      </trkpt>
      <trkpt lat="48.40816" lon="-0.81197">
        <ele>153.71</ele>
        <time>2020-06-27T13:41:34Z</time>
      </trkpt>
      <trkpt lat="48.40816" lon="-0.81205">
        <ele>153.71</ele>
        <time>2020-06-27T13:41:39Z</time>
      </trkpt>
      <trkpt lat="48.40816" lon="-0.81215">
        <ele>153.71</ele>
        <time>2020-06-27T13:41:45Z</time>
      </trkpt>
      <trkpt lat="48.40817" lon="-0.81226">
        <ele>153.71</ele>
        <time>2020-06-27T13:41:51Z</time>
      </trkpt>
      <trkpt lat="48.40817" lon="-0.81235">
        <ele>152.71</ele>
        <time>2020-06-27T13:41:57Z</time>
      </trkpt>
      <trkpt lat="48.40819" lon="-0.81245">
        <ele>152.71</ele>
        <time>2020-06-27T13:42:03Z</time>
      </trkpt>
      <trkpt lat="48.40823" lon="-0.81252">
        <ele>153.71</ele>
        <time>2020-06-27T13:42:08Z</time>
      </trkpt>
      <trkpt lat="48.40826" lon="-0.8126">
        <ele>152.71</ele>
        <time>2020-06-27T13:42:14Z</time>
      </trkpt>
      <trkpt lat="48.40826" lon="-0.81267">
        <ele>152.71</ele>
        <time>2020-06-27T13:42:19Z</time>
      </trkpt>
      <trkpt lat="48.40827" lon="-0.81277">
        <ele>152.71</ele>
        <time>2020-06-27T13:42:25Z</time>
      </trkpt>
      <trkpt lat="48.40828" lon="-0.81285">
        <ele>152.71</ele>
        <time>2020-06-27T13:42:30Z</time>
      </trkpt>
      <trkpt lat="48.40829" lon="-0.81295">
        <ele>152.71</ele>
        <time>2020-06-27T13:42:36Z</time>
      </trkpt>
      <trkpt lat="48.4083" lon="-0.81305">
        <ele>153.71</ele>
        <time>2020-06-27T13:42:42Z</time>
      </trkpt>
      <trkpt lat="48.4083" lon="-0.81313">
        <ele>153.71</ele>
        <time>2020-06-27T13:42:47Z</time>
      </trkpt>
      <trkpt lat="48.40831" lon="-0.81324">
        <ele>154.71</ele>
        <time>2020-06-27T13:42:53Z</time>
      </trkpt>
      <trkpt lat="48.40831" lon="-0.81332">
        <ele>154.71</ele>
        <time>2020-06-27T13:42:58Z</time>
      </trkpt>
      <trkpt lat="48.40831" lon="-0.8134">
        <ele>153.71</ele>
        <time>2020-06-27T13:43:03Z</time>
      </trkpt>
      <trkpt lat="48.40833" lon="-0.81348">
        <ele>155.71</ele>
        <time>2020-06-27T13:43:08Z</time>
      </trkpt>
      <trkpt lat="48.40836" lon="-0.81352">
        <ele>155.71</ele>
        <time>2020-06-27T13:43:14Z</time>
      </trkpt>
      <trkpt lat="48.40836" lon="-0.81352">
        <ele>155.71</ele>
        <time>2020-06-27T13:43:20Z</time>
      </trkpt>
      <trkpt lat="48.40836" lon="-0.81352">
        <ele>155.71</ele>
        <time>2020-06-27T13:43:26Z</time>
      </trkpt>
      <trkpt lat="48.40837" lon="-0.81353">
        <ele>155.71</ele>
        <time>2020-06-27T13:43:31Z</time>
      </trkpt>
      <trkpt lat="48.40837" lon="-0.81354">
        <ele>156.71</ele>
        <time>2020-06-27T13:43:37Z</time>
      </trkpt>
      <trkpt lat="48.40836" lon="-0.81354">
        <ele>156.71</ele>
        <time>2020-06-27T13:43:42Z</time>
      </trkpt>
      <trkpt lat="48.40836" lon="-0.81358">
        <ele>157.71</ele>
        <time>2020-06-27T13:43:48Z</time>
      </trkpt>
      <trkpt lat="48.40834" lon="-0.81366">
        <ele>156.71</ele>
        <time>2020-06-27T13:43:53Z</time>
      </trkpt>
      <trkpt lat="48.40834" lon="-0.81375">
        <ele>157.71</ele>
        <time>2020-06-27T13:43:59Z</time>
      </trkpt>
      <trkpt lat="48.40834" lon="-0.81382">
        <ele>157.71</ele>
        <time>2020-06-27T13:44:04Z</time>
      </trkpt>
      <trkpt lat="48.40834" lon="-0.81382">
        <ele>156.71</ele>
        <time>2020-06-27T13:44:09Z</time>
      </trkpt>
      <trkpt lat="48.40834" lon="-0.81381">
        <ele>155.71</ele>
        <time>2020-06-27T13:44:15Z</time>
      </trkpt>
      <trkpt lat="48.40835" lon="-0.8138">
        <ele>155.71</ele>
        <time>2020-06-27T13:44:21Z</time>
      </trkpt>
      <trkpt lat="48.40835" lon="-0.8138">
        <ele>155.71</ele>
        <time>2020-06-27T13:44:26Z</time>
      </trkpt>
      <trkpt lat="48.40836" lon="-0.81384">
        <ele>155.71</ele>
        <time>2020-06-27T13:44:31Z</time>
      </trkpt>
      <trkpt lat="48.40838" lon="-0.81387">
        <ele>155.71</ele>
        <time>2020-06-27T13:44:36Z</time>
      </trkpt>
      <trkpt lat="48.4084" lon="-0.81393">
        <ele>155.71</ele>
        <time>2020-06-27T13:44:42Z</time>
      </trkpt>
      <trkpt lat="48.4084" lon="-0.81394">
        <ele>156.71</ele>
        <time>2020-06-27T13:44:48Z</time>
      </trkpt>
      <trkpt lat="48.4084" lon="-0.81394">
        <ele>154.71</ele>
        <time>2020-06-27T13:44:54Z</time>
      </trkpt>
      <trkpt lat="48.4084" lon="-0.81394">
        <ele>154.71</ele>
        <time>2020-06-27T13:44:59Z</time>
      </trkpt>
      <trkpt lat="48.4084" lon="-0.81394">
        <ele>154.71</ele>
        <time>2020-06-27T13:45:05Z</time>
      </trkpt>
      <trkpt lat="48.4084" lon="-0.81394">
        <ele>154.71</ele>
        <time>2020-06-27T13:45:12Z</time>
      </trkpt>
      <trkpt lat="48.4084" lon="-0.81394">
        <ele>154.71</ele>
        <time>2020-06-27T13:45:19Z</time>
      </trkpt>
      <trkpt lat="48.4084" lon="-0.81394">
        <ele>154.71</ele>
        <time>2020-06-27T13:45:25Z</time>
      </trkpt>
      <trkpt lat="48.4084" lon="-0.81394">
        <ele>154.71</ele>
        <time>2020-06-27T13:45:31Z</time>
      </trkpt>
      <trkpt lat="48.4084" lon="-0.81394">
        <ele>154.71</ele>
        <time>2020-06-27T13:45:36Z</time>
      </trkpt>
      <trkpt lat="48.4084" lon="-0.81394">
        <ele>154.71</ele>
        <time>2020-06-27T13:45:41Z</time>
      </trkpt>
      <trkpt lat="48.4084" lon="-0.81394">
        <ele>154.71</ele>
        <time>2020-06-27T13:45:47Z</time>
      </trkpt>
      <trkpt lat="48.40841" lon="-0.81393">
        <ele>153.71</ele>
        <time>2020-06-27T13:45:53Z</time>
      </trkpt>
      <trkpt lat="48.40843" lon="-0.81391">
        <ele>154.71</ele>
        <time>2020-06-27T13:45:59Z</time>
      </trkpt>
      <trkpt lat="48.40843" lon="-0.81391">
        <ele>153.71</ele>
        <time>2020-06-27T13:46:05Z</time>
      </trkpt>
      <trkpt lat="48.40843" lon="-0.8139">
        <ele>153.71</ele>
        <time>2020-06-27T13:46:11Z</time>
      </trkpt>
      <trkpt lat="48.40843" lon="-0.8139">
        <ele>153.71</ele>
        <time>2020-06-27T13:46:16Z</time>
      </trkpt>
      <trkpt lat="48.40843" lon="-0.8139">
        <ele>153.71</ele>
        <time>2020-06-27T13:46:21Z</time>
      </trkpt>
      <trkpt lat="48.40843" lon="-0.8139">
        <ele>153.71</ele>
        <time>2020-06-27T13:46:26Z</time>
      </trkpt>
      <trkpt lat="48.40843" lon="-0.8139">
        <ele>153.71</ele>
        <time>2020-06-27T13:46:32Z</time>
      </trkpt>
      <trkpt lat="48.40843" lon="-0.8139">
        <ele>153.71</ele>
        <time>2020-06-27T13:46:38Z</time>
      </trkpt>
      <trkpt lat="48.40843" lon="-0.8139">
        <ele>153.71</ele>
        <time>2020-06-27T13:46:44Z</time>
      </trkpt>
      <trkpt lat="48.40843" lon="-0.8139">
        <ele>153.71</ele>
        <time>2020-06-27T13:46:49Z</time>
      </trkpt>
      <trkpt lat="48.40843" lon="-0.8139">
        <ele>153.71</ele>
        <time>2020-06-27T13:46:54Z</time>
      </trkpt>
      <trkpt lat="48.40843" lon="-0.8139">
        <ele>153.71</ele>
        <time>2020-06-27T13:46:59Z</time>
      </trkpt>
      <trkpt lat="48.40843" lon="-0.8139">
        <ele>153.71</ele>
        <time>2020-06-27T13:47:05Z</time>
      </trkpt>
      <trkpt lat="48.40844" lon="-0.8139">
        <ele>153.71</ele>
        <time>2020-06-27T13:47:11Z</time>
      </trkpt>
      <trkpt lat="48.40849" lon="-0.8139">
        <ele>150.71</ele>
        <time>2020-06-27T13:47:16Z</time>
      </trkpt>
      <trkpt lat="48.40856" lon="-0.8139">
        <ele>150.71</ele>
        <time>2020-06-27T13:47:22Z</time>
      </trkpt>
      <trkpt lat="48.40862" lon="-0.81391">
        <ele>151.71</ele>
        <time>2020-06-27T13:47:27Z</time>
      </trkpt>
      <trkpt lat="48.40867" lon="-0.81394">
        <ele>151.71</ele>
        <time>2020-06-27T13:47:33Z</time>
      </trkpt>
      <trkpt lat="48.40873" lon="-0.81397">
        <ele>152.71</ele>
        <time>2020-06-27T13:47:39Z</time>
      </trkpt>
      <trkpt lat="48.40878" lon="-0.81401">
        <ele>153.71</ele>
        <time>2020-06-27T13:47:44Z</time>
      </trkpt>
      <trkpt lat="48.40883" lon="-0.81406">
        <ele>155.71</ele>
        <time>2020-06-27T13:47:50Z</time>
      </trkpt>
      <trkpt lat="48.40883" lon="-0.81412">
        <ele>154.71</ele>
        <time>2020-06-27T13:47:55Z</time>
      </trkpt>
      <trkpt lat="48.40884" lon="-0.81418">
        <ele>154.71</ele>
        <time>2020-06-27T13:48:01Z</time>
      </trkpt>
      <trkpt lat="48.40885" lon="-0.81424">
        <ele>153.71</ele>
        <time>2020-06-27T13:48:06Z</time>
      </trkpt>
      <trkpt lat="48.40887" lon="-0.81432">
        <ele>152.71</ele>
        <time>2020-06-27T13:48:12Z</time>
      </trkpt>
      <trkpt lat="48.40885" lon="-0.81438">
        <ele>151.71</ele>
        <time>2020-06-27T13:48:17Z</time>
      </trkpt>
      <trkpt lat="48.40882" lon="-0.81444">
        <ele>151.71</ele>
        <time>2020-06-27T13:48:22Z</time>
      </trkpt>
      <trkpt lat="48.4088" lon="-0.81453">
        <ele>153.71</ele>
        <time>2020-06-27T13:48:27Z</time>
      </trkpt>
      <trkpt lat="48.40876" lon="-0.81463">
        <ele>152.71</ele>
        <time>2020-06-27T13:48:33Z</time>
      </trkpt>
      <trkpt lat="48.40873" lon="-0.81475">
        <ele>155.71</ele>
        <time>2020-06-27T13:48:39Z</time>
      </trkpt>
      <trkpt lat="48.4087" lon="-0.81484">
        <ele>155.71</ele>
        <time>2020-06-27T13:48:45Z</time>
      </trkpt>
      <trkpt lat="48.4087" lon="-0.81493">
        <ele>155.71</ele>
        <time>2020-06-27T13:48:50Z</time>
      </trkpt>
      <trkpt lat="48.4087" lon="-0.81502">
        <ele>154.71</ele>
        <time>2020-06-27T13:48:56Z</time>
      </trkpt>
      <trkpt lat="48.40869" lon="-0.81511">
        <ele>156.71</ele>
        <time>2020-06-27T13:49:02Z</time>
      </trkpt>
      <trkpt lat="48.4087" lon="-0.81517">
        <ele>155.71</ele>
        <time>2020-06-27T13:49:08Z</time>
      </trkpt>
      <trkpt lat="48.40873" lon="-0.81524">
        <ele>154.71</ele>
        <time>2020-06-27T13:49:14Z</time>
      </trkpt>
      <trkpt lat="48.40875" lon="-0.81529">
        <ele>154.71</ele>
        <time>2020-06-27T13:49:19Z</time>
      </trkpt>
      <trkpt lat="48.4088" lon="-0.8154">
        <ele>154.71</ele>
        <time>2020-06-27T13:49:25Z</time>
      </trkpt>
      <trkpt lat="48.40884" lon="-0.81548">
        <ele>152.71</ele>
        <time>2020-06-27T13:49:31Z</time>
      </trkpt>
      <trkpt lat="48.40887" lon="-0.81556">
        <ele>153.71</ele>
        <time>2020-06-27T13:49:36Z</time>
      </trkpt>
      <trkpt lat="48.40892" lon="-0.81563">
        <ele>153.71</ele>
        <time>2020-06-27T13:49:42Z</time>
      </trkpt>
      <trkpt lat="48.40898" lon="-0.81569">
        <ele>155.71</ele>
        <time>2020-06-27T13:49:47Z</time>
      </trkpt>
      <trkpt lat="48.40905" lon="-0.81579">
        <ele>158.71</ele>
        <time>2020-06-27T13:49:53Z</time>
      </trkpt>
      <trkpt lat="48.40911" lon="-0.81581">
        <ele>159.71</ele>
        <time>2020-06-27T13:49:58Z</time>
      </trkpt>
      <trkpt lat="48.40916" lon="-0.81581">
        <ele>155.71</ele>
        <time>2020-06-27T13:50:04Z</time>
      </trkpt>
      <trkpt lat="48.40922" lon="-0.81586">
        <ele>155.71</ele>
        <time>2020-06-27T13:50:10Z</time>
      </trkpt>
      <trkpt lat="48.40929" lon="-0.81588">
        <ele>155.71</ele>
        <time>2020-06-27T13:50:16Z</time>
      </trkpt>
      <trkpt lat="48.40935" lon="-0.81591">
        <ele>154.71</ele>
        <time>2020-06-27T13:50:21Z</time>
      </trkpt>
      <trkpt lat="48.4094" lon="-0.81594">
        <ele>153.71</ele>
        <time>2020-06-27T13:50:27Z</time>
      </trkpt>
      <trkpt lat="48.40947" lon="-0.81597">
        <ele>155.71</ele>
        <time>2020-06-27T13:50:33Z</time>
      </trkpt>
      <trkpt lat="48.40951" lon="-0.81602">
        <ele>154.71</ele>
        <time>2020-06-27T13:50:38Z</time>
      </trkpt>
      <trkpt lat="48.40955" lon="-0.81606">
        <ele>154.71</ele>
        <time>2020-06-27T13:50:43Z</time>
      </trkpt>
      <trkpt lat="48.4096" lon="-0.81608">
        <ele>154.71</ele>
        <time>2020-06-27T13:50:49Z</time>
      </trkpt>
      <trkpt lat="48.40964" lon="-0.81615">
        <ele>152.71</ele>
        <time>2020-06-27T13:50:55Z</time>
      </trkpt>
      <trkpt lat="48.40967" lon="-0.81621">
        <ele>152.71</ele>
        <time>2020-06-27T13:51:00Z</time>
      </trkpt>
      <trkpt lat="48.40972" lon="-0.81627">
        <ele>153.71</ele>
        <time>2020-06-27T13:51:05Z</time>
      </trkpt>
      <trkpt lat="48.40974" lon="-0.81633">
        <ele>152.71</ele>
        <time>2020-06-27T13:51:10Z</time>
      </trkpt>
      <trkpt lat="48.40978" lon="-0.81636">
        <ele>151.71</ele>
        <time>2020-06-27T13:51:16Z</time>
      </trkpt>
      <trkpt lat="48.40984" lon="-0.81639">
        <ele>152.71</ele>
        <time>2020-06-27T13:51:21Z</time>
      </trkpt>
      <trkpt lat="48.40989" lon="-0.81645">
        <ele>153.71</ele>
        <time>2020-06-27T13:51:27Z</time>
      </trkpt>
      <trkpt lat="48.40996" lon="-0.8165">
        <ele>154.71</ele>
        <time>2020-06-27T13:51:33Z</time>
      </trkpt>
      <trkpt lat="48.41002" lon="-0.81657">
        <ele>152.71</ele>
        <time>2020-06-27T13:51:39Z</time>
      </trkpt>
      <trkpt lat="48.41006" lon="-0.81662">
        <ele>153.71</ele>
        <time>2020-06-27T13:51:45Z</time>
      </trkpt>
      <trkpt lat="48.41008" lon="-0.81669">
        <ele>154.71</ele>
        <time>2020-06-27T13:51:51Z</time>
      </trkpt>
      <trkpt lat="48.41006" lon="-0.81672">
        <ele>154.71</ele>
        <time>2020-06-27T13:51:57Z</time>
      </trkpt>
      <trkpt lat="48.41005" lon="-0.81673">
        <ele>154.71</ele>
        <time>2020-06-27T13:52:02Z</time>
      </trkpt>
      <trkpt lat="48.41004" lon="-0.81673">
        <ele>155.71</ele>
        <time>2020-06-27T13:52:08Z</time>
      </trkpt>
      <trkpt lat="48.41004" lon="-0.81672">
        <ele>155.71</ele>
        <time>2020-06-27T13:52:14Z</time>
      </trkpt>
      <trkpt lat="48.41004" lon="-0.81679">
        <ele>154.71</ele>
        <time>2020-06-27T13:52:20Z</time>
      </trkpt>
      <trkpt lat="48.41005" lon="-0.81687">
        <ele>154.71</ele>
        <time>2020-06-27T13:52:26Z</time>
      </trkpt>
      <trkpt lat="48.41005" lon="-0.81692">
        <ele>153.71</ele>
        <time>2020-06-27T13:52:32Z</time>
      </trkpt>
      <trkpt lat="48.41004" lon="-0.81699">
        <ele>152.71</ele>
        <time>2020-06-27T13:52:37Z</time>
      </trkpt>
      <trkpt lat="48.41005" lon="-0.81709">
        <ele>151.71</ele>
        <time>2020-06-27T13:52:43Z</time>
      </trkpt>
      <trkpt lat="48.41008" lon="-0.81716">
        <ele>152.71</ele>
        <time>2020-06-27T13:52:48Z</time>
      </trkpt>
      <trkpt lat="48.4101" lon="-0.81726">
        <ele>154.71</ele>
        <time>2020-06-27T13:52:54Z</time>
      </trkpt>
      <trkpt lat="48.41011" lon="-0.81735">
        <ele>154.71</ele>
        <time>2020-06-27T13:53:00Z</time>
      </trkpt>
      <trkpt lat="48.41011" lon="-0.81743">
        <ele>154.71</ele>
        <time>2020-06-27T13:53:05Z</time>
      </trkpt>
      <trkpt lat="48.41009" lon="-0.8175">
        <ele>155.71</ele>
        <time>2020-06-27T13:53:11Z</time>
      </trkpt>
      <trkpt lat="48.41008" lon="-0.81752">
        <ele>155.71</ele>
        <time>2020-06-27T13:53:16Z</time>
      </trkpt>
      <trkpt lat="48.41005" lon="-0.81759">
        <ele>154.71</ele>
        <time>2020-06-27T13:53:22Z</time>
      </trkpt>
      <trkpt lat="48.41005" lon="-0.81766">
        <ele>154.71</ele>
        <time>2020-06-27T13:53:27Z</time>
      </trkpt>
      <trkpt lat="48.41003" lon="-0.81774">
        <ele>155.71</ele>
        <time>2020-06-27T13:53:33Z</time>
      </trkpt>
      <trkpt lat="48.41002" lon="-0.81783">
        <ele>156.71</ele>
        <time>2020-06-27T13:53:39Z</time>
      </trkpt>
      <trkpt lat="48.41001" lon="-0.81789">
        <ele>156.71</ele>
        <time>2020-06-27T13:53:44Z</time>
      </trkpt>
      <trkpt lat="48.41001" lon="-0.81792">
        <ele>157.71</ele>
        <time>2020-06-27T13:53:49Z</time>
      </trkpt>
      <trkpt lat="48.41005" lon="-0.818">
        <ele>158.71</ele>
        <time>2020-06-27T13:53:54Z</time>
      </trkpt>
      <trkpt lat="48.41011" lon="-0.81805">
        <ele>157.71</ele>
        <time>2020-06-27T13:54:00Z</time>
      </trkpt>
      <trkpt lat="48.41015" lon="-0.81806">
        <ele>157.71</ele>
        <time>2020-06-27T13:54:05Z</time>
      </trkpt>
      <trkpt lat="48.41021" lon="-0.81807">
        <ele>156.71</ele>
        <time>2020-06-27T13:54:11Z</time>
      </trkpt>
      <trkpt lat="48.41027" lon="-0.81807">
        <ele>156.71</ele>
        <time>2020-06-27T13:54:16Z</time>
      </trkpt>
      <trkpt lat="48.41032" lon="-0.81808">
        <ele>156.71</ele>
        <time>2020-06-27T13:54:21Z</time>
      </trkpt>
      <trkpt lat="48.41037" lon="-0.81808">
        <ele>156.71</ele>
        <time>2020-06-27T13:54:27Z</time>
      </trkpt>
      <trkpt lat="48.41042" lon="-0.81808">
        <ele>156.71</ele>
        <time>2020-06-27T13:54:32Z</time>
      </trkpt>
      <trkpt lat="48.41048" lon="-0.81812">
        <ele>155.71</ele>
        <time>2020-06-27T13:54:38Z</time>
      </trkpt>
      <trkpt lat="48.41052" lon="-0.81811">
        <ele>155.71</ele>
        <time>2020-06-27T13:54:44Z</time>
      </trkpt>
      <trkpt lat="48.41057" lon="-0.81809">
        <ele>155.71</ele>
        <time>2020-06-27T13:54:49Z</time>
      </trkpt>
      <trkpt lat="48.4106" lon="-0.81809">
        <ele>156.71</ele>
        <time>2020-06-27T13:54:54Z</time>
      </trkpt>
      <trkpt lat="48.41066" lon="-0.81811">
        <ele>157.71</ele>
        <time>2020-06-27T13:55:00Z</time>
      </trkpt>
      <trkpt lat="48.4107" lon="-0.81811">
        <ele>157.71</ele>
        <time>2020-06-27T13:55:05Z</time>
      </trkpt>
      <trkpt lat="48.41075" lon="-0.81808">
        <ele>157.71</ele>
        <time>2020-06-27T13:55:10Z</time>
      </trkpt>
      <trkpt lat="48.41076" lon="-0.81801">
        <ele>157.71</ele>
        <time>2020-06-27T13:55:16Z</time>
      </trkpt>
      <trkpt lat="48.41078" lon="-0.81793">
        <ele>156.71</ele>
        <time>2020-06-27T13:55:21Z</time>
      </trkpt>
      <trkpt lat="48.41079" lon="-0.81785">
        <ele>155.71</ele>
        <time>2020-06-27T13:55:27Z</time>
      </trkpt>
      <trkpt lat="48.41077" lon="-0.81778">
        <ele>154.71</ele>
        <time>2020-06-27T13:55:33Z</time>
      </trkpt>
      <trkpt lat="48.41076" lon="-0.81773">
        <ele>154.71</ele>
        <time>2020-06-27T13:55:38Z</time>
      </trkpt>
      <trkpt lat="48.41079" lon="-0.81763">
        <ele>155.71</ele>
        <time>2020-06-27T13:55:44Z</time>
      </trkpt>
      <trkpt lat="48.41079" lon="-0.81757">
        <ele>154.71</ele>
        <time>2020-06-27T13:55:49Z</time>
      </trkpt>
      <trkpt lat="48.4108" lon="-0.81754">
        <ele>151.71</ele>
        <time>2020-06-27T13:55:55Z</time>
      </trkpt>
      <trkpt lat="48.4108" lon="-0.81745">
        <ele>152.71</ele>
        <time>2020-06-27T13:56:00Z</time>
      </trkpt>
      <trkpt lat="48.41077" lon="-0.81737">
        <ele>151.71</ele>
        <time>2020-06-27T13:56:05Z</time>
      </trkpt>
      <trkpt lat="48.41075" lon="-0.81729">
        <ele>149.71</ele>
        <time>2020-06-27T13:56:11Z</time>
      </trkpt>
      <trkpt lat="48.41075" lon="-0.81721">
        <ele>150.71</ele>
        <time>2020-06-27T13:56:16Z</time>
      </trkpt>
      <trkpt lat="48.41075" lon="-0.81709">
        <ele>152.71</ele>
        <time>2020-06-27T13:56:22Z</time>
      </trkpt>
      <trkpt lat="48.41073" lon="-0.81703">
        <ele>152.71</ele>
        <time>2020-06-27T13:56:27Z</time>
      </trkpt>
      <trkpt lat="48.41074" lon="-0.81699">
        <ele>153.71</ele>
        <time>2020-06-27T13:56:32Z</time>
      </trkpt>
      <trkpt lat="48.41074" lon="-0.81695">
        <ele>154.71</ele>
        <time>2020-06-27T13:56:38Z</time>
      </trkpt>
      <trkpt lat="48.41074" lon="-0.81685">
        <ele>154.71</ele>
        <time>2020-06-27T13:56:44Z</time>
      </trkpt>
      <trkpt lat="48.41074" lon="-0.81677">
        <ele>154.71</ele>
        <time>2020-06-27T13:56:49Z</time>
      </trkpt>
      <trkpt lat="48.41074" lon="-0.81668">
        <ele>154.71</ele>
        <time>2020-06-27T13:56:55Z</time>
      </trkpt>
      <trkpt lat="48.41071" lon="-0.81658">
        <ele>154.71</ele>
        <time>2020-06-27T13:57:01Z</time>
      </trkpt>
      <trkpt lat="48.41073" lon="-0.81649">
        <ele>154.71</ele>
        <time>2020-06-27T13:57:07Z</time>
      </trkpt>
      <trkpt lat="48.41072" lon="-0.81641">
        <ele>152.71</ele>
        <time>2020-06-27T13:57:12Z</time>
      </trkpt>
      <trkpt lat="48.41071" lon="-0.81636">
        <ele>152.71</ele>
        <time>2020-06-27T13:57:17Z</time>
      </trkpt>
      <trkpt lat="48.41071" lon="-0.81627">
        <ele>153.71</ele>
        <time>2020-06-27T13:57:23Z</time>
      </trkpt>
      <trkpt lat="48.4107" lon="-0.81617">
        <ele>155.71</ele>
        <time>2020-06-27T13:57:29Z</time>
      </trkpt>
      <trkpt lat="48.41067" lon="-0.81609">
        <ele>153.71</ele>
        <time>2020-06-27T13:57:35Z</time>
      </trkpt>
      <trkpt lat="48.41069" lon="-0.81604">
        <ele>151.71</ele>
        <time>2020-06-27T13:57:41Z</time>
      </trkpt>
      <trkpt lat="48.41069" lon="-0.81599">
        <ele>149.71</ele>
        <time>2020-06-27T13:57:47Z</time>
      </trkpt>
      <trkpt lat="48.4107" lon="-0.81592">
        <ele>149.71</ele>
        <time>2020-06-27T13:57:52Z</time>
      </trkpt>
      <trkpt lat="48.41071" lon="-0.81584">
        <ele>150.71</ele>
        <time>2020-06-27T13:57:57Z</time>
      </trkpt>
      <trkpt lat="48.41072" lon="-0.81573">
        <ele>152.71</ele>
        <time>2020-06-27T13:58:02Z</time>
      </trkpt>
      <trkpt lat="48.41072" lon="-0.81562">
        <ele>153.71</ele>
        <time>2020-06-27T13:58:08Z</time>
      </trkpt>
      <trkpt lat="48.41072" lon="-0.81553">
        <ele>154.71</ele>
        <time>2020-06-27T13:58:14Z</time>
      </trkpt>
      <trkpt lat="48.4107" lon="-0.81544">
        <ele>155.71</ele>
        <time>2020-06-27T13:58:19Z</time>
      </trkpt>
      <trkpt lat="48.41067" lon="-0.81535">
        <ele>154.71</ele>
        <time>2020-06-27T13:58:25Z</time>
      </trkpt>
      <trkpt lat="48.41067" lon="-0.8153">
        <ele>152.71</ele>
        <time>2020-06-27T13:58:31Z</time>
      </trkpt>
      <trkpt lat="48.41068" lon="-0.81521">
        <ele>154.71</ele>
        <time>2020-06-27T13:58:36Z</time>
      </trkpt>
      <trkpt lat="48.41066" lon="-0.81516">
        <ele>157.71</ele>
        <time>2020-06-27T13:58:42Z</time>
      </trkpt>
      <trkpt lat="48.41064" lon="-0.81511">
        <ele>159.71</ele>
        <time>2020-06-27T13:58:47Z</time>
      </trkpt>
      <trkpt lat="48.41064" lon="-0.81501">
        <ele>162.71</ele>
        <time>2020-06-27T13:58:53Z</time>
      </trkpt>
      <trkpt lat="48.41062" lon="-0.81493">
        <ele>160.71</ele>
        <time>2020-06-27T13:58:58Z</time>
      </trkpt>
      <trkpt lat="48.41063" lon="-0.81485">
        <ele>160.71</ele>
        <time>2020-06-27T13:59:04Z</time>
      </trkpt>
      <trkpt lat="48.41063" lon="-0.81478">
        <ele>159.71</ele>
        <time>2020-06-27T13:59:09Z</time>
      </trkpt>
      <trkpt lat="48.41063" lon="-0.81469">
        <ele>158.71</ele>
        <time>2020-06-27T13:59:15Z</time>
      </trkpt>
      <trkpt lat="48.41063" lon="-0.8146">
        <ele>157.71</ele>
        <time>2020-06-27T13:59:21Z</time>
      </trkpt>
      <trkpt lat="48.41063" lon="-0.81452">
        <ele>157.71</ele>
        <time>2020-06-27T13:59:27Z</time>
      </trkpt>
      <trkpt lat="48.41063" lon="-0.81443">
        <ele>158.71</ele>
        <time>2020-06-27T13:59:33Z</time>
      </trkpt>
      <trkpt lat="48.41059" lon="-0.81435">
        <ele>159.71</ele>
        <time>2020-06-27T13:59:38Z</time>
      </trkpt>
      <trkpt lat="48.41059" lon="-0.81424">
        <ele>162.71</ele>
        <time>2020-06-27T13:59:44Z</time>
      </trkpt>
      <trkpt lat="48.4106" lon="-0.8141">
        <ele>164.71</ele>
        <time>2020-06-27T13:59:50Z</time>
      </trkpt>
      <trkpt lat="48.41062" lon="-0.81403">
        <ele>165.71</ele>
        <time>2020-06-27T13:59:55Z</time>
      </trkpt>
      <trkpt lat="48.41063" lon="-0.81399">
        <ele>166.71</ele>
        <time>2020-06-27T14:00:01Z</time>
      </trkpt>
      <trkpt lat="48.41064" lon="-0.81399">
        <ele>165.71</ele>
        <time>2020-06-27T14:00:07Z</time>
      </trkpt>
      <trkpt lat="48.41064" lon="-0.81398">
        <ele>166.71</ele>
        <time>2020-06-27T14:00:13Z</time>
      </trkpt>
      <trkpt lat="48.41065" lon="-0.81396">
        <ele>164.71</ele>
        <time>2020-06-27T14:00:18Z</time>
      </trkpt>
      <trkpt lat="48.41065" lon="-0.81387">
        <ele>163.71</ele>
        <time>2020-06-27T14:00:24Z</time>
      </trkpt>
      <trkpt lat="48.41065" lon="-0.81381">
        <ele>161.71</ele>
        <time>2020-06-27T14:00:29Z</time>
      </trkpt>
      <trkpt lat="48.41063" lon="-0.81373">
        <ele>161.71</ele>
        <time>2020-06-27T14:00:35Z</time>
      </trkpt>
      <trkpt lat="48.41064" lon="-0.81363">
        <ele>162.71</ele>
        <time>2020-06-27T14:00:40Z</time>
      </trkpt>
      <trkpt lat="48.41065" lon="-0.81353">
        <ele>164.71</ele>
        <time>2020-06-27T14:00:45Z</time>
      </trkpt>
      <trkpt lat="48.41065" lon="-0.8134">
        <ele>165.71</ele>
        <time>2020-06-27T14:00:51Z</time>
      </trkpt>
      <trkpt lat="48.41065" lon="-0.81331">
        <ele>166.71</ele>
        <time>2020-06-27T14:00:56Z</time>
      </trkpt>
      <trkpt lat="48.41066" lon="-0.81323">
        <ele>165.71</ele>
        <time>2020-06-27T14:01:01Z</time>
      </trkpt>
      <trkpt lat="48.41068" lon="-0.8131">
        <ele>165.71</ele>
        <time>2020-06-27T14:01:07Z</time>
      </trkpt>
      <trkpt lat="48.41068" lon="-0.81301">
        <ele>164.71</ele>
        <time>2020-06-27T14:01:12Z</time>
      </trkpt>
      <trkpt lat="48.41068" lon="-0.81292">
        <ele>164.71</ele>
        <time>2020-06-27T14:01:17Z</time>
      </trkpt>
      <trkpt lat="48.41068" lon="-0.8128">
        <ele>163.71</ele>
        <time>2020-06-27T14:01:23Z</time>
      </trkpt>
      <trkpt lat="48.41069" lon="-0.81273">
        <ele>162.71</ele>
        <time>2020-06-27T14:01:28Z</time>
      </trkpt>
      <trkpt lat="48.41065" lon="-0.81269">
        <ele>162.71</ele>
        <time>2020-06-27T14:01:33Z</time>
      </trkpt>
      <trkpt lat="48.41061" lon="-0.81265">
        <ele>160.71</ele>
        <time>2020-06-27T14:01:39Z</time>
      </trkpt>
      <trkpt lat="48.41058" lon="-0.81262">
        <ele>161.71</ele>
        <time>2020-06-27T14:01:45Z</time>
      </trkpt>
      <trkpt lat="48.41058" lon="-0.81261">
        <ele>160.71</ele>
        <time>2020-06-27T14:01:50Z</time>
      </trkpt>
      <trkpt lat="48.41053" lon="-0.81253">
        <ele>164.71</ele>
        <time>2020-06-27T14:01:56Z</time>
      </trkpt>
      <trkpt lat="48.41051" lon="-0.81247">
        <ele>163.71</ele>
        <time>2020-06-27T14:02:01Z</time>
      </trkpt>
      <trkpt lat="48.41052" lon="-0.81238">
        <ele>164.71</ele>
        <time>2020-06-27T14:02:07Z</time>
      </trkpt>
      <trkpt lat="48.41055" lon="-0.81232">
        <ele>165.71</ele>
        <time>2020-06-27T14:02:12Z</time>
      </trkpt>
      <trkpt lat="48.41054" lon="-0.81235">
        <ele>164.71</ele>
        <time>2020-06-27T14:02:18Z</time>
      </trkpt>
      <trkpt lat="48.41055" lon="-0.81234">
        <ele>164.71</ele>
        <time>2020-06-27T14:02:23Z</time>
      </trkpt>
      <trkpt lat="48.41055" lon="-0.81234">
        <ele>164.71</ele>
        <time>2020-06-27T14:02:28Z</time>
      </trkpt>
      <trkpt lat="48.41055" lon="-0.81234">
        <ele>164.71</ele>
        <time>2020-06-27T14:02:34Z</time>
      </trkpt>
      <trkpt lat="48.41055" lon="-0.81234">
        <ele>164.71</ele>
        <time>2020-06-27T14:02:39Z</time>
      </trkpt>
      <trkpt lat="48.41055" lon="-0.81234">
        <ele>164.71</ele>
        <time>2020-06-27T14:02:45Z</time>
      </trkpt>
      <trkpt lat="48.41055" lon="-0.81234">
        <ele>164.71</ele>
        <time>2020-06-27T14:02:50Z</time>
      </trkpt>
      <trkpt lat="48.41055" lon="-0.81234">
        <ele>164.71</ele>
        <time>2020-06-27T14:02:55Z</time>
      </trkpt>
      <trkpt lat="48.41055" lon="-0.81234">
        <ele>164.71</ele>
        <time>2020-06-27T14:03:00Z</time>
      </trkpt>
      <trkpt lat="48.41055" lon="-0.81234">
        <ele>164.71</ele>
        <time>2020-06-27T14:03:06Z</time>
      </trkpt>
      <trkpt lat="48.41055" lon="-0.81234">
        <ele>164.71</ele>
        <time>2020-06-27T14:03:11Z</time>
      </trkpt>
      <trkpt lat="48.41055" lon="-0.81234">
        <ele>164.71</ele>
        <time>2020-06-27T14:03:16Z</time>
      </trkpt>
      <trkpt lat="48.41055" lon="-0.81234">
        <ele>164.71</ele>
        <time>2020-06-27T14:03:22Z</time>
      </trkpt>
      <trkpt lat="48.41055" lon="-0.81234">
        <ele>165.71</ele>
        <time>2020-06-27T14:03:28Z</time>
      </trkpt>
      <trkpt lat="48.41055" lon="-0.81234">
        <ele>165.71</ele>
        <time>2020-06-27T14:03:33Z</time>
      </trkpt>
      <trkpt lat="48.41055" lon="-0.81234">
        <ele>165.71</ele>
        <time>2020-06-27T14:03:38Z</time>
      </trkpt>
      <trkpt lat="48.41055" lon="-0.81234">
        <ele>165.71</ele>
        <time>2020-06-27T14:03:43Z</time>
      </trkpt>
      <trkpt lat="48.41055" lon="-0.81234">
        <ele>165.71</ele>
        <time>2020-06-27T14:03:49Z</time>
      </trkpt>
      <trkpt lat="48.41055" lon="-0.81234">
        <ele>165.71</ele>
        <time>2020-06-27T14:03:55Z</time>
      </trkpt>
      <trkpt lat="48.41055" lon="-0.81234">
        <ele>165.71</ele>
        <time>2020-06-27T14:04:00Z</time>
      </trkpt>
      <trkpt lat="48.41055" lon="-0.81234">
        <ele>165.71</ele>
        <time>2020-06-27T14:04:05Z</time>
      </trkpt>
      <trkpt lat="48.41055" lon="-0.81234">
        <ele>165.71</ele>
        <time>2020-06-27T14:04:11Z</time>
      </trkpt>
      <trkpt lat="48.41055" lon="-0.81235">
        <ele>165.71</ele>
        <time>2020-06-27T14:04:16Z</time>
      </trkpt>
      <trkpt lat="48.41055" lon="-0.81235">
        <ele>165.71</ele>
        <time>2020-06-27T14:04:22Z</time>
      </trkpt>
      <trkpt lat="48.41055" lon="-0.81235">
        <ele>165.71</ele>
        <time>2020-06-27T14:04:27Z</time>
      </trkpt>
      <trkpt lat="48.41055" lon="-0.81235">
        <ele>165.71</ele>
        <time>2020-06-27T14:04:33Z</time>
      </trkpt>
      <trkpt lat="48.41055" lon="-0.81235">
        <ele>165.71</ele>
        <time>2020-06-27T14:04:38Z</time>
      </trkpt>
      <trkpt lat="48.41055" lon="-0.81235">
        <ele>165.71</ele>
        <time>2020-06-27T14:04:43Z</time>
      </trkpt>
      <trkpt lat="48.41055" lon="-0.81235">
        <ele>165.71</ele>
        <time>2020-06-27T14:04:48Z</time>
      </trkpt>
      <trkpt lat="48.41055" lon="-0.81235">
        <ele>165.71</ele>
        <time>2020-06-27T14:04:54Z</time>
      </trkpt>
      <trkpt lat="48.41055" lon="-0.81235">
        <ele>165.71</ele>
        <time>2020-06-27T14:04:59Z</time>
      </trkpt>
      <trkpt lat="48.41055" lon="-0.81235">
        <ele>165.71</ele>
        <time>2020-06-27T14:05:05Z</time>
      </trkpt>
      <trkpt lat="48.41055" lon="-0.81235">
        <ele>165.71</ele>
        <time>2020-06-27T14:05:10Z</time>
      </trkpt>
      <trkpt lat="48.41055" lon="-0.81235">
        <ele>165.71</ele>
        <time>2020-06-27T14:05:15Z</time>
      </trkpt>
      <trkpt lat="48.41055" lon="-0.81235">
        <ele>165.71</ele>
        <time>2020-06-27T14:05:20Z</time>
      </trkpt>
      <trkpt lat="48.41055" lon="-0.81235">
        <ele>165.71</ele>
        <time>2020-06-27T14:05:26Z</time>
      </trkpt>
      <trkpt lat="48.41055" lon="-0.81235">
        <ele>165.71</ele>
        <time>2020-06-27T14:05:31Z</time>
      </trkpt>
      <trkpt lat="48.41055" lon="-0.81235">
        <ele>165.71</ele>
        <time>2020-06-27T14:05:37Z</time>
      </trkpt>
      <trkpt lat="48.41055" lon="-0.81235">
        <ele>165.71</ele>
        <time>2020-06-27T14:05:42Z</time>
      </trkpt>
      <trkpt lat="48.41055" lon="-0.81235">
        <ele>165.71</ele>
        <time>2020-06-27T14:05:48Z</time>
      </trkpt>
      <trkpt lat="48.41055" lon="-0.81235">
        <ele>165.71</ele>
        <time>2020-06-27T14:05:53Z</time>
      </trkpt>
      <trkpt lat="48.41055" lon="-0.81235">
        <ele>165.71</ele>
        <time>2020-06-27T14:05:59Z</time>
      </trkpt>
      <trkpt lat="48.41055" lon="-0.81235">
        <ele>165.71</ele>
        <time>2020-06-27T14:06:05Z</time>
      </trkpt>
      <trkpt lat="48.41055" lon="-0.81235">
        <ele>165.71</ele>
        <time>2020-06-27T14:06:10Z</time>
      </trkpt>
      <trkpt lat="48.41055" lon="-0.81235">
        <ele>165.71</ele>
        <time>2020-06-27T14:06:15Z</time>
      </trkpt>
      <trkpt lat="48.41055" lon="-0.81235">
        <ele>165.71</ele>
        <time>2020-06-27T14:06:21Z</time>
      </trkpt>
      <trkpt lat="48.41055" lon="-0.81235">
        <ele>165.71</ele>
        <time>2020-06-27T14:06:27Z</time>
      </trkpt>
      <trkpt lat="48.41055" lon="-0.81235">
        <ele>165.71</ele>
        <time>2020-06-27T14:06:33Z</time>
      </trkpt>
      <trkpt lat="48.41055" lon="-0.81235">
        <ele>165.71</ele>
        <time>2020-06-27T14:06:38Z</time>
      </trkpt>
      <trkpt lat="48.41055" lon="-0.81235">
        <ele>165.71</ele>
        <time>2020-06-27T14:06:43Z</time>
      </trkpt>
      <trkpt lat="48.41055" lon="-0.81235">
        <ele>165.71</ele>
        <time>2020-06-27T14:06:48Z</time>
      </trkpt>
      <trkpt lat="48.41055" lon="-0.81235">
        <ele>165.71</ele>
        <time>2020-06-27T14:06:54Z</time>
      </trkpt>
      <trkpt lat="48.41055" lon="-0.81235">
        <ele>165.71</ele>
        <time>2020-06-27T14:07:00Z</time>
      </trkpt>
      <trkpt lat="48.41055" lon="-0.81235">
        <ele>165.71</ele>
        <time>2020-06-27T14:07:06Z</time>
      </trkpt>
      <trkpt lat="48.41055" lon="-0.81235">
        <ele>165.71</ele>
        <time>2020-06-27T14:07:12Z</time>
      </trkpt>
      <trkpt lat="48.41055" lon="-0.81235">
        <ele>165.71</ele>
        <time>2020-06-27T14:07:17Z</time>
      </trkpt>
      <trkpt lat="48.41055" lon="-0.81235">
        <ele>165.71</ele>
        <time>2020-06-27T14:07:22Z</time>
      </trkpt>
      <trkpt lat="48.41055" lon="-0.81235">
        <ele>165.71</ele>
        <time>2020-06-27T14:07:27Z</time>
      </trkpt>
      <trkpt lat="48.41055" lon="-0.81235">
        <ele>165.71</ele>
        <time>2020-06-27T14:07:33Z</time>
      </trkpt>
      <trkpt lat="48.41055" lon="-0.81235">
        <ele>165.71</ele>
        <time>2020-06-27T14:07:39Z</time>
      </trkpt>
      <trkpt lat="48.41055" lon="-0.81235">
        <ele>165.71</ele>
        <time>2020-06-27T14:07:45Z</time>
      </trkpt>
      <trkpt lat="48.41055" lon="-0.81235">
        <ele>165.71</ele>
        <time>2020-06-27T14:07:50Z</time>
      </trkpt>
      <trkpt lat="48.41055" lon="-0.81235">
        <ele>165.71</ele>
        <time>2020-06-27T14:07:56Z</time>
      </trkpt>
      <trkpt lat="48.41055" lon="-0.81235">
        <ele>165.71</ele>
        <time>2020-06-27T14:08:02Z</time>
      </trkpt>
      <trkpt lat="48.41055" lon="-0.81235">
        <ele>165.71</ele>
        <time>2020-06-27T14:08:07Z</time>
      </trkpt>
      <trkpt lat="48.41055" lon="-0.81235">
        <ele>165.71</ele>
        <time>2020-06-27T14:08:12Z</time>
      </trkpt>
      <trkpt lat="48.41055" lon="-0.81235">
        <ele>165.71</ele>
        <time>2020-06-27T14:08:18Z</time>
      </trkpt>
      <trkpt lat="48.41055" lon="-0.81235">
        <ele>165.71</ele>
        <time>2020-06-27T14:08:23Z</time>
      </trkpt>
      <trkpt lat="48.41055" lon="-0.81235">
        <ele>165.71</ele>
        <time>2020-06-27T14:08:29Z</time>
      </trkpt>
      <trkpt lat="48.41055" lon="-0.81235">
        <ele>165.71</ele>
        <time>2020-06-27T14:08:35Z</time>
      </trkpt>
      <trkpt lat="48.41055" lon="-0.81235">
        <ele>165.71</ele>
        <time>2020-06-27T14:08:40Z</time>
      </trkpt>
      <trkpt lat="48.41055" lon="-0.81235">
        <ele>165.71</ele>
        <time>2020-06-27T14:08:46Z</time>
      </trkpt>
      <trkpt lat="48.41055" lon="-0.81235">
        <ele>165.71</ele>
        <time>2020-06-27T14:08:52Z</time>
      </trkpt>
      <trkpt lat="48.41055" lon="-0.81235">
        <ele>165.71</ele>
        <time>2020-06-27T14:08:58Z</time>
      </trkpt>
      <trkpt lat="48.41055" lon="-0.81235">
        <ele>165.71</ele>
        <time>2020-06-27T14:09:04Z</time>
      </trkpt>
      <trkpt lat="48.41055" lon="-0.81235">
        <ele>165.71</ele>
        <time>2020-06-27T14:09:09Z</time>
      </trkpt>
      <trkpt lat="48.41055" lon="-0.81235">
        <ele>165.71</ele>
        <time>2020-06-27T14:09:15Z</time>
      </trkpt>
      <trkpt lat="48.41055" lon="-0.81235">
        <ele>165.71</ele>
        <time>2020-06-27T14:09:20Z</time>
      </trkpt>
      <trkpt lat="48.41068" lon="-0.81241">
        <ele>168.71</ele>
        <time>2020-06-27T14:09:25Z</time>
      </trkpt>
      <trkpt lat="48.4107" lon="-0.81238">
        <ele>170.71</ele>
        <time>2020-06-27T14:09:31Z</time>
      </trkpt>
      <trkpt lat="48.4107" lon="-0.81239">
        <ele>171.71</ele>
        <time>2020-06-27T14:09:36Z</time>
      </trkpt>
      <trkpt lat="48.4107" lon="-0.8124">
        <ele>172.71</ele>
        <time>2020-06-27T14:09:41Z</time>
      </trkpt>
      <trkpt lat="48.4107" lon="-0.8124">
        <ele>172.71</ele>
        <time>2020-06-27T14:09:46Z</time>
      </trkpt>
      <trkpt lat="48.4107" lon="-0.8124">
        <ele>172.71</ele>
        <time>2020-06-27T14:09:52Z</time>
      </trkpt>
      <trkpt lat="48.4107" lon="-0.81239">
        <ele>172.71</ele>
        <time>2020-06-27T14:09:57Z</time>
      </trkpt>
      <trkpt lat="48.4107" lon="-0.8124">
        <ele>172.71</ele>
        <time>2020-06-27T14:10:02Z</time>
      </trkpt>
      <trkpt lat="48.4107" lon="-0.8124">
        <ele>172.71</ele>
        <time>2020-06-27T14:10:08Z</time>
      </trkpt>
      <trkpt lat="48.4107" lon="-0.8124">
        <ele>172.71</ele>
        <time>2020-06-27T14:10:13Z</time>
      </trkpt>
      <trkpt lat="48.4107" lon="-0.8124">
        <ele>172.71</ele>
        <time>2020-06-27T14:10:18Z</time>
      </trkpt>
      <trkpt lat="48.4107" lon="-0.8124">
        <ele>172.71</ele>
        <time>2020-06-27T14:10:24Z</time>
      </trkpt>
      <trkpt lat="48.4107" lon="-0.8124">
        <ele>172.71</ele>
        <time>2020-06-27T14:10:30Z</time>
      </trkpt>
      <trkpt lat="48.4107" lon="-0.8124">
        <ele>173.71</ele>
        <time>2020-06-27T14:10:36Z</time>
      </trkpt>
      <trkpt lat="48.4107" lon="-0.8124">
        <ele>173.71</ele>
        <time>2020-06-27T14:10:41Z</time>
      </trkpt>
      <trkpt lat="48.4107" lon="-0.8124">
        <ele>173.71</ele>
        <time>2020-06-27T14:10:47Z</time>
      </trkpt>
      <trkpt lat="48.41071" lon="-0.8124">
        <ele>173.71</ele>
        <time>2020-06-27T14:10:53Z</time>
      </trkpt>
      <trkpt lat="48.41071" lon="-0.81241">
        <ele>173.71</ele>
        <time>2020-06-27T14:10:59Z</time>
      </trkpt>
      <trkpt lat="48.41071" lon="-0.81241">
        <ele>173.71</ele>
        <time>2020-06-27T14:11:05Z</time>
      </trkpt>
      <trkpt lat="48.41071" lon="-0.81241">
        <ele>173.71</ele>
        <time>2020-06-27T14:11:10Z</time>
      </trkpt>
      <trkpt lat="48.41071" lon="-0.81241">
        <ele>173.71</ele>
        <time>2020-06-27T14:11:16Z</time>
      </trkpt>
      <trkpt lat="48.41071" lon="-0.81241">
        <ele>173.71</ele>
        <time>2020-06-27T14:11:22Z</time>
      </trkpt>
      <trkpt lat="48.41071" lon="-0.81241">
        <ele>173.71</ele>
        <time>2020-06-27T14:11:28Z</time>
      </trkpt>
      <trkpt lat="48.41071" lon="-0.81241">
        <ele>174.71</ele>
        <time>2020-06-27T14:11:33Z</time>
      </trkpt>
      <trkpt lat="48.41071" lon="-0.81241">
        <ele>174.71</ele>
        <time>2020-06-27T14:11:39Z</time>
      </trkpt>
      <trkpt lat="48.41071" lon="-0.81241">
        <ele>174.71</ele>
        <time>2020-06-27T14:11:45Z</time>
      </trkpt>
      <trkpt lat="48.41071" lon="-0.81241">
        <ele>174.71</ele>
        <time>2020-06-27T14:11:50Z</time>
      </trkpt>
      <trkpt lat="48.41071" lon="-0.81241">
        <ele>174.71</ele>
        <time>2020-06-27T14:11:55Z</time>
      </trkpt>
      <trkpt lat="48.41071" lon="-0.81241">
        <ele>174.71</ele>
        <time>2020-06-27T14:12:01Z</time>
      </trkpt>
      <trkpt lat="48.41071" lon="-0.81241">
        <ele>174.71</ele>
        <time>2020-06-27T14:12:06Z</time>
      </trkpt>
      <trkpt lat="48.41071" lon="-0.81241">
        <ele>174.71</ele>
        <time>2020-06-27T14:12:12Z</time>
      </trkpt>
      <trkpt lat="48.41072" lon="-0.81241">
        <ele>174.71</ele>
        <time>2020-06-27T14:12:17Z</time>
      </trkpt>
      <trkpt lat="48.41072" lon="-0.81241">
        <ele>174.71</ele>
        <time>2020-06-27T14:12:23Z</time>
      </trkpt>
      <trkpt lat="48.41072" lon="-0.81241">
        <ele>174.71</ele>
        <time>2020-06-27T14:12:28Z</time>
      </trkpt>
      <trkpt lat="48.41072" lon="-0.81241">
        <ele>174.71</ele>
        <time>2020-06-27T14:12:34Z</time>
      </trkpt>
      <trkpt lat="48.41072" lon="-0.81241">
        <ele>174.71</ele>
        <time>2020-06-27T14:12:40Z</time>
      </trkpt>
      <trkpt lat="48.41072" lon="-0.81241">
        <ele>174.71</ele>
        <time>2020-06-27T14:12:46Z</time>
      </trkpt>
      <trkpt lat="48.41072" lon="-0.81241">
        <ele>174.71</ele>
        <time>2020-06-27T14:12:52Z</time>
      </trkpt>
      <trkpt lat="48.41072" lon="-0.81241">
        <ele>174.71</ele>
        <time>2020-06-27T14:12:58Z</time>
      </trkpt>
      <trkpt lat="48.41072" lon="-0.81241">
        <ele>174.71</ele>
        <time>2020-06-27T14:13:04Z</time>
      </trkpt>
      <trkpt lat="48.41072" lon="-0.81241">
        <ele>174.71</ele>
        <time>2020-06-27T14:13:09Z</time>
      </trkpt>
      <trkpt lat="48.41072" lon="-0.81241">
        <ele>174.71</ele>
        <time>2020-06-27T14:13:14Z</time>
      </trkpt>
      <trkpt lat="48.41072" lon="-0.81241">
        <ele>174.71</ele>
        <time>2020-06-27T14:13:20Z</time>
      </trkpt>
      <trkpt lat="48.41072" lon="-0.81241">
        <ele>174.71</ele>
        <time>2020-06-27T14:13:26Z</time>
      </trkpt>
      <trkpt lat="48.41072" lon="-0.81241">
        <ele>174.71</ele>
        <time>2020-06-27T14:13:32Z</time>
      </trkpt>
      <trkpt lat="48.41072" lon="-0.81241">
        <ele>174.71</ele>
        <time>2020-06-27T14:13:38Z</time>
      </trkpt>
      <trkpt lat="48.41072" lon="-0.81241">
        <ele>174.71</ele>
        <time>2020-06-27T14:13:44Z</time>
      </trkpt>
      <trkpt lat="48.41072" lon="-0.81241">
        <ele>174.71</ele>
        <time>2020-06-27T14:13:49Z</time>
      </trkpt>
      <trkpt lat="48.41072" lon="-0.81241">
        <ele>174.71</ele>
        <time>2020-06-27T14:13:55Z</time>
      </trkpt>
      <trkpt lat="48.41072" lon="-0.81241">
        <ele>174.71</ele>
        <time>2020-06-27T14:14:00Z</time>
      </trkpt>
      <trkpt lat="48.41072" lon="-0.81241">
        <ele>174.71</ele>
        <time>2020-06-27T14:14:06Z</time>
      </trkpt>
      <trkpt lat="48.41072" lon="-0.81241">
        <ele>174.71</ele>
        <time>2020-06-27T14:14:11Z</time>
      </trkpt>
      <trkpt lat="48.41072" lon="-0.81241">
        <ele>174.71</ele>
        <time>2020-06-27T14:14:17Z</time>
      </trkpt>
      <trkpt lat="48.41072" lon="-0.81241">
        <ele>174.71</ele>
        <time>2020-06-27T14:14:22Z</time>
      </trkpt>
      <trkpt lat="48.41072" lon="-0.81241">
        <ele>174.71</ele>
        <time>2020-06-27T14:14:28Z</time>
      </trkpt>
      <trkpt lat="48.41072" lon="-0.81241">
        <ele>174.71</ele>
        <time>2020-06-27T14:14:34Z</time>
      </trkpt>
      <trkpt lat="48.41072" lon="-0.81241">
        <ele>174.71</ele>
        <time>2020-06-27T14:14:39Z</time>
      </trkpt>
      <trkpt lat="48.41072" lon="-0.81241">
        <ele>174.71</ele>
        <time>2020-06-27T14:14:45Z</time>
      </trkpt>
      <trkpt lat="48.41072" lon="-0.81241">
        <ele>174.71</ele>
        <time>2020-06-27T14:14:50Z</time>
      </trkpt>
      <trkpt lat="48.41072" lon="-0.81241">
        <ele>174.71</ele>
        <time>2020-06-27T14:14:55Z</time>
      </trkpt>
      <trkpt lat="48.41072" lon="-0.81241">
        <ele>174.71</ele>
        <time>2020-06-27T14:15:00Z</time>
      </trkpt>
      <trkpt lat="48.41072" lon="-0.81241">
        <ele>174.71</ele>
        <time>2020-06-27T14:15:05Z</time>
      </trkpt>
      <trkpt lat="48.41072" lon="-0.81241">
        <ele>174.71</ele>
        <time>2020-06-27T14:15:11Z</time>
      </trkpt>
      <trkpt lat="48.41072" lon="-0.81241">
        <ele>174.71</ele>
        <time>2020-06-27T14:15:17Z</time>
      </trkpt>
      <trkpt lat="48.41072" lon="-0.81241">
        <ele>174.71</ele>
        <time>2020-06-27T14:15:23Z</time>
      </trkpt>
      <trkpt lat="48.41072" lon="-0.81241">
        <ele>174.71</ele>
        <time>2020-06-27T14:15:28Z</time>
      </trkpt>
      <trkpt lat="48.41072" lon="-0.81241">
        <ele>174.71</ele>
        <time>2020-06-27T14:15:34Z</time>
      </trkpt>
      <trkpt lat="48.41072" lon="-0.81241">
        <ele>174.71</ele>
        <time>2020-06-27T14:15:39Z</time>
      </trkpt>
      <trkpt lat="48.41072" lon="-0.81241">
        <ele>174.71</ele>
        <time>2020-06-27T14:15:44Z</time>
      </trkpt>
      <trkpt lat="48.41072" lon="-0.81241">
        <ele>174.71</ele>
        <time>2020-06-27T14:15:50Z</time>
      </trkpt>
      <trkpt lat="48.41072" lon="-0.81241">
        <ele>174.71</ele>
        <time>2020-06-27T14:15:55Z</time>
      </trkpt>
      <trkpt lat="48.41072" lon="-0.81241">
        <ele>174.71</ele>
        <time>2020-06-27T14:16:00Z</time>
      </trkpt>
      <trkpt lat="48.41072" lon="-0.81241">
        <ele>174.71</ele>
        <time>2020-06-27T14:16:05Z</time>
      </trkpt>
      <trkpt lat="48.41072" lon="-0.81241">
        <ele>174.71</ele>
        <time>2020-06-27T14:16:11Z</time>
      </trkpt>
      <trkpt lat="48.41072" lon="-0.81241">
        <ele>174.71</ele>
        <time>2020-06-27T14:16:17Z</time>
      </trkpt>
      <trkpt lat="48.41072" lon="-0.81241">
        <ele>174.71</ele>
        <time>2020-06-27T14:16:22Z</time>
      </trkpt>
      <trkpt lat="48.41072" lon="-0.81241">
        <ele>174.71</ele>
        <time>2020-06-27T14:16:28Z</time>
      </trkpt>
      <trkpt lat="48.41072" lon="-0.81241">
        <ele>174.71</ele>
        <time>2020-06-27T14:16:33Z</time>
      </trkpt>
      <trkpt lat="48.41072" lon="-0.81241">
        <ele>174.71</ele>
        <time>2020-06-27T14:16:39Z</time>
      </trkpt>
      <trkpt lat="48.41072" lon="-0.81241">
        <ele>174.71</ele>
        <time>2020-06-27T14:16:45Z</time>
      </trkpt>
      <trkpt lat="48.41072" lon="-0.81241">
        <ele>174.71</ele>
        <time>2020-06-27T14:16:50Z</time>
      </trkpt>
      <trkpt lat="48.41072" lon="-0.81241">
        <ele>174.71</ele>
        <time>2020-06-27T14:16:55Z</time>
      </trkpt>
      <trkpt lat="48.4107" lon="-0.81242">
        <ele>174.71</ele>
        <time>2020-06-27T14:17:01Z</time>
      </trkpt>
      <trkpt lat="48.41067" lon="-0.81243">
        <ele>176.71</ele>
        <time>2020-06-27T14:17:07Z</time>
      </trkpt>
      <trkpt lat="48.41065" lon="-0.81243">
        <ele>176.71</ele>
        <time>2020-06-27T14:17:13Z</time>
      </trkpt>
      <trkpt lat="48.41065" lon="-0.81243">
        <ele>175.71</ele>
        <time>2020-06-27T14:17:18Z</time>
      </trkpt>
      <trkpt lat="48.41065" lon="-0.81243">
        <ele>175.71</ele>
        <time>2020-06-27T14:17:24Z</time>
      </trkpt>
      <trkpt lat="48.41065" lon="-0.81243">
        <ele>175.71</ele>
        <time>2020-06-27T14:17:29Z</time>
      </trkpt>
      <trkpt lat="48.41065" lon="-0.81243">
        <ele>175.71</ele>
        <time>2020-06-27T14:17:35Z</time>
      </trkpt>
      <trkpt lat="48.41065" lon="-0.81243">
        <ele>175.71</ele>
        <time>2020-06-27T14:17:41Z</time>
      </trkpt>
      <trkpt lat="48.41065" lon="-0.81243">
        <ele>175.71</ele>
        <time>2020-06-27T14:17:46Z</time>
      </trkpt>
      <trkpt lat="48.41065" lon="-0.81243">
        <ele>176.71</ele>
        <time>2020-06-27T14:17:52Z</time>
      </trkpt>
      <trkpt lat="48.41065" lon="-0.81243">
        <ele>176.71</ele>
        <time>2020-06-27T14:17:57Z</time>
      </trkpt>
      <trkpt lat="48.41065" lon="-0.81243">
        <ele>175.71</ele>
        <time>2020-06-27T14:18:03Z</time>
      </trkpt>
      <trkpt lat="48.41065" lon="-0.81243">
        <ele>175.71</ele>
        <time>2020-06-27T14:18:08Z</time>
      </trkpt>
      <trkpt lat="48.41065" lon="-0.81243">
        <ele>175.71</ele>
        <time>2020-06-27T14:18:14Z</time>
      </trkpt>
      <trkpt lat="48.41065" lon="-0.81243">
        <ele>175.71</ele>
        <time>2020-06-27T14:18:19Z</time>
      </trkpt>
      <trkpt lat="48.41065" lon="-0.81243">
        <ele>175.71</ele>
        <time>2020-06-27T14:18:25Z</time>
      </trkpt>
      <trkpt lat="48.41065" lon="-0.81243">
        <ele>175.71</ele>
        <time>2020-06-27T14:18:31Z</time>
      </trkpt>
      <trkpt lat="48.41065" lon="-0.81243">
        <ele>175.71</ele>
        <time>2020-06-27T14:18:37Z</time>
      </trkpt>
      <trkpt lat="48.41065" lon="-0.81243">
        <ele>175.71</ele>
        <time>2020-06-27T14:18:43Z</time>
      </trkpt>
      <trkpt lat="48.41065" lon="-0.81243">
        <ele>175.71</ele>
        <time>2020-06-27T14:18:49Z</time>
      </trkpt>
      <trkpt lat="48.41065" lon="-0.81243">
        <ele>175.71</ele>
        <time>2020-06-27T14:18:55Z</time>
      </trkpt>
      <trkpt lat="48.41065" lon="-0.81243">
        <ele>175.71</ele>
        <time>2020-06-27T14:19:01Z</time>
      </trkpt>
      <trkpt lat="48.41065" lon="-0.81243">
        <ele>175.71</ele>
        <time>2020-06-27T14:19:07Z</time>
      </trkpt>
      <trkpt lat="48.41065" lon="-0.81243">
        <ele>175.71</ele>
        <time>2020-06-27T14:19:12Z</time>
      </trkpt>
      <trkpt lat="48.41065" lon="-0.81243">
        <ele>175.71</ele>
        <time>2020-06-27T14:19:17Z</time>
      </trkpt>
      <trkpt lat="48.41065" lon="-0.81243">
        <ele>175.71</ele>
        <time>2020-06-27T14:19:23Z</time>
      </trkpt>
      <trkpt lat="48.41065" lon="-0.81243">
        <ele>175.71</ele>
        <time>2020-06-27T14:19:28Z</time>
      </trkpt>
      <trkpt lat="48.41065" lon="-0.81243">
        <ele>175.71</ele>
        <time>2020-06-27T14:19:34Z</time>
      </trkpt>
      <trkpt lat="48.41065" lon="-0.81243">
        <ele>175.71</ele>
        <time>2020-06-27T14:19:40Z</time>
      </trkpt>
      <trkpt lat="48.41065" lon="-0.81243">
        <ele>175.71</ele>
        <time>2020-06-27T14:19:45Z</time>
      </trkpt>
      <trkpt lat="48.41065" lon="-0.81243">
        <ele>175.71</ele>
        <time>2020-06-27T14:19:50Z</time>
      </trkpt>
      <trkpt lat="48.41065" lon="-0.81243">
        <ele>175.71</ele>
        <time>2020-06-27T14:19:55Z</time>
      </trkpt>
      <trkpt lat="48.41065" lon="-0.81243">
        <ele>175.71</ele>
        <time>2020-06-27T14:20:00Z</time>
      </trkpt>
      <trkpt lat="48.41065" lon="-0.81243">
        <ele>175.71</ele>
        <time>2020-06-27T14:20:06Z</time>
      </trkpt>
      <trkpt lat="48.41065" lon="-0.81244">
        <ele>175.71</ele>
        <time>2020-06-27T14:20:12Z</time>
      </trkpt>
      <trkpt lat="48.41065" lon="-0.81243">
        <ele>175.71</ele>
        <time>2020-06-27T14:20:18Z</time>
      </trkpt>
      <trkpt lat="48.41065" lon="-0.81243">
        <ele>175.71</ele>
        <time>2020-06-27T14:20:24Z</time>
      </trkpt>
      <trkpt lat="48.41064" lon="-0.81243">
        <ele>175.71</ele>
        <time>2020-06-27T14:20:30Z</time>
      </trkpt>
      <trkpt lat="48.41064" lon="-0.81243">
        <ele>175.71</ele>
        <time>2020-06-27T14:20:36Z</time>
      </trkpt>
      <trkpt lat="48.41064" lon="-0.81243">
        <ele>175.71</ele>
        <time>2020-06-27T14:20:41Z</time>
      </trkpt>
      <trkpt lat="48.41064" lon="-0.81243">
        <ele>175.71</ele>
        <time>2020-06-27T14:20:47Z</time>
      </trkpt>
      <trkpt lat="48.41064" lon="-0.81244">
        <ele>175.71</ele>
        <time>2020-06-27T14:20:53Z</time>
      </trkpt>
      <trkpt lat="48.41064" lon="-0.81244">
        <ele>175.71</ele>
        <time>2020-06-27T14:20:59Z</time>
      </trkpt>
      <trkpt lat="48.41064" lon="-0.81244">
        <ele>176.71</ele>
        <time>2020-06-27T14:21:04Z</time>
      </trkpt>
      <trkpt lat="48.41064" lon="-0.81244">
        <ele>176.71</ele>
        <time>2020-06-27T14:21:09Z</time>
      </trkpt>
      <trkpt lat="48.41064" lon="-0.81244">
        <ele>176.71</ele>
        <time>2020-06-27T14:21:15Z</time>
      </trkpt>
      <trkpt lat="48.41064" lon="-0.81244">
        <ele>176.71</ele>
        <time>2020-06-27T14:21:21Z</time>
      </trkpt>
      <trkpt lat="48.41064" lon="-0.81244">
        <ele>176.71</ele>
        <time>2020-06-27T14:21:26Z</time>
      </trkpt>
      <trkpt lat="48.41064" lon="-0.81244">
        <ele>176.71</ele>
        <time>2020-06-27T14:21:32Z</time>
      </trkpt>
      <trkpt lat="48.41064" lon="-0.81244">
        <ele>176.71</ele>
        <time>2020-06-27T14:21:38Z</time>
      </trkpt>
      <trkpt lat="48.41064" lon="-0.81244">
        <ele>176.71</ele>
        <time>2020-06-27T14:21:43Z</time>
      </trkpt>
      <trkpt lat="48.41064" lon="-0.81245">
        <ele>176.71</ele>
        <time>2020-06-27T14:21:49Z</time>
      </trkpt>
      <trkpt lat="48.41064" lon="-0.81245">
        <ele>176.71</ele>
        <time>2020-06-27T14:21:55Z</time>
      </trkpt>
      <trkpt lat="48.41064" lon="-0.81245">
        <ele>176.71</ele>
        <time>2020-06-27T14:22:01Z</time>
      </trkpt>
      <trkpt lat="48.41064" lon="-0.81245">
        <ele>176.71</ele>
        <time>2020-06-27T14:22:06Z</time>
      </trkpt>
      <trkpt lat="48.41064" lon="-0.81245">
        <ele>176.71</ele>
        <time>2020-06-27T14:22:12Z</time>
      </trkpt>
      <trkpt lat="48.41064" lon="-0.81245">
        <ele>176.71</ele>
        <time>2020-06-27T14:22:18Z</time>
      </trkpt>
      <trkpt lat="48.41064" lon="-0.81245">
        <ele>176.71</ele>
        <time>2020-06-27T14:22:23Z</time>
      </trkpt>
      <trkpt lat="48.41064" lon="-0.81245">
        <ele>176.71</ele>
        <time>2020-06-27T14:22:28Z</time>
      </trkpt>
      <trkpt lat="48.41064" lon="-0.81245">
        <ele>176.71</ele>
        <time>2020-06-27T14:22:34Z</time>
      </trkpt>
      <trkpt lat="48.41064" lon="-0.81245">
        <ele>176.71</ele>
        <time>2020-06-27T14:22:39Z</time>
      </trkpt>
      <trkpt lat="48.41064" lon="-0.81244">
        <ele>176.71</ele>
        <time>2020-06-27T14:22:44Z</time>
      </trkpt>
      <trkpt lat="48.41053" lon="-0.81242">
        <ele>170.71</ele>
        <time>2020-06-27T14:22:50Z</time>
      </trkpt>
      <trkpt lat="48.41051" lon="-0.81241">
        <ele>167.71</ele>
        <time>2020-06-27T14:22:55Z</time>
      </trkpt>
      <trkpt lat="48.41051" lon="-0.81246">
        <ele>165.71</ele>
        <time>2020-06-27T14:23:01Z</time>
      </trkpt>
      <trkpt lat="48.41053" lon="-0.8125">
        <ele>165.71</ele>
        <time>2020-06-27T14:23:06Z</time>
      </trkpt>
      <trkpt lat="48.41054" lon="-0.8125">
        <ele>165.71</ele>
        <time>2020-06-27T14:23:12Z</time>
      </trkpt>
      <trkpt lat="48.41053" lon="-0.8125">
        <ele>165.71</ele>
        <time>2020-06-27T14:23:17Z</time>
      </trkpt>
      <trkpt lat="48.41053" lon="-0.8125">
        <ele>165.71</ele>
        <time>2020-06-27T14:23:23Z</time>
      </trkpt>
      <trkpt lat="48.41053" lon="-0.81249">
        <ele>166.71</ele>
        <time>2020-06-27T14:23:29Z</time>
      </trkpt>
      <trkpt lat="48.41053" lon="-0.81249">
        <ele>166.71</ele>
        <time>2020-06-27T14:23:35Z</time>
      </trkpt>
      <trkpt lat="48.41052" lon="-0.81248">
        <ele>165.71</ele>
        <time>2020-06-27T14:23:40Z</time>
      </trkpt>
      <trkpt lat="48.41052" lon="-0.81248">
        <ele>165.71</ele>
        <time>2020-06-27T14:23:46Z</time>
      </trkpt>
      <trkpt lat="48.41052" lon="-0.81248">
        <ele>165.71</ele>
        <time>2020-06-27T14:23:51Z</time>
      </trkpt>
      <trkpt lat="48.41052" lon="-0.81248">
        <ele>165.71</ele>
        <time>2020-06-27T14:23:57Z</time>
      </trkpt>
      <trkpt lat="48.41052" lon="-0.81248">
        <ele>165.71</ele>
        <time>2020-06-27T14:24:02Z</time>
      </trkpt>
      <trkpt lat="48.41052" lon="-0.81248">
        <ele>165.71</ele>
        <time>2020-06-27T14:24:08Z</time>
      </trkpt>
      <trkpt lat="48.41052" lon="-0.81248">
        <ele>165.71</ele>
        <time>2020-06-27T14:24:13Z</time>
      </trkpt>
      <trkpt lat="48.41052" lon="-0.81248">
        <ele>165.71</ele>
        <time>2020-06-27T14:24:19Z</time>
      </trkpt>
      <trkpt lat="48.41052" lon="-0.81248">
        <ele>165.71</ele>
        <time>2020-06-27T14:24:24Z</time>
      </trkpt>
      <trkpt lat="48.41052" lon="-0.81248">
        <ele>165.71</ele>
        <time>2020-06-27T14:24:30Z</time>
      </trkpt>
      <trkpt lat="48.41052" lon="-0.81246">
        <ele>166.71</ele>
        <time>2020-06-27T14:24:35Z</time>
      </trkpt>
      <trkpt lat="48.41053" lon="-0.81245">
        <ele>166.71</ele>
        <time>2020-06-27T14:24:41Z</time>
      </trkpt>
      <trkpt lat="48.41055" lon="-0.81245">
        <ele>165.71</ele>
        <time>2020-06-27T14:24:47Z</time>
      </trkpt>
      <trkpt lat="48.41056" lon="-0.81247">
        <ele>165.71</ele>
        <time>2020-06-27T14:24:53Z</time>
      </trkpt>
      <trkpt lat="48.41059" lon="-0.81245">
        <ele>166.71</ele>
        <time>2020-06-27T14:24:58Z</time>
      </trkpt>
      <trkpt lat="48.41065" lon="-0.81251">
        <ele>169.71</ele>
        <time>2020-06-27T14:25:03Z</time>
      </trkpt>
      <trkpt lat="48.41068" lon="-0.81254">
        <ele>167.71</ele>
        <time>2020-06-27T14:25:09Z</time>
      </trkpt>
      <trkpt lat="48.41072" lon="-0.81254">
        <ele>167.71</ele>
        <time>2020-06-27T14:25:14Z</time>
      </trkpt>
      <trkpt lat="48.41074" lon="-0.81258">
        <ele>164.71</ele>
        <time>2020-06-27T14:25:20Z</time>
      </trkpt>
      <trkpt lat="48.41078" lon="-0.81267">
        <ele>163.71</ele>
        <time>2020-06-27T14:25:26Z</time>
      </trkpt>
      <trkpt lat="48.41081" lon="-0.81272">
        <ele>162.71</ele>
        <time>2020-06-27T14:25:31Z</time>
      </trkpt>
      <trkpt lat="48.41084" lon="-0.81278">
        <ele>161.71</ele>
        <time>2020-06-27T14:25:36Z</time>
      </trkpt>
      <trkpt lat="48.41087" lon="-0.81286">
        <ele>162.71</ele>
        <time>2020-06-27T14:25:42Z</time>
      </trkpt>
      <trkpt lat="48.41091" lon="-0.81296">
        <ele>164.71</ele>
        <time>2020-06-27T14:25:48Z</time>
      </trkpt>
      <trkpt lat="48.41095" lon="-0.81305">
        <ele>165.71</ele>
        <time>2020-06-27T14:25:54Z</time>
      </trkpt>
      <trkpt lat="48.41098" lon="-0.81311">
        <ele>163.71</ele>
        <time>2020-06-27T14:26:00Z</time>
      </trkpt>
      <trkpt lat="48.41101" lon="-0.81305">
        <ele>163.71</ele>
        <time>2020-06-27T14:26:05Z</time>
      </trkpt>
      <trkpt lat="48.41102" lon="-0.81305">
        <ele>160.71</ele>
        <time>2020-06-27T14:26:11Z</time>
      </trkpt>
      <trkpt lat="48.41107" lon="-0.81306">
        <ele>158.71</ele>
        <time>2020-06-27T14:26:16Z</time>
      </trkpt>
      <trkpt lat="48.41122" lon="-0.81299">
        <ele>159.71</ele>
        <time>2020-06-27T14:26:22Z</time>
      </trkpt>
      <trkpt lat="48.41119" lon="-0.8129">
        <ele>163.71</ele>
        <time>2020-06-27T14:26:28Z</time>
      </trkpt>
      <trkpt lat="48.41123" lon="-0.81287">
        <ele>169.71</ele>
        <time>2020-06-27T14:26:33Z</time>
      </trkpt>
      <trkpt lat="48.4113" lon="-0.81285">
        <ele>170.71</ele>
        <time>2020-06-27T14:26:39Z</time>
      </trkpt>
      <trkpt lat="48.41136" lon="-0.81283">
        <ele>169.71</ele>
        <time>2020-06-27T14:26:45Z</time>
      </trkpt>
      <trkpt lat="48.4114" lon="-0.81283">
        <ele>168.71</ele>
        <time>2020-06-27T14:26:51Z</time>
      </trkpt>
      <trkpt lat="48.41145" lon="-0.81282">
        <ele>168.71</ele>
        <time>2020-06-27T14:26:56Z</time>
      </trkpt>
      <trkpt lat="48.41147" lon="-0.81283">
        <ele>169.71</ele>
        <time>2020-06-27T14:27:01Z</time>
      </trkpt>
      <trkpt lat="48.41154" lon="-0.81282">
        <ele>171.71</ele>
        <time>2020-06-27T14:27:07Z</time>
      </trkpt>
      <trkpt lat="48.41161" lon="-0.8128">
        <ele>169.71</ele>
        <time>2020-06-27T14:27:12Z</time>
      </trkpt>
      <trkpt lat="48.41166" lon="-0.8128">
        <ele>167.71</ele>
        <time>2020-06-27T14:27:17Z</time>
      </trkpt>
      <trkpt lat="48.41175" lon="-0.81277">
        <ele>166.71</ele>
        <time>2020-06-27T14:27:23Z</time>
      </trkpt>
      <trkpt lat="48.41182" lon="-0.81277">
        <ele>163.71</ele>
        <time>2020-06-27T14:27:29Z</time>
      </trkpt>
      <trkpt lat="48.41187" lon="-0.81276">
        <ele>166.71</ele>
        <time>2020-06-27T14:27:34Z</time>
      </trkpt>
      <trkpt lat="48.41193" lon="-0.81274">
        <ele>168.71</ele>
        <time>2020-06-27T14:27:39Z</time>
      </trkpt>
      <trkpt lat="48.412" lon="-0.81275">
        <ele>170.71</ele>
        <time>2020-06-27T14:27:45Z</time>
      </trkpt>
      <trkpt lat="48.412" lon="-0.81283">
        <ele>172.71</ele>
        <time>2020-06-27T14:27:51Z</time>
      </trkpt>
      <trkpt lat="48.41202" lon="-0.81288">
        <ele>171.71</ele>
        <time>2020-06-27T14:27:56Z</time>
      </trkpt>
      <trkpt lat="48.41202" lon="-0.81294">
        <ele>171.71</ele>
        <time>2020-06-27T14:28:02Z</time>
      </trkpt>
      <trkpt lat="48.41202" lon="-0.81295">
        <ele>171.71</ele>
        <time>2020-06-27T14:28:07Z</time>
      </trkpt>
      <trkpt lat="48.41202" lon="-0.81296">
        <ele>172.71</ele>
        <time>2020-06-27T14:28:13Z</time>
      </trkpt>
      <trkpt lat="48.41202" lon="-0.81296">
        <ele>172.71</ele>
        <time>2020-06-27T14:28:18Z</time>
      </trkpt>
      <trkpt lat="48.41202" lon="-0.81296">
        <ele>172.71</ele>
        <time>2020-06-27T14:28:24Z</time>
      </trkpt>
      <trkpt lat="48.41201" lon="-0.813">
        <ele>173.71</ele>
        <time>2020-06-27T14:28:29Z</time>
      </trkpt>
      <trkpt lat="48.41202" lon="-0.81302">
        <ele>168.71</ele>
        <time>2020-06-27T14:28:35Z</time>
      </trkpt>
      <trkpt lat="48.41202" lon="-0.81304">
        <ele>168.71</ele>
        <time>2020-06-27T14:28:40Z</time>
      </trkpt>
      <trkpt lat="48.41202" lon="-0.81304">
        <ele>168.71</ele>
        <time>2020-06-27T14:28:45Z</time>
      </trkpt>
      <trkpt lat="48.41205" lon="-0.81308">
        <ele>168.71</ele>
        <time>2020-06-27T14:28:50Z</time>
      </trkpt>
      <trkpt lat="48.41211" lon="-0.81309">
        <ele>169.71</ele>
        <time>2020-06-27T14:28:56Z</time>
      </trkpt>
      <trkpt lat="48.41216" lon="-0.81313">
        <ele>169.71</ele>
        <time>2020-06-27T14:29:02Z</time>
      </trkpt>
      <trkpt lat="48.41222" lon="-0.81318">
        <ele>169.71</ele>
        <time>2020-06-27T14:29:08Z</time>
      </trkpt>
      <trkpt lat="48.41227" lon="-0.81324">
        <ele>168.71</ele>
        <time>2020-06-27T14:29:14Z</time>
      </trkpt>
      <trkpt lat="48.41231" lon="-0.81327">
        <ele>168.71</ele>
        <time>2020-06-27T14:29:19Z</time>
      </trkpt>
      <trkpt lat="48.41237" lon="-0.8133">
        <ele>169.71</ele>
        <time>2020-06-27T14:29:25Z</time>
      </trkpt>
      <trkpt lat="48.41242" lon="-0.81332">
        <ele>173.71</ele>
        <time>2020-06-27T14:29:30Z</time>
      </trkpt>
      <trkpt lat="48.41247" lon="-0.81332">
        <ele>177.71</ele>
        <time>2020-06-27T14:29:36Z</time>
      </trkpt>
      <trkpt lat="48.41247" lon="-0.81333">
        <ele>178.71</ele>
        <time>2020-06-27T14:29:41Z</time>
      </trkpt>
      <trkpt lat="48.41247" lon="-0.81334">
        <ele>178.71</ele>
        <time>2020-06-27T14:29:47Z</time>
      </trkpt>
      <trkpt lat="48.41247" lon="-0.81334">
        <ele>178.71</ele>
        <time>2020-06-27T14:29:52Z</time>
      </trkpt>
      <trkpt lat="48.41247" lon="-0.81334">
        <ele>178.71</ele>
        <time>2020-06-27T14:29:57Z</time>
      </trkpt>
      <trkpt lat="48.41247" lon="-0.81334">
        <ele>178.71</ele>
        <time>2020-06-27T14:30:03Z</time>
      </trkpt>
      <trkpt lat="48.41247" lon="-0.81334">
        <ele>178.71</ele>
        <time>2020-06-27T14:30:08Z</time>
      </trkpt>
      <trkpt lat="48.41247" lon="-0.81334">
        <ele>178.71</ele>
        <time>2020-06-27T14:30:14Z</time>
      </trkpt>
      <trkpt lat="48.41247" lon="-0.81334">
        <ele>178.71</ele>
        <time>2020-06-27T14:30:20Z</time>
      </trkpt>
      <trkpt lat="48.41247" lon="-0.81334">
        <ele>178.71</ele>
        <time>2020-06-27T14:30:26Z</time>
      </trkpt>
      <trkpt lat="48.41247" lon="-0.81334">
        <ele>178.71</ele>
        <time>2020-06-27T14:30:31Z</time>
      </trkpt>
      <trkpt lat="48.41248" lon="-0.81337">
        <ele>177.71</ele>
        <time>2020-06-27T14:30:37Z</time>
      </trkpt>
      <trkpt lat="48.41248" lon="-0.81348">
        <ele>176.71</ele>
        <time>2020-06-27T14:30:43Z</time>
      </trkpt>
      <trkpt lat="48.41244" lon="-0.81355">
        <ele>175.71</ele>
        <time>2020-06-27T14:30:49Z</time>
      </trkpt>
      <trkpt lat="48.41242" lon="-0.81363">
        <ele>174.71</ele>
        <time>2020-06-27T14:30:55Z</time>
      </trkpt>
      <trkpt lat="48.41241" lon="-0.81371">
        <ele>173.71</ele>
        <time>2020-06-27T14:31:01Z</time>
      </trkpt>
      <trkpt lat="48.41236" lon="-0.81377">
        <ele>173.71</ele>
        <time>2020-06-27T14:31:07Z</time>
      </trkpt>
      <trkpt lat="48.41232" lon="-0.81383">
        <ele>174.71</ele>
        <time>2020-06-27T14:31:13Z</time>
      </trkpt>
      <trkpt lat="48.41229" lon="-0.81387">
        <ele>175.71</ele>
        <time>2020-06-27T14:31:18Z</time>
      </trkpt>
      <trkpt lat="48.41224" lon="-0.81392">
        <ele>174.71</ele>
        <time>2020-06-27T14:31:23Z</time>
      </trkpt>
      <trkpt lat="48.41218" lon="-0.81397">
        <ele>173.71</ele>
        <time>2020-06-27T14:31:29Z</time>
      </trkpt>
      <trkpt lat="48.41217" lon="-0.81405">
        <ele>173.71</ele>
        <time>2020-06-27T14:31:34Z</time>
      </trkpt>
      <trkpt lat="48.41213" lon="-0.81411">
        <ele>172.71</ele>
        <time>2020-06-27T14:31:39Z</time>
      </trkpt>
      <trkpt lat="48.41212" lon="-0.81414">
        <ele>172.71</ele>
        <time>2020-06-27T14:31:44Z</time>
      </trkpt>
      <trkpt lat="48.41206" lon="-0.81424">
        <ele>170.71</ele>
        <time>2020-06-27T14:31:50Z</time>
      </trkpt>
      <trkpt lat="48.41203" lon="-0.81429">
        <ele>170.71</ele>
        <time>2020-06-27T14:31:56Z</time>
      </trkpt>
      <trkpt lat="48.41198" lon="-0.81434">
        <ele>169.71</ele>
        <time>2020-06-27T14:32:02Z</time>
      </trkpt>
      <trkpt lat="48.41196" lon="-0.8144">
        <ele>167.71</ele>
        <time>2020-06-27T14:32:07Z</time>
      </trkpt>
      <trkpt lat="48.41191" lon="-0.81444">
        <ele>165.71</ele>
        <time>2020-06-27T14:32:12Z</time>
      </trkpt>
      <trkpt lat="48.41188" lon="-0.8145">
        <ele>165.71</ele>
        <time>2020-06-27T14:32:17Z</time>
      </trkpt>
      <trkpt lat="48.41183" lon="-0.81455">
        <ele>167.71</ele>
        <time>2020-06-27T14:32:23Z</time>
      </trkpt>
      <trkpt lat="48.41177" lon="-0.81461">
        <ele>165.71</ele>
        <time>2020-06-27T14:32:29Z</time>
      </trkpt>
      <trkpt lat="48.41173" lon="-0.81468">
        <ele>164.71</ele>
        <time>2020-06-27T14:32:35Z</time>
      </trkpt>
      <trkpt lat="48.41171" lon="-0.81473">
        <ele>164.71</ele>
        <time>2020-06-27T14:32:40Z</time>
      </trkpt>
      <trkpt lat="48.41169" lon="-0.81478">
        <ele>164.71</ele>
        <time>2020-06-27T14:32:45Z</time>
      </trkpt>
      <trkpt lat="48.41165" lon="-0.81485">
        <ele>163.71</ele>
        <time>2020-06-27T14:32:51Z</time>
      </trkpt>
      <trkpt lat="48.4116" lon="-0.8149">
        <ele>163.71</ele>
        <time>2020-06-27T14:32:57Z</time>
      </trkpt>
      <trkpt lat="48.41156" lon="-0.81494">
        <ele>163.71</ele>
        <time>2020-06-27T14:33:02Z</time>
      </trkpt>
      <trkpt lat="48.41152" lon="-0.815">
        <ele>162.71</ele>
        <time>2020-06-27T14:33:08Z</time>
      </trkpt>
      <trkpt lat="48.41147" lon="-0.81504">
        <ele>162.71</ele>
        <time>2020-06-27T14:33:14Z</time>
      </trkpt>
      <trkpt lat="48.41144" lon="-0.81508">
        <ele>161.71</ele>
        <time>2020-06-27T14:33:19Z</time>
      </trkpt>
      <trkpt lat="48.41141" lon="-0.81514">
        <ele>160.71</ele>
        <time>2020-06-27T14:33:24Z</time>
      </trkpt>
      <trkpt lat="48.41138" lon="-0.81521">
        <ele>160.71</ele>
        <time>2020-06-27T14:33:30Z</time>
      </trkpt>
      <trkpt lat="48.41137" lon="-0.81527">
        <ele>160.71</ele>
        <time>2020-06-27T14:33:35Z</time>
      </trkpt>
      <trkpt lat="48.41136" lon="-0.81531">
        <ele>159.71</ele>
        <time>2020-06-27T14:33:40Z</time>
      </trkpt>
      <trkpt lat="48.41138" lon="-0.8154">
        <ele>160.71</ele>
        <time>2020-06-27T14:33:46Z</time>
      </trkpt>
      <trkpt lat="48.4114" lon="-0.81548">
        <ele>158.71</ele>
        <time>2020-06-27T14:33:52Z</time>
      </trkpt>
      <trkpt lat="48.41144" lon="-0.81554">
        <ele>156.71</ele>
        <time>2020-06-27T14:33:58Z</time>
      </trkpt>
      <trkpt lat="48.41146" lon="-0.81563">
        <ele>156.71</ele>
        <time>2020-06-27T14:34:04Z</time>
      </trkpt>
      <trkpt lat="48.4114" lon="-0.81569">
        <ele>155.71</ele>
        <time>2020-06-27T14:34:09Z</time>
      </trkpt>
      <trkpt lat="48.41135" lon="-0.81574">
        <ele>155.71</ele>
        <time>2020-06-27T14:34:14Z</time>
      </trkpt>
      <trkpt lat="48.41129" lon="-0.81575">
        <ele>154.71</ele>
        <time>2020-06-27T14:34:20Z</time>
      </trkpt>
      <trkpt lat="48.41124" lon="-0.81577">
        <ele>154.71</ele>
        <time>2020-06-27T14:34:25Z</time>
      </trkpt>
      <trkpt lat="48.41117" lon="-0.81578">
        <ele>152.71</ele>
        <time>2020-06-27T14:34:31Z</time>
      </trkpt>
      <trkpt lat="48.41111" lon="-0.81579">
        <ele>151.71</ele>
        <time>2020-06-27T14:34:36Z</time>
      </trkpt>
      <trkpt lat="48.41106" lon="-0.81581">
        <ele>152.71</ele>
        <time>2020-06-27T14:34:41Z</time>
      </trkpt>
      <trkpt lat="48.411" lon="-0.81583">
        <ele>153.71</ele>
        <time>2020-06-27T14:34:47Z</time>
      </trkpt>
      <trkpt lat="48.41093" lon="-0.81585">
        <ele>153.71</ele>
        <time>2020-06-27T14:34:53Z</time>
      </trkpt>
      <trkpt lat="48.41086" lon="-0.81587">
        <ele>153.71</ele>
        <time>2020-06-27T14:34:59Z</time>
      </trkpt>
      <trkpt lat="48.41081" lon="-0.81588">
        <ele>152.71</ele>
        <time>2020-06-27T14:35:04Z</time>
      </trkpt>
      <trkpt lat="48.41077" lon="-0.81593">
        <ele>152.71</ele>
        <time>2020-06-27T14:35:09Z</time>
      </trkpt>
      <trkpt lat="48.41077" lon="-0.81602">
        <ele>153.71</ele>
        <time>2020-06-27T14:35:15Z</time>
      </trkpt>
      <trkpt lat="48.41077" lon="-0.81611">
        <ele>154.71</ele>
        <time>2020-06-27T14:35:21Z</time>
      </trkpt>
      <trkpt lat="48.41074" lon="-0.81618">
        <ele>156.71</ele>
        <time>2020-06-27T14:35:26Z</time>
      </trkpt>
      <trkpt lat="48.41071" lon="-0.81625">
        <ele>155.71</ele>
        <time>2020-06-27T14:35:32Z</time>
      </trkpt>
      <trkpt lat="48.41072" lon="-0.81633">
        <ele>155.71</ele>
        <time>2020-06-27T14:35:37Z</time>
      </trkpt>
      <trkpt lat="48.41072" lon="-0.81643">
        <ele>157.71</ele>
        <time>2020-06-27T14:35:43Z</time>
      </trkpt>
      <trkpt lat="48.41079" lon="-0.81649">
        <ele>156.71</ele>
        <time>2020-06-27T14:35:49Z</time>
      </trkpt>
      <trkpt lat="48.4108" lon="-0.81657">
        <ele>158.71</ele>
        <time>2020-06-27T14:35:54Z</time>
      </trkpt>
      <trkpt lat="48.4108" lon="-0.81666">
        <ele>160.71</ele>
        <time>2020-06-27T14:35:59Z</time>
      </trkpt>
      <trkpt lat="48.41081" lon="-0.81675">
        <ele>159.71</ele>
        <time>2020-06-27T14:36:05Z</time>
      </trkpt>
      <trkpt lat="48.41081" lon="-0.81681">
        <ele>159.71</ele>
        <time>2020-06-27T14:36:10Z</time>
      </trkpt>
      <trkpt lat="48.41082" lon="-0.8169">
        <ele>160.71</ele>
        <time>2020-06-27T14:36:16Z</time>
      </trkpt>
      <trkpt lat="48.41083" lon="-0.817">
        <ele>158.71</ele>
        <time>2020-06-27T14:36:21Z</time>
      </trkpt>
      <trkpt lat="48.41083" lon="-0.81707">
        <ele>157.71</ele>
        <time>2020-06-27T14:36:26Z</time>
      </trkpt>
      <trkpt lat="48.41083" lon="-0.81717">
        <ele>159.71</ele>
        <time>2020-06-27T14:36:32Z</time>
      </trkpt>
      <trkpt lat="48.41084" lon="-0.81725">
        <ele>160.71</ele>
        <time>2020-06-27T14:36:37Z</time>
      </trkpt>
      <trkpt lat="48.41087" lon="-0.81735">
        <ele>158.71</ele>
        <time>2020-06-27T14:36:43Z</time>
      </trkpt>
      <trkpt lat="48.41086" lon="-0.81744">
        <ele>158.71</ele>
        <time>2020-06-27T14:36:48Z</time>
      </trkpt>
      <trkpt lat="48.41086" lon="-0.81753">
        <ele>158.71</ele>
        <time>2020-06-27T14:36:53Z</time>
      </trkpt>
      <trkpt lat="48.41089" lon="-0.8176">
        <ele>160.71</ele>
        <time>2020-06-27T14:36:59Z</time>
      </trkpt>
      <trkpt lat="48.4109" lon="-0.8177">
        <ele>160.71</ele>
        <time>2020-06-27T14:37:04Z</time>
      </trkpt>
      <trkpt lat="48.41091" lon="-0.81779">
        <ele>161.71</ele>
        <time>2020-06-27T14:37:10Z</time>
      </trkpt>
      <trkpt lat="48.41092" lon="-0.81787">
        <ele>160.71</ele>
        <time>2020-06-27T14:37:16Z</time>
      </trkpt>
      <trkpt lat="48.41094" lon="-0.81796">
        <ele>159.71</ele>
        <time>2020-06-27T14:37:21Z</time>
      </trkpt>
      <trkpt lat="48.41096" lon="-0.81807">
        <ele>159.71</ele>
        <time>2020-06-27T14:37:27Z</time>
      </trkpt>
      <trkpt lat="48.41092" lon="-0.81815">
        <ele>159.71</ele>
        <time>2020-06-27T14:37:33Z</time>
      </trkpt>
      <trkpt lat="48.41086" lon="-0.81822">
        <ele>160.71</ele>
        <time>2020-06-27T14:37:38Z</time>
      </trkpt>
      <trkpt lat="48.41084" lon="-0.81824">
        <ele>162.71</ele>
        <time>2020-06-27T14:37:43Z</time>
      </trkpt>
      <trkpt lat="48.41081" lon="-0.81829">
        <ele>159.71</ele>
        <time>2020-06-27T14:37:48Z</time>
      </trkpt>
      <trkpt lat="48.4108" lon="-0.81835">
        <ele>160.71</ele>
        <time>2020-06-27T14:37:53Z</time>
      </trkpt>
      <trkpt lat="48.41079" lon="-0.81844">
        <ele>163.71</ele>
        <time>2020-06-27T14:37:59Z</time>
      </trkpt>
      <trkpt lat="48.41078" lon="-0.81852">
        <ele>166.71</ele>
        <time>2020-06-27T14:38:05Z</time>
      </trkpt>
      <trkpt lat="48.41079" lon="-0.81863">
        <ele>165.71</ele>
        <time>2020-06-27T14:38:10Z</time>
      </trkpt>
      <trkpt lat="48.41079" lon="-0.81873">
        <ele>165.71</ele>
        <time>2020-06-27T14:38:16Z</time>
      </trkpt>
      <trkpt lat="48.41079" lon="-0.81885">
        <ele>167.71</ele>
        <time>2020-06-27T14:38:22Z</time>
      </trkpt>
      <trkpt lat="48.41079" lon="-0.81892">
        <ele>167.71</ele>
        <time>2020-06-27T14:38:27Z</time>
      </trkpt>
      <trkpt lat="48.41075" lon="-0.81901">
        <ele>169.71</ele>
        <time>2020-06-27T14:38:33Z</time>
      </trkpt>
      <trkpt lat="48.4107" lon="-0.81911">
        <ele>165.71</ele>
        <time>2020-06-27T14:38:39Z</time>
      </trkpt>
      <trkpt lat="48.41071" lon="-0.81922">
        <ele>165.71</ele>
        <time>2020-06-27T14:38:45Z</time>
      </trkpt>
      <trkpt lat="48.4107" lon="-0.81932">
        <ele>165.71</ele>
        <time>2020-06-27T14:38:50Z</time>
      </trkpt>
      <trkpt lat="48.4107" lon="-0.81939">
        <ele>165.71</ele>
        <time>2020-06-27T14:38:55Z</time>
      </trkpt>
      <trkpt lat="48.41073" lon="-0.81946">
        <ele>166.71</ele>
        <time>2020-06-27T14:39:00Z</time>
      </trkpt>
      <trkpt lat="48.41074" lon="-0.81951">
        <ele>167.71</ele>
        <time>2020-06-27T14:39:05Z</time>
      </trkpt>
      <trkpt lat="48.41074" lon="-0.8196">
        <ele>167.71</ele>
        <time>2020-06-27T14:39:11Z</time>
      </trkpt>
      <trkpt lat="48.41071" lon="-0.81969">
        <ele>166.71</ele>
        <time>2020-06-27T14:39:16Z</time>
      </trkpt>
      <trkpt lat="48.41069" lon="-0.81975">
        <ele>165.71</ele>
        <time>2020-06-27T14:39:21Z</time>
      </trkpt>
      <trkpt lat="48.41068" lon="-0.81981">
        <ele>164.71</ele>
        <time>2020-06-27T14:39:26Z</time>
      </trkpt>
      <trkpt lat="48.41066" lon="-0.81988">
        <ele>164.71</ele>
        <time>2020-06-27T14:39:32Z</time>
      </trkpt>
      <trkpt lat="48.41065" lon="-0.81989">
        <ele>164.71</ele>
        <time>2020-06-27T14:39:38Z</time>
      </trkpt>
      <trkpt lat="48.41065" lon="-0.8199">
        <ele>164.71</ele>
        <time>2020-06-27T14:39:43Z</time>
      </trkpt>
      <trkpt lat="48.41065" lon="-0.8199">
        <ele>164.71</ele>
        <time>2020-06-27T14:39:49Z</time>
      </trkpt>
      <trkpt lat="48.41065" lon="-0.8199">
        <ele>164.71</ele>
        <time>2020-06-27T14:39:54Z</time>
      </trkpt>
      <trkpt lat="48.41065" lon="-0.8199">
        <ele>164.71</ele>
        <time>2020-06-27T14:40:00Z</time>
      </trkpt>
      <trkpt lat="48.41065" lon="-0.8199">
        <ele>164.71</ele>
        <time>2020-06-27T14:40:06Z</time>
      </trkpt>
      <trkpt lat="48.41065" lon="-0.81991">
        <ele>162.71</ele>
        <time>2020-06-27T14:40:12Z</time>
      </trkpt>
      <trkpt lat="48.41064" lon="-0.8199">
        <ele>160.71</ele>
        <time>2020-06-27T14:40:17Z</time>
      </trkpt>
      <trkpt lat="48.41061" lon="-0.81994">
        <ele>159.71</ele>
        <time>2020-06-27T14:40:23Z</time>
      </trkpt>
      <trkpt lat="48.41057" lon="-0.81997">
        <ele>162.71</ele>
        <time>2020-06-27T14:40:28Z</time>
      </trkpt>
      <trkpt lat="48.41054" lon="-0.81999">
        <ele>163.71</ele>
        <time>2020-06-27T14:40:33Z</time>
      </trkpt>
      <trkpt lat="48.41051" lon="-0.81999">
        <ele>164.71</ele>
        <time>2020-06-27T14:40:39Z</time>
      </trkpt>
      <trkpt lat="48.41051" lon="-0.81998">
        <ele>163.71</ele>
        <time>2020-06-27T14:40:45Z</time>
      </trkpt>
      <trkpt lat="48.41048" lon="-0.82002">
        <ele>162.71</ele>
        <time>2020-06-27T14:40:50Z</time>
      </trkpt>
      <trkpt lat="48.41043" lon="-0.82002">
        <ele>163.71</ele>
        <time>2020-06-27T14:40:55Z</time>
      </trkpt>
      <trkpt lat="48.41039" lon="-0.82007">
        <ele>162.71</ele>
        <time>2020-06-27T14:41:00Z</time>
      </trkpt>
      <trkpt lat="48.41034" lon="-0.82011">
        <ele>164.71</ele>
        <time>2020-06-27T14:41:06Z</time>
      </trkpt>
      <trkpt lat="48.41027" lon="-0.82013">
        <ele>164.71</ele>
        <time>2020-06-27T14:41:12Z</time>
      </trkpt>
      <trkpt lat="48.41023" lon="-0.82016">
        <ele>163.71</ele>
        <time>2020-06-27T14:41:18Z</time>
      </trkpt>
      <trkpt lat="48.41019" lon="-0.8202">
        <ele>159.71</ele>
        <time>2020-06-27T14:41:23Z</time>
      </trkpt>
      <trkpt lat="48.41013" lon="-0.82024">
        <ele>160.71</ele>
        <time>2020-06-27T14:41:29Z</time>
      </trkpt>
      <trkpt lat="48.41007" lon="-0.82029">
        <ele>159.71</ele>
        <time>2020-06-27T14:41:35Z</time>
      </trkpt>
      <trkpt lat="48.41002" lon="-0.82031">
        <ele>160.71</ele>
        <time>2020-06-27T14:41:41Z</time>
      </trkpt>
      <trkpt lat="48.40997" lon="-0.82033">
        <ele>160.71</ele>
        <time>2020-06-27T14:41:46Z</time>
      </trkpt>
      <trkpt lat="48.40992" lon="-0.82039">
        <ele>159.71</ele>
        <time>2020-06-27T14:41:52Z</time>
      </trkpt>
      <trkpt lat="48.40985" lon="-0.82043">
        <ele>158.71</ele>
        <time>2020-06-27T14:41:58Z</time>
      </trkpt>
      <trkpt lat="48.4098" lon="-0.82046">
        <ele>159.71</ele>
        <time>2020-06-27T14:42:03Z</time>
      </trkpt>
      <trkpt lat="48.40975" lon="-0.8205">
        <ele>160.71</ele>
        <time>2020-06-27T14:42:08Z</time>
      </trkpt>
      <trkpt lat="48.4097" lon="-0.82052">
        <ele>160.71</ele>
        <time>2020-06-27T14:42:13Z</time>
      </trkpt>
      <trkpt lat="48.40965" lon="-0.82057">
        <ele>160.71</ele>
        <time>2020-06-27T14:42:19Z</time>
      </trkpt>
      <trkpt lat="48.4096" lon="-0.82061">
        <ele>161.71</ele>
        <time>2020-06-27T14:42:24Z</time>
      </trkpt>
      <trkpt lat="48.40956" lon="-0.82064">
        <ele>160.71</ele>
        <time>2020-06-27T14:42:29Z</time>
      </trkpt>
      <trkpt lat="48.4095" lon="-0.82069">
        <ele>161.71</ele>
        <time>2020-06-27T14:42:35Z</time>
      </trkpt>
      <trkpt lat="48.40943" lon="-0.82071">
        <ele>161.71</ele>
        <time>2020-06-27T14:42:41Z</time>
      </trkpt>
      <trkpt lat="48.40936" lon="-0.82075">
        <ele>163.71</ele>
        <time>2020-06-27T14:42:47Z</time>
      </trkpt>
      <trkpt lat="48.4093" lon="-0.82079">
        <ele>164.71</ele>
        <time>2020-06-27T14:42:53Z</time>
      </trkpt>
      <trkpt lat="48.40925" lon="-0.82082">
        <ele>164.71</ele>
        <time>2020-06-27T14:42:59Z</time>
      </trkpt>
      <trkpt lat="48.4092" lon="-0.82085">
        <ele>164.71</ele>
        <time>2020-06-27T14:43:05Z</time>
      </trkpt>
      <trkpt lat="48.40915" lon="-0.82087">
        <ele>165.71</ele>
        <time>2020-06-27T14:43:10Z</time>
      </trkpt>
      <trkpt lat="48.40909" lon="-0.82087">
        <ele>165.71</ele>
        <time>2020-06-27T14:43:16Z</time>
      </trkpt>
      <trkpt lat="48.40905" lon="-0.8209">
        <ele>165.71</ele>
        <time>2020-06-27T14:43:21Z</time>
      </trkpt>
      <trkpt lat="48.409" lon="-0.82094">
        <ele>165.71</ele>
        <time>2020-06-27T14:43:26Z</time>
      </trkpt>
      <trkpt lat="48.40894" lon="-0.82098">
        <ele>165.71</ele>
        <time>2020-06-27T14:43:32Z</time>
      </trkpt>
      <trkpt lat="48.40889" lon="-0.821">
        <ele>165.71</ele>
        <time>2020-06-27T14:43:37Z</time>
      </trkpt>
      <trkpt lat="48.40884" lon="-0.82104">
        <ele>166.71</ele>
        <time>2020-06-27T14:43:42Z</time>
      </trkpt>
      <trkpt lat="48.40879" lon="-0.82104">
        <ele>167.71</ele>
        <time>2020-06-27T14:43:47Z</time>
      </trkpt>
      <trkpt lat="48.40873" lon="-0.82103">
        <ele>166.71</ele>
        <time>2020-06-27T14:43:53Z</time>
      </trkpt>
      <trkpt lat="48.40868" lon="-0.82104">
        <ele>167.71</ele>
        <time>2020-06-27T14:43:58Z</time>
      </trkpt>
      <trkpt lat="48.40862" lon="-0.82105">
        <ele>167.71</ele>
        <time>2020-06-27T14:44:03Z</time>
      </trkpt>
      <trkpt lat="48.40856" lon="-0.8211">
        <ele>167.71</ele>
        <time>2020-06-27T14:44:09Z</time>
      </trkpt>
      <trkpt lat="48.40851" lon="-0.82113">
        <ele>167.71</ele>
        <time>2020-06-27T14:44:14Z</time>
      </trkpt>
      <trkpt lat="48.40845" lon="-0.82115">
        <ele>167.71</ele>
        <time>2020-06-27T14:44:20Z</time>
      </trkpt>
      <trkpt lat="48.40841" lon="-0.82118">
        <ele>167.71</ele>
        <time>2020-06-27T14:44:25Z</time>
      </trkpt>
      <trkpt lat="48.40835" lon="-0.82121">
        <ele>168.71</ele>
        <time>2020-06-27T14:44:31Z</time>
      </trkpt>
      <trkpt lat="48.40831" lon="-0.82125">
        <ele>168.71</ele>
        <time>2020-06-27T14:44:36Z</time>
      </trkpt>
      <trkpt lat="48.40826" lon="-0.82128">
        <ele>168.71</ele>
        <time>2020-06-27T14:44:41Z</time>
      </trkpt>
      <trkpt lat="48.4082" lon="-0.8213">
        <ele>168.71</ele>
        <time>2020-06-27T14:44:47Z</time>
      </trkpt>
      <trkpt lat="48.40814" lon="-0.82135">
        <ele>168.71</ele>
        <time>2020-06-27T14:44:53Z</time>
      </trkpt>
      <trkpt lat="48.40809" lon="-0.82137">
        <ele>168.71</ele>
        <time>2020-06-27T14:44:58Z</time>
      </trkpt>
      <trkpt lat="48.40803" lon="-0.82142">
        <ele>168.71</ele>
        <time>2020-06-27T14:45:04Z</time>
      </trkpt>
      <trkpt lat="48.40797" lon="-0.82147">
        <ele>169.71</ele>
        <time>2020-06-27T14:45:10Z</time>
      </trkpt>
      <trkpt lat="48.40791" lon="-0.82151">
        <ele>167.71</ele>
        <time>2020-06-27T14:45:16Z</time>
      </trkpt>
      <trkpt lat="48.40786" lon="-0.82155">
        <ele>166.71</ele>
        <time>2020-06-27T14:45:21Z</time>
      </trkpt>
      <trkpt lat="48.40781" lon="-0.82161">
        <ele>166.71</ele>
        <time>2020-06-27T14:45:26Z</time>
      </trkpt>
      <trkpt lat="48.40777" lon="-0.82163">
        <ele>166.71</ele>
        <time>2020-06-27T14:45:31Z</time>
      </trkpt>
      <trkpt lat="48.4077" lon="-0.82167">
        <ele>166.71</ele>
        <time>2020-06-27T14:45:37Z</time>
      </trkpt>
      <trkpt lat="48.40765" lon="-0.82169">
        <ele>168.71</ele>
        <time>2020-06-27T14:45:42Z</time>
      </trkpt>
      <trkpt lat="48.4076" lon="-0.82171">
        <ele>169.71</ele>
        <time>2020-06-27T14:45:47Z</time>
      </trkpt>
      <trkpt lat="48.40754" lon="-0.82176">
        <ele>169.71</ele>
        <time>2020-06-27T14:45:53Z</time>
      </trkpt>
      <trkpt lat="48.40749" lon="-0.82181">
        <ele>168.71</ele>
        <time>2020-06-27T14:45:58Z</time>
      </trkpt>
      <trkpt lat="48.40743" lon="-0.82183">
        <ele>168.71</ele>
        <time>2020-06-27T14:46:04Z</time>
      </trkpt>
      <trkpt lat="48.40737" lon="-0.82187">
        <ele>168.71</ele>
        <time>2020-06-27T14:46:09Z</time>
      </trkpt>
      <trkpt lat="48.40732" lon="-0.82193">
        <ele>168.71</ele>
        <time>2020-06-27T14:46:15Z</time>
      </trkpt>
      <trkpt lat="48.40725" lon="-0.82197">
        <ele>168.71</ele>
        <time>2020-06-27T14:46:21Z</time>
      </trkpt>
      <trkpt lat="48.40719" lon="-0.82202">
        <ele>168.71</ele>
        <time>2020-06-27T14:46:27Z</time>
      </trkpt>
      <trkpt lat="48.40714" lon="-0.82206">
        <ele>169.71</ele>
        <time>2020-06-27T14:46:32Z</time>
      </trkpt>
      <trkpt lat="48.40708" lon="-0.82209">
        <ele>169.71</ele>
        <time>2020-06-27T14:46:38Z</time>
      </trkpt>
      <trkpt lat="48.40703" lon="-0.82215">
        <ele>169.71</ele>
        <time>2020-06-27T14:46:44Z</time>
      </trkpt>
      <trkpt lat="48.40698" lon="-0.82219">
        <ele>170.71</ele>
        <time>2020-06-27T14:46:49Z</time>
      </trkpt>
      <trkpt lat="48.40694" lon="-0.82224">
        <ele>170.71</ele>
        <time>2020-06-27T14:46:55Z</time>
      </trkpt>
      <trkpt lat="48.40692" lon="-0.82225">
        <ele>170.71</ele>
        <time>2020-06-27T14:47:00Z</time>
      </trkpt>
      <trkpt lat="48.40686" lon="-0.8223">
        <ele>171.71</ele>
        <time>2020-06-27T14:47:06Z</time>
      </trkpt>
      <trkpt lat="48.4068" lon="-0.82234">
        <ele>171.71</ele>
        <time>2020-06-27T14:47:12Z</time>
      </trkpt>
      <trkpt lat="48.40675" lon="-0.82238">
        <ele>170.71</ele>
        <time>2020-06-27T14:47:17Z</time>
      </trkpt>
      <trkpt lat="48.4067" lon="-0.82242">
        <ele>170.71</ele>
        <time>2020-06-27T14:47:23Z</time>
      </trkpt>
      <trkpt lat="48.40664" lon="-0.82246">
        <ele>170.71</ele>
        <time>2020-06-27T14:47:29Z</time>
      </trkpt>
      <trkpt lat="48.40659" lon="-0.82251">
        <ele>172.71</ele>
        <time>2020-06-27T14:47:35Z</time>
      </trkpt>
      <trkpt lat="48.40654" lon="-0.82257">
        <ele>173.71</ele>
        <time>2020-06-27T14:47:40Z</time>
      </trkpt>
      <trkpt lat="48.40648" lon="-0.82262">
        <ele>173.71</ele>
        <time>2020-06-27T14:47:46Z</time>
      </trkpt>
      <trkpt lat="48.40643" lon="-0.82268">
        <ele>173.71</ele>
        <time>2020-06-27T14:47:51Z</time>
      </trkpt>
      <trkpt lat="48.40637" lon="-0.82273">
        <ele>173.71</ele>
        <time>2020-06-27T14:47:57Z</time>
      </trkpt>
      <trkpt lat="48.40632" lon="-0.82277">
        <ele>173.71</ele>
        <time>2020-06-27T14:48:03Z</time>
      </trkpt>
      <trkpt lat="48.40626" lon="-0.82283">
        <ele>173.71</ele>
        <time>2020-06-27T14:48:09Z</time>
      </trkpt>
      <trkpt lat="48.4062" lon="-0.82287">
        <ele>173.71</ele>
        <time>2020-06-27T14:48:15Z</time>
      </trkpt>
      <trkpt lat="48.40617" lon="-0.82291">
        <ele>174.71</ele>
        <time>2020-06-27T14:48:20Z</time>
      </trkpt>
      <trkpt lat="48.40612" lon="-0.82296">
        <ele>173.71</ele>
        <time>2020-06-27T14:48:25Z</time>
      </trkpt>
      <trkpt lat="48.40607" lon="-0.82303">
        <ele>172.71</ele>
        <time>2020-06-27T14:48:31Z</time>
      </trkpt>
      <trkpt lat="48.40603" lon="-0.82309">
        <ele>171.71</ele>
        <time>2020-06-27T14:48:36Z</time>
      </trkpt>
      <trkpt lat="48.40598" lon="-0.82314">
        <ele>172.71</ele>
        <time>2020-06-27T14:48:41Z</time>
      </trkpt>
      <trkpt lat="48.40594" lon="-0.8232">
        <ele>173.71</ele>
        <time>2020-06-27T14:48:46Z</time>
      </trkpt>
      <trkpt lat="48.40589" lon="-0.82325">
        <ele>173.71</ele>
        <time>2020-06-27T14:48:52Z</time>
      </trkpt>
      <trkpt lat="48.40584" lon="-0.82331">
        <ele>172.71</ele>
        <time>2020-06-27T14:48:57Z</time>
      </trkpt>
      <trkpt lat="48.40579" lon="-0.82336">
        <ele>173.71</ele>
        <time>2020-06-27T14:49:03Z</time>
      </trkpt>
      <trkpt lat="48.40574" lon="-0.82342">
        <ele>172.71</ele>
        <time>2020-06-27T14:49:08Z</time>
      </trkpt>
      <trkpt lat="48.40569" lon="-0.82348">
        <ele>173.71</ele>
        <time>2020-06-27T14:49:14Z</time>
      </trkpt>
      <trkpt lat="48.40564" lon="-0.82355">
        <ele>173.71</ele>
        <time>2020-06-27T14:49:20Z</time>
      </trkpt>
      <trkpt lat="48.4056" lon="-0.82362">
        <ele>173.71</ele>
        <time>2020-06-27T14:49:26Z</time>
      </trkpt>
      <trkpt lat="48.40556" lon="-0.82367">
        <ele>174.71</ele>
        <time>2020-06-27T14:49:31Z</time>
      </trkpt>
      <trkpt lat="48.40552" lon="-0.82374">
        <ele>174.71</ele>
        <time>2020-06-27T14:49:37Z</time>
      </trkpt>
      <trkpt lat="48.40547" lon="-0.82381">
        <ele>175.71</ele>
        <time>2020-06-27T14:49:43Z</time>
      </trkpt>
      <trkpt lat="48.40543" lon="-0.82387">
        <ele>176.71</ele>
        <time>2020-06-27T14:49:49Z</time>
      </trkpt>
      <trkpt lat="48.40539" lon="-0.82394">
        <ele>176.71</ele>
        <time>2020-06-27T14:49:54Z</time>
      </trkpt>
      <trkpt lat="48.40534" lon="-0.82399">
        <ele>175.71</ele>
        <time>2020-06-27T14:49:59Z</time>
      </trkpt>
      <trkpt lat="48.4053" lon="-0.82407">
        <ele>176.71</ele>
        <time>2020-06-27T14:50:05Z</time>
      </trkpt>
      <trkpt lat="48.40525" lon="-0.82414">
        <ele>177.71</ele>
        <time>2020-06-27T14:50:11Z</time>
      </trkpt>
      <trkpt lat="48.4052" lon="-0.82421">
        <ele>177.71</ele>
        <time>2020-06-27T14:50:16Z</time>
      </trkpt>
      <trkpt lat="48.40516" lon="-0.82427">
        <ele>176.71</ele>
        <time>2020-06-27T14:50:21Z</time>
      </trkpt>
      <trkpt lat="48.40512" lon="-0.82434">
        <ele>177.71</ele>
        <time>2020-06-27T14:50:27Z</time>
      </trkpt>
      <trkpt lat="48.40508" lon="-0.8244">
        <ele>177.71</ele>
        <time>2020-06-27T14:50:32Z</time>
      </trkpt>
      <trkpt lat="48.40504" lon="-0.82447">
        <ele>177.71</ele>
        <time>2020-06-27T14:50:38Z</time>
      </trkpt>
      <trkpt lat="48.40498" lon="-0.82453">
        <ele>177.71</ele>
        <time>2020-06-27T14:50:44Z</time>
      </trkpt>
      <trkpt lat="48.40494" lon="-0.82459">
        <ele>177.71</ele>
        <time>2020-06-27T14:50:49Z</time>
      </trkpt>
      <trkpt lat="48.4049" lon="-0.82466">
        <ele>176.71</ele>
        <time>2020-06-27T14:50:54Z</time>
      </trkpt>
      <trkpt lat="48.40487" lon="-0.82474">
        <ele>176.71</ele>
        <time>2020-06-27T14:51:00Z</time>
      </trkpt>
      <trkpt lat="48.40483" lon="-0.82479">
        <ele>176.71</ele>
        <time>2020-06-27T14:51:05Z</time>
      </trkpt>
      <trkpt lat="48.40479" lon="-0.82487">
        <ele>177.71</ele>
        <time>2020-06-27T14:51:11Z</time>
      </trkpt>
      <trkpt lat="48.40475" lon="-0.82494">
        <ele>177.71</ele>
        <time>2020-06-27T14:51:16Z</time>
      </trkpt>
      <trkpt lat="48.40471" lon="-0.82502">
        <ele>177.71</ele>
        <time>2020-06-27T14:51:22Z</time>
      </trkpt>
      <trkpt lat="48.40466" lon="-0.8251">
        <ele>177.71</ele>
        <time>2020-06-27T14:51:28Z</time>
      </trkpt>
      <trkpt lat="48.40462" lon="-0.82516">
        <ele>177.71</ele>
        <time>2020-06-27T14:51:34Z</time>
      </trkpt>
      <trkpt lat="48.40458" lon="-0.82523">
        <ele>178.71</ele>
        <time>2020-06-27T14:51:40Z</time>
      </trkpt>
      <trkpt lat="48.40453" lon="-0.82531">
        <ele>178.71</ele>
        <time>2020-06-27T14:51:46Z</time>
      </trkpt>
      <trkpt lat="48.40449" lon="-0.82539">
        <ele>180.71</ele>
        <time>2020-06-27T14:51:52Z</time>
      </trkpt>
      <trkpt lat="48.40446" lon="-0.82544">
        <ele>181.71</ele>
        <time>2020-06-27T14:51:57Z</time>
      </trkpt>
      <trkpt lat="48.40441" lon="-0.82553">
        <ele>181.71</ele>
        <time>2020-06-27T14:52:03Z</time>
      </trkpt>
      <trkpt lat="48.40437" lon="-0.8256">
        <ele>181.71</ele>
        <time>2020-06-27T14:52:09Z</time>
      </trkpt>
      <trkpt lat="48.40433" lon="-0.82569">
        <ele>180.71</ele>
        <time>2020-06-27T14:52:15Z</time>
      </trkpt>
      <trkpt lat="48.40428" lon="-0.82576">
        <ele>179.71</ele>
        <time>2020-06-27T14:52:21Z</time>
      </trkpt>
      <trkpt lat="48.40425" lon="-0.82582">
        <ele>178.71</ele>
        <time>2020-06-27T14:52:26Z</time>
      </trkpt>
      <trkpt lat="48.40421" lon="-0.82588">
        <ele>177.71</ele>
        <time>2020-06-27T14:52:31Z</time>
      </trkpt>
      <trkpt lat="48.40418" lon="-0.82596">
        <ele>177.71</ele>
        <time>2020-06-27T14:52:37Z</time>
      </trkpt>
      <trkpt lat="48.40413" lon="-0.82602">
        <ele>177.71</ele>
        <time>2020-06-27T14:52:42Z</time>
      </trkpt>
      <trkpt lat="48.4041" lon="-0.82611">
        <ele>179.71</ele>
        <time>2020-06-27T14:52:48Z</time>
      </trkpt>
      <trkpt lat="48.40404" lon="-0.82618">
        <ele>179.71</ele>
        <time>2020-06-27T14:52:54Z</time>
      </trkpt>
      <trkpt lat="48.40401" lon="-0.82628">
        <ele>181.71</ele>
        <time>2020-06-27T14:52:59Z</time>
      </trkpt>
      <trkpt lat="48.40397" lon="-0.82637">
        <ele>182.71</ele>
        <time>2020-06-27T14:53:05Z</time>
      </trkpt>
      <trkpt lat="48.40393" lon="-0.82642">
        <ele>182.71</ele>
        <time>2020-06-27T14:53:11Z</time>
      </trkpt>
      <trkpt lat="48.40391" lon="-0.82648">
        <ele>182.71</ele>
        <time>2020-06-27T14:53:16Z</time>
      </trkpt>
      <trkpt lat="48.40388" lon="-0.82656">
        <ele>185.71</ele>
        <time>2020-06-27T14:53:22Z</time>
      </trkpt>
      <trkpt lat="48.40381" lon="-0.82664">
        <ele>183.71</ele>
        <time>2020-06-27T14:53:28Z</time>
      </trkpt>
      <trkpt lat="48.40376" lon="-0.82671">
        <ele>183.71</ele>
        <time>2020-06-27T14:53:34Z</time>
      </trkpt>
      <trkpt lat="48.40371" lon="-0.82677">
        <ele>183.71</ele>
        <time>2020-06-27T14:53:40Z</time>
      </trkpt>
      <trkpt lat="48.40366" lon="-0.82683">
        <ele>183.71</ele>
        <time>2020-06-27T14:53:45Z</time>
      </trkpt>
      <trkpt lat="48.40362" lon="-0.8269">
        <ele>183.71</ele>
        <time>2020-06-27T14:53:51Z</time>
      </trkpt>
      <trkpt lat="48.40359" lon="-0.82696">
        <ele>183.71</ele>
        <time>2020-06-27T14:53:56Z</time>
      </trkpt>
      <trkpt lat="48.40355" lon="-0.82703">
        <ele>182.71</ele>
        <time>2020-06-27T14:54:02Z</time>
      </trkpt>
      <trkpt lat="48.4035" lon="-0.8271">
        <ele>180.71</ele>
        <time>2020-06-27T14:54:08Z</time>
      </trkpt>
      <trkpt lat="48.40346" lon="-0.82716">
        <ele>180.71</ele>
        <time>2020-06-27T14:54:13Z</time>
      </trkpt>
      <trkpt lat="48.40342" lon="-0.82723">
        <ele>181.71</ele>
        <time>2020-06-27T14:54:19Z</time>
      </trkpt>
      <trkpt lat="48.40338" lon="-0.8273">
        <ele>181.71</ele>
        <time>2020-06-27T14:54:25Z</time>
      </trkpt>
      <trkpt lat="48.40333" lon="-0.82737">
        <ele>180.71</ele>
        <time>2020-06-27T14:54:31Z</time>
      </trkpt>
      <trkpt lat="48.4033" lon="-0.82743">
        <ele>180.71</ele>
        <time>2020-06-27T14:54:36Z</time>
      </trkpt>
      <trkpt lat="48.40326" lon="-0.82749">
        <ele>181.71</ele>
        <time>2020-06-27T14:54:42Z</time>
      </trkpt>
      <trkpt lat="48.40322" lon="-0.82756">
        <ele>180.71</ele>
        <time>2020-06-27T14:54:47Z</time>
      </trkpt>
      <trkpt lat="48.40317" lon="-0.82764">
        <ele>178.71</ele>
        <time>2020-06-27T14:54:53Z</time>
      </trkpt>
      <trkpt lat="48.40312" lon="-0.8277">
        <ele>177.71</ele>
        <time>2020-06-27T14:54:58Z</time>
      </trkpt>
      <trkpt lat="48.40308" lon="-0.82776">
        <ele>178.71</ele>
        <time>2020-06-27T14:55:03Z</time>
      </trkpt>
      <trkpt lat="48.40304" lon="-0.82784">
        <ele>177.71</ele>
        <time>2020-06-27T14:55:09Z</time>
      </trkpt>
      <trkpt lat="48.40301" lon="-0.82789">
        <ele>178.71</ele>
        <time>2020-06-27T14:55:14Z</time>
      </trkpt>
      <trkpt lat="48.40295" lon="-0.82797">
        <ele>178.71</ele>
        <time>2020-06-27T14:55:21Z</time>
      </trkpt>
      <trkpt lat="48.4029" lon="-0.82805">
        <ele>179.71</ele>
        <time>2020-06-27T14:55:27Z</time>
      </trkpt>
      <trkpt lat="48.40285" lon="-0.82811">
        <ele>180.71</ele>
        <time>2020-06-27T14:55:32Z</time>
      </trkpt>
      <trkpt lat="48.40281" lon="-0.82818">
        <ele>180.71</ele>
        <time>2020-06-27T14:55:38Z</time>
      </trkpt>
      <trkpt lat="48.40277" lon="-0.82826">
        <ele>181.71</ele>
        <time>2020-06-27T14:55:44Z</time>
      </trkpt>
      <trkpt lat="48.40273" lon="-0.82833">
        <ele>181.71</ele>
        <time>2020-06-27T14:55:50Z</time>
      </trkpt>
      <trkpt lat="48.40271" lon="-0.82842">
        <ele>179.71</ele>
        <time>2020-06-27T14:55:55Z</time>
      </trkpt>
      <trkpt lat="48.40268" lon="-0.82847">
        <ele>179.71</ele>
        <time>2020-06-27T14:56:00Z</time>
      </trkpt>
      <trkpt lat="48.40264" lon="-0.82855">
        <ele>178.71</ele>
        <time>2020-06-27T14:56:06Z</time>
      </trkpt>
      <trkpt lat="48.4026" lon="-0.82862">
        <ele>179.71</ele>
        <time>2020-06-27T14:56:12Z</time>
      </trkpt>
      <trkpt lat="48.40256" lon="-0.8287">
        <ele>179.71</ele>
        <time>2020-06-27T14:56:18Z</time>
      </trkpt>
      <trkpt lat="48.40251" lon="-0.82878">
        <ele>178.71</ele>
        <time>2020-06-27T14:56:24Z</time>
      </trkpt>
      <trkpt lat="48.40247" lon="-0.82885">
        <ele>178.71</ele>
        <time>2020-06-27T14:56:30Z</time>
      </trkpt>
      <trkpt lat="48.40243" lon="-0.82891">
        <ele>179.71</ele>
        <time>2020-06-27T14:56:35Z</time>
      </trkpt>
      <trkpt lat="48.40238" lon="-0.82898">
        <ele>178.71</ele>
        <time>2020-06-27T14:56:40Z</time>
      </trkpt>
      <trkpt lat="48.40235" lon="-0.82904">
        <ele>178.71</ele>
        <time>2020-06-27T14:56:45Z</time>
      </trkpt>
      <trkpt lat="48.4023" lon="-0.82911">
        <ele>178.71</ele>
        <time>2020-06-27T14:56:51Z</time>
      </trkpt>
      <trkpt lat="48.40227" lon="-0.82917">
        <ele>178.71</ele>
        <time>2020-06-27T14:56:56Z</time>
      </trkpt>
      <trkpt lat="48.40223" lon="-0.82923">
        <ele>177.71</ele>
        <time>2020-06-27T14:57:01Z</time>
      </trkpt>
      <trkpt lat="48.40218" lon="-0.82931">
        <ele>177.71</ele>
        <time>2020-06-27T14:57:07Z</time>
      </trkpt>
      <trkpt lat="48.40214" lon="-0.82939">
        <ele>177.71</ele>
        <time>2020-06-27T14:57:13Z</time>
      </trkpt>
      <trkpt lat="48.4021" lon="-0.82945">
        <ele>177.71</ele>
        <time>2020-06-27T14:57:18Z</time>
      </trkpt>
      <trkpt lat="48.40205" lon="-0.82952">
        <ele>177.71</ele>
        <time>2020-06-27T14:57:24Z</time>
      </trkpt>
      <trkpt lat="48.40201" lon="-0.8296">
        <ele>176.71</ele>
        <time>2020-06-27T14:57:29Z</time>
      </trkpt>
      <trkpt lat="48.40197" lon="-0.82967">
        <ele>175.71</ele>
        <time>2020-06-27T14:57:35Z</time>
      </trkpt>
      <trkpt lat="48.40193" lon="-0.82975">
        <ele>177.71</ele>
        <time>2020-06-27T14:57:41Z</time>
      </trkpt>
      <trkpt lat="48.40189" lon="-0.82983">
        <ele>176.71</ele>
        <time>2020-06-27T14:57:47Z</time>
      </trkpt>
      <trkpt lat="48.40184" lon="-0.82989">
        <ele>176.71</ele>
        <time>2020-06-27T14:57:53Z</time>
      </trkpt>
      <trkpt lat="48.40179" lon="-0.82996">
        <ele>176.71</ele>
        <time>2020-06-27T14:57:59Z</time>
      </trkpt>
      <trkpt lat="48.40176" lon="-0.83002">
        <ele>176.71</ele>
        <time>2020-06-27T14:58:04Z</time>
      </trkpt>
      <trkpt lat="48.40172" lon="-0.8301">
        <ele>176.71</ele>
        <time>2020-06-27T14:58:10Z</time>
      </trkpt>
      <trkpt lat="48.40167" lon="-0.83018">
        <ele>175.71</ele>
        <time>2020-06-27T14:58:16Z</time>
      </trkpt>
      <trkpt lat="48.40163" lon="-0.83026">
        <ele>174.71</ele>
        <time>2020-06-27T14:58:22Z</time>
      </trkpt>
      <trkpt lat="48.40159" lon="-0.83032">
        <ele>175.71</ele>
        <time>2020-06-27T14:58:27Z</time>
      </trkpt>
      <trkpt lat="48.40153" lon="-0.83039">
        <ele>175.71</ele>
        <time>2020-06-27T14:58:33Z</time>
      </trkpt>
      <trkpt lat="48.40148" lon="-0.83047">
        <ele>174.71</ele>
        <time>2020-06-27T14:58:39Z</time>
      </trkpt>
      <trkpt lat="48.40145" lon="-0.83053">
        <ele>173.71</ele>
        <time>2020-06-27T14:58:44Z</time>
      </trkpt>
      <trkpt lat="48.40141" lon="-0.8306">
        <ele>174.71</ele>
        <time>2020-06-27T14:58:50Z</time>
      </trkpt>
      <trkpt lat="48.40137" lon="-0.83068">
        <ele>172.71</ele>
        <time>2020-06-27T14:58:56Z</time>
      </trkpt>
      <trkpt lat="48.40133" lon="-0.83075">
        <ele>172.71</ele>
        <time>2020-06-27T14:59:01Z</time>
      </trkpt>
      <trkpt lat="48.40128" lon="-0.83083">
        <ele>173.71</ele>
        <time>2020-06-27T14:59:07Z</time>
      </trkpt>
      <trkpt lat="48.40125" lon="-0.83088">
        <ele>173.71</ele>
        <time>2020-06-27T14:59:12Z</time>
      </trkpt>
      <trkpt lat="48.40121" lon="-0.83094">
        <ele>173.71</ele>
        <time>2020-06-27T14:59:17Z</time>
      </trkpt>
      <trkpt lat="48.40118" lon="-0.83099">
        <ele>173.71</ele>
        <time>2020-06-27T14:59:22Z</time>
      </trkpt>
      <trkpt lat="48.40113" lon="-0.83106">
        <ele>172.71</ele>
        <time>2020-06-27T14:59:28Z</time>
      </trkpt>
      <trkpt lat="48.40109" lon="-0.83111">
        <ele>172.71</ele>
        <time>2020-06-27T14:59:34Z</time>
      </trkpt>
      <trkpt lat="48.40106" lon="-0.83117">
        <ele>171.71</ele>
        <time>2020-06-27T14:59:39Z</time>
      </trkpt>
      <trkpt lat="48.40103" lon="-0.83123">
        <ele>170.71</ele>
        <time>2020-06-27T14:59:45Z</time>
      </trkpt>
      <trkpt lat="48.40098" lon="-0.83132">
        <ele>171.71</ele>
        <time>2020-06-27T14:59:51Z</time>
      </trkpt>
      <trkpt lat="48.40094" lon="-0.83138">
        <ele>169.71</ele>
        <time>2020-06-27T14:59:56Z</time>
      </trkpt>
      <trkpt lat="48.40091" lon="-0.83143">
        <ele>171.71</ele>
        <time>2020-06-27T15:00:01Z</time>
      </trkpt>
      <trkpt lat="48.40088" lon="-0.83148">
        <ele>171.71</ele>
        <time>2020-06-27T15:00:06Z</time>
      </trkpt>
      <trkpt lat="48.40083" lon="-0.83154">
        <ele>172.71</ele>
        <time>2020-06-27T15:00:12Z</time>
      </trkpt>
      <trkpt lat="48.40078" lon="-0.83161">
        <ele>173.71</ele>
        <time>2020-06-27T15:00:18Z</time>
      </trkpt>
      <trkpt lat="48.40074" lon="-0.83167">
        <ele>173.71</ele>
        <time>2020-06-27T15:00:24Z</time>
      </trkpt>
      <trkpt lat="48.4007" lon="-0.83172">
        <ele>172.71</ele>
        <time>2020-06-27T15:00:29Z</time>
      </trkpt>
      <trkpt lat="48.40064" lon="-0.83177">
        <ele>172.71</ele>
        <time>2020-06-27T15:00:34Z</time>
      </trkpt>
      <trkpt lat="48.40059" lon="-0.83184">
        <ele>172.71</ele>
        <time>2020-06-27T15:00:40Z</time>
      </trkpt>
      <trkpt lat="48.40054" lon="-0.8319">
        <ele>173.71</ele>
        <time>2020-06-27T15:00:46Z</time>
      </trkpt>
      <trkpt lat="48.40048" lon="-0.83197">
        <ele>173.71</ele>
        <time>2020-06-27T15:00:52Z</time>
      </trkpt>
      <trkpt lat="48.40042" lon="-0.83204">
        <ele>172.71</ele>
        <time>2020-06-27T15:00:58Z</time>
      </trkpt>
      <trkpt lat="48.40037" lon="-0.8321">
        <ele>172.71</ele>
        <time>2020-06-27T15:01:03Z</time>
      </trkpt>
      <trkpt lat="48.40032" lon="-0.83216">
        <ele>170.71</ele>
        <time>2020-06-27T15:01:08Z</time>
      </trkpt>
      <trkpt lat="48.40029" lon="-0.8322">
        <ele>170.71</ele>
        <time>2020-06-27T15:01:13Z</time>
      </trkpt>
      <trkpt lat="48.40025" lon="-0.83224">
        <ele>172.71</ele>
        <time>2020-06-27T15:01:18Z</time>
      </trkpt>
      <trkpt lat="48.4002" lon="-0.83231">
        <ele>172.71</ele>
        <time>2020-06-27T15:01:24Z</time>
      </trkpt>
      <trkpt lat="48.40014" lon="-0.83236">
        <ele>170.71</ele>
        <time>2020-06-27T15:01:30Z</time>
      </trkpt>
      <trkpt lat="48.4001" lon="-0.83242">
        <ele>169.71</ele>
        <time>2020-06-27T15:01:36Z</time>
      </trkpt>
      <trkpt lat="48.40006" lon="-0.83248">
        <ele>169.71</ele>
        <time>2020-06-27T15:01:42Z</time>
      </trkpt>
      <trkpt lat="48.4" lon="-0.83254">
        <ele>169.71</ele>
        <time>2020-06-27T15:01:48Z</time>
      </trkpt>
      <trkpt lat="48.39994" lon="-0.8326">
        <ele>168.71</ele>
        <time>2020-06-27T15:01:53Z</time>
      </trkpt>
      <trkpt lat="48.39989" lon="-0.83265">
        <ele>168.71</ele>
        <time>2020-06-27T15:01:58Z</time>
      </trkpt>
      <trkpt lat="48.39983" lon="-0.83272">
        <ele>166.71</ele>
        <time>2020-06-27T15:02:04Z</time>
      </trkpt>
      <trkpt lat="48.39978" lon="-0.83278">
        <ele>166.71</ele>
        <time>2020-06-27T15:02:09Z</time>
      </trkpt>
      <trkpt lat="48.39973" lon="-0.83284">
        <ele>165.71</ele>
        <time>2020-06-27T15:02:15Z</time>
      </trkpt>
      <trkpt lat="48.39968" lon="-0.8329">
        <ele>166.71</ele>
        <time>2020-06-27T15:02:20Z</time>
      </trkpt>
      <trkpt lat="48.39963" lon="-0.83296">
        <ele>166.71</ele>
        <time>2020-06-27T15:02:26Z</time>
      </trkpt>
      <trkpt lat="48.39961" lon="-0.83299">
        <ele>165.71</ele>
        <time>2020-06-27T15:02:31Z</time>
      </trkpt>
      <trkpt lat="48.39953" lon="-0.83309">
        <ele>168.71</ele>
        <time>2020-06-27T15:02:37Z</time>
      </trkpt>
      <trkpt lat="48.39949" lon="-0.83313">
        <ele>170.71</ele>
        <time>2020-06-27T15:02:42Z</time>
      </trkpt>
      <trkpt lat="48.39944" lon="-0.8332">
        <ele>171.71</ele>
        <time>2020-06-27T15:02:48Z</time>
      </trkpt>
      <trkpt lat="48.39939" lon="-0.83327">
        <ele>171.71</ele>
        <time>2020-06-27T15:02:54Z</time>
      </trkpt>
      <trkpt lat="48.39936" lon="-0.83334">
        <ele>170.71</ele>
        <time>2020-06-27T15:02:59Z</time>
      </trkpt>
      <trkpt lat="48.39932" lon="-0.8334">
        <ele>169.71</ele>
        <time>2020-06-27T15:03:04Z</time>
      </trkpt>
      <trkpt lat="48.39926" lon="-0.83346">
        <ele>169.71</ele>
        <time>2020-06-27T15:03:10Z</time>
      </trkpt>
      <trkpt lat="48.3992" lon="-0.83354">
        <ele>168.71</ele>
        <time>2020-06-27T15:03:16Z</time>
      </trkpt>
      <trkpt lat="48.39915" lon="-0.83358">
        <ele>168.71</ele>
        <time>2020-06-27T15:03:21Z</time>
      </trkpt>
      <trkpt lat="48.39915" lon="-0.83359">
        <ele>168.71</ele>
        <time>2020-06-27T15:03:26Z</time>
      </trkpt>
      <trkpt lat="48.39915" lon="-0.83359">
        <ele>168.71</ele>
        <time>2020-06-27T15:03:32Z</time>
      </trkpt>
      <trkpt lat="48.39911" lon="-0.83361">
        <ele>167.71</ele>
        <time>2020-06-27T15:03:37Z</time>
      </trkpt>
      <trkpt lat="48.39906" lon="-0.83367">
        <ele>167.71</ele>
        <time>2020-06-27T15:03:43Z</time>
      </trkpt>
      <trkpt lat="48.39902" lon="-0.83372">
        <ele>167.71</ele>
        <time>2020-06-27T15:03:49Z</time>
      </trkpt>
      <trkpt lat="48.39897" lon="-0.83377">
        <ele>167.71</ele>
        <time>2020-06-27T15:03:55Z</time>
      </trkpt>
      <trkpt lat="48.39892" lon="-0.83384">
        <ele>167.71</ele>
        <time>2020-06-27T15:04:00Z</time>
      </trkpt>
      <trkpt lat="48.39886" lon="-0.83391">
        <ele>166.71</ele>
        <time>2020-06-27T15:04:06Z</time>
      </trkpt>
      <trkpt lat="48.39882" lon="-0.83397">
        <ele>166.71</ele>
        <time>2020-06-27T15:04:11Z</time>
      </trkpt>
      <trkpt lat="48.39878" lon="-0.83402">
        <ele>168.71</ele>
        <time>2020-06-27T15:04:17Z</time>
      </trkpt>
      <trkpt lat="48.39872" lon="-0.83409">
        <ele>168.71</ele>
        <time>2020-06-27T15:04:23Z</time>
      </trkpt>
      <trkpt lat="48.39868" lon="-0.83415">
        <ele>167.71</ele>
        <time>2020-06-27T15:04:28Z</time>
      </trkpt>
      <trkpt lat="48.39863" lon="-0.83423">
        <ele>167.71</ele>
        <time>2020-06-27T15:04:34Z</time>
      </trkpt>
      <trkpt lat="48.39858" lon="-0.83427">
        <ele>167.71</ele>
        <time>2020-06-27T15:04:39Z</time>
      </trkpt>
      <trkpt lat="48.39853" lon="-0.83432">
        <ele>167.71</ele>
        <time>2020-06-27T15:04:44Z</time>
      </trkpt>
      <trkpt lat="48.39848" lon="-0.83437">
        <ele>166.71</ele>
        <time>2020-06-27T15:04:50Z</time>
      </trkpt>
      <trkpt lat="48.39843" lon="-0.83443">
        <ele>166.71</ele>
        <time>2020-06-27T15:04:56Z</time>
      </trkpt>
      <trkpt lat="48.39838" lon="-0.83449">
        <ele>166.71</ele>
        <time>2020-06-27T15:05:02Z</time>
      </trkpt>
      <trkpt lat="48.39832" lon="-0.83456">
        <ele>166.71</ele>
        <time>2020-06-27T15:05:08Z</time>
      </trkpt>
      <trkpt lat="48.39828" lon="-0.83461">
        <ele>166.71</ele>
        <time>2020-06-27T15:05:13Z</time>
      </trkpt>
      <trkpt lat="48.39823" lon="-0.83467">
        <ele>166.71</ele>
        <time>2020-06-27T15:05:19Z</time>
      </trkpt>
      <trkpt lat="48.39817" lon="-0.83473">
        <ele>166.71</ele>
        <time>2020-06-27T15:05:25Z</time>
      </trkpt>
      <trkpt lat="48.39811" lon="-0.83479">
        <ele>167.71</ele>
        <time>2020-06-27T15:05:31Z</time>
      </trkpt>
      <trkpt lat="48.39806" lon="-0.83484">
        <ele>167.71</ele>
        <time>2020-06-27T15:05:36Z</time>
      </trkpt>
      <trkpt lat="48.39802" lon="-0.83488">
        <ele>166.71</ele>
        <time>2020-06-27T15:05:41Z</time>
      </trkpt>
      <trkpt lat="48.39797" lon="-0.83493">
        <ele>167.71</ele>
        <time>2020-06-27T15:05:46Z</time>
      </trkpt>
      <trkpt lat="48.39791" lon="-0.83499">
        <ele>166.71</ele>
        <time>2020-06-27T15:05:52Z</time>
      </trkpt>
      <trkpt lat="48.39786" lon="-0.83503">
        <ele>166.71</ele>
        <time>2020-06-27T15:05:57Z</time>
      </trkpt>
      <trkpt lat="48.3978" lon="-0.83508">
        <ele>166.71</ele>
        <time>2020-06-27T15:06:03Z</time>
      </trkpt>
      <trkpt lat="48.39775" lon="-0.83512">
        <ele>167.71</ele>
        <time>2020-06-27T15:06:09Z</time>
      </trkpt>
      <trkpt lat="48.39769" lon="-0.83517">
        <ele>168.71</ele>
        <time>2020-06-27T15:06:15Z</time>
      </trkpt>
      <trkpt lat="48.39765" lon="-0.83522">
        <ele>169.71</ele>
        <time>2020-06-27T15:06:20Z</time>
      </trkpt>
      <trkpt lat="48.39759" lon="-0.83526">
        <ele>169.71</ele>
        <time>2020-06-27T15:06:26Z</time>
      </trkpt>
      <trkpt lat="48.39755" lon="-0.83529">
        <ele>169.71</ele>
        <time>2020-06-27T15:06:31Z</time>
      </trkpt>
      <trkpt lat="48.39749" lon="-0.83533">
        <ele>171.71</ele>
        <time>2020-06-27T15:06:37Z</time>
      </trkpt>
      <trkpt lat="48.39744" lon="-0.83537">
        <ele>171.71</ele>
        <time>2020-06-27T15:06:42Z</time>
      </trkpt>
      <trkpt lat="48.39738" lon="-0.83542">
        <ele>171.71</ele>
        <time>2020-06-27T15:06:48Z</time>
      </trkpt>
      <trkpt lat="48.39732" lon="-0.83544">
        <ele>171.71</ele>
        <time>2020-06-27T15:06:54Z</time>
      </trkpt>
      <trkpt lat="48.39727" lon="-0.83549">
        <ele>171.71</ele>
        <time>2020-06-27T15:06:59Z</time>
      </trkpt>
      <trkpt lat="48.39722" lon="-0.83554">
        <ele>170.71</ele>
        <time>2020-06-27T15:07:05Z</time>
      </trkpt>
      <trkpt lat="48.39716" lon="-0.83559">
        <ele>170.71</ele>
        <time>2020-06-27T15:07:11Z</time>
      </trkpt>
      <trkpt lat="48.3971" lon="-0.83563">
        <ele>169.71</ele>
        <time>2020-06-27T15:07:17Z</time>
      </trkpt>
      <trkpt lat="48.39704" lon="-0.83568">
        <ele>170.71</ele>
        <time>2020-06-27T15:07:23Z</time>
      </trkpt>
      <trkpt lat="48.39698" lon="-0.83572">
        <ele>172.71</ele>
        <time>2020-06-27T15:07:29Z</time>
      </trkpt>
      <trkpt lat="48.39693" lon="-0.83576">
        <ele>173.71</ele>
        <time>2020-06-27T15:07:34Z</time>
      </trkpt>
      <trkpt lat="48.39689" lon="-0.83581">
        <ele>174.71</ele>
        <time>2020-06-27T15:07:39Z</time>
      </trkpt>
      <trkpt lat="48.39683" lon="-0.83587">
        <ele>175.71</ele>
        <time>2020-06-27T15:07:45Z</time>
      </trkpt>
      <trkpt lat="48.39677" lon="-0.83591">
        <ele>175.71</ele>
        <time>2020-06-27T15:07:51Z</time>
      </trkpt>
      <trkpt lat="48.39672" lon="-0.83595">
        <ele>175.71</ele>
        <time>2020-06-27T15:07:56Z</time>
      </trkpt>
      <trkpt lat="48.39667" lon="-0.83599">
        <ele>175.71</ele>
        <time>2020-06-27T15:08:01Z</time>
      </trkpt>
      <trkpt lat="48.39661" lon="-0.83605">
        <ele>176.71</ele>
        <time>2020-06-27T15:08:07Z</time>
      </trkpt>
      <trkpt lat="48.39656" lon="-0.83608">
        <ele>177.71</ele>
        <time>2020-06-27T15:08:12Z</time>
      </trkpt>
      <trkpt lat="48.3965" lon="-0.83612">
        <ele>175.71</ele>
        <time>2020-06-27T15:08:18Z</time>
      </trkpt>
      <trkpt lat="48.39645" lon="-0.83615">
        <ele>175.71</ele>
        <time>2020-06-27T15:08:24Z</time>
      </trkpt>
      <trkpt lat="48.3964" lon="-0.83621">
        <ele>176.71</ele>
        <time>2020-06-27T15:08:30Z</time>
      </trkpt>
      <trkpt lat="48.39635" lon="-0.83625">
        <ele>176.71</ele>
        <time>2020-06-27T15:08:36Z</time>
      </trkpt>
      <trkpt lat="48.3963" lon="-0.83629">
        <ele>178.71</ele>
        <time>2020-06-27T15:08:41Z</time>
      </trkpt>
      <trkpt lat="48.39624" lon="-0.83634">
        <ele>178.71</ele>
        <time>2020-06-27T15:08:47Z</time>
      </trkpt>
      <trkpt lat="48.39618" lon="-0.83638">
        <ele>177.71</ele>
        <time>2020-06-27T15:08:53Z</time>
      </trkpt>
      <trkpt lat="48.39613" lon="-0.83643">
        <ele>177.71</ele>
        <time>2020-06-27T15:08:59Z</time>
      </trkpt>
      <trkpt lat="48.39607" lon="-0.83647">
        <ele>177.71</ele>
        <time>2020-06-27T15:09:04Z</time>
      </trkpt>
      <trkpt lat="48.39602" lon="-0.83651">
        <ele>177.71</ele>
        <time>2020-06-27T15:09:10Z</time>
      </trkpt>
      <trkpt lat="48.39597" lon="-0.83655">
        <ele>177.71</ele>
        <time>2020-06-27T15:09:15Z</time>
      </trkpt>
      <trkpt lat="48.39592" lon="-0.8366">
        <ele>177.71</ele>
        <time>2020-06-27T15:09:20Z</time>
      </trkpt>
      <trkpt lat="48.39586" lon="-0.83664">
        <ele>177.71</ele>
        <time>2020-06-27T15:09:26Z</time>
      </trkpt>
      <trkpt lat="48.39581" lon="-0.83667">
        <ele>178.71</ele>
        <time>2020-06-27T15:09:31Z</time>
      </trkpt>
      <trkpt lat="48.39575" lon="-0.83672">
        <ele>179.71</ele>
        <time>2020-06-27T15:09:37Z</time>
      </trkpt>
      <trkpt lat="48.39569" lon="-0.83677">
        <ele>179.71</ele>
        <time>2020-06-27T15:09:43Z</time>
      </trkpt>
      <trkpt lat="48.39565" lon="-0.83681">
        <ele>179.71</ele>
        <time>2020-06-27T15:09:48Z</time>
      </trkpt>
      <trkpt lat="48.3956" lon="-0.83686">
        <ele>179.71</ele>
        <time>2020-06-27T15:09:54Z</time>
      </trkpt>
      <trkpt lat="48.39554" lon="-0.8369">
        <ele>178.71</ele>
        <time>2020-06-27T15:10:00Z</time>
      </trkpt>
      <trkpt lat="48.39549" lon="-0.83694">
        <ele>178.71</ele>
        <time>2020-06-27T15:10:06Z</time>
      </trkpt>
      <trkpt lat="48.39544" lon="-0.83698">
        <ele>177.71</ele>
        <time>2020-06-27T15:10:11Z</time>
      </trkpt>
      <trkpt lat="48.39539" lon="-0.83702">
        <ele>178.71</ele>
        <time>2020-06-27T15:10:16Z</time>
      </trkpt>
      <trkpt lat="48.39533" lon="-0.83707">
        <ele>178.71</ele>
        <time>2020-06-27T15:10:22Z</time>
      </trkpt>
      <trkpt lat="48.39528" lon="-0.8371">
        <ele>178.71</ele>
        <time>2020-06-27T15:10:27Z</time>
      </trkpt>
      <trkpt lat="48.39523" lon="-0.83715">
        <ele>180.71</ele>
        <time>2020-06-27T15:10:33Z</time>
      </trkpt>
      <trkpt lat="48.39519" lon="-0.83719">
        <ele>180.71</ele>
        <time>2020-06-27T15:10:38Z</time>
      </trkpt>
      <trkpt lat="48.39514" lon="-0.83724">
        <ele>181.71</ele>
        <time>2020-06-27T15:10:43Z</time>
      </trkpt>
      <trkpt lat="48.39507" lon="-0.8373">
        <ele>182.71</ele>
        <time>2020-06-27T15:10:49Z</time>
      </trkpt>
      <trkpt lat="48.39502" lon="-0.83734">
        <ele>183.71</ele>
        <time>2020-06-27T15:10:55Z</time>
      </trkpt>
      <trkpt lat="48.39496" lon="-0.83739">
        <ele>183.71</ele>
        <time>2020-06-27T15:11:01Z</time>
      </trkpt>
      <trkpt lat="48.3949" lon="-0.83744">
        <ele>182.71</ele>
        <time>2020-06-27T15:11:07Z</time>
      </trkpt>
      <trkpt lat="48.39484" lon="-0.8375">
        <ele>183.71</ele>
        <time>2020-06-27T15:11:13Z</time>
      </trkpt>
      <trkpt lat="48.39479" lon="-0.83753">
        <ele>184.71</ele>
        <time>2020-06-27T15:11:18Z</time>
      </trkpt>
      <trkpt lat="48.39473" lon="-0.83757">
        <ele>185.71</ele>
        <time>2020-06-27T15:11:24Z</time>
      </trkpt>
      <trkpt lat="48.39469" lon="-0.8376">
        <ele>185.71</ele>
        <time>2020-06-27T15:11:29Z</time>
      </trkpt>
      <trkpt lat="48.39464" lon="-0.83764">
        <ele>185.71</ele>
        <time>2020-06-27T15:11:34Z</time>
      </trkpt>
      <trkpt lat="48.39459" lon="-0.83768">
        <ele>184.71</ele>
        <time>2020-06-27T15:11:40Z</time>
      </trkpt>
      <trkpt lat="48.39454" lon="-0.83773">
        <ele>184.71</ele>
        <time>2020-06-27T15:11:45Z</time>
      </trkpt>
      <trkpt lat="48.39448" lon="-0.83779">
        <ele>184.71</ele>
        <time>2020-06-27T15:11:51Z</time>
      </trkpt>
      <trkpt lat="48.39441" lon="-0.83785">
        <ele>185.71</ele>
        <time>2020-06-27T15:11:57Z</time>
      </trkpt>
      <trkpt lat="48.39436" lon="-0.83789">
        <ele>185.71</ele>
        <time>2020-06-27T15:12:03Z</time>
      </trkpt>
      <trkpt lat="48.3943" lon="-0.83793">
        <ele>184.71</ele>
        <time>2020-06-27T15:12:09Z</time>
      </trkpt>
      <trkpt lat="48.39425" lon="-0.83796">
        <ele>184.71</ele>
        <time>2020-06-27T15:12:14Z</time>
      </trkpt>
      <trkpt lat="48.3942" lon="-0.83801">
        <ele>184.71</ele>
        <time>2020-06-27T15:12:19Z</time>
      </trkpt>
      <trkpt lat="48.39414" lon="-0.83806">
        <ele>185.71</ele>
        <time>2020-06-27T15:12:25Z</time>
      </trkpt>
      <trkpt lat="48.39408" lon="-0.8381">
        <ele>186.71</ele>
        <time>2020-06-27T15:12:31Z</time>
      </trkpt>
      <trkpt lat="48.39403" lon="-0.83815">
        <ele>186.71</ele>
        <time>2020-06-27T15:12:36Z</time>
      </trkpt>
      <trkpt lat="48.39398" lon="-0.83819">
        <ele>185.71</ele>
        <time>2020-06-27T15:12:42Z</time>
      </trkpt>
      <trkpt lat="48.39393" lon="-0.83823">
        <ele>185.71</ele>
        <time>2020-06-27T15:12:47Z</time>
      </trkpt>
      <trkpt lat="48.39389" lon="-0.83828">
        <ele>186.71</ele>
        <time>2020-06-27T15:12:53Z</time>
      </trkpt>
      <trkpt lat="48.39386" lon="-0.83831">
        <ele>186.71</ele>
        <time>2020-06-27T15:12:59Z</time>
      </trkpt>
      <trkpt lat="48.39384" lon="-0.83833">
        <ele>187.71</ele>
        <time>2020-06-27T15:13:04Z</time>
      </trkpt>
      <trkpt lat="48.3938" lon="-0.83837">
        <ele>186.71</ele>
        <time>2020-06-27T15:13:10Z</time>
      </trkpt>
      <trkpt lat="48.39374" lon="-0.8384">
        <ele>187.71</ele>
        <time>2020-06-27T15:13:16Z</time>
      </trkpt>
      <trkpt lat="48.39368" lon="-0.83844">
        <ele>186.71</ele>
        <time>2020-06-27T15:13:22Z</time>
      </trkpt>
      <trkpt lat="48.39363" lon="-0.8385">
        <ele>186.71</ele>
        <time>2020-06-27T15:13:28Z</time>
      </trkpt>
      <trkpt lat="48.39359" lon="-0.83854">
        <ele>186.71</ele>
        <time>2020-06-27T15:13:33Z</time>
      </trkpt>
      <trkpt lat="48.39354" lon="-0.83858">
        <ele>187.71</ele>
        <time>2020-06-27T15:13:38Z</time>
      </trkpt>
      <trkpt lat="48.39348" lon="-0.83863">
        <ele>187.71</ele>
        <time>2020-06-27T15:13:44Z</time>
      </trkpt>
      <trkpt lat="48.39344" lon="-0.83864">
        <ele>189.71</ele>
        <time>2020-06-27T15:13:49Z</time>
      </trkpt>
      <trkpt lat="48.3934" lon="-0.83867">
        <ele>188.71</ele>
        <time>2020-06-27T15:13:54Z</time>
      </trkpt>
      <trkpt lat="48.39334" lon="-0.83873">
        <ele>188.71</ele>
        <time>2020-06-27T15:14:00Z</time>
      </trkpt>
      <trkpt lat="48.39329" lon="-0.83875">
        <ele>189.71</ele>
        <time>2020-06-27T15:14:05Z</time>
      </trkpt>
      <trkpt lat="48.39324" lon="-0.83879">
        <ele>188.71</ele>
        <time>2020-06-27T15:14:10Z</time>
      </trkpt>
      <trkpt lat="48.39319" lon="-0.83884">
        <ele>189.71</ele>
        <time>2020-06-27T15:14:16Z</time>
      </trkpt>
      <trkpt lat="48.39314" lon="-0.83887">
        <ele>189.71</ele>
        <time>2020-06-27T15:14:21Z</time>
      </trkpt>
      <trkpt lat="48.39308" lon="-0.83894">
        <ele>189.71</ele>
        <time>2020-06-27T15:14:27Z</time>
      </trkpt>
      <trkpt lat="48.39303" lon="-0.83897">
        <ele>188.71</ele>
        <time>2020-06-27T15:14:32Z</time>
      </trkpt>
      <trkpt lat="48.39298" lon="-0.83901">
        <ele>188.71</ele>
        <time>2020-06-27T15:14:37Z</time>
      </trkpt>
      <trkpt lat="48.39293" lon="-0.83905">
        <ele>188.71</ele>
        <time>2020-06-27T15:14:43Z</time>
      </trkpt>
      <trkpt lat="48.39287" lon="-0.8391">
        <ele>188.71</ele>
        <time>2020-06-27T15:14:49Z</time>
      </trkpt>
      <trkpt lat="48.39281" lon="-0.83913">
        <ele>189.71</ele>
        <time>2020-06-27T15:14:54Z</time>
      </trkpt>
      <trkpt lat="48.39276" lon="-0.8392">
        <ele>188.71</ele>
        <time>2020-06-27T15:15:00Z</time>
      </trkpt>
      <trkpt lat="48.39271" lon="-0.83924">
        <ele>190.71</ele>
        <time>2020-06-27T15:15:06Z</time>
      </trkpt>
      <trkpt lat="48.39265" lon="-0.83929">
        <ele>191.71</ele>
        <time>2020-06-27T15:15:11Z</time>
      </trkpt>
      <trkpt lat="48.39259" lon="-0.83932">
        <ele>192.71</ele>
        <time>2020-06-27T15:15:17Z</time>
      </trkpt>
      <trkpt lat="48.39253" lon="-0.8394">
        <ele>192.71</ele>
        <time>2020-06-27T15:15:23Z</time>
      </trkpt>
      <trkpt lat="48.39248" lon="-0.83945">
        <ele>192.71</ele>
        <time>2020-06-27T15:15:28Z</time>
      </trkpt>
      <trkpt lat="48.39243" lon="-0.83949">
        <ele>193.71</ele>
        <time>2020-06-27T15:15:34Z</time>
      </trkpt>
      <trkpt lat="48.39237" lon="-0.83954">
        <ele>192.71</ele>
        <time>2020-06-27T15:15:40Z</time>
      </trkpt>
      <trkpt lat="48.39231" lon="-0.83958">
        <ele>193.71</ele>
        <time>2020-06-27T15:15:46Z</time>
      </trkpt>
      <trkpt lat="48.39225" lon="-0.83964">
        <ele>193.71</ele>
        <time>2020-06-27T15:15:52Z</time>
      </trkpt>
      <trkpt lat="48.39219" lon="-0.83968">
        <ele>193.71</ele>
        <time>2020-06-27T15:15:58Z</time>
      </trkpt>
      <trkpt lat="48.39213" lon="-0.83977">
        <ele>194.71</ele>
        <time>2020-06-27T15:16:04Z</time>
      </trkpt>
      <trkpt lat="48.39207" lon="-0.83981">
        <ele>194.71</ele>
        <time>2020-06-27T15:16:10Z</time>
      </trkpt>
      <trkpt lat="48.39207" lon="-0.83984">
        <ele>192.71</ele>
        <time>2020-06-27T15:16:15Z</time>
      </trkpt>
      <trkpt lat="48.39209" lon="-0.83987">
        <ele>192.71</ele>
        <time>2020-06-27T15:16:20Z</time>
      </trkpt>
      <trkpt lat="48.3921" lon="-0.83987">
        <ele>193.71</ele>
        <time>2020-06-27T15:16:25Z</time>
      </trkpt>
      <trkpt lat="48.3921" lon="-0.83986">
        <ele>193.71</ele>
        <time>2020-06-27T15:16:31Z</time>
      </trkpt>
      <trkpt lat="48.39209" lon="-0.83983">
        <ele>195.71</ele>
        <time>2020-06-27T15:16:37Z</time>
      </trkpt>
      <trkpt lat="48.39209" lon="-0.8398">
        <ele>195.71</ele>
        <time>2020-06-27T15:16:43Z</time>
      </trkpt>
      <trkpt lat="48.39208" lon="-0.8398">
        <ele>194.71</ele>
        <time>2020-06-27T15:16:49Z</time>
      </trkpt>
      <trkpt lat="48.39207" lon="-0.83981">
        <ele>193.71</ele>
        <time>2020-06-27T15:16:55Z</time>
      </trkpt>
      <trkpt lat="48.39208" lon="-0.83981">
        <ele>194.71</ele>
        <time>2020-06-27T15:17:00Z</time>
      </trkpt>
      <trkpt lat="48.39209" lon="-0.83984">
        <ele>198.71</ele>
        <time>2020-06-27T15:17:05Z</time>
      </trkpt>
      <trkpt lat="48.3921" lon="-0.83983">
        <ele>201.71</ele>
        <time>2020-06-27T15:17:11Z</time>
      </trkpt>
      <trkpt lat="48.39211" lon="-0.83993">
        <ele>195.71</ele>
        <time>2020-06-27T15:17:17Z</time>
      </trkpt>
      <trkpt lat="48.39213" lon="-0.83995">
        <ele>189.71</ele>
        <time>2020-06-27T15:17:22Z</time>
      </trkpt>
      <trkpt lat="48.39213" lon="-0.83996">
        <ele>196.71</ele>
        <time>2020-06-27T15:17:27Z</time>
      </trkpt>
      <trkpt lat="48.39213" lon="-0.83997">
        <ele>196.71</ele>
        <time>2020-06-27T15:17:32Z</time>
      </trkpt>
      <trkpt lat="48.39213" lon="-0.83998">
        <ele>196.71</ele>
        <time>2020-06-27T15:17:38Z</time>
      </trkpt>
      <trkpt lat="48.39213" lon="-0.83998">
        <ele>195.71</ele>
        <time>2020-06-27T15:17:44Z</time>
      </trkpt>
      <trkpt lat="48.39213" lon="-0.83998">
        <ele>196.71</ele>
        <time>2020-06-27T15:17:49Z</time>
      </trkpt>
      <trkpt lat="48.39213" lon="-0.83998">
        <ele>196.71</ele>
        <time>2020-06-27T15:17:55Z</time>
      </trkpt>
      <trkpt lat="48.39213" lon="-0.83998">
        <ele>196.71</ele>
        <time>2020-06-27T15:18:01Z</time>
      </trkpt>
      <trkpt lat="48.39213" lon="-0.83998">
        <ele>196.71</ele>
        <time>2020-06-27T15:18:06Z</time>
      </trkpt>
      <trkpt lat="48.39213" lon="-0.83998">
        <ele>196.71</ele>
        <time>2020-06-27T15:18:11Z</time>
      </trkpt>
      <trkpt lat="48.39213" lon="-0.83998">
        <ele>196.71</ele>
        <time>2020-06-27T15:18:17Z</time>
      </trkpt>
      <trkpt lat="48.39213" lon="-0.83998">
        <ele>196.71</ele>
        <time>2020-06-27T15:18:23Z</time>
      </trkpt>
      <trkpt lat="48.39213" lon="-0.83998">
        <ele>196.71</ele>
        <time>2020-06-27T15:18:29Z</time>
      </trkpt>
      <trkpt lat="48.39213" lon="-0.83998">
        <ele>196.71</ele>
        <time>2020-06-27T15:18:35Z</time>
      </trkpt>
      <trkpt lat="48.39213" lon="-0.83998">
        <ele>196.71</ele>
        <time>2020-06-27T15:18:41Z</time>
      </trkpt>
      <trkpt lat="48.39213" lon="-0.83998">
        <ele>196.71</ele>
        <time>2020-06-27T15:18:46Z</time>
      </trkpt>
      <trkpt lat="48.39213" lon="-0.83998">
        <ele>196.71</ele>
        <time>2020-06-27T15:18:51Z</time>
      </trkpt>
      <trkpt lat="48.39213" lon="-0.83998">
        <ele>196.71</ele>
        <time>2020-06-27T15:18:57Z</time>
      </trkpt>
      <trkpt lat="48.39212" lon="-0.83999">
        <ele>196.71</ele>
        <time>2020-06-27T15:19:02Z</time>
      </trkpt>
      <trkpt lat="48.3921" lon="-0.83991">
        <ele>195.71</ele>
        <time>2020-06-27T15:19:08Z</time>
      </trkpt>
      <trkpt lat="48.39214" lon="-0.83986">
        <ele>194.71</ele>
        <time>2020-06-27T15:19:13Z</time>
      </trkpt>
      <trkpt lat="48.39215" lon="-0.83989">
        <ele>193.71</ele>
        <time>2020-06-27T15:19:18Z</time>
      </trkpt>
      <trkpt lat="48.39216" lon="-0.83991">
        <ele>196.71</ele>
        <time>2020-06-27T15:19:24Z</time>
      </trkpt>
      <trkpt lat="48.39212" lon="-0.83987">
        <ele>191.71</ele>
        <time>2020-06-27T15:19:30Z</time>
      </trkpt>
      <trkpt lat="48.39227" lon="-0.83949">
        <ele>188.71</ele>
        <time>2020-06-27T15:19:41Z</time>
      </trkpt>
      <trkpt lat="48.39212" lon="-0.83987">
        <ele>205.71</ele>
        <time>2020-06-27T15:19:51Z</time>
      </trkpt>
      <trkpt lat="48.3922" lon="-0.8398">
        <ele>193.71</ele>
        <time>2020-06-27T15:19:57Z</time>
      </trkpt>
      <trkpt lat="48.39217" lon="-0.83986">
        <ele>189.71</ele>
        <time>2020-06-27T15:20:03Z</time>
      </trkpt>
      <trkpt lat="48.39212" lon="-0.83993">
        <ele>194.71</ele>
        <time>2020-06-27T15:20:09Z</time>
      </trkpt>
      <trkpt lat="48.39216" lon="-0.83998">
        <ele>195.71</ele>
        <time>2020-06-27T15:20:15Z</time>
      </trkpt>
      <trkpt lat="48.39219" lon="-0.84005">
        <ele>195.71</ele>
        <time>2020-06-27T15:20:21Z</time>
      </trkpt>
      <trkpt lat="48.39224" lon="-0.84009">
        <ele>195.71</ele>
        <time>2020-06-27T15:20:27Z</time>
      </trkpt>
      <trkpt lat="48.39224" lon="-0.84013">
        <ele>196.71</ele>
        <time>2020-06-27T15:20:33Z</time>
      </trkpt>
      <trkpt lat="48.39225" lon="-0.84013">
        <ele>196.71</ele>
        <time>2020-06-27T15:20:39Z</time>
      </trkpt>
      <trkpt lat="48.39225" lon="-0.84013">
        <ele>196.71</ele>
        <time>2020-06-27T15:20:45Z</time>
      </trkpt>
      <trkpt lat="48.39224" lon="-0.84013">
        <ele>196.71</ele>
        <time>2020-06-27T15:20:50Z</time>
      </trkpt>
      <trkpt lat="48.39224" lon="-0.84013">
        <ele>196.71</ele>
        <time>2020-06-27T15:20:56Z</time>
      </trkpt>
      <trkpt lat="48.39224" lon="-0.84013">
        <ele>196.71</ele>
        <time>2020-06-27T15:21:01Z</time>
      </trkpt>
      <trkpt lat="48.39224" lon="-0.84013">
        <ele>196.71</ele>
        <time>2020-06-27T15:21:06Z</time>
      </trkpt>
      <trkpt lat="48.39224" lon="-0.84013">
        <ele>196.71</ele>
        <time>2020-06-27T15:21:12Z</time>
      </trkpt>
      <trkpt lat="48.39225" lon="-0.84013">
        <ele>196.71</ele>
        <time>2020-06-27T15:21:18Z</time>
      </trkpt>
      <trkpt lat="48.39224" lon="-0.84013">
        <ele>196.71</ele>
        <time>2020-06-27T15:21:24Z</time>
      </trkpt>
      <trkpt lat="48.39225" lon="-0.84013">
        <ele>195.71</ele>
        <time>2020-06-27T15:21:30Z</time>
      </trkpt>
      <trkpt lat="48.39225" lon="-0.84013">
        <ele>195.71</ele>
        <time>2020-06-27T15:21:35Z</time>
      </trkpt>
      <trkpt lat="48.39225" lon="-0.84013">
        <ele>195.71</ele>
        <time>2020-06-27T15:21:40Z</time>
      </trkpt>
      <trkpt lat="48.39225" lon="-0.84013">
        <ele>195.71</ele>
        <time>2020-06-27T15:21:45Z</time>
      </trkpt>
      <trkpt lat="48.39225" lon="-0.84013">
        <ele>195.71</ele>
        <time>2020-06-27T15:21:51Z</time>
      </trkpt>
      <trkpt lat="48.39225" lon="-0.84013">
        <ele>195.71</ele>
        <time>2020-06-27T15:21:57Z</time>
      </trkpt>
      <trkpt lat="48.39225" lon="-0.84013">
        <ele>195.71</ele>
        <time>2020-06-27T15:22:03Z</time>
      </trkpt>
      <trkpt lat="48.39225" lon="-0.84013">
        <ele>195.71</ele>
        <time>2020-06-27T15:22:08Z</time>
      </trkpt>
      <trkpt lat="48.39225" lon="-0.84013">
        <ele>195.71</ele>
        <time>2020-06-27T15:22:14Z</time>
      </trkpt>
      <trkpt lat="48.39225" lon="-0.84013">
        <ele>195.71</ele>
        <time>2020-06-27T15:22:19Z</time>
      </trkpt>
      <trkpt lat="48.39225" lon="-0.84013">
        <ele>195.71</ele>
        <time>2020-06-27T15:22:25Z</time>
      </trkpt>
      <trkpt lat="48.39225" lon="-0.84013">
        <ele>195.71</ele>
        <time>2020-06-27T15:22:31Z</time>
      </trkpt>
      <trkpt lat="48.39225" lon="-0.84013">
        <ele>195.71</ele>
        <time>2020-06-27T15:22:37Z</time>
      </trkpt>
      <trkpt lat="48.39225" lon="-0.84013">
        <ele>195.71</ele>
        <time>2020-06-27T15:22:42Z</time>
      </trkpt>
      <trkpt lat="48.39225" lon="-0.84013">
        <ele>195.71</ele>
        <time>2020-06-27T15:22:47Z</time>
      </trkpt>
      <trkpt lat="48.39225" lon="-0.84013">
        <ele>195.71</ele>
        <time>2020-06-27T15:22:53Z</time>
      </trkpt>
      <trkpt lat="48.39225" lon="-0.84013">
        <ele>196.71</ele>
        <time>2020-06-27T15:22:58Z</time>
      </trkpt>
      <trkpt lat="48.39225" lon="-0.84011">
        <ele>199.71</ele>
        <time>2020-06-27T15:23:04Z</time>
      </trkpt>
      <trkpt lat="48.39225" lon="-0.8401">
        <ele>200.71</ele>
        <time>2020-06-27T15:23:10Z</time>
      </trkpt>
      <trkpt lat="48.39225" lon="-0.8401">
        <ele>200.71</ele>
        <time>2020-06-27T15:23:16Z</time>
      </trkpt>
      <trkpt lat="48.39225" lon="-0.8401">
        <ele>200.71</ele>
        <time>2020-06-27T15:23:21Z</time>
      </trkpt>
      <trkpt lat="48.39225" lon="-0.8401">
        <ele>200.71</ele>
        <time>2020-06-27T15:23:27Z</time>
      </trkpt>
      <trkpt lat="48.39225" lon="-0.8401">
        <ele>200.71</ele>
        <time>2020-06-27T15:23:33Z</time>
      </trkpt>
      <trkpt lat="48.39225" lon="-0.8401">
        <ele>200.71</ele>
        <time>2020-06-27T15:23:39Z</time>
      </trkpt>
      <trkpt lat="48.39225" lon="-0.8401">
        <ele>200.71</ele>
        <time>2020-06-27T15:23:45Z</time>
      </trkpt>
      <trkpt lat="48.39225" lon="-0.8401">
        <ele>200.71</ele>
        <time>2020-06-27T15:23:51Z</time>
      </trkpt>
      <trkpt lat="48.39225" lon="-0.8401">
        <ele>200.71</ele>
        <time>2020-06-27T15:23:57Z</time>
      </trkpt>
      <trkpt lat="48.39225" lon="-0.8401">
        <ele>200.71</ele>
        <time>2020-06-27T15:24:03Z</time>
      </trkpt>
      <trkpt lat="48.39225" lon="-0.8401">
        <ele>200.71</ele>
        <time>2020-06-27T15:24:08Z</time>
      </trkpt>
      <trkpt lat="48.39225" lon="-0.8401">
        <ele>200.71</ele>
        <time>2020-06-27T15:24:14Z</time>
      </trkpt>
      <trkpt lat="48.39225" lon="-0.8401">
        <ele>200.71</ele>
        <time>2020-06-27T15:24:20Z</time>
      </trkpt>
      <trkpt lat="48.39225" lon="-0.8401">
        <ele>200.71</ele>
        <time>2020-06-27T15:24:25Z</time>
      </trkpt>
      <trkpt lat="48.39225" lon="-0.8401">
        <ele>200.71</ele>
        <time>2020-06-27T15:24:31Z</time>
      </trkpt>
      <trkpt lat="48.39225" lon="-0.8401">
        <ele>200.71</ele>
        <time>2020-06-27T15:24:36Z</time>
      </trkpt>
      <trkpt lat="48.39225" lon="-0.8401">
        <ele>200.71</ele>
        <time>2020-06-27T15:24:42Z</time>
      </trkpt>
      <trkpt lat="48.39225" lon="-0.8401">
        <ele>200.71</ele>
        <time>2020-06-27T15:24:47Z</time>
      </trkpt>
      <trkpt lat="48.39225" lon="-0.8401">
        <ele>200.71</ele>
        <time>2020-06-27T15:24:53Z</time>
      </trkpt>
      <trkpt lat="48.39225" lon="-0.8401">
        <ele>200.71</ele>
        <time>2020-06-27T15:24:59Z</time>
      </trkpt>
      <trkpt lat="48.39225" lon="-0.8401">
        <ele>200.71</ele>
        <time>2020-06-27T15:25:05Z</time>
      </trkpt>
      <trkpt lat="48.39225" lon="-0.8401">
        <ele>200.71</ele>
        <time>2020-06-27T15:25:11Z</time>
      </trkpt>
      <trkpt lat="48.39225" lon="-0.8401">
        <ele>200.71</ele>
        <time>2020-06-27T15:25:17Z</time>
      </trkpt>
      <trkpt lat="48.39225" lon="-0.8401">
        <ele>200.71</ele>
        <time>2020-06-27T15:25:22Z</time>
      </trkpt>
      <trkpt lat="48.39225" lon="-0.8401">
        <ele>200.71</ele>
        <time>2020-06-27T15:25:27Z</time>
      </trkpt>
      <trkpt lat="48.39225" lon="-0.84009">
        <ele>200.71</ele>
        <time>2020-06-27T15:25:33Z</time>
      </trkpt>
      <trkpt lat="48.39225" lon="-0.84009">
        <ele>200.71</ele>
        <time>2020-06-27T15:25:39Z</time>
      </trkpt>
      <trkpt lat="48.39225" lon="-0.84009">
        <ele>202.71</ele>
        <time>2020-06-27T15:25:45Z</time>
      </trkpt>
      <trkpt lat="48.39225" lon="-0.84009">
        <ele>203.71</ele>
        <time>2020-06-27T15:25:51Z</time>
      </trkpt>
      <trkpt lat="48.39225" lon="-0.84009">
        <ele>203.71</ele>
        <time>2020-06-27T15:25:57Z</time>
      </trkpt>
      <trkpt lat="48.39225" lon="-0.84009">
        <ele>203.71</ele>
        <time>2020-06-27T15:26:02Z</time>
      </trkpt>
      <trkpt lat="48.39225" lon="-0.84009">
        <ele>203.71</ele>
        <time>2020-06-27T15:26:08Z</time>
      </trkpt>
      <trkpt lat="48.39225" lon="-0.84009">
        <ele>203.71</ele>
        <time>2020-06-27T15:26:13Z</time>
      </trkpt>
      <trkpt lat="48.39225" lon="-0.84009">
        <ele>203.71</ele>
        <time>2020-06-27T15:26:19Z</time>
      </trkpt>
      <trkpt lat="48.39225" lon="-0.84009">
        <ele>203.71</ele>
        <time>2020-06-27T15:26:24Z</time>
      </trkpt>
      <trkpt lat="48.39225" lon="-0.84012">
        <ele>202.71</ele>
        <time>2020-06-27T15:26:29Z</time>
      </trkpt>
      <trkpt lat="48.39224" lon="-0.84014">
        <ele>201.71</ele>
        <time>2020-06-27T15:26:35Z</time>
      </trkpt>
      <trkpt lat="48.39224" lon="-0.84015">
        <ele>202.71</ele>
        <time>2020-06-27T15:26:41Z</time>
      </trkpt>
      <trkpt lat="48.39224" lon="-0.84015">
        <ele>202.71</ele>
        <time>2020-06-27T15:26:47Z</time>
      </trkpt>
      <trkpt lat="48.39224" lon="-0.84015">
        <ele>202.71</ele>
        <time>2020-06-27T15:26:53Z</time>
      </trkpt>
      <trkpt lat="48.39224" lon="-0.84015">
        <ele>202.71</ele>
        <time>2020-06-27T15:26:58Z</time>
      </trkpt>
      <trkpt lat="48.39224" lon="-0.84015">
        <ele>202.71</ele>
        <time>2020-06-27T15:27:04Z</time>
      </trkpt>
      <trkpt lat="48.39224" lon="-0.84015">
        <ele>202.71</ele>
        <time>2020-06-27T15:27:09Z</time>
      </trkpt>
      <trkpt lat="48.39224" lon="-0.84015">
        <ele>202.71</ele>
        <time>2020-06-27T15:27:14Z</time>
      </trkpt>
      <trkpt lat="48.39224" lon="-0.84015">
        <ele>202.71</ele>
        <time>2020-06-27T15:27:20Z</time>
      </trkpt>
      <trkpt lat="48.39224" lon="-0.84015">
        <ele>202.71</ele>
        <time>2020-06-27T15:27:26Z</time>
      </trkpt>
      <trkpt lat="48.39224" lon="-0.84015">
        <ele>202.71</ele>
        <time>2020-06-27T15:27:32Z</time>
      </trkpt>
      <trkpt lat="48.39224" lon="-0.84015">
        <ele>202.71</ele>
        <time>2020-06-27T15:27:37Z</time>
      </trkpt>
      <trkpt lat="48.39224" lon="-0.84015">
        <ele>202.71</ele>
        <time>2020-06-27T15:27:42Z</time>
      </trkpt>
      <trkpt lat="48.39224" lon="-0.84015">
        <ele>202.71</ele>
        <time>2020-06-27T15:27:48Z</time>
      </trkpt>
      <trkpt lat="48.39224" lon="-0.84014">
        <ele>202.71</ele>
        <time>2020-06-27T15:27:53Z</time>
      </trkpt>
      <trkpt lat="48.39224" lon="-0.84014">
        <ele>202.71</ele>
        <time>2020-06-27T15:27:59Z</time>
      </trkpt>
      <trkpt lat="48.39224" lon="-0.84014">
        <ele>202.71</ele>
        <time>2020-06-27T15:28:04Z</time>
      </trkpt>
      <trkpt lat="48.39224" lon="-0.84014">
        <ele>202.71</ele>
        <time>2020-06-27T15:28:10Z</time>
      </trkpt>
      <trkpt lat="48.39224" lon="-0.84014">
        <ele>202.71</ele>
        <time>2020-06-27T15:28:16Z</time>
      </trkpt>
      <trkpt lat="48.39224" lon="-0.84014">
        <ele>202.71</ele>
        <time>2020-06-27T15:28:22Z</time>
      </trkpt>
      <trkpt lat="48.39224" lon="-0.84014">
        <ele>202.71</ele>
        <time>2020-06-27T15:28:27Z</time>
      </trkpt>
      <trkpt lat="48.39224" lon="-0.84014">
        <ele>202.71</ele>
        <time>2020-06-27T15:28:32Z</time>
      </trkpt>
      <trkpt lat="48.39224" lon="-0.84014">
        <ele>202.71</ele>
        <time>2020-06-27T15:28:38Z</time>
      </trkpt>
      <trkpt lat="48.39224" lon="-0.84014">
        <ele>202.71</ele>
        <time>2020-06-27T15:28:44Z</time>
      </trkpt>
      <trkpt lat="48.39224" lon="-0.84014">
        <ele>202.71</ele>
        <time>2020-06-27T15:28:50Z</time>
      </trkpt>
      <trkpt lat="48.39224" lon="-0.84014">
        <ele>202.71</ele>
        <time>2020-06-27T15:28:56Z</time>
      </trkpt>
      <trkpt lat="48.39224" lon="-0.84014">
        <ele>202.71</ele>
        <time>2020-06-27T15:29:01Z</time>
      </trkpt>
      <trkpt lat="48.39224" lon="-0.84014">
        <ele>202.71</ele>
        <time>2020-06-27T15:29:06Z</time>
      </trkpt>
      <trkpt lat="48.39224" lon="-0.84014">
        <ele>202.71</ele>
        <time>2020-06-27T15:29:12Z</time>
      </trkpt>
      <trkpt lat="48.39224" lon="-0.84014">
        <ele>202.71</ele>
        <time>2020-06-27T15:29:18Z</time>
      </trkpt>
      <trkpt lat="48.39224" lon="-0.84016">
        <ele>200.71</ele>
        <time>2020-06-27T15:29:23Z</time>
      </trkpt>
      <trkpt lat="48.39223" lon="-0.84018">
        <ele>198.71</ele>
        <time>2020-06-27T15:29:29Z</time>
      </trkpt>
      <trkpt lat="48.39222" lon="-0.84022">
        <ele>197.71</ele>
        <time>2020-06-27T15:29:35Z</time>
      </trkpt>
      <trkpt lat="48.39224" lon="-0.84026">
        <ele>196.71</ele>
        <time>2020-06-27T15:29:40Z</time>
      </trkpt>
      <trkpt lat="48.39227" lon="-0.84032">
        <ele>195.71</ele>
        <time>2020-06-27T15:29:46Z</time>
      </trkpt>
      <trkpt lat="48.3923" lon="-0.84041">
        <ele>196.71</ele>
        <time>2020-06-27T15:29:52Z</time>
      </trkpt>
      <trkpt lat="48.39233" lon="-0.84049">
        <ele>194.71</ele>
        <time>2020-06-27T15:29:58Z</time>
      </trkpt>
      <trkpt lat="48.39237" lon="-0.84055">
        <ele>194.71</ele>
        <time>2020-06-27T15:30:04Z</time>
      </trkpt>
      <trkpt lat="48.39241" lon="-0.84059">
        <ele>195.71</ele>
        <time>2020-06-27T15:30:09Z</time>
      </trkpt>
      <trkpt lat="48.39243" lon="-0.84064">
        <ele>195.71</ele>
        <time>2020-06-27T15:30:14Z</time>
      </trkpt>
      <trkpt lat="48.39247" lon="-0.84071">
        <ele>197.71</ele>
        <time>2020-06-27T15:30:20Z</time>
      </trkpt>
      <trkpt lat="48.3925" lon="-0.8408">
        <ele>195.71</ele>
        <time>2020-06-27T15:30:26Z</time>
      </trkpt>
      <trkpt lat="48.39253" lon="-0.84086">
        <ele>194.71</ele>
        <time>2020-06-27T15:30:31Z</time>
      </trkpt>
      <trkpt lat="48.39256" lon="-0.84094">
        <ele>192.71</ele>
        <time>2020-06-27T15:30:37Z</time>
      </trkpt>
      <trkpt lat="48.3926" lon="-0.84101">
        <ele>191.71</ele>
        <time>2020-06-27T15:30:43Z</time>
      </trkpt>
      <trkpt lat="48.39263" lon="-0.84109">
        <ele>191.71</ele>
        <time>2020-06-27T15:30:49Z</time>
      </trkpt>
      <trkpt lat="48.39265" lon="-0.84117">
        <ele>192.71</ele>
        <time>2020-06-27T15:30:54Z</time>
      </trkpt>
      <trkpt lat="48.39268" lon="-0.84125">
        <ele>192.71</ele>
        <time>2020-06-27T15:31:00Z</time>
      </trkpt>
      <trkpt lat="48.39272" lon="-0.8413">
        <ele>192.71</ele>
        <time>2020-06-27T15:31:05Z</time>
      </trkpt>
      <trkpt lat="48.39277" lon="-0.84137">
        <ele>194.71</ele>
        <time>2020-06-27T15:31:11Z</time>
      </trkpt>
      <trkpt lat="48.39282" lon="-0.84143">
        <ele>194.71</ele>
        <time>2020-06-27T15:31:17Z</time>
      </trkpt>
      <trkpt lat="48.39287" lon="-0.8415">
        <ele>195.71</ele>
        <time>2020-06-27T15:31:23Z</time>
      </trkpt>
      <trkpt lat="48.39291" lon="-0.84157">
        <ele>194.71</ele>
        <time>2020-06-27T15:31:29Z</time>
      </trkpt>
      <trkpt lat="48.39292" lon="-0.84167">
        <ele>193.71</ele>
        <time>2020-06-27T15:31:35Z</time>
      </trkpt>
      <trkpt lat="48.39294" lon="-0.84177">
        <ele>193.71</ele>
        <time>2020-06-27T15:31:40Z</time>
      </trkpt>
      <trkpt lat="48.39299" lon="-0.84185">
        <ele>194.71</ele>
        <time>2020-06-27T15:31:46Z</time>
      </trkpt>
      <trkpt lat="48.39303" lon="-0.84192">
        <ele>193.71</ele>
        <time>2020-06-27T15:31:52Z</time>
      </trkpt>
      <trkpt lat="48.39305" lon="-0.842">
        <ele>192.71</ele>
        <time>2020-06-27T15:31:57Z</time>
      </trkpt>
      <trkpt lat="48.39308" lon="-0.84209">
        <ele>193.71</ele>
        <time>2020-06-27T15:32:03Z</time>
      </trkpt>
      <trkpt lat="48.39311" lon="-0.84215">
        <ele>195.71</ele>
        <time>2020-06-27T15:32:08Z</time>
      </trkpt>
      <trkpt lat="48.39314" lon="-0.84223">
        <ele>194.71</ele>
        <time>2020-06-27T15:32:13Z</time>
      </trkpt>
      <trkpt lat="48.39316" lon="-0.84229">
        <ele>194.71</ele>
        <time>2020-06-27T15:32:18Z</time>
      </trkpt>
      <trkpt lat="48.39318" lon="-0.84239">
        <ele>194.71</ele>
        <time>2020-06-27T15:32:24Z</time>
      </trkpt>
      <trkpt lat="48.39321" lon="-0.84248">
        <ele>194.71</ele>
        <time>2020-06-27T15:32:30Z</time>
      </trkpt>
      <trkpt lat="48.39323" lon="-0.84255">
        <ele>194.71</ele>
        <time>2020-06-27T15:32:35Z</time>
      </trkpt>
      <trkpt lat="48.39326" lon="-0.84265">
        <ele>194.71</ele>
        <time>2020-06-27T15:32:41Z</time>
      </trkpt>
      <trkpt lat="48.39328" lon="-0.84275">
        <ele>194.71</ele>
        <time>2020-06-27T15:32:47Z</time>
      </trkpt>
      <trkpt lat="48.39331" lon="-0.84285">
        <ele>192.71</ele>
        <time>2020-06-27T15:32:53Z</time>
      </trkpt>
      <trkpt lat="48.39334" lon="-0.84293">
        <ele>192.71</ele>
        <time>2020-06-27T15:32:59Z</time>
      </trkpt>
      <trkpt lat="48.39337" lon="-0.84303">
        <ele>191.71</ele>
        <time>2020-06-27T15:33:05Z</time>
      </trkpt>
      <trkpt lat="48.39339" lon="-0.8431">
        <ele>192.71</ele>
        <time>2020-06-27T15:33:10Z</time>
      </trkpt>
      <trkpt lat="48.39343" lon="-0.84319">
        <ele>192.71</ele>
        <time>2020-06-27T15:33:16Z</time>
      </trkpt>
      <trkpt lat="48.39346" lon="-0.84331">
        <ele>192.71</ele>
        <time>2020-06-27T15:33:22Z</time>
      </trkpt>
      <trkpt lat="48.39347" lon="-0.84341">
        <ele>192.71</ele>
        <time>2020-06-27T15:33:28Z</time>
      </trkpt>
      <trkpt lat="48.39349" lon="-0.8435">
        <ele>194.71</ele>
        <time>2020-06-27T15:33:34Z</time>
      </trkpt>
      <trkpt lat="48.39351" lon="-0.84359">
        <ele>194.71</ele>
        <time>2020-06-27T15:33:39Z</time>
      </trkpt>
      <trkpt lat="48.39356" lon="-0.84364">
        <ele>191.71</ele>
        <time>2020-06-27T15:33:45Z</time>
      </trkpt>
      <trkpt lat="48.39361" lon="-0.84365">
        <ele>192.71</ele>
        <time>2020-06-27T15:33:50Z</time>
      </trkpt>
      <trkpt lat="48.39365" lon="-0.84363">
        <ele>193.71</ele>
        <time>2020-06-27T15:33:56Z</time>
      </trkpt>
      <trkpt lat="48.39365" lon="-0.84362">
        <ele>193.71</ele>
        <time>2020-06-27T15:34:02Z</time>
      </trkpt>
      <trkpt lat="48.39361" lon="-0.84368">
        <ele>191.71</ele>
        <time>2020-06-27T15:34:07Z</time>
      </trkpt>
      <trkpt lat="48.39359" lon="-0.84377">
        <ele>191.71</ele>
        <time>2020-06-27T15:34:13Z</time>
      </trkpt>
      <trkpt lat="48.3936" lon="-0.84385">
        <ele>191.71</ele>
        <time>2020-06-27T15:34:18Z</time>
      </trkpt>
      <trkpt lat="48.39364" lon="-0.84393">
        <ele>191.71</ele>
        <time>2020-06-27T15:34:23Z</time>
      </trkpt>
      <trkpt lat="48.39368" lon="-0.844">
        <ele>191.71</ele>
        <time>2020-06-27T15:34:29Z</time>
      </trkpt>
      <trkpt lat="48.39373" lon="-0.84407">
        <ele>190.71</ele>
        <time>2020-06-27T15:34:35Z</time>
      </trkpt>
      <trkpt lat="48.39377" lon="-0.84412">
        <ele>189.71</ele>
        <time>2020-06-27T15:34:40Z</time>
      </trkpt>
      <trkpt lat="48.39382" lon="-0.8442">
        <ele>190.71</ele>
        <time>2020-06-27T15:34:46Z</time>
      </trkpt>
      <trkpt lat="48.39387" lon="-0.84426">
        <ele>189.71</ele>
        <time>2020-06-27T15:34:52Z</time>
      </trkpt>
      <trkpt lat="48.39393" lon="-0.84432">
        <ele>189.71</ele>
        <time>2020-06-27T15:34:58Z</time>
      </trkpt>
      <trkpt lat="48.39397" lon="-0.84437">
        <ele>189.71</ele>
        <time>2020-06-27T15:35:03Z</time>
      </trkpt>
      <trkpt lat="48.39402" lon="-0.84443">
        <ele>189.71</ele>
        <time>2020-06-27T15:35:08Z</time>
      </trkpt>
      <trkpt lat="48.39407" lon="-0.84451">
        <ele>191.71</ele>
        <time>2020-06-27T15:35:14Z</time>
      </trkpt>
      <trkpt lat="48.39412" lon="-0.84459">
        <ele>192.71</ele>
        <time>2020-06-27T15:35:20Z</time>
      </trkpt>
      <trkpt lat="48.39416" lon="-0.84466">
        <ele>192.71</ele>
        <time>2020-06-27T15:35:26Z</time>
      </trkpt>
      <trkpt lat="48.3942" lon="-0.8447">
        <ele>192.71</ele>
        <time>2020-06-27T15:35:31Z</time>
      </trkpt>
      <trkpt lat="48.39424" lon="-0.8448">
        <ele>191.71</ele>
        <time>2020-06-27T15:35:37Z</time>
      </trkpt>
      <trkpt lat="48.39427" lon="-0.84489">
        <ele>189.71</ele>
        <time>2020-06-27T15:35:43Z</time>
      </trkpt>
      <trkpt lat="48.3943" lon="-0.84497">
        <ele>189.71</ele>
        <time>2020-06-27T15:35:49Z</time>
      </trkpt>
      <trkpt lat="48.39432" lon="-0.84506">
        <ele>188.71</ele>
        <time>2020-06-27T15:35:55Z</time>
      </trkpt>
      <trkpt lat="48.39436" lon="-0.84514">
        <ele>188.71</ele>
        <time>2020-06-27T15:36:01Z</time>
      </trkpt>
      <trkpt lat="48.39439" lon="-0.84524">
        <ele>188.71</ele>
        <time>2020-06-27T15:36:07Z</time>
      </trkpt>
      <trkpt lat="48.39441" lon="-0.84531">
        <ele>188.71</ele>
        <time>2020-06-27T15:36:12Z</time>
      </trkpt>
      <trkpt lat="48.39444" lon="-0.84541">
        <ele>188.71</ele>
        <time>2020-06-27T15:36:18Z</time>
      </trkpt>
      <trkpt lat="48.39448" lon="-0.84548">
        <ele>188.71</ele>
        <time>2020-06-27T15:36:23Z</time>
      </trkpt>
      <trkpt lat="48.39452" lon="-0.84557">
        <ele>190.71</ele>
        <time>2020-06-27T15:36:29Z</time>
      </trkpt>
      <trkpt lat="48.39456" lon="-0.84567">
        <ele>191.71</ele>
        <time>2020-06-27T15:36:35Z</time>
      </trkpt>
      <trkpt lat="48.3946" lon="-0.84572">
        <ele>191.71</ele>
        <time>2020-06-27T15:36:40Z</time>
      </trkpt>
      <trkpt lat="48.39464" lon="-0.84582">
        <ele>192.71</ele>
        <time>2020-06-27T15:36:46Z</time>
      </trkpt>
      <trkpt lat="48.39469" lon="-0.8459">
        <ele>193.71</ele>
        <time>2020-06-27T15:36:52Z</time>
      </trkpt>
      <trkpt lat="48.39474" lon="-0.84594">
        <ele>188.71</ele>
        <time>2020-06-27T15:36:58Z</time>
      </trkpt>
      <trkpt lat="48.39477" lon="-0.846">
        <ele>187.71</ele>
        <time>2020-06-27T15:37:03Z</time>
      </trkpt>
      <trkpt lat="48.3948" lon="-0.84607">
        <ele>188.71</ele>
        <time>2020-06-27T15:37:08Z</time>
      </trkpt>
      <trkpt lat="48.39485" lon="-0.84614">
        <ele>189.71</ele>
        <time>2020-06-27T15:37:14Z</time>
      </trkpt>
      <trkpt lat="48.39489" lon="-0.84621">
        <ele>189.71</ele>
        <time>2020-06-27T15:37:20Z</time>
      </trkpt>
      <trkpt lat="48.39492" lon="-0.84629">
        <ele>189.71</ele>
        <time>2020-06-27T15:37:26Z</time>
      </trkpt>
      <trkpt lat="48.39496" lon="-0.84634">
        <ele>188.71</ele>
        <time>2020-06-27T15:37:31Z</time>
      </trkpt>
      <trkpt lat="48.395" lon="-0.8464">
        <ele>189.71</ele>
        <time>2020-06-27T15:37:36Z</time>
      </trkpt>
      <trkpt lat="48.39504" lon="-0.84647">
        <ele>189.71</ele>
        <time>2020-06-27T15:37:42Z</time>
      </trkpt>
      <trkpt lat="48.39508" lon="-0.84655">
        <ele>188.71</ele>
        <time>2020-06-27T15:37:48Z</time>
      </trkpt>
      <trkpt lat="48.39512" lon="-0.84662">
        <ele>188.71</ele>
        <time>2020-06-27T15:37:54Z</time>
      </trkpt>
      <trkpt lat="48.39516" lon="-0.8467">
        <ele>188.71</ele>
        <time>2020-06-27T15:38:00Z</time>
      </trkpt>
      <trkpt lat="48.3952" lon="-0.84676">
        <ele>188.71</ele>
        <time>2020-06-27T15:38:05Z</time>
      </trkpt>
      <trkpt lat="48.39524" lon="-0.84684">
        <ele>188.71</ele>
        <time>2020-06-27T15:38:11Z</time>
      </trkpt>
      <trkpt lat="48.39529" lon="-0.84691">
        <ele>189.71</ele>
        <time>2020-06-27T15:38:17Z</time>
      </trkpt>
      <trkpt lat="48.39534" lon="-0.84698">
        <ele>188.71</ele>
        <time>2020-06-27T15:38:23Z</time>
      </trkpt>
      <trkpt lat="48.39538" lon="-0.84705">
        <ele>189.71</ele>
        <time>2020-06-27T15:38:29Z</time>
      </trkpt>
      <trkpt lat="48.39541" lon="-0.84712">
        <ele>189.71</ele>
        <time>2020-06-27T15:38:34Z</time>
      </trkpt>
      <trkpt lat="48.39546" lon="-0.84718">
        <ele>190.71</ele>
        <time>2020-06-27T15:38:39Z</time>
      </trkpt>
      <trkpt lat="48.39551" lon="-0.84726">
        <ele>188.71</ele>
        <time>2020-06-27T15:38:45Z</time>
      </trkpt>
      <trkpt lat="48.39555" lon="-0.84732">
        <ele>188.71</ele>
        <time>2020-06-27T15:38:50Z</time>
      </trkpt>
      <trkpt lat="48.39559" lon="-0.84738">
        <ele>189.71</ele>
        <time>2020-06-27T15:38:55Z</time>
      </trkpt>
      <trkpt lat="48.39564" lon="-0.84747">
        <ele>189.71</ele>
        <time>2020-06-27T15:39:01Z</time>
      </trkpt>
      <trkpt lat="48.39568" lon="-0.84753">
        <ele>189.71</ele>
        <time>2020-06-27T15:39:06Z</time>
      </trkpt>
      <trkpt lat="48.39572" lon="-0.84759">
        <ele>189.71</ele>
        <time>2020-06-27T15:39:11Z</time>
      </trkpt>
      <trkpt lat="48.39577" lon="-0.84768">
        <ele>188.71</ele>
        <time>2020-06-27T15:39:17Z</time>
      </trkpt>
      <trkpt lat="48.3958" lon="-0.84773">
        <ele>188.71</ele>
        <time>2020-06-27T15:39:22Z</time>
      </trkpt>
      <trkpt lat="48.39585" lon="-0.84779">
        <ele>189.71</ele>
        <time>2020-06-27T15:39:28Z</time>
      </trkpt>
      <trkpt lat="48.3959" lon="-0.84785">
        <ele>188.71</ele>
        <time>2020-06-27T15:39:34Z</time>
      </trkpt>
      <trkpt lat="48.39595" lon="-0.84793">
        <ele>188.71</ele>
        <time>2020-06-27T15:39:40Z</time>
      </trkpt>
      <trkpt lat="48.39599" lon="-0.84801">
        <ele>187.71</ele>
        <time>2020-06-27T15:39:46Z</time>
      </trkpt>
      <trkpt lat="48.39603" lon="-0.84806">
        <ele>186.71</ele>
        <time>2020-06-27T15:39:51Z</time>
      </trkpt>
      <trkpt lat="48.39608" lon="-0.84812">
        <ele>185.71</ele>
        <time>2020-06-27T15:39:57Z</time>
      </trkpt>
      <trkpt lat="48.39613" lon="-0.84819">
        <ele>184.71</ele>
        <time>2020-06-27T15:40:03Z</time>
      </trkpt>
      <trkpt lat="48.39618" lon="-0.84824">
        <ele>183.71</ele>
        <time>2020-06-27T15:40:08Z</time>
      </trkpt>
      <trkpt lat="48.39623" lon="-0.84829">
        <ele>182.71</ele>
        <time>2020-06-27T15:40:14Z</time>
      </trkpt>
      <trkpt lat="48.39627" lon="-0.84834">
        <ele>182.71</ele>
        <time>2020-06-27T15:40:19Z</time>
      </trkpt>
      <trkpt lat="48.39632" lon="-0.84841">
        <ele>180.71</ele>
        <time>2020-06-27T15:40:25Z</time>
      </trkpt>
      <trkpt lat="48.39635" lon="-0.84849">
        <ele>182.71</ele>
        <time>2020-06-27T15:40:31Z</time>
      </trkpt>
      <trkpt lat="48.3964" lon="-0.84856">
        <ele>181.71</ele>
        <time>2020-06-27T15:40:37Z</time>
      </trkpt>
      <trkpt lat="48.39644" lon="-0.84864">
        <ele>183.71</ele>
        <time>2020-06-27T15:40:43Z</time>
      </trkpt>
      <trkpt lat="48.39647" lon="-0.8487">
        <ele>183.71</ele>
        <time>2020-06-27T15:40:48Z</time>
      </trkpt>
      <trkpt lat="48.3965" lon="-0.84879">
        <ele>184.71</ele>
        <time>2020-06-27T15:40:54Z</time>
      </trkpt>
      <trkpt lat="48.39653" lon="-0.84888">
        <ele>183.71</ele>
        <time>2020-06-27T15:41:00Z</time>
      </trkpt>
      <trkpt lat="48.39655" lon="-0.84896">
        <ele>182.71</ele>
        <time>2020-06-27T15:41:05Z</time>
      </trkpt>
      <trkpt lat="48.39657" lon="-0.84905">
        <ele>182.71</ele>
        <time>2020-06-27T15:41:11Z</time>
      </trkpt>
      <trkpt lat="48.39661" lon="-0.84914">
        <ele>183.71</ele>
        <time>2020-06-27T15:41:17Z</time>
      </trkpt>
      <trkpt lat="48.39665" lon="-0.84922">
        <ele>183.71</ele>
        <time>2020-06-27T15:41:23Z</time>
      </trkpt>
      <trkpt lat="48.39669" lon="-0.84931">
        <ele>183.71</ele>
        <time>2020-06-27T15:41:29Z</time>
      </trkpt>
      <trkpt lat="48.39673" lon="-0.84938">
        <ele>184.71</ele>
        <time>2020-06-27T15:41:34Z</time>
      </trkpt>
      <trkpt lat="48.39675" lon="-0.84946">
        <ele>183.71</ele>
        <time>2020-06-27T15:41:40Z</time>
      </trkpt>
      <trkpt lat="48.39678" lon="-0.84954">
        <ele>182.71</ele>
        <time>2020-06-27T15:41:46Z</time>
      </trkpt>
      <trkpt lat="48.39682" lon="-0.84961">
        <ele>182.71</ele>
        <time>2020-06-27T15:41:52Z</time>
      </trkpt>
      <trkpt lat="48.39685" lon="-0.84968">
        <ele>183.71</ele>
        <time>2020-06-27T15:41:57Z</time>
      </trkpt>
      <trkpt lat="48.39688" lon="-0.84974">
        <ele>184.71</ele>
        <time>2020-06-27T15:42:02Z</time>
      </trkpt>
      <trkpt lat="48.39692" lon="-0.84983">
        <ele>184.71</ele>
        <time>2020-06-27T15:42:08Z</time>
      </trkpt>
      <trkpt lat="48.39696" lon="-0.8499">
        <ele>184.71</ele>
        <time>2020-06-27T15:42:14Z</time>
      </trkpt>
      <trkpt lat="48.39699" lon="-0.84997">
        <ele>184.71</ele>
        <time>2020-06-27T15:42:19Z</time>
      </trkpt>
      <trkpt lat="48.39703" lon="-0.85006">
        <ele>185.71</ele>
        <time>2020-06-27T15:42:25Z</time>
      </trkpt>
      <trkpt lat="48.39706" lon="-0.85013">
        <ele>184.71</ele>
        <time>2020-06-27T15:42:30Z</time>
      </trkpt>
      <trkpt lat="48.3971" lon="-0.85022">
        <ele>186.71</ele>
        <time>2020-06-27T15:42:36Z</time>
      </trkpt>
      <trkpt lat="48.39712" lon="-0.85031">
        <ele>185.71</ele>
        <time>2020-06-27T15:42:42Z</time>
      </trkpt>
      <trkpt lat="48.39714" lon="-0.85041">
        <ele>186.71</ele>
        <time>2020-06-27T15:42:48Z</time>
      </trkpt>
      <trkpt lat="48.39716" lon="-0.85047">
        <ele>185.71</ele>
        <time>2020-06-27T15:42:53Z</time>
      </trkpt>
      <trkpt lat="48.39718" lon="-0.85055">
        <ele>185.71</ele>
        <time>2020-06-27T15:42:58Z</time>
      </trkpt>
      <trkpt lat="48.3972" lon="-0.85064">
        <ele>184.71</ele>
        <time>2020-06-27T15:43:04Z</time>
      </trkpt>
      <trkpt lat="48.39722" lon="-0.85072">
        <ele>185.71</ele>
        <time>2020-06-27T15:43:09Z</time>
      </trkpt>
      <trkpt lat="48.39726" lon="-0.85079">
        <ele>189.71</ele>
        <time>2020-06-27T15:43:15Z</time>
      </trkpt>
      <trkpt lat="48.39726" lon="-0.85083">
        <ele>188.71</ele>
        <time>2020-06-27T15:43:21Z</time>
      </trkpt>
      <trkpt lat="48.39728" lon="-0.8509">
        <ele>186.71</ele>
        <time>2020-06-27T15:43:27Z</time>
      </trkpt>
      <trkpt lat="48.39732" lon="-0.85098">
        <ele>185.71</ele>
        <time>2020-06-27T15:43:32Z</time>
      </trkpt>
      <trkpt lat="48.39733" lon="-0.85105">
        <ele>184.71</ele>
        <time>2020-06-27T15:43:37Z</time>
      </trkpt>
      <trkpt lat="48.39734" lon="-0.85113">
        <ele>184.71</ele>
        <time>2020-06-27T15:43:42Z</time>
      </trkpt>
      <trkpt lat="48.3974" lon="-0.85121">
        <ele>186.71</ele>
        <time>2020-06-27T15:43:48Z</time>
      </trkpt>
      <trkpt lat="48.39743" lon="-0.85128">
        <ele>187.71</ele>
        <time>2020-06-27T15:43:54Z</time>
      </trkpt>
      <trkpt lat="48.39745" lon="-0.85137">
        <ele>188.71</ele>
        <time>2020-06-27T15:43:59Z</time>
      </trkpt>
      <trkpt lat="48.39748" lon="-0.85146">
        <ele>187.71</ele>
        <time>2020-06-27T15:44:05Z</time>
      </trkpt>
      <trkpt lat="48.39751" lon="-0.85156">
        <ele>185.71</ele>
        <time>2020-06-27T15:44:11Z</time>
      </trkpt>
      <trkpt lat="48.39755" lon="-0.85165">
        <ele>187.71</ele>
        <time>2020-06-27T15:44:17Z</time>
      </trkpt>
      <trkpt lat="48.39758" lon="-0.85172">
        <ele>187.71</ele>
        <time>2020-06-27T15:44:22Z</time>
      </trkpt>
      <trkpt lat="48.39761" lon="-0.85179">
        <ele>187.71</ele>
        <time>2020-06-27T15:44:27Z</time>
      </trkpt>
      <trkpt lat="48.39763" lon="-0.85188">
        <ele>187.71</ele>
        <time>2020-06-27T15:44:32Z</time>
      </trkpt>
      <trkpt lat="48.39767" lon="-0.85195">
        <ele>188.71</ele>
        <time>2020-06-27T15:44:37Z</time>
      </trkpt>
      <trkpt lat="48.3977" lon="-0.85204">
        <ele>188.71</ele>
        <time>2020-06-27T15:44:43Z</time>
      </trkpt>
      <trkpt lat="48.39773" lon="-0.85211">
        <ele>187.71</ele>
        <time>2020-06-27T15:44:48Z</time>
      </trkpt>
      <trkpt lat="48.39776" lon="-0.85218">
        <ele>188.71</ele>
        <time>2020-06-27T15:44:53Z</time>
      </trkpt>
      <trkpt lat="48.39779" lon="-0.85224">
        <ele>189.71</ele>
        <time>2020-06-27T15:44:58Z</time>
      </trkpt>
      <trkpt lat="48.39784" lon="-0.85231">
        <ele>189.71</ele>
        <time>2020-06-27T15:45:04Z</time>
      </trkpt>
      <trkpt lat="48.39788" lon="-0.85236">
        <ele>189.71</ele>
        <time>2020-06-27T15:45:09Z</time>
      </trkpt>
      <trkpt lat="48.39794" lon="-0.85244">
        <ele>189.71</ele>
        <time>2020-06-27T15:45:15Z</time>
      </trkpt>
      <trkpt lat="48.39799" lon="-0.85248">
        <ele>189.71</ele>
        <time>2020-06-27T15:45:20Z</time>
      </trkpt>
      <trkpt lat="48.39805" lon="-0.85253">
        <ele>189.71</ele>
        <time>2020-06-27T15:45:26Z</time>
      </trkpt>
      <trkpt lat="48.39811" lon="-0.85258">
        <ele>189.71</ele>
        <time>2020-06-27T15:45:32Z</time>
      </trkpt>
      <trkpt lat="48.39816" lon="-0.85263">
        <ele>190.71</ele>
        <time>2020-06-27T15:45:37Z</time>
      </trkpt>
      <trkpt lat="48.39822" lon="-0.85268">
        <ele>191.71</ele>
        <time>2020-06-27T15:45:43Z</time>
      </trkpt>
      <trkpt lat="48.39828" lon="-0.85274">
        <ele>193.71</ele>
        <time>2020-06-27T15:45:49Z</time>
      </trkpt>
      <trkpt lat="48.39833" lon="-0.85279">
        <ele>193.71</ele>
        <time>2020-06-27T15:45:55Z</time>
      </trkpt>
      <trkpt lat="48.39839" lon="-0.85284">
        <ele>192.71</ele>
        <time>2020-06-27T15:46:01Z</time>
      </trkpt>
      <trkpt lat="48.39845" lon="-0.8529">
        <ele>193.71</ele>
        <time>2020-06-27T15:46:07Z</time>
      </trkpt>
      <trkpt lat="48.39851" lon="-0.85294">
        <ele>194.71</ele>
        <time>2020-06-27T15:46:12Z</time>
      </trkpt>
      <trkpt lat="48.39856" lon="-0.85298">
        <ele>194.71</ele>
        <time>2020-06-27T15:46:18Z</time>
      </trkpt>
      <trkpt lat="48.3986" lon="-0.85302">
        <ele>194.71</ele>
        <time>2020-06-27T15:46:23Z</time>
      </trkpt>
      <trkpt lat="48.39866" lon="-0.85309">
        <ele>194.71</ele>
        <time>2020-06-27T15:46:29Z</time>
      </trkpt>
      <trkpt lat="48.39872" lon="-0.85315">
        <ele>194.71</ele>
        <time>2020-06-27T15:46:35Z</time>
      </trkpt>
      <trkpt lat="48.39876" lon="-0.85319">
        <ele>194.71</ele>
        <time>2020-06-27T15:46:40Z</time>
      </trkpt>
      <trkpt lat="48.39882" lon="-0.85325">
        <ele>194.71</ele>
        <time>2020-06-27T15:46:46Z</time>
      </trkpt>
      <trkpt lat="48.39887" lon="-0.8533">
        <ele>195.71</ele>
        <time>2020-06-27T15:46:52Z</time>
      </trkpt>
      <trkpt lat="48.39892" lon="-0.85336">
        <ele>196.71</ele>
        <time>2020-06-27T15:46:58Z</time>
      </trkpt>
      <trkpt lat="48.39898" lon="-0.85343">
        <ele>197.71</ele>
        <time>2020-06-27T15:47:04Z</time>
      </trkpt>
      <trkpt lat="48.39903" lon="-0.85347">
        <ele>196.71</ele>
        <time>2020-06-27T15:47:09Z</time>
      </trkpt>
      <trkpt lat="48.39908" lon="-0.85353">
        <ele>196.71</ele>
        <time>2020-06-27T15:47:15Z</time>
      </trkpt>
      <trkpt lat="48.39912" lon="-0.85359">
        <ele>196.71</ele>
        <time>2020-06-27T15:47:20Z</time>
      </trkpt>
      <trkpt lat="48.39918" lon="-0.85365">
        <ele>196.71</ele>
        <time>2020-06-27T15:47:26Z</time>
      </trkpt>
      <trkpt lat="48.39922" lon="-0.85371">
        <ele>196.71</ele>
        <time>2020-06-27T15:47:31Z</time>
      </trkpt>
      <trkpt lat="48.39925" lon="-0.85378">
        <ele>196.71</ele>
        <time>2020-06-27T15:47:37Z</time>
      </trkpt>
      <trkpt lat="48.39926" lon="-0.85386">
        <ele>197.71</ele>
        <time>2020-06-27T15:47:42Z</time>
      </trkpt>
      <trkpt lat="48.39925" lon="-0.85393">
        <ele>197.71</ele>
        <time>2020-06-27T15:47:48Z</time>
      </trkpt>
      <trkpt lat="48.39923" lon="-0.85403">
        <ele>197.71</ele>
        <time>2020-06-27T15:47:54Z</time>
      </trkpt>
      <trkpt lat="48.39921" lon="-0.8541">
        <ele>198.71</ele>
        <time>2020-06-27T15:47:59Z</time>
      </trkpt>
      <trkpt lat="48.39919" lon="-0.85417">
        <ele>197.71</ele>
        <time>2020-06-27T15:48:04Z</time>
      </trkpt>
      <trkpt lat="48.39917" lon="-0.85425">
        <ele>198.71</ele>
        <time>2020-06-27T15:48:10Z</time>
      </trkpt>
      <trkpt lat="48.39915" lon="-0.85432">
        <ele>198.71</ele>
        <time>2020-06-27T15:48:15Z</time>
      </trkpt>
      <trkpt lat="48.39913" lon="-0.85441">
        <ele>199.71</ele>
        <time>2020-06-27T15:48:21Z</time>
      </trkpt>
      <trkpt lat="48.39911" lon="-0.8545">
        <ele>199.71</ele>
        <time>2020-06-27T15:48:27Z</time>
      </trkpt>
      <trkpt lat="48.39909" lon="-0.85459">
        <ele>199.71</ele>
        <time>2020-06-27T15:48:33Z</time>
      </trkpt>
      <trkpt lat="48.39907" lon="-0.85466">
        <ele>198.71</ele>
        <time>2020-06-27T15:48:38Z</time>
      </trkpt>
      <trkpt lat="48.39904" lon="-0.85475">
        <ele>198.71</ele>
        <time>2020-06-27T15:48:44Z</time>
      </trkpt>
      <trkpt lat="48.39902" lon="-0.85484">
        <ele>199.71</ele>
        <time>2020-06-27T15:48:50Z</time>
      </trkpt>
      <trkpt lat="48.399" lon="-0.85492">
        <ele>200.71</ele>
        <time>2020-06-27T15:48:55Z</time>
      </trkpt>
      <trkpt lat="48.39898" lon="-0.85502">
        <ele>199.71</ele>
        <time>2020-06-27T15:49:01Z</time>
      </trkpt>
      <trkpt lat="48.39896" lon="-0.8551">
        <ele>199.71</ele>
        <time>2020-06-27T15:49:06Z</time>
      </trkpt>
      <trkpt lat="48.39892" lon="-0.8552">
        <ele>199.71</ele>
        <time>2020-06-27T15:49:12Z</time>
      </trkpt>
      <trkpt lat="48.39891" lon="-0.85526">
        <ele>200.71</ele>
        <time>2020-06-27T15:49:17Z</time>
      </trkpt>
      <trkpt lat="48.39889" lon="-0.85535">
        <ele>201.71</ele>
        <time>2020-06-27T15:49:22Z</time>
      </trkpt>
      <trkpt lat="48.39886" lon="-0.85544">
        <ele>200.71</ele>
        <time>2020-06-27T15:49:28Z</time>
      </trkpt>
      <trkpt lat="48.39884" lon="-0.85553">
        <ele>201.71</ele>
        <time>2020-06-27T15:49:34Z</time>
      </trkpt>
      <trkpt lat="48.39882" lon="-0.85561">
        <ele>200.71</ele>
        <time>2020-06-27T15:49:39Z</time>
      </trkpt>
      <trkpt lat="48.3988" lon="-0.85569">
        <ele>201.71</ele>
        <time>2020-06-27T15:49:45Z</time>
      </trkpt>
      <trkpt lat="48.39876" lon="-0.85579">
        <ele>201.71</ele>
        <time>2020-06-27T15:49:50Z</time>
      </trkpt>
      <trkpt lat="48.39874" lon="-0.85588">
        <ele>201.71</ele>
        <time>2020-06-27T15:49:56Z</time>
      </trkpt>
      <trkpt lat="48.3987" lon="-0.85598">
        <ele>201.71</ele>
        <time>2020-06-27T15:50:02Z</time>
      </trkpt>
      <trkpt lat="48.39868" lon="-0.85608">
        <ele>200.71</ele>
        <time>2020-06-27T15:50:08Z</time>
      </trkpt>
      <trkpt lat="48.39864" lon="-0.85616">
        <ele>200.71</ele>
        <time>2020-06-27T15:50:14Z</time>
      </trkpt>
      <trkpt lat="48.39862" lon="-0.85625">
        <ele>201.71</ele>
        <time>2020-06-27T15:50:19Z</time>
      </trkpt>
      <trkpt lat="48.39863" lon="-0.85634">
        <ele>204.71</ele>
        <time>2020-06-27T15:50:25Z</time>
      </trkpt>
      <trkpt lat="48.39863" lon="-0.85642">
        <ele>204.71</ele>
        <time>2020-06-27T15:50:30Z</time>
      </trkpt>
      <trkpt lat="48.39861" lon="-0.85652">
        <ele>205.71</ele>
        <time>2020-06-27T15:50:36Z</time>
      </trkpt>
      <trkpt lat="48.39861" lon="-0.8566">
        <ele>205.71</ele>
        <time>2020-06-27T15:50:41Z</time>
      </trkpt>
      <trkpt lat="48.3986" lon="-0.85671">
        <ele>206.71</ele>
        <time>2020-06-27T15:50:47Z</time>
      </trkpt>
      <trkpt lat="48.39859" lon="-0.8568">
        <ele>206.71</ele>
        <time>2020-06-27T15:50:53Z</time>
      </trkpt>
      <trkpt lat="48.39859" lon="-0.8569">
        <ele>206.71</ele>
        <time>2020-06-27T15:50:59Z</time>
      </trkpt>
      <trkpt lat="48.39858" lon="-0.85698">
        <ele>206.71</ele>
        <time>2020-06-27T15:51:04Z</time>
      </trkpt>
      <trkpt lat="48.39857" lon="-0.85708">
        <ele>207.71</ele>
        <time>2020-06-27T15:51:10Z</time>
      </trkpt>
      <trkpt lat="48.39856" lon="-0.85716">
        <ele>207.71</ele>
        <time>2020-06-27T15:51:15Z</time>
      </trkpt>
      <trkpt lat="48.39855" lon="-0.85726">
        <ele>207.71</ele>
        <time>2020-06-27T15:51:21Z</time>
      </trkpt>
      <trkpt lat="48.39854" lon="-0.85736">
        <ele>206.71</ele>
        <time>2020-06-27T15:51:27Z</time>
      </trkpt>
      <trkpt lat="48.39854" lon="-0.85744">
        <ele>207.71</ele>
        <time>2020-06-27T15:51:32Z</time>
      </trkpt>
      <trkpt lat="48.39852" lon="-0.85754">
        <ele>207.71</ele>
        <time>2020-06-27T15:51:38Z</time>
      </trkpt>
      <trkpt lat="48.39852" lon="-0.85764">
        <ele>206.71</ele>
        <time>2020-06-27T15:51:44Z</time>
      </trkpt>
      <trkpt lat="48.39851" lon="-0.85773">
        <ele>206.71</ele>
        <time>2020-06-27T15:51:50Z</time>
      </trkpt>
      <trkpt lat="48.39851" lon="-0.85782">
        <ele>206.71</ele>
        <time>2020-06-27T15:51:55Z</time>
      </trkpt>
      <trkpt lat="48.3985" lon="-0.8579">
        <ele>206.71</ele>
        <time>2020-06-27T15:52:00Z</time>
      </trkpt>
      <trkpt lat="48.39848" lon="-0.858">
        <ele>206.71</ele>
        <time>2020-06-27T15:52:06Z</time>
      </trkpt>
      <trkpt lat="48.39847" lon="-0.85807">
        <ele>206.71</ele>
        <time>2020-06-27T15:52:11Z</time>
      </trkpt>
      <trkpt lat="48.39846" lon="-0.85816">
        <ele>206.71</ele>
        <time>2020-06-27T15:52:16Z</time>
      </trkpt>
      <trkpt lat="48.39843" lon="-0.85826">
        <ele>206.71</ele>
        <time>2020-06-27T15:52:22Z</time>
      </trkpt>
      <trkpt lat="48.39841" lon="-0.85836">
        <ele>205.71</ele>
        <time>2020-06-27T15:52:28Z</time>
      </trkpt>
      <trkpt lat="48.3984" lon="-0.85846">
        <ele>206.71</ele>
        <time>2020-06-27T15:52:34Z</time>
      </trkpt>
      <trkpt lat="48.39839" lon="-0.85856">
        <ele>206.71</ele>
        <time>2020-06-27T15:52:40Z</time>
      </trkpt>
      <trkpt lat="48.39837" lon="-0.85863">
        <ele>206.71</ele>
        <time>2020-06-27T15:52:45Z</time>
      </trkpt>
      <trkpt lat="48.39835" lon="-0.85871">
        <ele>206.71</ele>
        <time>2020-06-27T15:52:50Z</time>
      </trkpt>
      <trkpt lat="48.39831" lon="-0.8588">
        <ele>206.71</ele>
        <time>2020-06-27T15:52:56Z</time>
      </trkpt>
      <trkpt lat="48.39827" lon="-0.85887">
        <ele>205.71</ele>
        <time>2020-06-27T15:53:01Z</time>
      </trkpt>
      <trkpt lat="48.39822" lon="-0.85894">
        <ele>205.71</ele>
        <time>2020-06-27T15:53:07Z</time>
      </trkpt>
      <trkpt lat="48.39816" lon="-0.85899">
        <ele>205.71</ele>
        <time>2020-06-27T15:53:13Z</time>
      </trkpt>
      <trkpt lat="48.39811" lon="-0.85903">
        <ele>205.71</ele>
        <time>2020-06-27T15:53:18Z</time>
      </trkpt>
      <trkpt lat="48.39807" lon="-0.85908">
        <ele>204.71</ele>
        <time>2020-06-27T15:53:23Z</time>
      </trkpt>
      <trkpt lat="48.39802" lon="-0.85911">
        <ele>204.71</ele>
        <time>2020-06-27T15:53:28Z</time>
      </trkpt>
      <trkpt lat="48.39797" lon="-0.85915">
        <ele>203.71</ele>
        <time>2020-06-27T15:53:34Z</time>
      </trkpt>
      <trkpt lat="48.39791" lon="-0.85921">
        <ele>203.71</ele>
        <time>2020-06-27T15:53:40Z</time>
      </trkpt>
      <trkpt lat="48.39787" lon="-0.85924">
        <ele>202.71</ele>
        <time>2020-06-27T15:53:45Z</time>
      </trkpt>
      <trkpt lat="48.39781" lon="-0.8593">
        <ele>202.71</ele>
        <time>2020-06-27T15:53:51Z</time>
      </trkpt>
      <trkpt lat="48.39777" lon="-0.85935">
        <ele>201.71</ele>
        <time>2020-06-27T15:53:57Z</time>
      </trkpt>
      <trkpt lat="48.39771" lon="-0.85939">
        <ele>201.71</ele>
        <time>2020-06-27T15:54:02Z</time>
      </trkpt>
      <trkpt lat="48.39765" lon="-0.85945">
        <ele>200.71</ele>
        <time>2020-06-27T15:54:08Z</time>
      </trkpt>
      <trkpt lat="48.3976" lon="-0.85951">
        <ele>200.71</ele>
        <time>2020-06-27T15:54:14Z</time>
      </trkpt>
      <trkpt lat="48.39755" lon="-0.85957">
        <ele>200.71</ele>
        <time>2020-06-27T15:54:20Z</time>
      </trkpt>
      <trkpt lat="48.3975" lon="-0.85965">
        <ele>199.71</ele>
        <time>2020-06-27T15:54:26Z</time>
      </trkpt>
      <trkpt lat="48.39747" lon="-0.85973">
        <ele>198.71</ele>
        <time>2020-06-27T15:54:32Z</time>
      </trkpt>
      <trkpt lat="48.39745" lon="-0.85979">
        <ele>196.71</ele>
        <time>2020-06-27T15:54:37Z</time>
      </trkpt>
      <trkpt lat="48.39742" lon="-0.8599">
        <ele>197.71</ele>
        <time>2020-06-27T15:54:43Z</time>
      </trkpt>
      <trkpt lat="48.39741" lon="-0.86">
        <ele>197.71</ele>
        <time>2020-06-27T15:54:49Z</time>
      </trkpt>
      <trkpt lat="48.39739" lon="-0.86006">
        <ele>197.71</ele>
        <time>2020-06-27T15:54:54Z</time>
      </trkpt>
      <trkpt lat="48.39739" lon="-0.86016">
        <ele>199.71</ele>
        <time>2020-06-27T15:55:00Z</time>
      </trkpt>
      <trkpt lat="48.3974" lon="-0.86025">
        <ele>200.71</ele>
        <time>2020-06-27T15:55:06Z</time>
      </trkpt>
      <trkpt lat="48.39738" lon="-0.86035">
        <ele>200.71</ele>
        <time>2020-06-27T15:55:12Z</time>
      </trkpt>
      <trkpt lat="48.39741" lon="-0.86043">
        <ele>201.71</ele>
        <time>2020-06-27T15:55:17Z</time>
      </trkpt>
      <trkpt lat="48.39741" lon="-0.86052">
        <ele>202.71</ele>
        <time>2020-06-27T15:55:23Z</time>
      </trkpt>
      <trkpt lat="48.3974" lon="-0.86061">
        <ele>201.71</ele>
        <time>2020-06-27T15:55:28Z</time>
      </trkpt>
      <trkpt lat="48.39739" lon="-0.86071">
        <ele>201.71</ele>
        <time>2020-06-27T15:55:34Z</time>
      </trkpt>
      <trkpt lat="48.39735" lon="-0.86081">
        <ele>199.71</ele>
        <time>2020-06-27T15:55:40Z</time>
      </trkpt>
      <trkpt lat="48.39733" lon="-0.8609">
        <ele>198.71</ele>
        <time>2020-06-27T15:55:45Z</time>
      </trkpt>
      <trkpt lat="48.39731" lon="-0.86099">
        <ele>198.71</ele>
        <time>2020-06-27T15:55:51Z</time>
      </trkpt>
      <trkpt lat="48.3973" lon="-0.86108">
        <ele>198.71</ele>
        <time>2020-06-27T15:55:56Z</time>
      </trkpt>
      <trkpt lat="48.39728" lon="-0.86117">
        <ele>198.71</ele>
        <time>2020-06-27T15:56:02Z</time>
      </trkpt>
      <trkpt lat="48.39727" lon="-0.86125">
        <ele>198.71</ele>
        <time>2020-06-27T15:56:08Z</time>
      </trkpt>
      <trkpt lat="48.39726" lon="-0.86135">
        <ele>200.71</ele>
        <time>2020-06-27T15:56:14Z</time>
      </trkpt>
      <trkpt lat="48.39725" lon="-0.86142">
        <ele>200.71</ele>
        <time>2020-06-27T15:56:19Z</time>
      </trkpt>
      <trkpt lat="48.39724" lon="-0.86152">
        <ele>201.71</ele>
        <time>2020-06-27T15:56:25Z</time>
      </trkpt>
      <trkpt lat="48.39721" lon="-0.86161">
        <ele>199.71</ele>
        <time>2020-06-27T15:56:31Z</time>
      </trkpt>
      <trkpt lat="48.39721" lon="-0.86168">
        <ele>198.71</ele>
        <time>2020-06-27T15:56:36Z</time>
      </trkpt>
      <trkpt lat="48.39719" lon="-0.86177">
        <ele>197.71</ele>
        <time>2020-06-27T15:56:42Z</time>
      </trkpt>
      <trkpt lat="48.39717" lon="-0.86186">
        <ele>195.71</ele>
        <time>2020-06-27T15:56:47Z</time>
      </trkpt>
      <trkpt lat="48.39714" lon="-0.86196">
        <ele>195.71</ele>
        <time>2020-06-27T15:56:53Z</time>
      </trkpt>
      <trkpt lat="48.39712" lon="-0.86203">
        <ele>195.71</ele>
        <time>2020-06-27T15:56:58Z</time>
      </trkpt>
      <trkpt lat="48.3971" lon="-0.86212">
        <ele>194.71</ele>
        <time>2020-06-27T15:57:04Z</time>
      </trkpt>
      <trkpt lat="48.39709" lon="-0.86222">
        <ele>195.71</ele>
        <time>2020-06-27T15:57:10Z</time>
      </trkpt>
      <trkpt lat="48.39709" lon="-0.86232">
        <ele>196.71</ele>
        <time>2020-06-27T15:57:15Z</time>
      </trkpt>
      <trkpt lat="48.39707" lon="-0.86242">
        <ele>195.71</ele>
        <time>2020-06-27T15:57:21Z</time>
      </trkpt>
      <trkpt lat="48.39704" lon="-0.8625">
        <ele>194.71</ele>
        <time>2020-06-27T15:57:26Z</time>
      </trkpt>
      <trkpt lat="48.39702" lon="-0.86259">
        <ele>194.71</ele>
        <time>2020-06-27T15:57:32Z</time>
      </trkpt>
      <trkpt lat="48.39701" lon="-0.86269">
        <ele>193.71</ele>
        <time>2020-06-27T15:57:38Z</time>
      </trkpt>
      <trkpt lat="48.397" lon="-0.8628">
        <ele>194.71</ele>
        <time>2020-06-27T15:57:44Z</time>
      </trkpt>
      <trkpt lat="48.39697" lon="-0.8629">
        <ele>194.71</ele>
        <time>2020-06-27T15:57:50Z</time>
      </trkpt>
      <trkpt lat="48.39696" lon="-0.86297">
        <ele>194.71</ele>
        <time>2020-06-27T15:57:55Z</time>
      </trkpt>
      <trkpt lat="48.39694" lon="-0.86305">
        <ele>194.71</ele>
        <time>2020-06-27T15:58:00Z</time>
      </trkpt>
      <trkpt lat="48.39691" lon="-0.86314">
        <ele>193.71</ele>
        <time>2020-06-27T15:58:06Z</time>
      </trkpt>
      <trkpt lat="48.39689" lon="-0.86323">
        <ele>193.71</ele>
        <time>2020-06-27T15:58:12Z</time>
      </trkpt>
      <trkpt lat="48.39687" lon="-0.86333">
        <ele>192.71</ele>
        <time>2020-06-27T15:58:18Z</time>
      </trkpt>
      <trkpt lat="48.39683" lon="-0.86341">
        <ele>192.71</ele>
        <time>2020-06-27T15:58:23Z</time>
      </trkpt>
      <trkpt lat="48.39682" lon="-0.86349">
        <ele>194.71</ele>
        <time>2020-06-27T15:58:29Z</time>
      </trkpt>
      <trkpt lat="48.39682" lon="-0.86354">
        <ele>195.71</ele>
        <time>2020-06-27T15:58:35Z</time>
      </trkpt>
      <trkpt lat="48.39679" lon="-0.86364">
        <ele>194.71</ele>
        <time>2020-06-27T15:58:42Z</time>
      </trkpt>
      <trkpt lat="48.39676" lon="-0.86375">
        <ele>192.71</ele>
        <time>2020-06-27T15:58:47Z</time>
      </trkpt>
      <trkpt lat="48.39674" lon="-0.86384">
        <ele>191.71</ele>
        <time>2020-06-27T15:58:52Z</time>
      </trkpt>
      <trkpt lat="48.39672" lon="-0.86391">
        <ele>190.71</ele>
        <time>2020-06-27T15:58:57Z</time>
      </trkpt>
      <trkpt lat="48.3967" lon="-0.86401">
        <ele>190.71</ele>
        <time>2020-06-27T15:59:03Z</time>
      </trkpt>
      <trkpt lat="48.39669" lon="-0.8641">
        <ele>191.71</ele>
        <time>2020-06-27T15:59:08Z</time>
      </trkpt>
      <trkpt lat="48.39668" lon="-0.8642">
        <ele>191.71</ele>
        <time>2020-06-27T15:59:14Z</time>
      </trkpt>
      <trkpt lat="48.39666" lon="-0.86427">
        <ele>193.71</ele>
        <time>2020-06-27T15:59:19Z</time>
      </trkpt>
      <trkpt lat="48.39663" lon="-0.86437">
        <ele>193.71</ele>
        <time>2020-06-27T15:59:25Z</time>
      </trkpt>
      <trkpt lat="48.39661" lon="-0.86447">
        <ele>193.71</ele>
        <time>2020-06-27T15:59:31Z</time>
      </trkpt>
      <trkpt lat="48.39659" lon="-0.86455">
        <ele>193.71</ele>
        <time>2020-06-27T15:59:36Z</time>
      </trkpt>
      <trkpt lat="48.39659" lon="-0.86465">
        <ele>195.71</ele>
        <time>2020-06-27T15:59:42Z</time>
      </trkpt>
      <trkpt lat="48.39658" lon="-0.86475">
        <ele>195.71</ele>
        <time>2020-06-27T15:59:48Z</time>
      </trkpt>
      <trkpt lat="48.39655" lon="-0.86485">
        <ele>195.71</ele>
        <time>2020-06-27T15:59:54Z</time>
      </trkpt>
      <trkpt lat="48.39655" lon="-0.86493">
        <ele>195.71</ele>
        <time>2020-06-27T15:59:59Z</time>
      </trkpt>
      <trkpt lat="48.39652" lon="-0.86502">
        <ele>195.71</ele>
        <time>2020-06-27T16:00:05Z</time>
      </trkpt>
      <trkpt lat="48.39651" lon="-0.86509">
        <ele>195.71</ele>
        <time>2020-06-27T16:00:10Z</time>
      </trkpt>
      <trkpt lat="48.39648" lon="-0.86518">
        <ele>193.71</ele>
        <time>2020-06-27T16:00:16Z</time>
      </trkpt>
      <trkpt lat="48.39648" lon="-0.86526">
        <ele>194.71</ele>
        <time>2020-06-27T16:00:21Z</time>
      </trkpt>
      <trkpt lat="48.39645" lon="-0.86536">
        <ele>194.71</ele>
        <time>2020-06-27T16:00:27Z</time>
      </trkpt>
      <trkpt lat="48.39644" lon="-0.86544">
        <ele>195.71</ele>
        <time>2020-06-27T16:00:32Z</time>
      </trkpt>
      <trkpt lat="48.39643" lon="-0.86553">
        <ele>196.71</ele>
        <time>2020-06-27T16:00:37Z</time>
      </trkpt>
      <trkpt lat="48.39641" lon="-0.86562">
        <ele>196.71</ele>
        <time>2020-06-27T16:00:43Z</time>
      </trkpt>
      <trkpt lat="48.3964" lon="-0.8657">
        <ele>196.71</ele>
        <time>2020-06-27T16:00:48Z</time>
      </trkpt>
      <trkpt lat="48.39642" lon="-0.86577">
        <ele>196.71</ele>
        <time>2020-06-27T16:00:53Z</time>
      </trkpt>
      <trkpt lat="48.39642" lon="-0.86587">
        <ele>195.71</ele>
        <time>2020-06-27T16:00:59Z</time>
      </trkpt>
      <trkpt lat="48.39642" lon="-0.86596">
        <ele>195.71</ele>
        <time>2020-06-27T16:01:04Z</time>
      </trkpt>
      <trkpt lat="48.39643" lon="-0.86606">
        <ele>196.71</ele>
        <time>2020-06-27T16:01:10Z</time>
      </trkpt>
      <trkpt lat="48.39646" lon="-0.86614">
        <ele>196.71</ele>
        <time>2020-06-27T16:01:16Z</time>
      </trkpt>
      <trkpt lat="48.39646" lon="-0.86623">
        <ele>196.71</ele>
        <time>2020-06-27T16:01:21Z</time>
      </trkpt>
      <trkpt lat="48.39648" lon="-0.86631">
        <ele>196.71</ele>
        <time>2020-06-27T16:01:26Z</time>
      </trkpt>
      <trkpt lat="48.39651" lon="-0.86641">
        <ele>196.71</ele>
        <time>2020-06-27T16:01:32Z</time>
      </trkpt>
      <trkpt lat="48.39653" lon="-0.86648">
        <ele>197.71</ele>
        <time>2020-06-27T16:01:37Z</time>
      </trkpt>
      <trkpt lat="48.39654" lon="-0.86655">
        <ele>197.71</ele>
        <time>2020-06-27T16:01:42Z</time>
      </trkpt>
      <trkpt lat="48.39655" lon="-0.86662">
        <ele>194.71</ele>
        <time>2020-06-27T16:01:47Z</time>
      </trkpt>
      <trkpt lat="48.39658" lon="-0.86671">
        <ele>195.71</ele>
        <time>2020-06-27T16:01:53Z</time>
      </trkpt>
      <trkpt lat="48.39659" lon="-0.86679">
        <ele>195.71</ele>
        <time>2020-06-27T16:01:58Z</time>
      </trkpt>
      <trkpt lat="48.39661" lon="-0.86686">
        <ele>193.71</ele>
        <time>2020-06-27T16:02:03Z</time>
      </trkpt>
      <trkpt lat="48.39664" lon="-0.86693">
        <ele>193.71</ele>
        <time>2020-06-27T16:02:08Z</time>
      </trkpt>
      <trkpt lat="48.39669" lon="-0.86702">
        <ele>194.71</ele>
        <time>2020-06-27T16:02:14Z</time>
      </trkpt>
      <trkpt lat="48.39671" lon="-0.86709">
        <ele>195.71</ele>
        <time>2020-06-27T16:02:19Z</time>
      </trkpt>
      <trkpt lat="48.39673" lon="-0.86716">
        <ele>195.71</ele>
        <time>2020-06-27T16:02:24Z</time>
      </trkpt>
      <trkpt lat="48.39675" lon="-0.86725">
        <ele>197.71</ele>
        <time>2020-06-27T16:02:30Z</time>
      </trkpt>
      <trkpt lat="48.39676" lon="-0.86733">
        <ele>196.71</ele>
        <time>2020-06-27T16:02:35Z</time>
      </trkpt>
      <trkpt lat="48.39676" lon="-0.86737">
        <ele>195.71</ele>
        <time>2020-06-27T16:02:40Z</time>
      </trkpt>
      <trkpt lat="48.39675" lon="-0.86737">
        <ele>195.71</ele>
        <time>2020-06-27T16:02:46Z</time>
      </trkpt>
      <trkpt lat="48.39675" lon="-0.86737">
        <ele>195.71</ele>
        <time>2020-06-27T16:02:52Z</time>
      </trkpt>
      <trkpt lat="48.39674" lon="-0.86742">
        <ele>196.71</ele>
        <time>2020-06-27T16:02:58Z</time>
      </trkpt>
      <trkpt lat="48.3967" lon="-0.86749">
        <ele>196.71</ele>
        <time>2020-06-27T16:03:04Z</time>
      </trkpt>
      <trkpt lat="48.39668" lon="-0.8675">
        <ele>196.71</ele>
        <time>2020-06-27T16:03:09Z</time>
      </trkpt>
      <trkpt lat="48.39668" lon="-0.8675">
        <ele>196.71</ele>
        <time>2020-06-27T16:03:15Z</time>
      </trkpt>
      <trkpt lat="48.39668" lon="-0.86751">
        <ele>196.71</ele>
        <time>2020-06-27T16:03:21Z</time>
      </trkpt>
      <trkpt lat="48.39669" lon="-0.8675">
        <ele>196.71</ele>
        <time>2020-06-27T16:03:27Z</time>
      </trkpt>
      <trkpt lat="48.39669" lon="-0.8675">
        <ele>196.71</ele>
        <time>2020-06-27T16:03:33Z</time>
      </trkpt>
      <trkpt lat="48.39669" lon="-0.8675">
        <ele>196.71</ele>
        <time>2020-06-27T16:03:39Z</time>
      </trkpt>
      <trkpt lat="48.39669" lon="-0.8675">
        <ele>196.71</ele>
        <time>2020-06-27T16:03:44Z</time>
      </trkpt>
      <trkpt lat="48.39669" lon="-0.8675">
        <ele>196.71</ele>
        <time>2020-06-27T16:03:49Z</time>
      </trkpt>
      <trkpt lat="48.39669" lon="-0.8675">
        <ele>196.71</ele>
        <time>2020-06-27T16:03:58Z</time>
      </trkpt>
      <trkpt lat="48.39664" lon="-0.86757">
        <ele>196.71</ele>
        <time>2020-06-27T16:04:08Z</time>
      </trkpt>
      <trkpt lat="48.39662" lon="-0.86764">
        <ele>197.71</ele>
        <time>2020-06-27T16:04:14Z</time>
      </trkpt>
      <trkpt lat="48.39658" lon="-0.86768">
        <ele>198.71</ele>
        <time>2020-06-27T16:04:19Z</time>
      </trkpt>
      <trkpt lat="48.39655" lon="-0.86775">
        <ele>199.71</ele>
        <time>2020-06-27T16:04:24Z</time>
      </trkpt>
      <trkpt lat="48.39651" lon="-0.86782">
        <ele>201.71</ele>
        <time>2020-06-27T16:04:30Z</time>
      </trkpt>
      <trkpt lat="48.39646" lon="-0.86788">
        <ele>201.71</ele>
        <time>2020-06-27T16:04:36Z</time>
      </trkpt>
      <trkpt lat="48.39643" lon="-0.86794">
        <ele>201.71</ele>
        <time>2020-06-27T16:04:41Z</time>
      </trkpt>
      <trkpt lat="48.39637" lon="-0.86798">
        <ele>203.71</ele>
        <time>2020-06-27T16:04:47Z</time>
      </trkpt>
      <trkpt lat="48.39633" lon="-0.86804">
        <ele>203.71</ele>
        <time>2020-06-27T16:04:53Z</time>
      </trkpt>
      <trkpt lat="48.39631" lon="-0.86808">
        <ele>206.71</ele>
        <time>2020-06-27T16:04:58Z</time>
      </trkpt>
      <trkpt lat="48.39627" lon="-0.86812">
        <ele>207.71</ele>
        <time>2020-06-27T16:05:03Z</time>
      </trkpt>
      <trkpt lat="48.39622" lon="-0.86819">
        <ele>205.71</ele>
        <time>2020-06-27T16:05:09Z</time>
      </trkpt>
      <trkpt lat="48.39618" lon="-0.86826">
        <ele>206.71</ele>
        <time>2020-06-27T16:05:15Z</time>
      </trkpt>
      <trkpt lat="48.39613" lon="-0.8683">
        <ele>205.71</ele>
        <time>2020-06-27T16:05:20Z</time>
      </trkpt>
      <trkpt lat="48.39607" lon="-0.86836">
        <ele>205.71</ele>
        <time>2020-06-27T16:05:26Z</time>
      </trkpt>
      <trkpt lat="48.39602" lon="-0.86841">
        <ele>205.71</ele>
        <time>2020-06-27T16:05:32Z</time>
      </trkpt>
      <trkpt lat="48.39596" lon="-0.86847">
        <ele>205.71</ele>
        <time>2020-06-27T16:05:38Z</time>
      </trkpt>
      <trkpt lat="48.39592" lon="-0.86852">
        <ele>204.71</ele>
        <time>2020-06-27T16:05:43Z</time>
      </trkpt>
      <trkpt lat="48.39586" lon="-0.86859">
        <ele>204.71</ele>
        <time>2020-06-27T16:05:49Z</time>
      </trkpt>
      <trkpt lat="48.39581" lon="-0.86865">
        <ele>203.71</ele>
        <time>2020-06-27T16:05:55Z</time>
      </trkpt>
      <trkpt lat="48.39576" lon="-0.86871">
        <ele>203.71</ele>
        <time>2020-06-27T16:06:01Z</time>
      </trkpt>
      <trkpt lat="48.39572" lon="-0.86876">
        <ele>203.71</ele>
        <time>2020-06-27T16:06:06Z</time>
      </trkpt>
      <trkpt lat="48.39567" lon="-0.86881">
        <ele>202.71</ele>
        <time>2020-06-27T16:06:11Z</time>
      </trkpt>
      <trkpt lat="48.39562" lon="-0.86885">
        <ele>201.71</ele>
        <time>2020-06-27T16:06:17Z</time>
      </trkpt>
      <trkpt lat="48.39557" lon="-0.86891">
        <ele>203.71</ele>
        <time>2020-06-27T16:06:23Z</time>
      </trkpt>
      <trkpt lat="48.39552" lon="-0.86896">
        <ele>205.71</ele>
        <time>2020-06-27T16:06:29Z</time>
      </trkpt>
      <trkpt lat="48.39548" lon="-0.86899">
        <ele>205.71</ele>
        <time>2020-06-27T16:06:34Z</time>
      </trkpt>
      <trkpt lat="48.39543" lon="-0.86903">
        <ele>204.71</ele>
        <time>2020-06-27T16:06:39Z</time>
      </trkpt>
      <trkpt lat="48.3954" lon="-0.86905">
        <ele>204.71</ele>
        <time>2020-06-27T16:06:44Z</time>
      </trkpt>
      <trkpt lat="48.39542" lon="-0.86907">
        <ele>205.71</ele>
        <time>2020-06-27T16:06:50Z</time>
      </trkpt>
      <trkpt lat="48.39543" lon="-0.86907">
        <ele>206.71</ele>
        <time>2020-06-27T16:06:56Z</time>
      </trkpt>
      <trkpt lat="48.39546" lon="-0.86912">
        <ele>205.71</ele>
        <time>2020-06-27T16:07:02Z</time>
      </trkpt>
      <trkpt lat="48.39549" lon="-0.86917">
        <ele>206.71</ele>
        <time>2020-06-27T16:07:08Z</time>
      </trkpt>
      <trkpt lat="48.39552" lon="-0.86922">
        <ele>207.71</ele>
        <time>2020-06-27T16:07:13Z</time>
      </trkpt>
      <trkpt lat="48.39555" lon="-0.86926">
        <ele>208.71</ele>
        <time>2020-06-27T16:07:18Z</time>
      </trkpt>
      <trkpt lat="48.39559" lon="-0.86935">
        <ele>208.71</ele>
        <time>2020-06-27T16:07:24Z</time>
      </trkpt>
      <trkpt lat="48.39562" lon="-0.86941">
        <ele>207.71</ele>
        <time>2020-06-27T16:07:30Z</time>
      </trkpt>
      <trkpt lat="48.39566" lon="-0.86946">
        <ele>210.71</ele>
        <time>2020-06-27T16:07:35Z</time>
      </trkpt>
      <trkpt lat="48.39568" lon="-0.86955">
        <ele>209.71</ele>
        <time>2020-06-27T16:07:41Z</time>
      </trkpt>
      <trkpt lat="48.39569" lon="-0.86957">
        <ele>209.71</ele>
        <time>2020-06-27T16:07:47Z</time>
      </trkpt>
      <trkpt lat="48.39571" lon="-0.86962">
        <ele>210.71</ele>
        <time>2020-06-27T16:07:53Z</time>
      </trkpt>
      <trkpt lat="48.39573" lon="-0.86967">
        <ele>209.71</ele>
        <time>2020-06-27T16:07:59Z</time>
      </trkpt>
      <trkpt lat="48.39577" lon="-0.86976">
        <ele>211.71</ele>
        <time>2020-06-27T16:08:05Z</time>
      </trkpt>
      <trkpt lat="48.39579" lon="-0.86985">
        <ele>210.71</ele>
        <time>2020-06-27T16:08:10Z</time>
      </trkpt>
      <trkpt lat="48.39584" lon="-0.86995">
        <ele>210.71</ele>
        <time>2020-06-27T16:08:16Z</time>
      </trkpt>
      <trkpt lat="48.39588" lon="-0.87003">
        <ele>212.71</ele>
        <time>2020-06-27T16:08:22Z</time>
      </trkpt>
      <trkpt lat="48.39593" lon="-0.8701">
        <ele>215.71</ele>
        <time>2020-06-27T16:08:28Z</time>
      </trkpt>
      <trkpt lat="48.39596" lon="-0.87015">
        <ele>212.71</ele>
        <time>2020-06-27T16:08:33Z</time>
      </trkpt>
      <trkpt lat="48.39597" lon="-0.87021">
        <ele>211.71</ele>
        <time>2020-06-27T16:08:38Z</time>
      </trkpt>
      <trkpt lat="48.39601" lon="-0.87028">
        <ele>212.71</ele>
        <time>2020-06-27T16:08:44Z</time>
      </trkpt>
      <trkpt lat="48.39605" lon="-0.87039">
        <ele>212.71</ele>
        <time>2020-06-27T16:08:49Z</time>
      </trkpt>
      <trkpt lat="48.39608" lon="-0.87045">
        <ele>213.71</ele>
        <time>2020-06-27T16:08:55Z</time>
      </trkpt>
      <trkpt lat="48.3961" lon="-0.8705">
        <ele>215.71</ele>
        <time>2020-06-27T16:09:01Z</time>
      </trkpt>
      <trkpt lat="48.39611" lon="-0.87056">
        <ele>216.71</ele>
        <time>2020-06-27T16:09:07Z</time>
      </trkpt>
      <trkpt lat="48.39614" lon="-0.87062">
        <ele>216.71</ele>
        <time>2020-06-27T16:09:12Z</time>
      </trkpt>
      <trkpt lat="48.39618" lon="-0.87072">
        <ele>219.71</ele>
        <time>2020-06-27T16:09:18Z</time>
      </trkpt>
      <trkpt lat="48.39622" lon="-0.87083">
        <ele>216.71</ele>
        <time>2020-06-27T16:09:24Z</time>
      </trkpt>
      <trkpt lat="48.39624" lon="-0.87091">
        <ele>216.71</ele>
        <time>2020-06-27T16:09:30Z</time>
      </trkpt>
      <trkpt lat="48.39626" lon="-0.87097">
        <ele>217.71</ele>
        <time>2020-06-27T16:09:35Z</time>
      </trkpt>
      <trkpt lat="48.39631" lon="-0.87106">
        <ele>218.71</ele>
        <time>2020-06-27T16:09:41Z</time>
      </trkpt>
      <trkpt lat="48.39636" lon="-0.87115">
        <ele>220.71</ele>
        <time>2020-06-27T16:09:47Z</time>
      </trkpt>
      <trkpt lat="48.3964" lon="-0.87122">
        <ele>221.71</ele>
        <time>2020-06-27T16:09:53Z</time>
      </trkpt>
      <trkpt lat="48.39644" lon="-0.87127">
        <ele>222.71</ele>
        <time>2020-06-27T16:09:58Z</time>
      </trkpt>
      <trkpt lat="48.39645" lon="-0.87133">
        <ele>222.71</ele>
        <time>2020-06-27T16:10:04Z</time>
      </trkpt>
      <trkpt lat="48.39646" lon="-0.87135">
        <ele>221.71</ele>
        <time>2020-06-27T16:10:10Z</time>
      </trkpt>
      <trkpt lat="48.39648" lon="-0.87138">
        <ele>221.71</ele>
        <time>2020-06-27T16:10:16Z</time>
      </trkpt>
      <trkpt lat="48.39651" lon="-0.87142">
        <ele>221.71</ele>
        <time>2020-06-27T16:10:21Z</time>
      </trkpt>
      <trkpt lat="48.39654" lon="-0.87148">
        <ele>221.71</ele>
        <time>2020-06-27T16:10:27Z</time>
      </trkpt>
      <trkpt lat="48.39656" lon="-0.87153">
        <ele>221.71</ele>
        <time>2020-06-27T16:10:33Z</time>
      </trkpt>
      <trkpt lat="48.39658" lon="-0.87167">
        <ele>220.71</ele>
        <time>2020-06-27T16:10:39Z</time>
      </trkpt>
      <trkpt lat="48.3966" lon="-0.87173">
        <ele>219.71</ele>
        <time>2020-06-27T16:10:44Z</time>
      </trkpt>
      <trkpt lat="48.39661" lon="-0.87177">
        <ele>218.71</ele>
        <time>2020-06-27T16:10:50Z</time>
      </trkpt>
      <trkpt lat="48.39663" lon="-0.87186">
        <ele>218.71</ele>
        <time>2020-06-27T16:10:55Z</time>
      </trkpt>
      <trkpt lat="48.39667" lon="-0.87197">
        <ele>217.71</ele>
        <time>2020-06-27T16:11:01Z</time>
      </trkpt>
      <trkpt lat="48.39668" lon="-0.87206">
        <ele>218.71</ele>
        <time>2020-06-27T16:11:06Z</time>
      </trkpt>
      <trkpt lat="48.3967" lon="-0.87213">
        <ele>218.71</ele>
        <time>2020-06-27T16:11:11Z</time>
      </trkpt>
      <trkpt lat="48.39672" lon="-0.87223">
        <ele>217.71</ele>
        <time>2020-06-27T16:11:17Z</time>
      </trkpt>
      <trkpt lat="48.39676" lon="-0.87234">
        <ele>216.71</ele>
        <time>2020-06-27T16:11:26Z</time>
      </trkpt>
      <trkpt lat="48.3968" lon="-0.87244">
        <ele>217.71</ele>
        <time>2020-06-27T16:11:31Z</time>
      </trkpt>
      <trkpt lat="48.39681" lon="-0.87245">
        <ele>217.71</ele>
        <time>2020-06-27T16:11:36Z</time>
      </trkpt>
      <trkpt lat="48.39684" lon="-0.87253">
        <ele>216.71</ele>
        <time>2020-06-27T16:11:41Z</time>
      </trkpt>
      <trkpt lat="48.39686" lon="-0.87258">
        <ele>218.71</ele>
        <time>2020-06-27T16:11:46Z</time>
      </trkpt>
      <trkpt lat="48.39686" lon="-0.87264">
        <ele>217.71</ele>
        <time>2020-06-27T16:11:52Z</time>
      </trkpt>
      <trkpt lat="48.39691" lon="-0.87278">
        <ele>215.71</ele>
        <time>2020-06-27T16:11:58Z</time>
      </trkpt>
      <trkpt lat="48.39696" lon="-0.87288">
        <ele>215.71</ele>
        <time>2020-06-27T16:12:03Z</time>
      </trkpt>
      <trkpt lat="48.39699" lon="-0.87297">
        <ele>210.71</ele>
        <time>2020-06-27T16:12:09Z</time>
      </trkpt>
      <trkpt lat="48.39703" lon="-0.87303">
        <ele>211.71</ele>
        <time>2020-06-27T16:12:14Z</time>
      </trkpt>
      <trkpt lat="48.39707" lon="-0.87312">
        <ele>213.71</ele>
        <time>2020-06-27T16:12:20Z</time>
      </trkpt>
      <trkpt lat="48.39713" lon="-0.87318">
        <ele>215.71</ele>
        <time>2020-06-27T16:12:26Z</time>
      </trkpt>
      <trkpt lat="48.39718" lon="-0.87327">
        <ele>216.71</ele>
        <time>2020-06-27T16:12:32Z</time>
      </trkpt>
      <trkpt lat="48.39721" lon="-0.87338">
        <ele>212.71</ele>
        <time>2020-06-27T16:12:38Z</time>
      </trkpt>
      <trkpt lat="48.39726" lon="-0.87346">
        <ele>211.71</ele>
        <time>2020-06-27T16:12:44Z</time>
      </trkpt>
      <trkpt lat="48.3973" lon="-0.87351">
        <ele>212.71</ele>
        <time>2020-06-27T16:12:50Z</time>
      </trkpt>
      <trkpt lat="48.3973" lon="-0.8735">
        <ele>212.71</ele>
        <time>2020-06-27T16:12:56Z</time>
      </trkpt>
      <trkpt lat="48.3973" lon="-0.8735">
        <ele>212.71</ele>
        <time>2020-06-27T16:13:01Z</time>
      </trkpt>
      <trkpt lat="48.39732" lon="-0.87353">
        <ele>211.71</ele>
        <time>2020-06-27T16:13:07Z</time>
      </trkpt>
      <trkpt lat="48.39732" lon="-0.87355">
        <ele>211.71</ele>
        <time>2020-06-27T16:13:13Z</time>
      </trkpt>
      <trkpt lat="48.39734" lon="-0.87357">
        <ele>211.71</ele>
        <time>2020-06-27T16:13:19Z</time>
      </trkpt>
      <trkpt lat="48.39734" lon="-0.87365">
        <ele>212.71</ele>
        <time>2020-06-27T16:13:25Z</time>
      </trkpt>
      <trkpt lat="48.39732" lon="-0.87368">
        <ele>213.71</ele>
        <time>2020-06-27T16:13:31Z</time>
      </trkpt>
      <trkpt lat="48.39731" lon="-0.8737">
        <ele>212.71</ele>
        <time>2020-06-27T16:13:36Z</time>
      </trkpt>
      <trkpt lat="48.39728" lon="-0.87371">
        <ele>212.71</ele>
        <time>2020-06-27T16:13:42Z</time>
      </trkpt>
      <trkpt lat="48.39726" lon="-0.87372">
        <ele>214.71</ele>
        <time>2020-06-27T16:13:52Z</time>
      </trkpt>
      <trkpt lat="48.39717" lon="-0.87377">
        <ele>213.71</ele>
        <time>2020-06-27T16:13:58Z</time>
      </trkpt>
      <trkpt lat="48.39712" lon="-0.8738">
        <ele>213.71</ele>
        <time>2020-06-27T16:14:03Z</time>
      </trkpt>
      <trkpt lat="48.39705" lon="-0.87383">
        <ele>211.71</ele>
        <time>2020-06-27T16:14:09Z</time>
      </trkpt>
      <trkpt lat="48.39702" lon="-0.87385">
        <ele>212.71</ele>
        <time>2020-06-27T16:14:14Z</time>
      </trkpt>
      <trkpt lat="48.39697" lon="-0.87387">
        <ele>213.71</ele>
        <time>2020-06-27T16:14:19Z</time>
      </trkpt>
      <trkpt lat="48.39693" lon="-0.8739">
        <ele>214.71</ele>
        <time>2020-06-27T16:14:24Z</time>
      </trkpt>
      <trkpt lat="48.39688" lon="-0.87394">
        <ele>214.71</ele>
        <time>2020-06-27T16:14:29Z</time>
      </trkpt>
      <trkpt lat="48.39683" lon="-0.87397">
        <ele>214.71</ele>
        <time>2020-06-27T16:14:35Z</time>
      </trkpt>
      <trkpt lat="48.39678" lon="-0.87402">
        <ele>213.71</ele>
        <time>2020-06-27T16:14:40Z</time>
      </trkpt>
      <trkpt lat="48.39673" lon="-0.87408">
        <ele>215.71</ele>
        <time>2020-06-27T16:14:46Z</time>
      </trkpt>
      <trkpt lat="48.39668" lon="-0.87412">
        <ele>215.71</ele>
        <time>2020-06-27T16:14:52Z</time>
      </trkpt>
      <trkpt lat="48.39664" lon="-0.87418">
        <ele>217.71</ele>
        <time>2020-06-27T16:14:58Z</time>
      </trkpt>
      <trkpt lat="48.39659" lon="-0.87425">
        <ele>219.71</ele>
        <time>2020-06-27T16:15:04Z</time>
      </trkpt>
      <trkpt lat="48.39653" lon="-0.87428">
        <ele>218.71</ele>
        <time>2020-06-27T16:15:10Z</time>
      </trkpt>
      <trkpt lat="48.39647" lon="-0.87434">
        <ele>218.71</ele>
        <time>2020-06-27T16:15:16Z</time>
      </trkpt>
      <trkpt lat="48.39642" lon="-0.87439">
        <ele>218.71</ele>
        <time>2020-06-27T16:15:22Z</time>
      </trkpt>
      <trkpt lat="48.39637" lon="-0.87445">
        <ele>217.71</ele>
        <time>2020-06-27T16:15:28Z</time>
      </trkpt>
      <trkpt lat="48.39631" lon="-0.8745">
        <ele>217.71</ele>
        <time>2020-06-27T16:15:34Z</time>
      </trkpt>
      <trkpt lat="48.39626" lon="-0.87455">
        <ele>216.71</ele>
        <time>2020-06-27T16:15:39Z</time>
      </trkpt>
      <trkpt lat="48.39621" lon="-0.87461">
        <ele>218.71</ele>
        <time>2020-06-27T16:15:46Z</time>
      </trkpt>
      <trkpt lat="48.39614" lon="-0.87467">
        <ele>216.71</ele>
        <time>2020-06-27T16:15:52Z</time>
      </trkpt>
      <trkpt lat="48.39608" lon="-0.87471">
        <ele>217.71</ele>
        <time>2020-06-27T16:15:58Z</time>
      </trkpt>
      <trkpt lat="48.39602" lon="-0.87475">
        <ele>217.71</ele>
        <time>2020-06-27T16:16:03Z</time>
      </trkpt>
      <trkpt lat="48.39597" lon="-0.87477">
        <ele>219.71</ele>
        <time>2020-06-27T16:16:09Z</time>
      </trkpt>
      <trkpt lat="48.39591" lon="-0.8748">
        <ele>218.71</ele>
        <time>2020-06-27T16:16:15Z</time>
      </trkpt>
      <trkpt lat="48.39587" lon="-0.87483">
        <ele>219.71</ele>
        <time>2020-06-27T16:16:20Z</time>
      </trkpt>
      <trkpt lat="48.39581" lon="-0.87487">
        <ele>219.71</ele>
        <time>2020-06-27T16:16:26Z</time>
      </trkpt>
      <trkpt lat="48.39576" lon="-0.8749">
        <ele>221.71</ele>
        <time>2020-06-27T16:16:32Z</time>
      </trkpt>
      <trkpt lat="48.39568" lon="-0.87494">
        <ele>220.71</ele>
        <time>2020-06-27T16:16:38Z</time>
      </trkpt>
      <trkpt lat="48.39562" lon="-0.87496">
        <ele>219.71</ele>
        <time>2020-06-27T16:16:43Z</time>
      </trkpt>
      <trkpt lat="48.39554" lon="-0.87496">
        <ele>217.71</ele>
        <time>2020-06-27T16:16:49Z</time>
      </trkpt>
      <trkpt lat="48.39549" lon="-0.87493">
        <ele>218.71</ele>
        <time>2020-06-27T16:16:55Z</time>
      </trkpt>
      <trkpt lat="48.39541" lon="-0.87489">
        <ele>217.71</ele>
        <time>2020-06-27T16:17:02Z</time>
      </trkpt>
      <trkpt lat="48.39536" lon="-0.87487">
        <ele>217.71</ele>
        <time>2020-06-27T16:17:07Z</time>
      </trkpt>
      <trkpt lat="48.39531" lon="-0.87486">
        <ele>218.71</ele>
        <time>2020-06-27T16:17:13Z</time>
      </trkpt>
      <trkpt lat="48.39525" lon="-0.87485">
        <ele>219.71</ele>
        <time>2020-06-27T16:17:18Z</time>
      </trkpt>
      <trkpt lat="48.39519" lon="-0.87482">
        <ele>217.71</ele>
        <time>2020-06-27T16:17:24Z</time>
      </trkpt>
      <trkpt lat="48.39513" lon="-0.87479">
        <ele>217.71</ele>
        <time>2020-06-27T16:17:30Z</time>
      </trkpt>
      <trkpt lat="48.39508" lon="-0.87476">
        <ele>217.71</ele>
        <time>2020-06-27T16:17:35Z</time>
      </trkpt>
      <trkpt lat="48.39502" lon="-0.87473">
        <ele>218.71</ele>
        <time>2020-06-27T16:17:41Z</time>
      </trkpt>
      <trkpt lat="48.39496" lon="-0.8747">
        <ele>221.71</ele>
        <time>2020-06-27T16:17:47Z</time>
      </trkpt>
      <trkpt lat="48.3949" lon="-0.87469">
        <ele>220.71</ele>
        <time>2020-06-27T16:17:52Z</time>
      </trkpt>
      <trkpt lat="48.39484" lon="-0.87469">
        <ele>220.71</ele>
        <time>2020-06-27T16:17:57Z</time>
      </trkpt>
      <trkpt lat="48.39477" lon="-0.87471">
        <ele>220.71</ele>
        <time>2020-06-27T16:18:02Z</time>
      </trkpt>
      <trkpt lat="48.39472" lon="-0.87471">
        <ele>219.71</ele>
        <time>2020-06-27T16:18:07Z</time>
      </trkpt>
      <trkpt lat="48.39467" lon="-0.87472">
        <ele>219.71</ele>
        <time>2020-06-27T16:18:13Z</time>
      </trkpt>
      <trkpt lat="48.3946" lon="-0.87473">
        <ele>218.71</ele>
        <time>2020-06-27T16:18:18Z</time>
      </trkpt>
      <trkpt lat="48.39453" lon="-0.87474">
        <ele>215.71</ele>
        <time>2020-06-27T16:18:24Z</time>
      </trkpt>
      <trkpt lat="48.39447" lon="-0.87474">
        <ele>215.71</ele>
        <time>2020-06-27T16:18:29Z</time>
      </trkpt>
      <trkpt lat="48.39443" lon="-0.87471">
        <ele>217.71</ele>
        <time>2020-06-27T16:18:34Z</time>
      </trkpt>
      <trkpt lat="48.39435" lon="-0.8747">
        <ele>217.71</ele>
        <time>2020-06-27T16:18:40Z</time>
      </trkpt>
      <trkpt lat="48.3943" lon="-0.87468">
        <ele>218.71</ele>
        <time>2020-06-27T16:18:45Z</time>
      </trkpt>
      <trkpt lat="48.39423" lon="-0.87469">
        <ele>217.71</ele>
        <time>2020-06-27T16:18:51Z</time>
      </trkpt>
      <trkpt lat="48.39416" lon="-0.8747">
        <ele>215.71</ele>
        <time>2020-06-27T16:18:57Z</time>
      </trkpt>
      <trkpt lat="48.39411" lon="-0.87469">
        <ele>214.71</ele>
        <time>2020-06-27T16:19:02Z</time>
      </trkpt>
      <trkpt lat="48.39406" lon="-0.87472">
        <ele>217.71</ele>
        <time>2020-06-27T16:19:07Z</time>
      </trkpt>
      <trkpt lat="48.39399" lon="-0.87473">
        <ele>218.71</ele>
        <time>2020-06-27T16:19:13Z</time>
      </trkpt>
      <trkpt lat="48.39395" lon="-0.87477">
        <ele>218.71</ele>
        <time>2020-06-27T16:19:19Z</time>
      </trkpt>
      <trkpt lat="48.39391" lon="-0.87482">
        <ele>217.71</ele>
        <time>2020-06-27T16:19:24Z</time>
      </trkpt>
      <trkpt lat="48.39387" lon="-0.87486">
        <ele>215.71</ele>
        <time>2020-06-27T16:19:29Z</time>
      </trkpt>
      <trkpt lat="48.39381" lon="-0.87491">
        <ele>215.71</ele>
        <time>2020-06-27T16:19:35Z</time>
      </trkpt>
      <trkpt lat="48.39377" lon="-0.87493">
        <ele>215.71</ele>
        <time>2020-06-27T16:19:40Z</time>
      </trkpt>
      <trkpt lat="48.39372" lon="-0.87496">
        <ele>217.71</ele>
        <time>2020-06-27T16:19:46Z</time>
      </trkpt>
      <trkpt lat="48.39368" lon="-0.87498">
        <ele>216.71</ele>
        <time>2020-06-27T16:19:51Z</time>
      </trkpt>
      <trkpt lat="48.39361" lon="-0.87501">
        <ele>216.71</ele>
        <time>2020-06-27T16:19:57Z</time>
      </trkpt>
      <trkpt lat="48.39356" lon="-0.87504">
        <ele>216.71</ele>
        <time>2020-06-27T16:20:02Z</time>
      </trkpt>
      <trkpt lat="48.39351" lon="-0.8751">
        <ele>214.71</ele>
        <time>2020-06-27T16:20:08Z</time>
      </trkpt>
      <trkpt lat="48.39345" lon="-0.87516">
        <ele>215.71</ele>
        <time>2020-06-27T16:20:14Z</time>
      </trkpt>
      <trkpt lat="48.39339" lon="-0.8752">
        <ele>216.71</ele>
        <time>2020-06-27T16:20:20Z</time>
      </trkpt>
      <trkpt lat="48.39335" lon="-0.87522">
        <ele>216.71</ele>
        <time>2020-06-27T16:20:25Z</time>
      </trkpt>
      <trkpt lat="48.39329" lon="-0.87523">
        <ele>214.71</ele>
        <time>2020-06-27T16:20:31Z</time>
      </trkpt>
      <trkpt lat="48.39323" lon="-0.87526">
        <ele>212.71</ele>
        <time>2020-06-27T16:20:36Z</time>
      </trkpt>
      <trkpt lat="48.39317" lon="-0.8753">
        <ele>211.71</ele>
        <time>2020-06-27T16:20:42Z</time>
      </trkpt>
      <trkpt lat="48.39313" lon="-0.87534">
        <ele>212.71</ele>
        <time>2020-06-27T16:20:48Z</time>
      </trkpt>
      <trkpt lat="48.39308" lon="-0.87537">
        <ele>211.71</ele>
        <time>2020-06-27T16:20:53Z</time>
      </trkpt>
      <trkpt lat="48.39302" lon="-0.87543">
        <ele>211.71</ele>
        <time>2020-06-27T16:20:59Z</time>
      </trkpt>
      <trkpt lat="48.39301" lon="-0.87546">
        <ele>212.71</ele>
        <time>2020-06-27T16:21:04Z</time>
      </trkpt>
      <trkpt lat="48.39297" lon="-0.8755">
        <ele>213.71</ele>
        <time>2020-06-27T16:21:12Z</time>
      </trkpt>
      <trkpt lat="48.39294" lon="-0.87556">
        <ele>213.71</ele>
        <time>2020-06-27T16:21:17Z</time>
      </trkpt>
      <trkpt lat="48.39289" lon="-0.87563">
        <ele>213.71</ele>
        <time>2020-06-27T16:21:23Z</time>
      </trkpt>
      <trkpt lat="48.39285" lon="-0.87569">
        <ele>212.71</ele>
        <time>2020-06-27T16:21:28Z</time>
      </trkpt>
      <trkpt lat="48.39282" lon="-0.87576">
        <ele>210.71</ele>
        <time>2020-06-27T16:21:34Z</time>
      </trkpt>
      <trkpt lat="48.39277" lon="-0.87581">
        <ele>212.71</ele>
        <time>2020-06-27T16:21:40Z</time>
      </trkpt>
      <trkpt lat="48.39273" lon="-0.87585">
        <ele>214.71</ele>
        <time>2020-06-27T16:21:45Z</time>
      </trkpt>
      <trkpt lat="48.39268" lon="-0.87591">
        <ele>216.71</ele>
        <time>2020-06-27T16:21:51Z</time>
      </trkpt>
      <trkpt lat="48.39263" lon="-0.87598">
        <ele>217.71</ele>
        <time>2020-06-27T16:21:57Z</time>
      </trkpt>
      <trkpt lat="48.39256" lon="-0.87602">
        <ele>217.71</ele>
        <time>2020-06-27T16:22:03Z</time>
      </trkpt>
      <trkpt lat="48.3925" lon="-0.87607">
        <ele>218.71</ele>
        <time>2020-06-27T16:22:09Z</time>
      </trkpt>
      <trkpt lat="48.39243" lon="-0.87612">
        <ele>217.71</ele>
        <time>2020-06-27T16:22:15Z</time>
      </trkpt>
      <trkpt lat="48.39238" lon="-0.87616">
        <ele>218.71</ele>
        <time>2020-06-27T16:22:21Z</time>
      </trkpt>
      <trkpt lat="48.39234" lon="-0.8762">
        <ele>218.71</ele>
        <time>2020-06-27T16:22:26Z</time>
      </trkpt>
      <trkpt lat="48.39227" lon="-0.87625">
        <ele>217.71</ele>
        <time>2020-06-27T16:22:32Z</time>
      </trkpt>
      <trkpt lat="48.39221" lon="-0.87628">
        <ele>217.71</ele>
        <time>2020-06-27T16:22:37Z</time>
      </trkpt>
      <trkpt lat="48.39216" lon="-0.87633">
        <ele>214.71</ele>
        <time>2020-06-27T16:22:43Z</time>
      </trkpt>
      <trkpt lat="48.3921" lon="-0.87638">
        <ele>215.71</ele>
        <time>2020-06-27T16:22:49Z</time>
      </trkpt>
      <trkpt lat="48.39206" lon="-0.8764">
        <ele>215.71</ele>
        <time>2020-06-27T16:22:54Z</time>
      </trkpt>
      <trkpt lat="48.39199" lon="-0.87645">
        <ele>216.71</ele>
        <time>2020-06-27T16:23:00Z</time>
      </trkpt>
      <trkpt lat="48.39196" lon="-0.87651">
        <ele>216.71</ele>
        <time>2020-06-27T16:23:05Z</time>
      </trkpt>
      <trkpt lat="48.39191" lon="-0.87657">
        <ele>218.71</ele>
        <time>2020-06-27T16:23:11Z</time>
      </trkpt>
      <trkpt lat="48.39188" lon="-0.87662">
        <ele>220.71</ele>
        <time>2020-06-27T16:23:16Z</time>
      </trkpt>
      <trkpt lat="48.39183" lon="-0.87668">
        <ele>221.71</ele>
        <time>2020-06-27T16:23:22Z</time>
      </trkpt>
      <trkpt lat="48.39179" lon="-0.87673">
        <ele>223.71</ele>
        <time>2020-06-27T16:23:28Z</time>
      </trkpt>
      <trkpt lat="48.39173" lon="-0.87677">
        <ele>222.71</ele>
        <time>2020-06-27T16:23:34Z</time>
      </trkpt>
      <trkpt lat="48.39169" lon="-0.87681">
        <ele>223.71</ele>
        <time>2020-06-27T16:23:39Z</time>
      </trkpt>
      <trkpt lat="48.39166" lon="-0.87682">
        <ele>222.71</ele>
        <time>2020-06-27T16:23:44Z</time>
      </trkpt>
      <trkpt lat="48.39161" lon="-0.87685">
        <ele>221.71</ele>
        <time>2020-06-27T16:23:50Z</time>
      </trkpt>
      <trkpt lat="48.39155" lon="-0.87685">
        <ele>223.71</ele>
        <time>2020-06-27T16:23:55Z</time>
      </trkpt>
      <trkpt lat="48.39149" lon="-0.87682">
        <ele>221.71</ele>
        <time>2020-06-27T16:24:01Z</time>
      </trkpt>
      <trkpt lat="48.39144" lon="-0.8768">
        <ele>221.71</ele>
        <time>2020-06-27T16:24:06Z</time>
      </trkpt>
      <trkpt lat="48.39139" lon="-0.87678">
        <ele>221.71</ele>
        <time>2020-06-27T16:24:11Z</time>
      </trkpt>
      <trkpt lat="48.39132" lon="-0.87677">
        <ele>221.71</ele>
        <time>2020-06-27T16:24:17Z</time>
      </trkpt>
      <trkpt lat="48.39125" lon="-0.87671">
        <ele>223.71</ele>
        <time>2020-06-27T16:24:23Z</time>
      </trkpt>
      <trkpt lat="48.3912" lon="-0.87673">
        <ele>222.71</ele>
        <time>2020-06-27T16:24:28Z</time>
      </trkpt>
      <trkpt lat="48.39115" lon="-0.87669">
        <ele>220.71</ele>
        <time>2020-06-27T16:24:34Z</time>
      </trkpt>
      <trkpt lat="48.3911" lon="-0.87669">
        <ele>220.71</ele>
        <time>2020-06-27T16:24:39Z</time>
      </trkpt>
      <trkpt lat="48.3911" lon="-0.87668">
        <ele>219.71</ele>
        <time>2020-06-27T16:24:44Z</time>
      </trkpt>
      <trkpt lat="48.39111" lon="-0.87667">
        <ele>220.71</ele>
        <time>2020-06-27T16:24:50Z</time>
      </trkpt>
      <trkpt lat="48.39111" lon="-0.87667">
        <ele>221.71</ele>
        <time>2020-06-27T16:24:55Z</time>
      </trkpt>
      <trkpt lat="48.39108" lon="-0.87668">
        <ele>220.71</ele>
        <time>2020-06-27T16:25:01Z</time>
      </trkpt>
      <trkpt lat="48.39107" lon="-0.87667">
        <ele>220.71</ele>
        <time>2020-06-27T16:25:06Z</time>
      </trkpt>
      <trkpt lat="48.39106" lon="-0.87667">
        <ele>219.71</ele>
        <time>2020-06-27T16:25:11Z</time>
      </trkpt>
      <trkpt lat="48.39106" lon="-0.87667">
        <ele>219.71</ele>
        <time>2020-06-27T16:25:16Z</time>
      </trkpt>
      <trkpt lat="48.39104" lon="-0.8767">
        <ele>218.71</ele>
        <time>2020-06-27T16:25:22Z</time>
      </trkpt>
      <trkpt lat="48.39103" lon="-0.87673">
        <ele>219.71</ele>
        <time>2020-06-27T16:25:27Z</time>
      </trkpt>
      <trkpt lat="48.39103" lon="-0.87677">
        <ele>220.71</ele>
        <time>2020-06-27T16:25:32Z</time>
      </trkpt>
      <trkpt lat="48.39103" lon="-0.87678">
        <ele>222.71</ele>
        <time>2020-06-27T16:25:38Z</time>
      </trkpt>
      <trkpt lat="48.39103" lon="-0.87678">
        <ele>222.71</ele>
        <time>2020-06-27T16:25:44Z</time>
      </trkpt>
      <trkpt lat="48.39106" lon="-0.87685">
        <ele>225.71</ele>
        <time>2020-06-27T16:25:49Z</time>
      </trkpt>
      <trkpt lat="48.39106" lon="-0.87692">
        <ele>226.71</ele>
        <time>2020-06-27T16:25:55Z</time>
      </trkpt>
      <trkpt lat="48.39105" lon="-0.87699">
        <ele>227.71</ele>
        <time>2020-06-27T16:26:00Z</time>
      </trkpt>
      <trkpt lat="48.39105" lon="-0.87706">
        <ele>229.71</ele>
        <time>2020-06-27T16:26:05Z</time>
      </trkpt>
      <trkpt lat="48.39105" lon="-0.87713">
        <ele>228.71</ele>
        <time>2020-06-27T16:26:10Z</time>
      </trkpt>
      <trkpt lat="48.39105" lon="-0.87721">
        <ele>229.71</ele>
        <time>2020-06-27T16:26:16Z</time>
      </trkpt>
      <trkpt lat="48.39102" lon="-0.87737">
        <ele>226.71</ele>
        <time>2020-06-27T16:26:27Z</time>
      </trkpt>
      <trkpt lat="48.391" lon="-0.87747">
        <ele>226.71</ele>
        <time>2020-06-27T16:26:33Z</time>
      </trkpt>
      <trkpt lat="48.391" lon="-0.87755">
        <ele>214.71</ele>
        <time>2020-06-27T16:26:39Z</time>
      </trkpt>
      <trkpt lat="48.39099" lon="-0.87763">
        <ele>222.71</ele>
        <time>2020-06-27T16:26:44Z</time>
      </trkpt>
      <trkpt lat="48.39098" lon="-0.87772">
        <ele>222.71</ele>
        <time>2020-06-27T16:26:50Z</time>
      </trkpt>
      <trkpt lat="48.39097" lon="-0.87781">
        <ele>223.71</ele>
        <time>2020-06-27T16:26:55Z</time>
      </trkpt>
      <trkpt lat="48.39097" lon="-0.87788">
        <ele>223.71</ele>
        <time>2020-06-27T16:27:03Z</time>
      </trkpt>
      <trkpt lat="48.39096" lon="-0.87799">
        <ele>223.71</ele>
        <time>2020-06-27T16:27:08Z</time>
      </trkpt>
      <trkpt lat="48.39097" lon="-0.87806">
        <ele>223.71</ele>
        <time>2020-06-27T16:27:13Z</time>
      </trkpt>
      <trkpt lat="48.39097" lon="-0.87816">
        <ele>224.71</ele>
        <time>2020-06-27T16:27:18Z</time>
      </trkpt>
      <trkpt lat="48.39097" lon="-0.87825">
        <ele>225.71</ele>
        <time>2020-06-27T16:27:24Z</time>
      </trkpt>
      <trkpt lat="48.39096" lon="-0.87835">
        <ele>225.71</ele>
        <time>2020-06-27T16:27:29Z</time>
      </trkpt>
      <trkpt lat="48.39098" lon="-0.8784">
        <ele>227.71</ele>
        <time>2020-06-27T16:27:35Z</time>
      </trkpt>
      <trkpt lat="48.39097" lon="-0.87845">
        <ele>226.71</ele>
        <time>2020-06-27T16:27:40Z</time>
      </trkpt>
      <trkpt lat="48.39094" lon="-0.87856">
        <ele>226.71</ele>
        <time>2020-06-27T16:27:46Z</time>
      </trkpt>
      <trkpt lat="48.3909" lon="-0.87866">
        <ele>225.71</ele>
        <time>2020-06-27T16:27:52Z</time>
      </trkpt>
      <trkpt lat="48.39088" lon="-0.87876">
        <ele>225.71</ele>
        <time>2020-06-27T16:28:01Z</time>
      </trkpt>
      <trkpt lat="48.39086" lon="-0.87888">
        <ele>225.71</ele>
        <time>2020-06-27T16:28:06Z</time>
      </trkpt>
      <trkpt lat="48.39084" lon="-0.87899">
        <ele>224.71</ele>
        <time>2020-06-27T16:28:12Z</time>
      </trkpt>
      <trkpt lat="48.39083" lon="-0.87906">
        <ele>224.71</ele>
        <time>2020-06-27T16:28:17Z</time>
      </trkpt>
      <trkpt lat="48.39082" lon="-0.87916">
        <ele>224.71</ele>
        <time>2020-06-27T16:28:23Z</time>
      </trkpt>
      <trkpt lat="48.39081" lon="-0.87924">
        <ele>224.71</ele>
        <time>2020-06-27T16:28:28Z</time>
      </trkpt>
      <trkpt lat="48.39079" lon="-0.87933">
        <ele>224.71</ele>
        <time>2020-06-27T16:28:34Z</time>
      </trkpt>
      <trkpt lat="48.39077" lon="-0.87944">
        <ele>223.71</ele>
        <time>2020-06-27T16:28:42Z</time>
      </trkpt>
      <trkpt lat="48.39077" lon="-0.87955">
        <ele>224.71</ele>
        <time>2020-06-27T16:28:48Z</time>
      </trkpt>
      <trkpt lat="48.39077" lon="-0.87963">
        <ele>224.71</ele>
        <time>2020-06-27T16:28:53Z</time>
      </trkpt>
      <trkpt lat="48.39076" lon="-0.87973">
        <ele>225.71</ele>
        <time>2020-06-27T16:28:59Z</time>
      </trkpt>
      <trkpt lat="48.39075" lon="-0.87983">
        <ele>226.71</ele>
        <time>2020-06-27T16:29:05Z</time>
      </trkpt>
      <trkpt lat="48.39073" lon="-0.87991">
        <ele>226.71</ele>
        <time>2020-06-27T16:29:10Z</time>
      </trkpt>
      <trkpt lat="48.39072" lon="-0.87998">
        <ele>227.71</ele>
        <time>2020-06-27T16:29:15Z</time>
      </trkpt>
      <trkpt lat="48.39071" lon="-0.88007">
        <ele>227.71</ele>
        <time>2020-06-27T16:29:21Z</time>
      </trkpt>
      <trkpt lat="48.3907" lon="-0.88014">
        <ele>228.71</ele>
        <time>2020-06-27T16:29:26Z</time>
      </trkpt>
      <trkpt lat="48.39069" lon="-0.88023">
        <ele>227.71</ele>
        <time>2020-06-27T16:29:32Z</time>
      </trkpt>
      <trkpt lat="48.39069" lon="-0.88033">
        <ele>226.71</ele>
        <time>2020-06-27T16:29:38Z</time>
      </trkpt>
      <trkpt lat="48.39068" lon="-0.88043">
        <ele>228.71</ele>
        <time>2020-06-27T16:29:44Z</time>
      </trkpt>
      <trkpt lat="48.39067" lon="-0.88053">
        <ele>228.71</ele>
        <time>2020-06-27T16:29:50Z</time>
      </trkpt>
      <trkpt lat="48.39066" lon="-0.88061">
        <ele>228.71</ele>
        <time>2020-06-27T16:29:55Z</time>
      </trkpt>
      <trkpt lat="48.39066" lon="-0.88071">
        <ele>226.71</ele>
        <time>2020-06-27T16:30:01Z</time>
      </trkpt>
      <trkpt lat="48.39065" lon="-0.8808">
        <ele>226.71</ele>
        <time>2020-06-27T16:30:06Z</time>
      </trkpt>
      <trkpt lat="48.39064" lon="-0.88088">
        <ele>227.71</ele>
        <time>2020-06-27T16:30:12Z</time>
      </trkpt>
      <trkpt lat="48.39062" lon="-0.88098">
        <ele>227.71</ele>
        <time>2020-06-27T16:30:18Z</time>
      </trkpt>
      <trkpt lat="48.39061" lon="-0.88107">
        <ele>226.71</ele>
        <time>2020-06-27T16:30:24Z</time>
      </trkpt>
      <trkpt lat="48.39059" lon="-0.88117">
        <ele>225.71</ele>
        <time>2020-06-27T16:30:30Z</time>
      </trkpt>
      <trkpt lat="48.39058" lon="-0.88127">
        <ele>226.71</ele>
        <time>2020-06-27T16:30:36Z</time>
      </trkpt>
      <trkpt lat="48.39058" lon="-0.88136">
        <ele>226.71</ele>
        <time>2020-06-27T16:30:42Z</time>
      </trkpt>
      <trkpt lat="48.39058" lon="-0.88146">
        <ele>226.71</ele>
        <time>2020-06-27T16:30:48Z</time>
      </trkpt>
      <trkpt lat="48.39057" lon="-0.88155">
        <ele>228.71</ele>
        <time>2020-06-27T16:30:54Z</time>
      </trkpt>
      <trkpt lat="48.39055" lon="-0.88163">
        <ele>228.71</ele>
        <time>2020-06-27T16:30:59Z</time>
      </trkpt>
      <trkpt lat="48.39055" lon="-0.88173">
        <ele>229.71</ele>
        <time>2020-06-27T16:31:05Z</time>
      </trkpt>
      <trkpt lat="48.39054" lon="-0.88182">
        <ele>229.71</ele>
        <time>2020-06-27T16:31:11Z</time>
      </trkpt>
      <trkpt lat="48.39053" lon="-0.88191">
        <ele>229.71</ele>
        <time>2020-06-27T16:31:17Z</time>
      </trkpt>
      <trkpt lat="48.39052" lon="-0.88201">
        <ele>229.71</ele>
        <time>2020-06-27T16:31:23Z</time>
      </trkpt>
      <trkpt lat="48.39052" lon="-0.88208">
        <ele>229.71</ele>
        <time>2020-06-27T16:31:28Z</time>
      </trkpt>
      <trkpt lat="48.3905" lon="-0.88218">
        <ele>228.71</ele>
        <time>2020-06-27T16:31:34Z</time>
      </trkpt>
      <trkpt lat="48.39048" lon="-0.88227">
        <ele>227.71</ele>
        <time>2020-06-27T16:31:40Z</time>
      </trkpt>
      <trkpt lat="48.39047" lon="-0.88235">
        <ele>228.71</ele>
        <time>2020-06-27T16:31:45Z</time>
      </trkpt>
      <trkpt lat="48.39046" lon="-0.88245">
        <ele>227.71</ele>
        <time>2020-06-27T16:31:51Z</time>
      </trkpt>
      <trkpt lat="48.39043" lon="-0.88254">
        <ele>227.71</ele>
        <time>2020-06-27T16:31:57Z</time>
      </trkpt>
      <trkpt lat="48.39044" lon="-0.88261">
        <ele>228.71</ele>
        <time>2020-06-27T16:32:02Z</time>
      </trkpt>
      <trkpt lat="48.39043" lon="-0.8827">
        <ele>228.71</ele>
        <time>2020-06-27T16:32:07Z</time>
      </trkpt>
      <trkpt lat="48.39042" lon="-0.88278">
        <ele>228.71</ele>
        <time>2020-06-27T16:32:12Z</time>
      </trkpt>
      <trkpt lat="48.39042" lon="-0.88287">
        <ele>228.71</ele>
        <time>2020-06-27T16:32:18Z</time>
      </trkpt>
      <trkpt lat="48.39041" lon="-0.88295">
        <ele>228.71</ele>
        <time>2020-06-27T16:32:23Z</time>
      </trkpt>
      <trkpt lat="48.3904" lon="-0.88305">
        <ele>228.71</ele>
        <time>2020-06-27T16:32:29Z</time>
      </trkpt>
      <trkpt lat="48.39039" lon="-0.88312">
        <ele>228.71</ele>
        <time>2020-06-27T16:32:34Z</time>
      </trkpt>
      <trkpt lat="48.39038" lon="-0.88322">
        <ele>229.71</ele>
        <time>2020-06-27T16:32:40Z</time>
      </trkpt>
      <trkpt lat="48.39038" lon="-0.8833">
        <ele>230.71</ele>
        <time>2020-06-27T16:32:45Z</time>
      </trkpt>
      <trkpt lat="48.39036" lon="-0.8834">
        <ele>230.71</ele>
        <time>2020-06-27T16:32:51Z</time>
      </trkpt>
      <trkpt lat="48.39035" lon="-0.88348">
        <ele>229.71</ele>
        <time>2020-06-27T16:32:56Z</time>
      </trkpt>
      <trkpt lat="48.39034" lon="-0.88353">
        <ele>229.71</ele>
        <time>2020-06-27T16:33:02Z</time>
      </trkpt>
      <trkpt lat="48.39035" lon="-0.88359">
        <ele>229.71</ele>
        <time>2020-06-27T16:33:08Z</time>
      </trkpt>
      <trkpt lat="48.39035" lon="-0.88366">
        <ele>229.71</ele>
        <time>2020-06-27T16:33:13Z</time>
      </trkpt>
      <trkpt lat="48.39035" lon="-0.88374">
        <ele>230.71</ele>
        <time>2020-06-27T16:33:18Z</time>
      </trkpt>
      <trkpt lat="48.39036" lon="-0.88382">
        <ele>231.71</ele>
        <time>2020-06-27T16:33:24Z</time>
      </trkpt>
      <trkpt lat="48.39037" lon="-0.88389">
        <ele>231.71</ele>
        <time>2020-06-27T16:33:29Z</time>
      </trkpt>
      <trkpt lat="48.39038" lon="-0.88398">
        <ele>232.71</ele>
        <time>2020-06-27T16:33:35Z</time>
      </trkpt>
      <trkpt lat="48.3904" lon="-0.88406">
        <ele>232.71</ele>
        <time>2020-06-27T16:33:40Z</time>
      </trkpt>
      <trkpt lat="48.39043" lon="-0.88412">
        <ele>232.71</ele>
        <time>2020-06-27T16:33:46Z</time>
      </trkpt>
      <trkpt lat="48.39047" lon="-0.88416">
        <ele>232.71</ele>
        <time>2020-06-27T16:33:52Z</time>
      </trkpt>
      <trkpt lat="48.39051" lon="-0.88416">
        <ele>231.71</ele>
        <time>2020-06-27T16:33:57Z</time>
      </trkpt>
      <trkpt lat="48.39055" lon="-0.88416">
        <ele>230.71</ele>
        <time>2020-06-27T16:34:03Z</time>
      </trkpt>
      <trkpt lat="48.39055" lon="-0.88416">
        <ele>229.71</ele>
        <time>2020-06-27T16:34:09Z</time>
      </trkpt>
      <trkpt lat="48.39056" lon="-0.88417">
        <ele>228.71</ele>
        <time>2020-06-27T16:34:15Z</time>
      </trkpt>
      <trkpt lat="48.39056" lon="-0.88416">
        <ele>228.71</ele>
        <time>2020-06-27T16:34:20Z</time>
      </trkpt>
      <trkpt lat="48.39056" lon="-0.88417">
        <ele>227.71</ele>
        <time>2020-06-27T16:34:26Z</time>
      </trkpt>
      <trkpt lat="48.39056" lon="-0.88416">
        <ele>228.71</ele>
        <time>2020-06-27T16:34:31Z</time>
      </trkpt>
      <trkpt lat="48.39059" lon="-0.88415">
        <ele>227.71</ele>
        <time>2020-06-27T16:34:37Z</time>
      </trkpt>
      <trkpt lat="48.39065" lon="-0.88414">
        <ele>227.71</ele>
        <time>2020-06-27T16:34:42Z</time>
      </trkpt>
      <trkpt lat="48.39071" lon="-0.88414">
        <ele>228.71</ele>
        <time>2020-06-27T16:34:48Z</time>
      </trkpt>
      <trkpt lat="48.39076" lon="-0.88413">
        <ele>228.71</ele>
        <time>2020-06-27T16:34:53Z</time>
      </trkpt>
      <trkpt lat="48.39082" lon="-0.88414">
        <ele>226.71</ele>
        <time>2020-06-27T16:34:59Z</time>
      </trkpt>
      <trkpt lat="48.39087" lon="-0.88415">
        <ele>226.71</ele>
        <time>2020-06-27T16:35:04Z</time>
      </trkpt>
      <trkpt lat="48.39094" lon="-0.88416">
        <ele>226.71</ele>
        <time>2020-06-27T16:35:10Z</time>
      </trkpt>
      <trkpt lat="48.39099" lon="-0.88416">
        <ele>226.71</ele>
        <time>2020-06-27T16:35:16Z</time>
      </trkpt>
      <trkpt lat="48.39104" lon="-0.88417">
        <ele>226.71</ele>
        <time>2020-06-27T16:35:21Z</time>
      </trkpt>
      <trkpt lat="48.3911" lon="-0.88417">
        <ele>226.71</ele>
        <time>2020-06-27T16:35:26Z</time>
      </trkpt>
      <trkpt lat="48.39116" lon="-0.88417">
        <ele>227.71</ele>
        <time>2020-06-27T16:35:32Z</time>
      </trkpt>
      <trkpt lat="48.39123" lon="-0.88416">
        <ele>228.71</ele>
        <time>2020-06-27T16:35:38Z</time>
      </trkpt>
      <trkpt lat="48.39129" lon="-0.88415">
        <ele>229.71</ele>
        <time>2020-06-27T16:35:44Z</time>
      </trkpt>
      <trkpt lat="48.39136" lon="-0.88415">
        <ele>230.71</ele>
        <time>2020-06-27T16:35:50Z</time>
      </trkpt>
      <trkpt lat="48.39142" lon="-0.88416">
        <ele>230.71</ele>
        <time>2020-06-27T16:35:55Z</time>
      </trkpt>
      <trkpt lat="48.39148" lon="-0.88417">
        <ele>229.71</ele>
        <time>2020-06-27T16:36:01Z</time>
      </trkpt>
      <trkpt lat="48.39153" lon="-0.88417">
        <ele>229.71</ele>
        <time>2020-06-27T16:36:06Z</time>
      </trkpt>
      <trkpt lat="48.3916" lon="-0.88417">
        <ele>230.71</ele>
        <time>2020-06-27T16:36:12Z</time>
      </trkpt>
      <trkpt lat="48.39165" lon="-0.88416">
        <ele>226.71</ele>
        <time>2020-06-27T16:36:18Z</time>
      </trkpt>
      <trkpt lat="48.39171" lon="-0.88414">
        <ele>228.71</ele>
        <time>2020-06-27T16:36:23Z</time>
      </trkpt>
      <trkpt lat="48.39178" lon="-0.88415">
        <ele>229.71</ele>
        <time>2020-06-27T16:36:28Z</time>
      </trkpt>
      <trkpt lat="48.39183" lon="-0.88414">
        <ele>229.71</ele>
        <time>2020-06-27T16:36:33Z</time>
      </trkpt>
      <trkpt lat="48.39188" lon="-0.88413">
        <ele>228.71</ele>
        <time>2020-06-27T16:36:38Z</time>
      </trkpt>
      <trkpt lat="48.39194" lon="-0.88413">
        <ele>228.71</ele>
        <time>2020-06-27T16:36:44Z</time>
      </trkpt>
      <trkpt lat="48.39201" lon="-0.88413">
        <ele>228.71</ele>
        <time>2020-06-27T16:36:50Z</time>
      </trkpt>
      <trkpt lat="48.39206" lon="-0.88413">
        <ele>228.71</ele>
        <time>2020-06-27T16:36:55Z</time>
      </trkpt>
      <trkpt lat="48.39213" lon="-0.88412">
        <ele>228.71</ele>
        <time>2020-06-27T16:37:01Z</time>
      </trkpt>
      <trkpt lat="48.39218" lon="-0.88414">
        <ele>229.71</ele>
        <time>2020-06-27T16:37:07Z</time>
      </trkpt>
      <trkpt lat="48.39224" lon="-0.88416">
        <ele>230.71</ele>
        <time>2020-06-27T16:37:13Z</time>
      </trkpt>
      <trkpt lat="48.39226" lon="-0.88418">
        <ele>230.71</ele>
        <time>2020-06-27T16:37:18Z</time>
      </trkpt>
      <trkpt lat="48.39227" lon="-0.88419">
        <ele>230.71</ele>
        <time>2020-06-27T16:37:24Z</time>
      </trkpt>
      <trkpt lat="48.39226" lon="-0.88422">
        <ele>227.71</ele>
        <time>2020-06-27T16:37:29Z</time>
      </trkpt>
      <trkpt lat="48.39226" lon="-0.88422">
        <ele>227.71</ele>
        <time>2020-06-27T16:37:35Z</time>
      </trkpt>
      <trkpt lat="48.39226" lon="-0.88424">
        <ele>228.71</ele>
        <time>2020-06-27T16:37:40Z</time>
      </trkpt>
      <trkpt lat="48.39226" lon="-0.88431">
        <ele>228.71</ele>
        <time>2020-06-27T16:37:45Z</time>
      </trkpt>
      <trkpt lat="48.39225" lon="-0.88437">
        <ele>228.71</ele>
        <time>2020-06-27T16:37:51Z</time>
      </trkpt>
      <trkpt lat="48.39225" lon="-0.88445">
        <ele>229.71</ele>
        <time>2020-06-27T16:37:56Z</time>
      </trkpt>
      <trkpt lat="48.39225" lon="-0.88451">
        <ele>228.71</ele>
        <time>2020-06-27T16:38:01Z</time>
      </trkpt>
      <trkpt lat="48.39225" lon="-0.88457">
        <ele>228.71</ele>
        <time>2020-06-27T16:38:07Z</time>
      </trkpt>
      <trkpt lat="48.39226" lon="-0.88464">
        <ele>226.71</ele>
        <time>2020-06-27T16:38:12Z</time>
      </trkpt>
      <trkpt lat="48.39225" lon="-0.88471">
        <ele>225.71</ele>
        <time>2020-06-27T16:38:17Z</time>
      </trkpt>
      <trkpt lat="48.39227" lon="-0.88482">
        <ele>226.71</ele>
        <time>2020-06-27T16:38:23Z</time>
      </trkpt>
      <trkpt lat="48.39226" lon="-0.88485">
        <ele>226.71</ele>
        <time>2020-06-27T16:38:29Z</time>
      </trkpt>
      <trkpt lat="48.39227" lon="-0.88486">
        <ele>227.71</ele>
        <time>2020-06-27T16:38:34Z</time>
      </trkpt>
      <trkpt lat="48.39227" lon="-0.88485">
        <ele>227.71</ele>
        <time>2020-06-27T16:38:40Z</time>
      </trkpt>
      <trkpt lat="48.39227" lon="-0.88485">
        <ele>227.71</ele>
        <time>2020-06-27T16:38:45Z</time>
      </trkpt>
      <trkpt lat="48.39227" lon="-0.88485">
        <ele>227.71</ele>
        <time>2020-06-27T16:38:50Z</time>
      </trkpt>
      <trkpt lat="48.39227" lon="-0.88485">
        <ele>227.71</ele>
        <time>2020-06-27T16:38:56Z</time>
      </trkpt>
      <trkpt lat="48.39227" lon="-0.88485">
        <ele>227.71</ele>
        <time>2020-06-27T16:39:02Z</time>
      </trkpt>
      <trkpt lat="48.39228" lon="-0.88485">
        <ele>227.71</ele>
        <time>2020-06-27T16:39:08Z</time>
      </trkpt>
      <trkpt lat="48.39229" lon="-0.88486">
        <ele>227.71</ele>
        <time>2020-06-27T16:39:13Z</time>
      </trkpt>
      <trkpt lat="48.39229" lon="-0.88485">
        <ele>227.71</ele>
        <time>2020-06-27T16:39:19Z</time>
      </trkpt>
      <trkpt lat="48.39229" lon="-0.88486">
        <ele>227.71</ele>
        <time>2020-06-27T16:39:25Z</time>
      </trkpt>
      <trkpt lat="48.39229" lon="-0.88486">
        <ele>227.71</ele>
        <time>2020-06-27T16:39:30Z</time>
      </trkpt>
      <trkpt lat="48.39229" lon="-0.88486">
        <ele>226.71</ele>
        <time>2020-06-27T16:39:36Z</time>
      </trkpt>
      <trkpt lat="48.39228" lon="-0.88486">
        <ele>226.71</ele>
        <time>2020-06-27T16:39:42Z</time>
      </trkpt>
      <trkpt lat="48.39228" lon="-0.88486">
        <ele>226.71</ele>
        <time>2020-06-27T16:39:47Z</time>
      </trkpt>
      <trkpt lat="48.39228" lon="-0.88486">
        <ele>226.71</ele>
        <time>2020-06-27T16:39:53Z</time>
      </trkpt>
      <trkpt lat="48.39228" lon="-0.88486">
        <ele>226.71</ele>
        <time>2020-06-27T16:39:59Z</time>
      </trkpt>
      <trkpt lat="48.39229" lon="-0.88486">
        <ele>226.71</ele>
        <time>2020-06-27T16:40:04Z</time>
      </trkpt>
      <trkpt lat="48.39229" lon="-0.88486">
        <ele>226.71</ele>
        <time>2020-06-27T16:40:09Z</time>
      </trkpt>
      <trkpt lat="48.39229" lon="-0.88486">
        <ele>226.71</ele>
        <time>2020-06-27T16:40:15Z</time>
      </trkpt>
      <trkpt lat="48.39229" lon="-0.88486">
        <ele>226.71</ele>
        <time>2020-06-27T16:40:20Z</time>
      </trkpt>
      <trkpt lat="48.39229" lon="-0.88486">
        <ele>226.71</ele>
        <time>2020-06-27T16:40:25Z</time>
      </trkpt>
      <trkpt lat="48.39229" lon="-0.88486">
        <ele>226.71</ele>
        <time>2020-06-27T16:40:31Z</time>
      </trkpt>
      <trkpt lat="48.39229" lon="-0.88486">
        <ele>226.71</ele>
        <time>2020-06-27T16:40:37Z</time>
      </trkpt>
      <trkpt lat="48.39229" lon="-0.88486">
        <ele>226.71</ele>
        <time>2020-06-27T16:40:42Z</time>
      </trkpt>
      <trkpt lat="48.39229" lon="-0.88486">
        <ele>226.71</ele>
        <time>2020-06-27T16:40:48Z</time>
      </trkpt>
      <trkpt lat="48.39228" lon="-0.88488">
        <ele>227.71</ele>
        <time>2020-06-27T16:40:53Z</time>
      </trkpt>
      <trkpt lat="48.39228" lon="-0.88488">
        <ele>226.71</ele>
        <time>2020-06-27T16:40:59Z</time>
      </trkpt>
      <trkpt lat="48.39228" lon="-0.88488">
        <ele>226.71</ele>
        <time>2020-06-27T16:41:05Z</time>
      </trkpt>
      <trkpt lat="48.39228" lon="-0.88488">
        <ele>226.71</ele>
        <time>2020-06-27T16:41:11Z</time>
      </trkpt>
      <trkpt lat="48.39228" lon="-0.88488">
        <ele>226.71</ele>
        <time>2020-06-27T16:41:16Z</time>
      </trkpt>
      <trkpt lat="48.39228" lon="-0.88488">
        <ele>226.71</ele>
        <time>2020-06-27T16:41:21Z</time>
      </trkpt>
      <trkpt lat="48.39228" lon="-0.88488">
        <ele>226.71</ele>
        <time>2020-06-27T16:41:26Z</time>
      </trkpt>
      <trkpt lat="48.39228" lon="-0.88488">
        <ele>226.71</ele>
        <time>2020-06-27T16:41:32Z</time>
      </trkpt>
      <trkpt lat="48.39228" lon="-0.88488">
        <ele>226.71</ele>
        <time>2020-06-27T16:41:37Z</time>
      </trkpt>
      <trkpt lat="48.39228" lon="-0.88488">
        <ele>226.71</ele>
        <time>2020-06-27T16:41:43Z</time>
      </trkpt>
      <trkpt lat="48.39228" lon="-0.88488">
        <ele>226.71</ele>
        <time>2020-06-27T16:41:48Z</time>
      </trkpt>
      <trkpt lat="48.39228" lon="-0.88488">
        <ele>226.71</ele>
        <time>2020-06-27T16:41:54Z</time>
      </trkpt>
      <trkpt lat="48.39228" lon="-0.88488">
        <ele>226.71</ele>
        <time>2020-06-27T16:42:00Z</time>
      </trkpt>
      <trkpt lat="48.39228" lon="-0.88488">
        <ele>226.71</ele>
        <time>2020-06-27T16:42:05Z</time>
      </trkpt>
      <trkpt lat="48.39228" lon="-0.88488">
        <ele>226.71</ele>
        <time>2020-06-27T16:42:11Z</time>
      </trkpt>
      <trkpt lat="48.39228" lon="-0.88488">
        <ele>226.71</ele>
        <time>2020-06-27T16:42:16Z</time>
      </trkpt>
      <trkpt lat="48.39228" lon="-0.88488">
        <ele>226.71</ele>
        <time>2020-06-27T16:42:22Z</time>
      </trkpt>
      <trkpt lat="48.39228" lon="-0.88488">
        <ele>226.71</ele>
        <time>2020-06-27T16:42:28Z</time>
      </trkpt>
      <trkpt lat="48.39228" lon="-0.88488">
        <ele>226.71</ele>
        <time>2020-06-27T16:42:33Z</time>
      </trkpt>
      <trkpt lat="48.39228" lon="-0.88488">
        <ele>226.71</ele>
        <time>2020-06-27T16:42:39Z</time>
      </trkpt>
      <trkpt lat="48.39228" lon="-0.88488">
        <ele>226.71</ele>
        <time>2020-06-27T16:42:44Z</time>
      </trkpt>
      <trkpt lat="48.39228" lon="-0.88488">
        <ele>226.71</ele>
        <time>2020-06-27T16:42:49Z</time>
      </trkpt>
      <trkpt lat="48.39228" lon="-0.88488">
        <ele>226.71</ele>
        <time>2020-06-27T16:42:54Z</time>
      </trkpt>
      <trkpt lat="48.39228" lon="-0.88488">
        <ele>226.71</ele>
        <time>2020-06-27T16:43:00Z</time>
      </trkpt>
      <trkpt lat="48.39228" lon="-0.88488">
        <ele>226.71</ele>
        <time>2020-06-27T16:43:05Z</time>
      </trkpt>
      <trkpt lat="48.39228" lon="-0.88488">
        <ele>226.71</ele>
        <time>2020-06-27T16:43:11Z</time>
      </trkpt>
      <trkpt lat="48.39228" lon="-0.88488">
        <ele>226.71</ele>
        <time>2020-06-27T16:43:17Z</time>
      </trkpt>
      <trkpt lat="48.39228" lon="-0.88488">
        <ele>226.71</ele>
        <time>2020-06-27T16:43:23Z</time>
      </trkpt>
      <trkpt lat="48.39228" lon="-0.88488">
        <ele>226.71</ele>
        <time>2020-06-27T16:43:28Z</time>
      </trkpt>
      <trkpt lat="48.39228" lon="-0.88488">
        <ele>226.71</ele>
        <time>2020-06-27T16:43:34Z</time>
      </trkpt>
      <trkpt lat="48.39228" lon="-0.88488">
        <ele>226.71</ele>
        <time>2020-06-27T16:43:39Z</time>
      </trkpt>
      <trkpt lat="48.39228" lon="-0.88488">
        <ele>226.71</ele>
        <time>2020-06-27T16:43:45Z</time>
      </trkpt>
      <trkpt lat="48.39228" lon="-0.88488">
        <ele>226.71</ele>
        <time>2020-06-27T16:43:50Z</time>
      </trkpt>
      <trkpt lat="48.39228" lon="-0.88488">
        <ele>226.71</ele>
        <time>2020-06-27T16:43:55Z</time>
      </trkpt>
      <trkpt lat="48.39228" lon="-0.88488">
        <ele>226.71</ele>
        <time>2020-06-27T16:44:01Z</time>
      </trkpt>
      <trkpt lat="48.39228" lon="-0.88488">
        <ele>226.71</ele>
        <time>2020-06-27T16:44:07Z</time>
      </trkpt>
      <trkpt lat="48.39228" lon="-0.88488">
        <ele>226.71</ele>
        <time>2020-06-27T16:44:12Z</time>
      </trkpt>
      <trkpt lat="48.39228" lon="-0.88488">
        <ele>226.71</ele>
        <time>2020-06-27T16:44:17Z</time>
      </trkpt>
      <trkpt lat="48.39228" lon="-0.88488">
        <ele>226.71</ele>
        <time>2020-06-27T16:44:23Z</time>
      </trkpt>
      <trkpt lat="48.39228" lon="-0.88488">
        <ele>226.71</ele>
        <time>2020-06-27T16:44:28Z</time>
      </trkpt>
      <trkpt lat="48.39228" lon="-0.88488">
        <ele>226.71</ele>
        <time>2020-06-27T16:44:33Z</time>
      </trkpt>
      <trkpt lat="48.39228" lon="-0.88488">
        <ele>226.71</ele>
        <time>2020-06-27T16:44:39Z</time>
      </trkpt>
      <trkpt lat="48.39228" lon="-0.88488">
        <ele>226.71</ele>
        <time>2020-06-27T16:44:44Z</time>
      </trkpt>
      <trkpt lat="48.39228" lon="-0.88488">
        <ele>226.71</ele>
        <time>2020-06-27T16:44:50Z</time>
      </trkpt>
      <trkpt lat="48.39228" lon="-0.88488">
        <ele>226.71</ele>
        <time>2020-06-27T16:44:55Z</time>
      </trkpt>
      <trkpt lat="48.39228" lon="-0.88488">
        <ele>226.71</ele>
        <time>2020-06-27T16:45:00Z</time>
      </trkpt>
      <trkpt lat="48.39228" lon="-0.88488">
        <ele>226.71</ele>
        <time>2020-06-27T16:45:06Z</time>
      </trkpt>
      <trkpt lat="48.39228" lon="-0.88488">
        <ele>226.71</ele>
        <time>2020-06-27T16:45:12Z</time>
      </trkpt>
      <trkpt lat="48.39228" lon="-0.88488">
        <ele>226.71</ele>
        <time>2020-06-27T16:45:17Z</time>
      </trkpt>
      <trkpt lat="48.39228" lon="-0.88488">
        <ele>226.71</ele>
        <time>2020-06-27T16:45:23Z</time>
      </trkpt>
      <trkpt lat="48.39228" lon="-0.88488">
        <ele>226.71</ele>
        <time>2020-06-27T16:45:29Z</time>
      </trkpt>
      <trkpt lat="48.39228" lon="-0.88488">
        <ele>226.71</ele>
        <time>2020-06-27T16:45:34Z</time>
      </trkpt>
      <trkpt lat="48.39228" lon="-0.88488">
        <ele>226.71</ele>
        <time>2020-06-27T16:45:40Z</time>
      </trkpt>
      <trkpt lat="48.39228" lon="-0.88488">
        <ele>226.71</ele>
        <time>2020-06-27T16:45:45Z</time>
      </trkpt>
      <trkpt lat="48.39228" lon="-0.88488">
        <ele>226.71</ele>
        <time>2020-06-27T16:45:51Z</time>
      </trkpt>
      <trkpt lat="48.39228" lon="-0.88488">
        <ele>226.71</ele>
        <time>2020-06-27T16:45:56Z</time>
      </trkpt>
      <trkpt lat="48.39228" lon="-0.88488">
        <ele>226.71</ele>
        <time>2020-06-27T16:46:02Z</time>
      </trkpt>
      <trkpt lat="48.39228" lon="-0.88488">
        <ele>226.71</ele>
        <time>2020-06-27T16:46:07Z</time>
      </trkpt>
      <trkpt lat="48.39228" lon="-0.88488">
        <ele>226.71</ele>
        <time>2020-06-27T16:46:13Z</time>
      </trkpt>
      <trkpt lat="48.39228" lon="-0.88488">
        <ele>226.71</ele>
        <time>2020-06-27T16:46:19Z</time>
      </trkpt>
      <trkpt lat="48.39228" lon="-0.88488">
        <ele>226.71</ele>
        <time>2020-06-27T16:46:25Z</time>
      </trkpt>
      <trkpt lat="48.39228" lon="-0.88488">
        <ele>226.71</ele>
        <time>2020-06-27T16:46:31Z</time>
      </trkpt>
      <trkpt lat="48.39228" lon="-0.88488">
        <ele>226.71</ele>
        <time>2020-06-27T16:46:37Z</time>
      </trkpt>
      <trkpt lat="48.39228" lon="-0.88488">
        <ele>226.71</ele>
        <time>2020-06-27T16:46:43Z</time>
      </trkpt>
      <trkpt lat="48.39228" lon="-0.88488">
        <ele>226.71</ele>
        <time>2020-06-27T16:46:48Z</time>
      </trkpt>
      <trkpt lat="48.39228" lon="-0.88488">
        <ele>226.71</ele>
        <time>2020-06-27T16:46:54Z</time>
      </trkpt>
      <trkpt lat="48.39228" lon="-0.88488">
        <ele>226.71</ele>
        <time>2020-06-27T16:47:00Z</time>
      </trkpt>
      <trkpt lat="48.39228" lon="-0.88488">
        <ele>226.71</ele>
        <time>2020-06-27T16:47:05Z</time>
      </trkpt>
      <trkpt lat="48.39228" lon="-0.88488">
        <ele>226.71</ele>
        <time>2020-06-27T16:47:11Z</time>
      </trkpt>
      <trkpt lat="48.39228" lon="-0.88488">
        <ele>226.71</ele>
        <time>2020-06-27T16:47:16Z</time>
      </trkpt>
      <trkpt lat="48.39228" lon="-0.88488">
        <ele>226.71</ele>
        <time>2020-06-27T16:47:22Z</time>
      </trkpt>
      <trkpt lat="48.39228" lon="-0.88488">
        <ele>226.71</ele>
        <time>2020-06-27T16:47:28Z</time>
      </trkpt>
      <trkpt lat="48.39228" lon="-0.88488">
        <ele>226.71</ele>
        <time>2020-06-27T16:47:34Z</time>
      </trkpt>
      <trkpt lat="48.39228" lon="-0.88488">
        <ele>226.71</ele>
        <time>2020-06-27T16:47:40Z</time>
      </trkpt>
      <trkpt lat="48.39228" lon="-0.88488">
        <ele>226.71</ele>
        <time>2020-06-27T16:47:45Z</time>
      </trkpt>
      <trkpt lat="48.39228" lon="-0.88488">
        <ele>226.71</ele>
        <time>2020-06-27T16:47:50Z</time>
      </trkpt>
      <trkpt lat="48.39228" lon="-0.88488">
        <ele>226.71</ele>
        <time>2020-06-27T16:47:56Z</time>
      </trkpt>
      <trkpt lat="48.39228" lon="-0.88488">
        <ele>226.71</ele>
        <time>2020-06-27T16:48:01Z</time>
      </trkpt>
      <trkpt lat="48.39228" lon="-0.88488">
        <ele>226.71</ele>
        <time>2020-06-27T16:48:07Z</time>
      </trkpt>
      <trkpt lat="48.39228" lon="-0.88488">
        <ele>226.71</ele>
        <time>2020-06-27T16:48:12Z</time>
      </trkpt>
      <trkpt lat="48.39228" lon="-0.88488">
        <ele>226.71</ele>
        <time>2020-06-27T16:48:18Z</time>
      </trkpt>
      <trkpt lat="48.39228" lon="-0.88488">
        <ele>226.71</ele>
        <time>2020-06-27T16:48:24Z</time>
      </trkpt>
      <trkpt lat="48.39228" lon="-0.88488">
        <ele>226.71</ele>
        <time>2020-06-27T16:48:30Z</time>
      </trkpt>
      <trkpt lat="48.39228" lon="-0.88488">
        <ele>226.71</ele>
        <time>2020-06-27T16:48:35Z</time>
      </trkpt>
      <trkpt lat="48.39228" lon="-0.88488">
        <ele>226.71</ele>
        <time>2020-06-27T16:48:40Z</time>
      </trkpt>
      <trkpt lat="48.39228" lon="-0.88488">
        <ele>226.71</ele>
        <time>2020-06-27T16:48:46Z</time>
      </trkpt>
      <trkpt lat="48.39228" lon="-0.88488">
        <ele>226.71</ele>
        <time>2020-06-27T16:48:52Z</time>
      </trkpt>
      <trkpt lat="48.39228" lon="-0.88488">
        <ele>226.71</ele>
        <time>2020-06-27T16:48:57Z</time>
      </trkpt>
      <trkpt lat="48.39228" lon="-0.88488">
        <ele>226.71</ele>
        <time>2020-06-27T16:49:03Z</time>
      </trkpt>
      <trkpt lat="48.39228" lon="-0.88488">
        <ele>226.71</ele>
        <time>2020-06-27T16:49:08Z</time>
      </trkpt>
      <trkpt lat="48.39228" lon="-0.88488">
        <ele>226.71</ele>
        <time>2020-06-27T16:49:14Z</time>
      </trkpt>
      <trkpt lat="48.39228" lon="-0.88488">
        <ele>226.71</ele>
        <time>2020-06-27T16:49:20Z</time>
      </trkpt>
      <trkpt lat="48.39228" lon="-0.88488">
        <ele>226.71</ele>
        <time>2020-06-27T16:49:25Z</time>
      </trkpt>
      <trkpt lat="48.39228" lon="-0.88488">
        <ele>226.71</ele>
        <time>2020-06-27T16:49:31Z</time>
      </trkpt>
      <trkpt lat="48.39228" lon="-0.88488">
        <ele>226.71</ele>
        <time>2020-06-27T16:49:37Z</time>
      </trkpt>
      <trkpt lat="48.39228" lon="-0.88488">
        <ele>226.71</ele>
        <time>2020-06-27T16:49:42Z</time>
      </trkpt>
      <trkpt lat="48.39228" lon="-0.88488">
        <ele>226.71</ele>
        <time>2020-06-27T16:49:48Z</time>
      </trkpt>
      <trkpt lat="48.39228" lon="-0.88488">
        <ele>226.71</ele>
        <time>2020-06-27T16:49:54Z</time>
      </trkpt>
      <trkpt lat="48.39228" lon="-0.88488">
        <ele>226.71</ele>
        <time>2020-06-27T16:50:00Z</time>
      </trkpt>
      <trkpt lat="48.39228" lon="-0.88488">
        <ele>226.71</ele>
        <time>2020-06-27T16:50:05Z</time>
      </trkpt>
      <trkpt lat="48.39228" lon="-0.88488">
        <ele>226.71</ele>
        <time>2020-06-27T16:50:11Z</time>
      </trkpt>
      <trkpt lat="48.39228" lon="-0.88488">
        <ele>226.71</ele>
        <time>2020-06-27T16:50:17Z</time>
      </trkpt>
      <trkpt lat="48.39228" lon="-0.88488">
        <ele>226.71</ele>
        <time>2020-06-27T16:50:23Z</time>
      </trkpt>
      <trkpt lat="48.39228" lon="-0.88488">
        <ele>226.71</ele>
        <time>2020-06-27T16:50:28Z</time>
      </trkpt>
      <trkpt lat="48.39227" lon="-0.88488">
        <ele>226.71</ele>
        <time>2020-06-27T16:50:34Z</time>
      </trkpt>
      <trkpt lat="48.39227" lon="-0.88487">
        <ele>226.71</ele>
        <time>2020-06-27T16:50:39Z</time>
      </trkpt>
      <trkpt lat="48.39228" lon="-0.88486">
        <ele>227.71</ele>
        <time>2020-06-27T16:50:45Z</time>
      </trkpt>
      <trkpt lat="48.39227" lon="-0.88488">
        <ele>225.71</ele>
        <time>2020-06-27T16:50:51Z</time>
      </trkpt>
      <trkpt lat="48.39227" lon="-0.88489">
        <ele>225.71</ele>
        <time>2020-06-27T16:50:57Z</time>
      </trkpt>
      <trkpt lat="48.39227" lon="-0.88489">
        <ele>225.71</ele>
        <time>2020-06-27T16:51:03Z</time>
      </trkpt>
      <trkpt lat="48.39228" lon="-0.88493">
        <ele>225.71</ele>
        <time>2020-06-27T16:51:08Z</time>
      </trkpt>
      <trkpt lat="48.39229" lon="-0.88499">
        <ele>225.71</ele>
        <time>2020-06-27T16:51:13Z</time>
      </trkpt>
      <trkpt lat="48.39229" lon="-0.88505">
        <ele>223.71</ele>
        <time>2020-06-27T16:51:19Z</time>
      </trkpt>
      <trkpt lat="48.39228" lon="-0.8851">
        <ele>223.71</ele>
        <time>2020-06-27T16:51:24Z</time>
      </trkpt>
      <trkpt lat="48.3923" lon="-0.88519">
        <ele>223.71</ele>
        <time>2020-06-27T16:51:30Z</time>
      </trkpt>
      <trkpt lat="48.3923" lon="-0.88526">
        <ele>224.71</ele>
        <time>2020-06-27T16:51:35Z</time>
      </trkpt>
      <trkpt lat="48.3923" lon="-0.88535">
        <ele>225.71</ele>
        <time>2020-06-27T16:51:41Z</time>
      </trkpt>
      <trkpt lat="48.3923" lon="-0.88542">
        <ele>224.71</ele>
        <time>2020-06-27T16:51:46Z</time>
      </trkpt>
      <trkpt lat="48.39229" lon="-0.88549">
        <ele>226.71</ele>
        <time>2020-06-27T16:51:51Z</time>
      </trkpt>
      <trkpt lat="48.3923" lon="-0.88554">
        <ele>227.71</ele>
        <time>2020-06-27T16:51:57Z</time>
      </trkpt>
      <trkpt lat="48.3923" lon="-0.88555">
        <ele>227.71</ele>
        <time>2020-06-27T16:52:03Z</time>
      </trkpt>
      <trkpt lat="48.3923" lon="-0.88556">
        <ele>227.71</ele>
        <time>2020-06-27T16:52:09Z</time>
      </trkpt>
      <trkpt lat="48.39226" lon="-0.8857">
        <ele>226.71</ele>
        <time>2020-06-27T16:52:14Z</time>
      </trkpt>
      <trkpt lat="48.39225" lon="-0.88579">
        <ele>226.71</ele>
        <time>2020-06-27T16:52:20Z</time>
      </trkpt>
      <trkpt lat="48.39225" lon="-0.88587">
        <ele>228.71</ele>
        <time>2020-06-27T16:52:25Z</time>
      </trkpt>
      <trkpt lat="48.39224" lon="-0.88595">
        <ele>230.71</ele>
        <time>2020-06-27T16:52:31Z</time>
      </trkpt>
      <trkpt lat="48.39223" lon="-0.88604">
        <ele>228.71</ele>
        <time>2020-06-27T16:52:37Z</time>
      </trkpt>
      <trkpt lat="48.39225" lon="-0.88613">
        <ele>229.71</ele>
        <time>2020-06-27T16:52:42Z</time>
      </trkpt>
      <trkpt lat="48.39223" lon="-0.88621">
        <ele>229.71</ele>
        <time>2020-06-27T16:52:48Z</time>
      </trkpt>
      <trkpt lat="48.39224" lon="-0.88628">
        <ele>228.71</ele>
        <time>2020-06-27T16:52:53Z</time>
      </trkpt>
      <trkpt lat="48.39224" lon="-0.88635">
        <ele>226.71</ele>
        <time>2020-06-27T16:52:59Z</time>
      </trkpt>
      <trkpt lat="48.39225" lon="-0.88643">
        <ele>226.71</ele>
        <time>2020-06-27T16:53:04Z</time>
      </trkpt>
      <trkpt lat="48.39226" lon="-0.88651">
        <ele>229.71</ele>
        <time>2020-06-27T16:53:10Z</time>
      </trkpt>
      <trkpt lat="48.39228" lon="-0.88657">
        <ele>229.71</ele>
        <time>2020-06-27T16:53:16Z</time>
      </trkpt>
      <trkpt lat="48.39229" lon="-0.88662">
        <ele>229.71</ele>
        <time>2020-06-27T16:53:21Z</time>
      </trkpt>
      <trkpt lat="48.39232" lon="-0.8867">
        <ele>228.71</ele>
        <time>2020-06-27T16:53:27Z</time>
      </trkpt>
      <trkpt lat="48.39233" lon="-0.88678">
        <ele>228.71</ele>
        <time>2020-06-27T16:53:32Z</time>
      </trkpt>
      <trkpt lat="48.39233" lon="-0.88685">
        <ele>228.71</ele>
        <time>2020-06-27T16:53:37Z</time>
      </trkpt>
      <trkpt lat="48.39236" lon="-0.88691">
        <ele>230.71</ele>
        <time>2020-06-27T16:53:42Z</time>
      </trkpt>
      <trkpt lat="48.39236" lon="-0.88698">
        <ele>229.71</ele>
        <time>2020-06-27T16:53:48Z</time>
      </trkpt>
      <trkpt lat="48.39238" lon="-0.88704">
        <ele>228.71</ele>
        <time>2020-06-27T16:53:53Z</time>
      </trkpt>
      <trkpt lat="48.3924" lon="-0.88713">
        <ele>227.71</ele>
        <time>2020-06-27T16:53:59Z</time>
      </trkpt>
      <trkpt lat="48.39241" lon="-0.8872">
        <ele>226.71</ele>
        <time>2020-06-27T16:54:04Z</time>
      </trkpt>
      <trkpt lat="48.39244" lon="-0.88729">
        <ele>228.71</ele>
        <time>2020-06-27T16:54:10Z</time>
      </trkpt>
      <trkpt lat="48.39244" lon="-0.88739">
        <ele>229.71</ele>
        <time>2020-06-27T16:54:16Z</time>
      </trkpt>
      <trkpt lat="48.39245" lon="-0.88748">
        <ele>232.71</ele>
        <time>2020-06-27T16:54:22Z</time>
      </trkpt>
      <trkpt lat="48.39246" lon="-0.88756">
        <ele>232.71</ele>
        <time>2020-06-27T16:54:27Z</time>
      </trkpt>
      <trkpt lat="48.39249" lon="-0.88765">
        <ele>229.71</ele>
        <time>2020-06-27T16:54:33Z</time>
      </trkpt>
      <trkpt lat="48.39249" lon="-0.88772">
        <ele>228.71</ele>
        <time>2020-06-27T16:54:39Z</time>
      </trkpt>
      <trkpt lat="48.3925" lon="-0.8878">
        <ele>228.71</ele>
        <time>2020-06-27T16:54:44Z</time>
      </trkpt>
      <trkpt lat="48.39251" lon="-0.88789">
        <ele>228.71</ele>
        <time>2020-06-27T16:54:49Z</time>
      </trkpt>
      <trkpt lat="48.39252" lon="-0.88798">
        <ele>227.71</ele>
        <time>2020-06-27T16:54:55Z</time>
      </trkpt>
      <trkpt lat="48.39255" lon="-0.88804">
        <ele>229.71</ele>
        <time>2020-06-27T16:55:00Z</time>
      </trkpt>
      <trkpt lat="48.39256" lon="-0.88812">
        <ele>230.71</ele>
        <time>2020-06-27T16:55:05Z</time>
      </trkpt>
      <trkpt lat="48.39258" lon="-0.88822">
        <ele>230.71</ele>
        <time>2020-06-27T16:55:11Z</time>
      </trkpt>
      <trkpt lat="48.39259" lon="-0.8883">
        <ele>230.71</ele>
        <time>2020-06-27T16:55:16Z</time>
      </trkpt>
      <trkpt lat="48.3926" lon="-0.88837">
        <ele>231.71</ele>
        <time>2020-06-27T16:55:21Z</time>
      </trkpt>
      <trkpt lat="48.39261" lon="-0.88845">
        <ele>230.71</ele>
        <time>2020-06-27T16:55:27Z</time>
      </trkpt>
      <trkpt lat="48.39262" lon="-0.88853">
        <ele>229.71</ele>
        <time>2020-06-27T16:55:33Z</time>
      </trkpt>
      <trkpt lat="48.39263" lon="-0.88861">
        <ele>228.71</ele>
        <time>2020-06-27T16:55:39Z</time>
      </trkpt>
      <trkpt lat="48.39264" lon="-0.88872">
        <ele>229.71</ele>
        <time>2020-06-27T16:55:45Z</time>
      </trkpt>
      <trkpt lat="48.39264" lon="-0.88878">
        <ele>228.71</ele>
        <time>2020-06-27T16:55:50Z</time>
      </trkpt>
      <trkpt lat="48.39265" lon="-0.88885">
        <ele>228.71</ele>
        <time>2020-06-27T16:55:56Z</time>
      </trkpt>
      <trkpt lat="48.39267" lon="-0.88891">
        <ele>228.71</ele>
        <time>2020-06-27T16:56:01Z</time>
      </trkpt>
      <trkpt lat="48.39267" lon="-0.88893">
        <ele>226.71</ele>
        <time>2020-06-27T16:56:07Z</time>
      </trkpt>
      <trkpt lat="48.39266" lon="-0.88896">
        <ele>226.71</ele>
        <time>2020-06-27T16:56:13Z</time>
      </trkpt>
      <trkpt lat="48.39266" lon="-0.889">
        <ele>226.71</ele>
        <time>2020-06-27T16:56:18Z</time>
      </trkpt>
      <trkpt lat="48.39266" lon="-0.88904">
        <ele>227.71</ele>
        <time>2020-06-27T16:56:23Z</time>
      </trkpt>
      <trkpt lat="48.39268" lon="-0.88907">
        <ele>228.71</ele>
        <time>2020-06-27T16:56:28Z</time>
      </trkpt>
      <trkpt lat="48.39268" lon="-0.88913">
        <ele>228.71</ele>
        <time>2020-06-27T16:56:34Z</time>
      </trkpt>
      <trkpt lat="48.3927" lon="-0.88922">
        <ele>229.71</ele>
        <time>2020-06-27T16:56:39Z</time>
      </trkpt>
      <trkpt lat="48.3927" lon="-0.88935">
        <ele>229.71</ele>
        <time>2020-06-27T16:56:45Z</time>
      </trkpt>
      <trkpt lat="48.39273" lon="-0.88945">
        <ele>232.71</ele>
        <time>2020-06-27T16:56:51Z</time>
      </trkpt>
      <trkpt lat="48.39274" lon="-0.88954">
        <ele>230.71</ele>
        <time>2020-06-27T16:56:57Z</time>
      </trkpt>
      <trkpt lat="48.39277" lon="-0.88962">
        <ele>231.71</ele>
        <time>2020-06-27T16:57:02Z</time>
      </trkpt>
      <trkpt lat="48.3928" lon="-0.88969">
        <ele>232.71</ele>
        <time>2020-06-27T16:57:07Z</time>
      </trkpt>
      <trkpt lat="48.3928" lon="-0.88979">
        <ele>231.71</ele>
        <time>2020-06-27T16:57:12Z</time>
      </trkpt>
      <trkpt lat="48.39281" lon="-0.88985">
        <ele>231.71</ele>
        <time>2020-06-27T16:57:17Z</time>
      </trkpt>
      <trkpt lat="48.39283" lon="-0.88994">
        <ele>232.71</ele>
        <time>2020-06-27T16:57:23Z</time>
      </trkpt>
      <trkpt lat="48.39285" lon="-0.89004">
        <ele>233.71</ele>
        <time>2020-06-27T16:57:29Z</time>
      </trkpt>
      <trkpt lat="48.39286" lon="-0.89013">
        <ele>234.71</ele>
        <time>2020-06-27T16:57:34Z</time>
      </trkpt>
      <trkpt lat="48.39288" lon="-0.89022">
        <ele>233.71</ele>
        <time>2020-06-27T16:57:40Z</time>
      </trkpt>
      <trkpt lat="48.39288" lon="-0.8903">
        <ele>232.71</ele>
        <time>2020-06-27T16:57:46Z</time>
      </trkpt>
      <trkpt lat="48.3929" lon="-0.89037">
        <ele>235.71</ele>
        <time>2020-06-27T16:57:51Z</time>
      </trkpt>
      <trkpt lat="48.39289" lon="-0.89047">
        <ele>234.71</ele>
        <time>2020-06-27T16:57:57Z</time>
      </trkpt>
      <trkpt lat="48.3929" lon="-0.89053">
        <ele>234.71</ele>
        <time>2020-06-27T16:58:02Z</time>
      </trkpt>
      <trkpt lat="48.39291" lon="-0.89061">
        <ele>233.71</ele>
        <time>2020-06-27T16:58:08Z</time>
      </trkpt>
      <trkpt lat="48.39293" lon="-0.89068">
        <ele>233.71</ele>
        <time>2020-06-27T16:58:13Z</time>
      </trkpt>
      <trkpt lat="48.39294" lon="-0.89076">
        <ele>235.71</ele>
        <time>2020-06-27T16:58:18Z</time>
      </trkpt>
      <trkpt lat="48.39298" lon="-0.89087">
        <ele>235.71</ele>
        <time>2020-06-27T16:58:24Z</time>
      </trkpt>
      <trkpt lat="48.39298" lon="-0.89095">
        <ele>234.71</ele>
        <time>2020-06-27T16:58:29Z</time>
      </trkpt>
      <trkpt lat="48.39296" lon="-0.89104">
        <ele>234.71</ele>
        <time>2020-06-27T16:58:35Z</time>
      </trkpt>
      <trkpt lat="48.39297" lon="-0.89112">
        <ele>235.71</ele>
        <time>2020-06-27T16:58:40Z</time>
      </trkpt>
      <trkpt lat="48.39295" lon="-0.89122">
        <ele>235.71</ele>
        <time>2020-06-27T16:58:46Z</time>
      </trkpt>
      <trkpt lat="48.39295" lon="-0.8913">
        <ele>236.71</ele>
        <time>2020-06-27T16:58:52Z</time>
      </trkpt>
      <trkpt lat="48.39296" lon="-0.89135">
        <ele>235.71</ele>
        <time>2020-06-27T16:58:57Z</time>
      </trkpt>
      <trkpt lat="48.39296" lon="-0.89146">
        <ele>236.71</ele>
        <time>2020-06-27T16:59:03Z</time>
      </trkpt>
      <trkpt lat="48.39296" lon="-0.89154">
        <ele>238.71</ele>
        <time>2020-06-27T16:59:08Z</time>
      </trkpt>
      <trkpt lat="48.39297" lon="-0.89164">
        <ele>238.71</ele>
        <time>2020-06-27T16:59:14Z</time>
      </trkpt>
      <trkpt lat="48.39296" lon="-0.89173">
        <ele>236.71</ele>
        <time>2020-06-27T16:59:19Z</time>
      </trkpt>
      <trkpt lat="48.39296" lon="-0.89179">
        <ele>236.71</ele>
        <time>2020-06-27T16:59:24Z</time>
      </trkpt>
      <trkpt lat="48.39297" lon="-0.89187">
        <ele>236.71</ele>
        <time>2020-06-27T16:59:30Z</time>
      </trkpt>
      <trkpt lat="48.39298" lon="-0.89194">
        <ele>236.71</ele>
        <time>2020-06-27T16:59:35Z</time>
      </trkpt>
      <trkpt lat="48.39297" lon="-0.89203">
        <ele>238.71</ele>
        <time>2020-06-27T16:59:41Z</time>
      </trkpt>
      <trkpt lat="48.39298" lon="-0.89213">
        <ele>237.71</ele>
        <time>2020-06-27T16:59:47Z</time>
      </trkpt>
      <trkpt lat="48.39299" lon="-0.89222">
        <ele>238.71</ele>
        <time>2020-06-27T16:59:53Z</time>
      </trkpt>
      <trkpt lat="48.39301" lon="-0.8923">
        <ele>238.71</ele>
        <time>2020-06-27T16:59:58Z</time>
      </trkpt>
      <trkpt lat="48.39302" lon="-0.89234">
        <ele>238.71</ele>
        <time>2020-06-27T17:00:03Z</time>
      </trkpt>
      <trkpt lat="48.39301" lon="-0.89242">
        <ele>238.71</ele>
        <time>2020-06-27T17:00:08Z</time>
      </trkpt>
      <trkpt lat="48.39304" lon="-0.89251">
        <ele>239.71</ele>
        <time>2020-06-27T17:00:14Z</time>
      </trkpt>
      <trkpt lat="48.39305" lon="-0.89258">
        <ele>239.71</ele>
        <time>2020-06-27T17:00:19Z</time>
      </trkpt>
      <trkpt lat="48.39306" lon="-0.89264">
        <ele>239.71</ele>
        <time>2020-06-27T17:00:25Z</time>
      </trkpt>
      <trkpt lat="48.39309" lon="-0.89268">
        <ele>240.71</ele>
        <time>2020-06-27T17:00:30Z</time>
      </trkpt>
      <trkpt lat="48.39311" lon="-0.89274">
        <ele>242.71</ele>
        <time>2020-06-27T17:00:35Z</time>
      </trkpt>
      <trkpt lat="48.39313" lon="-0.89281">
        <ele>241.71</ele>
        <time>2020-06-27T17:00:40Z</time>
      </trkpt>
      <trkpt lat="48.39315" lon="-0.89289">
        <ele>244.71</ele>
        <time>2020-06-27T17:00:46Z</time>
      </trkpt>
      <trkpt lat="48.39315" lon="-0.89295">
        <ele>246.71</ele>
        <time>2020-06-27T17:00:51Z</time>
      </trkpt>
      <trkpt lat="48.39321" lon="-0.89306">
        <ele>248.71</ele>
        <time>2020-06-27T17:00:57Z</time>
      </trkpt>
      <trkpt lat="48.39323" lon="-0.89311">
        <ele>247.71</ele>
        <time>2020-06-27T17:01:03Z</time>
      </trkpt>
      <trkpt lat="48.39326" lon="-0.89318">
        <ele>249.71</ele>
        <time>2020-06-27T17:01:08Z</time>
      </trkpt>
      <trkpt lat="48.39327" lon="-0.89324">
        <ele>247.71</ele>
        <time>2020-06-27T17:01:14Z</time>
      </trkpt>
      <trkpt lat="48.39329" lon="-0.8933">
        <ele>247.71</ele>
        <time>2020-06-27T17:01:20Z</time>
      </trkpt>
      <trkpt lat="48.39333" lon="-0.89339">
        <ele>246.71</ele>
        <time>2020-06-27T17:01:26Z</time>
      </trkpt>
      <trkpt lat="48.39336" lon="-0.89347">
        <ele>247.71</ele>
        <time>2020-06-27T17:01:31Z</time>
      </trkpt>
      <trkpt lat="48.39339" lon="-0.89357">
        <ele>246.71</ele>
        <time>2020-06-27T17:01:37Z</time>
      </trkpt>
      <trkpt lat="48.39341" lon="-0.89365">
        <ele>248.71</ele>
        <time>2020-06-27T17:01:42Z</time>
      </trkpt>
      <trkpt lat="48.39343" lon="-0.89372">
        <ele>249.71</ele>
        <time>2020-06-27T17:01:48Z</time>
      </trkpt>
      <trkpt lat="48.39346" lon="-0.89378">
        <ele>249.71</ele>
        <time>2020-06-27T17:01:53Z</time>
      </trkpt>
      <trkpt lat="48.39347" lon="-0.89383">
        <ele>248.71</ele>
        <time>2020-06-27T17:01:58Z</time>
      </trkpt>
      <trkpt lat="48.39347" lon="-0.89387">
        <ele>247.71</ele>
        <time>2020-06-27T17:02:04Z</time>
      </trkpt>
      <trkpt lat="48.39348" lon="-0.89391">
        <ele>246.71</ele>
        <time>2020-06-27T17:02:09Z</time>
      </trkpt>
      <trkpt lat="48.39352" lon="-0.89404">
        <ele>246.71</ele>
        <time>2020-06-27T17:02:15Z</time>
      </trkpt>
      <trkpt lat="48.39356" lon="-0.89413">
        <ele>248.71</ele>
        <time>2020-06-27T17:02:21Z</time>
      </trkpt>
      <trkpt lat="48.39361" lon="-0.89422">
        <ele>246.71</ele>
        <time>2020-06-27T17:02:27Z</time>
      </trkpt>
      <trkpt lat="48.39362" lon="-0.8943">
        <ele>246.71</ele>
        <time>2020-06-27T17:02:33Z</time>
      </trkpt>
      <trkpt lat="48.39366" lon="-0.89437">
        <ele>246.71</ele>
        <time>2020-06-27T17:02:38Z</time>
      </trkpt>
      <trkpt lat="48.39367" lon="-0.89445">
        <ele>243.71</ele>
        <time>2020-06-27T17:02:44Z</time>
      </trkpt>
      <trkpt lat="48.39372" lon="-0.89449">
        <ele>247.71</ele>
        <time>2020-06-27T17:02:49Z</time>
      </trkpt>
      <trkpt lat="48.39374" lon="-0.89453">
        <ele>248.71</ele>
        <time>2020-06-27T17:02:55Z</time>
      </trkpt>
      <trkpt lat="48.39377" lon="-0.8946">
        <ele>249.71</ele>
        <time>2020-06-27T17:03:00Z</time>
      </trkpt>
      <trkpt lat="48.3938" lon="-0.89468">
        <ele>247.71</ele>
        <time>2020-06-27T17:03:06Z</time>
      </trkpt>
      <trkpt lat="48.39384" lon="-0.89477">
        <ele>246.71</ele>
        <time>2020-06-27T17:03:12Z</time>
      </trkpt>
      <trkpt lat="48.39386" lon="-0.89485">
        <ele>246.71</ele>
        <time>2020-06-27T17:03:17Z</time>
      </trkpt>
      <trkpt lat="48.3939" lon="-0.89494">
        <ele>246.71</ele>
        <time>2020-06-27T17:03:22Z</time>
      </trkpt>
      <trkpt lat="48.39392" lon="-0.89504">
        <ele>245.71</ele>
        <time>2020-06-27T17:03:28Z</time>
      </trkpt>
      <trkpt lat="48.39396" lon="-0.89513">
        <ele>245.71</ele>
        <time>2020-06-27T17:03:33Z</time>
      </trkpt>
      <trkpt lat="48.39396" lon="-0.89521">
        <ele>244.71</ele>
        <time>2020-06-27T17:03:38Z</time>
      </trkpt>
      <trkpt lat="48.39402" lon="-0.89527">
        <ele>247.71</ele>
        <time>2020-06-27T17:03:44Z</time>
      </trkpt>
      <trkpt lat="48.39403" lon="-0.89535">
        <ele>246.71</ele>
        <time>2020-06-27T17:03:50Z</time>
      </trkpt>
      <trkpt lat="48.39405" lon="-0.89544">
        <ele>246.71</ele>
        <time>2020-06-27T17:03:56Z</time>
      </trkpt>
      <trkpt lat="48.39408" lon="-0.89551">
        <ele>246.71</ele>
        <time>2020-06-27T17:04:01Z</time>
      </trkpt>
      <trkpt lat="48.39412" lon="-0.89561">
        <ele>246.71</ele>
        <time>2020-06-27T17:04:07Z</time>
      </trkpt>
      <trkpt lat="48.39415" lon="-0.8957">
        <ele>245.71</ele>
        <time>2020-06-27T17:04:13Z</time>
      </trkpt>
      <trkpt lat="48.39417" lon="-0.89576">
        <ele>244.71</ele>
        <time>2020-06-27T17:04:18Z</time>
      </trkpt>
      <trkpt lat="48.39422" lon="-0.89583">
        <ele>244.71</ele>
        <time>2020-06-27T17:04:24Z</time>
      </trkpt>
      <trkpt lat="48.39423" lon="-0.89591">
        <ele>244.71</ele>
        <time>2020-06-27T17:04:29Z</time>
      </trkpt>
      <trkpt lat="48.39426" lon="-0.89598">
        <ele>243.71</ele>
        <time>2020-06-27T17:04:35Z</time>
      </trkpt>
      <trkpt lat="48.39428" lon="-0.89604">
        <ele>242.71</ele>
        <time>2020-06-27T17:04:41Z</time>
      </trkpt>
      <trkpt lat="48.39431" lon="-0.89613">
        <ele>241.71</ele>
        <time>2020-06-27T17:04:47Z</time>
      </trkpt>
      <trkpt lat="48.39436" lon="-0.89622">
        <ele>242.71</ele>
        <time>2020-06-27T17:04:53Z</time>
      </trkpt>
      <trkpt lat="48.39439" lon="-0.8963">
        <ele>244.71</ele>
        <time>2020-06-27T17:04:59Z</time>
      </trkpt>
      <trkpt lat="48.39442" lon="-0.89637">
        <ele>244.71</ele>
        <time>2020-06-27T17:05:05Z</time>
      </trkpt>
      <trkpt lat="48.39445" lon="-0.89648">
        <ele>242.71</ele>
        <time>2020-06-27T17:05:10Z</time>
      </trkpt>
      <trkpt lat="48.39449" lon="-0.89657">
        <ele>243.71</ele>
        <time>2020-06-27T17:05:16Z</time>
      </trkpt>
      <trkpt lat="48.39454" lon="-0.89666">
        <ele>243.71</ele>
        <time>2020-06-27T17:05:22Z</time>
      </trkpt>
      <trkpt lat="48.39458" lon="-0.89675">
        <ele>246.71</ele>
        <time>2020-06-27T17:05:28Z</time>
      </trkpt>
      <trkpt lat="48.39462" lon="-0.89683">
        <ele>245.71</ele>
        <time>2020-06-27T17:05:33Z</time>
      </trkpt>
      <trkpt lat="48.39467" lon="-0.8969">
        <ele>245.71</ele>
        <time>2020-06-27T17:05:38Z</time>
      </trkpt>
      <trkpt lat="48.39469" lon="-0.89697">
        <ele>244.71</ele>
        <time>2020-06-27T17:05:44Z</time>
      </trkpt>
      <trkpt lat="48.39473" lon="-0.89704">
        <ele>244.71</ele>
        <time>2020-06-27T17:05:50Z</time>
      </trkpt>
      <trkpt lat="48.39478" lon="-0.8971">
        <ele>244.71</ele>
        <time>2020-06-27T17:05:56Z</time>
      </trkpt>
      <trkpt lat="48.39482" lon="-0.89715">
        <ele>242.71</ele>
        <time>2020-06-27T17:06:01Z</time>
      </trkpt>
      <trkpt lat="48.39486" lon="-0.8972">
        <ele>241.71</ele>
        <time>2020-06-27T17:06:06Z</time>
      </trkpt>
      <trkpt lat="48.39491" lon="-0.89724">
        <ele>240.71</ele>
        <time>2020-06-27T17:06:11Z</time>
      </trkpt>
      <trkpt lat="48.39495" lon="-0.89729">
        <ele>240.71</ele>
        <time>2020-06-27T17:06:17Z</time>
      </trkpt>
      <trkpt lat="48.395" lon="-0.89733">
        <ele>239.71</ele>
        <time>2020-06-27T17:06:22Z</time>
      </trkpt>
      <trkpt lat="48.39506" lon="-0.89736">
        <ele>240.71</ele>
        <time>2020-06-27T17:06:28Z</time>
      </trkpt>
      <trkpt lat="48.39511" lon="-0.8974">
        <ele>241.71</ele>
        <time>2020-06-27T17:06:33Z</time>
      </trkpt>
      <trkpt lat="48.39518" lon="-0.89745">
        <ele>242.71</ele>
        <time>2020-06-27T17:06:39Z</time>
      </trkpt>
      <trkpt lat="48.39523" lon="-0.89749">
        <ele>243.71</ele>
        <time>2020-06-27T17:06:44Z</time>
      </trkpt>
      <trkpt lat="48.39527" lon="-0.89754">
        <ele>241.71</ele>
        <time>2020-06-27T17:06:50Z</time>
      </trkpt>
      <trkpt lat="48.39532" lon="-0.89756">
        <ele>241.71</ele>
        <time>2020-06-27T17:06:55Z</time>
      </trkpt>
      <trkpt lat="48.39536" lon="-0.89761">
        <ele>241.71</ele>
        <time>2020-06-27T17:07:00Z</time>
      </trkpt>
      <trkpt lat="48.39542" lon="-0.89766">
        <ele>242.71</ele>
        <time>2020-06-27T17:07:06Z</time>
      </trkpt>
      <trkpt lat="48.39547" lon="-0.89771">
        <ele>242.71</ele>
        <time>2020-06-27T17:07:11Z</time>
      </trkpt>
      <trkpt lat="48.39552" lon="-0.89777">
        <ele>244.71</ele>
        <time>2020-06-27T17:07:17Z</time>
      </trkpt>
      <trkpt lat="48.39558" lon="-0.89782">
        <ele>243.71</ele>
        <time>2020-06-27T17:07:23Z</time>
      </trkpt>
      <trkpt lat="48.39562" lon="-0.89786">
        <ele>243.71</ele>
        <time>2020-06-27T17:07:29Z</time>
      </trkpt>
      <trkpt lat="48.39566" lon="-0.8979">
        <ele>244.71</ele>
        <time>2020-06-27T17:07:35Z</time>
      </trkpt>
      <trkpt lat="48.39571" lon="-0.89791">
        <ele>243.71</ele>
        <time>2020-06-27T17:07:41Z</time>
      </trkpt>
      <trkpt lat="48.39576" lon="-0.89794">
        <ele>243.71</ele>
        <time>2020-06-27T17:07:47Z</time>
      </trkpt>
      <trkpt lat="48.3958" lon="-0.89798">
        <ele>244.71</ele>
        <time>2020-06-27T17:07:53Z</time>
      </trkpt>
      <trkpt lat="48.39585" lon="-0.89804">
        <ele>245.71</ele>
        <time>2020-06-27T17:07:59Z</time>
      </trkpt>
      <trkpt lat="48.39589" lon="-0.8981">
        <ele>245.71</ele>
        <time>2020-06-27T17:08:04Z</time>
      </trkpt>
      <trkpt lat="48.39591" lon="-0.89812">
        <ele>244.71</ele>
        <time>2020-06-27T17:08:10Z</time>
      </trkpt>
      <trkpt lat="48.39591" lon="-0.89814">
        <ele>245.71</ele>
        <time>2020-06-27T17:08:15Z</time>
      </trkpt>
      <trkpt lat="48.39594" lon="-0.89818">
        <ele>245.71</ele>
        <time>2020-06-27T17:08:21Z</time>
      </trkpt>
      <trkpt lat="48.39598" lon="-0.89823">
        <ele>245.71</ele>
        <time>2020-06-27T17:08:26Z</time>
      </trkpt>
      <trkpt lat="48.39602" lon="-0.8983">
        <ele>245.71</ele>
        <time>2020-06-27T17:08:32Z</time>
      </trkpt>
      <trkpt lat="48.39605" lon="-0.89836">
        <ele>245.71</ele>
        <time>2020-06-27T17:08:37Z</time>
      </trkpt>
      <trkpt lat="48.3961" lon="-0.89842">
        <ele>245.71</ele>
        <time>2020-06-27T17:08:43Z</time>
      </trkpt>
      <trkpt lat="48.39614" lon="-0.89848">
        <ele>244.71</ele>
        <time>2020-06-27T17:08:49Z</time>
      </trkpt>
      <trkpt lat="48.39619" lon="-0.89855">
        <ele>246.71</ele>
        <time>2020-06-27T17:08:54Z</time>
      </trkpt>
      <trkpt lat="48.39623" lon="-0.89862">
        <ele>245.71</ele>
        <time>2020-06-27T17:09:00Z</time>
      </trkpt>
      <trkpt lat="48.39628" lon="-0.89869">
        <ele>246.71</ele>
        <time>2020-06-27T17:09:06Z</time>
      </trkpt>
      <trkpt lat="48.39631" lon="-0.89877">
        <ele>245.71</ele>
        <time>2020-06-27T17:09:12Z</time>
      </trkpt>
      <trkpt lat="48.39635" lon="-0.89885">
        <ele>244.71</ele>
        <time>2020-06-27T17:09:18Z</time>
      </trkpt>
      <trkpt lat="48.3964" lon="-0.89889">
        <ele>245.71</ele>
        <time>2020-06-27T17:09:23Z</time>
      </trkpt>
      <trkpt lat="48.39643" lon="-0.89895">
        <ele>245.71</ele>
        <time>2020-06-27T17:09:29Z</time>
      </trkpt>
      <trkpt lat="48.39649" lon="-0.89902">
        <ele>244.71</ele>
        <time>2020-06-27T17:09:34Z</time>
      </trkpt>
      <trkpt lat="48.39652" lon="-0.89908">
        <ele>244.71</ele>
        <time>2020-06-27T17:09:40Z</time>
      </trkpt>
      <trkpt lat="48.39657" lon="-0.89914">
        <ele>244.71</ele>
        <time>2020-06-27T17:09:45Z</time>
      </trkpt>
      <trkpt lat="48.39662" lon="-0.89919">
        <ele>245.71</ele>
        <time>2020-06-27T17:09:51Z</time>
      </trkpt>
      <trkpt lat="48.39666" lon="-0.89924">
        <ele>245.71</ele>
        <time>2020-06-27T17:09:56Z</time>
      </trkpt>
      <trkpt lat="48.39671" lon="-0.89931">
        <ele>245.71</ele>
        <time>2020-06-27T17:10:02Z</time>
      </trkpt>
      <trkpt lat="48.39674" lon="-0.89935">
        <ele>244.71</ele>
        <time>2020-06-27T17:10:07Z</time>
      </trkpt>
      <trkpt lat="48.39678" lon="-0.89941">
        <ele>245.71</ele>
        <time>2020-06-27T17:10:13Z</time>
      </trkpt>
      <trkpt lat="48.39682" lon="-0.89947">
        <ele>243.71</ele>
        <time>2020-06-27T17:10:18Z</time>
      </trkpt>
      <trkpt lat="48.39686" lon="-0.89953">
        <ele>243.71</ele>
        <time>2020-06-27T17:10:23Z</time>
      </trkpt>
      <trkpt lat="48.3969" lon="-0.89959">
        <ele>245.71</ele>
        <time>2020-06-27T17:10:29Z</time>
      </trkpt>
      <trkpt lat="48.39695" lon="-0.89964">
        <ele>245.71</ele>
        <time>2020-06-27T17:10:35Z</time>
      </trkpt>
      <trkpt lat="48.397" lon="-0.8997">
        <ele>245.71</ele>
        <time>2020-06-27T17:10:41Z</time>
      </trkpt>
      <trkpt lat="48.39705" lon="-0.89977">
        <ele>244.71</ele>
        <time>2020-06-27T17:10:47Z</time>
      </trkpt>
      <trkpt lat="48.3971" lon="-0.89982">
        <ele>245.71</ele>
        <time>2020-06-27T17:10:53Z</time>
      </trkpt>
      <trkpt lat="48.39714" lon="-0.89987">
        <ele>245.71</ele>
        <time>2020-06-27T17:10:59Z</time>
      </trkpt>
      <trkpt lat="48.39719" lon="-0.89991">
        <ele>247.71</ele>
        <time>2020-06-27T17:11:04Z</time>
      </trkpt>
      <trkpt lat="48.39723" lon="-0.89994">
        <ele>248.71</ele>
        <time>2020-06-27T17:11:09Z</time>
      </trkpt>
      <trkpt lat="48.39725" lon="-0.89995">
        <ele>249.71</ele>
        <time>2020-06-27T17:11:14Z</time>
      </trkpt>
      <trkpt lat="48.39729" lon="-0.90001">
        <ele>249.71</ele>
        <time>2020-06-27T17:11:20Z</time>
      </trkpt>
      <trkpt lat="48.39736" lon="-0.90008">
        <ele>249.71</ele>
        <time>2020-06-27T17:11:26Z</time>
      </trkpt>
      <trkpt lat="48.39741" lon="-0.90011">
        <ele>251.71</ele>
        <time>2020-06-27T17:11:32Z</time>
      </trkpt>
      <trkpt lat="48.39743" lon="-0.90013">
        <ele>251.71</ele>
        <time>2020-06-27T17:11:37Z</time>
      </trkpt>
      <trkpt lat="48.39749" lon="-0.90012">
        <ele>251.71</ele>
        <time>2020-06-27T17:11:43Z</time>
      </trkpt>
      <trkpt lat="48.39754" lon="-0.9001">
        <ele>251.71</ele>
        <time>2020-06-27T17:11:49Z</time>
      </trkpt>
      <trkpt lat="48.39758" lon="-0.90006">
        <ele>250.71</ele>
        <time>2020-06-27T17:11:55Z</time>
      </trkpt>
      <trkpt lat="48.39759" lon="-0.90007">
        <ele>250.71</ele>
        <time>2020-06-27T17:12:00Z</time>
      </trkpt>
      <trkpt lat="48.39763" lon="-0.90003">
        <ele>248.71</ele>
        <time>2020-06-27T17:12:06Z</time>
      </trkpt>
      <trkpt lat="48.39769" lon="-0.89998">
        <ele>250.71</ele>
        <time>2020-06-27T17:12:12Z</time>
      </trkpt>
      <trkpt lat="48.39774" lon="-0.89995">
        <ele>251.71</ele>
        <time>2020-06-27T17:12:18Z</time>
      </trkpt>
      <trkpt lat="48.39779" lon="-0.89993">
        <ele>251.71</ele>
        <time>2020-06-27T17:12:23Z</time>
      </trkpt>
      <trkpt lat="48.39784" lon="-0.8999">
        <ele>250.71</ele>
        <time>2020-06-27T17:12:28Z</time>
      </trkpt>
      <trkpt lat="48.39789" lon="-0.89987">
        <ele>248.71</ele>
        <time>2020-06-27T17:12:34Z</time>
      </trkpt>
      <trkpt lat="48.39793" lon="-0.89983">
        <ele>247.71</ele>
        <time>2020-06-27T17:12:39Z</time>
      </trkpt>
      <trkpt lat="48.39799" lon="-0.89978">
        <ele>249.71</ele>
        <time>2020-06-27T17:12:45Z</time>
      </trkpt>
      <trkpt lat="48.39804" lon="-0.89973">
        <ele>249.71</ele>
        <time>2020-06-27T17:12:51Z</time>
      </trkpt>
      <trkpt lat="48.39809" lon="-0.89968">
        <ele>249.71</ele>
        <time>2020-06-27T17:12:57Z</time>
      </trkpt>
      <trkpt lat="48.3981" lon="-0.89966">
        <ele>249.71</ele>
        <time>2020-06-27T17:13:02Z</time>
      </trkpt>
      <trkpt lat="48.3981" lon="-0.89964">
        <ele>248.71</ele>
        <time>2020-06-27T17:13:08Z</time>
      </trkpt>
      <trkpt lat="48.39809" lon="-0.89965">
        <ele>248.71</ele>
        <time>2020-06-27T17:13:14Z</time>
      </trkpt>
      <trkpt lat="48.3981" lon="-0.8997">
        <ele>247.71</ele>
        <time>2020-06-27T17:13:20Z</time>
      </trkpt>
      <trkpt lat="48.39809" lon="-0.89972">
        <ele>246.71</ele>
        <time>2020-06-27T17:13:26Z</time>
      </trkpt>
      <trkpt lat="48.39804" lon="-0.89979">
        <ele>246.71</ele>
        <time>2020-06-27T17:13:32Z</time>
      </trkpt>
      <trkpt lat="48.39799" lon="-0.89983">
        <ele>248.71</ele>
        <time>2020-06-27T17:13:37Z</time>
      </trkpt>
      <trkpt lat="48.39794" lon="-0.89987">
        <ele>246.71</ele>
        <time>2020-06-27T17:13:43Z</time>
      </trkpt>
      <trkpt lat="48.39789" lon="-0.89991">
        <ele>248.71</ele>
        <time>2020-06-27T17:13:48Z</time>
      </trkpt>
      <trkpt lat="48.39784" lon="-0.89995">
        <ele>249.71</ele>
        <time>2020-06-27T17:13:54Z</time>
      </trkpt>
      <trkpt lat="48.39779" lon="-0.89999">
        <ele>250.71</ele>
        <time>2020-06-27T17:13:59Z</time>
      </trkpt>
      <trkpt lat="48.39772" lon="-0.90003">
        <ele>247.71</ele>
        <time>2020-06-27T17:14:05Z</time>
      </trkpt>
      <trkpt lat="48.39768" lon="-0.90005">
        <ele>250.71</ele>
        <time>2020-06-27T17:14:10Z</time>
      </trkpt>
      <trkpt lat="48.39763" lon="-0.9001">
        <ele>247.71</ele>
        <time>2020-06-27T17:14:16Z</time>
      </trkpt>
      <trkpt lat="48.39759" lon="-0.90014">
        <ele>249.71</ele>
        <time>2020-06-27T17:14:21Z</time>
      </trkpt>
      <trkpt lat="48.39754" lon="-0.90019">
        <ele>248.71</ele>
        <time>2020-06-27T17:14:27Z</time>
      </trkpt>
      <trkpt lat="48.39749" lon="-0.9002">
        <ele>251.71</ele>
        <time>2020-06-27T17:14:32Z</time>
      </trkpt>
      <trkpt lat="48.39741" lon="-0.90014">
        <ele>252.71</ele>
        <time>2020-06-27T17:14:37Z</time>
      </trkpt>
      <trkpt lat="48.39739" lon="-0.90011">
        <ele>251.71</ele>
        <time>2020-06-27T17:14:43Z</time>
      </trkpt>
      <trkpt lat="48.39743" lon="-0.90016">
        <ele>250.71</ele>
        <time>2020-06-27T17:14:49Z</time>
      </trkpt>
      <trkpt lat="48.39748" lon="-0.90026">
        <ele>250.71</ele>
        <time>2020-06-27T17:14:54Z</time>
      </trkpt>
      <trkpt lat="48.39753" lon="-0.90031">
        <ele>251.71</ele>
        <time>2020-06-27T17:15:00Z</time>
      </trkpt>
      <trkpt lat="48.39756" lon="-0.90039">
        <ele>250.71</ele>
        <time>2020-06-27T17:15:05Z</time>
      </trkpt>
      <trkpt lat="48.3976" lon="-0.90043">
        <ele>250.71</ele>
        <time>2020-06-27T17:15:11Z</time>
      </trkpt>
      <trkpt lat="48.39765" lon="-0.90048">
        <ele>249.71</ele>
        <time>2020-06-27T17:15:17Z</time>
      </trkpt>
      <trkpt lat="48.3977" lon="-0.90058">
        <ele>248.71</ele>
        <time>2020-06-27T17:15:23Z</time>
      </trkpt>
      <trkpt lat="48.39775" lon="-0.90066">
        <ele>246.71</ele>
        <time>2020-06-27T17:15:29Z</time>
      </trkpt>
      <trkpt lat="48.39782" lon="-0.90074">
        <ele>248.71</ele>
        <time>2020-06-27T17:15:35Z</time>
      </trkpt>
      <trkpt lat="48.39787" lon="-0.9008">
        <ele>250.71</ele>
        <time>2020-06-27T17:15:40Z</time>
      </trkpt>
      <trkpt lat="48.39791" lon="-0.90086">
        <ele>251.71</ele>
        <time>2020-06-27T17:15:46Z</time>
      </trkpt>
      <trkpt lat="48.39795" lon="-0.90094">
        <ele>250.71</ele>
        <time>2020-06-27T17:15:52Z</time>
      </trkpt>
      <trkpt lat="48.39797" lon="-0.90099">
        <ele>249.71</ele>
        <time>2020-06-27T17:15:57Z</time>
      </trkpt>
      <trkpt lat="48.39801" lon="-0.90101">
        <ele>246.71</ele>
        <time>2020-06-27T17:16:03Z</time>
      </trkpt>
      <trkpt lat="48.39806" lon="-0.901">
        <ele>247.71</ele>
        <time>2020-06-27T17:16:08Z</time>
      </trkpt>
      <trkpt lat="48.3981" lon="-0.90098">
        <ele>247.71</ele>
        <time>2020-06-27T17:16:13Z</time>
      </trkpt>
      <trkpt lat="48.39815" lon="-0.90094">
        <ele>245.71</ele>
        <time>2020-06-27T17:16:19Z</time>
      </trkpt>
      <trkpt lat="48.39818" lon="-0.90091">
        <ele>245.71</ele>
        <time>2020-06-27T17:16:24Z</time>
      </trkpt>
      <trkpt lat="48.39824" lon="-0.90088">
        <ele>243.71</ele>
        <time>2020-06-27T17:16:29Z</time>
      </trkpt>
      <trkpt lat="48.39829" lon="-0.90088">
        <ele>241.71</ele>
        <time>2020-06-27T17:16:35Z</time>
      </trkpt>
      <trkpt lat="48.39836" lon="-0.90084">
        <ele>242.71</ele>
        <time>2020-06-27T17:16:41Z</time>
      </trkpt>
      <trkpt lat="48.3984" lon="-0.90083">
        <ele>244.71</ele>
        <time>2020-06-27T17:16:46Z</time>
      </trkpt>
      <trkpt lat="48.39844" lon="-0.90081">
        <ele>243.71</ele>
        <time>2020-06-27T17:16:51Z</time>
      </trkpt>
      <trkpt lat="48.3985" lon="-0.90079">
        <ele>243.71</ele>
        <time>2020-06-27T17:16:57Z</time>
      </trkpt>
      <trkpt lat="48.39855" lon="-0.90076">
        <ele>243.71</ele>
        <time>2020-06-27T17:17:02Z</time>
      </trkpt>
      <trkpt lat="48.39859" lon="-0.90073">
        <ele>242.71</ele>
        <time>2020-06-27T17:17:07Z</time>
      </trkpt>
      <trkpt lat="48.39865" lon="-0.90069">
        <ele>245.71</ele>
        <time>2020-06-27T17:17:13Z</time>
      </trkpt>
      <trkpt lat="48.39869" lon="-0.9007">
        <ele>245.71</ele>
        <time>2020-06-27T17:17:18Z</time>
      </trkpt>
      <trkpt lat="48.39873" lon="-0.90067">
        <ele>246.71</ele>
        <time>2020-06-27T17:17:24Z</time>
      </trkpt>
      <trkpt lat="48.3988" lon="-0.90064">
        <ele>247.71</ele>
        <time>2020-06-27T17:17:30Z</time>
      </trkpt>
      <trkpt lat="48.39881" lon="-0.90061">
        <ele>245.71</ele>
        <time>2020-06-27T17:17:35Z</time>
      </trkpt>
      <trkpt lat="48.39883" lon="-0.90059">
        <ele>245.71</ele>
        <time>2020-06-27T17:17:40Z</time>
      </trkpt>
      <trkpt lat="48.39889" lon="-0.90056">
        <ele>243.71</ele>
        <time>2020-06-27T17:17:46Z</time>
      </trkpt>
      <trkpt lat="48.39896" lon="-0.90053">
        <ele>241.71</ele>
        <time>2020-06-27T17:17:51Z</time>
      </trkpt>
      <trkpt lat="48.39899" lon="-0.90048">
        <ele>243.71</ele>
        <time>2020-06-27T17:17:56Z</time>
      </trkpt>
      <trkpt lat="48.39908" lon="-0.90048">
        <ele>240.71</ele>
        <time>2020-06-27T17:18:02Z</time>
      </trkpt>
      <trkpt lat="48.39914" lon="-0.90045">
        <ele>241.71</ele>
        <time>2020-06-27T17:18:08Z</time>
      </trkpt>
      <trkpt lat="48.39918" lon="-0.90045">
        <ele>245.71</ele>
        <time>2020-06-27T17:18:14Z</time>
      </trkpt>
      <trkpt lat="48.39922" lon="-0.90045">
        <ele>243.71</ele>
        <time>2020-06-27T17:18:19Z</time>
      </trkpt>
      <trkpt lat="48.39926" lon="-0.90046">
        <ele>241.71</ele>
        <time>2020-06-27T17:18:24Z</time>
      </trkpt>
      <trkpt lat="48.39934" lon="-0.90043">
        <ele>239.71</ele>
        <time>2020-06-27T17:18:30Z</time>
      </trkpt>
      <trkpt lat="48.39938" lon="-0.90043">
        <ele>237.71</ele>
        <time>2020-06-27T17:18:36Z</time>
      </trkpt>
      <trkpt lat="48.39944" lon="-0.90042">
        <ele>241.71</ele>
        <time>2020-06-27T17:18:42Z</time>
      </trkpt>
      <trkpt lat="48.39946" lon="-0.90043">
        <ele>241.71</ele>
        <time>2020-06-27T17:18:48Z</time>
      </trkpt>
      <trkpt lat="48.39947" lon="-0.90043">
        <ele>241.71</ele>
        <time>2020-06-27T17:18:54Z</time>
      </trkpt>
      <trkpt lat="48.39951" lon="-0.90042">
        <ele>240.71</ele>
        <time>2020-06-27T17:19:00Z</time>
      </trkpt>
      <trkpt lat="48.3996" lon="-0.90042">
        <ele>239.71</ele>
        <time>2020-06-27T17:19:05Z</time>
      </trkpt>
      <trkpt lat="48.39968" lon="-0.90039">
        <ele>240.71</ele>
        <time>2020-06-27T17:19:11Z</time>
      </trkpt>
      <trkpt lat="48.39972" lon="-0.90042">
        <ele>240.71</ele>
        <time>2020-06-27T17:19:16Z</time>
      </trkpt>
      <trkpt lat="48.39974" lon="-0.90042">
        <ele>238.71</ele>
        <time>2020-06-27T17:19:22Z</time>
      </trkpt>
      <trkpt lat="48.39979" lon="-0.90043">
        <ele>237.71</ele>
        <time>2020-06-27T17:19:28Z</time>
      </trkpt>
      <trkpt lat="48.39989" lon="-0.90038">
        <ele>238.71</ele>
        <time>2020-06-27T17:19:33Z</time>
      </trkpt>
      <trkpt lat="48.39994" lon="-0.90041">
        <ele>237.71</ele>
        <time>2020-06-27T17:19:39Z</time>
      </trkpt>
      <trkpt lat="48.4" lon="-0.90045">
        <ele>233.71</ele>
        <time>2020-06-27T17:19:44Z</time>
      </trkpt>
      <trkpt lat="48.40006" lon="-0.90048">
        <ele>231.71</ele>
        <time>2020-06-27T17:19:50Z</time>
      </trkpt>
      <trkpt lat="48.4001" lon="-0.90047">
        <ele>232.71</ele>
        <time>2020-06-27T17:19:55Z</time>
      </trkpt>
      <trkpt lat="48.40012" lon="-0.90047">
        <ele>232.71</ele>
        <time>2020-06-27T17:20:00Z</time>
      </trkpt>
      <trkpt lat="48.40022" lon="-0.90049">
        <ele>235.71</ele>
        <time>2020-06-27T17:20:06Z</time>
      </trkpt>
      <trkpt lat="48.40024" lon="-0.90049">
        <ele>234.71</ele>
        <time>2020-06-27T17:20:11Z</time>
      </trkpt>
      <trkpt lat="48.40025" lon="-0.9005">
        <ele>234.71</ele>
        <time>2020-06-27T17:20:17Z</time>
      </trkpt>
      <trkpt lat="48.40026" lon="-0.9005">
        <ele>235.71</ele>
        <time>2020-06-27T17:20:23Z</time>
      </trkpt>
      <trkpt lat="48.40026" lon="-0.9005">
        <ele>235.71</ele>
        <time>2020-06-27T17:20:28Z</time>
      </trkpt>
      <trkpt lat="48.40026" lon="-0.9005">
        <ele>235.71</ele>
        <time>2020-06-27T17:20:34Z</time>
      </trkpt>
      <trkpt lat="48.40032" lon="-0.90053">
        <ele>235.71</ele>
        <time>2020-06-27T17:20:40Z</time>
      </trkpt>
      <trkpt lat="48.4004" lon="-0.90054">
        <ele>236.71</ele>
        <time>2020-06-27T17:20:46Z</time>
      </trkpt>
      <trkpt lat="48.4005" lon="-0.90054">
        <ele>234.71</ele>
        <time>2020-06-27T17:20:52Z</time>
      </trkpt>
      <trkpt lat="48.40056" lon="-0.90056">
        <ele>234.71</ele>
        <time>2020-06-27T17:20:57Z</time>
      </trkpt>
      <trkpt lat="48.40057" lon="-0.90057">
        <ele>234.71</ele>
        <time>2020-06-27T17:21:03Z</time>
      </trkpt>
      <trkpt lat="48.40058" lon="-0.90057">
        <ele>234.71</ele>
        <time>2020-06-27T17:21:08Z</time>
      </trkpt>
      <trkpt lat="48.4006" lon="-0.90057">
        <ele>234.71</ele>
        <time>2020-06-27T17:21:14Z</time>
      </trkpt>
      <trkpt lat="48.40061" lon="-0.90056">
        <ele>234.71</ele>
        <time>2020-06-27T17:21:20Z</time>
      </trkpt>
      <trkpt lat="48.40063" lon="-0.90056">
        <ele>235.71</ele>
        <time>2020-06-27T17:21:26Z</time>
      </trkpt>
      <trkpt lat="48.40072" lon="-0.90057">
        <ele>235.71</ele>
        <time>2020-06-27T17:21:32Z</time>
      </trkpt>
      <trkpt lat="48.40078" lon="-0.90055">
        <ele>233.71</ele>
        <time>2020-06-27T17:21:38Z</time>
      </trkpt>
      <trkpt lat="48.40083" lon="-0.90054">
        <ele>230.71</ele>
        <time>2020-06-27T17:21:44Z</time>
      </trkpt>
      <trkpt lat="48.4009" lon="-0.90054">
        <ele>230.71</ele>
        <time>2020-06-27T17:21:50Z</time>
      </trkpt>
      <trkpt lat="48.4009" lon="-0.90055">
        <ele>230.71</ele>
        <time>2020-06-27T17:21:55Z</time>
      </trkpt>
      <trkpt lat="48.40096" lon="-0.90053">
        <ele>229.71</ele>
        <time>2020-06-27T17:22:01Z</time>
      </trkpt>
      <trkpt lat="48.40104" lon="-0.90054">
        <ele>230.71</ele>
        <time>2020-06-27T17:22:07Z</time>
      </trkpt>
      <trkpt lat="48.40107" lon="-0.90055">
        <ele>229.71</ele>
        <time>2020-06-27T17:22:12Z</time>
      </trkpt>
      <trkpt lat="48.40114" lon="-0.90056">
        <ele>227.71</ele>
        <time>2020-06-27T17:22:18Z</time>
      </trkpt>
      <trkpt lat="48.40122" lon="-0.90055">
        <ele>228.71</ele>
        <time>2020-06-27T17:22:24Z</time>
      </trkpt>
      <trkpt lat="48.40131" lon="-0.90062">
        <ele>226.71</ele>
        <time>2020-06-27T17:22:29Z</time>
      </trkpt>
      <trkpt lat="48.40136" lon="-0.9006">
        <ele>225.71</ele>
        <time>2020-06-27T17:22:34Z</time>
      </trkpt>
      <trkpt lat="48.40142" lon="-0.90059">
        <ele>224.71</ele>
        <time>2020-06-27T17:22:40Z</time>
      </trkpt>
      <trkpt lat="48.40148" lon="-0.90058">
        <ele>223.71</ele>
        <time>2020-06-27T17:22:45Z</time>
      </trkpt>
      <trkpt lat="48.40153" lon="-0.90055">
        <ele>223.71</ele>
        <time>2020-06-27T17:22:51Z</time>
      </trkpt>
      <trkpt lat="48.40159" lon="-0.90053">
        <ele>221.71</ele>
        <time>2020-06-27T17:22:57Z</time>
      </trkpt>
      <trkpt lat="48.40165" lon="-0.9005">
        <ele>220.71</ele>
        <time>2020-06-27T17:23:03Z</time>
      </trkpt>
      <trkpt lat="48.4017" lon="-0.90047">
        <ele>220.71</ele>
        <time>2020-06-27T17:23:09Z</time>
      </trkpt>
      <trkpt lat="48.40175" lon="-0.90044">
        <ele>220.71</ele>
        <time>2020-06-27T17:23:14Z</time>
      </trkpt>
      <trkpt lat="48.4018" lon="-0.90041">
        <ele>219.71</ele>
        <time>2020-06-27T17:23:20Z</time>
      </trkpt>
      <trkpt lat="48.40184" lon="-0.90038">
        <ele>219.71</ele>
        <time>2020-06-27T17:23:25Z</time>
      </trkpt>
      <trkpt lat="48.4019" lon="-0.90036">
        <ele>219.71</ele>
        <time>2020-06-27T17:23:31Z</time>
      </trkpt>
      <trkpt lat="48.40195" lon="-0.90033">
        <ele>219.71</ele>
        <time>2020-06-27T17:23:36Z</time>
      </trkpt>
      <trkpt lat="48.40201" lon="-0.9003">
        <ele>219.71</ele>
        <time>2020-06-27T17:23:42Z</time>
      </trkpt>
      <trkpt lat="48.40206" lon="-0.90028">
        <ele>219.71</ele>
        <time>2020-06-27T17:23:47Z</time>
      </trkpt>
      <trkpt lat="48.40211" lon="-0.90025">
        <ele>219.71</ele>
        <time>2020-06-27T17:23:53Z</time>
      </trkpt>
      <trkpt lat="48.40216" lon="-0.90023">
        <ele>219.71</ele>
        <time>2020-06-27T17:23:58Z</time>
      </trkpt>
      <trkpt lat="48.40223" lon="-0.9002">
        <ele>218.71</ele>
        <time>2020-06-27T17:24:04Z</time>
      </trkpt>
      <trkpt lat="48.40229" lon="-0.90018">
        <ele>218.71</ele>
        <time>2020-06-27T17:24:10Z</time>
      </trkpt>
      <trkpt lat="48.40234" lon="-0.90015">
        <ele>218.71</ele>
        <time>2020-06-27T17:24:15Z</time>
      </trkpt>
      <trkpt lat="48.40241" lon="-0.90013">
        <ele>218.71</ele>
        <time>2020-06-27T17:24:21Z</time>
      </trkpt>
      <trkpt lat="48.40247" lon="-0.90009">
        <ele>218.71</ele>
        <time>2020-06-27T17:24:27Z</time>
      </trkpt>
      <trkpt lat="48.40252" lon="-0.90008">
        <ele>218.71</ele>
        <time>2020-06-27T17:24:32Z</time>
      </trkpt>
      <trkpt lat="48.40258" lon="-0.90005">
        <ele>218.71</ele>
        <time>2020-06-27T17:24:37Z</time>
      </trkpt>
      <trkpt lat="48.40263" lon="-0.90002">
        <ele>218.71</ele>
        <time>2020-06-27T17:24:42Z</time>
      </trkpt>
      <trkpt lat="48.40269" lon="-0.90001">
        <ele>217.71</ele>
        <time>2020-06-27T17:24:49Z</time>
      </trkpt>
      <trkpt lat="48.40277" lon="-0.89999">
        <ele>218.71</ele>
        <time>2020-06-27T17:24:55Z</time>
      </trkpt>
      <trkpt lat="48.40282" lon="-0.89997">
        <ele>219.71</ele>
        <time>2020-06-27T17:25:01Z</time>
      </trkpt>
      <trkpt lat="48.40289" lon="-0.89995">
        <ele>219.71</ele>
        <time>2020-06-27T17:25:07Z</time>
      </trkpt>
      <trkpt lat="48.40295" lon="-0.89994">
        <ele>220.71</ele>
        <time>2020-06-27T17:25:13Z</time>
      </trkpt>
      <trkpt lat="48.40301" lon="-0.8999">
        <ele>220.71</ele>
        <time>2020-06-27T17:25:19Z</time>
      </trkpt>
      <trkpt lat="48.40306" lon="-0.89989">
        <ele>220.71</ele>
        <time>2020-06-27T17:25:24Z</time>
      </trkpt>
      <trkpt lat="48.40312" lon="-0.89985">
        <ele>219.71</ele>
        <time>2020-06-27T17:25:30Z</time>
      </trkpt>
      <trkpt lat="48.40317" lon="-0.89983">
        <ele>219.71</ele>
        <time>2020-06-27T17:25:35Z</time>
      </trkpt>
      <trkpt lat="48.40322" lon="-0.8998">
        <ele>218.71</ele>
        <time>2020-06-27T17:25:40Z</time>
      </trkpt>
      <trkpt lat="48.40328" lon="-0.89977">
        <ele>218.71</ele>
        <time>2020-06-27T17:25:46Z</time>
      </trkpt>
      <trkpt lat="48.40333" lon="-0.89973">
        <ele>217.71</ele>
        <time>2020-06-27T17:25:52Z</time>
      </trkpt>
      <trkpt lat="48.40338" lon="-0.89971">
        <ele>217.71</ele>
        <time>2020-06-27T17:25:57Z</time>
      </trkpt>
      <trkpt lat="48.40345" lon="-0.89966">
        <ele>216.71</ele>
        <time>2020-06-27T17:26:03Z</time>
      </trkpt>
      <trkpt lat="48.4035" lon="-0.89966">
        <ele>215.71</ele>
        <time>2020-06-27T17:26:08Z</time>
      </trkpt>
      <trkpt lat="48.40356" lon="-0.89962">
        <ele>215.71</ele>
        <time>2020-06-27T17:26:14Z</time>
      </trkpt>
      <trkpt lat="48.40363" lon="-0.8996">
        <ele>215.71</ele>
        <time>2020-06-27T17:26:20Z</time>
      </trkpt>
      <trkpt lat="48.40368" lon="-0.8996">
        <ele>214.71</ele>
        <time>2020-06-27T17:26:25Z</time>
      </trkpt>
      <trkpt lat="48.40373" lon="-0.89957">
        <ele>214.71</ele>
        <time>2020-06-27T17:26:30Z</time>
      </trkpt>
      <trkpt lat="48.40379" lon="-0.89954">
        <ele>213.71</ele>
        <time>2020-06-27T17:26:36Z</time>
      </trkpt>
      <trkpt lat="48.40385" lon="-0.8995">
        <ele>213.71</ele>
        <time>2020-06-27T17:26:42Z</time>
      </trkpt>
      <trkpt lat="48.40391" lon="-0.89949">
        <ele>213.71</ele>
        <time>2020-06-27T17:26:47Z</time>
      </trkpt>
      <trkpt lat="48.40397" lon="-0.89947">
        <ele>213.71</ele>
        <time>2020-06-27T17:26:53Z</time>
      </trkpt>
      <trkpt lat="48.40403" lon="-0.89947">
        <ele>213.71</ele>
        <time>2020-06-27T17:26:59Z</time>
      </trkpt>
      <trkpt lat="48.40409" lon="-0.89947">
        <ele>213.71</ele>
        <time>2020-06-27T17:27:04Z</time>
      </trkpt>
      <trkpt lat="48.40415" lon="-0.89945">
        <ele>213.71</ele>
        <time>2020-06-27T17:27:10Z</time>
      </trkpt>
      <trkpt lat="48.40421" lon="-0.89943">
        <ele>213.71</ele>
        <time>2020-06-27T17:27:16Z</time>
      </trkpt>
      <trkpt lat="48.40426" lon="-0.89942">
        <ele>212.71</ele>
        <time>2020-06-27T17:27:21Z</time>
      </trkpt>
      <trkpt lat="48.40433" lon="-0.89941">
        <ele>212.71</ele>
        <time>2020-06-27T17:27:27Z</time>
      </trkpt>
      <trkpt lat="48.40437" lon="-0.8994">
        <ele>212.71</ele>
        <time>2020-06-27T17:27:32Z</time>
      </trkpt>
      <trkpt lat="48.40444" lon="-0.89937">
        <ele>212.71</ele>
        <time>2020-06-27T17:27:38Z</time>
      </trkpt>
      <trkpt lat="48.4045" lon="-0.89939">
        <ele>213.71</ele>
        <time>2020-06-27T17:27:44Z</time>
      </trkpt>
      <trkpt lat="48.40455" lon="-0.89936">
        <ele>213.71</ele>
        <time>2020-06-27T17:27:49Z</time>
      </trkpt>
      <trkpt lat="48.40461" lon="-0.89933">
        <ele>213.71</ele>
        <time>2020-06-27T17:27:55Z</time>
      </trkpt>
      <trkpt lat="48.40468" lon="-0.89932">
        <ele>214.71</ele>
        <time>2020-06-27T17:28:01Z</time>
      </trkpt>
      <trkpt lat="48.40474" lon="-0.89932">
        <ele>214.71</ele>
        <time>2020-06-27T17:28:06Z</time>
      </trkpt>
      <trkpt lat="48.40479" lon="-0.89931">
        <ele>214.71</ele>
        <time>2020-06-27T17:28:11Z</time>
      </trkpt>
      <trkpt lat="48.40485" lon="-0.89929">
        <ele>215.71</ele>
        <time>2020-06-27T17:28:17Z</time>
      </trkpt>
      <trkpt lat="48.4049" lon="-0.89928">
        <ele>215.71</ele>
        <time>2020-06-27T17:28:22Z</time>
      </trkpt>
      <trkpt lat="48.40496" lon="-0.89927">
        <ele>215.71</ele>
        <time>2020-06-27T17:28:27Z</time>
      </trkpt>
      <trkpt lat="48.40502" lon="-0.89927">
        <ele>214.71</ele>
        <time>2020-06-27T17:28:32Z</time>
      </trkpt>
      <trkpt lat="48.40506" lon="-0.89925">
        <ele>214.71</ele>
        <time>2020-06-27T17:28:37Z</time>
      </trkpt>
      <trkpt lat="48.40512" lon="-0.89923">
        <ele>214.71</ele>
        <time>2020-06-27T17:28:43Z</time>
      </trkpt>
      <trkpt lat="48.40517" lon="-0.89922">
        <ele>214.71</ele>
        <time>2020-06-27T17:28:48Z</time>
      </trkpt>
      <trkpt lat="48.40523" lon="-0.89921">
        <ele>214.71</ele>
        <time>2020-06-27T17:28:54Z</time>
      </trkpt>
      <trkpt lat="48.40529" lon="-0.8992">
        <ele>214.71</ele>
        <time>2020-06-27T17:29:00Z</time>
      </trkpt>
      <trkpt lat="48.40535" lon="-0.89918">
        <ele>213.71</ele>
        <time>2020-06-27T17:29:06Z</time>
      </trkpt>
      <trkpt lat="48.40542" lon="-0.89918">
        <ele>213.71</ele>
        <time>2020-06-27T17:29:12Z</time>
      </trkpt>
      <trkpt lat="48.40549" lon="-0.89916">
        <ele>213.71</ele>
        <time>2020-06-27T17:29:18Z</time>
      </trkpt>
      <trkpt lat="48.40554" lon="-0.89915">
        <ele>213.71</ele>
        <time>2020-06-27T17:29:23Z</time>
      </trkpt>
      <trkpt lat="48.4056" lon="-0.89913">
        <ele>214.71</ele>
        <time>2020-06-27T17:29:29Z</time>
      </trkpt>
      <trkpt lat="48.40567" lon="-0.89913">
        <ele>215.71</ele>
        <time>2020-06-27T17:29:35Z</time>
      </trkpt>
      <trkpt lat="48.40572" lon="-0.89911">
        <ele>215.71</ele>
        <time>2020-06-27T17:29:40Z</time>
      </trkpt>
      <trkpt lat="48.40578" lon="-0.8991">
        <ele>215.71</ele>
        <time>2020-06-27T17:29:46Z</time>
      </trkpt>
      <trkpt lat="48.40585" lon="-0.89909">
        <ele>215.71</ele>
        <time>2020-06-27T17:29:52Z</time>
      </trkpt>
      <trkpt lat="48.4059" lon="-0.89907">
        <ele>215.71</ele>
        <time>2020-06-27T17:29:57Z</time>
      </trkpt>
      <trkpt lat="48.40597" lon="-0.89905">
        <ele>214.71</ele>
        <time>2020-06-27T17:30:03Z</time>
      </trkpt>
      <trkpt lat="48.40602" lon="-0.89904">
        <ele>214.71</ele>
        <time>2020-06-27T17:30:09Z</time>
      </trkpt>
      <trkpt lat="48.40608" lon="-0.89903">
        <ele>213.71</ele>
        <time>2020-06-27T17:30:15Z</time>
      </trkpt>
      <trkpt lat="48.40612" lon="-0.89901">
        <ele>214.71</ele>
        <time>2020-06-27T17:30:20Z</time>
      </trkpt>
      <trkpt lat="48.40617" lon="-0.89901">
        <ele>213.71</ele>
        <time>2020-06-27T17:30:26Z</time>
      </trkpt>
      <trkpt lat="48.40623" lon="-0.89902">
        <ele>213.71</ele>
        <time>2020-06-27T17:30:32Z</time>
      </trkpt>
      <trkpt lat="48.40628" lon="-0.89902">
        <ele>212.71</ele>
        <time>2020-06-27T17:30:37Z</time>
      </trkpt>
      <trkpt lat="48.40633" lon="-0.89906">
        <ele>212.71</ele>
        <time>2020-06-27T17:30:42Z</time>
      </trkpt>
      <trkpt lat="48.40639" lon="-0.89909">
        <ele>213.71</ele>
        <time>2020-06-27T17:30:48Z</time>
      </trkpt>
      <trkpt lat="48.40646" lon="-0.89912">
        <ele>214.71</ele>
        <time>2020-06-27T17:30:54Z</time>
      </trkpt>
      <trkpt lat="48.40651" lon="-0.89918">
        <ele>213.71</ele>
        <time>2020-06-27T17:30:59Z</time>
      </trkpt>
      <trkpt lat="48.40653" lon="-0.89921">
        <ele>213.71</ele>
        <time>2020-06-27T17:31:04Z</time>
      </trkpt>
      <trkpt lat="48.40655" lon="-0.89923">
        <ele>215.71</ele>
        <time>2020-06-27T17:31:09Z</time>
      </trkpt>
      <trkpt lat="48.40652" lon="-0.89922">
        <ele>214.71</ele>
        <time>2020-06-27T17:31:15Z</time>
      </trkpt>
      <trkpt lat="48.40652" lon="-0.89922">
        <ele>215.71</ele>
        <time>2020-06-27T17:31:21Z</time>
      </trkpt>
      <trkpt lat="48.40652" lon="-0.89923">
        <ele>215.71</ele>
        <time>2020-06-27T17:31:26Z</time>
      </trkpt>
      <trkpt lat="48.40651" lon="-0.89923">
        <ele>215.71</ele>
        <time>2020-06-27T17:31:32Z</time>
      </trkpt>
      <trkpt lat="48.40652" lon="-0.89923">
        <ele>214.71</ele>
        <time>2020-06-27T17:31:38Z</time>
      </trkpt>
      <trkpt lat="48.40651" lon="-0.89923">
        <ele>213.71</ele>
        <time>2020-06-27T17:31:43Z</time>
      </trkpt>
      <trkpt lat="48.40656" lon="-0.89922">
        <ele>215.71</ele>
        <time>2020-06-27T17:31:49Z</time>
      </trkpt>
      <trkpt lat="48.4066" lon="-0.89926">
        <ele>215.71</ele>
        <time>2020-06-27T17:31:54Z</time>
      </trkpt>
      <trkpt lat="48.40662" lon="-0.8993">
        <ele>216.71</ele>
        <time>2020-06-27T17:31:59Z</time>
      </trkpt>
      <trkpt lat="48.40667" lon="-0.89938">
        <ele>214.71</ele>
        <time>2020-06-27T17:32:05Z</time>
      </trkpt>
      <trkpt lat="48.40672" lon="-0.89944">
        <ele>214.71</ele>
        <time>2020-06-27T17:32:11Z</time>
      </trkpt>
      <trkpt lat="48.40676" lon="-0.8995">
        <ele>214.71</ele>
        <time>2020-06-27T17:32:17Z</time>
      </trkpt>
      <trkpt lat="48.40679" lon="-0.89953">
        <ele>209.71</ele>
        <time>2020-06-27T17:32:22Z</time>
      </trkpt>
      <trkpt lat="48.40682" lon="-0.89956">
        <ele>207.71</ele>
        <time>2020-06-27T17:32:28Z</time>
      </trkpt>
      <trkpt lat="48.40686" lon="-0.89958">
        <ele>206.71</ele>
        <time>2020-06-27T17:32:33Z</time>
      </trkpt>
      <trkpt lat="48.40691" lon="-0.89954">
        <ele>207.71</ele>
        <time>2020-06-27T17:32:38Z</time>
      </trkpt>
      <trkpt lat="48.40697" lon="-0.89948">
        <ele>210.71</ele>
        <time>2020-06-27T17:32:44Z</time>
      </trkpt>
      <trkpt lat="48.40701" lon="-0.89944">
        <ele>210.71</ele>
        <time>2020-06-27T17:32:49Z</time>
      </trkpt>
      <trkpt lat="48.40705" lon="-0.89938">
        <ele>210.71</ele>
        <time>2020-06-27T17:32:55Z</time>
      </trkpt>
      <trkpt lat="48.40709" lon="-0.89934">
        <ele>209.71</ele>
        <time>2020-06-27T17:33:00Z</time>
      </trkpt>
      <trkpt lat="48.40713" lon="-0.89929">
        <ele>209.71</ele>
        <time>2020-06-27T17:33:05Z</time>
      </trkpt>
      <trkpt lat="48.4072" lon="-0.89924">
        <ele>210.71</ele>
        <time>2020-06-27T17:33:11Z</time>
      </trkpt>
      <trkpt lat="48.40726" lon="-0.89926">
        <ele>209.71</ele>
        <time>2020-06-27T17:33:16Z</time>
      </trkpt>
      <trkpt lat="48.40733" lon="-0.89923">
        <ele>208.71</ele>
        <time>2020-06-27T17:33:22Z</time>
      </trkpt>
      <trkpt lat="48.40739" lon="-0.89922">
        <ele>208.71</ele>
        <time>2020-06-27T17:33:27Z</time>
      </trkpt>
      <trkpt lat="48.40745" lon="-0.89924">
        <ele>207.71</ele>
        <time>2020-06-27T17:33:33Z</time>
      </trkpt>
      <trkpt lat="48.40749" lon="-0.89923">
        <ele>209.71</ele>
        <time>2020-06-27T17:33:38Z</time>
      </trkpt>
      <trkpt lat="48.40757" lon="-0.89924">
        <ele>208.71</ele>
        <time>2020-06-27T17:33:44Z</time>
      </trkpt>
      <trkpt lat="48.40763" lon="-0.89923">
        <ele>208.71</ele>
        <time>2020-06-27T17:33:50Z</time>
      </trkpt>
      <trkpt lat="48.40769" lon="-0.89924">
        <ele>207.71</ele>
        <time>2020-06-27T17:33:56Z</time>
      </trkpt>
      <trkpt lat="48.40774" lon="-0.89926">
        <ele>206.71</ele>
        <time>2020-06-27T17:34:02Z</time>
      </trkpt>
      <trkpt lat="48.40782" lon="-0.89927">
        <ele>208.71</ele>
        <time>2020-06-27T17:34:08Z</time>
      </trkpt>
      <trkpt lat="48.40788" lon="-0.8993">
        <ele>210.71</ele>
        <time>2020-06-27T17:34:13Z</time>
      </trkpt>
      <trkpt lat="48.40793" lon="-0.89937">
        <ele>208.71</ele>
        <time>2020-06-27T17:34:19Z</time>
      </trkpt>
      <trkpt lat="48.40797" lon="-0.89941">
        <ele>207.71</ele>
        <time>2020-06-27T17:34:24Z</time>
      </trkpt>
      <trkpt lat="48.40802" lon="-0.89947">
        <ele>207.71</ele>
        <time>2020-06-27T17:34:30Z</time>
      </trkpt>
      <trkpt lat="48.40808" lon="-0.8995">
        <ele>206.71</ele>
        <time>2020-06-27T17:34:36Z</time>
      </trkpt>
      <trkpt lat="48.40812" lon="-0.89955">
        <ele>206.71</ele>
        <time>2020-06-27T17:34:42Z</time>
      </trkpt>
      <trkpt lat="48.40817" lon="-0.8996">
        <ele>205.71</ele>
        <time>2020-06-27T17:34:47Z</time>
      </trkpt>
      <trkpt lat="48.40823" lon="-0.89964">
        <ele>205.71</ele>
        <time>2020-06-27T17:34:53Z</time>
      </trkpt>
      <trkpt lat="48.40828" lon="-0.8997">
        <ele>205.71</ele>
        <time>2020-06-27T17:34:59Z</time>
      </trkpt>
      <trkpt lat="48.40833" lon="-0.89975">
        <ele>205.71</ele>
        <time>2020-06-27T17:35:05Z</time>
      </trkpt>
      <trkpt lat="48.4084" lon="-0.89978">
        <ele>206.71</ele>
        <time>2020-06-27T17:35:11Z</time>
      </trkpt>
      <trkpt lat="48.40844" lon="-0.89983">
        <ele>206.71</ele>
        <time>2020-06-27T17:35:16Z</time>
      </trkpt>
      <trkpt lat="48.4085" lon="-0.89988">
        <ele>207.71</ele>
        <time>2020-06-27T17:35:22Z</time>
      </trkpt>
      <trkpt lat="48.40855" lon="-0.89994">
        <ele>205.71</ele>
        <time>2020-06-27T17:35:28Z</time>
      </trkpt>
      <trkpt lat="48.40861" lon="-0.89999">
        <ele>205.71</ele>
        <time>2020-06-27T17:35:34Z</time>
      </trkpt>
      <trkpt lat="48.40866" lon="-0.90003">
        <ele>203.71</ele>
        <time>2020-06-27T17:35:40Z</time>
      </trkpt>
      <trkpt lat="48.4087" lon="-0.90009">
        <ele>202.71</ele>
        <time>2020-06-27T17:35:45Z</time>
      </trkpt>
      <trkpt lat="48.40872" lon="-0.90016">
        <ele>202.71</ele>
        <time>2020-06-27T17:35:51Z</time>
      </trkpt>
      <trkpt lat="48.40876" lon="-0.9002">
        <ele>204.71</ele>
        <time>2020-06-27T17:35:56Z</time>
      </trkpt>
      <trkpt lat="48.40877" lon="-0.90021">
        <ele>203.71</ele>
        <time>2020-06-27T17:36:02Z</time>
      </trkpt>
      <trkpt lat="48.40876" lon="-0.90021">
        <ele>205.71</ele>
        <time>2020-06-27T17:36:07Z</time>
      </trkpt>
      <trkpt lat="48.40877" lon="-0.90026">
        <ele>204.71</ele>
        <time>2020-06-27T17:36:13Z</time>
      </trkpt>
      <trkpt lat="48.40879" lon="-0.90032">
        <ele>203.71</ele>
        <time>2020-06-27T17:36:19Z</time>
      </trkpt>
      <trkpt lat="48.4088" lon="-0.90039">
        <ele>202.71</ele>
        <time>2020-06-27T17:36:24Z</time>
      </trkpt>
      <trkpt lat="48.40883" lon="-0.90046">
        <ele>202.71</ele>
        <time>2020-06-27T17:36:30Z</time>
      </trkpt>
      <trkpt lat="48.40885" lon="-0.90054">
        <ele>201.71</ele>
        <time>2020-06-27T17:36:36Z</time>
      </trkpt>
      <trkpt lat="48.40887" lon="-0.90061">
        <ele>201.71</ele>
        <time>2020-06-27T17:36:41Z</time>
      </trkpt>
      <trkpt lat="48.40891" lon="-0.90067">
        <ele>205.71</ele>
        <time>2020-06-27T17:36:46Z</time>
      </trkpt>
      <trkpt lat="48.40893" lon="-0.90074">
        <ele>205.71</ele>
        <time>2020-06-27T17:36:51Z</time>
      </trkpt>
      <trkpt lat="48.40895" lon="-0.90082">
        <ele>205.71</ele>
        <time>2020-06-27T17:36:57Z</time>
      </trkpt>
      <trkpt lat="48.40897" lon="-0.90091">
        <ele>203.71</ele>
        <time>2020-06-27T17:37:02Z</time>
      </trkpt>
      <trkpt lat="48.40901" lon="-0.90099">
        <ele>202.71</ele>
        <time>2020-06-27T17:37:08Z</time>
      </trkpt>
      <trkpt lat="48.40903" lon="-0.90106">
        <ele>201.71</ele>
        <time>2020-06-27T17:37:14Z</time>
      </trkpt>
      <trkpt lat="48.40904" lon="-0.90112">
        <ele>200.71</ele>
        <time>2020-06-27T17:37:19Z</time>
      </trkpt>
      <trkpt lat="48.40909" lon="-0.90118">
        <ele>200.71</ele>
        <time>2020-06-27T17:37:25Z</time>
      </trkpt>
      <trkpt lat="48.40914" lon="-0.90125">
        <ele>199.71</ele>
        <time>2020-06-27T17:37:31Z</time>
      </trkpt>
      <trkpt lat="48.40918" lon="-0.90128">
        <ele>199.71</ele>
        <time>2020-06-27T17:37:36Z</time>
      </trkpt>
      <trkpt lat="48.40923" lon="-0.90132">
        <ele>200.71</ele>
        <time>2020-06-27T17:37:42Z</time>
      </trkpt>
      <trkpt lat="48.40929" lon="-0.90139">
        <ele>201.71</ele>
        <time>2020-06-27T17:37:48Z</time>
      </trkpt>
      <trkpt lat="48.40932" lon="-0.90144">
        <ele>201.71</ele>
        <time>2020-06-27T17:37:53Z</time>
      </trkpt>
      <trkpt lat="48.40932" lon="-0.90144">
        <ele>200.71</ele>
        <time>2020-06-27T17:37:58Z</time>
      </trkpt>
      <trkpt lat="48.40935" lon="-0.90147">
        <ele>199.71</ele>
        <time>2020-06-27T17:38:04Z</time>
      </trkpt>
      <trkpt lat="48.40939" lon="-0.90148">
        <ele>198.71</ele>
        <time>2020-06-27T17:38:09Z</time>
      </trkpt>
      <trkpt lat="48.40945" lon="-0.90151">
        <ele>198.71</ele>
        <time>2020-06-27T17:38:15Z</time>
      </trkpt>
      <trkpt lat="48.40949" lon="-0.90153">
        <ele>198.71</ele>
        <time>2020-06-27T17:38:20Z</time>
      </trkpt>
      <trkpt lat="48.40955" lon="-0.90157">
        <ele>198.71</ele>
        <time>2020-06-27T17:38:26Z</time>
      </trkpt>
      <trkpt lat="48.40959" lon="-0.9016">
        <ele>197.71</ele>
        <time>2020-06-27T17:38:31Z</time>
      </trkpt>
      <trkpt lat="48.40964" lon="-0.90162">
        <ele>197.71</ele>
        <time>2020-06-27T17:38:36Z</time>
      </trkpt>
      <trkpt lat="48.40969" lon="-0.90166">
        <ele>197.71</ele>
        <time>2020-06-27T17:38:42Z</time>
      </trkpt>
      <trkpt lat="48.40976" lon="-0.90171">
        <ele>197.71</ele>
        <time>2020-06-27T17:38:48Z</time>
      </trkpt>
      <trkpt lat="48.4098" lon="-0.90171">
        <ele>199.71</ele>
        <time>2020-06-27T17:38:53Z</time>
      </trkpt>
      <trkpt lat="48.40985" lon="-0.90171">
        <ele>200.71</ele>
        <time>2020-06-27T17:38:58Z</time>
      </trkpt>
      <trkpt lat="48.40991" lon="-0.90174">
        <ele>201.71</ele>
        <time>2020-06-27T17:39:04Z</time>
      </trkpt>
      <trkpt lat="48.40996" lon="-0.90177">
        <ele>202.71</ele>
        <time>2020-06-27T17:39:09Z</time>
      </trkpt>
      <trkpt lat="48.41001" lon="-0.90183">
        <ele>201.71</ele>
        <time>2020-06-27T17:39:15Z</time>
      </trkpt>
      <trkpt lat="48.41006" lon="-0.90185">
        <ele>202.71</ele>
        <time>2020-06-27T17:39:20Z</time>
      </trkpt>
      <trkpt lat="48.41012" lon="-0.90188">
        <ele>202.71</ele>
        <time>2020-06-27T17:39:26Z</time>
      </trkpt>
      <trkpt lat="48.41018" lon="-0.90191">
        <ele>202.71</ele>
        <time>2020-06-27T17:39:32Z</time>
      </trkpt>
      <trkpt lat="48.41023" lon="-0.90194">
        <ele>202.71</ele>
        <time>2020-06-27T17:39:37Z</time>
      </trkpt>
      <trkpt lat="48.4103" lon="-0.90196">
        <ele>204.71</ele>
        <time>2020-06-27T17:39:43Z</time>
      </trkpt>
      <trkpt lat="48.41036" lon="-0.90199">
        <ele>204.71</ele>
        <time>2020-06-27T17:39:49Z</time>
      </trkpt>
      <trkpt lat="48.4104" lon="-0.902">
        <ele>204.71</ele>
        <time>2020-06-27T17:39:54Z</time>
      </trkpt>
      <trkpt lat="48.41046" lon="-0.90203">
        <ele>204.71</ele>
        <time>2020-06-27T17:40:00Z</time>
      </trkpt>
      <trkpt lat="48.4105" lon="-0.90203">
        <ele>205.71</ele>
        <time>2020-06-27T17:40:05Z</time>
      </trkpt>
      <trkpt lat="48.41056" lon="-0.9021">
        <ele>204.71</ele>
        <time>2020-06-27T17:40:11Z</time>
      </trkpt>
      <trkpt lat="48.41061" lon="-0.90213">
        <ele>203.71</ele>
        <time>2020-06-27T17:40:16Z</time>
      </trkpt>
      <trkpt lat="48.41066" lon="-0.90217">
        <ele>202.71</ele>
        <time>2020-06-27T17:40:21Z</time>
      </trkpt>
      <trkpt lat="48.41072" lon="-0.90221">
        <ele>202.71</ele>
        <time>2020-06-27T17:40:27Z</time>
      </trkpt>
      <trkpt lat="48.41077" lon="-0.90223">
        <ele>203.71</ele>
        <time>2020-06-27T17:40:32Z</time>
      </trkpt>
      <trkpt lat="48.41083" lon="-0.90227">
        <ele>203.71</ele>
        <time>2020-06-27T17:40:38Z</time>
      </trkpt>
      <trkpt lat="48.41087" lon="-0.90233">
        <ele>203.71</ele>
        <time>2020-06-27T17:40:43Z</time>
      </trkpt>
      <trkpt lat="48.4109" lon="-0.90239">
        <ele>201.71</ele>
        <time>2020-06-27T17:40:48Z</time>
      </trkpt>
      <trkpt lat="48.41091" lon="-0.90242">
        <ele>202.71</ele>
        <time>2020-06-27T17:40:54Z</time>
      </trkpt>
      <trkpt lat="48.41095" lon="-0.90245">
        <ele>202.71</ele>
        <time>2020-06-27T17:41:00Z</time>
      </trkpt>
      <trkpt lat="48.41099" lon="-0.90247">
        <ele>202.71</ele>
        <time>2020-06-27T17:41:05Z</time>
      </trkpt>
      <trkpt lat="48.41102" lon="-0.90249">
        <ele>202.71</ele>
        <time>2020-06-27T17:41:10Z</time>
      </trkpt>
      <trkpt lat="48.41108" lon="-0.90252">
        <ele>203.71</ele>
        <time>2020-06-27T17:41:16Z</time>
      </trkpt>
      <trkpt lat="48.41112" lon="-0.90254">
        <ele>202.71</ele>
        <time>2020-06-27T17:41:21Z</time>
      </trkpt>
      <trkpt lat="48.41117" lon="-0.90256">
        <ele>202.71</ele>
        <time>2020-06-27T17:41:27Z</time>
      </trkpt>
      <trkpt lat="48.41122" lon="-0.90257">
        <ele>202.71</ele>
        <time>2020-06-27T17:41:32Z</time>
      </trkpt>
      <trkpt lat="48.4113" lon="-0.90258">
        <ele>203.71</ele>
        <time>2020-06-27T17:41:38Z</time>
      </trkpt>
      <trkpt lat="48.41136" lon="-0.90259">
        <ele>203.71</ele>
        <time>2020-06-27T17:41:43Z</time>
      </trkpt>
      <trkpt lat="48.41143" lon="-0.9026">
        <ele>204.71</ele>
        <time>2020-06-27T17:41:48Z</time>
      </trkpt>
      <trkpt lat="48.41149" lon="-0.90262">
        <ele>204.71</ele>
        <time>2020-06-27T17:41:53Z</time>
      </trkpt>
      <trkpt lat="48.41155" lon="-0.90262">
        <ele>205.71</ele>
        <time>2020-06-27T17:41:59Z</time>
      </trkpt>
      <trkpt lat="48.41161" lon="-0.90263">
        <ele>206.71</ele>
        <time>2020-06-27T17:42:05Z</time>
      </trkpt>
      <trkpt lat="48.41167" lon="-0.90263">
        <ele>207.71</ele>
        <time>2020-06-27T17:42:10Z</time>
      </trkpt>
      <trkpt lat="48.41175" lon="-0.90265">
        <ele>209.71</ele>
        <time>2020-06-27T17:42:17Z</time>
      </trkpt>
      <trkpt lat="48.41182" lon="-0.90264">
        <ele>209.71</ele>
        <time>2020-06-27T17:42:23Z</time>
      </trkpt>
      <trkpt lat="48.41189" lon="-0.90264">
        <ele>210.71</ele>
        <time>2020-06-27T17:42:29Z</time>
      </trkpt>
      <trkpt lat="48.41194" lon="-0.90266">
        <ele>209.71</ele>
        <time>2020-06-27T17:42:38Z</time>
      </trkpt>
      <trkpt lat="48.41206" lon="-0.90266">
        <ele>209.71</ele>
        <time>2020-06-27T17:42:48Z</time>
      </trkpt>
      <trkpt lat="48.41216" lon="-0.90266">
        <ele>210.71</ele>
        <time>2020-06-27T17:42:58Z</time>
      </trkpt>
      <trkpt lat="48.41224" lon="-0.90265">
        <ele>208.71</ele>
        <time>2020-06-27T17:43:03Z</time>
      </trkpt>
      <trkpt lat="48.4123" lon="-0.90265">
        <ele>209.71</ele>
        <time>2020-06-27T17:43:08Z</time>
      </trkpt>
      <trkpt lat="48.41237" lon="-0.90266">
        <ele>209.71</ele>
        <time>2020-06-27T17:43:13Z</time>
      </trkpt>
      <trkpt lat="48.41244" lon="-0.90264">
        <ele>208.71</ele>
        <time>2020-06-27T17:43:19Z</time>
      </trkpt>
      <trkpt lat="48.41251" lon="-0.90264">
        <ele>209.71</ele>
        <time>2020-06-27T17:43:25Z</time>
      </trkpt>
      <trkpt lat="48.41257" lon="-0.90264">
        <ele>210.71</ele>
        <time>2020-06-27T17:43:30Z</time>
      </trkpt>
      <trkpt lat="48.41263" lon="-0.90264">
        <ele>210.71</ele>
        <time>2020-06-27T17:43:36Z</time>
      </trkpt>
      <trkpt lat="48.41269" lon="-0.90263">
        <ele>209.71</ele>
        <time>2020-06-27T17:43:42Z</time>
      </trkpt>
      <trkpt lat="48.41274" lon="-0.90262">
        <ele>209.71</ele>
        <time>2020-06-27T17:43:48Z</time>
      </trkpt>
      <trkpt lat="48.41281" lon="-0.90261">
        <ele>208.71</ele>
        <time>2020-06-27T17:43:53Z</time>
      </trkpt>
      <trkpt lat="48.41285" lon="-0.9026">
        <ele>209.71</ele>
        <time>2020-06-27T17:43:58Z</time>
      </trkpt>
      <trkpt lat="48.4129" lon="-0.90259">
        <ele>209.71</ele>
        <time>2020-06-27T17:44:03Z</time>
      </trkpt>
      <trkpt lat="48.41296" lon="-0.90259">
        <ele>208.71</ele>
        <time>2020-06-27T17:44:09Z</time>
      </trkpt>
      <trkpt lat="48.41303" lon="-0.9026">
        <ele>209.71</ele>
        <time>2020-06-27T17:44:14Z</time>
      </trkpt>
      <trkpt lat="48.41306" lon="-0.90265">
        <ele>209.71</ele>
        <time>2020-06-27T17:44:20Z</time>
      </trkpt>
      <trkpt lat="48.41309" lon="-0.90272">
        <ele>208.71</ele>
        <time>2020-06-27T17:44:25Z</time>
      </trkpt>
      <trkpt lat="48.4131" lon="-0.9028">
        <ele>209.71</ele>
        <time>2020-06-27T17:44:30Z</time>
      </trkpt>
      <trkpt lat="48.41314" lon="-0.90287">
        <ele>208.71</ele>
        <time>2020-06-27T17:44:36Z</time>
      </trkpt>
      <trkpt lat="48.41316" lon="-0.90294">
        <ele>207.71</ele>
        <time>2020-06-27T17:44:41Z</time>
      </trkpt>
      <trkpt lat="48.41319" lon="-0.903">
        <ele>207.71</ele>
        <time>2020-06-27T17:44:47Z</time>
      </trkpt>
      <trkpt lat="48.41321" lon="-0.90307">
        <ele>207.71</ele>
        <time>2020-06-27T17:44:52Z</time>
      </trkpt>
      <trkpt lat="48.41321" lon="-0.90314">
        <ele>205.71</ele>
        <time>2020-06-27T17:44:58Z</time>
      </trkpt>
      <trkpt lat="48.41317" lon="-0.90321">
        <ele>206.71</ele>
        <time>2020-06-27T17:45:04Z</time>
      </trkpt>
      <trkpt lat="48.41311" lon="-0.90327">
        <ele>206.71</ele>
        <time>2020-06-27T17:45:10Z</time>
      </trkpt>
      <trkpt lat="48.41306" lon="-0.9033">
        <ele>207.71</ele>
        <time>2020-06-27T17:45:15Z</time>
      </trkpt>
      <trkpt lat="48.413" lon="-0.90336">
        <ele>208.71</ele>
        <time>2020-06-27T17:45:21Z</time>
      </trkpt>
      <trkpt lat="48.41295" lon="-0.90339">
        <ele>209.71</ele>
        <time>2020-06-27T17:45:26Z</time>
      </trkpt>
      <trkpt lat="48.41289" lon="-0.90346">
        <ele>208.71</ele>
        <time>2020-06-27T17:45:36Z</time>
      </trkpt>
      <trkpt lat="48.41281" lon="-0.90351">
        <ele>210.71</ele>
        <time>2020-06-27T17:45:41Z</time>
      </trkpt>
      <trkpt lat="48.41275" lon="-0.90355">
        <ele>210.71</ele>
        <time>2020-06-27T17:45:46Z</time>
      </trkpt>
      <trkpt lat="48.41271" lon="-0.90358">
        <ele>209.71</ele>
        <time>2020-06-27T17:45:51Z</time>
      </trkpt>
      <trkpt lat="48.41267" lon="-0.90363">
        <ele>208.71</ele>
        <time>2020-06-27T17:45:56Z</time>
      </trkpt>
      <trkpt lat="48.41262" lon="-0.90366">
        <ele>206.71</ele>
        <time>2020-06-27T17:46:02Z</time>
      </trkpt>
      <trkpt lat="48.41255" lon="-0.90371">
        <ele>207.71</ele>
        <time>2020-06-27T17:46:08Z</time>
      </trkpt>
      <trkpt lat="48.4125" lon="-0.90374">
        <ele>208.71</ele>
        <time>2020-06-27T17:46:14Z</time>
      </trkpt>
      <trkpt lat="48.41244" lon="-0.90377">
        <ele>208.71</ele>
        <time>2020-06-27T17:46:20Z</time>
      </trkpt>
      <trkpt lat="48.41239" lon="-0.9038">
        <ele>208.71</ele>
        <time>2020-06-27T17:46:26Z</time>
      </trkpt>
      <trkpt lat="48.41235" lon="-0.90385">
        <ele>208.71</ele>
        <time>2020-06-27T17:46:32Z</time>
      </trkpt>
      <trkpt lat="48.41235" lon="-0.9039">
        <ele>208.71</ele>
        <time>2020-06-27T17:46:37Z</time>
      </trkpt>
      <trkpt lat="48.41235" lon="-0.90397">
        <ele>208.71</ele>
        <time>2020-06-27T17:46:43Z</time>
      </trkpt>
      <trkpt lat="48.41238" lon="-0.90403">
        <ele>207.71</ele>
        <time>2020-06-27T17:46:49Z</time>
      </trkpt>
      <trkpt lat="48.4124" lon="-0.90409">
        <ele>206.71</ele>
        <time>2020-06-27T17:46:54Z</time>
      </trkpt>
      <trkpt lat="48.41242" lon="-0.90418">
        <ele>208.71</ele>
        <time>2020-06-27T17:47:02Z</time>
      </trkpt>
      <trkpt lat="48.41246" lon="-0.90427">
        <ele>207.71</ele>
        <time>2020-06-27T17:47:07Z</time>
      </trkpt>
      <trkpt lat="48.41249" lon="-0.90432">
        <ele>206.71</ele>
        <time>2020-06-27T17:47:12Z</time>
      </trkpt>
      <trkpt lat="48.41252" lon="-0.9044">
        <ele>205.71</ele>
        <time>2020-06-27T17:47:17Z</time>
      </trkpt>
      <trkpt lat="48.41257" lon="-0.90447">
        <ele>207.71</ele>
        <time>2020-06-27T17:47:23Z</time>
      </trkpt>
      <trkpt lat="48.41259" lon="-0.90452">
        <ele>207.71</ele>
        <time>2020-06-27T17:47:29Z</time>
      </trkpt>
      <trkpt lat="48.41259" lon="-0.90453">
        <ele>208.71</ele>
        <time>2020-06-27T17:47:35Z</time>
      </trkpt>
      <trkpt lat="48.41258" lon="-0.90453">
        <ele>208.71</ele>
        <time>2020-06-27T17:47:40Z</time>
      </trkpt>
      <trkpt lat="48.41259" lon="-0.90455">
        <ele>208.71</ele>
        <time>2020-06-27T17:47:46Z</time>
      </trkpt>
      <trkpt lat="48.41262" lon="-0.90456">
        <ele>206.71</ele>
        <time>2020-06-27T17:47:52Z</time>
      </trkpt>
      <trkpt lat="48.41265" lon="-0.9046">
        <ele>206.71</ele>
        <time>2020-06-27T17:47:58Z</time>
      </trkpt>
      <trkpt lat="48.41269" lon="-0.90469">
        <ele>207.71</ele>
        <time>2020-06-27T17:48:03Z</time>
      </trkpt>
      <trkpt lat="48.41275" lon="-0.90476">
        <ele>207.71</ele>
        <time>2020-06-27T17:48:09Z</time>
      </trkpt>
      <trkpt lat="48.41278" lon="-0.90482">
        <ele>207.71</ele>
        <time>2020-06-27T17:48:15Z</time>
      </trkpt>
      <trkpt lat="48.41279" lon="-0.90489">
        <ele>206.71</ele>
        <time>2020-06-27T17:48:21Z</time>
      </trkpt>
      <trkpt lat="48.41277" lon="-0.90487">
        <ele>206.71</ele>
        <time>2020-06-27T17:48:27Z</time>
      </trkpt>
      <trkpt lat="48.4128" lon="-0.90493">
        <ele>204.71</ele>
        <time>2020-06-27T17:48:33Z</time>
      </trkpt>
      <trkpt lat="48.41284" lon="-0.90502">
        <ele>205.71</ele>
        <time>2020-06-27T17:48:39Z</time>
      </trkpt>
      <trkpt lat="48.41288" lon="-0.9051">
        <ele>206.71</ele>
        <time>2020-06-27T17:48:45Z</time>
      </trkpt>
      <trkpt lat="48.41291" lon="-0.90517">
        <ele>208.71</ele>
        <time>2020-06-27T17:48:50Z</time>
      </trkpt>
      <trkpt lat="48.41295" lon="-0.90527">
        <ele>206.71</ele>
        <time>2020-06-27T17:48:56Z</time>
      </trkpt>
      <trkpt lat="48.41298" lon="-0.90534">
        <ele>207.71</ele>
        <time>2020-06-27T17:49:02Z</time>
      </trkpt>
      <trkpt lat="48.41301" lon="-0.90541">
        <ele>208.71</ele>
        <time>2020-06-27T17:49:07Z</time>
      </trkpt>
      <trkpt lat="48.41304" lon="-0.9055">
        <ele>207.71</ele>
        <time>2020-06-27T17:49:13Z</time>
      </trkpt>
      <trkpt lat="48.41307" lon="-0.90558">
        <ele>207.71</ele>
        <time>2020-06-27T17:49:19Z</time>
      </trkpt>
      <trkpt lat="48.4131" lon="-0.90564">
        <ele>205.71</ele>
        <time>2020-06-27T17:49:24Z</time>
      </trkpt>
      <trkpt lat="48.41313" lon="-0.90571">
        <ele>204.71</ele>
        <time>2020-06-27T17:49:30Z</time>
      </trkpt>
      <trkpt lat="48.4132" lon="-0.90576">
        <ele>204.71</ele>
        <time>2020-06-27T17:49:35Z</time>
      </trkpt>
      <trkpt lat="48.41325" lon="-0.9058">
        <ele>203.71</ele>
        <time>2020-06-27T17:49:41Z</time>
      </trkpt>
      <trkpt lat="48.41331" lon="-0.90583">
        <ele>203.71</ele>
        <time>2020-06-27T17:49:46Z</time>
      </trkpt>
      <trkpt lat="48.41336" lon="-0.90588">
        <ele>202.71</ele>
        <time>2020-06-27T17:49:52Z</time>
      </trkpt>
      <trkpt lat="48.41342" lon="-0.9059">
        <ele>203.71</ele>
        <time>2020-06-27T17:49:57Z</time>
      </trkpt>
      <trkpt lat="48.41349" lon="-0.90593">
        <ele>203.71</ele>
        <time>2020-06-27T17:50:03Z</time>
      </trkpt>
      <trkpt lat="48.41354" lon="-0.90597">
        <ele>203.71</ele>
        <time>2020-06-27T17:50:08Z</time>
      </trkpt>
      <trkpt lat="48.4136" lon="-0.906">
        <ele>203.71</ele>
        <time>2020-06-27T17:50:14Z</time>
      </trkpt>
      <trkpt lat="48.41366" lon="-0.90603">
        <ele>203.71</ele>
        <time>2020-06-27T17:50:19Z</time>
      </trkpt>
      <trkpt lat="48.41373" lon="-0.90605">
        <ele>205.71</ele>
        <time>2020-06-27T17:50:25Z</time>
      </trkpt>
      <trkpt lat="48.4138" lon="-0.90608">
        <ele>205.71</ele>
        <time>2020-06-27T17:50:31Z</time>
      </trkpt>
      <trkpt lat="48.41386" lon="-0.90612">
        <ele>205.71</ele>
        <time>2020-06-27T17:50:37Z</time>
      </trkpt>
      <trkpt lat="48.41389" lon="-0.90615">
        <ele>205.71</ele>
        <time>2020-06-27T17:50:43Z</time>
      </trkpt>
      <trkpt lat="48.41389" lon="-0.90618">
        <ele>204.71</ele>
        <time>2020-06-27T17:50:49Z</time>
      </trkpt>
      <trkpt lat="48.41389" lon="-0.90619">
        <ele>204.71</ele>
        <time>2020-06-27T17:50:55Z</time>
      </trkpt>
      <trkpt lat="48.41389" lon="-0.90618">
        <ele>204.71</ele>
        <time>2020-06-27T17:51:01Z</time>
      </trkpt>
      <trkpt lat="48.41389" lon="-0.90618">
        <ele>204.71</ele>
        <time>2020-06-27T17:51:06Z</time>
      </trkpt>
      <trkpt lat="48.41389" lon="-0.90619">
        <ele>205.71</ele>
        <time>2020-06-27T17:51:11Z</time>
      </trkpt>
      <trkpt lat="48.41389" lon="-0.90619">
        <ele>205.71</ele>
        <time>2020-06-27T17:51:17Z</time>
      </trkpt>
      <trkpt lat="48.41389" lon="-0.90619">
        <ele>205.71</ele>
        <time>2020-06-27T17:51:23Z</time>
      </trkpt>
      <trkpt lat="48.41389" lon="-0.90617">
        <ele>204.71</ele>
        <time>2020-06-27T17:51:28Z</time>
      </trkpt>
      <trkpt lat="48.41394" lon="-0.90616">
        <ele>205.71</ele>
        <time>2020-06-27T17:51:34Z</time>
      </trkpt>
      <trkpt lat="48.41401" lon="-0.90619">
        <ele>205.71</ele>
        <time>2020-06-27T17:51:40Z</time>
      </trkpt>
      <trkpt lat="48.41407" lon="-0.90623">
        <ele>205.71</ele>
        <time>2020-06-27T17:51:45Z</time>
      </trkpt>
      <trkpt lat="48.41412" lon="-0.90625">
        <ele>205.71</ele>
        <time>2020-06-27T17:51:51Z</time>
      </trkpt>
      <trkpt lat="48.41418" lon="-0.90626">
        <ele>204.71</ele>
        <time>2020-06-27T17:51:56Z</time>
      </trkpt>
      <trkpt lat="48.41424" lon="-0.90629">
        <ele>204.71</ele>
        <time>2020-06-27T17:52:02Z</time>
      </trkpt>
      <trkpt lat="48.41429" lon="-0.90633">
        <ele>203.71</ele>
        <time>2020-06-27T17:52:08Z</time>
      </trkpt>
      <trkpt lat="48.41436" lon="-0.90635">
        <ele>204.71</ele>
        <time>2020-06-27T17:52:14Z</time>
      </trkpt>
      <trkpt lat="48.41443" lon="-0.90639">
        <ele>205.71</ele>
        <time>2020-06-27T17:52:20Z</time>
      </trkpt>
      <trkpt lat="48.4145" lon="-0.90641">
        <ele>205.71</ele>
        <time>2020-06-27T17:52:26Z</time>
      </trkpt>
      <trkpt lat="48.41456" lon="-0.90644">
        <ele>206.71</ele>
        <time>2020-06-27T17:52:31Z</time>
      </trkpt>
      <trkpt lat="48.41461" lon="-0.90649">
        <ele>204.71</ele>
        <time>2020-06-27T17:52:36Z</time>
      </trkpt>
      <trkpt lat="48.41467" lon="-0.90652">
        <ele>205.71</ele>
        <time>2020-06-27T17:52:42Z</time>
      </trkpt>
      <trkpt lat="48.41472" lon="-0.90654">
        <ele>206.71</ele>
        <time>2020-06-27T17:52:48Z</time>
      </trkpt>
      <trkpt lat="48.41478" lon="-0.90656">
        <ele>208.71</ele>
        <time>2020-06-27T17:52:54Z</time>
      </trkpt>
      <trkpt lat="48.41483" lon="-0.90658">
        <ele>209.71</ele>
        <time>2020-06-27T17:52:59Z</time>
      </trkpt>
      <trkpt lat="48.41489" lon="-0.90663">
        <ele>209.71</ele>
        <time>2020-06-27T17:53:05Z</time>
      </trkpt>
      <trkpt lat="48.41494" lon="-0.90667">
        <ele>208.71</ele>
        <time>2020-06-27T17:53:11Z</time>
      </trkpt>
      <trkpt lat="48.41501" lon="-0.90671">
        <ele>209.71</ele>
        <time>2020-06-27T17:53:17Z</time>
      </trkpt>
      <trkpt lat="48.41507" lon="-0.90674">
        <ele>210.71</ele>
        <time>2020-06-27T17:53:23Z</time>
      </trkpt>
      <trkpt lat="48.41512" lon="-0.90678">
        <ele>211.71</ele>
        <time>2020-06-27T17:53:29Z</time>
      </trkpt>
      <trkpt lat="48.41517" lon="-0.90688">
        <ele>210.71</ele>
        <time>2020-06-27T17:53:35Z</time>
      </trkpt>
      <trkpt lat="48.41521" lon="-0.90692">
        <ele>212.71</ele>
        <time>2020-06-27T17:53:40Z</time>
      </trkpt>
      <trkpt lat="48.41526" lon="-0.90697">
        <ele>212.71</ele>
        <time>2020-06-27T17:53:46Z</time>
      </trkpt>
      <trkpt lat="48.41531" lon="-0.90703">
        <ele>210.71</ele>
        <time>2020-06-27T17:53:52Z</time>
      </trkpt>
      <trkpt lat="48.41539" lon="-0.90706">
        <ele>212.71</ele>
        <time>2020-06-27T17:53:58Z</time>
      </trkpt>
      <trkpt lat="48.41545" lon="-0.9071">
        <ele>213.71</ele>
        <time>2020-06-27T17:54:03Z</time>
      </trkpt>
      <trkpt lat="48.41551" lon="-0.90713">
        <ele>213.71</ele>
        <time>2020-06-27T17:54:09Z</time>
      </trkpt>
      <trkpt lat="48.41555" lon="-0.90716">
        <ele>212.71</ele>
        <time>2020-06-27T17:54:14Z</time>
      </trkpt>
      <trkpt lat="48.41561" lon="-0.90719">
        <ele>213.71</ele>
        <time>2020-06-27T17:54:20Z</time>
      </trkpt>
      <trkpt lat="48.41568" lon="-0.90723">
        <ele>213.71</ele>
        <time>2020-06-27T17:54:26Z</time>
      </trkpt>
      <trkpt lat="48.41574" lon="-0.90722">
        <ele>216.71</ele>
        <time>2020-06-27T17:54:32Z</time>
      </trkpt>
      <trkpt lat="48.4158" lon="-0.90723">
        <ele>217.71</ele>
        <time>2020-06-27T17:54:37Z</time>
      </trkpt>
      <trkpt lat="48.41586" lon="-0.90726">
        <ele>217.71</ele>
        <time>2020-06-27T17:54:43Z</time>
      </trkpt>
      <trkpt lat="48.41591" lon="-0.90728">
        <ele>217.71</ele>
        <time>2020-06-27T17:54:48Z</time>
      </trkpt>
      <trkpt lat="48.41597" lon="-0.90731">
        <ele>217.71</ele>
        <time>2020-06-27T17:54:54Z</time>
      </trkpt>
      <trkpt lat="48.41603" lon="-0.9073">
        <ele>217.71</ele>
        <time>2020-06-27T17:54:59Z</time>
      </trkpt>
      <trkpt lat="48.41608" lon="-0.90729">
        <ele>218.71</ele>
        <time>2020-06-27T17:55:04Z</time>
      </trkpt>
      <trkpt lat="48.41613" lon="-0.90726">
        <ele>218.71</ele>
        <time>2020-06-27T17:55:09Z</time>
      </trkpt>
      <trkpt lat="48.41618" lon="-0.9072">
        <ele>218.71</ele>
        <time>2020-06-27T17:55:15Z</time>
      </trkpt>
      <trkpt lat="48.41623" lon="-0.90714">
        <ele>218.71</ele>
        <time>2020-06-27T17:55:21Z</time>
      </trkpt>
      <trkpt lat="48.41629" lon="-0.90709">
        <ele>218.71</ele>
        <time>2020-06-27T17:55:27Z</time>
      </trkpt>
      <trkpt lat="48.41632" lon="-0.90704">
        <ele>219.71</ele>
        <time>2020-06-27T17:55:32Z</time>
      </trkpt>
      <trkpt lat="48.41637" lon="-0.90697">
        <ele>220.71</ele>
        <time>2020-06-27T17:55:38Z</time>
      </trkpt>
      <trkpt lat="48.41642" lon="-0.90691">
        <ele>220.71</ele>
        <time>2020-06-27T17:55:44Z</time>
      </trkpt>
      <trkpt lat="48.41647" lon="-0.90686">
        <ele>220.71</ele>
        <time>2020-06-27T17:55:50Z</time>
      </trkpt>
      <trkpt lat="48.41653" lon="-0.90682">
        <ele>221.71</ele>
        <time>2020-06-27T17:55:56Z</time>
      </trkpt>
      <trkpt lat="48.41658" lon="-0.90679">
        <ele>221.71</ele>
        <time>2020-06-27T17:56:01Z</time>
      </trkpt>
      <trkpt lat="48.41664" lon="-0.90678">
        <ele>221.71</ele>
        <time>2020-06-27T17:56:06Z</time>
      </trkpt>
      <trkpt lat="48.41669" lon="-0.90679">
        <ele>221.71</ele>
        <time>2020-06-27T17:56:11Z</time>
      </trkpt>
      <trkpt lat="48.41675" lon="-0.9068">
        <ele>220.71</ele>
        <time>2020-06-27T17:56:17Z</time>
      </trkpt>
      <trkpt lat="48.41681" lon="-0.9068">
        <ele>220.71</ele>
        <time>2020-06-27T17:56:22Z</time>
      </trkpt>
      <trkpt lat="48.41686" lon="-0.90681">
        <ele>221.71</ele>
        <time>2020-06-27T17:56:27Z</time>
      </trkpt>
      <trkpt lat="48.41691" lon="-0.90682">
        <ele>221.71</ele>
        <time>2020-06-27T17:56:32Z</time>
      </trkpt>
      <trkpt lat="48.41697" lon="-0.90683">
        <ele>221.71</ele>
        <time>2020-06-27T17:56:38Z</time>
      </trkpt>
      <trkpt lat="48.41704" lon="-0.90684">
        <ele>221.71</ele>
        <time>2020-06-27T17:56:44Z</time>
      </trkpt>
      <trkpt lat="48.41711" lon="-0.90684">
        <ele>221.71</ele>
        <time>2020-06-27T17:56:50Z</time>
      </trkpt>
      <trkpt lat="48.41717" lon="-0.90686">
        <ele>221.71</ele>
        <time>2020-06-27T17:56:56Z</time>
      </trkpt>
      <trkpt lat="48.41722" lon="-0.90686">
        <ele>221.71</ele>
        <time>2020-06-27T17:57:01Z</time>
      </trkpt>
      <trkpt lat="48.41727" lon="-0.90687">
        <ele>222.71</ele>
        <time>2020-06-27T17:57:06Z</time>
      </trkpt>
      <trkpt lat="48.41734" lon="-0.90688">
        <ele>222.71</ele>
        <time>2020-06-27T17:57:12Z</time>
      </trkpt>
      <trkpt lat="48.4174" lon="-0.90689">
        <ele>223.71</ele>
        <time>2020-06-27T17:57:18Z</time>
      </trkpt>
      <trkpt lat="48.41745" lon="-0.9069">
        <ele>223.71</ele>
        <time>2020-06-27T17:57:23Z</time>
      </trkpt>
      <trkpt lat="48.41751" lon="-0.9069">
        <ele>223.71</ele>
        <time>2020-06-27T17:57:29Z</time>
      </trkpt>
      <trkpt lat="48.41755" lon="-0.90691">
        <ele>223.71</ele>
        <time>2020-06-27T17:57:34Z</time>
      </trkpt>
      <trkpt lat="48.41762" lon="-0.90692">
        <ele>223.71</ele>
        <time>2020-06-27T17:57:40Z</time>
      </trkpt>
      <trkpt lat="48.41769" lon="-0.90693">
        <ele>224.71</ele>
        <time>2020-06-27T17:57:46Z</time>
      </trkpt>
      <trkpt lat="48.41775" lon="-0.90693">
        <ele>224.71</ele>
        <time>2020-06-27T17:57:51Z</time>
      </trkpt>
      <trkpt lat="48.41781" lon="-0.90694">
        <ele>224.71</ele>
        <time>2020-06-27T17:57:57Z</time>
      </trkpt>
      <trkpt lat="48.41787" lon="-0.90695">
        <ele>224.71</ele>
        <time>2020-06-27T17:58:02Z</time>
      </trkpt>
      <trkpt lat="48.41791" lon="-0.90696">
        <ele>224.71</ele>
        <time>2020-06-27T17:58:07Z</time>
      </trkpt>
      <trkpt lat="48.41797" lon="-0.90696">
        <ele>224.71</ele>
        <time>2020-06-27T17:58:13Z</time>
      </trkpt>
      <trkpt lat="48.41802" lon="-0.90696">
        <ele>224.71</ele>
        <time>2020-06-27T17:58:19Z</time>
      </trkpt>
      <trkpt lat="48.41808" lon="-0.90697">
        <ele>224.71</ele>
        <time>2020-06-27T17:58:25Z</time>
      </trkpt>
      <trkpt lat="48.41813" lon="-0.90698">
        <ele>224.71</ele>
        <time>2020-06-27T17:58:30Z</time>
      </trkpt>
      <trkpt lat="48.41819" lon="-0.90696">
        <ele>224.71</ele>
        <time>2020-06-27T17:58:36Z</time>
      </trkpt>
      <trkpt lat="48.41823" lon="-0.90697">
        <ele>224.71</ele>
        <time>2020-06-27T17:58:41Z</time>
      </trkpt>
      <trkpt lat="48.41823" lon="-0.90697">
        <ele>224.71</ele>
        <time>2020-06-27T17:58:46Z</time>
      </trkpt>
      <trkpt lat="48.41823" lon="-0.90697">
        <ele>223.71</ele>
        <time>2020-06-27T17:58:52Z</time>
      </trkpt>
      <trkpt lat="48.41823" lon="-0.90697">
        <ele>223.71</ele>
        <time>2020-06-27T17:58:57Z</time>
      </trkpt>
      <trkpt lat="48.41823" lon="-0.90697">
        <ele>223.71</ele>
        <time>2020-06-27T17:59:03Z</time>
      </trkpt>
      <trkpt lat="48.41824" lon="-0.90703">
        <ele>224.71</ele>
        <time>2020-06-27T17:59:08Z</time>
      </trkpt>
      <trkpt lat="48.41825" lon="-0.90709">
        <ele>224.71</ele>
        <time>2020-06-27T17:59:13Z</time>
      </trkpt>
      <trkpt lat="48.41827" lon="-0.90717">
        <ele>223.71</ele>
        <time>2020-06-27T17:59:18Z</time>
      </trkpt>
      <trkpt lat="48.41826" lon="-0.90726">
        <ele>223.71</ele>
        <time>2020-06-27T17:59:24Z</time>
      </trkpt>
      <trkpt lat="48.41825" lon="-0.90736">
        <ele>223.71</ele>
        <time>2020-06-27T17:59:30Z</time>
      </trkpt>
      <trkpt lat="48.41824" lon="-0.90743">
        <ele>223.71</ele>
        <time>2020-06-27T17:59:35Z</time>
      </trkpt>
      <trkpt lat="48.41823" lon="-0.90753">
        <ele>223.71</ele>
        <time>2020-06-27T17:59:41Z</time>
      </trkpt>
      <trkpt lat="48.41823" lon="-0.90761">
        <ele>223.71</ele>
        <time>2020-06-27T17:59:46Z</time>
      </trkpt>
      <trkpt lat="48.41821" lon="-0.9077">
        <ele>223.71</ele>
        <time>2020-06-27T17:59:52Z</time>
      </trkpt>
      <trkpt lat="48.4182" lon="-0.9078">
        <ele>223.71</ele>
        <time>2020-06-27T17:59:58Z</time>
      </trkpt>
      <trkpt lat="48.4182" lon="-0.90783">
        <ele>223.71</ele>
        <time>2020-06-27T18:00:04Z</time>
      </trkpt>
      <trkpt lat="48.4182" lon="-0.90789">
        <ele>224.71</ele>
        <time>2020-06-27T18:00:09Z</time>
      </trkpt>
      <trkpt lat="48.4182" lon="-0.90799">
        <ele>224.71</ele>
        <time>2020-06-27T18:00:15Z</time>
      </trkpt>
      <trkpt lat="48.41819" lon="-0.90807">
        <ele>224.71</ele>
        <time>2020-06-27T18:00:20Z</time>
      </trkpt>
      <trkpt lat="48.41817" lon="-0.90817">
        <ele>224.71</ele>
        <time>2020-06-27T18:00:26Z</time>
      </trkpt>
      <trkpt lat="48.41817" lon="-0.90826">
        <ele>223.71</ele>
        <time>2020-06-27T18:00:32Z</time>
      </trkpt>
      <trkpt lat="48.41816" lon="-0.90834">
        <ele>222.71</ele>
        <time>2020-06-27T18:00:37Z</time>
      </trkpt>
      <trkpt lat="48.41815" lon="-0.90843">
        <ele>222.71</ele>
        <time>2020-06-27T18:00:43Z</time>
      </trkpt>
      <trkpt lat="48.41814" lon="-0.90851">
        <ele>223.71</ele>
        <time>2020-06-27T18:00:48Z</time>
      </trkpt>
      <trkpt lat="48.41813" lon="-0.90861">
        <ele>224.71</ele>
        <time>2020-06-27T18:00:54Z</time>
      </trkpt>
      <trkpt lat="48.41813" lon="-0.9087">
        <ele>224.71</ele>
        <time>2020-06-27T18:01:00Z</time>
      </trkpt>
      <trkpt lat="48.41812" lon="-0.90878">
        <ele>225.71</ele>
        <time>2020-06-27T18:01:05Z</time>
      </trkpt>
      <trkpt lat="48.41812" lon="-0.90885">
        <ele>224.71</ele>
        <time>2020-06-27T18:01:10Z</time>
      </trkpt>
      <trkpt lat="48.41812" lon="-0.90893">
        <ele>224.71</ele>
        <time>2020-06-27T18:01:15Z</time>
      </trkpt>
      <trkpt lat="48.41811" lon="-0.90902">
        <ele>224.71</ele>
        <time>2020-06-27T18:01:21Z</time>
      </trkpt>
      <trkpt lat="48.41811" lon="-0.90911">
        <ele>223.71</ele>
        <time>2020-06-27T18:01:26Z</time>
      </trkpt>
      <trkpt lat="48.4181" lon="-0.90918">
        <ele>223.71</ele>
        <time>2020-06-27T18:01:32Z</time>
      </trkpt>
      <trkpt lat="48.4181" lon="-0.90925">
        <ele>224.71</ele>
        <time>2020-06-27T18:01:37Z</time>
      </trkpt>
      <trkpt lat="48.41809" lon="-0.90934">
        <ele>224.71</ele>
        <time>2020-06-27T18:01:43Z</time>
      </trkpt>
      <trkpt lat="48.41808" lon="-0.90942">
        <ele>226.71</ele>
        <time>2020-06-27T18:01:49Z</time>
      </trkpt>
      <trkpt lat="48.41807" lon="-0.90949">
        <ele>227.71</ele>
        <time>2020-06-27T18:01:55Z</time>
      </trkpt>
      <trkpt lat="48.41806" lon="-0.90959">
        <ele>227.71</ele>
        <time>2020-06-27T18:02:01Z</time>
      </trkpt>
      <trkpt lat="48.41806" lon="-0.90969">
        <ele>227.71</ele>
        <time>2020-06-27T18:02:07Z</time>
      </trkpt>
      <trkpt lat="48.41805" lon="-0.90979">
        <ele>226.71</ele>
        <time>2020-06-27T18:02:13Z</time>
      </trkpt>
      <trkpt lat="48.41803" lon="-0.90987">
        <ele>226.71</ele>
        <time>2020-06-27T18:02:18Z</time>
      </trkpt>
      <trkpt lat="48.41803" lon="-0.90993">
        <ele>226.71</ele>
        <time>2020-06-27T18:02:24Z</time>
      </trkpt>
      <trkpt lat="48.41802" lon="-0.91002">
        <ele>226.71</ele>
        <time>2020-06-27T18:02:29Z</time>
      </trkpt>
      <trkpt lat="48.41802" lon="-0.91008">
        <ele>226.71</ele>
        <time>2020-06-27T18:02:34Z</time>
      </trkpt>
      <trkpt lat="48.418" lon="-0.91017">
        <ele>226.71</ele>
        <time>2020-06-27T18:02:40Z</time>
      </trkpt>
      <trkpt lat="48.418" lon="-0.91025">
        <ele>226.71</ele>
        <time>2020-06-27T18:02:45Z</time>
      </trkpt>
      <trkpt lat="48.41799" lon="-0.91033">
        <ele>227.71</ele>
        <time>2020-06-27T18:02:50Z</time>
      </trkpt>
      <trkpt lat="48.41798" lon="-0.91043">
        <ele>227.71</ele>
        <time>2020-06-27T18:02:56Z</time>
      </trkpt>
      <trkpt lat="48.41798" lon="-0.91051">
        <ele>226.71</ele>
        <time>2020-06-27T18:03:01Z</time>
      </trkpt>
      <trkpt lat="48.41797" lon="-0.91059">
        <ele>227.71</ele>
        <time>2020-06-27T18:03:06Z</time>
      </trkpt>
      <trkpt lat="48.41797" lon="-0.91068">
        <ele>227.71</ele>
        <time>2020-06-27T18:03:12Z</time>
      </trkpt>
      <trkpt lat="48.41796" lon="-0.91076">
        <ele>227.71</ele>
        <time>2020-06-27T18:03:18Z</time>
      </trkpt>
      <trkpt lat="48.41795" lon="-0.91085">
        <ele>228.71</ele>
        <time>2020-06-27T18:03:24Z</time>
      </trkpt>
      <trkpt lat="48.41794" lon="-0.91094">
        <ele>229.71</ele>
        <time>2020-06-27T18:03:30Z</time>
      </trkpt>
      <trkpt lat="48.41794" lon="-0.91102">
        <ele>228.71</ele>
        <time>2020-06-27T18:03:35Z</time>
      </trkpt>
      <trkpt lat="48.41792" lon="-0.91112">
        <ele>227.71</ele>
        <time>2020-06-27T18:03:41Z</time>
      </trkpt>
      <trkpt lat="48.41792" lon="-0.91119">
        <ele>228.71</ele>
        <time>2020-06-27T18:03:46Z</time>
      </trkpt>
      <trkpt lat="48.41792" lon="-0.91119">
        <ele>228.71</ele>
        <time>2020-06-27T18:03:51Z</time>
      </trkpt>
      <trkpt lat="48.41791" lon="-0.91126">
        <ele>227.71</ele>
        <time>2020-06-27T18:03:57Z</time>
      </trkpt>
      <trkpt lat="48.41791" lon="-0.91138">
        <ele>229.71</ele>
        <time>2020-06-27T18:04:03Z</time>
      </trkpt>
      <trkpt lat="48.41791" lon="-0.91144">
        <ele>229.71</ele>
        <time>2020-06-27T18:04:08Z</time>
      </trkpt>
      <trkpt lat="48.41789" lon="-0.91152">
        <ele>228.71</ele>
        <time>2020-06-27T18:04:14Z</time>
      </trkpt>
      <trkpt lat="48.41788" lon="-0.91162">
        <ele>228.71</ele>
        <time>2020-06-27T18:04:20Z</time>
      </trkpt>
      <trkpt lat="48.41786" lon="-0.91171">
        <ele>227.71</ele>
        <time>2020-06-27T18:04:25Z</time>
      </trkpt>
      <trkpt lat="48.41786" lon="-0.91178">
        <ele>227.71</ele>
        <time>2020-06-27T18:04:30Z</time>
      </trkpt>
      <trkpt lat="48.41785" lon="-0.91189">
        <ele>226.71</ele>
        <time>2020-06-27T18:04:35Z</time>
      </trkpt>
      <trkpt lat="48.41784" lon="-0.91198">
        <ele>226.71</ele>
        <time>2020-06-27T18:04:41Z</time>
      </trkpt>
      <trkpt lat="48.41783" lon="-0.91205">
        <ele>225.71</ele>
        <time>2020-06-27T18:04:46Z</time>
      </trkpt>
      <trkpt lat="48.41782" lon="-0.91213">
        <ele>224.71</ele>
        <time>2020-06-27T18:04:52Z</time>
      </trkpt>
      <trkpt lat="48.41781" lon="-0.9122">
        <ele>225.71</ele>
        <time>2020-06-27T18:04:58Z</time>
      </trkpt>
      <trkpt lat="48.41783" lon="-0.91233">
        <ele>229.71</ele>
        <time>2020-06-27T18:05:04Z</time>
      </trkpt>
      <trkpt lat="48.41784" lon="-0.9124">
        <ele>230.71</ele>
        <time>2020-06-27T18:05:09Z</time>
      </trkpt>
      <trkpt lat="48.41782" lon="-0.91251">
        <ele>231.71</ele>
        <time>2020-06-27T18:05:15Z</time>
      </trkpt>
      <trkpt lat="48.4178" lon="-0.91256">
        <ele>229.71</ele>
        <time>2020-06-27T18:05:20Z</time>
      </trkpt>
      <trkpt lat="48.41781" lon="-0.91266">
        <ele>229.71</ele>
        <time>2020-06-27T18:05:26Z</time>
      </trkpt>
      <trkpt lat="48.41782" lon="-0.91271">
        <ele>231.71</ele>
        <time>2020-06-27T18:05:32Z</time>
      </trkpt>
      <trkpt lat="48.41781" lon="-0.91275">
        <ele>231.71</ele>
        <time>2020-06-27T18:05:38Z</time>
      </trkpt>
      <trkpt lat="48.4178" lon="-0.91279">
        <ele>230.71</ele>
        <time>2020-06-27T18:05:43Z</time>
      </trkpt>
      <trkpt lat="48.4178" lon="-0.91289">
        <ele>229.71</ele>
        <time>2020-06-27T18:05:49Z</time>
      </trkpt>
      <trkpt lat="48.41779" lon="-0.91296">
        <ele>226.71</ele>
        <time>2020-06-27T18:05:54Z</time>
      </trkpt>
      <trkpt lat="48.41778" lon="-0.913">
        <ele>224.71</ele>
        <time>2020-06-27T18:05:59Z</time>
      </trkpt>
      <trkpt lat="48.41778" lon="-0.91303">
        <ele>225.71</ele>
        <time>2020-06-27T18:06:05Z</time>
      </trkpt>
      <trkpt lat="48.41778" lon="-0.91303">
        <ele>226.71</ele>
        <time>2020-06-27T18:06:10Z</time>
      </trkpt>
      <trkpt lat="48.41778" lon="-0.91307">
        <ele>225.71</ele>
        <time>2020-06-27T18:06:16Z</time>
      </trkpt>
      <trkpt lat="48.41779" lon="-0.9131">
        <ele>225.71</ele>
        <time>2020-06-27T18:06:22Z</time>
      </trkpt>
      <trkpt lat="48.41779" lon="-0.9131">
        <ele>225.71</ele>
        <time>2020-06-27T18:06:27Z</time>
      </trkpt>
      <trkpt lat="48.41778" lon="-0.91315">
        <ele>225.71</ele>
        <time>2020-06-27T18:06:33Z</time>
      </trkpt>
      <trkpt lat="48.41778" lon="-0.91323">
        <ele>225.71</ele>
        <time>2020-06-27T18:06:39Z</time>
      </trkpt>
      <trkpt lat="48.41777" lon="-0.9133">
        <ele>225.71</ele>
        <time>2020-06-27T18:06:44Z</time>
      </trkpt>
      <trkpt lat="48.41774" lon="-0.91335">
        <ele>227.71</ele>
        <time>2020-06-27T18:06:50Z</time>
      </trkpt>
      <trkpt lat="48.41769" lon="-0.91336">
        <ele>229.71</ele>
        <time>2020-06-27T18:06:56Z</time>
      </trkpt>
      <trkpt lat="48.41768" lon="-0.91344">
        <ele>229.71</ele>
        <time>2020-06-27T18:07:06Z</time>
      </trkpt>
      <trkpt lat="48.41769" lon="-0.91349">
        <ele>230.71</ele>
        <time>2020-06-27T18:07:12Z</time>
      </trkpt>
      <trkpt lat="48.41769" lon="-0.91351">
        <ele>231.71</ele>
        <time>2020-06-27T18:07:18Z</time>
      </trkpt>
    </trkseg>
  </trk>
</gpx>